
Distance (Route):
Temperature : 18.2°C
Humidity : 83.6%
Pressure : 998.67hPa| Receiver | Frames | First received | Last received |
|---|---|---|---|
| DL1XH-west | 1072 | 2026-09-03 10:47:42 | 2026-09-03 14:03:28 |
| DF8AY | 1068 | 2026-09-03 11:19:24 | 2026-09-03 14:16:26 |
| BIOWL1-15 | 851 | 2026-09-03 10:52:09 | 2026-09-03 14:06:36 |
| AA1-15 | 800 | 2026-09-03 11:13:04 | 2026-09-03 14:05:18 |
| DM0DOS-11 | 761 | 2026-09-03 10:47:02 | 2026-09-03 14:08:59 |
| DL1XH1-15 | 732 | 2026-09-03 10:48:06 | 2026-09-03 14:02:32 |
| DB0DAN | 723 | 2026-09-03 10:54:25 | 2026-09-03 14:18:10 |
| DL1XH-15 | 674 | 2026-09-03 10:58:14 | 2026-09-03 14:05:39 |
| DO2JMG | 577 | 2026-09-03 11:14:04 | 2026-09-03 13:19:12 |
| DO2SHX-10 | 549 | 2026-09-03 11:26:34 | 2026-09-03 13:54:15 |
| HSKMA3-T | 371 | 2026-09-03 11:44:02 | 2026-09-03 13:02:33 |
| GOEST3-10 | 332 | 2026-09-03 10:51:17 | 2026-09-03 13:37:43 |
| DJ2DS-15 | 232 | 2026-09-03 10:45:10 | 2026-09-03 13:58:03 |
| DF8AY-15 | 137 | 2026-09-03 11:27:53 | 2026-09-03 14:11:27 |
| DL1NUX | 130 | 2026-09-03 11:42:42 | 2026-09-03 12:54:11 |
| DF5WG-10 | 102 | 2026-09-03 10:47:30 | 2026-09-03 13:20:20 |
| DL3AQ-11 | 81 | 2026-09-03 11:24:02 | 2026-09-03 13:43:45 |
| DL4XJ-10 | 81 | 2026-09-03 11:25:42 | 2026-09-03 13:58:45 |
| DF4FW | 79 | 2026-09-03 10:55:54 | 2026-09-03 12:59:02 |
| DL4BBY-15 | 57 | 2026-09-03 10:56:22 | 2026-09-03 13:38:28 |
| DB0UT-7 | 52 | 2026-09-03 11:14:03 | 2026-09-03 13:29:13 |
| BIOWL9-15 | 50 | 2026-09-03 10:55:48 | 2026-09-03 13:59:31 |
| SONCRA | 48 | 2026-09-03 11:14:33 | 2026-09-03 13:59:41 |
| DF7ER-10 | 45 | 2026-09-03 13:21:32 | 2026-09-03 14:16:49 |
| HTAHTA | 44 | 2026-09-03 10:55:04 | 2026-09-03 13:26:47 |
| DO9LL-15 | 43 | 2026-09-03 11:00:57 | 2026-09-03 13:29:27 |
| SMARD9-15 | 40 | 2026-09-03 11:01:29 | 2026-09-03 13:47:36 |
| DL1LOL-11 | 32 | 2026-09-03 11:16:20 | 2026-09-03 13:44:02 |
| BUE01 | 32 | 2026-09-03 11:19:28 | 2026-09-03 13:35:04 |
| DB0NH | 31 | 2026-09-03 11:33:36 | 2026-09-03 13:33:38 |
| SONDE2-11 | 29 | 2026-09-03 11:49:13 | 2026-09-03 13:53:56 |
| EDDB2-12 | 28 | 2026-09-03 11:53:45 | 2026-09-03 13:44:59 |
| DL1CLM-18 | 26 | 2026-09-03 10:53:48 | 2026-09-03 12:59:51 |
| DO9FK | 25 | 2026-09-03 10:47:01 | 2026-09-03 11:19:56 |
| S3001 | 23 | 2026-09-03 11:57:25 | 2026-09-03 13:59:07 |
| DC6BW-12 | 22 | 2026-09-03 11:12:42 | 2026-09-03 12:55:11 |
| SMARD9-10 | 20 | 2026-09-03 11:14:02 | 2026-09-03 14:09:11 |
| DD1CC8 | 18 | 2026-09-03 11:46:45 | 2026-09-03 13:05:56 |
| DO2LYB-13 | 17 | 2026-09-03 10:56:15 | 2026-09-03 13:48:55 |
| DL8OAI-8 | 15 | 2026-09-03 11:30:44 | 2026-09-03 13:37:03 |
| SO1NDE-10 | 11 | 2026-09-03 11:47:54 | 2026-09-03 12:50:04 |
| D01LWL | 11 | 2026-09-03 13:47:34 | 2026-09-03 14:07:45 |
| BIOWL7-15 | 10 | 2026-09-03 11:02:59 | 2026-09-03 13:49:56 |
| DK9SH | 8 | 2026-09-03 12:20:10 | 2026-09-03 13:59:34 |
| TFSTFS | 6 | 2026-09-03 13:40:45 | 2026-09-03 13:55:11 |
| AU51GT2 | 5 | 2026-09-03 11:56:46 | 2026-09-03 12:18:30 |
| EDDB2-11 | 5 | 2026-09-03 13:30:45 | 2026-09-03 13:46:47 |
| DJ2KF-10 | 4 | 2026-09-03 11:58:46 | 2026-09-03 12:57:02 |
| DO3MHA-11 | 4 | 2026-09-03 12:28:36 | 2026-09-03 12:29:49 |
| AP2371 | 3 | 2026-09-03 11:36:14 | 2026-09-03 13:03:26 |
| DL8DAS-14 | 2 | 2026-09-03 12:26:08 | 2026-09-03 12:30:47 |
| DK1YY | 2 | 2026-09-03 12:26:42 | 2026-09-03 12:30:51 |
| SP3BTT-10 | 2 | 2026-09-03 12:39:36 | 2026-09-03 12:43:47 |
| WEDDY | 1 | 2026-09-03 11:15:26 | 2026-09-03 11:15:26 |
| DL2RXE-15 | 1 | 2026-09-03 13:22:42 | 2026-09-03 13:22:42 |
| AM1SDL-15 | 1 | 2026-09-03 14:07:52 | 2026-09-03 14:07:52 |
| Receiver | Date | Latitude | Longitude | Direction | Speed | Altitude | Climb | Temperature | Humidity | Pressure | Voltage | Killtimer | Uptime | BKT | XDATA |
|---|---|---|---|---|---|---|---|---|---|---|---|---|---|---|---|
| DB0DAN | 2026-09-03 14:18:10 | 52.68987 | 11.03847 | 55° | 22km/h | 161m | -2.7m/s | 18.2°C | 83.6% | 998.67hPa | 2.8V | 00:00:00 | 00:00:00 | 00:00:00 | |
| DB0DAN | 2026-09-03 14:17:55 | 52.68918 | 11.03694 | 45° | 31km/h | 205m | -2.8m/s | 17.6°C | 85.6% | 993.86hPa | 2.8V | 00:00:00 | 00:00:00 | 00:00:00 | |
| DB0DAN | 2026-09-03 14:17:40 | 52.68834 | 11.03511 | 53° | 33km/h | 235m | -2.7m/s | 17.1°C | 87.9% | 990.2hPa | 2.8V | 00:00:00 | 00:00:00 | 00:00:00 | |
| DB0DAN | 2026-09-03 14:17:25 | 52.68754 | 11.03324 | 63° | 38km/h | 272m | -1.6m/s | 16.6°C | 90.6% | 986hPa | 2.8V | 00:00:00 | 00:00:00 | 00:00:00 | |
| DB0DAN | 2026-09-03 14:17:10 | 52.68699 | 11.03116 | 53° | 40km/h | 316m | -3.2m/s | 16.1°C | 91.8% | 981.12hPa | 2.8V | 00:00:00 | 00:00:00 | 00:00:00 | |
| DB0DAN | 2026-09-03 14:16:55 | 52.68609 | 11.02858 | 68° | 47km/h | 373m | -3.3m/s | 15.6°C | 93.8% | 974.76hPa | 2.8V | 00:00:00 | 00:00:00 | 00:00:00 | |
| DF7ER-10 | 2026-09-03 14:16:49 | 52.68591 | 11.02765 | 77° | 44km/h | 388m | -3.5m/s | 15.5°C | 94.3% | 972.8hPa | 2.8V | 00:00:00 | 00:00:00 | 00:00:00 | |
| DB0DAN | 2026-09-03 14:16:40 | 52.68546 | 11.02607 | 56° | 46km/h | 426m | -3.2m/s | 15.3°C | 95.4% | 968.74hPa | 2.8V | 00:00:00 | 00:00:00 | 00:00:00 | |
| DF8AY | 2026-09-03 14:16:26 | 52.68456 | 11.02331 | 73° | 51km/h | 469m | -2.4m/s | 15°C | 98.9% | 963.9hPa | 2.8V | 06:45:36 | 03:57:04 | 00:00:00 | |
| DB0DAN | 2026-09-03 14:16:25 | 52.68452 | 11.02311 | 74° | 47km/h | 472m | -2.4m/s | 15°C | 96.4% | 963.47hPa | 2.8V | 00:00:00 | 00:00:00 | 00:00:00 | |
| DF8AY | 2026-09-03 14:16:24 | 52.68448 | 11.02292 | 74° | 47km/h | 474m | -2.7m/s | 15°C | 99.3% | 963.2hPa | 2.8V | 06:45:36 | 03:57:02 | 00:00:00 | |
| DF8AY | 2026-09-03 14:16:22 | 52.68442 | 11.02256 | 70° | 44km/h | 479m | -3m/s | 14.9°C | 99.5% | 962.6hPa | 2.8V | 06:45:36 | 03:57:00 | 00:00:00 | |
| DF8AY | 2026-09-03 14:16:20 | 52.68434 | 11.02223 | 65° | 42km/h | 486m | -2.6m/s | 14.9°C | 99.3% | 962.2hPa | 2.8V | 06:45:36 | 03:56:58 | 00:00:00 | |
| DF8AY | 2026-09-03 14:16:18 | 52.68424 | 11.02193 | 59° | 42km/h | 492m | -2.9m/s | 14.9°C | 98.4% | 961.4hPa | 2.8V | 06:45:36 | 03:56:56 | 00:00:00 | |
| DF8AY | 2026-09-03 14:16:17 | 52.68418 | 11.02178 | 58° | 44km/h | 494m | -2.9m/s | 14.8°C | 98.1% | 961hPa | 2.8V | 06:45:36 | 03:56:55 | 00:00:00 | |
| DF8AY | 2026-09-03 14:16:15 | 52.68406 | 11.02146 | 59° | 47km/h | 500m | -2.4m/s | 14.8°C | 98.4% | 960.3hPa | 2.8V | 06:45:36 | 03:56:53 | 00:00:00 | |
| DF8AY | 2026-09-03 14:16:13 | 52.68366 | 11.02032 | 60° | 57km/h | 515m | -2.6m/s | 14.7°C | 99.3% | 958.6hPa | 2.8V | 06:45:36 | 03:56:47 | 00:00:00 | |
| DF8AY | 2026-09-03 14:16:13 | 52.68360 | 11.02012 | 63° | 57km/h | 517m | -2.7m/s | 14.7°C | 99.4% | 958.2hPa | 2.8V | 06:45:36 | 03:56:46 | 00:00:00 | |
| DB0DAN | 2026-09-03 14:16:10 | 52.68373 | 11.02052 | 61° | 53km/h | 512m | -2.6m/s | 14.7°C | 97.5% | 959.09hPa | 2.8V | 00:00:00 | 00:00:00 | 00:00:00 | |
| DF8AY | 2026-09-03 14:16:07 | 52.68353 | 11.01991 | 62° | 57km/h | 520m | -2.8m/s | 14.7°C | 99.4% | 958hPa | 2.8V | 06:45:36 | 03:56:45 | 00:00:00 | |
| DF8AY | 2026-09-03 14:16:05 | 52.68340 | 11.01949 | 63° | 57km/h | 525m | -2.5m/s | 14.7°C | 99.2% | 957.5hPa | 2.8V | 06:45:36 | 03:56:43 | 00:00:00 | |
| DF8AY | 2026-09-03 14:16:05 | 52.68334 | 11.01927 | 66° | 60km/h | 527m | -2.7m/s | 14.7°C | 99% | 957.1hPa | 2.8V | 06:45:36 | 03:56:42 | 00:00:00 | |
| DF8AY | 2026-09-03 14:16:03 | 52.68328 | 11.01904 | 67° | 60km/h | 530m | -2.6m/s | 14.7°C | 98.5% | 956.7hPa | 2.8V | 06:45:36 | 03:56:41 | 00:00:00 | |
| DF8AY | 2026-09-03 14:16:02 | 52.68322 | 11.01881 | 69° | 58km/h | 532m | -2.6m/s | 14.7°C | 98.3% | 956.6hPa | 2.8V | 06:45:36 | 03:56:40 | 00:00:00 | |
| DF8AY | 2026-09-03 14:16:01 | 52.68317 | 11.01858 | 69° | 60km/h | 535m | -2.6m/s | 14.7°C | 98.2% | 956.1hPa | 2.8V | 06:45:36 | 03:56:39 | 00:00:00 | |
| DF8AY | 2026-09-03 14:15:59 | 52.68306 | 11.01813 | 69° | 57km/h | 541m | -2.6m/s | 14.7°C | 98.2% | 955.7hPa | 2.8V | 06:45:36 | 03:56:37 | 00:00:00 | |
| DF8AY | 2026-09-03 14:15:58 | 52.68301 | 11.01791 | 71° | 58km/h | 543m | -2.6m/s | 14.6°C | 98.2% | 955.4hPa | 2.8V | 06:45:36 | 03:56:36 | 00:00:00 | |
| DF8AY | 2026-09-03 14:15:57 | 52.68296 | 11.01768 | 69° | 57km/h | 546m | -2.6m/s | 14.6°C | 98.4% | 955hPa | 2.8V | 06:45:36 | 03:56:35 | 00:00:00 | |
| DB0DAN | 2026-09-03 14:15:55 | 52.68286 | 11.01723 | 69° | 53km/h | 550m | -2.5m/s | 14.6°C | 97.3% | 954.52hPa | 2.8V | 00:00:00 | 00:00:00 | 00:00:00 | |
| DF8AY | 2026-09-03 14:15:55 | 52.68286 | 11.01723 | 69° | 57km/h | 550m | -2.5m/s | 14.6°C | 98.9% | 954.5hPa | 2.8V | 06:45:36 | 03:56:33 | 00:00:00 | |
| DF8AY | 2026-09-03 14:15:54 | 52.68282 | 11.01701 | 73° | 58km/h | 553m | -2.4m/s | 14.6°C | 99.1% | 954.2hPa | 2.8V | 06:45:36 | 03:56:32 | 00:00:00 | |
| DF8AY | 2026-09-03 14:15:53 | 52.68277 | 11.01678 | 72° | 55km/h | 555m | -2.2m/s | 14.6°C | 99.4% | 953.9hPa | 2.8V | 06:45:36 | 03:56:31 | 00:00:00 | |
| DF8AY | 2026-09-03 14:15:51 | 52.68269 | 11.01634 | 76° | 57km/h | 560m | -2.5m/s | 14.5°C | 99.7% | 953.3hPa | 2.8V | 06:45:36 | 03:56:29 | 00:00:00 | |
| DF8AY | 2026-09-03 14:15:50 | 52.68265 | 11.01612 | 73° | 53km/h | 562m | -2.5m/s | 14.5°C | 99.7% | 953hPa | 2.8V | 06:45:36 | 03:56:28 | 00:00:00 | |
| DF8AY | 2026-09-03 14:15:48 | 52.68258 | 11.01568 | 78° | 53km/h | 568m | -2.4m/s | 14.5°C | 100% | 952.5hPa | 2.8V | 06:45:36 | 03:56:26 | 00:00:00 | |
| DF8AY | 2026-09-03 14:15:47 | 52.68255 | 11.01547 | 76° | 51km/h | 570m | -2.5m/s | 14.5°C | 100% | 952.1hPa | 2.8V | 06:45:36 | 03:56:25 | 00:00:00 | |
| DF8AY | 2026-09-03 14:15:46 | 52.68252 | 11.01526 | 76° | 53km/h | 572m | -2.7m/s | 14.5°C | 100% | 952hPa | 2.8V | 06:45:36 | 03:56:24 | 00:00:00 | |
| DF8AY | 2026-09-03 14:15:44 | 52.68236 | 11.01409 | 73° | 44km/h | 587m | -2.8m/s | 14.4°C | 100% | 950.1hPa | 2.8V | 06:45:36 | 03:56:18 | 00:00:00 | |
| DF8AY | 2026-09-03 14:15:44 | 52.68233 | 11.01392 | 74° | 44km/h | 590m | -2.9m/s | 14.4°C | 100% | 950hPa | 2.8V | 06:46:27 | 03:56:17 | 00:00:00 | |
| DF8AY | 2026-09-03 14:15:37 | 52.68226 | 11.01357 | 69° | 44km/h | 596m | -2.2m/s | 14.4°C | 100% | 949.4hPa | 2.8V | 06:46:27 | 03:56:15 | 00:00:00 | |
| DF8AY | 2026-09-03 14:15:36 | 52.68222 | 11.01341 | 69° | 42km/h | 598m | -2.6m/s | 14.4°C | 100% | 949.1hPa | 2.8V | 06:46:27 | 03:56:14 | 00:00:00 | |
| DF8AY | 2026-09-03 14:15:34 | 52.68213 | 11.01308 | 64° | 46km/h | 603m | -2.3m/s | 14.3°C | 100% | 948.5hPa | 2.7V | 06:46:27 | 03:56:12 | 00:00:00 | |
| DF8AY | 2026-09-03 14:15:33 | 52.68208 | 11.01291 | 62° | 46km/h | 605m | -2.5m/s | 14.3°C | 100% | 948.3hPa | 2.8V | 06:46:27 | 03:56:11 | 00:00:00 | |
| DF8AY | 2026-09-03 14:15:31 | 52.68196 | 11.01255 | 62° | 51km/h | 610m | -2.7m/s | 14.3°C | 99.8% | 947.8hPa | 2.8V | 06:46:27 | 03:56:09 | 00:00:00 | |
| DF8AY | 2026-09-03 14:15:29 | 52.68184 | 11.01216 | 63° | 55km/h | 615m | -2.6m/s | 14.3°C | 99.6% | 947.1hPa | 2.8V | 06:46:27 | 03:56:07 | 00:00:00 | |
| DF8AY | 2026-09-03 14:15:28 | 52.68178 | 11.01195 | 66° | 57km/h | 618m | -2.4m/s | 14.3°C | 99.7% | 946.9hPa | 2.8V | 06:46:27 | 03:56:06 | 00:00:00 | |
| DF8AY | 2026-09-03 14:15:27 | 52.68172 | 11.01174 | 64° | 57km/h | 621m | -2.7m/s | 14.3°C | 99.7% | 946.7hPa | 2.8V | 06:46:27 | 03:56:05 | 00:00:00 | |
| DB0DAN | 2026-09-03 14:15:25 | 52.68160 | 11.01129 | 68° | 57km/h | 626m | -2.2m/s | 14.3°C | 98.9% | 946.13hPa | 2.8V | 00:00:00 | 00:00:00 | 00:00:00 | |
| DF8AY | 2026-09-03 14:15:25 | 52.68160 | 11.01129 | 68° | 60km/h | 626m | -2.2m/s | 14.3°C | 99.9% | 946.1hPa | 2.8V | 06:46:27 | 03:56:03 | 00:00:00 | |
| DF8AY | 2026-09-03 14:15:23 | 52.68150 | 11.01083 | 71° | 60km/h | 630m | -2.3m/s | 14.3°C | 100% | 945.5hPa | 2.8V | 06:46:27 | 03:56:01 | 00:00:00 | |
| DF8AY | 2026-09-03 14:15:21 | 52.68127 | 11.00942 | 78° | 57km/h | 644m | -2.3m/s | 14.2°C | 100% | 943.9hPa | 2.8V | 06:46:27 | 03:55:55 | 00:00:00 | |
| DF8AY | 2026-09-03 14:15:21 | 52.68124 | 11.00919 | 79° | 57km/h | 646m | -2.3m/s | 14.2°C | 100% | 943.8hPa | 2.8V | 06:46:27 | 03:55:54 | 00:00:00 | |
| DF8AY | 2026-09-03 14:15:15 | 52.68122 | 11.00896 | 82° | 55km/h | 649m | -2.4m/s | 14.2°C | 100% | 943.2hPa | 2.8V | 06:46:27 | 03:55:53 | 00:00:00 | |
| DF8AY | 2026-09-03 14:15:13 | 52.68118 | 11.00852 | 82° | 51km/h | 653m | -2.7m/s | 14.1°C | 100% | 942.8hPa | 2.8V | 06:46:27 | 03:55:51 | 00:00:00 | |
| DF8AY | 2026-09-03 14:15:11 | 52.68114 | 11.00812 | 80° | 47km/h | 658m | -2m/s | 14.1°C | 100% | 942.3hPa | 2.8V | 06:46:27 | 03:55:49 | 00:00:00 | |
| DF8AY | 2026-09-03 14:15:09 | 52.68110 | 11.00774 | 78° | 44km/h | 663m | -2.4m/s | 14.1°C | 100% | 941.6hPa | 2.8V | 06:46:27 | 03:55:47 | 00:00:00 | |
| DF8AY | 2026-09-03 14:15:07 | 52.68104 | 11.00738 | 72° | 44km/h | 668m | -2.9m/s | 14.1°C | 100% | 941.3hPa | 2.8V | 06:46:27 | 03:55:45 | 00:00:00 | |
| DF8AY | 2026-09-03 14:15:06 | 52.68097 | 11.00703 | 69° | 46km/h | 673m | -2.3m/s | 14.1°C | 100% | 940.7hPa | 2.8V | 06:46:27 | 03:55:43 | 00:00:00 | |
| DF8AY | 2026-09-03 14:15:05 | 52.68092 | 11.00685 | 65° | 47km/h | 675m | -2.4m/s | 14.1°C | 100% | 940.5hPa | 2.8V | 06:46:27 | 03:55:42 | 00:00:00 | |
| DF8AY | 2026-09-03 14:15:02 | 52.68081 | 11.00647 | 64° | 51km/h | 680m | -2.3m/s | 14°C | 100% | 939.9hPa | 2.8V | 06:46:27 | 03:55:40 | 00:00:00 | |
| DF8AY | 2026-09-03 14:15:00 | 52.68070 | 11.00606 | 66° | 55km/h | 685m | -2.2m/s | 14°C | 100% | 939.2hPa | 2.8V | 06:46:27 | 03:55:38 | 00:00:00 | |
| DF8AY | 2026-09-03 14:14:58 | 52.68060 | 11.00562 | 70° | 60km/h | 689m | -2.3m/s | 14°C | 100% | 938.8hPa | 2.8V | 06:46:27 | 03:55:36 | 00:00:00 | |
| DF8AY | 2026-09-03 14:14:57 | 52.68054 | 11.00538 | 71° | 60km/h | 692m | -2.4m/s | 14°C | 100% | 938.6hPa | 2.8V | 06:46:27 | 03:55:35 | 00:00:00 | |
| DF8AY | 2026-09-03 14:14:55 | 52.68045 | 11.00491 | 74° | 60km/h | 697m | -2.6m/s | 14°C | 100% | 938hPa | 2.8V | 06:46:27 | 03:55:33 | 00:00:00 | |
| DF8AY | 2026-09-03 14:14:53 | 52.68025 | 11.00345 | 80° | 57km/h | 710m | -2.5m/s | 13.9°C | 100% | 936.4hPa | 2.8V | 06:46:27 | 03:55:27 | 00:00:00 | |
| DF8AY | 2026-09-03 14:14:53 | 52.68022 | 11.00321 | 82° | 57km/h | 713m | -2.5m/s | 13.9°C | 100% | 936.2hPa | 2.8V | 06:47:18 | 03:55:26 | 00:00:00 | |
| DF8AY | 2026-09-03 14:14:47 | 52.68021 | 11.00298 | 82° | 55km/h | 715m | -2.4m/s | 13.9°C | 100% | 935.8hPa | 2.8V | 06:47:18 | 03:55:25 | 00:00:00 | |
| DF8AY | 2026-09-03 14:14:45 | 52.68017 | 11.00255 | 82° | 51km/h | 721m | -2.4m/s | 13.9°C | 100% | 935.6hPa | 2.8V | 06:47:18 | 03:55:23 | 00:00:00 | |
| DF8AY | 2026-09-03 14:14:43 | 52.68014 | 11.00215 | 81° | 47km/h | 725m | -2.4m/s | 13.8°C | 100% | 934.9hPa | 2.8V | 06:47:18 | 03:55:21 | 00:00:00 | |
| DF8AY | 2026-09-03 14:14:41 | 52.68010 | 11.00176 | 80° | 46km/h | 730m | -2.5m/s | 13.8°C | 100% | 934.4hPa | 2.8V | 06:47:18 | 03:55:19 | 00:00:00 | |
| DF8AY | 2026-09-03 14:14:39 | 52.68005 | 11.00139 | 77° | 46km/h | 735m | -2.3m/s | 13.8°C | 100% | 933.8hPa | 2.8V | 06:47:18 | 03:55:17 | 00:00:00 | |
| DF8AY | 2026-09-03 14:14:39 | 52.68002 | 11.00120 | 75° | 47km/h | 737m | -1.9m/s | 13.8°C | 100% | 933.8hPa | 2.8V | 06:47:18 | 03:55:16 | 00:00:00 | |
| DF8AY | 2026-09-03 14:14:36 | 52.67996 | 11.00083 | 71° | 47km/h | 742m | -2.6m/s | 13.8°C | 100% | 933hPa | 2.8V | 06:47:18 | 03:55:14 | 00:00:00 | |
| DF8AY | 2026-09-03 14:14:35 | 52.67991 | 11.00064 | 67° | 49km/h | 744m | -2.3m/s | 13.8°C | 100% | 932.8hPa | 2.8V | 06:47:18 | 03:55:13 | 00:00:00 | |
| DF8AY | 2026-09-03 14:14:34 | 52.67986 | 11.00045 | 66° | 51km/h | 747m | -2.4m/s | 13.8°C | 100% | 932.6hPa | 2.8V | 06:47:18 | 03:55:12 | 00:00:00 | |
| DF8AY | 2026-09-03 14:14:33 | 52.67981 | 11.00026 | 66° | 53km/h | 750m | -2.5m/s | 13.7°C | 100% | 932.2hPa | 2.8V | 06:47:18 | 03:55:11 | 00:00:00 | |
| DF8AY | 2026-09-03 14:14:31 | 52.67970 | 10.99984 | 68° | 57km/h | 755m | -2.6m/s | 13.7°C | 100% | 931.7hPa | 2.8V | 06:47:18 | 03:55:09 | 00:00:00 | |
| DF8AY | 2026-09-03 14:14:29 | 52.67959 | 10.99939 | 70° | 60km/h | 760m | -2.5m/s | 13.7°C | 100% | 931.2hPa | 2.8V | 06:47:18 | 03:55:07 | 00:00:00 | |
| DF8AY | 2026-09-03 14:14:28 | 52.67954 | 10.99915 | 72° | 60km/h | 763m | -2.6m/s | 13.7°C | 100% | 930.8hPa | 2.8V | 06:47:18 | 03:55:06 | 00:00:00 | |
| DF8AY | 2026-09-03 14:14:26 | 52.67945 | 10.99866 | 73° | 64km/h | 769m | -2.4m/s | 13.7°C | 100% | 930.3hPa | 2.8V | 06:47:18 | 03:55:04 | 00:00:00 | |
| DF8AY | 2026-09-03 14:14:25 | 52.67940 | 10.99841 | 77° | 64km/h | 771m | -2.5m/s | 13.7°C | 100% | 930.2hPa | 2.8V | 06:47:18 | 03:55:03 | 00:00:00 | |
| DB0DAN | 2026-09-03 14:14:25 | 52.67940 | 10.99841 | 76° | 60km/h | 771m | -2.5m/s | 13.7°C | 100% | 930.16hPa | 2.8V | 00:00:00 | 00:00:00 | 00:00:00 | |
| DF8AY | 2026-09-03 14:14:23 | 52.67933 | 10.99790 | 78° | 64km/h | 777m | -2.6m/s | 13.7°C | 100% | 929.5hPa | 2.8V | 06:47:18 | 03:55:01 | 00:00:00 | |
| DF8AY | 2026-09-03 14:14:22 | 52.67930 | 10.99764 | 81° | 62km/h | 779m | -2.4m/s | 13.7°C | 100% | 929.3hPa | 2.8V | 06:47:18 | 03:55:00 | 00:00:00 | |
| DF8AY | 2026-09-03 14:14:21 | 52.67928 | 10.99739 | 80° | 60km/h | 782m | -2.4m/s | 13.7°C | 100% | 929hPa | 2.8V | 06:47:18 | 03:54:59 | 00:00:00 | |
| DF8AY | 2026-09-03 14:14:19 | 52.67923 | 10.99689 | 85° | 58km/h | 786m | -2.6m/s | 13.6°C | 100% | 928.3hPa | 2.8V | 06:47:18 | 03:54:57 | 00:00:00 | |
| DF8AY | 2026-09-03 14:14:18 | 52.67922 | 10.99665 | 83° | 57km/h | 789m | -2.6m/s | 13.6°C | 100% | 928hPa | 2.8V | 06:47:18 | 03:54:56 | 00:00:00 | |
| DF8AY | 2026-09-03 14:14:17 | 52.67920 | 10.99641 | 86° | 57km/h | 791m | -2.6m/s | 13.6°C | 100% | 927.9hPa | 2.8V | 06:47:18 | 03:54:55 | 00:00:00 | |
| DF8AY | 2026-09-03 14:14:16 | 52.67918 | 10.99595 | 85° | 53km/h | 796m | -2.2m/s | 13.6°C | 100% | 927.1hPa | 2.7V | 06:47:18 | 03:54:53 | 00:00:00 | |
| DF8AY | 2026-09-03 14:14:15 | 52.67917 | 10.99573 | 85° | 51km/h | 799m | -2.1m/s | 13.6°C | 100% | 926.9hPa | 2.8V | 06:47:18 | 03:54:52 | 00:00:00 | |
| DF8AY | 2026-09-03 14:14:14 | 52.67916 | 10.99552 | 84° | 49km/h | 801m | -2.2m/s | 13.5°C | 100% | 926.6hPa | 2.8V | 06:47:18 | 03:54:51 | 00:00:00 | |
| DF8AY | 2026-09-03 14:14:11 | 52.67913 | 10.99511 | 82° | 49km/h | 805m | -2m/s | 13.5°C | 100% | 926.1hPa | 2.8V | 06:47:18 | 03:54:49 | 00:00:00 | |
| DF8AY | 2026-09-03 14:14:09 | 52.67909 | 10.99472 | 78° | 47km/h | 809m | -2.2m/s | 13.5°C | 100% | 925.5hPa | 2.8V | 06:47:18 | 03:54:47 | 00:00:00 | |
| DF8AY | 2026-09-03 14:14:07 | 52.67903 | 10.99433 | 71° | 49km/h | 814m | -2.4m/s | 13.5°C | 100% | 925.2hPa | 2.8V | 06:47:18 | 03:54:45 | 00:00:00 | |
| DF8AY | 2026-09-03 14:14:06 | 52.67898 | 10.99413 | 70° | 51km/h | 816m | -2.3m/s | 13.5°C | 100% | 924.8hPa | 2.8V | 06:47:18 | 03:54:44 | 00:00:00 | |
| DF8AY | 2026-09-03 14:14:04 | 52.67889 | 10.99372 | 70° | 55km/h | 821m | -2.4m/s | 13.4°C | 100% | 924.4hPa | 2.8V | 06:47:18 | 03:54:42 | 00:00:00 | |
| DF8AY | 2026-09-03 14:14:02 | 52.67879 | 10.99327 | 72° | 60km/h | 826m | -2m/s | 13.4°C | 100% | 923.8hPa | 2.8V | 06:47:18 | 03:54:40 | 00:00:00 | |
| DF8AY | 2026-09-03 14:14:00 | 52.67870 | 10.99278 | 73° | 62km/h | 831m | -2m/s | 13.4°C | 100% | 923.3hPa | 2.8V | 06:47:18 | 03:54:38 | 00:00:00 | |
| DF8AY | 2026-09-03 14:13:58 | 52.67862 | 10.99228 | 76° | 64km/h | 835m | -2.6m/s | 13.4°C | 100% | 922.8hPa | 2.8V | 06:47:18 | 03:54:36 | 00:00:00 | |
| DF8AY | 2026-09-03 14:13:56 | 52.67855 | 10.99177 | 76° | 62km/h | 840m | -3m/s | 13.4°C | 100% | 922.3hPa | 2.8V | 06:48:09 | 03:54:34 | 00:00:00 | |
| DB0DAN | 2026-09-03 14:13:55 | 52.67851 | 10.99151 | 76° | 60km/h | 842m | -2.6m/s | 13.3°C | 100% | 922.12hPa | 2.8V | 00:00:00 | 00:00:00 | 00:00:00 | |
| DF8AY | 2026-09-03 14:13:55 | 52.67851 | 10.99151 | 76° | 62km/h | 842m | -2.6m/s | 13.3°C | 100% | 922.1hPa | 2.8V | 06:48:09 | 03:54:33 | 00:00:00 | |
| DF8AY | 2026-09-03 14:13:54 | 52.67848 | 10.99126 | 79° | 64km/h | 845m | -2.9m/s | 13.3°C | 100% | 921.8hPa | 2.8V | 06:48:09 | 03:54:32 | 00:00:00 | |
| DF8AY | 2026-09-03 14:13:52 | 52.67841 | 10.99073 | 78° | 64km/h | 850m | -2.8m/s | 13.3°C | 100% | 921.1hPa | 2.8V | 06:48:09 | 03:54:30 | 00:00:00 | |
| DF8AY | 2026-09-03 14:13:51 | 52.67839 | 10.99046 | 82° | 66km/h | 853m | -2.4m/s | 13.3°C | 100% | 920.9hPa | 2.8V | 06:48:09 | 03:54:29 | 00:00:00 | |
| DF8AY | 2026-09-03 14:13:50 | 52.67836 | 10.99020 | 81° | 62km/h | 855m | -2.3m/s | 13.3°C | 100% | 920.3hPa | 2.8V | 06:48:09 | 03:54:28 | 00:00:00 | |
| DF8AY | 2026-09-03 14:13:49 | 52.67834 | 10.98994 | 82° | 64km/h | 857m | -2.6m/s | 13.3°C | 100% | 920.1hPa | 2.8V | 06:48:09 | 03:54:27 | 00:00:00 | |
| DF8AY | 2026-09-03 14:13:47 | 52.67831 | 10.98943 | 84° | 58km/h | 862m | -2.6m/s | 13.3°C | 100% | 919.8hPa | 2.8V | 06:48:09 | 03:54:25 | 00:00:00 | |
| DF8AY | 2026-09-03 14:13:45 | 52.67826 | 10.98802 | 83° | 51km/h | 875m | -2.3m/s | 13.2°C | 100% | 918.3hPa | 2.8V | 06:48:09 | 03:54:19 | 00:00:00 | |
| DF8AY | 2026-09-03 14:13:45 | 52.67824 | 10.98781 | 80° | 49km/h | 878m | -2m/s | 13.2°C | 100% | 917.9hPa | 2.8V | 06:48:09 | 03:54:18 | 00:00:00 | |
| DF8AY | 2026-09-03 14:13:44 | 52.67822 | 10.98760 | 78° | 51km/h | 879m | -2.3m/s | 13.2°C | 100% | 917.6hPa | 2.8V | 06:48:09 | 03:54:17 | 00:00:00 | |
| DB0DAN | 2026-09-03 14:13:40 | 52.67824 | 10.98781 | 80° | 47km/h | 878m | -2m/s | 13.2°C | 100% | 917.87hPa | 2.8V | 00:00:00 | 00:00:00 | 00:00:00 | |
| DF8AY | 2026-09-03 14:13:38 | 52.67819 | 10.98739 | 74° | 51km/h | 881m | -1.8m/s | 13.2°C | 100% | 917.4hPa | 2.8V | 06:48:09 | 03:54:16 | 00:00:00 | |
| DF8AY | 2026-09-03 14:13:37 | 52.67815 | 10.98718 | 74° | 55km/h | 883m | -2.2m/s | 13.1°C | 100% | 917.3hPa | 2.8V | 06:48:09 | 03:54:15 | 00:00:00 | |
| DF8AY | 2026-09-03 14:13:36 | 52.67811 | 10.98696 | 73° | 57km/h | 885m | -2.3m/s | 13.1°C | 100% | 916.9hPa | 2.8V | 06:48:09 | 03:54:14 | 00:00:00 | |
| DF8AY | 2026-09-03 14:13:34 | 52.67803 | 10.98650 | 73° | 58km/h | 890m | -2.1m/s | 13.1°C | 100% | 916.7hPa | 2.8V | 06:48:09 | 03:54:12 | 00:00:00 | |
| DF8AY | 2026-09-03 14:13:33 | 52.67799 | 10.98626 | 75° | 62km/h | 892m | -2.4m/s | 13.1°C | 100% | 916.4hPa | 2.8V | 06:48:09 | 03:54:11 | 00:00:00 | |
| DF8AY | 2026-09-03 14:13:31 | 52.67791 | 10.98576 | 76° | 62km/h | 897m | -2.1m/s | 13.1°C | 100% | 915.9hPa | 2.8V | 06:48:09 | 03:54:09 | 00:00:00 | |
| DF8AY | 2026-09-03 14:13:29 | 52.67785 | 10.98526 | 80° | 64km/h | 901m | -1.9m/s | 13.1°C | 100% | 915.4hPa | 2.8V | 06:48:09 | 03:54:07 | 00:00:00 | |
| DF8AY | 2026-09-03 14:13:27 | 52.67779 | 10.98473 | 79° | 62km/h | 905m | -1.9m/s | 13.1°C | 100% | 915hPa | 2.8V | 06:48:09 | 03:54:05 | 00:00:00 | |
| DF8AY | 2026-09-03 14:13:27 | 52.67776 | 10.98447 | 83° | 66km/h | 906m | -2.1m/s | 13°C | 100% | 914.8hPa | 2.8V | 06:48:09 | 03:54:04 | 00:00:00 | |
| DF8AY | 2026-09-03 14:13:25 | 52.67774 | 10.98421 | 82° | 62km/h | 909m | -2.2m/s | 13°C | 100% | 914.6hPa | 2.8V | 06:48:09 | 03:54:03 | 00:00:00 | |
| DF8AY | 2026-09-03 14:13:23 | 52.67770 | 10.98368 | 86° | 64km/h | 913m | -2.2m/s | 13°C | 100% | 913.9hPa | 2.8V | 06:48:09 | 03:54:01 | 00:00:00 | |
| DF8AY | 2026-09-03 14:13:21 | 52.67768 | 10.98315 | 89° | 64km/h | 917m | -2.1m/s | 13°C | 100% | 913.6hPa | 2.8V | 06:48:09 | 03:53:59 | 00:00:00 | |
| DF8AY | 2026-09-03 14:13:19 | 52.67768 | 10.98263 | 91° | 62km/h | 922m | -2.3m/s | 13°C | 100% | 913.2hPa | 2.8V | 06:48:09 | 03:53:57 | 00:00:00 | |
| DF8AY | 2026-09-03 14:13:17 | 52.67767 | 10.98212 | 89° | 58km/h | 927m | -2.5m/s | 12.9°C | 100% | 912.6hPa | 2.8V | 06:48:09 | 03:53:55 | 00:00:00 | |
| DF8AY | 2026-09-03 14:13:16 | 52.67768 | 10.98187 | 92° | 58km/h | 929m | -2.8m/s | 12.9°C | 100% | 912.4hPa | 2.8V | 06:48:09 | 03:53:54 | 00:00:00 | |
| DF8AY | 2026-09-03 14:13:14 | 52.67768 | 10.98139 | 90° | 57km/h | 934m | -2.4m/s | 12.9°C | 100% | 912hPa | 2.8V | 06:48:09 | 03:53:52 | 00:00:00 | |
| DF8AY | 2026-09-03 14:13:13 | 52.67766 | 10.98030 | 85° | 49km/h | 947m | -2.2m/s | 12.8°C | 100% | 910.5hPa | 2.8V | 06:48:09 | 03:53:47 | 00:00:00 | |
| DF8AY | 2026-09-03 14:13:13 | 52.67765 | 10.98009 | 84° | 49km/h | 949m | -2.3m/s | 12.8°C | 100% | 910.4hPa | 2.8V | 06:48:09 | 03:53:46 | 00:00:00 | |
| DF8AY | 2026-09-03 14:13:07 | 52.67763 | 10.97989 | 82° | 51km/h | 952m | -1.8m/s | 12.8°C | 100% | 910hPa | 2.8V | 06:48:09 | 03:53:45 | 00:00:00 | |
| DF8AY | 2026-09-03 14:13:05 | 52.67759 | 10.97947 | 79° | 51km/h | 956m | -1.8m/s | 12.8°C | 100% | 909.5hPa | 2.8V | 06:49:00 | 03:53:43 | 00:00:00 | |
| DF8AY | 2026-09-03 14:13:04 | 52.67757 | 10.97926 | 79° | 53km/h | 958m | -2.2m/s | 12.8°C | 100% | 909.2hPa | 2.8V | 06:49:00 | 03:53:42 | 00:00:00 | |
| DF8AY | 2026-09-03 14:13:02 | 52.67751 | 10.97880 | 78° | 58km/h | 962m | -1.6m/s | 12.8°C | 100% | 908.8hPa | 2.8V | 06:49:00 | 03:53:40 | 00:00:00 | |
| DF8AY | 2026-09-03 14:13:00 | 52.67745 | 10.97831 | 80° | 64km/h | 966m | -2.3m/s | 12.8°C | 100% | 908.3hPa | 2.8V | 06:49:00 | 03:53:38 | 00:00:00 | |
| DF8AY | 2026-09-03 14:12:58 | 52.67740 | 10.97778 | 83° | 64km/h | 970m | -1.9m/s | 12.7°C | 100% | 907.9hPa | 2.8V | 06:49:00 | 03:53:36 | 00:00:00 | |
| DF8AY | 2026-09-03 14:12:56 | 52.67737 | 10.97726 | 84° | 64km/h | 975m | -2.6m/s | 12.7°C | 100% | 907.4hPa | 2.8V | 06:49:00 | 03:53:34 | 00:00:00 | |
| DB0DAN | 2026-09-03 14:12:55 | 52.67735 | 10.97700 | 85° | 60km/h | 977m | -2.5m/s | 12.7°C | 100% | 907hPa | 2.8V | 00:00:00 | 00:00:00 | 00:00:00 | |
| DF8AY | 2026-09-03 14:12:54 | 52.67730 | 10.97566 | 89° | 64km/h | 988m | -2.2m/s | 12.7°C | 100% | 905.9hPa | 2.8V | 06:49:00 | 03:53:28 | 00:00:00 | |
| DF8AY | 2026-09-03 14:12:54 | 52.67730 | 10.97539 | 90° | 64km/h | 991m | -2.1m/s | 12.7°C | 100% | 905.7hPa | 2.7V | 06:49:00 | 03:53:27 | 00:00:00 | |
| DF8AY | 2026-09-03 14:12:47 | 52.67730 | 10.97486 | 90° | 62km/h | 995m | -2.4m/s | 12.6°C | 100% | 905.2hPa | 2.8V | 06:49:00 | 03:53:25 | 00:00:00 | |
| DF8AY | 2026-09-03 14:12:45 | 52.67731 | 10.97434 | 92° | 64km/h | 999m | -1.8m/s | 12.6°C | 100% | 904.8hPa | 2.8V | 06:49:00 | 03:53:23 | 00:00:00 | |
| DF8AY | 2026-09-03 14:12:43 | 52.67732 | 10.97384 | 94° | 60km/h | 1002m | -1.9m/s | 12.6°C | 100% | 904.5hPa | 2.8V | 06:49:00 | 03:53:21 | 00:00:00 | |
| DF8AY | 2026-09-03 14:12:42 | 52.67733 | 10.97359 | 93° | 57km/h | 1004m | -2.1m/s | 12.6°C | 100% | 904.2hPa | 2.8V | 06:49:00 | 03:53:20 | 00:00:00 | |
| DF8AY | 2026-09-03 14:12:40 | 52.67735 | 10.97311 | 96° | 57km/h | 1007m | -2.4m/s | 12.6°C | 100% | 903.7hPa | 2.8V | 06:49:00 | 03:53:18 | 00:00:00 | |
| DF8AY | 2026-09-03 14:12:39 | 52.67736 | 10.97288 | 93° | 55km/h | 1009m | -2.3m/s | 12.5°C | 100% | 903.4hPa | 2.8V | 06:49:00 | 03:53:17 | 00:00:00 | |
| DF8AY | 2026-09-03 14:12:37 | 52.67738 | 10.97243 | 93° | 55km/h | 1014m | -2.1m/s | 12.5°C | 100% | 902.9hPa | 2.8V | 06:49:00 | 03:53:15 | 00:00:00 | |
| DF8AY | 2026-09-03 14:12:36 | 52.67739 | 10.97222 | 93° | 51km/h | 1016m | -2.3m/s | 12.5°C | 100% | 902.8hPa | 2.8V | 06:49:00 | 03:53:14 | 00:00:00 | |
| DF8AY | 2026-09-03 14:12:34 | 52.67740 | 10.97180 | 91° | 51km/h | 1020m | -2.2m/s | 12.5°C | 100% | 902.4hPa | 2.8V | 06:49:00 | 03:53:12 | 00:00:00 | |
| DF8AY | 2026-09-03 14:12:33 | 52.67740 | 10.97159 | 91° | 49km/h | 1022m | -2.3m/s | 12.5°C | 100% | 902hPa | 2.8V | 06:49:00 | 03:53:11 | 00:00:00 | |
| DF8AY | 2026-09-03 14:12:31 | 52.67739 | 10.97119 | 87° | 47km/h | 1026m | -2.7m/s | 12.5°C | 100% | 901.6hPa | 2.8V | 06:49:00 | 03:53:09 | 00:00:00 | |
| DF8AY | 2026-09-03 14:12:29 | 52.67737 | 10.97078 | 81° | 51km/h | 1031m | -2m/s | 12.4°C | 100% | 901.2hPa | 2.8V | 06:49:00 | 03:53:07 | 00:00:00 | |
| DF8AY | 2026-09-03 14:12:27 | 52.67732 | 10.97035 | 80° | 53km/h | 1035m | -2.5m/s | 12.4°C | 100% | 901hPa | 2.8V | 06:49:00 | 03:53:05 | 00:00:00 | |
| DF8AY | 2026-09-03 14:12:26 | 52.67730 | 10.97013 | 81° | 53km/h | 1038m | -2.2m/s | 12.4°C | 100% | 900.7hPa | 2.8V | 06:49:00 | 03:53:04 | 00:00:00 | |
| DB0DAN | 2026-09-03 14:12:25 | 52.67727 | 10.96991 | 78° | 53km/h | 1040m | -2.1m/s | 12.4°C | 100% | 900.33hPa | 2.8V | 00:00:00 | 00:00:00 | 00:00:00 | |
| DF8AY | 2026-09-03 14:12:24 | 52.67725 | 10.96968 | 80° | 57km/h | 1042m | -1.8m/s | 12.4°C | 100% | 900.2hPa | 2.7V | 06:49:00 | 03:53:02 | 00:00:00 | |
| DF8AY | 2026-09-03 14:12:23 | 52.67722 | 10.96945 | 81° | 58km/h | 1044m | -1.8m/s | 12.4°C | 100% | 900.1hPa | 2.8V | 06:49:00 | 03:53:01 | 00:00:00 | |
| DF8AY | 2026-09-03 14:12:21 | 52.67718 | 10.96895 | 83° | 60km/h | 1048m | -2.4m/s | 12.4°C | 100% | 899.5hPa | 2.8V | 06:49:00 | 03:52:59 | 00:00:00 | |
| DF8AY | 2026-09-03 14:12:19 | 52.67715 | 10.96844 | 85° | 64km/h | 1052m | -2.1m/s | 12.3°C | 100% | 899.3hPa | 2.8V | 06:49:00 | 03:52:57 | 00:00:00 | |
| DF8AY | 2026-09-03 14:12:18 | 52.67714 | 10.96817 | 87° | 62km/h | 1054m | -2.3m/s | 12.3°C | 100% | 899.1hPa | 2.8V | 06:49:00 | 03:52:56 | 00:00:00 | |
| DF8AY | 2026-09-03 14:12:16 | 52.67713 | 10.96765 | 92° | 64km/h | 1059m | -2.6m/s | 12.3°C | 100% | 898.4hPa | 2.8V | 06:49:00 | 03:52:54 | 00:00:00 | |
| DF8AY | 2026-09-03 14:12:15 | 52.67714 | 10.96738 | 91° | 64km/h | 1061m | -2.2m/s | 12.3°C | 100% | 898.2hPa | 2.8V | 06:49:51 | 03:52:53 | 00:00:00 | |
| DF8AY | 2026-09-03 14:12:14 | 52.67714 | 10.96712 | 95° | 64km/h | 1063m | -2m/s | 12.3°C | 100% | 897.9hPa | 2.8V | 06:49:51 | 03:52:52 | 00:00:00 | |
| DF8AY | 2026-09-03 14:12:13 | 52.67716 | 10.96686 | 94° | 62km/h | 1066m | -2.2m/s | 12.3°C | 100% | 897.7hPa | 2.8V | 06:49:51 | 03:52:51 | 00:00:00 | |
| DF8AY | 2026-09-03 14:12:11 | 52.67718 | 10.96636 | 95° | 58km/h | 1070m | -2.1m/s | 12.3°C | 100% | 897.3hPa | 2.8V | 06:49:51 | 03:52:49 | 00:00:00 | |
| DF8AY | 2026-09-03 14:12:09 | 52.67721 | 10.96588 | 96° | 57km/h | 1074m | -2.5m/s | 12.2°C | 100% | 896.9hPa | 2.8V | 06:49:51 | 03:52:47 | 00:00:00 | |
| DF8AY | 2026-09-03 14:12:08 | 52.67722 | 10.96566 | 96° | 55km/h | 1077m | -2.9m/s | 12.2°C | 100% | 896.5hPa | 2.8V | 06:49:51 | 03:52:46 | 00:00:00 | |
| DF8AY | 2026-09-03 14:12:06 | 52.67725 | 10.96522 | 96° | 51km/h | 1082m | -2.2m/s | 12.2°C | 100% | 896hPa | 2.8V | 06:49:51 | 03:52:44 | 00:00:00 | |
| DF8AY | 2026-09-03 14:12:05 | 52.67726 | 10.96501 | 93° | 49km/h | 1084m | -2.1m/s | 12.1°C | 100% | 895.9hPa | 2.8V | 06:49:51 | 03:52:43 | 00:00:00 | |
| DF8AY | 2026-09-03 14:12:03 | 52.67726 | 10.96460 | 90° | 49km/h | 1089m | -2.6m/s | 12.1°C | 100% | 895.2hPa | 2.8V | 06:49:51 | 03:52:41 | 00:00:00 | |
| DF8AY | 2026-09-03 14:12:02 | 52.67726 | 10.96440 | 88° | 47km/h | 1091m | -2.6m/s | 12.1°C | 100% | 894.8hPa | 2.8V | 06:49:51 | 03:52:40 | 00:00:00 | |
| DF8AY | 2026-09-03 14:12:00 | 52.67725 | 10.96400 | 84° | 49km/h | 1097m | -2.5m/s | 12.1°C | 100% | 894.4hPa | 2.8V | 06:49:51 | 03:52:38 | 00:00:00 | |
| DF8AY | 2026-09-03 14:11:58 | 52.67722 | 10.96358 | 83° | 51km/h | 1102m | -2.4m/s | 12°C | 100% | 894hPa | 2.8V | 06:49:51 | 03:52:36 | 00:00:00 | |
| DF8AY | 2026-09-03 14:11:57 | 52.67720 | 10.96337 | 82° | 53km/h | 1105m | -2.1m/s | 12°C | 100% | 893.5hPa | 2.8V | 06:49:51 | 03:52:35 | 00:00:00 | |
| DF8AY | 2026-09-03 14:11:55 | 52.67717 | 10.96291 | 85° | 57km/h | 1110m | -2.7m/s | 12°C | 100% | 893hPa | 2.8V | 06:49:51 | 03:52:33 | 00:00:00 | |
| DB0DAN | 2026-09-03 14:11:55 | 52.67717 | 10.96291 | 85° | 55km/h | 1110m | -2.7m/s | 12°C | 100% | 892.98hPa | 2.8V | 00:00:00 | 00:00:00 | 00:00:00 | |
| DF8AY | 2026-09-03 14:11:53 | 52.67714 | 10.96243 | 84° | 58km/h | 1116m | -2.8m/s | 12°C | 100% | 892.4hPa | 2.8V | 06:49:51 | 03:52:31 | 00:00:00 | |
| DF8AY | 2026-09-03 14:11:51 | 52.67711 | 10.96194 | 85° | 60km/h | 1121m | -2.5m/s | 11.9°C | 100% | 892hPa | 2.8V | 06:49:51 | 03:52:29 | 00:00:00 | |
| DF8AY | 2026-09-03 14:11:50 | 52.67709 | 10.96038 | 92° | 62km/h | 1139m | -2.8m/s | 11.9°C | 100% | 890.1hPa | 2.8V | 06:49:51 | 03:52:23 | 00:00:00 | |
| DF8AY | 2026-09-03 14:11:49 | 52.67710 | 10.96012 | 95° | 64km/h | 1141m | -3.2m/s | 11.9°C | 100% | 889.6hPa | 2.8V | 06:49:51 | 03:52:22 | 00:00:00 | |
| DF8AY | 2026-09-03 14:11:42 | 52.67712 | 10.95961 | 98° | 60km/h | 1148m | -2.9m/s | 11.9°C | 100% | 889.2hPa | 2.8V | 06:49:51 | 03:52:20 | 00:00:00 | |
| DF8AY | 2026-09-03 14:11:40 | 52.67716 | 10.95912 | 96° | 58km/h | 1153m | -2.5m/s | 11.8°C | 100% | 888.6hPa | 2.8V | 06:49:51 | 03:52:18 | 00:00:00 | |
| DF8AY | 2026-09-03 14:11:40 | 52.67717 | 10.95888 | 98° | 58km/h | 1155m | -2.9m/s | 11.8°C | 100% | 888.2hPa | 2.7V | 06:49:51 | 03:52:17 | 00:00:00 | |
| DF8AY | 2026-09-03 14:11:38 | 52.67720 | 10.95865 | 100° | 57km/h | 1158m | -2.9m/s | 11.8°C | 100% | 888.1hPa | 2.8V | 06:49:51 | 03:52:16 | 00:00:00 | |
| DF8AY | 2026-09-03 14:11:37 | 52.67722 | 10.95842 | 100° | 55km/h | 1161m | -2.9m/s | 11.8°C | 100% | 887.6hPa | 2.8V | 06:49:51 | 03:52:15 | 00:00:00 | |
| DF8AY | 2026-09-03 14:11:35 | 52.67727 | 10.95798 | 100° | 55km/h | 1167m | -2.9m/s | 11.8°C | 100% | 887.1hPa | 2.8V | 06:49:51 | 03:52:13 | 00:00:00 | |
| DF8AY | 2026-09-03 14:11:34 | 52.67729 | 10.95776 | 97° | 53km/h | 1170m | -2.5m/s | 11.8°C | 100% | 886.7hPa | 2.8V | 06:49:51 | 03:52:12 | 00:00:00 | |
| DF8AY | 2026-09-03 14:11:32 | 52.67733 | 10.95734 | 101° | 51km/h | 1175m | -2.6m/s | 11.7°C | 100% | 886.1hPa | 2.8V | 06:49:51 | 03:52:10 | 00:00:00 | |
| DF8AY | 2026-09-03 14:11:30 | 52.67736 | 10.95692 | 100° | 51km/h | 1180m | -2.7m/s | 11.7°C | 100% | 885.7hPa | 2.8V | 06:49:51 | 03:52:08 | 00:00:00 | |
| DF8AY | 2026-09-03 14:11:30 | 52.67738 | 10.95671 | 98° | 51km/h | 1182m | -2m/s | 11.7°C | 100% | 885.5hPa | 2.8V | 06:49:51 | 03:52:07 | 00:00:00 | |
| DF8AY | 2026-09-03 14:11:27 | 52.67742 | 10.95630 | 97° | 49km/h | 1187m | -2.4m/s | 11.6°C | 100% | 885hPa | 2.8V | 06:49:51 | 03:52:05 | 00:00:00 | |
| DF8AY-15 | 2026-09-03 14:11:27 | 52.67742 | 10.95630 | 98° | 47km/h | 1187m | -2.3m/s | 11.6°C | 0% | 885.0hPa | 2.8V | 00:00:00 | 03:52:05 | 00:00:00 | |
| DF7ER-10 | 2026-09-03 14:11:26 | 52.67741 | 10.95630 | 98° | 49km/h | 1187m | -2.4m/s | 11.6°C | 101.5% | 885.0hPa | 2.8V | 06:49:00 | 00:00:00 | 00:00:00 | |
| DB0DAN | 2026-09-03 14:11:25 | 52.67744 | 10.95590 | 95° | 46km/h | 1191m | -2.4m/s | 11.6°C | 100% | 884.56hPa | 2.8V | 00:00:00 | 00:00:00 | 00:00:00 | |
| DF8AY | 2026-09-03 14:11:25 | 52.67744 | 10.95590 | 96° | 47km/h | 1191m | -2.4m/s | 11.6°C | 100% | 884.6hPa | 2.8V | 06:49:51 | 03:52:03 | 00:00:00 | |
| DF8AY | 2026-09-03 14:11:24 | 52.67745 | 10.95570 | 94° | 47km/h | 1194m | -2.9m/s | 11.6°C | 100% | 884.4hPa | 2.8V | 06:50:42 | 03:52:02 | 00:00:00 | |
| DF8AY | 2026-09-03 14:11:22 | 52.67746 | 10.95531 | 92° | 46km/h | 1199m | -2.5m/s | 11.6°C | 100% | 883.7hPa | 2.8V | 06:50:42 | 03:52:00 | 00:00:00 | |
| DF8AY | 2026-09-03 14:11:21 | 52.67746 | 10.95511 | 88° | 47km/h | 1202m | -2.3m/s | 11.6°C | 100% | 883.6hPa | 2.8V | 06:50:42 | 03:51:59 | 00:00:00 | |
| DF8AY | 2026-09-03 14:11:19 | 52.67745 | 10.95472 | 85° | 47km/h | 1206m | -1.9m/s | 11.6°C | 100% | 883hPa | 2.8V | 06:50:42 | 03:51:57 | 00:00:00 | |
| DF8AY | 2026-09-03 14:11:17 | 52.67742 | 10.95431 | 84° | 53km/h | 1210m | -1.9m/s | 11.5°C | 100% | 882.6hPa | 2.8V | 06:50:42 | 03:51:55 | 00:00:00 | |
| DF8AY | 2026-09-03 14:11:15 | 52.67740 | 10.95384 | 88° | 58km/h | 1214m | -2.2m/s | 11.5°C | 100% | 882.1hPa | 2.8V | 06:50:42 | 03:51:53 | 00:00:00 | |
| DF8AY | 2026-09-03 14:11:13 | 52.67740 | 10.95334 | 91° | 60km/h | 1218m | -2.4m/s | 11.5°C | 100% | 881.7hPa | 2.8V | 06:50:42 | 03:51:51 | 00:00:00 | |
| DF8AY | 2026-09-03 14:11:12 | 52.67740 | 10.95309 | 91° | 62km/h | 1221m | -2.4m/s | 11.5°C | 100% | 881.5hPa | 2.8V | 06:50:42 | 03:51:50 | 00:00:00 | |
| DF8AY-15 | 2026-09-03 14:11:12 | 52.67740 | 10.95309 | 92° | 62km/h | 1220m | -2.3m/s | 11.4°C | 0% | 881.5hPa | 2.8V | 00:00:00 | 03:51:50 | 00:00:00 | |
| DB0DAN | 2026-09-03 14:11:10 | 52.67741 | 10.95257 | 91° | 58km/h | 1225m | -2.5m/s | 11.5°C | 100% | 881hPa | 2.8V | 00:00:00 | 00:00:00 | 00:00:00 | |
| DF8AY | 2026-09-03 14:11:10 | 52.67741 | 10.95257 | 91° | 62km/h | 1225m | -2.5m/s | 11.5°C | 100% | 881hPa | 2.8V | 06:50:42 | 03:51:48 | 00:00:00 | |
| DF8AY | 2026-09-03 14:11:08 | 52.67742 | 10.95206 | 92° | 60km/h | 1230m | -2.5m/s | 11.5°C | 100% | 880.4hPa | 2.8V | 06:50:42 | 03:51:46 | 00:00:00 | |
| DF8AY | 2026-09-03 14:11:07 | 52.67742 | 10.95181 | 92° | 60km/h | 1233m | -2.6m/s | 11.5°C | 100% | 880.1hPa | 2.8V | 06:50:42 | 03:51:45 | 00:00:00 | |
| DF8AY | 2026-09-03 14:11:05 | 52.67744 | 10.95130 | 93° | 60km/h | 1238m | -2.6m/s | 11.4°C | 100% | 879.6hPa | 2.8V | 06:50:42 | 03:51:43 | 00:00:00 | |
| DF8AY | 2026-09-03 14:11:04 | 52.67745 | 10.95105 | 94° | 60km/h | 1241m | -2.5m/s | 11.4°C | 100% | 879.3hPa | 2.8V | 06:50:42 | 03:51:42 | 00:00:00 | |
| DF8AY | 2026-09-03 14:11:03 | 52.67746 | 10.95080 | 93° | 60km/h | 1243m | -2.5m/s | 11.4°C | 100% | 879.2hPa | 2.8V | 06:50:42 | 03:51:41 | 00:00:00 | |
| DF8AY | 2026-09-03 14:11:02 | 52.67746 | 10.95055 | 94° | 60km/h | 1245m | -2.4m/s | 11.4°C | 100% | 878.9hPa | 2.8V | 06:50:42 | 03:51:40 | 00:00:00 | |
| DF8AY | 2026-09-03 14:11:00 | 52.67748 | 10.95005 | 94° | 58km/h | 1250m | -2.5m/s | 11.4°C | 100% | 878.3hPa | 2.8V | 06:50:42 | 03:51:38 | 00:00:00 | |
| DF8AY | 2026-09-03 14:10:59 | 52.67750 | 10.94981 | 94° | 58km/h | 1253m | -2.8m/s | 11.4°C | 100% | 878.2hPa | 2.8V | 06:50:42 | 03:51:37 | 00:00:00 | |
| DF8AY | 2026-09-03 14:10:57 | 52.67752 | 10.94932 | 95° | 57km/h | 1259m | -2.6m/s | 11.3°C | 100% | 877.5hPa | 2.8V | 06:50:42 | 03:51:35 | 00:00:00 | |
| DF8AY | 2026-09-03 14:10:55 | 52.67755 | 10.94885 | 98° | 58km/h | 1264m | -2.7m/s | 11.3°C | 100% | 877hPa | 2.8V | 06:50:42 | 03:51:33 | 00:00:00 | |
| DF8AY | 2026-09-03 14:10:53 | 52.67759 | 10.94838 | 99° | 57km/h | 1269m | -2.2m/s | 11.3°C | 100% | 876.4hPa | 2.8V | 06:50:42 | 03:51:31 | 00:00:00 | |
| DF8AY | 2026-09-03 14:10:52 | 52.67762 | 10.94815 | 100° | 53km/h | 1271m | -2.4m/s | 11.3°C | 100% | 876.3hPa | 2.8V | 06:50:42 | 03:51:30 | 00:00:00 | |
| DF8AY | 2026-09-03 14:10:50 | 52.67767 | 10.94772 | 102° | 51km/h | 1276m | -2.4m/s | 11.3°C | 100% | 875.7hPa | 2.8V | 06:50:42 | 03:51:28 | 00:00:00 | |
| DF8AY | 2026-09-03 14:10:49 | 52.67769 | 10.94752 | 101° | 49km/h | 1278m | -2.3m/s | 11.3°C | 100% | 875.4hPa | 2.8V | 06:50:42 | 03:51:27 | 00:00:00 | |
| DF8AY | 2026-09-03 14:10:48 | 52.67772 | 10.94732 | 101° | 47km/h | 1280m | -2.2m/s | 11.2°C | 100% | 875.2hPa | 2.8V | 06:50:42 | 03:51:26 | 00:00:00 | |
| DF8AY | 2026-09-03 14:10:46 | 52.67775 | 10.94695 | 96° | 46km/h | 1285m | -2.1m/s | 11.2°C | 100% | 874.9hPa | 2.8V | 06:50:42 | 03:51:24 | 00:00:00 | |
| DF8AY | 2026-09-03 14:10:44 | 52.67776 | 10.94656 | 90° | 47km/h | 1290m | -2.3m/s | 11.2°C | 100% | 874.3hPa | 2.8V | 06:50:42 | 03:51:22 | 00:00:00 | |
| DF8AY | 2026-09-03 14:10:43 | 52.67776 | 10.94637 | 88° | 49km/h | 1292m | -2.1m/s | 11.2°C | 100% | 874.1hPa | 2.8V | 06:50:42 | 03:51:21 | 00:00:00 | |
| DF8AY | 2026-09-03 14:10:42 | 52.67776 | 10.94616 | 87° | 49km/h | 1294m | -2.1m/s | 11.2°C | 100% | 873.9hPa | 2.8V | 06:50:42 | 03:51:20 | 00:00:00 | |
| DF8AY | 2026-09-03 14:10:41 | 52.67775 | 10.94595 | 87° | 53km/h | 1296m | -2.3m/s | 11.1°C | 100% | 873.6hPa | 2.8V | 06:50:42 | 03:51:19 | 00:00:00 | |
| DF8AY | 2026-09-03 14:10:40 | 52.67774 | 10.94573 | 87° | 55km/h | 1298m | -2.1m/s | 11.1°C | 100% | 873.4hPa | 2.8V | 06:50:42 | 03:51:18 | 00:00:00 | |
| DB0DAN | 2026-09-03 14:10:40 | 52.67774 | 10.94573 | 87° | 51km/h | 1298m | -2.1m/s | 11.1°C | 100% | 873.41hPa | 2.8V | 00:00:00 | 00:00:00 | 00:00:00 | |
| DF8AY | 2026-09-03 14:10:38 | 52.67773 | 10.94526 | 87° | 57km/h | 1303m | -2.4m/s | 11.2°C | 100% | 872.8hPa | 2.8V | 06:50:42 | 03:51:16 | 00:00:00 | |
| DF8AY | 2026-09-03 14:10:36 | 52.67772 | 10.94478 | 89° | 58km/h | 1308m | -2.6m/s | 11.1°C | 100% | 872.4hPa | 2.8V | 06:50:42 | 03:51:14 | 00:00:00 | |
| DF8AY | 2026-09-03 14:10:35 | 52.67772 | 10.94453 | 90° | 60km/h | 1310m | -2.4m/s | 11°C | 100% | 872.3hPa | 2.8V | 06:50:42 | 03:51:13 | 00:00:00 | |
| DF8AY | 2026-09-03 14:10:33 | 52.67772 | 10.94403 | 92° | 60km/h | 1316m | -2.7m/s | 11°C | 100% | 871.6hPa | 2.8V | 06:51:33 | 03:51:11 | 00:00:00 | |
| DF8AY | 2026-09-03 14:10:32 | 52.67773 | 10.94378 | 94° | 60km/h | 1318m | -2.3m/s | 11°C | 100% | 871.3hPa | 2.8V | 06:51:33 | 03:51:10 | 00:00:00 | |
| DF8AY | 2026-09-03 14:10:30 | 52.67784 | 10.94226 | 100° | 60km/h | 1333m | -2.6m/s | 11°C | 100% | 869.7hPa | 2.8V | 06:51:33 | 03:51:04 | 00:00:00 | |
| DF8AY | 2026-09-03 14:10:30 | 52.67787 | 10.94203 | 102° | 57km/h | 1336m | -2.4m/s | 10.9°C | 100% | 869.4hPa | 2.8V | 06:51:33 | 03:51:03 | 00:00:00 | |
| DF8AY | 2026-09-03 14:10:23 | 52.67793 | 10.94157 | 103° | 55km/h | 1341m | -2.5m/s | 10.9°C | 100% | 868.9hPa | 2.8V | 06:51:33 | 03:51:01 | 00:00:00 | |
| DF8AY | 2026-09-03 14:10:21 | 52.67798 | 10.94115 | 101° | 49km/h | 1346m | -2.5m/s | 10.9°C | 100% | 868.4hPa | 2.7V | 06:51:33 | 03:50:59 | 00:00:00 | |
| DF8AY | 2026-09-03 14:10:19 | 52.67803 | 10.94075 | 98° | 47km/h | 1351m | -2.6m/s | 10.8°C | 100% | 867.8hPa | 2.8V | 06:51:33 | 03:50:57 | 00:00:00 | |
| DF8AY | 2026-09-03 14:10:18 | 52.67804 | 10.94055 | 96° | 47km/h | 1353m | -2.5m/s | 10.8°C | 100% | 867.6hPa | 2.8V | 06:51:33 | 03:50:56 | 00:00:00 | |
| DF8AY | 2026-09-03 14:10:16 | 52.67806 | 10.94015 | 93° | 47km/h | 1358m | -2.5m/s | 10.8°C | 100% | 867.1hPa | 2.8V | 06:51:33 | 03:50:54 | 00:00:00 | |
| DF8AY | 2026-09-03 14:10:15 | 52.67806 | 10.93995 | 91° | 49km/h | 1361m | -2.5m/s | 10.8°C | 100% | 866.9hPa | 2.8V | 06:51:33 | 03:50:53 | 00:00:00 | |
| DF8AY | 2026-09-03 14:10:13 | 52.67806 | 10.93954 | 89° | 51km/h | 1366m | -2.4m/s | 10.7°C | 100% | 866.5hPa | 2.8V | 06:51:33 | 03:50:51 | 00:00:00 | |
| DF8AY | 2026-09-03 14:10:11 | 52.67805 | 10.93911 | 87° | 53km/h | 1371m | -2.5m/s | 10.7°C | 100% | 866hPa | 2.8V | 06:51:33 | 03:50:49 | 00:00:00 | |
| DB0DAN | 2026-09-03 14:10:10 | 52.67805 | 10.93888 | 87° | 53km/h | 1373m | -2.6m/s | 10.7°C | 100% | 865.6hPa | 2.8V | 00:00:00 | 00:00:00 | 00:00:00 | |
| DF8AY | 2026-09-03 14:10:09 | 52.67804 | 10.93865 | 87° | 57km/h | 1376m | -2.3m/s | 10.7°C | 100% | 865.4hPa | 2.8V | 06:51:33 | 03:50:47 | 00:00:00 | |
| DF8AY | 2026-09-03 14:10:08 | 52.67803 | 10.93841 | 88° | 58km/h | 1378m | -2.3m/s | 10.6°C | 100% | 865.1hPa | 2.8V | 06:51:33 | 03:50:46 | 00:00:00 | |
| DF8AY | 2026-09-03 14:10:06 | 52.67803 | 10.93791 | 90° | 60km/h | 1383m | -2.5m/s | 10.6°C | 100% | 864.5hPa | 2.8V | 06:51:33 | 03:50:44 | 00:00:00 | |
| DF8AY | 2026-09-03 14:10:04 | 52.67804 | 10.93739 | 93° | 62km/h | 1388m | -2.5m/s | 10.6°C | 100% | 864.1hPa | 2.8V | 06:51:33 | 03:50:42 | 00:00:00 | |
| DF8AY | 2026-09-03 14:10:02 | 52.67806 | 10.93687 | 96° | 62km/h | 1393m | -2.4m/s | 10.6°C | 100% | 863.5hPa | 2.8V | 06:51:33 | 03:50:40 | 00:00:00 | |
| DF8AY | 2026-09-03 14:10:00 | 52.67810 | 10.93636 | 100° | 60km/h | 1398m | -2.5m/s | 10.5°C | 100% | 863.2hPa | 2.8V | 06:51:33 | 03:50:38 | 00:00:00 | |
| DF8AY | 2026-09-03 14:09:58 | 52.67816 | 10.93587 | 102° | 58km/h | 1402m | -2.4m/s | 10.5°C | 100% | 862.5hPa | 2.8V | 06:51:33 | 03:50:36 | 00:00:00 | |
| DF8AY | 2026-09-03 14:09:57 | 52.67819 | 10.93564 | 102° | 57km/h | 1405m | -2.6m/s | 10.5°C | 100% | 862.2hPa | 2.8V | 06:51:33 | 03:50:35 | 00:00:00 | |
| DF8AY | 2026-09-03 14:09:55 | 52.67825 | 10.93518 | 103° | 55km/h | 1410m | -2.5m/s | 10.5°C | 100% | 861.8hPa | 2.8V | 06:51:33 | 03:50:33 | 00:00:00 | |
| DB0DAN | 2026-09-03 14:09:55 | 52.67825 | 10.93518 | 103° | 51km/h | 1410m | -2.5m/s | 10.5°C | 100% | 861.79hPa | 2.8V | 00:00:00 | 00:00:00 | 00:00:00 | |
| DF8AY | 2026-09-03 14:09:53 | 52.67831 | 10.93475 | 102° | 51km/h | 1415m | -2.5m/s | 10.4°C | 100% | 861.3hPa | 2.8V | 06:51:33 | 03:50:31 | 00:00:00 | |
| DF8AY | 2026-09-03 14:09:52 | 52.67834 | 10.93454 | 102° | 51km/h | 1418m | -2.5m/s | 10.4°C | 100% | 861.1hPa | 2.8V | 06:51:33 | 03:50:30 | 00:00:00 | |
| DF8AY | 2026-09-03 14:09:50 | 52.67839 | 10.93413 | 101° | 49km/h | 1423m | -2.6m/s | 10.4°C | 100% | 860.6hPa | 2.8V | 06:51:33 | 03:50:28 | 00:00:00 | |
| DF8AY | 2026-09-03 14:09:49 | 52.67841 | 10.93393 | 100° | 49km/h | 1425m | -2.5m/s | 10.4°C | 100% | 860.2hPa | 2.8V | 06:51:33 | 03:50:27 | 00:00:00 | |
| DF8AY | 2026-09-03 14:09:47 | 52.67844 | 10.93354 | 97° | 47km/h | 1430m | -2.4m/s | 10.3°C | 100% | 859.7hPa | 2.8V | 06:51:33 | 03:50:25 | 00:00:00 | |
| DF8AY | 2026-09-03 14:09:45 | 52.67847 | 10.93314 | 94° | 47km/h | 1435m | -2.4m/s | 10.3°C | 100% | 859.2hPa | 2.8V | 06:51:33 | 03:50:23 | 00:00:00 | |
| DF8AY | 2026-09-03 14:09:43 | 52.67848 | 10.93274 | 91° | 49km/h | 1440m | -2.6m/s | 10.3°C | 100% | 858.7hPa | 2.8V | 06:51:33 | 03:50:21 | 00:00:00 | |
| DF8AY | 2026-09-03 14:09:42 | 52.67848 | 10.93253 | 90° | 49km/h | 1443m | -2.4m/s | 10.3°C | 100% | 858.5hPa | 2.8V | 06:52:24 | 03:50:20 | 00:00:00 | |
| DF8AY | 2026-09-03 14:09:40 | 52.67847 | 10.93189 | 88° | 55km/h | 1450m | -2.2m/s | 10.3°C | 100% | 857.9hPa | 2.8V | 06:52:24 | 03:50:17 | 00:00:00 | |
| DB0DAN | 2026-09-03 14:09:40 | 52.67848 | 10.93211 | 88° | 49km/h | 1447m | -2.4m/s | 10.3°C | 99.9% | 857.98hPa | 2.8V | 00:00:00 | 00:00:00 | 00:00:00 | |
| DF8AY | 2026-09-03 14:09:39 | 52.67850 | 10.92966 | 97° | 62km/h | 1470m | -2.3m/s | 10.1°C | 100% | 855.7hPa | 2.8V | 06:52:24 | 03:50:08 | 00:00:00 | |
| DF8AY | 2026-09-03 14:09:27 | 52.67861 | 10.92866 | 102° | 60km/h | 1479m | -2.3m/s | 10.1°C | 100% | 854.7hPa | 2.8V | 06:52:24 | 03:50:04 | 00:00:00 | |
| DF8AY-15 | 2026-09-03 14:09:27 | 52.67858 | 10.92891 | 101° | 58km/h | 1477m | -2.3m/s | 10.0°C | 0% | 855.0hPa | 2.8V | 00:00:00 | 03:50:05 | 00:00:00 | |
| DB0DAN | 2026-09-03 14:09:25 | 52.67864 | 10.92842 | 103° | 55km/h | 1482m | -2.5m/s | 10.1°C | 100% | 854.47hPa | 2.8V | 00:00:00 | 00:00:00 | 00:00:00 | |
| DF8AY | 2026-09-03 14:09:25 | 52.67864 | 10.92842 | 103° | 58km/h | 1482m | -2.5m/s | 10.1°C | 100% | 854.5hPa | 2.8V | 06:52:24 | 03:50:03 | 00:00:00 | |
| DF8AY | 2026-09-03 14:09:23 | 52.67870 | 10.92796 | 104° | 55km/h | 1487m | -2.4m/s | 10°C | 100% | 853.9hPa | 2.8V | 06:52:24 | 03:50:01 | 00:00:00 | |
| DF8AY | 2026-09-03 14:09:22 | 52.67874 | 10.92774 | 104° | 53km/h | 1489m | -2.4m/s | 10°C | 100% | 853.7hPa | 2.8V | 06:52:24 | 03:50:00 | 00:00:00 | |
| DF8AY | 2026-09-03 14:09:21 | 52.67877 | 10.92753 | 104° | 53km/h | 1492m | -2.3m/s | 10°C | 100% | 853.5hPa | 2.8V | 06:52:24 | 03:49:59 | 00:00:00 | |
| DF8AY | 2026-09-03 14:09:20 | 52.67883 | 10.92712 | 102° | 49km/h | 1496m | -2.3m/s | 10°C | 100% | 852.9hPa | 2.8V | 06:52:24 | 03:49:57 | 00:00:00 | |
| DF8AY | 2026-09-03 14:09:18 | 52.67885 | 10.92692 | 101° | 47km/h | 1498m | -2.3m/s | 10°C | 100% | 852.7hPa | 2.8V | 06:52:24 | 03:49:56 | 00:00:00 | |
| DF8AY | 2026-09-03 14:09:16 | 52.67889 | 10.92653 | 96° | 46km/h | 1503m | -2.3m/s | 10°C | 100% | 852.3hPa | 2.8V | 06:52:24 | 03:49:54 | 00:00:00 | |
| DF8AY | 2026-09-03 14:09:14 | 52.67890 | 10.92615 | 91° | 47km/h | 1507m | -2.3m/s | 9.9°C | 100% | 851.9hPa | 2.8V | 06:52:24 | 03:49:52 | 00:00:00 | |
| DF8AY | 2026-09-03 14:09:12 | 52.67890 | 10.92574 | 88° | 51km/h | 1512m | -2.3m/s | 9.9°C | 100% | 851.4hPa | 2.7V | 06:52:24 | 03:49:50 | 00:00:00 | |
| DF8AY-15 | 2026-09-03 14:09:12 | 52.67890 | 10.92574 | 89° | 55km/h | 1512m | -2.2m/s | 9.9°C | 0% | 851.4hPa | 2.8V | 00:00:00 | 03:49:50 | 00:00:00 | |
| SMARD9-10 | 2026-09-03 14:09:11 | 52.67889 | 10.92574 | 89° | 51km/h | 1512m | -2.3m/s | 9.9°C | 0% | 851.4hPa | 2.8V | 00:00:00 | 00:00:00 | 00:00:00 | |
| DB0DAN | 2026-09-03 14:09:10 | 52.67889 | 10.92529 | 88° | 53km/h | 1517m | -2.3m/s | 9.9°C | 100% | 850.9hPa | 2.8V | 00:00:00 | 00:00:00 | 00:00:00 | |
| DF8AY | 2026-09-03 14:09:10 | 52.67889 | 10.92529 | 88° | 55km/h | 1517m | -2.3m/s | 9.9°C | 100% | 850.9hPa | 2.8V | 06:52:24 | 03:49:48 | 00:00:00 | |
| DF8AY | 2026-09-03 14:09:08 | 52.67888 | 10.92482 | 91° | 58km/h | 1521m | -2.3m/s | 9.9°C | 100% | 850.4hPa | 2.8V | 06:52:24 | 03:49:46 | 00:00:00 | |
| DF8AY | 2026-09-03 14:09:06 | 52.67890 | 10.92432 | 95° | 60km/h | 1526m | -2.2m/s | 9.8°C | 100% | 850.1hPa | 2.8V | 06:52:24 | 03:49:44 | 00:00:00 | |
| DF8AY | 2026-09-03 14:09:04 | 52.67893 | 10.92382 | 99° | 60km/h | 1530m | -2.2m/s | 9.8°C | 100% | 849.5hPa | 2.8V | 06:52:24 | 03:49:42 | 00:00:00 | |
| DF8AY | 2026-09-03 14:09:02 | 52.67911 | 10.92245 | 103° | 51km/h | 1543m | -1.7m/s | 9.7°C | 100% | 848.2hPa | 2.8V | 06:52:24 | 03:49:36 | 00:00:00 | |
| DF8AY | 2026-09-03 14:09:02 | 52.67914 | 10.92225 | 101° | 49km/h | 1545m | -2.1m/s | 9.7°C | 100% | 848hPa | 2.8V | 06:52:24 | 03:49:35 | 00:00:00 | |
| DF8AY-15 | 2026-09-03 14:09:02 | 52.67899 | 10.92333 | 102° | 55km/h | 1535m | -2.2m/s | 9.7°C | 0% | 849.0hPa | 2.7V | 00:00:00 | 03:49:40 | 00:00:00 | |
| DF7ER-10 | 2026-09-03 14:08:59 | 52.67905 | 10.92288 | 104° | 55km/h | 1539m | -1.9m/s | 9.8°C | 100.3% | 848.6hPa | 2.8V | 06:52:00 | 00:00:00 | 00:00:00 | |
| DM0DOS-11 | 2026-09-03 14:08:59 | 52.67919 | 10.92166 | 95° | 47km/h | 1551m | -1.9m/s | 9.7°C | 0% | 847.4hPa | 2.8V | 06:52:22 | 03:49:32 | 00:00:00 | |
| DF8AY | 2026-09-03 14:08:56 | 52.67916 | 10.92205 | 100° | 47km/h | 1547m | -1.9m/s | 9.7°C | 100% | 847.8hPa | 2.7V | 06:52:24 | 03:49:34 | 00:00:00 | |
| DF8AY | 2026-09-03 14:08:55 | 52.67918 | 10.92185 | 98° | 47km/h | 1549m | -1.9m/s | 9.7°C | 100% | 847.5hPa | 2.8V | 06:52:24 | 03:49:33 | 00:00:00 | |
| DM0DOS-11 | 2026-09-03 14:08:54 | 52.67921 | 10.92126 | 91° | 47km/h | 1554m | -1.8m/s | 9.7°C | 0% | 846.9hPa | 2.8V | 06:52:24 | 03:49:30 | 00:00:00 | |
| DF8AY | 2026-09-03 14:08:53 | 52.67920 | 10.92146 | 94° | 47km/h | 1552m | -1.7m/s | 9.7°C | 100% | 847.2hPa | 2.8V | 06:52:24 | 03:49:31 | 00:00:00 | |
| DF8AY | 2026-09-03 14:08:52 | 52.67921 | 10.92126 | 91° | 47km/h | 1554m | -1.8m/s | 9.7°C | 100% | 846.9hPa | 2.8V | 06:52:24 | 03:49:30 | 00:00:00 | |
| DF8AY | 2026-09-03 14:08:51 | 52.67921 | 10.92106 | 91° | 49km/h | 1556m | -2.1m/s | 9.7°C | 100% | 846.8hPa | 2.8V | 06:53:15 | 03:49:29 | 00:00:00 | |
| DF8AY | 2026-09-03 14:08:49 | 52.67921 | 10.92065 | 88° | 49km/h | 1560m | -2.4m/s | 9.6°C | 100% | 846.4hPa | 2.8V | 06:53:15 | 03:49:27 | 00:00:00 | |
| DF8AY | 2026-09-03 14:08:48 | 52.67920 | 10.92045 | 88° | 51km/h | 1563m | -2.4m/s | 9.6°C | 100% | 846.2hPa | 2.8V | 06:53:15 | 03:49:26 | 00:00:00 | |
| DF8AY | 2026-09-03 14:08:47 | 52.67919 | 10.92023 | 87° | 51km/h | 1565m | -2.3m/s | 9.6°C | 100% | 846hPa | 2.8V | 06:53:15 | 03:49:25 | 00:00:00 | |
| DF8AY | 2026-09-03 14:08:46 | 52.67919 | 10.92002 | 87° | 53km/h | 1567m | -2.4m/s | 9.6°C | 100% | 845.7hPa | 2.8V | 06:53:15 | 03:49:24 | 00:00:00 | |
| DF8AY | 2026-09-03 14:08:44 | 52.67917 | 10.91957 | 87° | 55km/h | 1572m | -2.1m/s | 9.6°C | 100% | 845.2hPa | 2.8V | 06:53:15 | 03:49:22 | 00:00:00 | |
| DF8AY | 2026-09-03 14:08:42 | 52.67916 | 10.91911 | 88° | 57km/h | 1576m | -2.1m/s | 9.6°C | 100% | 844.8hPa | 2.8V | 06:53:15 | 03:49:20 | 00:00:00 | |
| DM0DOS-11 | 2026-09-03 14:08:41 | 52.67915 | 10.91887 | 87° | 58km/h | 1578m | -1.9m/s | 9.5°C | 0% | 844.5hPa | 2.8V | 06:52:35 | 03:49:19 | 00:00:00 | |
| DF8AY | 2026-09-03 14:08:41 | 52.67915 | 10.91887 | 88° | 58km/h | 1578m | -2m/s | 9.5°C | 100% | 844.5hPa | 2.8V | 06:53:15 | 03:49:19 | 00:00:00 | |
| DB0DAN | 2026-09-03 14:08:40 | 52.67915 | 10.91862 | 89° | 57km/h | 1580m | -2.1m/s | 9.5°C | 99.6% | 844.3hPa | 2.7V | 00:00:00 | 00:00:00 | 00:00:00 | |
| DF8AY | 2026-09-03 14:08:40 | 52.67915 | 10.91862 | 89° | 60km/h | 1580m | -2.1m/s | 9.5°C | 100% | 844.3hPa | 2.7V | 06:53:15 | 03:49:18 | 00:00:00 | |
| DF8AY | 2026-09-03 14:08:39 | 52.67915 | 10.91837 | 90° | 60km/h | 1582m | -2.1m/s | 9.5°C | 100% | 844.2hPa | 2.8V | 06:53:15 | 03:49:17 | 00:00:00 | |
| DF8AY | 2026-09-03 14:08:37 | 52.67915 | 10.91786 | 93° | 62km/h | 1587m | -2.4m/s | 9.5°C | 100% | 843.8hPa | 2.8V | 06:53:15 | 03:49:15 | 00:00:00 | |
| DF8AY | 2026-09-03 14:08:35 | 52.67918 | 10.91734 | 95° | 64km/h | 1591m | -2.1m/s | 9.5°C | 100% | 843.3hPa | 2.8V | 06:53:15 | 03:49:13 | 00:00:00 | |
| DF8AY | 2026-09-03 14:08:33 | 52.67921 | 10.91682 | 97° | 62km/h | 1596m | -2.2m/s | 9.4°C | 100% | 842.8hPa | 2.8V | 06:53:15 | 03:49:11 | 00:00:00 | |
| DF8AY | 2026-09-03 14:08:32 | 52.67923 | 10.91657 | 98° | 62km/h | 1598m | -2.3m/s | 9.5°C | 100% | 842.6hPa | 2.8V | 06:53:15 | 03:49:10 | 00:00:00 | |
| DF8AY | 2026-09-03 14:08:31 | 52.67925 | 10.91631 | 99° | 60km/h | 1600m | -2.2m/s | 9.4°C | 100% | 842.4hPa | 2.8V | 06:53:15 | 03:49:09 | 00:00:00 | |
| DF8AY | 2026-09-03 14:08:29 | 52.67930 | 10.91583 | 101° | 57km/h | 1604m | -2.1m/s | 9.4°C | 100% | 842hPa | 2.8V | 06:53:15 | 03:49:07 | 00:00:00 | |
| DM0DOS-11 | 2026-09-03 14:08:29 | 52.67942 | 10.91477 | 95° | 47km/h | 1615m | -2.1m/s | 9.3°C | 0% | 840.9hPa | 2.7V | 06:52:52 | 03:49:02 | 00:00:00 | |
| DF8AY | 2026-09-03 14:08:29 | 52.67933 | 10.91560 | 102° | 55km/h | 1607m | -2.1m/s | 9.4°C | 100% | 841.8hPa | 2.8V | 06:53:15 | 03:49:06 | 00:00:00 | |
| DF8AY | 2026-09-03 14:08:27 | 52.67936 | 10.91538 | 102° | 53km/h | 1608m | -2m/s | 9.3°C | 100% | 841.5hPa | 2.8V | 06:53:15 | 03:49:05 | 00:00:00 | |
| DF8AY | 2026-09-03 14:08:26 | 52.67938 | 10.91517 | 100° | 51km/h | 1611m | -2.1m/s | 9.3°C | 100% | 841.3hPa | 2.8V | 06:53:15 | 03:49:04 | 00:00:00 | |
| DF8AY | 2026-09-03 14:08:24 | 52.67942 | 10.91477 | 96° | 47km/h | 1615m | -2.2m/s | 9.3°C | 100% | 840.9hPa | 2.7V | 06:53:15 | 03:49:02 | 00:00:00 | |
| DF8AY | 2026-09-03 14:08:24 | 52.67943 | 10.91457 | 93° | 47km/h | 1617m | -2m/s | 9.3°C | 100% | 840.7hPa | 2.8V | 06:53:15 | 03:49:01 | 00:00:00 | |
| DM0DOS-11 | 2026-09-03 14:08:23 | 52.67943 | 10.91395 | 87° | 51km/h | 1623m | -2.2m/s | 9.3°C | 0% | 840hPa | 2.8V | 06:52:56 | 03:48:58 | 00:00:00 | |
| DF8AY | 2026-09-03 14:08:21 | 52.67943 | 10.91416 | 89° | 49km/h | 1621m | -2m/s | 9.3°C | 100% | 840.2hPa | 2.8V | 06:53:15 | 03:48:59 | 00:00:00 | |
| DF8AY | 2026-09-03 14:08:20 | 52.67943 | 10.91395 | 87° | 51km/h | 1623m | -2.2m/s | 9.3°C | 100% | 840hPa | 2.8V | 06:53:15 | 03:48:58 | 00:00:00 | |
| DF8AY | 2026-09-03 14:08:18 | 52.67941 | 10.91351 | 87° | 55km/h | 1627m | -2.1m/s | 9.2°C | 100% | 839.7hPa | 2.8V | 06:53:15 | 03:48:56 | 00:00:00 | |
| DF7ER-10 | 2026-09-03 14:08:17 | 52.67941 | 10.91351 | 87° | 55km/h | 1627m | -2.1m/s | 9.2°C | 99.2% | 839.7hPa | 2.8V | 06:53:00 | 00:00:00 | 00:00:00 | |
| DM0DOS-11 | 2026-09-03 14:08:17 | 52.67938 | 10.91254 | 88° | 60km/h | 1635m | -1.9m/s | 9.2°C | 0% | 838.8hPa | 2.8V | 06:53:02 | 03:48:52 | 00:00:00 | |
| DM0DOS-11 | 2026-09-03 14:08:17 | 52.67938 | 10.91202 | 90° | 62km/h | 1639m | -1.9m/s | 9.2°C | 0% | 838.3hPa | 2.8V | 06:53:04 | 03:48:50 | 00:00:00 | |
| DF8AY | 2026-09-03 14:08:16 | 52.67939 | 10.91303 | 87° | 58km/h | 1631m | -2.1m/s | 9.2°C | 100% | 839.2hPa | 2.8V | 06:53:15 | 03:48:54 | 00:00:00 | |
| DF8AY | 2026-09-03 14:08:14 | 52.67938 | 10.91254 | 89° | 60km/h | 1635m | -1.9m/s | 9.2°C | 100% | 838.8hPa | 2.8V | 06:53:15 | 03:48:52 | 00:00:00 | |
| DF8AY | 2026-09-03 14:08:14 | 52.67938 | 10.91228 | 89° | 62km/h | 1637m | -2.1m/s | 9.2°C | 100% | 838.5hPa | 2.8V | 06:53:15 | 03:48:51 | 00:00:00 | |
| DF8AY | 2026-09-03 14:08:12 | 52.67938 | 10.91202 | 91° | 62km/h | 1639m | -1.9m/s | 9.2°C | 100% | 838.3hPa | 2.8V | 06:53:15 | 03:48:50 | 00:00:00 | |
| DF8AY-15 | 2026-09-03 14:08:12 | 52.67938 | 10.91202 | 91° | 64km/h | 1639m | -1.9m/s | 9.1°C | 0% | 838.3hPa | 2.8V | 06:53:00 | 03:48:50 | 00:00:00 | |
| DM0DOS-11 | 2026-09-03 14:08:11 | 52.67939 | 10.91149 | 92° | 64km/h | 1643m | -2m/s | 9.2°C | 0% | 838hPa | 2.8V | 06:53:06 | 03:48:48 | 00:00:00 | |
| DF8AY | 2026-09-03 14:08:11 | 52.67938 | 10.91176 | 92° | 64km/h | 1641m | -2.1m/s | 9.2°C | 100% | 838.2hPa | 2.8V | 06:53:15 | 03:48:49 | 00:00:00 | |
| DB0DAN | 2026-09-03 14:08:10 | 52.67939 | 10.91149 | 93° | 60km/h | 1643m | -2m/s | 9.2°C | 100% | 837.97hPa | 2.8V | 00:00:00 | 00:00:00 | 00:00:00 | |
| DF8AY | 2026-09-03 14:08:09 | 52.67940 | 10.91123 | 94° | 64km/h | 1645m | -2m/s | 9.2°C | 100% | 837.8hPa | 2.7V | 06:53:15 | 03:48:47 | 00:00:00 | |
| DF8AY | 2026-09-03 14:08:07 | 52.67942 | 10.91070 | 96° | 64km/h | 1649m | -2m/s | 9.1°C | 100% | 837.4hPa | 2.8V | 06:53:15 | 03:48:45 | 00:00:00 | |
| DF8AY | 2026-09-03 14:08:06 | 52.67944 | 10.91043 | 98° | 64km/h | 1651m | -2m/s | 9.2°C | 100% | 837.3hPa | 2.8V | 06:53:15 | 03:48:44 | 00:00:00 | |
| DF8AY | 2026-09-03 14:08:05 | 52.67947 | 10.91018 | 99° | 62km/h | 1653m | -1.9m/s | 9.1°C | 100% | 837.1hPa | 2.8V | 06:53:15 | 03:48:43 | 00:00:00 | |
| DF8AY | 2026-09-03 14:08:03 | 52.67952 | 10.90968 | 101° | 58km/h | 1657m | -1.9m/s | 9.1°C | 100% | 836.6hPa | 2.8V | 06:53:15 | 03:48:41 | 00:00:00 | |
| DF8AY | 2026-09-03 14:08:02 | 52.67955 | 10.90944 | 102° | 58km/h | 1658m | -1.8m/s | 9.1°C | 100% | 836.4hPa | 2.8V | 06:53:15 | 03:48:40 | 00:00:00 | |
| DF8AY | 2026-09-03 14:08:01 | 52.67958 | 10.90921 | 102° | 57km/h | 1660m | -1.9m/s | 9.1°C | 100% | 836.2hPa | 2.8V | 06:53:15 | 03:48:39 | 00:00:00 | |
| DF8AY | 2026-09-03 14:07:59 | 52.67963 | 10.90876 | 100° | 53km/h | 1664m | -1.7m/s | 9°C | 100% | 835.7hPa | 2.8V | 06:54:06 | 03:48:37 | 00:00:00 | |
| DM0DOS-11 | 2026-09-03 14:07:58 | 52.67970 | 10.90752 | 90° | 51km/h | 1675m | -1.8m/s | 9°C | 0% | 834.7hPa | 2.8V | 06:53:23 | 03:48:31 | 00:00:00 | |
| DF8AY | 2026-09-03 14:07:57 | 52.67967 | 10.90834 | 97° | 49km/h | 1668m | -1.7m/s | 9°C | 100% | 835.5hPa | 2.8V | 06:54:06 | 03:48:35 | 00:00:00 | |
| DF8AY-15 | 2026-09-03 14:07:57 | 52.67967 | 10.90834 | 98° | 49km/h | 1668m | -1.7m/s | 9.0°C | 0% | 835.5hPa | 2.8V | 00:00:00 | 03:48:35 | 00:00:00 | |
| DF7ER-10 | 2026-09-03 14:07:56 | 52.67967 | 10.90834 | 98° | 49km/h | 1668m | -1.7m/s | 9.0°C | 99.8% | 835.5hPa | 2.8V | 06:54:00 | 00:00:00 | 00:00:00 | |
| DB0DAN | 2026-09-03 14:07:55 | 52.67970 | 10.90793 | 93° | 47km/h | 1672m | -2m/s | 9°C | 100% | 835.18hPa | 2.8V | 00:00:00 | 00:00:00 | 00:00:00 | |
| DF8AY | 2026-09-03 14:07:55 | 52.67970 | 10.90793 | 93° | 49km/h | 1672m | -2m/s | 9°C | 100% | 835.2hPa | 2.8V | 06:54:06 | 03:48:33 | 00:00:00 | |
| DF8AY | 2026-09-03 14:07:53 | 52.67970 | 10.90752 | 90° | 51km/h | 1675m | -1.8m/s | 9°C | 100% | 834.7hPa | 2.8V | 06:54:06 | 03:48:31 | 00:00:00 | |
| AM1SDL-15 | 2026-09-03 14:07:52 | 52.67970 | 10.90730 | 89° | 55km/h | 1677m | -2.0m/s | 0°C | 0% | 0hPa | 2.8V | 00:00:00 | 03:48:30 | 00:00:00 | |
| DF8AY-15 | 2026-09-03 14:07:52 | 52.67970 | 10.90730 | 89° | 53km/h | 1677m | -2.0m/s | 8.9°C | 0% | 834.3hPa | 2.8V | 00:00:00 | 03:48:30 | 00:00:00 | |
| DM0DOS-11 | 2026-09-03 14:07:51 | 52.67966 | 10.90593 | 87° | 60km/h | 1688m | -1.9m/s | 8.9°C | 0% | 833.4hPa | 2.8V | 06:53:30 | 03:48:24 | 00:00:00 | |
| DF8AY | 2026-09-03 14:07:51 | 52.67970 | 10.90709 | 88° | 53km/h | 1679m | -1.8m/s | 9°C | 100% | 834.4hPa | 2.8V | 06:54:06 | 03:48:29 | 00:00:00 | |
| DF8AY | 2026-09-03 14:07:50 | 52.67969 | 10.90687 | 87° | 53km/h | 1681m | -1.8m/s | 8.9°C | 100% | 834.2hPa | 2.8V | 06:54:06 | 03:48:28 | 00:00:00 | |
| DF8AY | 2026-09-03 14:07:48 | 52.67968 | 10.90641 | 87° | 57km/h | 1684m | -1.7m/s | 8.9°C | 100% | 833.9hPa | 2.8V | 06:54:06 | 03:48:26 | 00:00:00 | |
| DF8AY | 2026-09-03 14:07:46 | 52.67967 | 10.90489 | 93° | 64km/h | 1695m | -1.7m/s | 8.9°C | 100% | 832.8hPa | 2.8V | 06:54:06 | 03:48:20 | 00:00:00 | |
| DF8AY | 2026-09-03 14:07:46 | 52.67968 | 10.90463 | 95° | 64km/h | 1697m | -1.7m/s | 8.9°C | 100% | 832.5hPa | 2.8V | 06:54:06 | 03:48:19 | 00:00:00 | |
| D01LWL | 2026-09-03 14:07:45 | 52.67966 | 10.90568 | 89° | 60km/h | 1690m | -1.9m/s | 8.9°C | 100.0% | 833.4hPa | 2.8V | 00:00:00 | 00:00:00 | 00:00:00 | |
| DF8AY-15 | 2026-09-03 14:07:42 | 52.67967 | 10.90489 | 94° | 62km/h | 1695m | -1.6m/s | 8.8°C | 0% | 832.7hPa | 2.8V | 00:00:00 | 03:48:20 | 00:00:00 | |
| DB0DAN | 2026-09-03 14:07:40 | 52.67970 | 10.90437 | 96° | 60km/h | 1698m | -1.7m/s | 8.9°C | 100% | 832.4hPa | 2.8V | 00:00:00 | 00:00:00 | 00:00:00 | |
| DF8AY | 2026-09-03 14:07:39 | 52.67972 | 10.90411 | 98° | 62km/h | 1700m | -1.7m/s | 8.8°C | 100% | 832.3hPa | 2.7V | 06:54:06 | 03:48:17 | 00:00:00 | |
| DF8AY | 2026-09-03 14:07:38 | 52.67974 | 10.90385 | 99° | 62km/h | 1702m | -1.8m/s | 8.8°C | 100% | 832.2hPa | 2.8V | 06:54:06 | 03:48:16 | 00:00:00 | |
| DF8AY | 2026-09-03 14:07:36 | 52.67979 | 10.90336 | 101° | 60km/h | 1705m | -1.7m/s | 8.8°C | 100% | 831.8hPa | 2.8V | 06:54:06 | 03:48:14 | 00:00:00 | |
| DF8AY | 2026-09-03 14:07:35 | 52.67982 | 10.90311 | 102° | 58km/h | 1707m | -1.8m/s | 8.8°C | 100% | 831.6hPa | 2.8V | 06:54:06 | 03:48:13 | 00:00:00 | |
| DF8AY | 2026-09-03 14:07:33 | 52.67988 | 10.90264 | 102° | 57km/h | 1710m | -1.8m/s | 8.8°C | 100% | 831.2hPa | 2.8V | 06:54:06 | 03:48:11 | 00:00:00 | |
| DF8AY | 2026-09-03 14:07:31 | 52.67994 | 10.90218 | 103° | 57km/h | 1714m | -1.9m/s | 8.8°C | 100% | 830.9hPa | 2.8V | 06:54:06 | 03:48:09 | 00:00:00 | |
| DF8AY | 2026-09-03 14:07:29 | 52.68000 | 10.90173 | 102° | 53km/h | 1718m | -1.8m/s | 8.8°C | 100% | 830.5hPa | 2.8V | 06:54:06 | 03:48:07 | 00:00:00 | |
| DF8AY | 2026-09-03 14:07:27 | 52.68006 | 10.90130 | 101° | 51km/h | 1722m | -1.8m/s | 8.7°C | 100% | 830.2hPa | 2.8V | 06:54:06 | 03:48:05 | 00:00:00 | |
| DF8AY | 2026-09-03 14:07:26 | 52.68008 | 10.90110 | 100° | 49km/h | 1724m | -2.1m/s | 8.7°C | 100% | 829.9hPa | 2.8V | 06:54:06 | 03:48:04 | 00:00:00 | |
| DB0DAN | 2026-09-03 14:07:25 | 52.68010 | 10.90089 | 98° | 47km/h | 1726m | -2.1m/s | 8.7°C | 99.7% | 829.8hPa | 2.8V | 00:00:00 | 00:00:00 | 00:00:00 | |
| DF8AY | 2026-09-03 14:07:25 | 52.68010 | 10.90089 | 98° | 49km/h | 1726m | -2.1m/s | 8.7°C | 100% | 829.8hPa | 2.8V | 06:54:06 | 03:48:03 | 00:00:00 | |
| DF8AY | 2026-09-03 14:07:23 | 52.68013 | 10.90049 | 94° | 49km/h | 1730m | -2m/s | 8.7°C | 100% | 829.3hPa | 2.8V | 06:54:06 | 03:48:01 | 00:00:00 | |
| DF8AY | 2026-09-03 14:07:21 | 52.68013 | 10.90008 | 90° | 49km/h | 1734m | -2m/s | 8.6°C | 100% | 828.9hPa | 2.8V | 06:54:06 | 03:47:59 | 00:00:00 | |
| DF8AY | 2026-09-03 14:07:19 | 52.68013 | 10.89966 | 87° | 53km/h | 1738m | -2.2m/s | 8.6°C | 100% | 828.5hPa | 2.8V | 06:54:06 | 03:47:57 | 00:00:00 | |
| DF8AY | 2026-09-03 14:07:17 | 52.68011 | 10.89921 | 86° | 55km/h | 1742m | -2.2m/s | 8.6°C | 100% | 828.1hPa | 2.8V | 06:54:06 | 03:47:55 | 00:00:00 | |
| DF8AY | 2026-09-03 14:07:15 | 52.68009 | 10.89874 | 87° | 58km/h | 1747m | -2.3m/s | 8.5°C | 100% | 827.5hPa | 2.8V | 06:54:06 | 03:47:53 | 00:00:00 | |
| DF8AY | 2026-09-03 14:07:15 | 52.68009 | 10.89850 | 88° | 60km/h | 1749m | -2.4m/s | 8.5°C | 100% | 827.3hPa | 2.8V | 06:54:06 | 03:47:52 | 00:00:00 | |
| DF8AY | 2026-09-03 14:07:12 | 52.68008 | 10.89799 | 91° | 62km/h | 1754m | -2.1m/s | 8.5°C | 100% | 827hPa | 2.8V | 06:54:06 | 03:47:50 | 00:00:00 | |
| DF8AY | 2026-09-03 14:07:11 | 52.68009 | 10.89773 | 93° | 62km/h | 1756m | -1.9m/s | 8.5°C | 100% | 826.7hPa | 2.8V | 06:54:06 | 03:47:49 | 00:00:00 | |
| DB0DAN | 2026-09-03 14:07:10 | 52.68010 | 10.89747 | 95° | 60km/h | 1758m | -2m/s | 8.5°C | 100% | 826.53hPa | 2.7V | 00:00:00 | 00:00:00 | 00:00:00 | |
| DF8AY | 2026-09-03 14:07:10 | 52.68010 | 10.89747 | 95° | 62km/h | 1758m | -2m/s | 8.5°C | 100% | 826.5hPa | 2.7V | 06:54:06 | 03:47:48 | 00:00:00 | |
| DF8AY | 2026-09-03 14:07:09 | 52.68012 | 10.89721 | 97° | 62km/h | 1760m | -2.1m/s | 8.4°C | 100% | 826.4hPa | 2.8V | 06:54:57 | 03:47:47 | 00:00:00 | |
| DF8AY | 2026-09-03 14:07:07 | 52.68016 | 10.89671 | 100° | 58km/h | 1764m | -2.1m/s | 8.4°C | 100% | 825.9hPa | 2.8V | 06:54:57 | 03:47:45 | 00:00:00 | |
| DF8AY | 2026-09-03 14:07:05 | 52.68022 | 10.89625 | 101° | 55km/h | 1769m | -2.2m/s | 8.4°C | 100% | 825.4hPa | 2.8V | 06:54:57 | 03:47:43 | 00:00:00 | |
| DF8AY | 2026-09-03 14:07:03 | 52.68027 | 10.89581 | 100° | 51km/h | 1773m | -2.5m/s | 8.4°C | 100% | 825.1hPa | 2.8V | 06:54:57 | 03:47:41 | 00:00:00 | |
| DF8AY | 2026-09-03 14:07:03 | 52.68029 | 10.89560 | 98° | 51km/h | 1776m | -2.3m/s | 8.4°C | 100% | 824.8hPa | 2.8V | 06:54:57 | 03:47:40 | 00:00:00 | |
| DF8AY | 2026-09-03 14:07:00 | 52.68031 | 10.89518 | 93° | 49km/h | 1780m | -2.3m/s | 8.4°C | 100% | 824.3hPa | 2.8V | 06:54:57 | 03:47:38 | 00:00:00 | |
| DF8AY | 2026-09-03 14:06:59 | 52.68031 | 10.89498 | 91° | 49km/h | 1782m | -2.2m/s | 8.4°C | 100% | 824.1hPa | 2.8V | 06:54:57 | 03:47:37 | 00:00:00 | |
| DF8AY | 2026-09-03 14:06:57 | 52.68031 | 10.89455 | 88° | 51km/h | 1787m | -2.1m/s | 8.4°C | 100% | 823.6hPa | 2.8V | 06:54:57 | 03:47:35 | 00:00:00 | |
| DF8AY-15 | 2026-09-03 14:06:57 | 52.68031 | 10.89455 | 88° | 53km/h | 1787m | -2.0m/s | 8.3°C | 0% | 823.5hPa | 2.8V | 00:00:00 | 03:47:35 | 00:00:00 | |
| DB0DAN | 2026-09-03 14:06:55 | 52.68030 | 10.89411 | 86° | 51km/h | 1791m | -2.2m/s | 8.3°C | 100% | 823.2hPa | 2.8V | 00:00:00 | 00:00:00 | 00:00:00 | |
| DF8AY | 2026-09-03 14:06:55 | 52.68030 | 10.89411 | 86° | 55km/h | 1791m | -2.2m/s | 8.3°C | 100% | 823.2hPa | 2.8V | 06:54:57 | 03:47:33 | 00:00:00 | |
| DF8AY | 2026-09-03 14:06:54 | 52.68029 | 10.89389 | 86° | 55km/h | 1794m | -2.4m/s | 8.3°C | 100% | 823hPa | 2.8V | 06:54:57 | 03:47:32 | 00:00:00 | |
| DM0DOS-11 | 2026-09-03 14:06:53 | 52.68024 | 10.89295 | 85° | 58km/h | 1803m | -2.1m/s | 8.3°C | 0% | 822hPa | 2.8V | 06:54:26 | 03:47:28 | 00:00:00 | |
| DF8AY | 2026-09-03 14:06:52 | 52.68027 | 10.89343 | 86° | 57km/h | 1798m | -2.4m/s | 8.3°C | 100% | 822.5hPa | 2.8V | 06:54:57 | 03:47:30 | 00:00:00 | |
| DF8AY | 2026-09-03 14:06:52 | 52.68026 | 10.89319 | 86° | 57km/h | 1800m | -2.2m/s | 8.3°C | 100% | 822.2hPa | 2.8V | 06:54:57 | 03:47:29 | 00:00:00 | |
| DF8AY | 2026-09-03 14:06:50 | 52.68024 | 10.89295 | 86° | 58km/h | 1803m | -2.1m/s | 8.3°C | 100% | 822hPa | 2.8V | 06:54:57 | 03:47:28 | 00:00:00 | |
| DF8AY | 2026-09-03 14:06:48 | 52.68022 | 10.89246 | 86° | 60km/h | 1807m | -2.4m/s | 8.3°C | 100% | 821.5hPa | 2.8V | 06:54:57 | 03:47:26 | 00:00:00 | |
| DF8AY | 2026-09-03 14:06:48 | 52.68021 | 10.89221 | 86° | 62km/h | 1810m | -2.2m/s | 8.3°C | 100% | 821.4hPa | 2.8V | 06:54:57 | 03:47:25 | 00:00:00 | |
| DF8AY-15 | 2026-09-03 14:06:47 | 52.68021 | 10.89221 | 87° | 62km/h | 1810m | -2.1m/s | 8.2°C | 0% | 821.4hPa | 2.7V | 00:00:00 | 03:47:25 | 00:00:00 | |
| DM0DOS-11 | 2026-09-03 14:06:45 | 52.68020 | 10.89170 | 87° | 62km/h | 1814m | -2.1m/s | 8.2°C | 0% | 820.9hPa | 2.8V | 06:54:31 | 03:47:23 | 00:00:00 | |
| DF8AY | 2026-09-03 14:06:45 | 52.68020 | 10.89170 | 88° | 62km/h | 1814m | -2.1m/s | 8.2°C | 100% | 820.9hPa | 2.8V | 06:54:57 | 03:47:23 | 00:00:00 | |
| DF8AY | 2026-09-03 14:06:44 | 52.68019 | 10.89143 | 89° | 62km/h | 1817m | -2.5m/s | 8.2°C | 100% | 820.6hPa | 2.8V | 06:54:57 | 03:47:22 | 00:00:00 | |
| DF8AY | 2026-09-03 14:06:43 | 52.68019 | 10.89117 | 90° | 64km/h | 1819m | -2.4m/s | 8.2°C | 100% | 820.4hPa | 2.8V | 06:54:57 | 03:47:21 | 00:00:00 | |
| DF8AY | 2026-09-03 14:06:41 | 52.68019 | 10.89064 | 91° | 64km/h | 1823m | -2.3m/s | 8.2°C | 100% | 819.9hPa | 2.8V | 06:54:57 | 03:47:19 | 00:00:00 | |
| DB0DAN | 2026-09-03 14:06:40 | 52.68020 | 10.89038 | 92° | 60km/h | 1825m | -2.1m/s | 8.2°C | 100% | 819.78hPa | 2.8V | 00:00:00 | 00:00:00 | 00:00:00 | |
| DF8AY | 2026-09-03 14:06:39 | 52.68020 | 10.89011 | 93° | 64km/h | 1828m | -2m/s | 8.2°C | 100% | 819.4hPa | 2.8V | 06:54:57 | 03:47:17 | 00:00:00 | |
| DF8AY | 2026-09-03 14:06:37 | 52.68030 | 10.88858 | 100° | 58km/h | 1840m | -2m/s | 8.2°C | 100% | 818.4hPa | 2.8V | 06:54:57 | 03:47:11 | 00:00:00 | |
| DF8AY | 2026-09-03 14:06:37 | 52.68033 | 10.88835 | 100° | 57km/h | 1842m | -1.8m/s | 8.1°C | 100% | 818.1hPa | 2.8V | 06:54:57 | 03:47:10 | 00:00:00 | |
| BIOWL1-15 | 2026-09-03 14:06:36 | 52.68024 | 10.88933 | 96° | 62km/h | 1834m | -2m/s | 8.2°C | 100% | 818.9hPa | 2.8V | 06:54:57 | 03:47:14 | 00:00:00 | |
| BIOWL1-15 | 2026-09-03 14:06:34 | 52.68035 | 10.88812 | 100° | 55km/h | 1844m | -1.9m/s | 8.1°C | 100% | 817.9hPa | 2.8V | 06:54:57 | 03:47:09 | 00:00:00 | |
| DF8AY | 2026-09-03 14:06:30 | 52.68037 | 10.88790 | 99° | 53km/h | 1846m | -2.1m/s | 8.1°C | 100% | 817.8hPa | 2.8V | 06:54:57 | 03:47:08 | 00:00:00 | |
| BIOWL1-15 | 2026-09-03 14:06:28 | 52.68042 | 10.88726 | 93° | 51km/h | 1852m | -2m/s | 8.2°C | 100% | 817.2hPa | 2.8V | 06:54:57 | 03:47:05 | 00:00:00 | |
| DF8AY | 2026-09-03 14:06:28 | 52.68041 | 10.88747 | 95° | 51km/h | 1850m | -2m/s | 8.2°C | 100% | 817.4hPa | 2.7V | 06:54:57 | 03:47:06 | 00:00:00 | |
| BIOWL1-15 | 2026-09-03 14:06:28 | 52.68042 | 10.88705 | 91° | 51km/h | 1854m | -1.9m/s | 8.2°C | 100% | 817.1hPa | 2.8V | 06:54:57 | 03:47:04 | 00:00:00 | |
| DF8AY | 2026-09-03 14:06:26 | 52.68040 | 10.88617 | 86° | 55km/h | 1862m | -1.9m/s | 8.2°C | 100% | 816.3hPa | 2.8V | 06:54:57 | 03:47:00 | 00:00:00 | |
| DF8AY | 2026-09-03 14:06:26 | 52.68039 | 10.88594 | 85° | 57km/h | 1864m | -2.1m/s | 8.2°C | 100% | 816hPa | 2.8V | 06:54:57 | 03:46:59 | 00:00:00 | |
| DB0DAN | 2026-09-03 14:06:25 | 52.68042 | 10.88684 | 90° | 49km/h | 1856m | -1.9m/s | 8.2°C | 100% | 816.82hPa | 2.8V | 00:00:00 | 00:00:00 | 00:00:00 | |
| BIOWL1-15 | 2026-09-03 14:06:24 | 52.68042 | 10.88662 | 87° | 53km/h | 1857m | -2.1m/s | 8.2°C | 100% | 816.6hPa | 2.8V | 06:54:57 | 03:47:02 | 00:00:00 | |
| BIOWL1-15 | 2026-09-03 14:06:23 | 52.68041 | 10.88640 | 87° | 55km/h | 1860m | -2m/s | 8.2°C | 100% | 816.4hPa | 2.8V | 06:54:57 | 03:47:01 | 00:00:00 | |
| DF8AY | 2026-09-03 14:06:20 | 52.68038 | 10.88569 | 85° | 58km/h | 1866m | -2.2m/s | 8.2°C | 100% | 815.8hPa | 2.8V | 06:54:57 | 03:46:58 | 00:00:00 | |
| DF8AY | 2026-09-03 14:06:19 | 52.68035 | 10.88519 | 86° | 62km/h | 1870m | -2.2m/s | 8.2°C | 100% | 815.4hPa | 2.8V | 06:55:48 | 03:46:56 | 00:00:00 | |
| DF8AY | 2026-09-03 14:06:18 | 52.68034 | 10.88493 | 87° | 64km/h | 1872m | -2.2m/s | 8.2°C | 100% | 815.1hPa | 2.8V | 06:55:48 | 03:46:55 | 00:00:00 | |
| BIOWL1-15 | 2026-09-03 14:06:18 | 52.68033 | 10.88466 | 88° | 66km/h | 1875m | -2.2m/s | 8.2°C | 100% | 815hPa | 2.8V | 06:55:48 | 03:46:54 | 00:00:00 | |
| DF8AY | 2026-09-03 14:06:15 | 52.68033 | 10.88439 | 89° | 66km/h | 1877m | -2.3m/s | 8.1°C | 100% | 814.8hPa | 2.8V | 06:55:48 | 03:46:53 | 00:00:00 | |
| BIOWL1-15 | 2026-09-03 14:06:14 | 52.68033 | 10.88411 | 90° | 66km/h | 1879m | -2.5m/s | 8.1°C | 100% | 814.5hPa | 2.7V | 06:55:48 | 03:46:52 | 00:00:00 | |
| DF8AY | 2026-09-03 14:06:13 | 52.68033 | 10.88383 | 92° | 68km/h | 1882m | -2m/s | 8.1°C | 100% | 814.2hPa | 2.8V | 06:55:48 | 03:46:51 | 00:00:00 | |
| BIOWL1-15 | 2026-09-03 14:06:12 | 52.68034 | 10.88355 | 93° | 68km/h | 1884m | -2.1m/s | 8.1°C | 100% | 814.1hPa | 2.8V | 06:55:48 | 03:46:50 | 00:00:00 | |
| DF8AY | 2026-09-03 14:06:11 | 52.68035 | 10.88327 | 94° | 66km/h | 1886m | -2.1m/s | 8.1°C | 100% | 813.7hPa | 2.8V | 06:55:48 | 03:46:49 | 00:00:00 | |
| DB0DAN | 2026-09-03 14:06:10 | 52.68036 | 10.88300 | 96° | 62km/h | 1888m | -2.1m/s | 8.1°C | 100% | 813.57hPa | 2.8V | 00:00:00 | 00:00:00 | 00:00:00 | |
| BIOWL1-15 | 2026-09-03 14:06:09 | 52.68038 | 10.88273 | 98° | 64km/h | 1890m | -1.9m/s | 8.1°C | 100% | 813.5hPa | 2.8V | 06:55:48 | 03:46:47 | 00:00:00 | |
| BIOWL1-15 | 2026-09-03 14:06:07 | 52.68043 | 10.88223 | 98° | 58km/h | 1893m | -1.8m/s | 8°C | 100% | 813.2hPa | 2.8V | 06:55:48 | 03:46:45 | 00:00:00 | |
| BIOWL1-15 | 2026-09-03 14:06:06 | 52.68045 | 10.88199 | 98° | 57km/h | 1895m | -1.8m/s | 8°C | 100% | 812.9hPa | 2.8V | 06:55:48 | 03:46:44 | 00:00:00 | |
| DF8AY | 2026-09-03 14:06:05 | 52.68047 | 10.88176 | 96° | 55km/h | 1897m | -2m/s | 8°C | 100% | 812.9hPa | 2.8V | 06:55:48 | 03:46:43 | 00:00:00 | |
| DF8AY | 2026-09-03 14:06:04 | 52.68048 | 10.88154 | 95° | 53km/h | 1899m | -1.9m/s | 8°C | 100% | 812.6hPa | 2.8V | 06:55:48 | 03:46:42 | 00:00:00 | |
| BIOWL1-15 | 2026-09-03 14:06:03 | 52.68049 | 10.88132 | 93° | 53km/h | 1901m | -2m/s | 8°C | 100% | 812.4hPa | 2.8V | 06:55:48 | 03:46:41 | 00:00:00 | |
| DF8AY | 2026-09-03 14:06:02 | 52.68049 | 10.88110 | 91° | 53km/h | 1903m | -1.9m/s | 8°C | 100% | 812.2hPa | 2.8V | 06:55:48 | 03:46:40 | 00:00:00 | |
| BIOWL1-15 | 2026-09-03 14:06:01 | 52.68049 | 10.88088 | 89° | 53km/h | 1905m | -2m/s | 8°C | 100% | 811.9hPa | 2.7V | 06:55:48 | 03:46:39 | 00:00:00 | |
| BIOWL1-15 | 2026-09-03 14:06:00 | 52.68049 | 10.88066 | 88° | 53km/h | 1907m | -1.9m/s | 8°C | 100% | 811.8hPa | 2.8V | 06:55:48 | 03:46:38 | 00:00:00 | |
| DF8AY | 2026-09-03 14:05:59 | 52.68048 | 10.88044 | 86° | 53km/h | 1909m | -1.9m/s | 8°C | 100% | 811.5hPa | 2.8V | 06:55:48 | 03:46:37 | 00:00:00 | |
| BIOWL1-15 | 2026-09-03 14:05:58 | 52.68047 | 10.88022 | 86° | 55km/h | 1911m | -2.2m/s | 8°C | 100% | 811.3hPa | 2.8V | 06:55:48 | 03:46:36 | 00:00:00 | |
| DF8AY | 2026-09-03 14:05:56 | 52.68045 | 10.87975 | 85° | 57km/h | 1915m | -2.1m/s | 8°C | 100% | 810.8hPa | 2.8V | 06:55:48 | 03:46:34 | 00:00:00 | |
| DB0DAN | 2026-09-03 14:05:55 | 52.68044 | 10.87951 | 85° | 57km/h | 1917m | -2.3m/s | 7.9°C | 100% | 810.73hPa | 2.8V | 00:00:00 | 00:00:00 | 00:00:00 | |
| BIOWL1-15 | 2026-09-03 14:05:55 | 52.68037 | 10.87849 | 85° | 64km/h | 1926m | -2.2m/s | 7.9°C | 100% | 809.8hPa | 2.8V | 06:55:48 | 03:46:29 | 00:00:00 | |
| DF8AY | 2026-09-03 14:05:54 | 52.68042 | 10.87926 | 84° | 60km/h | 1920m | -2.3m/s | 8°C | 100% | 810.5hPa | 2.8V | 06:55:48 | 03:46:32 | 00:00:00 | |
| DF8AY | 2026-09-03 14:05:53 | 52.68040 | 10.87901 | 84° | 62km/h | 1922m | -2.2m/s | 7.9°C | 100% | 810.3hPa | 2.8V | 06:55:48 | 03:46:31 | 00:00:00 | |
| DF8AY | 2026-09-03 14:05:52 | 52.68039 | 10.87875 | 84° | 64km/h | 1924m | -2.3m/s | 7.9°C | 100% | 809.9hPa | 2.8V | 06:55:48 | 03:46:30 | 00:00:00 | |
| DF8AY | 2026-09-03 14:05:50 | 52.68036 | 10.87822 | 85° | 66km/h | 1928m | -2m/s | 7.9°C | 100% | 809.6hPa | 2.8V | 06:55:48 | 03:46:28 | 00:00:00 | |
| DF8AY | 2026-09-03 14:05:48 | 52.68034 | 10.87767 | 87° | 68km/h | 1933m | -2.3m/s | 7.9°C | 100% | 809.2hPa | 2.7V | 06:55:48 | 03:46:26 | 00:00:00 | |
| DF8AY | 2026-09-03 14:05:47 | 52.68033 | 10.87739 | 88° | 68km/h | 1935m | -2.1m/s | 7.9°C | 100% | 809hPa | 2.8V | 06:55:48 | 03:46:25 | 00:00:00 | |
| DF8AY | 2026-09-03 14:05:46 | 52.68033 | 10.87711 | 90° | 68km/h | 1937m | -2m/s | 7.9°C | 100% | 808.7hPa | 2.8V | 06:55:48 | 03:46:24 | 00:00:00 | |
| BIOWL1-15 | 2026-09-03 14:05:45 | 52.68033 | 10.87683 | 92° | 69km/h | 1939m | -2m/s | 7.9°C | 100% | 808.6hPa | 2.8V | 06:55:48 | 03:46:23 | 00:00:00 | |
| BIOWL1-15 | 2026-09-03 14:05:45 | 52.68035 | 10.87626 | 95° | 66km/h | 1943m | -2m/s | 7.8°C | 100% | 808.2hPa | 2.8V | 06:55:48 | 03:46:21 | 00:00:00 | |
| DF8AY | 2026-09-03 14:05:44 | 52.68034 | 10.87654 | 93° | 68km/h | 1941m | -1.8m/s | 7.9°C | 100% | 808.5hPa | 2.8V | 06:55:48 | 03:46:22 | 00:00:00 | |
| DF8AY | 2026-09-03 14:05:42 | 52.68037 | 10.87599 | 96° | 64km/h | 1945m | -1.8m/s | 7.8°C | 100% | 808.1hPa | 2.8V | 06:55:48 | 03:46:20 | 00:00:00 | |
| BIOWL1-15 | 2026-09-03 14:05:41 | 52.68047 | 10.87431 | 90° | 53km/h | 1958m | -1.8m/s | 7.8°C | 100% | 806.7hPa | 2.7V | 06:55:48 | 03:46:13 | 00:00:00 | |
| DB0DAN | 2026-09-03 14:05:40 | 52.68040 | 10.87547 | 98° | 58km/h | 1949m | -1.7m/s | 7.8°C | 100% | 807.91hPa | 2.8V | 00:00:00 | 00:00:00 | 00:00:00 | |
| DF8AY | 2026-09-03 14:05:40 | 52.68040 | 10.87547 | 98° | 60km/h | 1949m | -1.7m/s | 7.8°C | 100% | 807.9hPa | 2.8V | 06:55:48 | 03:46:18 | 00:00:00 | |
| DL1XH-15 | 2026-09-03 14:05:39 | 52.68042 | 10.87523 | 97° | 58km/h | 1950m | -1.9m/s | 7.8°C | 0% | 807.6hPa | 2.8V | 06:55:37 | 03:46:17 | 00:00:00 | |
| DF8AY | 2026-09-03 14:05:38 | 52.68044 | 10.87499 | 97° | 57km/h | 1952m | -1.8m/s | 7.8°C | 100% | 807.4hPa | 2.8V | 06:55:48 | 03:46:16 | 00:00:00 | |
| DF8AY | 2026-09-03 14:05:36 | 52.68047 | 10.87453 | 93° | 55km/h | 1956m | -1.7m/s | 7.8°C | 100% | 807hPa | 2.8V | 06:55:48 | 03:46:14 | 00:00:00 | |
| DF8AY | 2026-09-03 14:05:34 | 52.68047 | 10.87408 | 88° | 55km/h | 1960m | -1.9m/s | 7.7°C | 100% | 806.5hPa | 2.8V | 06:55:48 | 03:46:12 | 00:00:00 | |
| BIOWL1-15 | 2026-09-03 14:05:33 | 52.68045 | 10.87362 | 85° | 57km/h | 1964m | -2m/s | 7.7°C | 100% | 806.3hPa | 2.8V | 06:55:48 | 03:46:10 | 00:00:00 | |
| DM0DOS-11 | 2026-09-03 14:05:33 | 52.68045 | 10.87362 | 84° | 57km/h | 1964m | -2m/s | 7.7°C | 0% | 806.3hPa | 2.8V | 06:55:44 | 03:46:10 | 00:00:00 | |
| DF8AY | 2026-09-03 14:05:33 | 52.68046 | 10.87385 | 86° | 55km/h | 1961m | -1.9m/s | 7.7°C | 100% | 806.4hPa | 2.8V | 06:55:48 | 03:46:11 | 00:00:00 | |
| DF8AY | 2026-09-03 14:05:31 | 52.68044 | 10.87338 | 84° | 58km/h | 1965m | -1.9m/s | 7.7°C | 100% | 806hPa | 2.8V | 06:55:48 | 03:46:09 | 00:00:00 | |
| BIOWL1-15 | 2026-09-03 14:05:29 | 52.68038 | 10.87263 | 83° | 62km/h | 1971m | -1.9m/s | 7.7°C | 100% | 805.6hPa | 2.8V | 06:55:48 | 03:46:06 | 00:00:00 | |
| DF8AY | 2026-09-03 14:05:29 | 52.68040 | 10.87288 | 83° | 62km/h | 1969m | -1.9m/s | 7.7°C | 100% | 805.6hPa | 2.8V | 06:55:48 | 03:46:07 | 00:00:00 | |
| DF7ER-10 | 2026-09-03 14:05:28 | 52.68040 | 10.87288 | 84° | 62km/h | 1969m | -1.9m/s | 7.7°C | 101.3% | 805.6hPa | 2.8V | 06:55:00 | 00:00:00 | 00:00:00 | |
| DM0DOS-11 | 2026-09-03 14:05:27 | 52.68034 | 10.87210 | 82° | 64km/h | 1975m | -1.8m/s | 7.7°C | 0% | 805.2hPa | 2.8V | 06:55:50 | 03:46:04 | 00:00:00 | |
| DM0DOS-11 | 2026-09-03 14:05:27 | 52.68031 | 10.87155 | 84° | 66km/h | 1979m | -1.9m/s | 7.7°C | 0% | 804.7hPa | 2.8V | 06:55:52 | 03:46:02 | 00:00:00 | |
| DM0DOS-11 | 2026-09-03 14:05:27 | 52.68027 | 10.87100 | 85° | 68km/h | 1982m | -1.7m/s | 7.7°C | 0% | 804.4hPa | 2.7V | 06:55:54 | 03:46:00 | 00:00:00 | |
| DF8AY | 2026-09-03 14:05:27 | 52.68036 | 10.87236 | 83° | 64km/h | 1973m | -2m/s | 7.7°C | 100% | 805.2hPa | 2.8V | 06:56:39 | 03:46:05 | 00:00:00 | |
| BIOWL1-15 | 2026-09-03 14:05:25 | 52.68032 | 10.87183 | 84° | 66km/h | 1977m | -2.2m/s | 7.7°C | 100% | 804.9hPa | 2.8V | 06:56:39 | 03:46:03 | 00:00:00 | |
| DB0DAN | 2026-09-03 14:05:25 | 52.68032 | 10.87183 | 83° | 62km/h | 1977m | -2.2m/s | 7.7°C | 100% | 804.87hPa | 2.8V | 00:00:00 | 00:00:00 | 00:00:00 | |
| DF8AY | 2026-09-03 14:05:24 | 52.68030 | 10.87155 | 84° | 66km/h | 1979m | -1.9m/s | 7.7°C | 100% | 804.7hPa | 2.8V | 06:56:39 | 03:46:02 | 00:00:00 | |
| BIOWL1-15 | 2026-09-03 14:05:22 | 52.68027 | 10.87100 | 86° | 68km/h | 1982m | -1.7m/s | 7.7°C | 100% | 804.4hPa | 2.7V | 06:56:39 | 03:46:00 | 00:00:00 | |
| BIOWL1-15 | 2026-09-03 14:05:21 | 52.68026 | 10.87072 | 87° | 68km/h | 1984m | -1.9m/s | 7.7°C | 100% | 804.2hPa | 2.8V | 06:56:39 | 03:45:59 | 00:00:00 | |
| DF8AY | 2026-09-03 14:05:20 | 52.68026 | 10.87044 | 88° | 68km/h | 1986m | -1.5m/s | 7.6°C | 100% | 804.1hPa | 2.8V | 06:56:39 | 03:45:58 | 00:00:00 | |
| DM0DOS-11 | 2026-09-03 14:05:20 | 52.68029 | 10.86905 | 96° | 64km/h | 1994m | -1.6m/s | 7.6°C | 0% | 803.3hPa | 2.8V | 06:56:01 | 03:45:53 | 00:00:00 | |
| DF8AY | 2026-09-03 14:05:20 | 52.68025 | 10.87015 | 90° | 68km/h | 1988m | -1.7m/s | 7.7°C | 100% | 804hPa | 2.8V | 06:56:39 | 03:45:57 | 00:00:00 | |
| AA1-15 | 2026-09-03 14:05:18 | 52.68026 | 10.86987 | 92° | 68km/h | 1989m | -1.7m/s | 7.6°C | 100% | 803.7hPa | 2.8V | 06:56:39 | 03:45:56 | 00:00:00 | |
| BIOWL1-15 | 2026-09-03 14:05:17 | 52.68026 | 10.86959 | 94° | 68km/h | 1991m | -1.7m/s | 7.6°C | 100% | 803.6hPa | 2.8V | 06:56:39 | 03:45:55 | 00:00:00 | |
| BIOWL1-15 | 2026-09-03 14:05:15 | 52.68029 | 10.86905 | 96° | 64km/h | 1994m | -1.6m/s | 7.6°C | 100% | 803.3hPa | 2.8V | 06:56:39 | 03:45:53 | 00:00:00 | |
| DF8AY | 2026-09-03 14:05:14 | 52.68031 | 10.86879 | 97° | 62km/h | 1996m | -1.7m/s | 7.6°C | 100% | 803hPa | 2.8V | 06:56:39 | 03:45:52 | 00:00:00 | |
| AA1-15 | 2026-09-03 14:05:13 | 52.68033 | 10.86853 | 97° | 60km/h | 1998m | -1.8m/s | 7.6°C | 100% | 802.8hPa | 2.8V | 06:56:39 | 03:45:51 | 00:00:00 | |
| DM0DOS-11 | 2026-09-03 14:05:12 | 52.68040 | 10.86712 | 91° | 55km/h | 2008m | -1.7m/s | 7.5°C | 0% | 801.8hPa | 2.8V | 06:56:09 | 03:45:45 | 00:00:00 | |
| AA1-15 | 2026-09-03 14:05:12 | 52.68035 | 10.86828 | 97° | 58km/h | 1999m | -1.7m/s | 7.6°C | 100% | 802.7hPa | 2.8V | 06:56:39 | 03:45:50 | 00:00:00 | |
| AA1-15 | 2026-09-03 14:05:11 | 52.68036 | 10.86804 | 96° | 58km/h | 2001m | -1.6m/s | 7.6°C | 100% | 802.6hPa | 2.8V | 06:56:39 | 03:45:49 | 00:00:00 | |
| DB0DAN | 2026-09-03 14:05:10 | 52.68038 | 10.86780 | 96° | 53km/h | 2003m | -1.8m/s | 7.6°C | 100% | 802.39hPa | 2.8V | 00:00:00 | 00:00:00 | 00:00:00 | |
| DF8AY | 2026-09-03 14:05:07 | 52.68041 | 10.86711 | 92° | 55km/h | 2008m | -1.7m/s | 7.6°C | 100% | 801.8hPa | 2.8V | 06:56:39 | 03:45:45 | 00:00:00 | |
| BIOWL1-15 | 2026-09-03 14:05:05 | 52.68041 | 10.86667 | 89° | 53km/h | 2012m | -1.6m/s | 7.5°C | 100% | 801.5hPa | 2.8V | 06:56:39 | 03:45:43 | 00:00:00 | |
| DM0DOS-11 | 2026-09-03 14:05:04 | 52.68033 | 10.86528 | 81° | 58km/h | 2021m | -1.7m/s | 7.5°C | 0% | 800.7hPa | 2.8V | 06:56:17 | 03:45:37 | 00:00:00 | |
| AA1-15 | 2026-09-03 14:05:00 | 52.68035 | 10.86552 | 83° | 57km/h | 2020m | -1.9m/s | 7.5°C | 100% | 800.7hPa | 2.8V | 06:56:39 | 03:45:38 | 00:00:00 | |
| DF8AY | 2026-09-03 14:04:56 | 52.68026 | 10.86452 | 81° | 64km/h | 2027m | -1.6m/s | 7.5°C | 100% | 800.2hPa | 2.7V | 06:56:39 | 03:45:34 | 00:00:00 | |
| BIOWL1-15 | 2026-09-03 14:04:56 | 52.68022 | 10.86398 | 83° | 68km/h | 2030m | -1.6m/s | 7.4°C | 100% | 799.6hPa | 2.8V | 06:56:39 | 03:45:32 | 00:00:00 | |
| DB0DAN | 2026-09-03 14:04:55 | 52.68024 | 10.86426 | 82° | 62km/h | 2028m | -1.8m/s | 7.4°C | 100% | 800.01hPa | 2.8V | 00:00:00 | 00:00:00 | 00:00:00 | |
| DM0DOS-11 | 2026-09-03 14:04:54 | 52.68022 | 10.86398 | 82° | 68km/h | 2030m | -1.6m/s | 7.4°C | 0% | 799.6hPa | 2.8V | 06:56:22 | 03:45:32 | 00:00:00 | |
| DM0DOS-11 | 2026-09-03 14:04:54 | 52.68014 | 10.86254 | 88° | 69km/h | 2040m | -2.5m/s | 7.4°C | 0% | 798.7hPa | 2.8V | 06:56:27 | 03:45:27 | 00:00:00 | |
| AA1-15 | 2026-09-03 14:04:49 | 52.68014 | 10.86254 | 88° | 69km/h | 2040m | -2.5m/s | 7.4°C | 100% | 798.7hPa | 2.8V | 06:56:39 | 03:45:27 | 00:00:00 | |
| DF8AY | 2026-09-03 14:04:46 | 52.68015 | 10.86167 | 93° | 68km/h | 2047m | -2m/s | 7.4°C | 100% | 798hPa | 2.8V | 06:56:39 | 03:45:24 | 00:00:00 | |
| DM0DOS-11 | 2026-09-03 14:04:44 | 52.68019 | 10.85990 | 84° | 58km/h | 2059m | -1.6m/s | 7.3°C | 0% | 796.9hPa | 2.8V | 06:56:37 | 03:45:17 | 00:00:00 | |
| BIOWL1-15 | 2026-09-03 14:04:42 | 52.68020 | 10.86062 | 93° | 58km/h | 2055m | -1.8m/s | 7.3°C | 100% | 797.4hPa | 2.8V | 06:56:39 | 03:45:20 | 00:00:00 | |
| DB0DAN | 2026-09-03 14:04:40 | 52.68020 | 10.86014 | 88° | 55km/h | 2058m | -1.5m/s | 7.3°C | 100% | 797.17hPa | 2.8V | 00:00:00 | 00:00:00 | 00:00:00 | |
| AA1-15 | 2026-09-03 14:04:39 | 52.68019 | 10.85990 | 85° | 58km/h | 2059m | -1.6m/s | 7.3°C | 100% | 796.9hPa | 2.8V | 06:56:39 | 03:45:17 | 00:00:00 | |
| DF8AY | 2026-09-03 14:04:35 | 52.68011 | 10.85889 | 81° | 64km/h | 2065m | -1.5m/s | 7.2°C | 100% | 796.3hPa | 2.8V | 06:57:30 | 03:45:13 | 00:00:00 | |
| DM0DOS-11 | 2026-09-03 14:04:34 | 52.68008 | 10.85863 | 81° | 64km/h | 2067m | -1.5m/s | 7.2°C | 0% | 796.2hPa | 2.8V | 06:56:42 | 03:45:12 | 00:00:00 | |
| DM0DOS-11 | 2026-09-03 14:04:34 | 52.67996 | 10.85726 | 81° | 69km/h | 2074m | -1.5m/s | 7°C | 0% | 795.5hPa | 2.8V | 06:56:47 | 03:45:07 | 00:00:00 | |
| BIOWL1-15 | 2026-09-03 14:04:30 | 52.67998 | 10.85754 | 81° | 68km/h | 2073m | -1.4m/s | 7.1°C | 100% | 795.5hPa | 2.8V | 06:57:30 | 03:45:08 | 00:00:00 | |
| AA1-15 | 2026-09-03 14:04:28 | 52.67993 | 10.85697 | 82° | 69km/h | 2076m | -1.5m/s | 7°C | 100% | 795.3hPa | 2.8V | 06:59:12 | 03:45:06 | 00:00:00 | |
| DF8AY | 2026-09-03 14:04:25 | 52.67987 | 10.85609 | 85° | 71km/h | 2080m | -0.9m/s | 7°C | 100% | 795hPa | 2.8V | 06:57:30 | 03:45:03 | 00:00:00 | |
| DB0DAN | 2026-09-03 14:04:25 | 52.67987 | 10.85609 | 85° | 69km/h | 2080m | -0.9m/s | 7°C | 100% | 795.01hPa | 2.8V | 00:00:00 | 00:00:00 | 00:00:00 | |
| DM0DOS-11 | 2026-09-03 14:04:24 | 52.67986 | 10.85579 | 86° | 71km/h | 2081m | -1.4m/s | 7.1°C | 0% | 794.9hPa | 2.8V | 06:56:52 | 03:45:02 | 00:00:00 | |
| DM0DOS-11 | 2026-09-03 14:04:24 | 52.67985 | 10.85433 | 92° | 68km/h | 2090m | -1.6m/s | 7.1°C | 0% | 794hPa | 2.8V | 06:56:57 | 03:44:57 | 00:00:00 | |
| BIOWL1-15 | 2026-09-03 14:04:22 | 52.67984 | 10.85462 | 92° | 68km/h | 2088m | -1.9m/s | 7.1°C | 100% | 794.2hPa | 2.7V | 06:57:30 | 03:44:58 | 00:00:00 | |
| AA1-15 | 2026-09-03 14:04:16 | 52.67987 | 10.85352 | 93° | 62km/h | 2095m | -1.5m/s | 7.1°C | 100% | 793.6hPa | 2.8V | 06:59:12 | 03:44:54 | 00:00:00 | |
| DF7ER-10 | 2026-09-03 14:04:15 | 52.67987 | 10.85352 | 94° | 62km/h | 2095m | -1.5m/s | 7.1°C | 102.7% | 793.7hPa | 2.8V | 06:57:00 | 00:00:00 | 00:00:00 | |
| DM0DOS-11 | 2026-09-03 14:04:14 | 52.67988 | 10.85302 | 91° | 58km/h | 2098m | -1.7m/s | 7.1°C | 0% | 793.1hPa | 2.8V | 06:57:02 | 03:44:52 | 00:00:00 | |
| DF8AY | 2026-09-03 14:04:14 | 52.67988 | 10.85302 | 91° | 58km/h | 2098m | -1.7m/s | 7.1°C | 100% | 793.1hPa | 2.8V | 06:57:30 | 03:44:52 | 00:00:00 | |
| DB0DAN | 2026-09-03 14:04:10 | 52.67987 | 10.85206 | 86° | 55km/h | 2104m | -1.6m/s | 7.1°C | 100% | 792.55hPa | 2.8V | 00:00:00 | 00:00:00 | 00:00:00 | |
| BIOWL1-15 | 2026-09-03 14:04:09 | 52.67986 | 10.85182 | 85° | 58km/h | 2106m | -1.7m/s | 7.1°C | 100% | 792.5hPa | 2.8V | 06:57:30 | 03:44:47 | 00:00:00 | |
| AA1-15 | 2026-09-03 14:04:06 | 52.67980 | 10.85108 | 81° | 64km/h | 2111m | -1.5m/s | 7°C | 100% | 792hPa | 2.8V | 06:59:12 | 03:44:44 | 00:00:00 | |
| DF8AY | 2026-09-03 14:04:04 | 52.67975 | 10.85052 | 83° | 69km/h | 2114m | -1.6m/s | 7°C | 100% | 791.7hPa | 2.8V | 06:57:30 | 03:44:42 | 00:00:00 | |
| BIOWL1-15 | 2026-09-03 14:03:59 | 52.67971 | 10.84903 | 90° | 71km/h | 2123m | -1.8m/s | 6.8°C | 100% | 790.9hPa | 2.8V | 06:57:30 | 03:44:37 | 00:00:00 | |
| DF8AY-15 | 2026-09-03 14:03:58 | 52.67971 | 10.84873 | 92° | 62km/h | 2125m | -1.8m/s | 6.9°C | 0% | 790.5hPa | 2.8V | 00:00:00 | 03:44:36 | 00:00:00 | |
| DB0DAN | 2026-09-03 14:03:55 | 52.67972 | 10.84787 | 92° | 64km/h | 2130m | -1.3m/s | 6.8°C | 99.1% | 790.15hPa | 2.8V | 00:00:00 | 00:00:00 | 00:00:00 | |
| DM0DOS-11 | 2026-09-03 14:03:55 | 52.67973 | 10.84759 | 92° | 66km/h | 2132m | -1.4m/s | 6.7°C | 0% | 790hPa | 2.8V | 06:57:22 | 03:44:32 | 00:00:00 | |
| DM0DOS-11 | 2026-09-03 14:03:55 | 52.67975 | 10.84630 | 88° | 58km/h | 2138m | -1.5m/s | 6.8°C | 0% | 789.5hPa | 2.8V | 06:57:27 | 03:44:27 | 00:00:00 | |
| DF8AY | 2026-09-03 14:03:53 | 52.67973 | 10.84732 | 93° | 64km/h | 2133m | -1.2m/s | 6.7°C | 100% | 789.9hPa | 2.8V | 06:57:30 | 03:44:31 | 00:00:00 | |
| BIOWL1-15 | 2026-09-03 14:03:48 | 52.67974 | 10.84606 | 86° | 58km/h | 2139m | -1.2m/s | 6.7°C | 100% | 789.2hPa | 2.8V | 06:57:30 | 03:44:26 | 00:00:00 | |
| DM0DOS-11 | 2026-09-03 14:03:44 | 52.67954 | 10.84384 | 79° | 66km/h | 2154m | -1.8m/s | 6.7°C | 0% | 787.8hPa | 2.8V | 06:57:37 | 03:44:17 | 00:00:00 | |
| DF8AY | 2026-09-03 14:03:43 | 52.67965 | 10.84485 | 81° | 58km/h | 2147m | -1.7m/s | 6.7°C | 100% | 788.4hPa | 2.8V | 06:58:21 | 03:44:21 | 00:00:00 | |
| AA1-15 | 2026-09-03 14:03:40 | 52.67957 | 10.84410 | 80° | 64km/h | 2152m | -1.7m/s | 6.7°C | 100% | 788hPa | 2.8V | 06:59:12 | 03:44:18 | 00:00:00 | |
| DB0DAN | 2026-09-03 14:03:40 | 52.67957 | 10.84410 | 80° | 60km/h | 2152m | -1.7m/s | 6.7°C | 100% | 788.05hPa | 2.8V | 00:00:00 | 00:00:00 | 00:00:00 | |
| BIOWL1-15 | 2026-09-03 14:03:39 | 52.67949 | 10.84330 | 80° | 68km/h | 2158m | -1.8m/s | 6.6°C | 100% | 787.4hPa | 2.8V | 06:58:21 | 03:44:15 | 00:00:00 | |
| DF8AY-15 | 2026-09-03 14:03:38 | 52.67951 | 10.84357 | 80° | 69km/h | 2156m | -1.6m/s | 6.6°C | 0% | 787.6hPa | 2.7V | 00:00:00 | 03:44:16 | 00:00:00 | |
| D01LWL | 2026-09-03 14:03:36 | 52.67946 | 10.84301 | 80° | 68km/h | 2160m | -2.0m/s | 6.6°C | 100.0% | 787.3hPa | 2.8V | 00:00:00 | 00:00:00 | 00:00:00 | |
| DM0DOS-11 | 2026-09-03 14:03:35 | 52.67940 | 10.84244 | 81° | 71km/h | 2163m | -2m/s | 6.5°C | 0% | 787hPa | 2.8V | 06:57:42 | 03:44:12 | 00:00:00 | |
| DM0DOS-11 | 2026-09-03 14:03:35 | 52.67930 | 10.84094 | 86° | 73km/h | 2174m | -2.2m/s | 6.5°C | 0% | 786hPa | 2.8V | 06:57:47 | 03:44:07 | 00:00:00 | |
| DL1XH-15 | 2026-09-03 14:03:33 | 52.67929 | 10.84063 | 86° | 73km/h | 2176m | -2.2m/s | 6.5°C | 0% | 785.8hPa | 2.8V | 06:57:48 | 03:44:06 | 00:00:00 | |
| DF8AY | 2026-09-03 14:03:32 | 52.67935 | 10.84185 | 83° | 73km/h | 2167m | -1.7m/s | 6.5°C | 100% | 786.6hPa | 2.8V | 06:58:21 | 03:44:10 | 00:00:00 | |
| DL1XH-west | 2026-09-03 14:03:28 | 52.67929 | 10.84063 | 87° | 73km/h | 2176m | -2.2m/s | 6.5°C | 100% | 785.8hPa | 2.8V | 06:59:12 | 03:44:06 | 00:00:00 | |
| DL1XH-15 | 2026-09-03 14:03:27 | 52.67930 | 10.83885 | 92° | 66km/h | 2187m | -1.8m/s | 6.5°C | 0% | 784.9hPa | 2.7V | 06:57:54 | 03:44:00 | 00:00:00 | |
| BIOWL1-15 | 2026-09-03 14:03:27 | 52.67928 | 10.84033 | 88° | 73km/h | 2178m | -2m/s | 6.5°C | 100% | 785.5hPa | 2.8V | 06:58:21 | 03:44:05 | 00:00:00 | |
| DB0DAN | 2026-09-03 14:03:25 | 52.67928 | 10.83972 | 91° | 69km/h | 2182m | -1.7m/s | 6.5°C | 99.3% | 785.2hPa | 2.8V | 00:00:00 | 00:00:00 | 00:00:00 | |
| DM0DOS-11 | 2026-09-03 14:03:25 | 52.67928 | 10.83942 | 91° | 71km/h | 2183m | -1.6m/s | 6.5°C | 0% | 784.9hPa | 2.8V | 06:57:52 | 03:44:02 | 00:00:00 | |
| DM0DOS-11 | 2026-09-03 14:03:25 | 52.67932 | 10.83806 | 90° | 62km/h | 2192m | -2m/s | 6.4°C | 0% | 784hPa | 2.8V | 06:57:57 | 03:43:57 | 00:00:00 | |
| DF8AY | 2026-09-03 14:03:22 | 52.67930 | 10.83885 | 93° | 66km/h | 2187m | -1.8m/s | 6.5°C | 100% | 784.9hPa | 2.7V | 06:58:21 | 03:44:00 | 00:00:00 | |
| AA1-15 | 2026-09-03 14:03:20 | 52.67931 | 10.83832 | 92° | 62km/h | 2191m | -1.7m/s | 6.4°C | 100% | 784.4hPa | 2.8V | 06:59:12 | 03:43:58 | 00:00:00 | |
| BIOWL1-15 | 2026-09-03 14:03:17 | 52.67931 | 10.83756 | 88° | 60km/h | 2196m | -1.9m/s | 6.5°C | 100% | 783.7hPa | 2.8V | 06:58:21 | 03:43:55 | 00:00:00 | |
| DF8AY | 2026-09-03 14:03:16 | 52.67920 | 10.83607 | 80° | 64km/h | 2208m | -1.7m/s | 6.4°C | 100% | 782.6hPa | 2.7V | 06:58:21 | 03:43:49 | 00:00:00 | |
| DM0DOS-11 | 2026-09-03 14:03:14 | 52.67928 | 10.83683 | 82° | 60km/h | 2202m | -2m/s | 6.5°C | 0% | 783.2hPa | 2.8V | 06:58:02 | 03:43:52 | 00:00:00 | |
| DM0DOS-11 | 2026-09-03 14:03:14 | 52.67914 | 10.83553 | 79° | 68km/h | 2211m | -1.8m/s | 6.4°C | 0% | 782.3hPa | 2.8V | 06:58:07 | 03:43:47 | 00:00:00 | |
| DL1XH-west | 2026-09-03 14:03:14 | 52.67928 | 10.83683 | 83° | 60km/h | 2202m | -2m/s | 6.5°C | 100% | 783.2hPa | 2.8V | 06:59:12 | 03:43:52 | 00:00:00 | |
| AA1-15 | 2026-09-03 14:03:10 | 52.67917 | 10.83580 | 80° | 66km/h | 2210m | -1.8m/s | 6.4°C | 100% | 782.4hPa | 2.8V | 06:59:12 | 03:43:48 | 00:00:00 | |
| DB0DAN | 2026-09-03 14:03:10 | 52.67917 | 10.83580 | 80° | 62km/h | 2210m | -1.8m/s | 6.4°C | 99.5% | 782.37hPa | 2.8V | 00:00:00 | 00:00:00 | 00:00:00 | |
| BIOWL1-15 | 2026-09-03 14:03:07 | 52.67908 | 10.83496 | 81° | 71km/h | 2215m | -1.7m/s | 6.3°C | 100% | 781.9hPa | 2.8V | 06:58:21 | 03:43:45 | 00:00:00 | |
| DM0DOS-11 | 2026-09-03 14:03:04 | 52.67902 | 10.83407 | 86° | 73km/h | 2220m | -1.7m/s | 6.4°C | 0% | 781.5hPa | 2.8V | 06:58:12 | 03:43:42 | 00:00:00 | |
| DM0DOS-11 | 2026-09-03 14:03:04 | 52.67902 | 10.83256 | 92° | 71km/h | 2230m | -2m/s | 6.4°C | 0% | 780.5hPa | 2.8V | 06:58:17 | 03:43:37 | 00:00:00 | |
| DL1XH-15 | 2026-09-03 14:03:02 | 52.67904 | 10.83198 | 94° | 69km/h | 2234m | -1.9m/s | 6.3°C | 99.2% | 780.2hPa | 2.8V | 06:58:19 | 03:43:35 | 00:00:00 | |
| DF8AY | 2026-09-03 14:03:01 | 52.67901 | 10.83315 | 91° | 73km/h | 2226m | -1.9m/s | 6.4°C | 100% | 781hPa | 2.8V | 06:58:21 | 03:43:39 | 00:00:00 | |
| DM0DOS-11 | 2026-09-03 14:02:59 | 52.67908 | 10.83114 | 94° | 66km/h | 2240m | -2.1m/s | 6.2°C | 98% | 779.7hPa | 2.8V | 06:58:22 | 03:43:32 | 00:00:00 | |
| BIOWL1-15 | 2026-09-03 14:02:58 | 52.67905 | 10.83169 | 94° | 68km/h | 2235m | -2m/s | 6.3°C | 96.9% | 779.9hPa | 2.8V | 06:58:21 | 03:43:34 | 00:00:00 | |
| DF8AY-15 | 2026-09-03 14:02:58 | 52.67903 | 10.83226 | 94° | 64km/h | 2232m | -1.9m/s | 6.3°C | 99.7% | 780.4hPa | 2.8V | 00:00:00 | 03:43:36 | 00:00:00 | |
| DB0DAN | 2026-09-03 14:02:55 | 52.67906 | 10.83141 | 94° | 64km/h | 2238m | -2.2m/s | 6.3°C | 97% | 779.78hPa | 2.8V | 00:00:00 | 00:00:00 | 00:00:00 | |
| DM0DOS-11 | 2026-09-03 14:02:54 | 52.67912 | 10.82985 | 90° | 60km/h | 2249m | -1.8m/s | 6.4°C | 94.4% | 778.7hPa | 2.7V | 06:58:27 | 03:43:27 | 00:00:00 | |
| DF8AY | 2026-09-03 14:02:51 | 52.67911 | 10.83035 | 93° | 62km/h | 2245m | -1.9m/s | 6.4°C | 93.2% | 779.1hPa | 2.8V | 06:59:12 | 03:43:29 | 00:00:00 | |
| DF7ER-10 | 2026-09-03 14:02:50 | 52.67911 | 10.83035 | 94° | 62km/h | 2246m | -1.9m/s | 6.4°C | 94.5% | 779.1hPa | 2.8V | 06:59:00 | 00:00:00 | 00:00:00 | |
| DL1XH-15 | 2026-09-03 14:02:47 | 52.67911 | 10.82936 | 86° | 58km/h | 2253m | -1.9m/s | 6.8°C | 83.8% | 778.2hPa | 2.8V | 06:58:29 | 03:43:25 | 00:00:00 | |
| AA1-15 | 2026-09-03 14:02:47 | 52.67911 | 10.82936 | 87° | 58km/h | 2253m | -1.9m/s | 6.8°C | 82.1% | 778.2hPa | 2.8V | 06:59:12 | 03:43:25 | 00:00:00 | |
| BIOWL1-15 | 2026-09-03 14:02:45 | 52.67908 | 10.82887 | 83° | 60km/h | 2257m | -2m/s | 7°C | 79% | 778hPa | 2.8V | 06:59:12 | 03:43:23 | 00:00:00 | |
| DM0DOS-11 | 2026-09-03 14:02:44 | 52.67906 | 10.82862 | 81° | 60km/h | 2259m | -2m/s | 7.1°C | 73.8% | 777.7hPa | 2.8V | 06:58:32 | 03:43:22 | 00:00:00 | |
| DM0DOS-11 | 2026-09-03 14:02:44 | 52.67892 | 10.82729 | 80° | 69km/h | 2269m | -2.1m/s | 7.2°C | 66.7% | 776.8hPa | 2.7V | 06:58:37 | 03:43:17 | 00:00:00 | |
| SMARD9-10 | 2026-09-03 14:02:41 | 52.67901 | 10.82811 | 81° | 64km/h | 2263m | -2.1m/s | 7.2°C | 66.3% | 777.4hPa | 2.8V | 00:00:00 | 00:00:00 | 00:00:00 | |
| DB0DAN | 2026-09-03 14:02:40 | 52.67895 | 10.82757 | 80° | 64km/h | 2267m | -2.2m/s | 7.2°C | 66% | 777.1hPa | 2.8V | 00:00:00 | 00:00:00 | 00:00:00 | |
| DF8AY | 2026-09-03 14:02:40 | 52.67895 | 10.82757 | 80° | 68km/h | 2267m | -2.2m/s | 7.2°C | 70.6% | 777.1hPa | 2.8V | 06:59:12 | 03:43:18 | 00:00:00 | |
| DF7ER-10 | 2026-09-03 14:02:39 | 52.67895 | 10.82757 | 81° | 68km/h | 2267m | -2.2m/s | 7.2°C | 66.1% | 777.1hPa | 2.7V | 06:59:00 | 00:00:00 | 00:00:00 | |
| DF8AY-15 | 2026-09-03 14:02:38 | 52.67890 | 10.82700 | 82° | 66km/h | 2271m | -2.1m/s | 7.1°C | 66.3% | 776.5hPa | 2.7V | 00:00:00 | 03:43:16 | 00:00:00 | |
| DL1XH-15 | 2026-09-03 14:02:37 | 52.67884 | 10.82521 | 91° | 71km/h | 2284m | -1.9m/s | 7.5°C | 52.4% | 775.4hPa | 2.8V | 06:58:44 | 03:43:10 | 00:00:00 | |
| AA1-15 | 2026-09-03 14:02:36 | 52.67886 | 10.82641 | 85° | 73km/h | 2276m | -2.1m/s | 7.3°C | 67% | 776.2hPa | 2.8V | 06:59:12 | 03:43:14 | 00:00:00 | |
| DL1XH-west | 2026-09-03 14:02:34 | 52.67883 | 10.82580 | 89° | 73km/h | 2280m | -2m/s | 7.3°C | 62.5% | 775.9hPa | 2.8V | 06:59:12 | 03:43:12 | 00:00:00 | |
| DL1XH1-15 | 2026-09-03 14:02:32 | 52.67889 | 10.82381 | 95° | 64km/h | 2294m | -2.2m/s | 7.4°C | 51.5% | 774.4hPa | 2.8V | 06:58:49 | 03:43:05 | 00:00:00 | |
| DF8AY | 2026-09-03 14:02:29 | 52.67887 | 10.82435 | 94° | 68km/h | 2290m | -2.1m/s | 7.5°C | 55% | 774.8hPa | 2.8V | 06:59:12 | 03:43:07 | 00:00:00 | |
| DF7ER-10 | 2026-09-03 14:02:28 | 52.67887 | 10.82435 | 95° | 68km/h | 2290m | -2.1m/s | 7.5°C | 50.2% | 774.8hPa | 2.8V | 06:59:00 | 00:00:00 | 00:00:00 | |
| DL1XH1-15 | 2026-09-03 14:02:27 | 52.67896 | 10.82253 | 92° | 58km/h | 2306m | -2.3m/s | 7.3°C | 51.9% | 773.3hPa | 2.8V | 06:58:54 | 03:43:00 | 00:00:00 | |
| AA1-15 | 2026-09-03 14:02:26 | 52.67891 | 10.82354 | 96° | 64km/h | 2296m | -2.2m/s | 7.4°C | 55.1% | 774.2hPa | 2.8V | 06:59:12 | 03:43:04 | 00:00:00 | |
| DB0DAN | 2026-09-03 14:02:25 | 52.67892 | 10.82328 | 95° | 60km/h | 2299m | -2.3m/s | 7.4°C | 50.7% | 773.98hPa | 2.8V | 00:00:00 | 00:00:00 | 00:00:00 | |
| DL1XH-west | 2026-09-03 14:02:24 | 52.67894 | 10.82302 | 95° | 60km/h | 2301m | -2.3m/s | 7.4°C | 55.4% | 773.8hPa | 2.8V | 06:59:12 | 03:43:02 | 00:00:00 | |
| DL1XH1-15 | 2026-09-03 14:02:22 | 52.67893 | 10.82132 | 83° | 60km/h | 2316m | -2.2m/s | 7.3°C | 52.1% | 772.3hPa | 2.8V | 06:58:59 | 03:42:55 | 00:00:00 | |
| BIOWL1-15 | 2026-09-03 14:02:21 | 52.67896 | 10.82228 | 91° | 58km/h | 2308m | -2.2m/s | 7.4°C | 55.6% | 773.1hPa | 2.8V | 06:59:12 | 03:42:59 | 00:00:00 | |
| DM0DOS-11 | 2026-09-03 14:02:19 | 52.67886 | 10.82054 | 81° | 66km/h | 2323m | -2.1m/s | 7.2°C | 52.6% | 771.9hPa | 2.8V | 06:59:02 | 03:42:52 | 00:00:00 | |
| DF8AY | 2026-09-03 14:02:18 | 52.67894 | 10.82156 | 85° | 58km/h | 2314m | -2.1m/s | 7.4°C | 55.7% | 772.5hPa | 2.7V | 06:59:12 | 03:42:56 | 00:00:00 | |
| DF8AY-15 | 2026-09-03 14:02:18 | 52.67894 | 10.82156 | 85° | 69km/h | 2314m | -2.0m/s | 7.4°C | 52.6% | 772.4hPa | 2.8V | 00:00:00 | 03:42:56 | 00:00:00 | |
| DL1XH1-15 | 2026-09-03 14:02:17 | 52.67881 | 10.81997 | 83° | 71km/h | 2327m | -2.2m/s | 7.2°C | 51.4% | 771.4hPa | 2.8V | 06:59:04 | 03:42:50 | 00:00:00 | |
| AA1-15 | 2026-09-03 14:02:15 | 52.67889 | 10.82081 | 82° | 64km/h | 2321m | -2.3m/s | 7.3°C | 56.4% | 771.9hPa | 2.8V | 06:59:12 | 03:42:53 | 00:00:00 | |
| DM0DOS-11 | 2026-09-03 14:02:14 | 52.67876 | 10.81907 | 86° | 73km/h | 2334m | -2.3m/s | 7.2°C | 51.8% | 770.7hPa | 2.8V | 06:59:07 | 03:42:47 | 00:00:00 | |
| DL1XH-west | 2026-09-03 14:02:13 | 52.67884 | 10.82026 | 82° | 69km/h | 2325m | -2.2m/s | 7.2°C | 55.3% | 771.5hPa | 2.8V | 06:59:12 | 03:42:51 | 00:00:00 | |
| DL1XH1-15 | 2026-09-03 14:02:12 | 52.67875 | 10.81846 | 88° | 73km/h | 2339m | -2.3m/s | 7.2°C | 51.2% | 770.3hPa | 2.8V | 06:59:09 | 03:42:45 | 00:00:00 | |
| BIOWL1-15 | 2026-09-03 14:02:10 | 52.67878 | 10.81938 | 85° | 73km/h | 2332m | -2.3m/s | 7.2°C | 54.4% | 770.9hPa | 2.8V | 06:59:12 | 03:42:48 | 00:00:00 | |
| DB0DAN | 2026-09-03 14:02:10 | 52.67878 | 10.81938 | 85° | 69km/h | 2332m | -2.3m/s | 7.2°C | 50.5% | 770.88hPa | 2.8V | 00:00:00 | 00:00:00 | 00:00:00 | |
| DM0DOS-11 | 2026-09-03 14:02:09 | 52.67875 | 10.81724 | 91° | 71km/h | 2348m | -2.3m/s | 7.1°C | 48.1% | 769.5hPa | 2.8V | 06:59:13 | 03:42:41 | 00:00:00 | |
| DF8AY | 2026-09-03 14:02:08 | 52.67876 | 10.81877 | 87° | 73km/h | 2336m | -2.4m/s | 7.2°C | 55.2% | 770.5hPa | 2.7V | 06:59:12 | 03:42:46 | 00:00:00 | |
| AA1-15 | 2026-09-03 14:02:05 | 52.67874 | 10.81785 | 90° | 73km/h | 2343m | -2.2m/s | 7.2°C | 54% | 769.9hPa | 2.8V | 06:59:12 | 03:42:43 | 00:00:00 | |
| DL1XH-west | 2026-09-03 14:02:03 | 52.67875 | 10.81724 | 92° | 71km/h | 2348m | -2.3m/s | 7.1°C | 52.4% | 769.5hPa | 2.8V | 07:00:03 | 03:42:41 | 00:00:00 | |
| BIOWL1-15 | 2026-09-03 14:01:59 | 52.67879 | 10.81607 | 95° | 68km/h | 2357m | -2.3m/s | 7.1°C | 51.6% | 768.5hPa | 2.8V | 07:00:03 | 03:42:37 | 00:00:00 | |
| DL1XH1-15 | 2026-09-03 14:01:57 | 52.67882 | 10.81552 | 95° | 64km/h | 2362m | -2.4m/s | 7.2°C | 47% | 768.2hPa | 2.8V | 06:59:19 | 03:42:35 | 00:00:00 | |
| DF8AY | 2026-09-03 14:01:57 | 52.67882 | 10.81552 | 95° | 64km/h | 2362m | -2.4m/s | 7.2°C | 51% | 768.2hPa | 2.8V | 07:00:03 | 03:42:35 | 00:00:00 | |
| DF7ER-10 | 2026-09-03 14:01:56 | 52.67882 | 10.81552 | 96° | 64km/h | 2362m | -2.4m/s | 7.2°C | 46.0% | 768.2hPa | 2.8V | 07:00:00 | 00:00:00 | 00:00:00 | |
| DB0DAN | 2026-09-03 14:01:55 | 52.67885 | 10.81500 | 95° | 58km/h | 2366m | -2.2m/s | 7.2°C | 45.8% | 767.65hPa | 2.8V | 00:00:00 | 00:00:00 | 00:00:00 | |
| AA1-15 | 2026-09-03 14:01:54 | 52.67887 | 10.81475 | 95° | 60km/h | 2369m | -2m/s | 7.2°C | 47.2% | 767.5hPa | 2.8V | 07:00:03 | 03:42:32 | 00:00:00 | |
| DM0DOS-11 | 2026-09-03 14:01:53 | 52.67887 | 10.81450 | 93° | 58km/h | 2371m | -2.3m/s | 7.2°C | 43.7% | 767.3hPa | 2.8V | 06:59:23 | 03:42:31 | 00:00:00 | |
| DM0DOS-11 | 2026-09-03 14:01:53 | 52.67885 | 10.81328 | 83° | 62km/h | 2382m | -2.1m/s | 7.1°C | 42.8% | 766.2hPa | 2.7V | 06:59:28 | 03:42:26 | 00:00:00 | |
| DL1XH-west | 2026-09-03 14:01:52 | 52.67888 | 10.81426 | 91° | 58km/h | 2373m | -2.2m/s | 7.2°C | 46.5% | 767.1hPa | 2.8V | 07:00:03 | 03:42:30 | 00:00:00 | |
| DL1XH-15 | 2026-09-03 14:01:50 | 52.67879 | 10.81248 | 83° | 68km/h | 2389m | -2.2m/s | 7°C | 42.4% | 765.7hPa | 2.8V | 06:59:31 | 03:42:23 | 00:00:00 | |
| DF8AY | 2026-09-03 14:01:47 | 52.67883 | 10.81302 | 83° | 64km/h | 2384m | -2.2m/s | 7.1°C | 46.4% | 766hPa | 2.8V | 07:00:03 | 03:42:25 | 00:00:00 | |
| BIOWL1-15 | 2026-09-03 14:01:46 | 52.67881 | 10.81275 | 83° | 66km/h | 2386m | -2.2m/s | 7°C | 45.9% | 765.8hPa | 2.8V | 07:00:03 | 03:42:24 | 00:00:00 | |
| DM0DOS-11 | 2026-09-03 14:01:45 | 52.67876 | 10.81190 | 85° | 71km/h | 2393m | -2.1m/s | 7°C | 42% | 765.3hPa | 2.8V | 06:59:33 | 03:42:21 | 00:00:00 | |
| AA1-15 | 2026-09-03 14:01:44 | 52.67877 | 10.81219 | 85° | 69km/h | 2391m | -2.4m/s | 7°C | 45.5% | 765.4hPa | 2.8V | 07:00:03 | 03:42:22 | 00:00:00 | |
| DL1XH-west | 2026-09-03 14:01:42 | 52.67875 | 10.81160 | 87° | 73km/h | 2395m | -2.2m/s | 7°C | 45% | 765hPa | 2.8V | 07:00:03 | 03:42:20 | 00:00:00 | |
| DB0DAN | 2026-09-03 14:01:40 | 52.67874 | 10.81099 | 90° | 69km/h | 2400m | -2.3m/s | 7°C | 40.8% | 764.61hPa | 2.8V | 00:00:00 | 00:00:00 | 00:00:00 | |
| DM0DOS-11 | 2026-09-03 14:01:38 | 52.67883 | 10.80895 | 96° | 68km/h | 2416m | -2.2m/s | 7°C | 41% | 763.1hPa | 2.8V | 06:59:43 | 03:42:11 | 00:00:00 | |
| DF8AY | 2026-09-03 14:01:36 | 52.67878 | 10.80980 | 95° | 69km/h | 2409m | -2.3m/s | 7°C | 44.6% | 763.8hPa | 2.8V | 07:00:03 | 03:42:14 | 00:00:00 | |
| BIOWL1-15 | 2026-09-03 14:01:35 | 52.67879 | 10.80952 | 96° | 69km/h | 2412m | -2.2m/s | 7°C | 44.4% | 763.4hPa | 2.8V | 07:00:03 | 03:42:13 | 00:00:00 | |
| AA1-15 | 2026-09-03 14:01:33 | 52.67883 | 10.80895 | 96° | 68km/h | 2416m | -2.3m/s | 7°C | 44.2% | 763.1hPa | 2.8V | 07:00:03 | 03:42:11 | 00:00:00 | |
| D01LWL | 2026-09-03 14:01:32 | 52.67885 | 10.80868 | 96° | 66km/h | 2418m | -2.1m/s | 6.9°C | 39.9% | 762.9hPa | 2.8V | 00:00:00 | 00:00:00 | 00:00:00 | |
| DL1XH-15 | 2026-09-03 14:01:30 | 52.67894 | 10.80692 | 91° | 57km/h | 2433m | -2.3m/s | 6.9°C | 39.3% | 761.3hPa | 2.8V | 06:59:51 | 03:42:03 | 00:00:00 | |
| DL1XH-west | 2026-09-03 14:01:28 | 52.67892 | 10.80764 | 96° | 60km/h | 2427m | -2.1m/s | 6.9°C | 43.7% | 762hPa | 2.8V | 07:00:03 | 03:42:06 | 00:00:00 | |
| DF8AY | 2026-09-03 14:01:26 | 52.67894 | 10.80715 | 93° | 58km/h | 2431m | -2.2m/s | 6.9°C | 43.4% | 761.6hPa | 2.8V | 07:00:03 | 03:42:04 | 00:00:00 | |
| DB0DAN | 2026-09-03 14:01:25 | 52.67894 | 10.80692 | 91° | 55km/h | 2433m | -2.3m/s | 6.9°C | 38.5% | 761.34hPa | 2.8V | 00:00:00 | 00:00:00 | 00:00:00 | |
| BIOWL1-15 | 2026-09-03 14:01:23 | 52.67894 | 10.80645 | 89° | 57km/h | 2438m | -2.4m/s | 6.9°C | 41.5% | 761.1hPa | 2.8V | 07:00:03 | 03:42:01 | 00:00:00 | |
| DL1XH1-15 | 2026-09-03 14:01:22 | 52.67894 | 10.80621 | 87° | 57km/h | 2440m | -2.3m/s | 6.9°C | 36.7% | 760.8hPa | 2.8V | 06:59:54 | 03:42:00 | 00:00:00 | |
| DL1XH1-15 | 2026-09-03 14:01:22 | 52.67886 | 10.80495 | 84° | 68km/h | 2451m | -2.1m/s | 6.8°C | 35.1% | 759.9hPa | 2.8V | 06:59:59 | 03:41:55 | 00:00:00 | |
| AA1-15 | 2026-09-03 14:01:22 | 52.67894 | 10.80621 | 88° | 57km/h | 2440m | -2.3m/s | 6.9°C | 40.5% | 760.8hPa | 2.8V | 07:00:03 | 03:42:00 | 00:00:00 | |
| DL1XH-west | 2026-09-03 14:01:18 | 52.67888 | 10.80522 | 83° | 64km/h | 2449m | -2.1m/s | 6.8°C | 40.2% | 760.1hPa | 2.8V | 07:00:03 | 03:41:56 | 00:00:00 | |
| DF8AY | 2026-09-03 14:01:15 | 52.67884 | 10.80437 | 87° | 71km/h | 2455m | -2.1m/s | 6.7°C | 38.3% | 759.5hPa | 2.8V | 07:00:03 | 03:41:53 | 00:00:00 | |
| DF7ER-10 | 2026-09-03 14:01:13 | 52.67883 | 10.80408 | 91° | 71km/h | 2458m | -2.1m/s | 6.7°C | 34.1% | 759.2hPa | 2.8V | 07:00:00 | 00:00:00 | 00:00:00 | |
| DL1XH1-15 | 2026-09-03 14:01:12 | 52.67884 | 10.80348 | 93° | 71km/h | 2462m | -2.4m/s | 6.7°C | 34.7% | 759hPa | 2.8V | 07:00:04 | 03:41:50 | 00:00:00 | |
| AA1-15 | 2026-09-03 14:01:12 | 52.67884 | 10.80348 | 93° | 71km/h | 2462m | -2.4m/s | 6.7°C | 38.3% | 759hPa | 2.8V | 07:00:54 | 03:41:50 | 00:00:00 | |
| DL1XH-west | 2026-09-03 14:01:07 | 52.67893 | 10.80208 | 97° | 64km/h | 2473m | -2.2m/s | 6.7°C | 37% | 757.8hPa | 2.8V | 07:00:54 | 03:41:45 | 00:00:00 | |
| DF8AY | 2026-09-03 14:01:05 | 52.67896 | 10.80158 | 95° | 58km/h | 2477m | -2m/s | 6.7°C | 36.7% | 757.4hPa | 2.8V | 07:00:54 | 03:41:43 | 00:00:00 | |
| AA1-15 | 2026-09-03 14:01:02 | 52.67898 | 10.80087 | 88° | 57km/h | 2484m | -2m/s | 6.6°C | 36.4% | 756.8hPa | 2.8V | 07:00:54 | 03:41:40 | 00:00:00 | |
| BIOWL1-15 | 2026-09-03 14:01:01 | 52.67895 | 10.80013 | 84° | 62km/h | 2490m | -2.1m/s | 6.5°C | 35.9% | 756.1hPa | 2.8V | 07:02:36 | 03:41:37 | 00:00:00 | |
| DL1XH1-15 | 2026-09-03 14:01:01 | 52.67897 | 10.80063 | 86° | 58km/h | 2485m | -2.1m/s | 6.6°C | 33.8% | 756.6hPa | 2.7V | 07:00:15 | 03:41:39 | 00:00:00 | |
| DL1XH1-15 | 2026-09-03 14:01:01 | 52.67890 | 10.79933 | 84° | 68km/h | 2496m | -2.1m/s | 6.5°C | 33.7% | 755.7hPa | 2.8V | 07:00:20 | 03:41:34 | 00:00:00 | |
| DL1XH-west | 2026-09-03 14:00:57 | 52.67892 | 10.79960 | 84° | 66km/h | 2494m | -2.1m/s | 6.5°C | 36.1% | 756hPa | 2.8V | 07:00:54 | 03:41:35 | 00:00:00 | |
| DL1XH1-15 | 2026-09-03 14:00:56 | 52.67885 | 10.79787 | 89° | 71km/h | 2507m | -2.1m/s | 6.5°C | 32.9% | 754.6hPa | 2.8V | 07:00:25 | 03:41:29 | 00:00:00 | |
| DB0DAN | 2026-09-03 14:00:55 | 52.67888 | 10.79905 | 85° | 66km/h | 2498m | -2m/s | 6.5°C | 32.9% | 755.35hPa | 2.8V | 00:00:00 | 00:00:00 | 00:00:00 | |
| DF8AY | 2026-09-03 14:00:54 | 52.67887 | 10.79876 | 86° | 69km/h | 2500m | -2.1m/s | 6.4°C | 36.3% | 755.3hPa | 2.8V | 07:00:54 | 03:41:32 | 00:00:00 | |
| DF7ER-10 | 2026-09-03 14:00:53 | 52.67887 | 10.79876 | 87° | 69km/h | 2500m | -2.1m/s | 6.4°C | 32.9% | 755.3hPa | 2.8V | 07:00:00 | 00:00:00 | 00:00:00 | |
| DL1XH-15 | 2026-09-03 14:00:52 | 52.67886 | 10.79668 | 92° | 71km/h | 2515m | -2.2m/s | 6.6°C | 30.6% | 753.9hPa | 2.8V | 07:00:29 | 03:41:25 | 00:00:00 | |
| AA1-15 | 2026-09-03 14:00:51 | 52.67885 | 10.79787 | 89° | 71km/h | 2507m | -2.1m/s | 6.5°C | 35.9% | 754.6hPa | 2.8V | 07:00:54 | 03:41:29 | 00:00:00 | |
| DL1XH-west | 2026-09-03 14:00:47 | 52.67886 | 10.79668 | 93° | 71km/h | 2516m | -2.2m/s | 6.6°C | 34% | 753.9hPa | 2.8V | 07:00:54 | 03:41:25 | 00:00:00 | |
| DF8AY | 2026-09-03 14:00:44 | 52.67890 | 10.79579 | 96° | 69km/h | 2522m | -2.2m/s | 6.6°C | 33.6% | 753.4hPa | 2.8V | 07:00:54 | 03:41:22 | 00:00:00 | |
| BIOWL1-15 | 2026-09-03 14:00:42 | 52.67903 | 10.79418 | 97° | 60km/h | 2535m | -2.2m/s | 6.7°C | 25.1% | 752hPa | 2.8V | 07:02:36 | 03:41:16 | 00:00:00 | |
| DM0DOS-11 | 2026-09-03 14:00:42 | 52.67897 | 10.79495 | 97° | 66km/h | 2529m | -2.2m/s | 6.5°C | 29.6% | 752.6hPa | 2.8V | 07:00:35 | 03:41:19 | 00:00:00 | |
| AA1-15 | 2026-09-03 14:00:41 | 52.67897 | 10.79495 | 98° | 66km/h | 2529m | -2.2m/s | 6.5°C | 32.5% | 752.7hPa | 2.8V | 07:00:54 | 03:41:19 | 00:00:00 | |
| DB0DAN | 2026-09-03 14:00:40 | 52.67899 | 10.79469 | 98° | 60km/h | 2531m | -2m/s | 6.6°C | 28.5% | 752.61hPa | 2.8V | 00:00:00 | 00:00:00 | 00:00:00 | |
| DL1XH-15 | 2026-09-03 14:00:39 | 52.67907 | 10.79322 | 89° | 57km/h | 2544m | -2.1m/s | 6.7°C | 20.7% | 751.5hPa | 2.7V | 07:00:42 | 03:41:12 | 00:00:00 | |
| DL1XH-west | 2026-09-03 14:00:37 | 52.67905 | 10.79393 | 96° | 58km/h | 2537m | -2.3m/s | 6.7°C | 23.2% | 751.8hPa | 2.8V | 07:00:54 | 03:41:15 | 00:00:00 | |
| DL1XH-15 | 2026-09-03 14:00:34 | 52.67902 | 10.79193 | 86° | 68km/h | 2554m | -2.1m/s | 6.6°C | 22.4% | 750.3hPa | 2.8V | 07:00:47 | 03:41:07 | 00:00:00 | |
| DF8AY | 2026-09-03 14:00:33 | 52.67907 | 10.79298 | 88° | 58km/h | 2546m | -2.1m/s | 6.7°C | 22.6% | 751.1hPa | 2.8V | 07:00:54 | 03:41:11 | 00:00:00 | |
| DF7ER-10 | 2026-09-03 14:00:31 | 52.67906 | 10.79273 | 88° | 60km/h | 2548m | -2.2m/s | 6.6°C | 20.8% | 750.9hPa | 2.8V | 07:00:00 | 00:00:00 | 00:00:00 | |
| D01LWL | 2026-09-03 14:00:30 | 52.67904 | 10.79221 | 85° | 64km/h | 2552m | -2.1m/s | 6.6°C | 21.6% | 750.5hPa | 2.8V | 00:00:00 | 00:00:00 | 00:00:00 | |
| AA1-15 | 2026-09-03 14:00:30 | 52.67904 | 10.79221 | 86° | 66km/h | 2552m | -2.1m/s | 6.6°C | 23.8% | 750.5hPa | 2.8V | 07:00:54 | 03:41:08 | 00:00:00 | |
| DL1XH-15 | 2026-09-03 14:00:29 | 52.67900 | 10.79045 | 90° | 73km/h | 2565m | -2.3m/s | 6.6°C | 23.4% | 749.3hPa | 2.8V | 07:00:52 | 03:41:02 | 00:00:00 | |
| DL1XH1-15 | 2026-09-03 14:00:26 | 52.67900 | 10.79106 | 89° | 71km/h | 2561m | -2.2m/s | 6.6°C | 23.3% | 749.8hPa | 2.8V | 07:00:50 | 03:41:04 | 00:00:00 | |
| DL1XH-west | 2026-09-03 14:00:26 | 52.67900 | 10.79106 | 89° | 71km/h | 2561m | -2.3m/s | 6.6°C | 25.5% | 749.8hPa | 2.8V | 07:00:54 | 03:41:04 | 00:00:00 | |
| BIOWL1-15 | 2026-09-03 14:00:24 | 52.67900 | 10.79045 | 91° | 73km/h | 2565m | -2.3m/s | 6.6°C | 25.9% | 749.3hPa | 2.8V | 07:02:36 | 03:41:02 | 00:00:00 | |
| DF8AY | 2026-09-03 14:00:23 | 52.67901 | 10.79014 | 92° | 73km/h | 2567m | -2.3m/s | 6.6°C | 26.3% | 749.1hPa | 2.8V | 07:00:54 | 03:41:01 | 00:00:00 | |
| DM0DOS-11 | 2026-09-03 14:00:21 | 52.67902 | 10.78953 | 93° | 73km/h | 2572m | -2.2m/s | 6.5°C | 23.6% | 748.6hPa | 2.8V | 07:00:55 | 03:40:59 | 00:00:00 | |
| AA1-15 | 2026-09-03 14:00:20 | 52.67903 | 10.78923 | 95° | 73km/h | 2574m | -2.4m/s | 6.5°C | 26.4% | 748.5hPa | 2.8V | 07:04:18 | 03:40:58 | 00:00:00 | |
| DF8AY-15 | 2026-09-03 14:00:18 | 52.67907 | 10.78862 | 97° | 64km/h | 2579m | -2.2m/s | 6.5°C | 23.8% | 748.1hPa | 2.7V | 00:00:00 | 03:40:56 | 00:00:00 | |
| DL1XH1-15 | 2026-09-03 14:00:16 | 52.67912 | 10.78803 | 98° | 69km/h | 2583m | -2m/s | 6.6°C | 23.9% | 747.8hPa | 2.7V | 07:01:00 | 03:40:54 | 00:00:00 | |
| DL1XH-west | 2026-09-03 14:00:15 | 52.67914 | 10.78774 | 99° | 69km/h | 2585m | -2.1m/s | 6.5°C | 26.8% | 747.5hPa | 2.8V | 07:01:45 | 03:40:53 | 00:00:00 | |
| DM0DOS-11 | 2026-09-03 14:00:14 | 52.67924 | 10.78668 | 97° | 60km/h | 2593m | -2m/s | 6.5°C | 24.2% | 746.8hPa | 2.8V | 07:01:05 | 03:40:49 | 00:00:00 | |
| DL1XH-15 | 2026-09-03 14:00:12 | 52.67929 | 10.78570 | 91° | 58km/h | 2601m | -2.2m/s | 6.5°C | 24.4% | 746.1hPa | 2.8V | 07:01:09 | 03:40:45 | 00:00:00 | |
| BIOWL1-15 | 2026-09-03 14:00:12 | 52.67922 | 10.78693 | 99° | 62km/h | 2591m | -2m/s | 6.5°C | 26.5% | 747hPa | 2.8V | 07:02:36 | 03:40:50 | 00:00:00 | |
| DB0DAN | 2026-09-03 14:00:10 | 52.67926 | 10.78643 | 96° | 57km/h | 2595m | -2.1m/s | 6.5°C | 23.8% | 746.53hPa | 2.8V | 00:00:00 | 00:00:00 | 00:00:00 | |
| AA1-15 | 2026-09-03 14:00:09 | 52.67927 | 10.78619 | 94° | 58km/h | 2597m | -2m/s | 6.5°C | 26.7% | 746.5hPa | 2.8V | 07:04:18 | 03:40:47 | 00:00:00 | |
| DL1XH1-15 | 2026-09-03 14:00:06 | 52.67926 | 10.78420 | 86° | 64km/h | 2615m | -2.3m/s | 6.3°C | 25.3% | 744.8hPa | 2.8V | 07:01:15 | 03:40:39 | 00:00:00 | |
| DL1XH-west | 2026-09-03 14:00:04 | 52.67929 | 10.78497 | 88° | 60km/h | 2608m | -2.3m/s | 6.4°C | 27% | 745.4hPa | 2.8V | 07:01:45 | 03:40:42 | 00:00:00 | |
| DL1XH-15 | 2026-09-03 14:00:02 | 52.67927 | 10.78446 | 86° | 62km/h | 2612m | -2.2m/s | 6.3°C | 25.1% | 745hPa | 2.8V | 07:01:14 | 03:40:40 | 00:00:00 | |
| BIOWL1-15 | 2026-09-03 14:00:02 | 52.67927 | 10.78446 | 86° | 62km/h | 2612m | -2.2m/s | 6.4°C | 27.4% | 745hPa | 2.8V | 07:02:36 | 03:40:40 | 00:00:00 | |
| DF8AY | 2026-09-03 14:00:01 | 52.67926 | 10.78420 | 86° | 64km/h | 2615m | -2.3m/s | 6.3°C | 27.6% | 744.8hPa | 2.8V | 07:01:45 | 03:40:39 | 00:00:00 | |
| AA1-15 | 2026-09-03 13:59:59 | 52.67924 | 10.78365 | 87° | 68km/h | 2619m | -2.1m/s | 6.3°C | 27.6% | 744.4hPa | 2.7V | 07:04:18 | 03:40:37 | 00:00:00 | |
| DM0DOS-11 | 2026-09-03 13:59:57 | 52.67923 | 10.78307 | 90° | 71km/h | 2623m | -2m/s | 6.2°C | 25.5% | 744hPa | 2.8V | 07:01:19 | 03:40:35 | 00:00:00 | |
| DL1XH-15 | 2026-09-03 13:59:57 | 52.67931 | 10.78155 | 98° | 73km/h | 2633m | -2.4m/s | 6.4°C | 25.4% | 743.1hPa | 2.8V | 07:01:24 | 03:40:30 | 00:00:00 | |
| DL1XH1-15 | 2026-09-03 13:59:56 | 52.67934 | 10.78125 | 98° | 73km/h | 2636m | -2.3m/s | 6.4°C | 25.2% | 742.9hPa | 2.7V | 07:01:25 | 03:40:29 | 00:00:00 | |
| DB0DAN | 2026-09-03 13:59:55 | 52.67925 | 10.78247 | 94° | 69km/h | 2627m | -2.1m/s | 6.3°C | 24.7% | 743.64hPa | 2.8V | 00:00:00 | 00:00:00 | 00:00:00 | |
| DL1XH-west | 2026-09-03 13:59:53 | 52.67928 | 10.78185 | 97° | 73km/h | 2631m | -2.3m/s | 6.3°C | 28% | 743.2hPa | 2.8V | 07:01:45 | 03:40:31 | 00:00:00 | |
| DM0DOS-11 | 2026-09-03 13:59:52 | 52.67946 | 10.78010 | 101° | 68km/h | 2645m | -2.3m/s | 6.4°C | 25.1% | 742.1hPa | 2.8V | 07:01:29 | 03:40:25 | 00:00:00 | |
| BIOWL1-15 | 2026-09-03 13:59:52 | 52.67931 | 10.78155 | 98° | 73km/h | 2634m | -2.4m/s | 6.4°C | 28.1% | 743.1hPa | 2.8V | 07:02:36 | 03:40:30 | 00:00:00 | |
| DF8AY | 2026-09-03 13:59:50 | 52.67936 | 10.78096 | 100° | 71km/h | 2638m | -2.4m/s | 6.4°C | 28.1% | 742.6hPa | 2.8V | 07:01:45 | 03:40:28 | 00:00:00 | |
| DF7ER-10 | 2026-09-03 13:59:49 | 52.67936 | 10.78095 | 101° | 71km/h | 2638m | -2.4m/s | 6.4°C | 24.6% | 742.6hPa | 2.7V | 07:01:00 | 00:00:00 | 00:00:00 | |
| DM0DOS-11 | 2026-09-03 13:59:47 | 52.67960 | 10.77881 | 96° | 58km/h | 2657m | -2.1m/s | 6.4°C | 25% | 741hPa | 2.7V | 07:01:34 | 03:40:20 | 00:00:00 | |
| DL1XH1-15 | 2026-09-03 13:59:46 | 52.67950 | 10.77983 | 101° | 66km/h | 2648m | -2.4m/s | 6.4°C | 25.1% | 741.8hPa | 2.8V | 07:01:30 | 03:40:24 | 00:00:00 | |
| DL1XH1-15 | 2026-09-03 13:59:46 | 52.67962 | 10.77857 | 95° | 58km/h | 2659m | -2m/s | 6.4°C | 24.9% | 740.8hPa | 2.8V | 07:01:35 | 03:40:19 | 00:00:00 | |
| DL1XH-west | 2026-09-03 13:59:42 | 52.67961 | 10.77881 | 97° | 58km/h | 2657m | -2.1m/s | 6.4°C | 27% | 741hPa | 2.7V | 07:01:45 | 03:40:20 | 00:00:00 | |
| DF8AY | 2026-09-03 13:59:41 | 52.67963 | 10.77832 | 93° | 58km/h | 2661m | -2m/s | 6.4°C | 25.9% | 740.7hPa | 2.8V | 07:01:45 | 03:40:18 | 00:00:00 | |
| SONCRA | 2026-09-03 13:59:41 | 52.67963 | 10.77832 | 92° | 58km/h | 2661m | -2.0m/s | 6.4°C | 23.4% | 740.7hPa | 2.7V | 00:00:00 | 00:00:00 | 00:00:00 | |
| SMARD9-10 | 2026-09-03 13:59:39 | 52.67963 | 10.77808 | 92° | 60km/h | 2663m | -2.2m/s | 6.3°C | 22.9% | 740.4hPa | 2.7V | 00:00:00 | 00:00:00 | 00:00:00 | |
| DF8AY-15 | 2026-09-03 13:59:38 | 52.67964 | 10.77782 | 90° | 68km/h | 2665m | -2.2m/s | 6.2°C | 23.3% | 740.2hPa | 2.7V | 00:00:00 | 03:40:16 | 00:00:00 | |
| DL1XH1-15 | 2026-09-03 13:59:36 | 52.67963 | 10.77730 | 88° | 66km/h | 2669m | -2m/s | 6.2°C | 22.4% | 739.9hPa | 2.8V | 07:01:40 | 03:40:14 | 00:00:00 | |
| DL1XH1-15 | 2026-09-03 13:59:36 | 52.67965 | 10.77585 | 93° | 73km/h | 2681m | -2.4m/s | 6.2°C | 21.2% | 738.9hPa | 2.8V | 07:01:45 | 03:40:09 | 00:00:00 | |
| BIOWL1-15 | 2026-09-03 13:59:35 | 52.67963 | 10.77645 | 91° | 71km/h | 2676m | -2.3m/s | 6.2°C | 24.2% | 739.3hPa | 2.8V | 07:02:36 | 03:40:11 | 00:00:00 | |
| DK9SH | 2026-09-03 13:59:34 | 52.67962 | 10.77702 | 90° | 68km/h | 2672m | -2.2m/s | 6.2°C | 21.9% | 739.7hPa | 2.8V | 07:01:00 | 00:00:00 | 00:00:00 | |
| DM0DOS-11 | 2026-09-03 13:59:32 | 52.67963 | 10.77615 | 92° | 71km/h | 2679m | -2.4m/s | 6.2°C | 21.6% | 739.1hPa | 2.8V | 07:01:44 | 03:40:10 | 00:00:00 | |
| DL1XH-west | 2026-09-03 13:59:32 | 52.67963 | 10.77615 | 93° | 71km/h | 2679m | -2.4m/s | 6.2°C | 23.7% | 739.1hPa | 2.8V | 07:01:45 | 03:40:10 | 00:00:00 | |
| BIOWL9-15 | 2026-09-03 13:59:31 | 52.67968 | 10.77525 | 96° | 71km/h | 2685m | -2.3m/s | 0°C | -1.0% | 738.5hPa | 2.8V | 00:00:00 | 00:00:00 | 00:00:00 | |
| DL1XH-15 | 2026-09-03 13:59:29 | 52.67973 | 10.77465 | 98° | 71km/h | 2690m | -2.4m/s | 6.3°C | 18.4% | 738hPa | 2.8V | 07:01:49 | 03:40:05 | 00:00:00 | |
| DF8AY | 2026-09-03 13:59:29 | 52.67968 | 10.77525 | 97° | 73km/h | 2686m | -2.3m/s | 6.3°C | 22.6% | 738.5hPa | 2.8V | 07:02:36 | 03:40:07 | 00:00:00 | |
| D01LWL | 2026-09-03 13:59:28 | 52.67970 | 10.77495 | 97° | 71km/h | 2688m | -2.4m/s | 6.3°C | 18.5% | 738.3hPa | 2.8V | 00:00:00 | 00:00:00 | 00:00:00 | |
| DL1XH1-15 | 2026-09-03 13:59:26 | 52.67994 | 10.77296 | 103° | 66km/h | 2705m | -2.5m/s | 6.2°C | 17.7% | 736.6hPa | 2.8V | 07:01:55 | 03:39:59 | 00:00:00 | |
| DL1XH-15 | 2026-09-03 13:59:22 | 52.67990 | 10.77323 | 103° | 68km/h | 2702m | -2.4m/s | 6.3°C | 17.8% | 736.9hPa | 2.8V | 07:01:54 | 03:40:00 | 00:00:00 | |
| DL1XH-west | 2026-09-03 13:59:21 | 52.67994 | 10.77296 | 104° | 66km/h | 2705m | -2.5m/s | 6.3°C | 19.4% | 736.6hPa | 2.8V | 07:02:36 | 03:39:59 | 00:00:00 | |
| DF8AY | 2026-09-03 13:59:19 | 52.68002 | 10.77244 | 104° | 62km/h | 2710m | -2.5m/s | 6.3°C | 18.8% | 736.3hPa | 2.8V | 07:02:36 | 03:39:57 | 00:00:00 | |
| DF7ER-10 | 2026-09-03 13:59:18 | 52.68001 | 10.77244 | 105° | 62km/h | 2710m | -2.5m/s | 6.3°C | 16.9% | 736.3hPa | 2.8V | 07:02:00 | 00:00:00 | 00:00:00 | |
| DM0DOS-11 | 2026-09-03 13:59:17 | 52.68008 | 10.77194 | 101° | 60km/h | 2715m | -2.3m/s | 6.2°C | 16.9% | 735.8hPa | 2.8V | 07:01:59 | 03:39:55 | 00:00:00 | |
| DL1XH-15 | 2026-09-03 13:59:17 | 52.68017 | 10.77072 | 92° | 62km/h | 2726m | -2.3m/s | 6°C | 17.1% | 734.8hPa | 2.8V | 07:02:04 | 03:39:50 | 00:00:00 | |
| AA1-15 | 2026-09-03 13:59:17 | 52.68008 | 10.77194 | 102° | 60km/h | 2715m | -2.3m/s | 6.2°C | 18.2% | 735.8hPa | 2.8V | 07:04:18 | 03:39:55 | 00:00:00 | |
| DL1XH1-15 | 2026-09-03 13:59:16 | 52.68018 | 10.77045 | 91° | 64km/h | 2729m | -2.4m/s | 6°C | 17.2% | 734.6hPa | 2.8V | 07:02:05 | 03:39:49 | 00:00:00 | |
| DM0DOS-11 | 2026-09-03 13:59:12 | 52.68020 | 10.76931 | 93° | 71km/h | 2738m | -2.5m/s | 5.9°C | 17.3% | 733.7hPa | 2.8V | 07:02:09 | 03:39:45 | 00:00:00 | |
| DB0DAN | 2026-09-03 13:59:10 | 52.68018 | 10.77018 | 92° | 64km/h | 2731m | -2.4m/s | 5.9°C | 17% | 734.36hPa | 2.7V | 00:00:00 | 00:00:00 | 00:00:00 | |
| DL1XH-west | 2026-09-03 13:59:10 | 52.68018 | 10.77018 | 92° | 68km/h | 2731m | -2.4m/s | 5.9°C | 18.5% | 734.4hPa | 2.7V | 07:02:36 | 03:39:48 | 00:00:00 | |
| BIOWL1-15 | 2026-09-03 13:59:09 | 52.68019 | 10.76990 | 92° | 69km/h | 2733m | -2.4m/s | 5.9°C | 18.4% | 734.2hPa | 2.8V | 07:02:36 | 03:39:47 | 00:00:00 | |
| DF8AY | 2026-09-03 13:59:08 | 52.68019 | 10.76961 | 93° | 71km/h | 2736m | -2.5m/s | 5.9°C | 18.4% | 733.9hPa | 2.8V | 07:02:36 | 03:39:46 | 00:00:00 | |
| S3001 | 2026-09-03 13:59:07 | 52.68020 | 10.76931 | 93° | 69km/h | 2738m | -2.5m/s | 5.9°C | 17.0% | 733.7hPa | 2.8V | 00:00:00 | 00:00:00 | 00:00:00 | |
| DL1XH1-15 | 2026-09-03 13:59:06 | 52.68032 | 10.76749 | 97° | 75km/h | 2753m | -2.6m/s | 5.8°C | 17.6% | 732.4hPa | 2.8V | 07:02:15 | 03:39:39 | 00:00:00 | |
| DM0DOS-11 | 2026-09-03 13:59:02 | 52.68043 | 10.76625 | 100° | 75km/h | 2763m | -2.4m/s | 5.7°C | 17.4% | 731.4hPa | 2.8V | 07:02:19 | 03:39:35 | 00:00:00 | |
| BIOWL1-15 | 2026-09-03 13:59:00 | 52.68040 | 10.76656 | 99° | 75km/h | 2761m | -2.7m/s | 5.7°C | 19.4% | 731.5hPa | 2.8V | 07:02:36 | 03:39:36 | 00:00:00 | |
| DL1XH-west | 2026-09-03 13:59:00 | 52.68034 | 10.76718 | 98° | 75km/h | 2756m | -2.4m/s | 5.8°C | 19.4% | 732.1hPa | 2.8V | 07:02:36 | 03:39:38 | 00:00:00 | |
| DF8AY | 2026-09-03 13:58:58 | 52.68043 | 10.76625 | 100° | 75km/h | 2764m | -2.4m/s | 5.7°C | 19.3% | 731.4hPa | 2.8V | 07:02:36 | 03:39:35 | 00:00:00 | |
| D01LWL | 2026-09-03 13:58:57 | 52.68046 | 10.76595 | 100° | 73km/h | 2766m | -2.3m/s | 5.7°C | 17.0% | 731.0hPa | 2.8V | 00:00:00 | 00:00:00 | 00:00:00 | |
| DF7ER-10 | 2026-09-03 13:58:56 | 52.68043 | 10.76625 | 101° | 75km/h | 2764m | -2.4m/s | 5.7°C | 17.0% | 731.4hPa | 2.8V | 07:02:00 | 00:00:00 | 00:00:00 | |
| DM0DOS-11 | 2026-09-03 13:58:52 | 52.68063 | 10.76476 | 105° | 69km/h | 2776m | -2.4m/s | 5.7°C | 17.1% | 730.3hPa | 2.8V | 07:02:24 | 03:39:30 | 00:00:00 | |
| DM0DOS-11 | 2026-09-03 13:58:52 | 52.68084 | 10.76346 | 101° | 60km/h | 2788m | -2.3m/s | 5.6°C | 16.7% | 729.2hPa | 2.7V | 07:02:29 | 03:39:25 | 00:00:00 | |
| DL1XH-west | 2026-09-03 13:58:50 | 52.68072 | 10.76422 | 106° | 66km/h | 2781m | -2.2m/s | 5.6°C | 17.9% | 729.9hPa | 2.8V | 07:02:36 | 03:39:28 | 00:00:00 | |
| BIOWL1-15 | 2026-09-03 13:58:47 | 52.68084 | 10.76346 | 102° | 60km/h | 2788m | -2.3m/s | 5.6°C | 17.7% | 729.2hPa | 2.7V | 07:02:36 | 03:39:25 | 00:00:00 | |
| DL1XH1-15 | 2026-09-03 13:58:46 | 52.68094 | 10.76193 | 93° | 68km/h | 2802m | -2.4m/s | 5.4°C | 16.8% | 728hPa | 2.8V | 07:02:35 | 03:39:19 | 00:00:00 | |
| DF8AY | 2026-09-03 13:58:46 | 52.68087 | 10.76322 | 100° | 58km/h | 2790m | -2.5m/s | 5.5°C | 18% | 729.1hPa | 2.8V | 07:02:36 | 03:39:24 | 00:00:00 | |
| DL4XJ-10 | 2026-09-03 13:58:45 | 52.68089 | 10.76297 | 98° | 69km/h | 2793m | -2.1m/s | 6.4°C | 0% | 0hPa | 2.8V | 00:00:00 | 00:00:00 | 00:00:00 | |
| DB0DAN | 2026-09-03 13:58:40 | 52.68096 | 10.76165 | 94° | 66km/h | 2805m | -2.4m/s | 5.4°C | 16.4% | 727.75hPa | 2.8V | 00:00:00 | 00:00:00 | 00:00:00 | |
| DL1XH-west | 2026-09-03 13:58:40 | 52.68096 | 10.76165 | 94° | 69km/h | 2805m | -2.4m/s | 5.4°C | 17.9% | 727.8hPa | 2.8V | 07:02:36 | 03:39:18 | 00:00:00 | |
| BIOWL1-15 | 2026-09-03 13:58:39 | 52.68101 | 10.76076 | 98° | 73km/h | 2812m | -2.5m/s | 5.4°C | 17.5% | 727.1hPa | 2.8V | 07:06:51 | 03:39:15 | 00:00:00 | |
| DM0DOS-11 | 2026-09-03 13:58:37 | 52.68101 | 10.76076 | 97° | 73km/h | 2812m | -2.5m/s | 5.4°C | 16.4% | 727hPa | 2.8V | 07:02:39 | 03:39:15 | 00:00:00 | |
| DL1XH-15 | 2026-09-03 13:58:37 | 52.68119 | 10.75922 | 103° | 75km/h | 2824m | -2.4m/s | 5.5°C | 16.2% | 726hPa | 2.7V | 07:02:44 | 03:39:10 | 00:00:00 | |
| DL1XH1-15 | 2026-09-03 13:58:36 | 52.68123 | 10.75892 | 103° | 75km/h | 2826m | -2.4m/s | 5.4°C | 16.3% | 725.8hPa | 2.7V | 07:02:45 | 03:39:09 | 00:00:00 | |
| DF8AY | 2026-09-03 13:58:35 | 52.68107 | 10.76014 | 100° | 75km/h | 2817m | -2.4m/s | 5.4°C | 17.5% | 726.7hPa | 2.8V | 07:03:27 | 03:39:13 | 00:00:00 | |
| AA1-15 | 2026-09-03 13:58:30 | 52.68128 | 10.75861 | 104° | 75km/h | 2829m | -2.4m/s | 5.4°C | 17.8% | 725.5hPa | 2.8V | 07:04:18 | 03:39:08 | 00:00:00 | |
| DL1XH-west | 2026-09-03 13:58:29 | 52.68132 | 10.75831 | 105° | 75km/h | 2831m | -2.6m/s | 5.4°C | 17.9% | 725.2hPa | 2.8V | 07:03:27 | 03:39:07 | 00:00:00 | |
| DM0DOS-11 | 2026-09-03 13:58:27 | 52.68169 | 10.75632 | 107° | 66km/h | 2848m | -2.4m/s | 5.4°C | 16.5% | 723.8hPa | 2.8V | 07:02:54 | 03:39:00 | 00:00:00 | |
| DL1XH1-15 | 2026-09-03 13:58:27 | 52.68148 | 10.75742 | 106° | 73km/h | 2839m | -2.5m/s | 5.4°C | 16.4% | 724.7hPa | 2.8V | 07:02:50 | 03:39:04 | 00:00:00 | |
| DL1XH1-15 | 2026-09-03 13:58:27 | 52.68174 | 10.75605 | 106° | 64km/h | 2851m | -2.4m/s | 5.4°C | 16.6% | 723.7hPa | 2.8V | 07:02:55 | 03:38:59 | 00:00:00 | |
| BIOWL1-15 | 2026-09-03 13:58:26 | 52.68148 | 10.75742 | 107° | 73km/h | 2839m | -2.5m/s | 5.4°C | 18.1% | 724.7hPa | 2.8V | 07:06:51 | 03:39:04 | 00:00:00 | |
| DF8AY | 2026-09-03 13:58:24 | 52.68158 | 10.75685 | 108° | 69km/h | 2843m | -2.4m/s | 5.4°C | 18.3% | 724.2hPa | 2.7V | 07:03:27 | 03:39:02 | 00:00:00 | |
| AA1-15 | 2026-09-03 13:58:20 | 52.68178 | 10.75580 | 106° | 62km/h | 2853m | -2.4m/s | 5.4°C | 17.4% | 723.4hPa | 2.8V | 07:04:18 | 03:38:58 | 00:00:00 | |
| DL1XH-west | 2026-09-03 13:58:18 | 52.68186 | 10.75530 | 103° | 60km/h | 2858m | -2.6m/s | 5.4°C | 15% | 723hPa | 2.8V | 07:03:27 | 03:38:56 | 00:00:00 | |
| DL1XH-15 | 2026-09-03 13:58:17 | 52.68189 | 10.75505 | 100° | 60km/h | 2861m | -2.4m/s | 5.3°C | 14.4% | 722.9hPa | 2.8V | 07:02:59 | 03:38:55 | 00:00:00 | |
| DL1XH1-15 | 2026-09-03 13:58:16 | 52.68191 | 10.75480 | 98° | 62km/h | 2863m | -2.5m/s | 5.3°C | 14.4% | 722.5hPa | 2.7V | 07:03:00 | 03:38:54 | 00:00:00 | |
| DL1XH1-15 | 2026-09-03 13:58:16 | 52.68200 | 10.75343 | 94° | 69km/h | 2876m | -2.7m/s | 5.1°C | 14.2% | 721.4hPa | 2.7V | 07:03:05 | 03:38:49 | 00:00:00 | |
| DF8AY | 2026-09-03 13:58:13 | 52.68197 | 10.75400 | 95° | 68km/h | 2871m | -2.5m/s | 5.2°C | 14.7% | 721.9hPa | 2.8V | 07:03:27 | 03:38:51 | 00:00:00 | |
| BIOWL1-15 | 2026-09-03 13:58:11 | 52.68200 | 10.75343 | 95° | 69km/h | 2876m | -2.7m/s | 5.1°C | 14.7% | 721.4hPa | 2.7V | 07:06:51 | 03:38:49 | 00:00:00 | |
| DL1XH-15 | 2026-09-03 13:58:07 | 52.68206 | 10.75224 | 95° | 73km/h | 2886m | -2.6m/s | 5.1°C | 13.3% | 720.5hPa | 2.8V | 07:03:09 | 03:38:45 | 00:00:00 | |
| DL1XH-15 | 2026-09-03 13:58:07 | 52.68219 | 10.75069 | 99° | 77km/h | 2900m | -2.5m/s | 5°C | 15.4% | 719.3hPa | 2.8V | 07:03:14 | 03:38:40 | 00:00:00 | |
| DL1XH-west | 2026-09-03 13:58:07 | 52.68206 | 10.75224 | 96° | 73km/h | 2886m | -2.6m/s | 5.1°C | 13.9% | 720.5hPa | 2.8V | 07:03:27 | 03:38:45 | 00:00:00 | |
| DL1XH1-15 | 2026-09-03 13:58:06 | 52.68208 | 10.75194 | 96° | 75km/h | 2889m | -2.4m/s | 5°C | 13.5% | 720.2hPa | 2.7V | 07:03:10 | 03:38:44 | 00:00:00 | |
| DM0DOS-11 | 2026-09-03 13:58:05 | 52.68226 | 10.75005 | 102° | 78km/h | 2904m | -2.6m/s | 5°C | 15.8% | 718.9hPa | 2.7V | 07:03:16 | 03:38:38 | 00:00:00 | |
| DF7ER-10 | 2026-09-03 13:58:04 | 52.68213 | 10.75132 | 99° | 77km/h | 2894m | -2.6m/s | 5.0°C | 13.8% | 719.7hPa | 2.7V | 07:03:00 | 00:00:00 | 00:00:00 | |
| DJ2DS-15 | 2026-09-03 13:58:03 | 52.68216 | 10.75100 | 98° | 75km/h | 2897m | -2.7m/s | 5.0°C | 14.1% | 719.5hPa | 2.7V | 00:00:00 | 00:00:00 | 00:00:00 | |
| DF8AY | 2026-09-03 13:58:03 | 52.68216 | 10.75100 | 99° | 77km/h | 2897m | -2.7m/s | 5°C | 15.7% | 719.5hPa | 2.8V | 07:03:27 | 03:38:41 | 00:00:00 | |
| DL1XH1-15 | 2026-09-03 13:58:01 | 52.68246 | 10.74883 | 106° | 75km/h | 2915m | -2.6m/s | 5°C | 16.3% | 718hPa | 2.7V | 07:03:20 | 03:38:34 | 00:00:00 | |
| DM0DOS-11 | 2026-09-03 13:58:00 | 52.68252 | 10.74853 | 107° | 73km/h | 2918m | -2.5m/s | 5°C | 16.7% | 717.6hPa | 2.8V | 07:03:21 | 03:38:33 | 00:00:00 | |
| DF8AY-15 | 2026-09-03 13:57:58 | 52.68236 | 10.74943 | 106° | 69km/h | 2910m | -2.5m/s | 5.0°C | 15.9% | 718.4hPa | 2.8V | 00:00:00 | 03:38:36 | 00:00:00 | |
| DL1XH-15 | 2026-09-03 13:57:57 | 52.68273 | 10.74744 | 106° | 66km/h | 2928m | -2.6m/s | 4.9°C | 17.2% | 716.8hPa | 2.8V | 07:03:25 | 03:38:29 | 00:00:00 | |
| DL1XH-west | 2026-09-03 13:57:56 | 52.68246 | 10.74882 | 107° | 75km/h | 2915m | -2.6m/s | 5°C | 18.1% | 718hPa | 2.7V | 07:03:27 | 03:38:34 | 00:00:00 | |
| DB0DAN | 2026-09-03 13:57:55 | 52.68252 | 10.74853 | 108° | 69km/h | 2918m | -2.5m/s | 5°C | 16.3% | 717.62hPa | 2.8V | 00:00:00 | 00:00:00 | 00:00:00 | |
| DM0DOS-11 | 2026-09-03 13:57:55 | 52.68277 | 10.74718 | 104° | 64km/h | 2931m | -2.6m/s | 4.9°C | 17.2% | 716.6hPa | 2.8V | 07:03:26 | 03:38:28 | 00:00:00 | |
| BIOWL1-15 | 2026-09-03 13:57:54 | 52.68257 | 10.74825 | 108° | 71km/h | 2920m | -2.6m/s | 5°C | 18.6% | 717.5hPa | 2.8V | 07:06:51 | 03:38:32 | 00:00:00 | |
| DF8AY | 2026-09-03 13:57:53 | 52.68268 | 10.74770 | 107° | 68km/h | 2925m | -2.6m/s | 4.9°C | 18.7% | 717.1hPa | 2.8V | 07:03:27 | 03:38:30 | 00:00:00 | |
| DF7ER-10 | 2026-09-03 13:57:52 | 52.68263 | 10.74797 | 109° | 69km/h | 2923m | -2.5m/s | 5.0°C | 16.9% | 717.2hPa | 2.7V | 07:03:00 | 00:00:00 | 00:00:00 | |
| DM0DOS-11 | 2026-09-03 13:57:50 | 52.68291 | 10.74588 | 95° | 66km/h | 2943m | -2.5m/s | 4.8°C | 17.6% | 715.6hPa | 2.7V | 07:03:31 | 03:38:23 | 00:00:00 | |
| AA1-15 | 2026-09-03 13:57:48 | 52.68284 | 10.74667 | 101° | 62km/h | 2936m | -2.5m/s | 4.9°C | 18.3% | 716hPa | 2.7V | 07:04:18 | 03:38:26 | 00:00:00 | |
| DL1XH-west | 2026-09-03 13:57:45 | 52.68291 | 10.74588 | 96° | 66km/h | 2943m | -2.6m/s | 4.8°C | 18.8% | 715.6hPa | 2.7V | 07:04:18 | 03:38:23 | 00:00:00 | |
| DF7ER-10 | 2026-09-03 13:57:42 | 52.68294 | 10.74532 | 96° | 69km/h | 2949m | -2.5m/s | 4.7°C | 17.0% | 715.0hPa | 2.7V | 07:04:00 | 00:00:00 | 00:00:00 | |
| DL1XH1-15 | 2026-09-03 13:57:41 | 52.68297 | 10.74473 | 95° | 73km/h | 2954m | -2.7m/s | 4.7°C | 17.6% | 714.6hPa | 2.7V | 07:03:35 | 03:38:19 | 00:00:00 | |
| DF8AY | 2026-09-03 13:57:41 | 52.68297 | 10.74473 | 95° | 73km/h | 2954m | -2.7m/s | 4.7°C | 19% | 714.6hPa | 2.7V | 07:04:18 | 03:38:19 | 00:00:00 | |
| DM0DOS-11 | 2026-09-03 13:57:40 | 52.68314 | 10.74281 | 101° | 78km/h | 2969m | -2.7m/s | 4.6°C | 17% | 713.1hPa | 2.7V | 07:03:41 | 03:38:13 | 00:00:00 | |
| DB0DAN | 2026-09-03 13:57:40 | 52.68299 | 10.74442 | 96° | 71km/h | 2956m | -2.6m/s | 4.7°C | 17.3% | 714.27hPa | 2.7V | 00:00:00 | 00:00:00 | 00:00:00 | |
| DL1XH-west | 2026-09-03 13:57:35 | 52.68313 | 10.74281 | 101° | 80km/h | 2969m | -2.7m/s | 4.6°C | 18.9% | 713.1hPa | 2.7V | 07:04:18 | 03:38:13 | 00:00:00 | |
| AA1-15 | 2026-09-03 13:57:33 | 52.68322 | 10.74217 | 103° | 78km/h | 2975m | -2.6m/s | 4.6°C | 19.5% | 712.6hPa | 2.8V | 07:04:18 | 03:38:11 | 00:00:00 | |
| BIOWL1-15 | 2026-09-03 13:57:33 | 52.68332 | 10.74154 | 106° | 77km/h | 2980m | -2.5m/s | 4.6°C | 19.4% | 712.3hPa | 2.8V | 07:06:51 | 03:38:09 | 00:00:00 | |
| DF7ER-10 | 2026-09-03 13:57:32 | 52.68322 | 10.74217 | 104° | 78km/h | 2975m | -2.6m/s | 4.6°C | 16.9% | 712.6hPa | 2.8V | 07:04:00 | 00:00:00 | 00:00:00 | |
| DL1XH-15 | 2026-09-03 13:57:31 | 52.68332 | 10.74154 | 105° | 77km/h | 2980m | -2.5m/s | 4.6°C | 17.4% | 712.3hPa | 2.8V | 07:03:45 | 03:38:09 | 00:00:00 | |
| DL1XH-15 | 2026-09-03 13:57:31 | 52.68359 | 10.74008 | 106° | 68km/h | 2993m | -2.5m/s | 4.5°C | 17.2% | 711.1hPa | 2.8V | 07:03:50 | 03:38:04 | 00:00:00 | |
| DF8AY | 2026-09-03 13:57:31 | 52.68337 | 10.74123 | 107° | 77km/h | 2982m | -2.5m/s | 4.6°C | 19.2% | 712.1hPa | 2.8V | 07:04:18 | 03:38:08 | 00:00:00 | |
| DJ2DS-15 | 2026-09-03 13:57:27 | 52.68359 | 10.74008 | 106° | 68km/h | 2993m | -2.5m/s | 4.5°C | 16.8% | 711.1hPa | 2.7V | 00:00:00 | 00:00:00 | 00:00:00 | |
| DM0DOS-11 | 2026-09-03 13:57:25 | 52.68378 | 10.73847 | 96° | 68km/h | 3008m | -2.5m/s | 4.4°C | 16.9% | 709.8hPa | 2.7V | 07:03:56 | 03:37:58 | 00:00:00 | |
| DB0DAN | 2026-09-03 13:57:25 | 52.68364 | 10.73981 | 105° | 64km/h | 2995m | -2.4m/s | 4.5°C | 16.8% | 710.87hPa | 2.7V | 00:00:00 | 00:00:00 | 00:00:00 | |
| DL1XH-west | 2026-09-03 13:57:24 | 52.68368 | 10.73954 | 103° | 66km/h | 2998m | -2.4m/s | 4.5°C | 18.4% | 710.6hPa | 2.7V | 07:04:18 | 03:38:02 | 00:00:00 | |
| D01LWL | 2026-09-03 13:57:24 | 52.68371 | 10.73928 | 101° | 64km/h | 3000m | -2.5m/s | 4.5°C | 17.0% | 710.5hPa | 2.7V | 00:00:00 | 00:00:00 | 00:00:00 | |
| DL1XH1-15 | 2026-09-03 13:57:21 | 52.68377 | 10.73874 | 97° | 66km/h | 3005m | -2.5m/s | 4.4°C | 17.1% | 710hPa | 2.7V | 07:03:55 | 03:37:59 | 00:00:00 | |
| DL1XH1-15 | 2026-09-03 13:57:21 | 52.68385 | 10.73729 | 95° | 75km/h | 3018m | -2.7m/s | 4.3°C | 16.8% | 708.9hPa | 2.7V | 07:04:00 | 03:37:54 | 00:00:00 | |
| DF8AY | 2026-09-03 13:57:20 | 52.68379 | 10.73847 | 96° | 68km/h | 3008m | -2.5m/s | 4.4°C | 17.9% | 709.8hPa | 2.7V | 07:04:18 | 03:37:58 | 00:00:00 | |
| AA1-15 | 2026-09-03 13:57:17 | 52.68384 | 10.73760 | 95° | 73km/h | 3016m | -2.6m/s | 4.3°C | 18.1% | 709.1hPa | 2.7V | 07:04:18 | 03:37:55 | 00:00:00 | |
| DM0DOS-11 | 2026-09-03 13:57:15 | 52.68401 | 10.73535 | 100° | 82km/h | 3034m | -2.5m/s | 4.3°C | 16.3% | 707.5hPa | 2.7V | 07:04:06 | 03:37:48 | 00:00:00 | |
| DL1XH-west | 2026-09-03 13:57:14 | 52.68389 | 10.73666 | 96° | 77km/h | 3023m | -2.6m/s | 4.3°C | 18.4% | 708.4hPa | 2.7V | 07:04:18 | 03:37:52 | 00:00:00 | |
| DL1XH-15 | 2026-09-03 13:57:12 | 52.68414 | 10.73436 | 104° | 80km/h | 3042m | -2.5m/s | 4.3°C | 17.5% | 706.8hPa | 2.7V | 07:04:09 | 03:37:45 | 00:00:00 | |
| DL1XH1-15 | 2026-09-03 13:57:11 | 52.68420 | 10.73404 | 106° | 78km/h | 3044m | -2.4m/s | 4.2°C | 17.8% | 706.6hPa | 2.7V | 07:04:10 | 03:37:44 | 00:00:00 | |
| DM0DOS-11 | 2026-09-03 13:57:10 | 52.68425 | 10.73372 | 107° | 77km/h | 3047m | -2.5m/s | 4.2°C | 18% | 706.4hPa | 2.7V | 07:04:11 | 03:37:43 | 00:00:00 | |
| DB0DAN | 2026-09-03 13:57:10 | 52.68401 | 10.73535 | 101° | 78km/h | 3034m | -2.5m/s | 4.3°C | 15.9% | 707.47hPa | 2.7V | 00:00:00 | 00:00:00 | 00:00:00 | |
| DF8AY | 2026-09-03 13:57:09 | 52.68405 | 10.73501 | 102° | 82km/h | 3036m | -2.6m/s | 4.3°C | 19.1% | 707.3hPa | 2.7V | 07:04:18 | 03:37:47 | 00:00:00 | |
| DL1XH-15 | 2026-09-03 13:57:07 | 52.68443 | 10.73284 | 107° | 71km/h | 3054m | -2.5m/s | 4.2°C | 18.3% | 705.7hPa | 2.7V | 07:04:14 | 03:37:40 | 00:00:00 | |
| AA1-15 | 2026-09-03 13:57:07 | 52.68414 | 10.73436 | 105° | 80km/h | 3042m | -2.5m/s | 4.3°C | 19.4% | 706.8hPa | 2.7V | 07:04:18 | 03:37:45 | 00:00:00 | |
| DL1XH-west | 2026-09-03 13:57:03 | 52.68437 | 10.73313 | 108° | 73km/h | 3052m | -2.5m/s | 4.2°C | 19.7% | 705.9hPa | 2.7V | 07:04:18 | 03:37:41 | 00:00:00 | |
| S3001 | 2026-09-03 13:57:03 | 52.68437 | 10.73313 | 107° | 73km/h | 3052m | -2.5m/s | 4.2°C | 17.7% | 705.9hPa | 2.7V | 00:00:00 | 00:00:00 | 00:00:00 | |
| DL1XH-15 | 2026-09-03 13:57:02 | 52.68464 | 10.73149 | 100° | 66km/h | 3067m | -2.5m/s | 4.1°C | 18.6% | 704.6hPa | 2.7V | 07:04:19 | 03:37:35 | 00:00:00 | |
| DL1XH1-15 | 2026-09-03 13:57:01 | 52.68447 | 10.73256 | 106° | 69km/h | 3057m | -2.6m/s | 4.2°C | 18.3% | 705.5hPa | 2.7V | 07:04:15 | 03:37:39 | 00:00:00 | |
| DL1XH1-15 | 2026-09-03 13:57:01 | 52.68467 | 10.73122 | 99° | 66km/h | 3069m | -2.6m/s | 4.1°C | 18.7% | 704.5hPa | 2.7V | 07:04:20 | 03:37:34 | 00:00:00 | |
| BIOWL1-15 | 2026-09-03 13:56:59 | 52.68457 | 10.73202 | 104° | 66km/h | 3062m | -2.3m/s | 4.1°C | 19.9% | 705.1hPa | 2.7V | 07:06:51 | 03:37:37 | 00:00:00 | |
| DF8AY | 2026-09-03 13:56:58 | 52.68461 | 10.73176 | 103° | 66km/h | 3064m | -2.5m/s | 4.1°C | 20.1% | 704.9hPa | 2.7V | 07:04:18 | 03:37:36 | 00:00:00 | |
| DF8AY-15 | 2026-09-03 13:56:58 | 52.68461 | 10.73176 | 103° | 75km/h | 3064m | -2.5m/s | 4.1°C | 18.5% | 704.8hPa | 2.7V | 00:00:00 | 03:37:36 | 00:00:00 | |
| DL1XH-15 | 2026-09-03 13:56:57 | 52.68475 | 10.73008 | 95° | 73km/h | 3079m | -2.6m/s | 4°C | 18.9% | 703.5hPa | 2.7V | 07:04:24 | 03:37:30 | 00:00:00 | |
| DB0DAN | 2026-09-03 13:56:55 | 52.68470 | 10.73095 | 97° | 64km/h | 3072m | -2.6m/s | 4.1°C | 18.3% | 704.22hPa | 2.7V | 00:00:00 | 00:00:00 | 00:00:00 | |
| DM0DOS-11 | 2026-09-03 13:56:55 | 52.68470 | 10.73095 | 97° | 68km/h | 3072m | -2.6m/s | 4.1°C | 18.8% | 704.2hPa | 2.7V | 07:04:21 | 03:37:33 | 00:00:00 | |
| AA1-15 | 2026-09-03 13:56:55 | 52.68470 | 10.73095 | 97° | 68km/h | 3072m | -2.6m/s | 4.1°C | 20.8% | 704.2hPa | 2.7V | 07:05:09 | 03:37:33 | 00:00:00 | |
| DL1XH-west | 2026-09-03 13:56:53 | 52.68473 | 10.73038 | 96° | 71km/h | 3077m | -2.5m/s | 4°C | 21.1% | 703.7hPa | 2.7V | 07:05:09 | 03:37:31 | 00:00:00 | |
| D01LWL | 2026-09-03 13:56:53 | 52.68475 | 10.73008 | 95° | 71km/h | 3079m | -2.6m/s | 4.0°C | 18.5% | 703.5hPa | 2.7V | 00:00:00 | 00:00:00 | 00:00:00 | |
| DL1XH1-15 | 2026-09-03 13:56:51 | 52.68477 | 10.72978 | 95° | 75km/h | 3082m | -2.5m/s | 3.9°C | 19% | 703.4hPa | 2.7V | 07:04:25 | 03:37:29 | 00:00:00 | |
| DL1XH1-15 | 2026-09-03 13:56:51 | 52.68490 | 10.72814 | 100° | 80km/h | 3095m | -2.4m/s | 3.8°C | 19% | 702.2hPa | 2.7V | 07:04:30 | 03:37:24 | 00:00:00 | |
| DF8AY | 2026-09-03 13:56:48 | 52.68483 | 10.72881 | 98° | 80km/h | 3090m | -2.5m/s | 3.9°C | 21.4% | 702.7hPa | 2.7V | 07:05:09 | 03:37:26 | 00:00:00 | |
| DL1XH-15 | 2026-09-03 13:56:48 | 52.68486 | 10.72848 | 99° | 80km/h | 3092m | -2.6m/s | 3.9°C | 19% | 702.5hPa | 2.7V | 07:04:29 | 03:37:25 | 00:00:00 | |
| DL1XH-15 | 2026-09-03 13:56:48 | 52.68509 | 10.72684 | 105° | 78km/h | 3104m | -2.5m/s | 3.8°C | 18.9% | 701.2hPa | 2.7V | 07:04:34 | 03:37:20 | 00:00:00 | |
| DL1XH1-15 | 2026-09-03 13:56:46 | 52.68514 | 10.72653 | 106° | 77km/h | 3107m | -2.3m/s | 3.8°C | 19% | 701hPa | 2.7V | 07:04:35 | 03:37:19 | 00:00:00 | |
| DM0DOS-11 | 2026-09-03 13:56:45 | 52.68494 | 10.72781 | 101° | 82km/h | 3097m | -2.4m/s | 3.8°C | 19.1% | 702hPa | 2.7V | 07:04:31 | 03:37:23 | 00:00:00 | |
| DM0DOS-11 | 2026-09-03 13:56:45 | 52.68520 | 10.72622 | 107° | 75km/h | 3109m | -2.2m/s | 3.8°C | 19% | 701hPa | 2.7V | 07:04:36 | 03:37:18 | 00:00:00 | |
| AA1-15 | 2026-09-03 13:56:44 | 52.68499 | 10.72748 | 103° | 80km/h | 3100m | -2.5m/s | 3.8°C | 21.1% | 701.9hPa | 2.7V | 07:05:09 | 03:37:22 | 00:00:00 | |
| DL1XH-west | 2026-09-03 13:56:43 | 52.68504 | 10.72716 | 105° | 80km/h | 3102m | -2.3m/s | 3.8°C | 20.9% | 701.5hPa | 2.7V | 07:05:09 | 03:37:21 | 00:00:00 | |
| DL1XH-15 | 2026-09-03 13:56:42 | 52.68536 | 10.72535 | 106° | 71km/h | 3116m | -2.4m/s | 3.8°C | 18.1% | 700.3hPa | 2.7V | 07:04:39 | 03:37:15 | 00:00:00 | |
| DL1XH1-15 | 2026-09-03 13:56:41 | 52.68541 | 10.72507 | 106° | 69km/h | 3119m | -2.6m/s | 3.8°C | 17.8% | 700hPa | 2.7V | 07:04:40 | 03:37:14 | 00:00:00 | |
| DB0DAN | 2026-09-03 13:56:40 | 52.68520 | 10.72622 | 107° | 71km/h | 3109m | -2.2m/s | 3.8°C | 18.5% | 700.96hPa | 2.7V | 00:00:00 | 00:00:00 | 00:00:00 | |
| DM0DOS-11 | 2026-09-03 13:56:40 | 52.68546 | 10.72480 | 105° | 68km/h | 3121m | -2.6m/s | 3.8°C | 17.9% | 699.9hPa | 2.7V | 07:04:41 | 03:37:13 | 00:00:00 | |
| DF8AY | 2026-09-03 13:56:39 | 52.68531 | 10.72563 | 107° | 71km/h | 3114m | -2.6m/s | 3.8°C | 19.9% | 700.6hPa | 2.7V | 07:05:09 | 03:37:16 | 00:00:00 | |
| DF8AY-15 | 2026-09-03 13:56:38 | 52.68531 | 10.72563 | 108° | 69km/h | 3114m | -2.6m/s | 3.7°C | 18.4% | 700.5hPa | 2.7V | 07:04:00 | 03:37:16 | 00:00:00 | |
| DM0DOS-11 | 2026-09-03 13:56:35 | 52.68566 | 10.72346 | 101° | 66km/h | 3134m | -2.4m/s | 3.6°C | 18.1% | 698.8hPa | 2.7V | 07:04:46 | 03:37:08 | 00:00:00 | |
| BIOWL1-15 | 2026-09-03 13:56:34 | 52.68551 | 10.72452 | 105° | 68km/h | 3124m | -2.4m/s | 3.7°C | 19.4% | 699.6hPa | 2.7V | 07:06:51 | 03:37:12 | 00:00:00 | |
| DL1XH-west | 2026-09-03 13:56:33 | 52.68555 | 10.72426 | 104° | 66km/h | 3126m | -2.5m/s | 3.7°C | 19.5% | 699.5hPa | 2.7V | 07:05:09 | 03:37:11 | 00:00:00 | |
| DL1XH-15 | 2026-09-03 13:56:32 | 52.68559 | 10.72399 | 103° | 66km/h | 3129m | -2.6m/s | 3.7°C | 18.1% | 699.2hPa | 2.7V | 07:04:44 | 03:37:10 | 00:00:00 | |
| DL1XH1-15 | 2026-09-03 13:56:31 | 52.68563 | 10.72372 | 102° | 66km/h | 3131m | -2.5m/s | 3.7°C | 18.1% | 699.1hPa | 2.7V | 07:04:45 | 03:37:09 | 00:00:00 | |
| DL1XH1-15 | 2026-09-03 13:56:31 | 52.68576 | 10.72237 | 96° | 68km/h | 3144m | -2.5m/s | 3.5°C | 17.9% | 697.9hPa | 2.7V | 07:04:50 | 03:37:04 | 00:00:00 | |
| DM0DOS-11 | 2026-09-03 13:56:30 | 52.68578 | 10.72209 | 95° | 68km/h | 3146m | -2.5m/s | 3.5°C | 17.9% | 697.7hPa | 2.7V | 07:04:51 | 03:37:03 | 00:00:00 | |
| DF8AY | 2026-09-03 13:56:27 | 52.68574 | 10.72265 | 97° | 66km/h | 3141m | -2.5m/s | 3.6°C | 19.8% | 698.2hPa | 2.7V | 07:05:09 | 03:37:05 | 00:00:00 | |
| DB0DAN | 2026-09-03 13:56:25 | 52.68578 | 10.72209 | 96° | 66km/h | 3146m | -2.5m/s | 3.5°C | 17.5% | 697.67hPa | 2.7V | 00:00:00 | 00:00:00 | 00:00:00 | |
| DM0DOS-11 | 2026-09-03 13:56:25 | 52.68586 | 10.72059 | 96° | 77km/h | 3159m | -2.4m/s | 3.4°C | 17% | 696.7hPa | 2.7V | 07:04:56 | 03:36:58 | 00:00:00 | |
| DL1XH-15 | 2026-09-03 13:56:24 | 52.68588 | 10.72026 | 97° | 78km/h | 3161m | -2.4m/s | 3.4°C | 17% | 696.5hPa | 2.7V | 07:04:57 | 03:36:57 | 00:00:00 | |
| AA1-15 | 2026-09-03 13:56:23 | 52.68581 | 10.72151 | 95° | 71km/h | 3151m | -2.5m/s | 3.5°C | 19.6% | 697.3hPa | 2.7V | 07:05:09 | 03:37:01 | 00:00:00 | |
| DL1XH-west | 2026-09-03 13:56:22 | 52.68582 | 10.72121 | 95° | 73km/h | 3154m | -2.5m/s | 3.5°C | 19.2% | 697.1hPa | 2.7V | 07:05:09 | 03:37:00 | 00:00:00 | |
| DL1XH1-15 | 2026-09-03 13:56:21 | 52.68599 | 10.71928 | 102° | 80km/h | 3168m | -2.4m/s | 3.4°C | 16.9% | 695.9hPa | 2.7V | 07:05:00 | 03:36:54 | 00:00:00 | |
| DL1XH-15 | 2026-09-03 13:56:19 | 52.68608 | 10.71864 | 105° | 77km/h | 3173m | -2.5m/s | 3.4°C | 17.1% | 695.4hPa | 2.7V | 07:05:02 | 03:36:52 | 00:00:00 | |
| DF8AY | 2026-09-03 13:56:17 | 52.68595 | 10.71961 | 101° | 80km/h | 3166m | -2.5m/s | 3.4°C | 18.9% | 696.1hPa | 2.7V | 07:05:09 | 03:36:55 | 00:00:00 | |
| DM0DOS-11 | 2026-09-03 13:56:15 | 52.68604 | 10.71896 | 103° | 78km/h | 3170m | -2.2m/s | 3.4°C | 17% | 695.6hPa | 2.7V | 07:05:01 | 03:36:53 | 00:00:00 | |
| DM0DOS-11 | 2026-09-03 13:56:15 | 52.68629 | 10.71746 | 105° | 69km/h | 3182m | -2.3m/s | 3.3°C | 16.9% | 694.6hPa | 2.7V | 07:05:06 | 03:36:48 | 00:00:00 | |
| AA1-15 | 2026-09-03 13:56:12 | 52.68619 | 10.71803 | 107° | 75km/h | 3178m | -2.2m/s | 3.4°C | 18.4% | 695hPa | 2.6V | 07:05:09 | 03:36:50 | 00:00:00 | |
| DL1XH-west | 2026-09-03 13:56:11 | 52.68624 | 10.71774 | 106° | 73km/h | 3180m | -2.3m/s | 3.4°C | 18.2% | 694.8hPa | 2.7V | 07:05:09 | 03:36:49 | 00:00:00 | |
| DB0DAN | 2026-09-03 13:56:10 | 52.68629 | 10.71746 | 106° | 66km/h | 3182m | -2.3m/s | 3.3°C | 16.5% | 694.59hPa | 2.7V | 00:00:00 | 00:00:00 | 00:00:00 | |
| DL1XH-15 | 2026-09-03 13:56:09 | 52.68634 | 10.71718 | 104° | 68km/h | 3184m | -2.2m/s | 3.3°C | 16.8% | 694.4hPa | 2.7V | 07:05:07 | 03:36:47 | 00:00:00 | |
| DL1XH-15 | 2026-09-03 13:56:09 | 52.68649 | 10.71583 | 96° | 66km/h | 3196m | -2.4m/s | 3.3°C | 16.8% | 693.4hPa | 2.7V | 07:05:12 | 03:36:42 | 00:00:00 | |
| DF8AY | 2026-09-03 13:56:06 | 52.68644 | 10.71637 | 100° | 66km/h | 3191m | -2.3m/s | 3.3°C | 17.9% | 693.9hPa | 2.7V | 07:06:00 | 03:36:44 | 00:00:00 | |
| DM0DOS-11 | 2026-09-03 13:56:05 | 52.68647 | 10.71611 | 97° | 66km/h | 3193m | -2.4m/s | 3.3°C | 16.8% | 693.6hPa | 2.7V | 07:05:11 | 03:36:43 | 00:00:00 | |
| BIOWL1-15 | 2026-09-03 13:56:05 | 52.68647 | 10.71611 | 98° | 66km/h | 3193m | -2.4m/s | 3.3°C | 17.8% | 693.6hPa | 2.7V | 07:06:51 | 03:36:43 | 00:00:00 | |
| DJ2DS-15 | 2026-09-03 13:56:05 | 52.68647 | 10.71610 | 98° | 73km/h | 3194m | -2.4m/s | 3.3°C | 16.8% | 693.6hPa | 2.7V | 00:00:00 | 03:36:43 | 00:00:00 | |
| DL1XH-15 | 2026-09-03 13:56:04 | 52.68656 | 10.71443 | 93° | 69km/h | 3208m | -2.5m/s | 3.1°C | 16.9% | 692.4hPa | 2.7V | 07:05:17 | 03:36:37 | 00:00:00 | |
| SONCRA | 2026-09-03 13:56:03 | 52.68651 | 10.71556 | 95° | 66km/h | 3198m | -2.4m/s | 3.2°C | 16.4% | 693.2hPa | 2.7V | 00:00:00 | 00:00:00 | 00:00:00 | |
| DL1XH1-15 | 2026-09-03 13:56:01 | 52.68653 | 10.71500 | 93° | 68km/h | 3203m | -2.4m/s | 3.1°C | 16.9% | 692.9hPa | 2.7V | 07:05:15 | 03:36:39 | 00:00:00 | |
| DL1XH-west | 2026-09-03 13:56:01 | 52.68654 | 10.71500 | 94° | 68km/h | 3203m | -2.4m/s | 3.1°C | 18.2% | 692.9hPa | 2.7V | 07:06:00 | 03:36:39 | 00:00:00 | |
| DL1XH-15 | 2026-09-03 13:55:59 | 52.68661 | 10.71292 | 93° | 75km/h | 3220m | -2.4m/s | 3°C | 16.9% | 691.3hPa | 2.6V | 07:05:22 | 03:36:32 | 00:00:00 | |
| DF8AY-15 | 2026-09-03 13:55:58 | 52.68657 | 10.71414 | 93° | 75km/h | 3211m | -2.5m/s | 3.0°C | 17.0% | 692.2hPa | 2.7V | 00:00:00 | 03:36:36 | 00:00:00 | |
| DB0DAN | 2026-09-03 13:55:55 | 52.68660 | 10.71323 | 93° | 71km/h | 3218m | -2.4m/s | 3°C | 16.6% | 691.46hPa | 2.7V | 00:00:00 | 00:00:00 | 00:00:00 | |
| DF8AY | 2026-09-03 13:55:55 | 52.68660 | 10.71323 | 93° | 75km/h | 3218m | -2.4m/s | 3°C | 18.7% | 691.5hPa | 2.7V | 07:06:00 | 03:36:33 | 00:00:00 | |
| DL1XH-15 | 2026-09-03 13:55:54 | 52.68669 | 10.71130 | 97° | 80km/h | 3232m | -2.4m/s | 3°C | 16.3% | 690.4hPa | 2.7V | 07:05:27 | 03:36:27 | 00:00:00 | |
| DL1XH1-15 | 2026-09-03 13:55:51 | 52.68665 | 10.71196 | 95° | 78km/h | 3227m | -2.3m/s | 3°C | 16.8% | 690.8hPa | 2.7V | 07:05:25 | 03:36:29 | 00:00:00 | |
| DL1XH1-15 | 2026-09-03 13:55:51 | 52.68680 | 10.71031 | 102° | 78km/h | 3239m | -2.3m/s | 3.1°C | 15.3% | 689.8hPa | 2.7V | 07:05:30 | 03:36:24 | 00:00:00 | |
| AA1-15 | 2026-09-03 13:55:51 | 52.68665 | 10.71196 | 95° | 78km/h | 3227m | -2.3m/s | 3.1°C | 18.8% | 690.8hPa | 2.7V | 07:06:00 | 03:36:29 | 00:00:00 | |
| DL1XH-west | 2026-09-03 13:55:50 | 52.68667 | 10.71163 | 96° | 80km/h | 3229m | -2.2m/s | 3°C | 18.3% | 690.6hPa | 2.7V | 07:06:00 | 03:36:28 | 00:00:00 | |
| DF7ER-10 | 2026-09-03 13:55:48 | 52.68669 | 10.71130 | 99° | 80km/h | 3232m | -2.4m/s | 3.0°C | 15.9% | 690.4hPa | 2.7V | 07:06:00 | 00:00:00 | 00:00:00 | |
| DM0DOS-11 | 2026-09-03 13:55:45 | 52.68708 | 10.70852 | 104° | 68km/h | 3253m | -2.2m/s | 3°C | 14.4% | 688.5hPa | 2.7V | 07:05:36 | 03:36:18 | 00:00:00 | |
| DL1XH-15 | 2026-09-03 13:55:44 | 52.68689 | 10.70968 | 104° | 77km/h | 3243m | -2.2m/s | 3.1°C | 14.9% | 689.4hPa | 2.7V | 07:05:32 | 03:36:22 | 00:00:00 | |
| DF8AY | 2026-09-03 13:55:44 | 52.68689 | 10.70968 | 105° | 77km/h | 3243m | -2.2m/s | 3.1°C | 16.2% | 689.4hPa | 2.7V | 07:06:00 | 03:36:22 | 00:00:00 | |
| DL1XH1-15 | 2026-09-03 13:55:41 | 52.68704 | 10.70880 | 105° | 69km/h | 3250m | -2.3m/s | 3°C | 14.5% | 688.8hPa | 2.7V | 07:05:35 | 03:36:19 | 00:00:00 | |
| DL1XH1-15 | 2026-09-03 13:55:41 | 52.68722 | 10.70745 | 97° | 66km/h | 3262m | -2.3m/s | 3.1°C | 14.4% | 687.9hPa | 2.7V | 07:05:40 | 03:36:14 | 00:00:00 | |
| DB0DAN | 2026-09-03 13:55:40 | 52.68709 | 10.70852 | 105° | 66km/h | 3253m | -2.2m/s | 3.1°C | 14% | 688.53hPa | 2.7V | 00:00:00 | 00:00:00 | 00:00:00 | |
| AA1-15 | 2026-09-03 13:55:40 | 52.68709 | 10.70852 | 105° | 68km/h | 3253m | -2.2m/s | 3.1°C | 15.2% | 688.5hPa | 2.7V | 07:06:00 | 03:36:18 | 00:00:00 | |
| DL1XH-west | 2026-09-03 13:55:39 | 52.68713 | 10.70825 | 103° | 68km/h | 3255m | -2.3m/s | 3.1°C | 14.9% | 688.4hPa | 2.7V | 07:06:00 | 03:36:17 | 00:00:00 | |
| DF8AY | 2026-09-03 13:55:34 | 52.68726 | 10.70690 | 95° | 68km/h | 3266m | -2.4m/s | 3°C | 14.7% | 687.4hPa | 2.7V | 07:06:00 | 03:36:12 | 00:00:00 | |
| DL1XH1-15 | 2026-09-03 13:55:31 | 52.68729 | 10.70603 | 93° | 73km/h | 3273m | -2m/s | 2.9°C | 15% | 686.8hPa | 2.7V | 07:05:45 | 03:36:09 | 00:00:00 | |
| DL1XH1-15 | 2026-09-03 13:55:31 | 52.68739 | 10.70441 | 97° | 80km/h | 3284m | -2.2m/s | 2.9°C | 16.1% | 685.9hPa | 2.7V | 07:05:50 | 03:36:04 | 00:00:00 | |
| DM0DOS-11 | 2026-09-03 13:55:30 | 52.68731 | 10.70571 | 93° | 77km/h | 3275m | -2.1m/s | 2.9°C | 15.2% | 686.7hPa | 2.7V | 07:05:46 | 03:36:08 | 00:00:00 | |
| DM0DOS-11 | 2026-09-03 13:55:30 | 52.68741 | 10.70407 | 98° | 82km/h | 3286m | -2.2m/s | 2.9°C | 16.3% | 685.8hPa | 2.7V | 07:05:51 | 03:36:03 | 00:00:00 | |
| DL1XH-15 | 2026-09-03 13:55:29 | 52.68732 | 10.70539 | 94° | 77km/h | 3278m | -2.1m/s | 2.9°C | 15.2% | 686.5hPa | 2.7V | 07:05:47 | 03:36:07 | 00:00:00 | |
| DL1XH-west | 2026-09-03 13:55:29 | 52.68732 | 10.70539 | 95° | 77km/h | 3278m | -2.2m/s | 2.9°C | 16.1% | 686.5hPa | 2.7V | 07:06:00 | 03:36:07 | 00:00:00 | |
| DF7ER-10 | 2026-09-03 13:55:27 | 52.68734 | 10.70507 | 96° | 78km/h | 3280m | -2.1m/s | 2.9°C | 14.9% | 686.3hPa | 2.7V | 07:06:00 | 00:00:00 | 00:00:00 | |
| DL1XH1-15 | 2026-09-03 13:55:26 | 52.68756 | 10.70274 | 102° | 80km/h | 3295m | -2.3m/s | 2.9°C | 16.4% | 685hPa | 2.7V | 07:05:55 | 03:35:59 | 00:00:00 | |
| DB0DAN | 2026-09-03 13:55:25 | 52.68741 | 10.70407 | 99° | 77km/h | 3286m | -2.2m/s | 2.9°C | 15.9% | 685.83hPa | 2.7V | 00:00:00 | 00:00:00 | 00:00:00 | |
| DM0DOS-11 | 2026-09-03 13:55:24 | 52.68765 | 10.70210 | 104° | 78km/h | 3300m | -2.2m/s | 2.9°C | 16.2% | 684.6hPa | 2.7V | 07:05:57 | 03:35:57 | 00:00:00 | |
| DF8AY | 2026-09-03 13:55:23 | 52.68748 | 10.70340 | 101° | 82km/h | 3291m | -2.4m/s | 2.9°C | 18% | 685.4hPa | 2.6V | 07:06:00 | 03:36:01 | 00:00:00 | |
| DJ2DS-15 | 2026-09-03 13:55:23 | 52.68748 | 10.70340 | 101° | 73km/h | 3291m | -2.3m/s | 2.9°C | 16.3% | 685.4hPa | 2.7V | 00:00:00 | 03:36:01 | 00:00:00 | |
| DL1XH1-15 | 2026-09-03 13:55:21 | 52.68781 | 10.70116 | 105° | 77km/h | 3307m | -2.3m/s | 2.9°C | 16.2% | 684hPa | 2.7V | 07:06:00 | 03:35:54 | 00:00:00 | |
| DL1XH-west | 2026-09-03 13:55:19 | 52.68765 | 10.70210 | 104° | 78km/h | 3300m | -2.2m/s | 2.9°C | 18.1% | 684.6hPa | 2.7V | 07:06:00 | 03:35:57 | 00:00:00 | |
| BIOWL1-15 | 2026-09-03 13:55:18 | 52.68770 | 10.70178 | 105° | 78km/h | 3302m | -2.4m/s | 2.9°C | 18.1% | 684.4hPa | 2.7V | 07:06:51 | 03:35:56 | 00:00:00 | |
| DF8AY-15 | 2026-09-03 13:55:18 | 52.68770 | 10.70178 | 105° | 73km/h | 3302m | -2.3m/s | 2.8°C | 16.3% | 684.4hPa | 2.7V | 00:00:00 | 03:35:56 | 00:00:00 | |
| DL1XH1-15 | 2026-09-03 13:55:16 | 52.68807 | 10.69970 | 104° | 68km/h | 3318m | -2.3m/s | 2.8°C | 16.1% | 682.9hPa | 2.7V | 07:06:05 | 03:35:49 | 00:00:00 | |
| DL1XH-15 | 2026-09-03 13:55:15 | 52.68814 | 10.69916 | 100° | 66km/h | 3323m | -2.1m/s | 2.7°C | 16.2% | 682.7hPa | 2.7V | 07:06:07 | 03:35:47 | 00:00:00 | |
| DF8AY | 2026-09-03 13:55:12 | 52.68802 | 10.69998 | 106° | 69km/h | 3316m | -2.1m/s | 2.8°C | 17.3% | 683.2hPa | 2.7V | 07:06:51 | 03:35:50 | 00:00:00 | |
| TFSTFS | 2026-09-03 13:55:11 | 52.68802 | 10.69998 | 107° | 69km/h | 3316m | -2.1m/s | 2.8°C | 15.7% | 683.2hPa | 2.7V | 00:00:00 | 00:00:00 | 00:00:00 | |
| DB0DAN | 2026-09-03 13:55:10 | 52.68811 | 10.69943 | 103° | 64km/h | 3320m | -2.2m/s | 2.8°C | 15.8% | 682.86hPa | 2.7V | 00:00:00 | 00:00:00 | 00:00:00 | |
| DL1XH-west | 2026-09-03 13:55:08 | 52.68817 | 10.69889 | 98° | 68km/h | 3325m | -2.2m/s | 2.7°C | 17.3% | 682.5hPa | 2.7V | 07:06:51 | 03:35:46 | 00:00:00 | |
| AA1-15 | 2026-09-03 13:55:07 | 52.68819 | 10.69861 | 96° | 68km/h | 3327m | -2.3m/s | 2.7°C | 17.3% | 682.4hPa | 2.7V | 07:06:51 | 03:35:45 | 00:00:00 | |
| DL1XH1-15 | 2026-09-03 13:55:06 | 52.68820 | 10.69832 | 94° | 69km/h | 3329m | -2.2m/s | 2.7°C | 16.1% | 682hPa | 2.7V | 07:06:10 | 03:35:44 | 00:00:00 | |
| DL1XH1-15 | 2026-09-03 13:55:06 | 52.68827 | 10.69678 | 95° | 78km/h | 3341m | -2.2m/s | 2.5°C | 16.3% | 681.1hPa | 2.6V | 07:06:15 | 03:35:39 | 00:00:00 | |
| BIOWL1-15 | 2026-09-03 13:55:06 | 52.68823 | 10.69773 | 94° | 73km/h | 3334m | -2.2m/s | 2.6°C | 17.6% | 681.7hPa | 2.7V | 07:06:51 | 03:35:42 | 00:00:00 | |
| DM0DOS-11 | 2026-09-03 13:55:04 | 52.68823 | 10.69773 | 93° | 73km/h | 3334m | -2.2m/s | 2.6°C | 16.2% | 681.7hPa | 2.7V | 07:06:12 | 03:35:42 | 00:00:00 | |
| DF8AY | 2026-09-03 13:55:02 | 52.68826 | 10.69710 | 95° | 77km/h | 3338m | -2.4m/s | 2.6°C | 17.7% | 681.3hPa | 2.6V | 07:06:51 | 03:35:40 | 00:00:00 | |
| SONCRA | 2026-09-03 13:55:01 | 52.68827 | 10.69678 | 95° | 77km/h | 3341m | -2.2m/s | 2.5°C | 15.9% | 681.1hPa | 2.7V | 00:00:00 | 00:00:00 | 00:00:00 | |
| DL1XH-15 | 2026-09-03 13:54:59 | 52.68832 | 10.69613 | 97° | 80km/h | 3345m | -2.3m/s | 2.5°C | 16.3% | 680.7hPa | 2.7V | 07:06:17 | 03:35:37 | 00:00:00 | |
| DM0DOS-11 | 2026-09-03 13:54:59 | 52.68852 | 10.69447 | 105° | 80km/h | 3356m | -2.1m/s | 2.6°C | 16.4% | 679.7hPa | 2.7V | 07:06:22 | 03:35:32 | 00:00:00 | |
| DL1XH-west | 2026-09-03 13:54:58 | 52.68835 | 10.69579 | 99° | 80km/h | 3347m | -2.1m/s | 2.6°C | 18% | 680.5hPa | 2.7V | 07:06:51 | 03:35:36 | 00:00:00 | |
| AA1-15 | 2026-09-03 13:54:57 | 52.68838 | 10.69546 | 101° | 82km/h | 3349m | -2.3m/s | 2.5°C | 18.2% | 680.4hPa | 2.7V | 07:06:51 | 03:35:35 | 00:00:00 | |
| DL1XH1-15 | 2026-09-03 13:54:56 | 52.68843 | 10.69513 | 102° | 82km/h | 3352m | -2.3m/s | 2.5°C | 16.4% | 680.2hPa | 2.7V | 07:06:20 | 03:35:34 | 00:00:00 | |
| DB0DAN | 2026-09-03 13:54:55 | 52.68847 | 10.69480 | 104° | 77km/h | 3354m | -2.1m/s | 2.6°C | 16% | 679.99hPa | 2.7V | 00:00:00 | 00:00:00 | 00:00:00 | |
| DL1XH-15 | 2026-09-03 13:54:54 | 52.68880 | 10.69294 | 108° | 73km/h | 3368m | -2.5m/s | 2.5°C | 16.3% | 678.9hPa | 2.7V | 07:06:27 | 03:35:27 | 00:00:00 | |
| DF8AY | 2026-09-03 13:54:51 | 52.68869 | 10.69353 | 107° | 77km/h | 3363m | -2.3m/s | 2.6°C | 18% | 679.3hPa | 2.6V | 07:06:51 | 03:35:29 | 00:00:00 | |
| DL1XH-west | 2026-09-03 13:54:47 | 52.68891 | 10.69237 | 107° | 69km/h | 3372m | -2.2m/s | 2.6°C | 16.9% | 678.5hPa | 2.7V | 07:06:51 | 03:35:25 | 00:00:00 | |
| DL1XH1-15 | 2026-09-03 13:54:46 | 52.68914 | 10.69072 | 97° | 71km/h | 3385m | -2.1m/s | 2.4°C | 14.1% | 677.4hPa | 2.7V | 07:06:35 | 03:35:19 | 00:00:00 | |
| AA1-15 | 2026-09-03 13:54:46 | 52.68896 | 10.69209 | 106° | 68km/h | 3375m | -2.3m/s | 2.6°C | 16.3% | 678.3hPa | 2.7V | 07:06:51 | 03:35:24 | 00:00:00 | |
| DF7ER-10 | 2026-09-03 13:54:45 | 52.68896 | 10.69209 | 107° | 68km/h | 3375m | -2.3m/s | 2.6°C | 15.0% | 678.3hPa | 2.7V | 07:06:00 | 00:00:00 | 00:00:00 | |
| DM0DOS-11 | 2026-09-03 13:54:44 | 52.68905 | 10.69155 | 102° | 66km/h | 3379m | -2.1m/s | 2.6°C | 14.8% | 677.9hPa | 2.7V | 07:06:32 | 03:35:22 | 00:00:00 | |
| DM0DOS-11 | 2026-09-03 13:54:44 | 52.68918 | 10.69011 | 96° | 77km/h | 3390m | -2.2m/s | 2.4°C | 13.7% | 677hPa | 2.6V | 07:06:37 | 03:35:17 | 00:00:00 | |
| DJ2DS-15 | 2026-09-03 13:54:43 | 52.68908 | 10.69128 | 101° | 78km/h | 3381m | -2.1m/s | 2.5°C | 14.6% | 677.7hPa | 2.7V | 00:00:00 | 03:35:21 | 00:00:00 | |
| SMARD9-10 | 2026-09-03 13:54:42 | 52.68908 | 10.69128 | 101° | 68km/h | 3381m | -2.2m/s | 2.5°C | 14.2% | 677.7hPa | 2.7V | 00:00:00 | 00:00:00 | 00:00:00 | |
| DL1XH1-15 | 2026-09-03 13:54:41 | 52.68926 | 10.68913 | 98° | 80km/h | 3397m | -2.3m/s | 2.4°C | 13.5% | 676.4hPa | 2.7V | 07:06:40 | 03:35:14 | 00:00:00 | |
| BIOWL1-15 | 2026-09-03 13:54:41 | 52.68914 | 10.69072 | 97° | 71km/h | 3385m | -2.1m/s | 2.4°C | 14.9% | 677.4hPa | 2.7V | 07:06:51 | 03:35:19 | 00:00:00 | |
| DB0DAN | 2026-09-03 13:54:40 | 52.68916 | 10.69042 | 97° | 69km/h | 3388m | -2.3m/s | 2.4°C | 13.6% | 677.18hPa | 2.6V | 00:00:00 | 00:00:00 | 00:00:00 | |
| DL1XH-west | 2026-09-03 13:54:36 | 52.68926 | 10.68913 | 99° | 80km/h | 3397m | -2.3m/s | 2.4°C | 14.2% | 676.4hPa | 2.7V | 07:06:51 | 03:35:14 | 00:00:00 | |
| AA1-15 | 2026-09-03 13:54:35 | 52.68929 | 10.68880 | 100° | 82km/h | 3399m | -2.3m/s | 2.4°C | 14.4% | 676.3hPa | 2.7V | 07:06:51 | 03:35:13 | 00:00:00 | |
| DL1XH-15 | 2026-09-03 13:54:34 | 52.68933 | 10.68847 | 100° | 82km/h | 3401m | -2.3m/s | 2.4°C | 13.5% | 675.9hPa | 2.7V | 07:06:42 | 03:35:12 | 00:00:00 | |
| DL1XH-15 | 2026-09-03 13:54:34 | 52.68956 | 10.68679 | 105° | 82km/h | 3413m | -2.5m/s | 2.3°C | 13.4% | 675hPa | 2.7V | 07:06:47 | 03:35:07 | 00:00:00 | |
| DF8AY | 2026-09-03 13:54:30 | 52.68951 | 10.68712 | 104° | 82km/h | 3411m | -2.3m/s | 2.3°C | 14.6% | 675.3hPa | 2.7V | 07:06:51 | 03:35:08 | 00:00:00 | |
| DM0DOS-11 | 2026-09-03 13:54:29 | 52.68986 | 10.68521 | 108° | 77km/h | 3425m | -2.4m/s | 2.4°C | 13% | 674hPa | 2.7V | 07:06:52 | 03:35:02 | 00:00:00 | |
| BIOWL1-15 | 2026-09-03 13:54:29 | 52.68956 | 10.68679 | 105° | 82km/h | 3413m | -2.5m/s | 2.3°C | 14.5% | 675.1hPa | 2.7V | 07:06:51 | 03:35:07 | 00:00:00 | |
| DL1XH1-15 | 2026-09-03 13:54:26 | 52.68974 | 10.68583 | 107° | 78km/h | 3420m | -2.5m/s | 2.4°C | 13.1% | 674.4hPa | 2.7V | 07:06:50 | 03:35:04 | 00:00:00 | |
| DL1XH-west | 2026-09-03 13:54:26 | 52.68974 | 10.68583 | 108° | 78km/h | 3420m | -2.5m/s | 2.4°C | 14.1% | 674.4hPa | 2.7V | 07:06:51 | 03:35:04 | 00:00:00 | |
| DB0DAN | 2026-09-03 13:54:25 | 52.68980 | 10.68552 | 109° | 75km/h | 3423m | -2.4m/s | 2.4°C | 12.7% | 674.26hPa | 2.7V | 00:00:00 | 00:00:00 | 00:00:00 | |
| AA1-15 | 2026-09-03 13:54:24 | 52.68986 | 10.68521 | 109° | 77km/h | 3425m | -2.4m/s | 2.4°C | 13.9% | 674hPa | 2.7V | 07:07:42 | 03:35:02 | 00:00:00 | |
| DF8AY | 2026-09-03 13:54:19 | 52.69017 | 10.68377 | 108° | 69km/h | 3437m | -2.4m/s | 2.2°C | 13.7% | 673hPa | 2.7V | 07:07:42 | 03:34:57 | 00:00:00 | |
| BIOWL1-15 | 2026-09-03 13:54:17 | 52.69034 | 10.68269 | 100° | 68km/h | 3446m | -2.3m/s | 2.2°C | 13.6% | 672.3hPa | 2.7V | 07:07:42 | 03:34:53 | 00:00:00 | |
| DL1XH1-15 | 2026-09-03 13:54:16 | 52.69030 | 10.68296 | 102° | 66km/h | 3444m | -2.4m/s | 2.2°C | 13% | 672.5hPa | 2.7V | 07:07:00 | 03:34:54 | 00:00:00 | |
| DL1XH1-15 | 2026-09-03 13:54:16 | 52.69045 | 10.68150 | 98° | 77km/h | 3456m | -2.4m/s | 2°C | 12.6% | 671.5hPa | 2.6V | 07:07:05 | 03:34:49 | 00:00:00 | |
| DL1XH-west | 2026-09-03 13:54:16 | 52.69030 | 10.68296 | 102° | 66km/h | 3444m | -2.4m/s | 2.2°C | 13.6% | 672.5hPa | 2.7V | 07:07:42 | 03:34:54 | 00:00:00 | |
| DO2SHX-10 | 2026-09-03 13:54:15 | 52.69034 | 10.68269 | 101° | 73km/h | 3446m | -2.3m/s | 2.1°C | 12.9% | 672.2hPa | 2.7V | 00:00:00 | 03:34:53 | 00:00:00 | |
| DM0DOS-11 | 2026-09-03 13:54:14 | 52.69051 | 10.68086 | 100° | 80km/h | 3460m | -2.3m/s | 2°C | 12.6% | 671.1hPa | 2.7V | 07:07:07 | 03:34:47 | 00:00:00 | |
| AA1-15 | 2026-09-03 13:54:14 | 52.69037 | 10.68241 | 99° | 69km/h | 3449m | -2.3m/s | 2.1°C | 13.5% | 672.1hPa | 2.7V | 07:07:42 | 03:34:52 | 00:00:00 | |
| DF7ER-10 | 2026-09-03 13:54:13 | 52.69036 | 10.68240 | 100° | 69km/h | 3449m | -2.3m/s | 2.1°C | 12.5% | 672.1hPa | 2.7V | 07:07:00 | 00:00:00 | 00:00:00 | |
| DL1XH1-15 | 2026-09-03 13:54:11 | 52.69065 | 10.67987 | 104° | 82km/h | 3467m | -2.4m/s | 2°C | 12.5% | 670.6hPa | 2.7V | 07:07:10 | 03:34:44 | 00:00:00 | |
| DB0DAN | 2026-09-03 13:54:10 | 52.69048 | 10.68119 | 99° | 75km/h | 3458m | -2.4m/s | 2°C | 12.2% | 671.31hPa | 2.7V | 00:00:00 | 00:00:00 | 00:00:00 | |
| DF8AY | 2026-09-03 13:54:09 | 52.69051 | 10.68086 | 101° | 80km/h | 3460m | -2.3m/s | 2°C | 13.2% | 671.1hPa | 2.7V | 07:07:42 | 03:34:47 | 00:00:00 | |
| DO2SHX-10 | 2026-09-03 13:54:08 | 52.69055 | 10.68053 | 102° | 80km/h | 3463m | -2.4m/s | 1.9°C | 12.5% | 670.9hPa | 2.6V | 00:00:00 | 03:34:46 | 00:00:00 | |
| DL1XH1-15 | 2026-09-03 13:54:06 | 52.69094 | 10.67823 | 108° | 80km/h | 3480m | -2.5m/s | 1.9°C | 12.7% | 669.5hPa | 2.6V | 07:07:15 | 03:34:39 | 00:00:00 | |
| DL1XH-west | 2026-09-03 13:54:05 | 52.69070 | 10.67953 | 105° | 82km/h | 3470m | -2.4m/s | 2°C | 13.3% | 670.4hPa | 2.7V | 07:07:42 | 03:34:43 | 00:00:00 | |
| DM0DOS-11 | 2026-09-03 13:54:04 | 52.69075 | 10.67920 | 106° | 82km/h | 3472m | -2.3m/s | 2°C | 12.6% | 670.1hPa | 2.7V | 07:07:12 | 03:34:42 | 00:00:00 | |
| BIOWL1-15 | 2026-09-03 13:54:03 | 52.69081 | 10.67887 | 107° | 82km/h | 3474m | -2.4m/s | 2°C | 13.6% | 669.9hPa | 2.7V | 07:07:42 | 03:34:41 | 00:00:00 | |
| DJ2DS-15 | 2026-09-03 13:54:03 | 52.69081 | 10.67887 | 108° | 73km/h | 3474m | -2.4m/s | 1.9°C | 12.7% | 669.9hPa | 2.7V | 00:00:00 | 03:34:41 | 00:00:00 | |
| DL1XH1-15 | 2026-09-03 13:54:01 | 52.69128 | 10.67672 | 111° | 73km/h | 3492m | -2.2m/s | 1.9°C | 13.2% | 668.4hPa | 2.7V | 07:07:20 | 03:34:34 | 00:00:00 | |
| DL1XH-15 | 2026-09-03 13:53:59 | 52.69108 | 10.67760 | 110° | 78km/h | 3484m | -2.5m/s | 1.9°C | 12.7% | 669hPa | 2.7V | 07:07:17 | 03:34:37 | 00:00:00 | |
| DF8AY | 2026-09-03 13:53:58 | 52.69115 | 10.67730 | 111° | 77km/h | 3487m | -2.5m/s | 1.9°C | 13.9% | 668.8hPa | 2.7V | 07:07:42 | 03:34:36 | 00:00:00 | |
| S3001 | 2026-09-03 13:53:57 | 52.69128 | 10.67672 | 111° | 71km/h | 3491m | -2.3m/s | 1.9°C | 12.9% | -1.0hPa | 2.7V | 00:00:00 | 00:00:00 | 00:00:00 | |
| DL1XH1-15 | 2026-09-03 13:53:56 | 52.69157 | 10.67537 | 106° | 66km/h | 3504m | -2.5m/s | 1.8°C | 13.7% | 667.4hPa | 2.7V | 07:07:25 | 03:34:29 | 00:00:00 | |
| SONDE2-11 | 2026-09-03 13:53:56 | 52.69128 | 10.67672 | 111° | 71km/h | 3491m | -2.3m/s | 1.9°C | 12.9% | 668.4hPa | 2.6V | 00:00:00 | 00:00:00 | 00:00:00 | |
| DB0DAN | 2026-09-03 13:53:55 | 52.69135 | 10.67644 | 111° | 68km/h | 3494m | -2.3m/s | 1.9°C | 13% | 668.28hPa | 2.6V | 00:00:00 | 00:00:00 | 00:00:00 | |
| DM0DOS-11 | 2026-09-03 13:53:54 | 52.69141 | 10.67616 | 110° | 69km/h | 3496m | -2.5m/s | 1.8°C | 13.4% | 668hPa | 2.7V | 07:07:22 | 03:34:32 | 00:00:00 | |
| DL1XH-west | 2026-09-03 13:53:54 | 52.69141 | 10.67616 | 110° | 69km/h | 3496m | -2.5m/s | 1.8°C | 14.4% | 668hPa | 2.7V | 07:07:42 | 03:34:32 | 00:00:00 | |
| AA1-15 | 2026-09-03 13:53:52 | 52.69152 | 10.67563 | 108° | 68km/h | 3501m | -2.4m/s | 1.8°C | 14.5% | 667.6hPa | 2.7V | 07:07:42 | 03:34:30 | 00:00:00 | |
| DJ2DS-15 | 2026-09-03 13:53:51 | 52.69162 | 10.67510 | 104° | 66km/h | 3506m | -2.4m/s | 1.8°C | 13.3% | 667.3hPa | 2.7V | 00:00:00 | 00:00:00 | 00:00:00 | |
| DO2SHX-10 | 2026-09-03 13:53:50 | 52.69162 | 10.67510 | 105° | 66km/h | 3506m | -2.4m/s | 1.7°C | 13.7% | 667.2hPa | 2.7V | 00:00:00 | 03:34:28 | 00:00:00 | |
| DM0DOS-11 | 2026-09-03 13:53:49 | 52.69183 | 10.67335 | 100° | 77km/h | 3521m | -2.5m/s | 1.5°C | 13.9% | 666.1hPa | 2.7V | 07:07:32 | 03:34:22 | 00:00:00 | |
| DF8AY | 2026-09-03 13:53:47 | 52.69173 | 10.67426 | 100° | 71km/h | 3513m | -2.5m/s | 1.6°C | 14.5% | 666.7hPa | 2.7V | 07:07:42 | 03:34:25 | 00:00:00 | |
| DL1XH1-15 | 2026-09-03 13:53:46 | 52.69176 | 10.67397 | 100° | 73km/h | 3516m | -2.5m/s | 1.6°C | 13.8% | 666.5hPa | 2.6V | 07:07:30 | 03:34:24 | 00:00:00 | |
| DL1XH-15 | 2026-09-03 13:53:44 | 52.69202 | 10.67172 | 102° | 82km/h | 3534m | -2.6m/s | 1.4°C | 14.5% | 665hPa | 2.7V | 07:07:37 | 03:34:17 | 00:00:00 | |
| DL1XH-west | 2026-09-03 13:53:44 | 52.69182 | 10.67335 | 100° | 77km/h | 3521m | -2.5m/s | 1.5°C | 14.7% | 666.1hPa | 2.7V | 07:07:42 | 03:34:22 | 00:00:00 | |
| BIOWL1-15 | 2026-09-03 13:53:42 | 52.69190 | 10.67271 | 101° | 80km/h | 3526m | -2.4m/s | 1.5°C | 14.9% | 665.7hPa | 2.7V | 07:07:42 | 03:34:20 | 00:00:00 | |
| DB0DAN | 2026-09-03 13:53:40 | 52.69198 | 10.67205 | 102° | 77km/h | 3531m | -2.6m/s | 1.4°C | 14.1% | 665.16hPa | 2.7V | 00:00:00 | 00:00:00 | 00:00:00 | |
| DF8AY | 2026-09-03 13:53:36 | 52.69216 | 10.67071 | 104° | 84km/h | 3542m | -2.7m/s | 1.4°C | 16.1% | 664.3hPa | 2.6V | 07:07:42 | 03:34:14 | 00:00:00 | |
| DL1XH-15 | 2026-09-03 13:53:34 | 52.69228 | 10.67003 | 106° | 84km/h | 3548m | -2.5m/s | 1.4°C | 14.4% | 663.8hPa | 2.7V | 07:07:42 | 03:34:12 | 00:00:00 | |
| DL1XH-15 | 2026-09-03 13:53:34 | 52.69262 | 10.66841 | 111° | 80km/h | 3561m | -2.6m/s | 1.3°C | 14.7% | 662.7hPa | 2.7V | 07:07:47 | 03:34:07 | 00:00:00 | |
| DL1XH-west | 2026-09-03 13:53:33 | 52.69234 | 10.66970 | 107° | 84km/h | 3550m | -2.6m/s | 1.3°C | 15.9% | 663.5hPa | 2.7V | 07:08:33 | 03:34:11 | 00:00:00 | |
| BIOWL1-15 | 2026-09-03 13:53:32 | 52.69240 | 10.66937 | 108° | 84km/h | 3553m | -2.7m/s | 1.3°C | 15.8% | 663.4hPa | 2.7V | 07:10:15 | 03:34:10 | 00:00:00 | |
| DL1XH1-15 | 2026-09-03 13:53:31 | 52.69283 | 10.66753 | 110° | 71km/h | 3568m | -2.4m/s | 1.2°C | 15.1% | 662.2hPa | 2.6V | 07:07:50 | 03:34:04 | 00:00:00 | |
| AA1-15 | 2026-09-03 13:53:31 | 52.69247 | 10.66904 | 110° | 82km/h | 3555m | -2.6m/s | 1.3°C | 15.8% | 663.3hPa | 2.7V | 07:08:33 | 03:34:09 | 00:00:00 | |
| DL4XJ-10 | 2026-09-03 13:53:30 | 52.69254 | 10.66872 | 111° | 77km/h | 3559m | -2.4m/s | 2.3°C | 0% | 0hPa | 2.7V | 00:00:00 | 00:00:00 | 00:00:00 | |
| DO2SHX-10 | 2026-09-03 13:53:28 | 52.69269 | 10.66810 | 112° | 77km/h | 3563m | -2.5m/s | 1.3°C | 14.8% | 662.5hPa | 2.7V | 00:00:00 | 03:34:06 | 00:00:00 | |
| DB0DAN | 2026-09-03 13:53:25 | 52.69288 | 10.66725 | 108° | 66km/h | 3570m | -2.4m/s | 1.2°C | 14.9% | 662.03hPa | 2.6V | 00:00:00 | 00:00:00 | 00:00:00 | |
| DF8AY | 2026-09-03 13:53:25 | 52.69288 | 10.66725 | 108° | 69km/h | 3570m | -2.4m/s | 1.2°C | 16.3% | 662hPa | 2.6V | 07:08:33 | 03:34:03 | 00:00:00 | |
| DM0DOS-11 | 2026-09-03 13:53:24 | 52.69294 | 10.66697 | 105° | 69km/h | 3573m | -2.5m/s | 1.1°C | 15.8% | 661.8hPa | 2.7V | 07:07:52 | 03:34:02 | 00:00:00 | |
| DL1XH-15 | 2026-09-03 13:53:24 | 52.69313 | 10.66552 | 100° | 75km/h | 3586m | -2.8m/s | 1.1°C | 16% | 660.7hPa | 2.7V | 07:07:57 | 03:33:57 | 00:00:00 | |
| BIOWL1-15 | 2026-09-03 13:53:23 | 52.69306 | 10.66612 | 102° | 71km/h | 3580m | -2.7m/s | 1.1°C | 16.9% | 661.1hPa | 2.7V | 07:10:15 | 03:33:59 | 00:00:00 | |
| DL1XH-west | 2026-09-03 13:53:22 | 52.69302 | 10.66641 | 103° | 71km/h | 3578m | -2.5m/s | 1.1°C | 16.9% | 661.4hPa | 2.7V | 07:08:33 | 03:34:00 | 00:00:00 | |
| DL1XH1-15 | 2026-09-03 13:53:21 | 52.69306 | 10.66612 | 101° | 71km/h | 3580m | -2.7m/s | 1.1°C | 15.9% | 661.1hPa | 2.7V | 07:07:55 | 03:33:59 | 00:00:00 | |
| AA1-15 | 2026-09-03 13:53:20 | 52.69310 | 10.66582 | 101° | 73km/h | 3583m | -2.5m/s | 1°C | 17% | 661hPa | 2.7V | 07:08:33 | 03:33:58 | 00:00:00 | |
| BIOWL9-15 | 2026-09-03 13:53:19 | 52.69316 | 10.66521 | 100° | 75km/h | 3588m | -2.7m/s | 1.0°C | 15.5% | 660.6hPa | 2.7V | 00:00:00 | 00:00:00 | 00:00:00 | |
| DF8AY-15 | 2026-09-03 13:53:18 | 52.69316 | 10.66521 | 101° | 80km/h | 3588m | -2.7m/s | 1.0°C | 16.0% | 660.5hPa | 2.7V | 00:00:00 | 03:33:56 | 00:00:00 | |
| DL1XH1-15 | 2026-09-03 13:53:16 | 52.69344 | 10.66287 | 103° | 86km/h | 3607m | -2.7m/s | 1°C | 16.3% | 658.8hPa | 2.7V | 07:08:05 | 03:33:49 | 00:00:00 | |
| DF8AY | 2026-09-03 13:53:15 | 52.69327 | 10.66424 | 101° | 82km/h | 3596m | -2.9m/s | 1°C | 18.1% | 659.8hPa | 2.6V | 07:08:33 | 03:33:53 | 00:00:00 | |
| DM0DOS-11 | 2026-09-03 13:53:14 | 52.69331 | 10.66390 | 100° | 82km/h | 3599m | -2.7m/s | 1°C | 16.1% | 659.5hPa | 2.7V | 07:08:02 | 03:33:52 | 00:00:00 | |
| DL1XH-15 | 2026-09-03 13:53:14 | 52.69355 | 10.66217 | 105° | 88km/h | 3613m | -2.6m/s | 1°C | 16.1% | 658.4hPa | 2.7V | 07:08:07 | 03:33:47 | 00:00:00 | |
| BIOWL1-15 | 2026-09-03 13:53:11 | 52.69344 | 10.66287 | 103° | 86km/h | 3607m | -2.7m/s | 1°C | 18.6% | 658.9hPa | 2.7V | 07:10:15 | 03:33:49 | 00:00:00 | |
| DB0DAN | 2026-09-03 13:53:10 | 52.69350 | 10.66252 | 105° | 82km/h | 3610m | -2.8m/s | 1°C | 15.8% | 658.59hPa | 2.7V | 00:00:00 | 00:00:00 | 00:00:00 | |
| AA1-15 | 2026-09-03 13:53:09 | 52.69355 | 10.66217 | 106° | 88km/h | 3613m | -2.6m/s | 1°C | 18.4% | 658.4hPa | 2.7V | 07:08:33 | 03:33:47 | 00:00:00 | |
| DL1XH1-15 | 2026-09-03 13:53:06 | 52.69411 | 10.65961 | 109° | 73km/h | 3634m | -2.6m/s | 1°C | 13% | 656.9hPa | 2.7V | 07:08:15 | 03:33:39 | 00:00:00 | |
| DF8AY | 2026-09-03 13:53:04 | 52.69390 | 10.66051 | 111° | 80km/h | 3626m | -2.6m/s | 1.1°C | 14.8% | 657.4hPa | 2.7V | 07:08:33 | 03:33:42 | 00:00:00 | |
| DL1XH-west | 2026-09-03 13:53:01 | 52.69411 | 10.65961 | 110° | 73km/h | 3634m | -2.6m/s | 1°C | 13.5% | 656.9hPa | 2.7V | 07:08:33 | 03:33:39 | 00:00:00 | |
| BIOWL1-15 | 2026-09-03 13:53:00 | 52.69417 | 10.65932 | 109° | 73km/h | 3636m | -2.5m/s | 1°C | 13.3% | 656.6hPa | 2.7V | 07:10:15 | 03:33:38 | 00:00:00 | |
| AA1-15 | 2026-09-03 13:52:59 | 52.69423 | 10.65904 | 107° | 71km/h | 3639m | -2.7m/s | 1°C | 12.8% | 656.3hPa | 2.7V | 07:08:33 | 03:33:37 | 00:00:00 | |
| SONCRA | 2026-09-03 13:52:57 | 52.69437 | 10.65817 | 102° | 71km/h | 3647m | -2.7m/s | 0.9°C | 12.2% | 655.7hPa | 2.6V | 00:00:00 | 00:00:00 | 00:00:00 | |
| DL1XH1-15 | 2026-09-03 13:52:56 | 52.69437 | 10.65817 | 102° | 73km/h | 3647m | -2.7m/s | 0.9°C | 12.5% | 655.7hPa | 2.6V | 07:08:20 | 03:33:34 | 00:00:00 | |
| DL1XH1-15 | 2026-09-03 13:52:56 | 52.69455 | 10.65662 | 99° | 80km/h | 3660m | -2.6m/s | 0.7°C | 12.5% | 654.6hPa | 2.7V | 07:08:25 | 03:33:29 | 00:00:00 | |
| DB0DAN | 2026-09-03 13:52:55 | 52.69441 | 10.65787 | 102° | 69km/h | 3649m | -2.6m/s | 0.9°C | 12.1% | 655.5hPa | 2.6V | 00:00:00 | 00:00:00 | 00:00:00 | |
| DF8AY | 2026-09-03 13:52:54 | 52.69444 | 10.65757 | 101° | 75km/h | 3652m | -2.7m/s | 0.8°C | 13% | 655.2hPa | 2.7V | 07:08:33 | 03:33:32 | 00:00:00 | |
| DL1XH-west | 2026-09-03 13:52:51 | 52.69454 | 10.65662 | 100° | 80km/h | 3660m | -2.7m/s | 0.7°C | 13.3% | 654.6hPa | 2.7V | 07:08:33 | 03:33:29 | 00:00:00 | |
| BIOWL1-15 | 2026-09-03 13:52:50 | 52.69458 | 10.65629 | 100° | 82km/h | 3663m | -2.6m/s | 0.7°C | 13.5% | 654.4hPa | 2.7V | 07:10:15 | 03:33:28 | 00:00:00 | |
| AA1-15 | 2026-09-03 13:52:48 | 52.69466 | 10.65560 | 101° | 86km/h | 3668m | -2.7m/s | 0.7°C | 14% | 653.9hPa | 2.7V | 07:08:33 | 03:33:26 | 00:00:00 | |
| BIOWL9-15 | 2026-09-03 13:52:48 | 52.69480 | 10.65454 | 104° | 88km/h | 3676m | -2.8m/s | 0.7°C | 13.5% | 653.3hPa | 2.7V | 00:00:00 | 00:00:00 | 00:00:00 | |
| DL1XH1-15 | 2026-09-03 13:52:46 | 52.69506 | 10.65312 | 108° | 88km/h | 3687m | -2.7m/s | 0.7°C | 17.1% | 652.5hPa | 2.7V | 07:08:35 | 03:33:19 | 00:00:00 | |
| DL4XJ-10 | 2026-09-03 13:52:46 | 52.69475 | 10.65489 | 104° | 82km/h | 3674m | -2.6m/s | 1.6°C | 0% | 0hPa | 2.6V | 00:00:00 | 00:00:00 | 00:00:00 | |
| DM0DOS-11 | 2026-09-03 13:52:44 | 52.69486 | 10.65418 | 105° | 89km/h | 3679m | -2.8m/s | 0.7°C | 14% | 653hPa | 2.6V | 07:08:32 | 03:33:22 | 00:00:00 | |
| DF8AY | 2026-09-03 13:52:43 | 52.69492 | 10.65382 | 107° | 89km/h | 3682m | -2.8m/s | 0.7°C | 16.3% | 652.9hPa | 2.7V | 07:08:33 | 03:33:21 | 00:00:00 | |
| BIOWL1-15 | 2026-09-03 13:52:42 | 52.69542 | 10.65148 | 111° | 78km/h | 3701m | -2.8m/s | 0.7°C | 22% | 651.3hPa | 2.6V | 07:10:15 | 03:33:14 | 00:00:00 | |
| DL1XH-west | 2026-09-03 13:52:41 | 52.69506 | 10.65312 | 108° | 88km/h | 3687m | -2.7m/s | 0.7°C | 19.2% | 652.5hPa | 2.7V | 07:09:24 | 03:33:19 | 00:00:00 | |
| DB0DAN | 2026-09-03 13:52:40 | 52.69513 | 10.65277 | 109° | 82km/h | 3691m | -2.8m/s | 0.7°C | 17.2% | 652.24hPa | 2.7V | 00:00:00 | 00:00:00 | 00:00:00 | |
| AA1-15 | 2026-09-03 13:52:38 | 52.69528 | 10.65211 | 111° | 84km/h | 3696m | -2.8m/s | 0.7°C | 21.4% | 651.7hPa | 2.7V | 07:09:24 | 03:33:16 | 00:00:00 | |
| DF8AY-15 | 2026-09-03 13:52:38 | 52.69527 | 10.65211 | 111° | 78km/h | 3696m | -2.7m/s | 0.7°C | 19.0% | 651.7hPa | 2.7V | 00:00:00 | 03:33:16 | 00:00:00 | |
| DL1XH1-15 | 2026-09-03 13:52:36 | 52.69573 | 10.65000 | 106° | 73km/h | 3715m | -2.8m/s | 0.6°C | 20.5% | 650.1hPa | 2.7V | 07:08:45 | 03:33:09 | 00:00:00 | |
| DL1XH-15 | 2026-09-03 13:52:34 | 52.69556 | 10.65087 | 109° | 75km/h | 3707m | -2.5m/s | 0.6°C | 19.9% | 650.9hPa | 2.7V | 07:08:42 | 03:33:12 | 00:00:00 | |
| DF8AY | 2026-09-03 13:52:33 | 52.69562 | 10.65058 | 109° | 73km/h | 3709m | -2.6m/s | 0.6°C | 22.3% | 650.7hPa | 2.7V | 07:09:24 | 03:33:11 | 00:00:00 | |
| DL1XH-west | 2026-09-03 13:52:30 | 52.69578 | 10.64971 | 104° | 73km/h | 3718m | -2.6m/s | 0.6°C | 22.9% | 650hPa | 2.7V | 07:09:24 | 03:33:08 | 00:00:00 | |
| AA1-15 | 2026-09-03 13:52:27 | 52.69590 | 10.64882 | 101° | 75km/h | 3726m | -2.7m/s | 0.5°C | 23.4% | 649.4hPa | 2.7V | 07:09:24 | 03:33:05 | 00:00:00 | |
| DB0DAN | 2026-09-03 13:52:25 | 52.69597 | 10.64818 | 100° | 75km/h | 3731m | -2.7m/s | 0.4°C | 20.5% | 648.96hPa | 2.7V | 00:00:00 | 00:00:00 | 00:00:00 | |
| DM0DOS-11 | 2026-09-03 13:52:25 | 52.69600 | 10.64785 | 99° | 82km/h | 3734m | -2.6m/s | 0.3°C | 21.1% | 648.6hPa | 2.6V | 07:08:52 | 03:33:02 | 00:00:00 | |
| BIOWL1-15 | 2026-09-03 13:52:24 | 52.69600 | 10.64785 | 100° | 82km/h | 3734m | -2.6m/s | 0.3°C | 23.7% | 648.6hPa | 2.6V | 07:10:15 | 03:33:02 | 00:00:00 | |
| DF8AY | 2026-09-03 13:52:23 | 52.69604 | 10.64751 | 100° | 84km/h | 3737m | -2.6m/s | 0.3°C | 23.9% | 648.5hPa | 2.7V | 07:09:24 | 03:33:01 | 00:00:00 | |
| DJ2DS-15 | 2026-09-03 13:52:23 | 52.69604 | 10.64751 | 101° | 82km/h | 3737m | -2.5m/s | 0.3°C | 21.2% | 648.5hPa | 2.7V | 07:08:00 | 03:33:01 | 00:00:00 | |
| DL1XH1-15 | 2026-09-03 13:52:21 | 52.69612 | 10.64681 | 101° | 88km/h | 3742m | -2.6m/s | 0.3°C | 21.6% | 648.1hPa | 2.7V | 07:08:55 | 03:32:59 | 00:00:00 | |
| DL1XH1-15 | 2026-09-03 13:52:21 | 52.69641 | 10.64502 | 107° | 89km/h | 3755m | -2.7m/s | 0.2°C | 22.6% | 646.8hPa | 2.7V | 07:09:00 | 03:32:54 | 00:00:00 | |
| DL1XH-west | 2026-09-03 13:52:20 | 52.69617 | 10.64645 | 103° | 88km/h | 3744m | -2.7m/s | 0.2°C | 24.9% | 647.8hPa | 2.7V | 07:09:24 | 03:32:58 | 00:00:00 | |
| AA1-15 | 2026-09-03 13:52:17 | 52.69634 | 10.64537 | 106° | 89km/h | 3752m | -2.8m/s | 0.2°C | 25.2% | 647.3hPa | 2.7V | 07:09:24 | 03:32:55 | 00:00:00 | |
| DF7ER-10 | 2026-09-03 13:52:16 | 52.69634 | 10.64537 | 107° | 89km/h | 3752m | -2.8m/s | 0.2°C | 21.4% | 647.3hPa | 2.6V | 07:09:00 | 00:00:00 | 00:00:00 | |
| DM0DOS-11 | 2026-09-03 13:52:14 | 52.69693 | 10.64271 | 111° | 78km/h | 3774m | -2.7m/s | 0.1°C | 27.1% | 645.4hPa | 2.6V | 07:09:07 | 03:32:47 | 00:00:00 | |
| D01LWL | 2026-09-03 13:52:13 | 52.69662 | 10.64399 | 110° | 86km/h | 3763m | -2.8m/s | 0.2°C | 24.1% | 646.2hPa | 2.7V | 00:00:00 | 00:00:00 | 00:00:00 | |
| BIOWL1-15 | 2026-09-03 13:52:13 | 52.69662 | 10.64399 | 111° | 86km/h | 3763m | -2.8m/s | 0.2°C | 28.3% | 646.2hPa | 2.7V | 07:10:15 | 03:32:51 | 00:00:00 | |
| SMARD9-10 | 2026-09-03 13:52:12 | 52.69662 | 10.64399 | 112° | 86km/h | 3763m | -2.8m/s | 0.2°C | 24.1% | 646.2hPa | 2.7V | 00:00:00 | 00:00:00 | 00:00:00 | |
| DL1XH1-15 | 2026-09-03 13:52:11 | 52.69678 | 10.64333 | 111° | 82km/h | 3769m | -2.5m/s | 0.1°C | 25.9% | 645.9hPa | 2.7V | 07:09:05 | 03:32:49 | 00:00:00 | |
| DL1XH1-15 | 2026-09-03 13:52:11 | 52.69714 | 10.64182 | 109° | 73km/h | 3782m | -2.6m/s | 0°C | 27.7% | 644.7hPa | 2.7V | 07:09:10 | 03:32:44 | 00:00:00 | |
| DL1XH-west | 2026-09-03 13:52:10 | 52.69686 | 10.64301 | 112° | 80km/h | 3772m | -2.5m/s | 0.1°C | 29.7% | 645.6hPa | 2.7V | 07:09:24 | 03:32:48 | 00:00:00 | |
| DB0DAN | 2026-09-03 13:52:10 | 52.69686 | 10.64301 | 112° | 77km/h | 3772m | -2.5m/s | 0.1°C | 25.7% | 645.59hPa | 2.7V | 00:00:00 | 00:00:00 | 00:00:00 | |
| DL1XH-15 | 2026-09-03 13:52:09 | 52.69725 | 10.64124 | 105° | 73km/h | 3787m | -2.7m/s | -0°C | 29% | 644.3hPa | 2.6V | 07:09:12 | 03:32:42 | 00:00:00 | |
| DM0DOS-11 | 2026-09-03 13:52:08 | 52.69729 | 10.64095 | 103° | 73km/h | 3790m | -2.7m/s | -0°C | 30.9% | 644hPa | 2.7V | 07:09:13 | 03:32:41 | 00:00:00 | |
| AA1-15 | 2026-09-03 13:52:06 | 52.69714 | 10.64182 | 109° | 73km/h | 3782m | -2.6m/s | 0°C | 30.7% | 644.8hPa | 2.7V | 07:09:24 | 03:32:44 | 00:00:00 | |
| DL4XJ-10 | 2026-09-03 13:52:06 | 52.69714 | 10.64182 | 110° | 82km/h | 3782m | -2.6m/s | 1.0°C | 0% | 0hPa | 2.7V | 00:00:00 | 00:00:00 | 00:00:00 | |
| DF7ER-10 | 2026-09-03 13:52:05 | 52.69714 | 10.64182 | 110° | 73km/h | 3782m | -2.6m/s | 0.0°C | 26.9% | 644.7hPa | 2.7V | 07:09:00 | 00:00:00 | 00:00:00 | |
| DL1XH-15 | 2026-09-03 13:52:04 | 52.69744 | 10.63971 | 100° | 80km/h | 3801m | -2.6m/s | -0.2°C | 35.7% | 643.3hPa | 2.7V | 07:09:17 | 03:32:37 | 00:00:00 | |
| DF8AY | 2026-09-03 13:52:03 | 52.69729 | 10.64095 | 104° | 73km/h | 3790m | -2.7m/s | -0°C | 34.1% | 644hPa | 2.7V | 07:09:24 | 03:32:41 | 00:00:00 | |
| DJ2DS-15 | 2026-09-03 13:52:02 | 52.69734 | 10.64065 | 103° | 86km/h | 3793m | -2.6m/s | -0.0°C | 31.7% | 643.9hPa | 2.6V | 00:00:00 | 03:32:40 | 00:00:00 | |
| DL1XH1-15 | 2026-09-03 13:52:01 | 52.69757 | 10.63867 | 102° | 88km/h | 3809m | -2.6m/s | -0.3°C | 38.9% | 642.6hPa | 2.6V | 07:09:20 | 03:32:34 | 00:00:00 | |
| BIOWL1-15 | 2026-09-03 13:52:00 | 52.69748 | 10.63937 | 100° | 84km/h | 3804m | -2.7m/s | -0.3°C | 40.9% | 643hPa | 2.7V | 07:10:15 | 03:32:36 | 00:00:00 | |
| DL1XH-west | 2026-09-03 13:51:59 | 52.69744 | 10.63971 | 100° | 80km/h | 3801m | -2.6m/s | -0.2°C | 39.1% | 643.3hPa | 2.7V | 07:09:24 | 03:32:37 | 00:00:00 | |
| DM0DOS-11 | 2026-09-03 13:51:58 | 52.69773 | 10.63760 | 105° | 89km/h | 3816m | -2.6m/s | -0.4°C | 41.8% | 642hPa | 2.7V | 07:09:23 | 03:32:31 | 00:00:00 | |
| AA1-15 | 2026-09-03 13:51:56 | 52.69757 | 10.63867 | 102° | 88km/h | 3809m | -2.6m/s | -0.3°C | 42.6% | 642.6hPa | 2.6V | 07:09:24 | 03:32:34 | 00:00:00 | |
| DB0DAN | 2026-09-03 13:51:55 | 52.69762 | 10.63832 | 103° | 84km/h | 3811m | -2.5m/s | -0.3°C | 38.7% | 642.34hPa | 2.6V | 00:00:00 | 00:00:00 | 00:00:00 | |
| SONCRA | 2026-09-03 13:51:55 | 52.69767 | 10.63796 | 104° | 88km/h | 3814m | -2.6m/s | -0.3°C | 39.5% | 642.2hPa | 2.7V | 00:00:00 | 00:00:00 | 00:00:00 | |
| DL1XH-15 | 2026-09-03 13:51:54 | 52.69800 | 10.63616 | 108° | 89km/h | 3827m | -2.9m/s | -0.4°C | 51.5% | 641hPa | 2.7V | 07:09:27 | 03:32:27 | 00:00:00 | |
| DF8AY | 2026-09-03 13:51:52 | 52.69779 | 10.63724 | 107° | 89km/h | 3819m | -2.9m/s | -0.4°C | 47.9% | 641.6hPa | 2.7V | 07:09:24 | 03:32:30 | 00:00:00 | |
| DL1XH1-15 | 2026-09-03 13:51:51 | 52.69786 | 10.63688 | 107° | 89km/h | 3822m | -2.8m/s | -0.4°C | 47.6% | 641.5hPa | 2.7V | 07:09:25 | 03:32:29 | 00:00:00 | |
| DL1XH1-15 | 2026-09-03 13:51:51 | 52.69823 | 10.63512 | 110° | 88km/h | 3836m | -2.8m/s | -0.5°C | 53.6% | 640.4hPa | 2.7V | 07:09:30 | 03:32:24 | 00:00:00 | |
| DL1XH-west | 2026-09-03 13:51:49 | 52.69800 | 10.63616 | 109° | 89km/h | 3828m | -2.9m/s | -0.4°C | 56.6% | 641hPa | 2.7V | 07:10:15 | 03:32:27 | 00:00:00 | |
| DM0DOS-11 | 2026-09-03 13:51:48 | 52.69846 | 10.63414 | 111° | 80km/h | 3844m | -2.5m/s | -0.5°C | 54% | 639.8hPa | 2.7V | 07:09:33 | 03:32:21 | 00:00:00 | |
| AA1-15 | 2026-09-03 13:51:45 | 52.69831 | 10.63479 | 112° | 86km/h | 3838m | -2.8m/s | -0.5°C | 57.7% | 640.2hPa | 2.7V | 07:10:15 | 03:32:23 | 00:00:00 | |
| DF8AY | 2026-09-03 13:51:42 | 52.69854 | 10.63383 | 111° | 78km/h | 3846m | -2.7m/s | -0.6°C | 57% | 639.6hPa | 2.6V | 07:10:15 | 03:32:20 | 00:00:00 | |
| DL1XH1-15 | 2026-09-03 13:51:41 | 52.69860 | 10.63353 | 110° | 77km/h | 3849m | -2.8m/s | -0.6°C | 54.3% | 639.3hPa | 2.6V | 07:09:35 | 03:32:19 | 00:00:00 | |
| DL1XH1-15 | 2026-09-03 13:51:41 | 52.69888 | 10.63202 | 102° | 77km/h | 3862m | -2.7m/s | -0.8°C | 55.5% | 638.2hPa | 2.7V | 07:09:40 | 03:32:14 | 00:00:00 | |
| DB0DAN | 2026-09-03 13:51:40 | 52.69867 | 10.63322 | 109° | 73km/h | 3852m | -2.5m/s | -0.7°C | 53.1% | 639.24hPa | 2.7V | 00:00:00 | 00:00:00 | 00:00:00 | |
| DL1XH-15 | 2026-09-03 13:51:39 | 52.69896 | 10.63139 | 100° | 78km/h | 3868m | -2.6m/s | -0.9°C | 56.1% | 637.8hPa | 2.7V | 07:09:42 | 03:32:12 | 00:00:00 | |
| DL1XH-west | 2026-09-03 13:51:38 | 52.69878 | 10.63263 | 105° | 75km/h | 3857m | -2.8m/s | -0.8°C | 57.8% | 638.8hPa | 2.7V | 07:10:15 | 03:32:16 | 00:00:00 | |
| BIOWL1-15 | 2026-09-03 13:51:38 | 52.69887 | 10.63202 | 103° | 77km/h | 3862m | -2.7m/s | -0.8°C | 58.1% | 638.3hPa | 2.7V | 07:10:15 | 03:32:14 | 00:00:00 | |
| DF8AY-15 | 2026-09-03 13:51:38 | 52.69878 | 10.63262 | 106° | 84km/h | 3857m | -2.7m/s | -0.7°C | 54.9% | 638.7hPa | 2.7V | 00:00:00 | 03:32:16 | 00:00:00 | |
| DL1XH1-15 | 2026-09-03 13:51:36 | 52.69906 | 10.63040 | 100° | 82km/h | 3876m | -2.8m/s | -1°C | 65.5% | 637.2hPa | 2.7V | 07:09:45 | 03:32:09 | 00:00:00 | |
| DL1XH-15 | 2026-09-03 13:51:34 | 52.69914 | 10.62972 | 100° | 86km/h | 3881m | -3m/s | -1.1°C | 68.2% | 636.7hPa | 2.7V | 07:09:47 | 03:32:07 | 00:00:00 | |
| AA1-15 | 2026-09-03 13:51:34 | 52.69895 | 10.63139 | 101° | 78km/h | 3868m | -2.6m/s | -0.9°C | 58.9% | 637.9hPa | 2.7V | 07:10:15 | 03:32:12 | 00:00:00 | |
| DF8AY | 2026-09-03 13:51:32 | 52.69903 | 10.63074 | 100° | 80km/h | 3873m | -2.8m/s | -1°C | 62.3% | 637.4hPa | 2.6V | 07:10:15 | 03:32:10 | 00:00:00 | |
| DL1XH1-15 | 2026-09-03 13:51:31 | 52.69926 | 10.62865 | 102° | 89km/h | 3890m | -2.8m/s | -1.1°C | 69% | 636hPa | 2.7V | 07:09:50 | 03:32:04 | 00:00:00 | |
| DL1XH-west | 2026-09-03 13:51:28 | 52.69918 | 10.62937 | 101° | 86km/h | 3885m | -3m/s | -1.1°C | 74.3% | 636.5hPa | 2.7V | 07:10:15 | 03:32:06 | 00:00:00 | |
| TFSTFS | 2026-09-03 13:51:27 | 52.69918 | 10.62937 | 102° | 86km/h | 3885m | -3.0m/s | -1.1°C | 67.2% | 636.5hPa | 2.7V | 07:10:00 | 00:00:00 | 00:00:00 | |
| DL1XH1-15 | 2026-09-03 13:51:26 | 52.69956 | 10.62682 | 108° | 91km/h | 3904m | -2.7m/s | -1.2°C | 75.2% | 634.8hPa | 2.7V | 07:09:55 | 03:31:59 | 00:00:00 | |
| DB0DAN | 2026-09-03 13:51:25 | 52.69931 | 10.62828 | 103° | 86km/h | 3893m | -2.6m/s | -1.1°C | 69.8% | 635.73hPa | 2.7V | 00:00:00 | 00:00:00 | 00:00:00 | |
| DL1XH-15 | 2026-09-03 13:51:24 | 52.69937 | 10.62791 | 104° | 91km/h | 3896m | -2.8m/s | -1.2°C | 72.7% | 635.5hPa | 2.6V | 07:09:52 | 03:32:02 | 00:00:00 | |
| AA1-15 | 2026-09-03 13:51:24 | 52.69937 | 10.62791 | 104° | 91km/h | 3896m | -2.8m/s | -1.2°C | 77.5% | 635.5hPa | 2.6V | 07:10:15 | 03:32:02 | 00:00:00 | |
| BIOWL1-15 | 2026-09-03 13:51:23 | 52.69943 | 10.62754 | 106° | 91km/h | 3899m | -2.9m/s | -1.2°C | 78.5% | 635.3hPa | 2.6V | 07:10:15 | 03:32:01 | 00:00:00 | |
| DF8AY | 2026-09-03 13:51:22 | 52.69949 | 10.62718 | 107° | 91km/h | 3901m | -2.7m/s | -1.1°C | 80% | 635.2hPa | 2.7V | 07:10:15 | 03:32:00 | 00:00:00 | |
| DJ2DS-15 | 2026-09-03 13:51:22 | 52.69949 | 10.62718 | 108° | 82km/h | 3901m | -2.6m/s | -1.1°C | 76.1% | 635.1hPa | 2.7V | 00:00:00 | 03:32:00 | 00:00:00 | |
| DL1XH1-15 | 2026-09-03 13:51:21 | 52.69994 | 10.62515 | 110° | 80km/h | 3917m | -2.5m/s | -1.3°C | 83.3% | 633.9hPa | 2.7V | 07:10:00 | 03:31:54 | 00:00:00 | |
| SONDE2-11 | 2026-09-03 13:51:21 | 52.69963 | 10.62646 | 109° | 88km/h | 3907m | -2.7m/s | -1.2°C | 73.6% | 634.8hPa | 2.6V | 00:00:00 | 00:00:00 | 00:00:00 | |
| DL1XH-15 | 2026-09-03 13:51:19 | 52.70007 | 10.62454 | 108° | 77km/h | 3922m | -2.6m/s | -1.3°C | 82.2% | 633.4hPa | 2.6V | 07:10:02 | 03:31:52 | 00:00:00 | |
| DL1XH-west | 2026-09-03 13:51:17 | 52.69986 | 10.62547 | 111° | 82km/h | 3914m | -2.6m/s | -1.3°C | 80.4% | 634.1hPa | 2.7V | 07:10:15 | 03:31:55 | 00:00:00 | |
| DL1XH1-15 | 2026-09-03 13:51:16 | 52.70024 | 10.62362 | 104° | 75km/h | 3930m | -3m/s | -1.4°C | 85.6% | 632.8hPa | 2.7V | 07:10:05 | 03:31:49 | 00:00:00 | |
| BIOWL1-15 | 2026-09-03 13:51:14 | 52.70019 | 10.62393 | 106° | 77km/h | 3928m | -2.7m/s | -1.4°C | 83.5% | 632.9hPa | 2.7V | 07:10:15 | 03:31:50 | 00:00:00 | |
| AA1-15 | 2026-09-03 13:51:14 | 52.70007 | 10.62454 | 109° | 77km/h | 3922m | -2.6m/s | -1.3°C | 81.7% | 633.4hPa | 2.6V | 07:10:15 | 03:31:52 | 00:00:00 | |
| DF8AY | 2026-09-03 13:51:11 | 52.70024 | 10.62362 | 105° | 75km/h | 3931m | -3m/s | -1.4°C | 85.4% | 632.9hPa | 2.7V | 07:10:15 | 03:31:49 | 00:00:00 | |
| DB0DAN | 2026-09-03 13:51:10 | 52.70028 | 10.62332 | 104° | 73km/h | 3933m | -2.9m/s | -1.4°C | 83.4% | 632.49hPa | 2.7V | 00:00:00 | 00:00:00 | 00:00:00 | |
| DL1XH-15 | 2026-09-03 13:51:09 | 52.70052 | 10.62136 | 99° | 86km/h | 3950m | -2.7m/s | -1.7°C | 88.4% | 631.2hPa | 2.7V | 07:10:12 | 03:31:42 | 00:00:00 | |
| DM0DOS-11 | 2026-09-03 13:51:08 | 52.70037 | 10.62269 | 101° | 77km/h | 3939m | -2.9m/s | -1.6°C | 87.1% | 632hPa | 2.7V | 07:10:08 | 03:31:46 | 00:00:00 | |
| DL1XH-west | 2026-09-03 13:51:07 | 52.70041 | 10.62237 | 101° | 78km/h | 3942m | -2.7m/s | -1.6°C | 88.7% | 631.9hPa | 2.7V | 07:10:15 | 03:31:45 | 00:00:00 | |
| DL1XH1-15 | 2026-09-03 13:51:06 | 52.70064 | 10.62026 | 102° | 93km/h | 3958m | -2.6m/s | -1.7°C | 88.5% | 630.5hPa | 2.7V | 07:10:15 | 03:31:39 | 00:00:00 | |
| AA1-15 | 2026-09-03 13:51:04 | 52.70055 | 10.62100 | 100° | 89km/h | 3953m | -2.6m/s | -1.7°C | 91.8% | 631hPa | 2.7V | 07:10:15 | 03:31:41 | 00:00:00 | |
| DM0DOS-11 | 2026-09-03 13:51:03 | 52.70089 | 10.61877 | 108° | 91km/h | 3969m | -2.6m/s | -1.8°C | 88.8% | 629.8hPa | 2.6V | 07:10:19 | 03:31:35 | 00:00:00 | |
| BIOWL1-15 | 2026-09-03 13:51:02 | 52.70059 | 10.62063 | 101° | 91km/h | 3956m | -2.7m/s | -1.7°C | 91.9% | 630.9hPa | 2.7V | 07:10:15 | 03:31:40 | 00:00:00 | |
| DF8AY | 2026-09-03 13:51:01 | 52.70064 | 10.62026 | 102° | 93km/h | 3958m | -2.7m/s | -1.7°C | 91.7% | 630.5hPa | 2.7V | 07:10:15 | 03:31:39 | 00:00:00 | |
| DL1XH-15 | 2026-09-03 13:50:59 | 52.70075 | 10.61951 | 105° | 93km/h | 3964m | -2.8m/s | -1.8°C | 88.7% | 630.1hPa | 2.7V | 07:10:17 | 03:31:37 | 00:00:00 | |
| DL1XH-15 | 2026-09-03 13:50:59 | 52.70111 | 10.61773 | 110° | 86km/h | 3977m | -2.6m/s | -1.9°C | 89.2% | 629.1hPa | 2.7V | 07:10:22 | 03:31:32 | 00:00:00 | |
| DL1XH-west | 2026-09-03 13:50:57 | 52.70088 | 10.61877 | 108° | 91km/h | 3969m | -2.6m/s | -1.8°C | 90.3% | 629.8hPa | 2.6V | 07:11:06 | 03:31:35 | 00:00:00 | |
| DO2SHX-10 | 2026-09-03 13:50:57 | 52.70088 | 10.61877 | 109° | 91km/h | 3969m | -2.5m/s | -1.7°C | 88.8% | 629.8hPa | 2.7V | 00:00:00 | 03:31:35 | 00:00:00 | |
| DL1XH1-15 | 2026-09-03 13:50:56 | 52.70133 | 10.61676 | 109° | 80km/h | 3986m | -2.6m/s | -1.9°C | 89.3% | 628.5hPa | 2.7V | 07:10:25 | 03:31:29 | 00:00:00 | |
| AA1-15 | 2026-09-03 13:50:53 | 52.70118 | 10.61740 | 110° | 84km/h | 3980m | -2.6m/s | -1.9°C | 88.5% | 628.8hPa | 2.7V | 07:11:06 | 03:31:31 | 00:00:00 | |
| BIOWL1-15 | 2026-09-03 13:50:51 | 52.70133 | 10.61676 | 110° | 80km/h | 3986m | -2.6m/s | -1.9°C | 88.1% | 628.5hPa | 2.7V | 07:11:06 | 03:31:29 | 00:00:00 | |
| DF8AY | 2026-09-03 13:50:50 | 52.70139 | 10.61645 | 109° | 78km/h | 3988m | -2.6m/s | -1.9°C | 88.4% | 628.2hPa | 2.7V | 07:11:06 | 03:31:28 | 00:00:00 | |
| SONDE2-11 | 2026-09-03 13:50:50 | 52.70145 | 10.61614 | 107° | 77km/h | 3991m | -2.7m/s | -2.0°C | 86.9% | 628.0hPa | 2.7V | 00:00:00 | 00:00:00 | 00:00:00 | |
| DL1XH-15 | 2026-09-03 13:50:49 | 52.70145 | 10.61614 | 107° | 77km/h | 3991m | -2.7m/s | -1.9°C | 89.6% | 628hPa | 2.7V | 07:10:27 | 03:31:27 | 00:00:00 | |
| DL1XH-15 | 2026-09-03 13:50:49 | 52.70169 | 10.61460 | 101° | 77km/h | 4004m | -2.6m/s | -2.1°C | 89.5% | 627hPa | 2.7V | 07:10:32 | 03:31:22 | 00:00:00 | |
| DL1XH-west | 2026-09-03 13:50:47 | 52.70156 | 10.61553 | 105° | 77km/h | 3996m | -2.7m/s | -2°C | 89.7% | 627.7hPa | 2.6V | 07:11:06 | 03:31:25 | 00:00:00 | |
| AA1-15 | 2026-09-03 13:50:42 | 52.70177 | 10.61395 | 99° | 80km/h | 4010m | -2.7m/s | -2.1°C | 90.2% | 626.6hPa | 2.6V | 07:11:06 | 03:31:20 | 00:00:00 | |
| DL1XH1-15 | 2026-09-03 13:50:41 | 52.70180 | 10.61362 | 98° | 82km/h | 4012m | -2.5m/s | -2.1°C | 88.7% | 626.3hPa | 2.7V | 07:10:35 | 03:31:19 | 00:00:00 | |
| DL1XH1-15 | 2026-09-03 13:50:41 | 52.70199 | 10.61181 | 102° | 91km/h | 4025m | -2.6m/s | -2.2°C | 88.9% | 625.4hPa | 2.7V | 07:10:40 | 03:31:14 | 00:00:00 | |
| DF8AY | 2026-09-03 13:50:40 | 52.70183 | 10.61327 | 99° | 86km/h | 4015m | -2.6m/s | -2.2°C | 90.8% | 626.1hPa | 2.7V | 07:11:06 | 03:31:18 | 00:00:00 | |
| DB0DAN | 2026-09-03 13:50:40 | 52.70183 | 10.61327 | 99° | 82km/h | 4015m | -2.6m/s | -2.2°C | 86.1% | 626.13hPa | 2.7V | 00:00:00 | 00:00:00 | 00:00:00 | |
| DL1XH-15 | 2026-09-03 13:50:39 | 52.70186 | 10.61292 | 99° | 88km/h | 4018m | -2.6m/s | -2.2°C | 89.1% | 625.9hPa | 2.7V | 07:10:37 | 03:31:17 | 00:00:00 | |
| DL1XH-15 | 2026-09-03 13:50:39 | 52.70210 | 10.61106 | 105° | 93km/h | 4030m | -2.8m/s | -2.3°C | 89.2% | 624.9hPa | 2.6V | 07:10:42 | 03:31:12 | 00:00:00 | |
| DL1XH-west | 2026-09-03 13:50:36 | 52.70199 | 10.61181 | 102° | 93km/h | 4025m | -2.6m/s | -2.2°C | 90.3% | 625.4hPa | 2.7V | 07:11:06 | 03:31:14 | 00:00:00 | |
| DL1XH-15 | 2026-09-03 13:50:34 | 52.70246 | 10.60927 | 110° | 88km/h | 4044m | -2.7m/s | -2.3°C | 89% | 623.9hPa | 2.7V | 07:10:47 | 03:31:07 | 00:00:00 | |
| DM0DOS-11 | 2026-09-03 13:50:32 | 52.70224 | 10.61032 | 107° | 91km/h | 4036m | -2.6m/s | -2.3°C | 89% | 624.5hPa | 2.7V | 07:10:44 | 03:31:10 | 00:00:00 | |
| BIOWL1-15 | 2026-09-03 13:50:31 | 52.70246 | 10.60927 | 110° | 88km/h | 4044m | -2.7m/s | -2.3°C | 88.7% | 623.9hPa | 2.7V | 07:11:06 | 03:31:07 | 00:00:00 | |
| AA1-15 | 2026-09-03 13:50:31 | 52.70231 | 10.60996 | 109° | 91km/h | 4039m | -2.6m/s | -2.3°C | 89.4% | 624.3hPa | 2.7V | 07:11:06 | 03:31:09 | 00:00:00 | |
| DF8AY | 2026-09-03 13:50:30 | 52.70238 | 10.60961 | 110° | 89km/h | 4041m | -2.7m/s | -2.3°C | 88.6% | 624.1hPa | 2.7V | 07:11:06 | 03:31:08 | 00:00:00 | |
| DM0DOS-11 | 2026-09-03 13:50:27 | 52.70292 | 10.60706 | 105° | 75km/h | 4062m | -2.5m/s | -2.4°C | 87.1% | 622.5hPa | 2.7V | 07:10:54 | 03:31:00 | 00:00:00 | |
| DL1XH1-15 | 2026-09-03 13:50:26 | 52.70268 | 10.60828 | 110° | 80km/h | 4052m | -2.7m/s | -2.4°C | 87.1% | 623.3hPa | 2.6V | 07:10:50 | 03:31:04 | 00:00:00 | |
| DL1XH1-15 | 2026-09-03 13:50:26 | 52.70297 | 10.60675 | 103° | 75km/h | 4065m | -2.4m/s | -2.4°C | 87.6% | 622.3hPa | 2.7V | 07:10:55 | 03:30:59 | 00:00:00 | |
| DL1XH-west | 2026-09-03 13:50:26 | 52.70268 | 10.60828 | 110° | 80km/h | 4052m | -2.7m/s | -2.4°C | 86.6% | 623.3hPa | 2.6V | 07:11:06 | 03:31:04 | 00:00:00 | |
| DB0DAN | 2026-09-03 13:50:25 | 52.70275 | 10.60797 | 109° | 75km/h | 4054m | -2.5m/s | -2.4°C | 84.4% | 623.09hPa | 2.6V | 00:00:00 | 00:00:00 | 00:00:00 | |
| DL1XH-15 | 2026-09-03 13:50:24 | 52.70305 | 10.60613 | 100° | 77km/h | 4070m | -2.6m/s | -2.5°C | 88.2% | 621.9hPa | 2.7V | 07:10:57 | 03:30:57 | 00:00:00 | |
| AA1-15 | 2026-09-03 13:50:21 | 52.70297 | 10.60675 | 104° | 75km/h | 4065m | -2.4m/s | -2.4°C | 88.2% | 622.3hPa | 2.7V | 07:11:06 | 03:30:59 | 00:00:00 | |
| DF8AY | 2026-09-03 13:50:19 | 52.70305 | 10.60613 | 101° | 77km/h | 4070m | -2.6m/s | -2.5°C | 89.1% | 621.9hPa | 2.7V | 07:11:06 | 03:30:57 | 00:00:00 | |
| SONDE2-11 | 2026-09-03 13:50:19 | 52.70309 | 10.60581 | 99° | 78km/h | 4072m | -2.6m/s | -2.5°C | 85.6% | 621.7hPa | 2.7V | 00:00:00 | 00:00:00 | 00:00:00 | |
| DF8AY-15 | 2026-09-03 13:50:18 | 52.70308 | 10.60581 | 100° | 84km/h | 4072m | -2.6m/s | -2.4°C | 88.2% | 621.7hPa | 2.7V | 00:00:00 | 03:30:56 | 00:00:00 | |
| DM0DOS-11 | 2026-09-03 13:50:17 | 52.70329 | 10.60375 | 100° | 89km/h | 4088m | -2.5m/s | -2.7°C | 90.2% | 620.3hPa | 2.7V | 07:11:04 | 03:30:50 | 00:00:00 | |
| DL1XH1-15 | 2026-09-03 13:50:16 | 52.70315 | 10.60515 | 98° | 82km/h | 4078m | -2.6m/s | -2.6°C | 88.9% | 621.2hPa | 2.6V | 07:11:00 | 03:30:54 | 00:00:00 | |
| DL1XH1-15 | 2026-09-03 13:50:16 | 52.70333 | 10.60338 | 101° | 91km/h | 4090m | -2.4m/s | -2.7°C | 90.1% | 620.2hPa | 2.7V | 07:11:05 | 03:30:49 | 00:00:00 | |
| DL1XH-west | 2026-09-03 13:50:15 | 52.70318 | 10.60481 | 99° | 84km/h | 4080m | -2.6m/s | -2.6°C | 91.3% | 621hPa | 2.7V | 07:11:06 | 03:30:53 | 00:00:00 | |
| AA1-15 | 2026-09-03 13:50:11 | 52.70333 | 10.60338 | 102° | 91km/h | 4090m | -2.4m/s | -2.7°C | 92% | 620.2hPa | 2.7V | 07:11:06 | 03:30:49 | 00:00:00 | |
| DB0DAN | 2026-09-03 13:50:10 | 52.70338 | 10.60301 | 104° | 88km/h | 4093m | -2.5m/s | -2.7°C | 87.1% | 620.02hPa | 2.7V | 00:00:00 | 00:00:00 | 00:00:00 | |
| DL1XH-15 | 2026-09-03 13:50:09 | 52.70380 | 10.60090 | 110° | 82km/h | 4108m | -2.5m/s | -2.8°C | 89.8% | 618.8hPa | 2.7V | 07:11:12 | 03:30:42 | 00:00:00 | |
| BIOWL1-15 | 2026-09-03 13:50:09 | 52.70358 | 10.60192 | 108° | 89km/h | 4100m | -2.5m/s | -2.7°C | 90.3% | 619.5hPa | 2.7V | 07:11:57 | 03:30:45 | 00:00:00 | |
| DF8AY | 2026-09-03 13:50:08 | 52.70351 | 10.60228 | 107° | 91km/h | 4098m | -2.5m/s | -2.7°C | 90.9% | 619.6hPa | 2.6V | 07:11:57 | 03:30:46 | 00:00:00 | |
| DL1XH1-15 | 2026-09-03 13:50:06 | 52.70400 | 10.59996 | 108° | 77km/h | 4115m | -2.5m/s | -2.9°C | 90.4% | 618.3hPa | 2.7V | 07:11:15 | 03:30:39 | 00:00:00 | |
| DL1XH-west | 2026-09-03 13:50:04 | 52.70380 | 10.60090 | 110° | 82km/h | 4108m | -2.5m/s | -2.8°C | 89.3% | 618.8hPa | 2.7V | 07:11:57 | 03:30:42 | 00:00:00 | |
| DO2SHX-10 | 2026-09-03 13:50:03 | 52.70387 | 10.60058 | 111° | 78km/h | 4111m | -2.3m/s | -2.8°C | 89.9% | 618.6hPa | 2.7V | 00:00:00 | 03:30:41 | 00:00:00 | |
| DJ2DS-15 | 2026-09-03 13:50:02 | 52.70393 | 10.60027 | 110° | 80km/h | 4113m | -2.5m/s | -2.8°C | 90.3% | 618.4hPa | 2.7V | 00:00:00 | 03:30:40 | 00:00:00 | |
| DL1XH1-15 | 2026-09-03 13:50:01 | 52.70427 | 10.59845 | 103° | 75km/h | 4128m | -2.6m/s | -3°C | 90.4% | 617.3hPa | 2.7V | 07:11:20 | 03:30:34 | 00:00:00 | |
| AA1-15 | 2026-09-03 13:50:01 | 52.70400 | 10.59996 | 109° | 77km/h | 4115m | -2.5m/s | -2.9°C | 89.1% | 618.3hPa | 2.7V | 07:11:57 | 03:30:39 | 00:00:00 | |
| TFSTFS | 2026-09-03 13:50:00 | 52.70400 | 10.59996 | 110° | 77km/h | 4116m | -2.5m/s | -2.9°C | 87.7% | 618.3hPa | 2.6V | 07:11:00 | 00:00:00 | 00:00:00 | |
| DL1XH-15 | 2026-09-03 13:49:59 | 52.70412 | 10.59935 | 106° | 75km/h | 4121m | -2.5m/s | -2.9°C | 90.4% | 617.9hPa | 2.6V | 07:11:17 | 03:30:37 | 00:00:00 | |
| DF8AY | 2026-09-03 13:49:58 | 52.70417 | 10.59905 | 106° | 75km/h | 4123m | -2.5m/s | -2.9°C | 88.7% | 617.7hPa | 2.7V | 07:11:57 | 03:30:36 | 00:00:00 | |
| BIOWL1-15 | 2026-09-03 13:49:57 | 52.70422 | 10.59875 | 105° | 75km/h | 4125m | -2.5m/s | -2.9°C | 89.1% | 617.5hPa | 2.7V | 07:11:57 | 03:30:35 | 00:00:00 | |
| DO2SHX-10 | 2026-09-03 13:49:57 | 52.70422 | 10.59875 | 106° | 75km/h | 4126m | -2.4m/s | -2.9°C | 90.2% | 617.4hPa | 2.7V | 00:00:00 | 03:30:35 | 00:00:00 | |
| BIOWL7-15 | 2026-09-03 13:49:56 | 52.70422 | 10.59875 | 106° | 75km/h | 4126m | -2.5m/s | -2.9°C | 87.4% | 617.5hPa | 2.7V | 00:00:00 | 00:00:00 | 00:00:00 | |
| DB0DAN | 2026-09-03 13:49:55 | 52.70432 | 10.59815 | 103° | 71km/h | 4131m | -2.6m/s | -3°C | 87.6% | 617.2hPa | 2.7V | 00:00:00 | 00:00:00 | 00:00:00 | |
| DM0DOS-11 | 2026-09-03 13:49:54 | 52.70436 | 10.59785 | 101° | 75km/h | 4133m | -2.6m/s | -3°C | 90.2% | 616.8hPa | 2.7V | 07:11:22 | 03:30:32 | 00:00:00 | |
| DL1XH-west | 2026-09-03 13:49:53 | 52.70439 | 10.59754 | 101° | 75km/h | 4136m | -2.5m/s | -3°C | 91.5% | 616.5hPa | 2.7V | 07:11:57 | 03:30:31 | 00:00:00 | |
| AA1-15 | 2026-09-03 13:49:50 | 52.70449 | 10.59659 | 98° | 78km/h | 4144m | -2.6m/s | -3.2°C | 94.3% | 616.1hPa | 2.7V | 07:11:57 | 03:30:28 | 00:00:00 | |
| DL1XH-15 | 2026-09-03 13:49:49 | 52.70452 | 10.59626 | 98° | 80km/h | 4146m | -2.6m/s | -3.2°C | 92.2% | 615.9hPa | 2.7V | 07:11:27 | 03:30:27 | 00:00:00 | |
| DF8AY | 2026-09-03 13:49:47 | 52.70458 | 10.59557 | 99° | 86km/h | 4152m | -2.5m/s | -3.3°C | 94.9% | 615.4hPa | 2.7V | 07:11:57 | 03:30:25 | 00:00:00 | |
| DL1XH1-15 | 2026-09-03 13:49:46 | 52.70461 | 10.59522 | 99° | 88km/h | 4154m | -2.7m/s | -3.3°C | 92.7% | 615.2hPa | 2.7V | 07:11:30 | 03:30:24 | 00:00:00 | |
| DL1XH1-15 | 2026-09-03 13:49:46 | 52.70488 | 10.59341 | 107° | 88km/h | 4166m | -2.2m/s | -3.3°C | 93.8% | 614.2hPa | 2.7V | 07:11:35 | 03:30:19 | 00:00:00 | |
| BIOWL1-15 | 2026-09-03 13:49:46 | 52.70461 | 10.59522 | 100° | 88km/h | 4154m | -2.7m/s | -3.3°C | 94.7% | 615.2hPa | 2.7V | 07:11:57 | 03:30:24 | 00:00:00 | |
| DM0DOS-11 | 2026-09-03 13:49:44 | 52.70470 | 10.59449 | 102° | 89km/h | 4159m | -2.5m/s | -3.3°C | 92.7% | 614.9hPa | 2.7V | 07:11:32 | 03:30:22 | 00:00:00 | |
| DL1XH-west | 2026-09-03 13:49:42 | 52.70481 | 10.59376 | 106° | 89km/h | 4164m | -2.4m/s | -3.3°C | 92.8% | 614.5hPa | 2.6V | 07:11:57 | 03:30:20 | 00:00:00 | |
| DJ2DS-15 | 2026-09-03 13:49:42 | 52.70481 | 10.59376 | 107° | 78km/h | 4164m | -2.3m/s | -3.3°C | 93.4% | 614.5hPa | 2.6V | 07:11:00 | 03:30:20 | 00:00:00 | |
| DB0DAN | 2026-09-03 13:49:40 | 52.70494 | 10.59306 | 109° | 82km/h | 4169m | -2.5m/s | -3.3°C | 91.4% | 614.1hPa | 2.7V | 00:00:00 | 00:00:00 | 00:00:00 | |
| AA1-15 | 2026-09-03 13:49:39 | 52.70501 | 10.59273 | 110° | 84km/h | 4171m | -2.4m/s | -3.3°C | 92.6% | 613.9hPa | 2.7V | 07:11:57 | 03:30:17 | 00:00:00 | |
| DL1XH-15 | 2026-09-03 13:49:39 | 52.70501 | 10.59273 | 109° | 84km/h | 4171m | -2.4m/s | -3.3°C | 94.8% | 613.9hPa | 2.7V | 07:11:37 | 03:30:17 | 00:00:00 | |
| DF8AY | 2026-09-03 13:49:37 | 52.70515 | 10.59210 | 110° | 78km/h | 4176m | -2.6m/s | -3.4°C | 92.6% | 613.6hPa | 2.7V | 07:11:57 | 03:30:15 | 00:00:00 | |
| DL1XH1-15 | 2026-09-03 13:49:36 | 52.70522 | 10.59179 | 108° | 77km/h | 4179m | -2.5m/s | -3.4°C | 94.9% | 613.4hPa | 2.7V | 07:11:40 | 03:30:14 | 00:00:00 | |
| DL1XH1-15 | 2026-09-03 13:49:36 | 52.70548 | 10.59031 | 103° | 73km/h | 4192m | -2.6m/s | -3.5°C | 94.1% | 612.3hPa | 2.7V | 07:11:45 | 03:30:09 | 00:00:00 | |
| BIOWL1-15 | 2026-09-03 13:49:35 | 52.70528 | 10.59149 | 108° | 75km/h | 4181m | -2.5m/s | -3.4°C | 93.2% | 613.2hPa | 2.6V | 07:11:57 | 03:30:13 | 00:00:00 | |
| DL1XH-west | 2026-09-03 13:49:32 | 52.70544 | 10.59061 | 105° | 73km/h | 4189m | -2.6m/s | -3.4°C | 93.3% | 612.5hPa | 2.7V | 07:11:57 | 03:30:10 | 00:00:00 | |
| BIOWL7-15 | 2026-09-03 13:49:31 | 52.70544 | 10.59060 | 106° | 73km/h | 4189m | -2.6m/s | -3.4°C | 91.4% | 612.5hPa | 2.7V | 00:00:00 | 00:00:00 | 00:00:00 | |
| DL4XJ-10 | 2026-09-03 13:49:30 | 52.70552 | 10.59001 | 102° | 82km/h | 4195m | -2.6m/s | -2.5°C | 0% | 0hPa | 2.7V | 00:00:00 | 00:00:00 | 00:00:00 | |
| DM0DOS-11 | 2026-09-03 13:49:29 | 52.70573 | 10.58777 | 97° | 84km/h | 4212m | -2.5m/s | -3.6°C | 92.7% | 610.7hPa | 2.7V | 07:11:53 | 03:30:01 | 00:00:00 | |
| AA1-15 | 2026-09-03 13:49:29 | 52.70556 | 10.58972 | 101° | 73km/h | 4197m | -2.4m/s | -3.5°C | 93.6% | 611.9hPa | 2.7V | 07:11:57 | 03:30:07 | 00:00:00 | |
| DO2SHX-10 | 2026-09-03 13:49:27 | 52.70562 | 10.58910 | 99° | 78km/h | 4202m | -2.4m/s | -3.5°C | 93.6% | 611.4hPa | 2.7V | 00:00:00 | 03:30:05 | 00:00:00 | |
| DL1XH1-15 | 2026-09-03 13:49:26 | 52.70580 | 10.58706 | 99° | 88km/h | 4217m | -2.4m/s | -3.7°C | 91.9% | 610.2hPa | 2.7V | 07:11:55 | 03:29:59 | 00:00:00 | |
| DF8AY | 2026-09-03 13:49:26 | 52.70565 | 10.58878 | 98° | 78km/h | 4204m | -2.4m/s | -3.6°C | 93.7% | 611.5hPa | 2.6V | 07:11:57 | 03:30:04 | 00:00:00 | |
| BIOWL1-15 | 2026-09-03 13:49:26 | 52.70570 | 10.58812 | 98° | 82km/h | 4210m | -2.3m/s | -3.6°C | 94% | 611hPa | 2.7V | 07:11:57 | 03:30:02 | 00:00:00 | |
| DM0DOS-11 | 2026-09-03 13:49:24 | 52.70594 | 10.58599 | 104° | 88km/h | 4224m | -2.4m/s | -3.7°C | 90% | 609.8hPa | 2.6V | 07:11:58 | 03:29:56 | 00:00:00 | |
| DL1XH-west | 2026-09-03 13:49:21 | 52.70579 | 10.58706 | 100° | 88km/h | 4217m | -2.4m/s | -3.7°C | 92.8% | 610.2hPa | 2.7V | 07:11:57 | 03:29:59 | 00:00:00 | |
| DO2SHX-10 | 2026-09-03 13:49:21 | 52.70579 | 10.58706 | 100° | 88km/h | 4217m | -2.3m/s | -3.7°C | 91.9% | 610.2hPa | 2.7V | 00:00:00 | 03:29:59 | 00:00:00 | |
| SONCRA | 2026-09-03 13:49:19 | 52.70588 | 10.58634 | 102° | 88km/h | 4221m | -2.4m/s | -3.7°C | 87.8% | 610.1hPa | 2.7V | 00:00:00 | 00:00:00 | 00:00:00 | |
| DL1XH-15 | 2026-09-03 13:49:19 | 52.70618 | 10.58462 | 108° | 82km/h | 4233m | -2.4m/s | -3.7°C | 89.4% | 609.1hPa | 2.7V | 07:12:02 | 03:29:52 | 00:00:00 | |
| DM0DOS-11 | 2026-09-03 13:49:18 | 52.70625 | 10.58430 | 109° | 80km/h | 4236m | -2.5m/s | -3.6°C | 88.2% | 608.9hPa | 2.7V | 07:12:03 | 03:29:51 | 00:00:00 | |
| AA1-15 | 2026-09-03 13:49:18 | 52.70593 | 10.58599 | 104° | 88km/h | 4224m | -2.4m/s | -3.7°C | 90.3% | 609.9hPa | 2.6V | 07:12:48 | 03:29:56 | 00:00:00 | |
| DF8AY-15 | 2026-09-03 13:49:18 | 52.70593 | 10.58599 | 105° | 77km/h | 4224m | -2.4m/s | -3.6°C | 90.0% | 609.8hPa | 2.7V | 00:00:00 | 03:29:56 | 00:00:00 | |
| DF7ER-10 | 2026-09-03 13:49:17 | 52.70593 | 10.58599 | 105° | 88km/h | 4224m | -2.4m/s | -3.7°C | 87.2% | 609.9hPa | 2.7V | 07:12:00 | 00:00:00 | 00:00:00 | |
| DL1XH1-15 | 2026-09-03 13:49:16 | 52.70638 | 10.58369 | 109° | 77km/h | 4241m | -2.3m/s | -3.7°C | 87.4% | 608.5hPa | 2.7V | 07:12:05 | 03:29:49 | 00:00:00 | |
| DF8AY | 2026-09-03 13:49:16 | 52.70605 | 10.58529 | 107° | 86km/h | 4228m | -2.4m/s | -3.7°C | 89.5% | 609.5hPa | 2.7V | 07:12:48 | 03:29:54 | 00:00:00 | |
| DO2SHX-10 | 2026-09-03 13:49:15 | 52.70612 | 10.58495 | 109° | 82km/h | 4231m | -2.4m/s | -3.6°C | 90.2% | 609.2hPa | 2.7V | 00:00:00 | 03:29:53 | 00:00:00 | |
| DM0DOS-11 | 2026-09-03 13:49:13 | 52.70656 | 10.58280 | 107° | 73km/h | 4249m | -2.5m/s | -3.7°C | 85% | 608hPa | 2.7V | 07:12:08 | 03:29:46 | 00:00:00 | |
| BIOWL1-15 | 2026-09-03 13:49:13 | 52.70625 | 10.58430 | 109° | 80km/h | 4236m | -2.5m/s | -3.7°C | 86.5% | 608.9hPa | 2.7V | 07:12:48 | 03:29:51 | 00:00:00 | |
| DO2SHX-10 | 2026-09-03 13:49:12 | 52.70632 | 10.58399 | 110° | 77km/h | 4239m | -2.5m/s | -3.6°C | 87.8% | 608.7hPa | 2.7V | 00:00:00 | 03:29:50 | 00:00:00 | |
| DB0DAN | 2026-09-03 13:49:10 | 52.70645 | 10.58339 | 109° | 71km/h | 4243m | -2.5m/s | -3.7°C | 84.6% | 608.37hPa | 2.6V | 00:00:00 | 00:00:00 | 00:00:00 | |
| DL1XH-west | 2026-09-03 13:49:10 | 52.70645 | 10.58339 | 109° | 75km/h | 4243m | -2.5m/s | -3.7°C | 85.9% | 608.4hPa | 2.6V | 07:12:48 | 03:29:48 | 00:00:00 | |
| DL1XH-15 | 2026-09-03 13:49:09 | 52.70674 | 10.58167 | 101° | 69km/h | 4258m | -2.5m/s | -3.8°C | 84.7% | 607.1hPa | 2.7V | 07:12:12 | 03:29:42 | 00:00:00 | |
| AA1-15 | 2026-09-03 13:49:07 | 52.70661 | 10.58252 | 106° | 71km/h | 4251m | -2.3m/s | -3.8°C | 84.6% | 607.7hPa | 2.7V | 07:12:48 | 03:29:45 | 00:00:00 | |
| DF8AY | 2026-09-03 13:49:06 | 52.70666 | 10.58223 | 105° | 69km/h | 4253m | -2.5m/s | -3.7°C | 84.4% | 607.5hPa | 2.7V | 07:12:48 | 03:29:44 | 00:00:00 | |
| DO2SHX-10 | 2026-09-03 13:49:06 | 52.70666 | 10.58223 | 105° | 69km/h | 4253m | -2.4m/s | -3.7°C | 84.5% | 607.4hPa | 2.7V | 07:12:00 | 03:29:44 | 00:00:00 | |
| DL1XH-15 | 2026-09-03 13:49:04 | 52.70688 | 10.58016 | 96° | 77km/h | 4271m | -2.4m/s | -3.8°C | 72.1% | 606.2hPa | 2.7V | 07:12:17 | 03:29:37 | 00:00:00 | |
| DM0DOS-11 | 2026-09-03 13:49:03 | 52.70678 | 10.58138 | 100° | 71km/h | 4261m | -2.5m/s | -3.8°C | 83.3% | 606.8hPa | 2.7V | 07:12:13 | 03:29:41 | 00:00:00 | |
| BIOWL1-15 | 2026-09-03 13:49:03 | 52.70678 | 10.58138 | 100° | 71km/h | 4261m | -2.5m/s | -3.8°C | 84.4% | 606.8hPa | 2.7V | 07:12:48 | 03:29:41 | 00:00:00 | |
| DO2SHX-10 | 2026-09-03 13:49:03 | 52.70677 | 10.58138 | 101° | 71km/h | 4261m | -2.4m/s | -3.7°C | 83.3% | 606.8hPa | 2.7V | 00:00:00 | 03:29:41 | 00:00:00 | |
| DJ2DS-15 | 2026-09-03 13:49:02 | 52.70680 | 10.58108 | 99° | 78km/h | 4264m | -2.4m/s | -3.7°C | 76.7% | 606.6hPa | 2.7V | 00:00:00 | 03:29:40 | 00:00:00 | |
| DL1XH1-15 | 2026-09-03 13:49:01 | 52.70696 | 10.57916 | 98° | 84km/h | 4278m | -2.5m/s | -3.9°C | 66.6% | 605.6hPa | 2.7V | 07:12:20 | 03:29:34 | 00:00:00 | |
| DL1XH-west | 2026-09-03 13:49:00 | 52.70686 | 10.58048 | 97° | 75km/h | 4268m | -2.4m/s | -3.8°C | 73.4% | 606.4hPa | 2.7V | 07:12:48 | 03:29:38 | 00:00:00 | |
| DO2SHX-10 | 2026-09-03 13:49:00 | 52.70686 | 10.58048 | 98° | 77km/h | 4268m | -2.3m/s | -3.7°C | 70.3% | 606.4hPa | 2.6V | 00:00:00 | 03:29:38 | 00:00:00 | |
| DL1XH-15 | 2026-09-03 13:48:59 | 52.70703 | 10.57846 | 100° | 86km/h | 4283m | -2.5m/s | -3.9°C | 65.9% | 605.2hPa | 2.6V | 07:12:22 | 03:29:32 | 00:00:00 | |
| DF8AY | 2026-09-03 13:48:56 | 52.70696 | 10.57916 | 98° | 84km/h | 4278m | -2.5m/s | -3.9°C | 70% | 605.6hPa | 2.7V | 07:12:48 | 03:29:34 | 00:00:00 | |
| DO2LYB-13 | 2026-09-03 13:48:55 | 52.70696 | 10.57916 | 99° | 84km/h | 4278m | -2.5m/s | -3.9°C | 64.4% | 605.6hPa | 2.6V | 00:00:00 | 00:00:00 | 00:00:00 | |
| DM0DOS-11 | 2026-09-03 13:48:53 | 52.70707 | 10.57811 | 101° | 86km/h | 4285m | -2.5m/s | -3.9°C | 63.8% | 605hPa | 2.6V | 07:12:23 | 03:29:31 | 00:00:00 | |
| DM0DOS-11 | 2026-09-03 13:48:53 | 52.70736 | 10.57642 | 108° | 80km/h | 4297m | -2.3m/s | -3.8°C | 55.9% | 604.1hPa | 2.7V | 07:12:28 | 03:29:26 | 00:00:00 | |
| BIOWL1-15 | 2026-09-03 13:48:53 | 52.70707 | 10.57811 | 102° | 86km/h | 4285m | -2.5m/s | -3.9°C | 66.9% | 605hPa | 2.6V | 07:12:48 | 03:29:31 | 00:00:00 | |
| DL1XH1-15 | 2026-09-03 13:48:51 | 52.70748 | 10.57581 | 109° | 75km/h | 4302m | -2.4m/s | -3.9°C | 58.1% | 603.8hPa | 2.6V | 07:12:30 | 03:29:24 | 00:00:00 | |
| DL1XH-west | 2026-09-03 13:48:50 | 52.70723 | 10.57707 | 106° | 84km/h | 4292m | -2.3m/s | -3.8°C | 56.3% | 604.5hPa | 2.7V | 07:12:48 | 03:29:28 | 00:00:00 | |
| DL1XH-15 | 2026-09-03 13:48:49 | 52.70729 | 10.57674 | 107° | 82km/h | 4295m | -2.4m/s | -3.8°C | 51.9% | 604.3hPa | 2.7V | 07:12:27 | 03:29:27 | 00:00:00 | |
| DL4XJ-10 | 2026-09-03 13:48:49 | 52.70729 | 10.57674 | 108° | 78km/h | 4295m | -2.3m/s | -2.8°C | 0% | 0hPa | 2.7V | 00:00:00 | 00:00:00 | 00:00:00 | |
| DM0DOS-11 | 2026-09-03 13:48:48 | 52.70765 | 10.57495 | 106° | 69km/h | 4309m | -2.4m/s | -3.9°C | 59.5% | 603.2hPa | 2.7V | 07:12:33 | 03:29:21 | 00:00:00 | |
| AA1-15 | 2026-09-03 13:48:46 | 52.70748 | 10.57581 | 109° | 75km/h | 4302m | -2.4m/s | -3.9°C | 60.2% | 603.8hPa | 2.6V | 07:12:48 | 03:29:24 | 00:00:00 | |
| DF8AY | 2026-09-03 13:48:45 | 52.70754 | 10.57552 | 108° | 73km/h | 4304m | -2.4m/s | -3.9°C | 60.6% | 603.7hPa | 2.6V | 07:12:48 | 03:29:23 | 00:00:00 | |
| DO2SHX-10 | 2026-09-03 13:48:45 | 52.70754 | 10.57551 | 109° | 71km/h | 4304m | -2.4m/s | -3.9°C | 58.8% | 603.6hPa | 2.6V | 00:00:00 | 03:29:23 | 00:00:00 | |
| DL1XH-15 | 2026-09-03 13:48:44 | 52.70781 | 10.57384 | 101° | 68km/h | 4319m | -2.4m/s | -4.1°C | 65.5% | 602.6hPa | 2.7V | 07:12:37 | 03:29:17 | 00:00:00 | |
| BIOWL1-15 | 2026-09-03 13:48:44 | 52.70770 | 10.57467 | 105° | 69km/h | 4311m | -2.4m/s | -4°C | 61.5% | 603hPa | 2.7V | 07:12:48 | 03:29:20 | 00:00:00 | |
| DM0DOS-11 | 2026-09-03 13:48:43 | 52.70785 | 10.57356 | 100° | 69km/h | 4321m | -2.5m/s | -4.1°C | 65.4% | 602.2hPa | 2.6V | 07:12:38 | 03:29:16 | 00:00:00 | |
| DO2SHX-10 | 2026-09-03 13:48:42 | 52.70769 | 10.57467 | 106° | 68km/h | 4311m | -2.3m/s | -3.9°C | 59.5% | 603.0hPa | 2.7V | 07:12:00 | 03:29:20 | 00:00:00 | |
| DB0DAN | 2026-09-03 13:48:40 | 52.70778 | 10.57412 | 102° | 64km/h | 4316m | -2.4m/s | -4°C | 61.2% | 602.74hPa | 2.7V | 00:00:00 | 00:00:00 | 00:00:00 | |
| DL1XH-15 | 2026-09-03 13:48:39 | 52.70794 | 10.57240 | 96° | 75km/h | 4331m | -2.4m/s | -4.2°C | 65.3% | 601.6hPa | 2.7V | 07:12:42 | 03:29:12 | 00:00:00 | |
| DO2SHX-10 | 2026-09-03 13:48:39 | 52.70781 | 10.57384 | 102° | 68km/h | 4319m | -2.4m/s | -4.0°C | 65.5% | 602.6hPa | 2.6V | 00:00:00 | 03:29:17 | 00:00:00 | |
| DL1XH-west | 2026-09-03 13:48:39 | 52.70781 | 10.57384 | 101° | 68km/h | 4319m | -2.4m/s | -4.1°C | 67.5% | 602.6hPa | 2.7V | 07:12:48 | 03:29:17 | 00:00:00 | |
| DF8AY-15 | 2026-09-03 13:48:38 | 52.70784 | 10.57356 | 101° | 77km/h | 4321m | -2.5m/s | -4.0°C | 65.4% | 602.2hPa | 2.6V | 07:12:00 | 03:29:16 | 00:00:00 | |
| DL1XH1-15 | 2026-09-03 13:48:36 | 52.70801 | 10.57142 | 98° | 82km/h | 4338m | -2.2m/s | -4.2°C | 66% | 601.1hPa | 2.7V | 07:12:45 | 03:29:09 | 00:00:00 | |
| AA1-15 | 2026-09-03 13:48:35 | 52.70792 | 10.57270 | 97° | 71km/h | 4329m | -2.4m/s | -4.2°C | 69.1% | 601.8hPa | 2.7V | 07:12:48 | 03:29:13 | 00:00:00 | |
| DF8AY | 2026-09-03 13:48:34 | 52.70794 | 10.57240 | 96° | 75km/h | 4331m | -2.4m/s | -4.2°C | 68.8% | 601.6hPa | 2.7V | 07:12:48 | 03:29:12 | 00:00:00 | |
| DM0DOS-11 | 2026-09-03 13:48:33 | 52.70813 | 10.57039 | 102° | 86km/h | 4345m | -2.4m/s | -4.3°C | 65.8% | 600.5hPa | 2.7V | 07:12:48 | 03:29:06 | 00:00:00 | |
| BIOWL1-15 | 2026-09-03 13:48:31 | 52.70801 | 10.57142 | 98° | 82km/h | 4338m | -2.2m/s | -4.2°C | 70% | 601.1hPa | 2.7V | 07:12:48 | 03:29:09 | 00:00:00 | |
| DL1XH-west | 2026-09-03 13:48:28 | 52.70813 | 10.57039 | 103° | 86km/h | 4345m | -2.4m/s | -4.3°C | 69.6% | 600.5hPa | 2.7V | 07:12:48 | 03:29:06 | 00:00:00 | |
| TFSTFS | 2026-09-03 13:48:28 | 52.70812 | 10.57039 | 104° | 86km/h | 4345m | -2.4m/s | 0°C | 0% | 0hPa | 2.6V | 07:12:00 | 00:00:00 | 00:00:00 | |
| DL1XH1-15 | 2026-09-03 13:48:26 | 52.70854 | 10.56814 | 109° | 75km/h | 4361m | -2.3m/s | -4.4°C | 70.9% | 599.3hPa | 2.6V | 07:12:55 | 03:28:59 | 00:00:00 | |
| AA1-15 | 2026-09-03 13:48:25 | 52.70829 | 10.56938 | 107° | 82km/h | 4352m | -2.4m/s | -4.3°C | 69.4% | 600hPa | 2.7V | 07:13:39 | 03:29:03 | 00:00:00 | |
| DB0DAN | 2026-09-03 13:48:25 | 52.70829 | 10.56938 | 107° | 78km/h | 4352m | -2.4m/s | -4.3°C | 64.4% | 600.04hPa | 2.7V | 00:00:00 | 00:00:00 | 00:00:00 | |
| DL1XH-15 | 2026-09-03 13:48:24 | 52.70835 | 10.56905 | 107° | 80km/h | 4354m | -2.2m/s | -4.3°C | 67.7% | 599.8hPa | 2.7V | 07:12:52 | 03:29:02 | 00:00:00 | |
| DF8AY | 2026-09-03 13:48:24 | 52.70835 | 10.56905 | 108° | 80km/h | 4354m | -2.2m/s | -4.3°C | 70% | 599.8hPa | 2.7V | 07:13:39 | 03:29:02 | 00:00:00 | |
| DM0DOS-11 | 2026-09-03 13:48:23 | 52.70841 | 10.56874 | 108° | 78km/h | 4357m | -2.1m/s | -4.3°C | 69.6% | 599.6hPa | 2.7V | 07:12:53 | 03:29:01 | 00:00:00 | |
| BIOWL1-15 | 2026-09-03 13:48:22 | 52.70860 | 10.56785 | 109° | 73km/h | 4363m | -2.2m/s | -4.4°C | 73.9% | 599.2hPa | 2.7V | 07:13:39 | 03:28:58 | 00:00:00 | |
| DJ2DS-15 | 2026-09-03 13:48:22 | 52.70847 | 10.56843 | 109° | 73km/h | 4359m | -2.3m/s | -4.3°C | 70.0% | 599.4hPa | 2.6V | 00:00:00 | 03:29:00 | 00:00:00 | |
| DL4XJ-10 | 2026-09-03 13:48:20 | 52.70860 | 10.56784 | 109° | 73km/h | 4364m | -2.2m/s | -3.4°C | 0% | 0hPa | 2.6V | 00:00:00 | 00:00:00 | 00:00:00 | |
| DL1XH-15 | 2026-09-03 13:48:19 | 52.70888 | 10.56619 | 101° | 68km/h | 4377m | -2.5m/s | -4.6°C | 76.5% | 598hPa | 2.6V | 07:13:02 | 03:28:52 | 00:00:00 | |
| DL1XH-west | 2026-09-03 13:48:17 | 52.70876 | 10.56701 | 106° | 68km/h | 4370m | -2.3m/s | -4.5°C | 76.9% | 598.5hPa | 2.7V | 07:13:39 | 03:28:55 | 00:00:00 | |
| DL1XH1-15 | 2026-09-03 13:48:16 | 52.70880 | 10.56674 | 104° | 68km/h | 4373m | -2.3m/s | -4.5°C | 76.7% | 598.4hPa | 2.7V | 07:13:00 | 03:28:54 | 00:00:00 | |
| DL1XH1-15 | 2026-09-03 13:48:16 | 52.70897 | 10.56536 | 97° | 69km/h | 4385m | -2.3m/s | -4.6°C | 75.3% | 597.5hPa | 2.7V | 07:13:05 | 03:28:49 | 00:00:00 | |
| DO2SHX-10 | 2026-09-03 13:48:16 | 52.70880 | 10.56673 | 105° | 68km/h | 4373m | -2.2m/s | -4.5°C | 76.7% | 598.3hPa | 2.7V | 00:00:00 | 03:28:54 | 00:00:00 | |
| DL1XH-15 | 2026-09-03 13:48:14 | 52.70901 | 10.56477 | 95° | 73km/h | 4389m | -2.3m/s | -4.7°C | 74% | 597.1hPa | 2.7V | 07:13:07 | 03:28:47 | 00:00:00 | |
| DM0DOS-11 | 2026-09-03 13:48:13 | 52.70891 | 10.56592 | 100° | 68km/h | 4380m | -2.5m/s | -4.5°C | 75.1% | 597.8hPa | 2.6V | 07:13:03 | 03:28:51 | 00:00:00 | |
| DF8AY | 2026-09-03 13:48:13 | 52.70891 | 10.56592 | 101° | 68km/h | 4380m | -2.5m/s | -4.6°C | 76.3% | 597.8hPa | 2.6V | 07:13:39 | 03:28:51 | 00:00:00 | |
| DO2SHX-10 | 2026-09-03 13:48:13 | 52.70891 | 10.56592 | 101° | 68km/h | 4380m | -2.4m/s | -4.5°C | 75.1% | 597.8hPa | 2.6V | 00:00:00 | 03:28:51 | 00:00:00 | |
| DL1XH1-15 | 2026-09-03 13:48:11 | 52.70906 | 10.56382 | 96° | 80km/h | 4396m | -2.4m/s | -4.8°C | 75.2% | 596.6hPa | 2.6V | 07:13:10 | 03:28:44 | 00:00:00 | |
| BIOWL1-15 | 2026-09-03 13:48:10 | 52.70899 | 10.56507 | 97° | 71km/h | 4387m | -2.3m/s | -4.6°C | 76.3% | 597.4hPa | 2.7V | 07:13:39 | 03:28:48 | 00:00:00 | |
| DB0DAN | 2026-09-03 13:48:10 | 52.70899 | 10.56507 | 97° | 68km/h | 4387m | -2.3m/s | -4.6°C | 71.8% | 597.35hPa | 2.7V | 00:00:00 | 00:00:00 | 00:00:00 | |
| DO2SHX-10 | 2026-09-03 13:48:10 | 52.70899 | 10.56507 | 97° | 73km/h | 4387m | -2.3m/s | -4.6°C | 74.3% | 597.3hPa | 2.7V | 00:00:00 | 03:28:48 | 00:00:00 | |
| DM0DOS-11 | 2026-09-03 13:48:08 | 52.70915 | 10.56281 | 99° | 84km/h | 4403m | -2.4m/s | -4.8°C | 76% | 596.1hPa | 2.7V | 07:13:13 | 03:28:41 | 00:00:00 | |
| DL1XH-west | 2026-09-03 13:48:06 | 52.70907 | 10.56382 | 97° | 80km/h | 4396m | -2.4m/s | -4.8°C | 78.3% | 596.6hPa | 2.6V | 07:13:39 | 03:28:44 | 00:00:00 | |
| D01LWL | 2026-09-03 13:48:05 | 52.70912 | 10.56315 | 98° | 82km/h | 4401m | -2.3m/s | -4.8°C | 73.3% | 596.2hPa | 2.7V | 00:00:00 | 00:00:00 | 00:00:00 | |
| DL1XH-15 | 2026-09-03 13:48:04 | 52.70934 | 10.56145 | 105° | 82km/h | 4413m | -2.5m/s | -4.8°C | 77% | 595.3hPa | 2.7V | 07:13:17 | 03:28:37 | 00:00:00 | |
| DO2SHX-10 | 2026-09-03 13:48:04 | 52.70912 | 10.56315 | 99° | 84km/h | 4401m | -2.2m/s | -4.8°C | 75.8% | 596.2hPa | 2.6V | 00:00:00 | 03:28:42 | 00:00:00 | |
| DM0DOS-11 | 2026-09-03 13:48:03 | 52.70940 | 10.56112 | 106° | 82km/h | 4415m | -2.2m/s | -4.8°C | 76.5% | 595.2hPa | 2.6V | 07:13:18 | 03:28:36 | 00:00:00 | |
| AA1-15 | 2026-09-03 13:48:03 | 52.70915 | 10.56281 | 100° | 84km/h | 4403m | -2.4m/s | -4.8°C | 79% | 596.1hPa | 2.7V | 07:13:39 | 03:28:41 | 00:00:00 | |
| BIOWL1-15 | 2026-09-03 13:48:03 | 52.70934 | 10.56145 | 106° | 82km/h | 4413m | -2.5m/s | -4.8°C | 78.7% | 595.3hPa | 2.7V | 07:13:39 | 03:28:37 | 00:00:00 | |
| DF8AY | 2026-09-03 13:48:02 | 52.70919 | 10.56247 | 101° | 84km/h | 4406m | -2.4m/s | -4.8°C | 78.9% | 595.9hPa | 2.7V | 07:13:39 | 03:28:40 | 00:00:00 | |
| DJ2DS-15 | 2026-09-03 13:48:02 | 52.70919 | 10.56247 | 102° | 75km/h | 4406m | -2.3m/s | -4.7°C | 76.2% | 595.9hPa | 2.7V | 00:00:00 | 03:28:40 | 00:00:00 | |
| DL1XH1-15 | 2026-09-03 13:48:01 | 52.70952 | 10.56048 | 108° | 78km/h | 4420m | -2.4m/s | -4.9°C | 76.7% | 594.8hPa | 2.7V | 07:13:20 | 03:28:34 | 00:00:00 | |
| DO2SHX-10 | 2026-09-03 13:48:01 | 52.70923 | 10.56212 | 103° | 84km/h | 4408m | -2.3m/s | -4.8°C | 76.5% | 595.7hPa | 2.7V | 00:00:00 | 03:28:39 | 00:00:00 | |
| DL4XJ-10 | 2026-09-03 13:48:00 | 52.70928 | 10.56179 | 105° | 77km/h | 4410m | -2.2m/s | -3.8°C | 0% | 0hPa | 2.7V | 00:00:00 | 00:00:00 | 00:00:00 | |
| DM0DOS-11 | 2026-09-03 13:47:58 | 52.70971 | 10.55958 | 109° | 75km/h | 4427m | -2m/s | -5°C | 76.9% | 594.3hPa | 2.7V | 07:13:23 | 03:28:31 | 00:00:00 | |
| DL1XH-west | 2026-09-03 13:47:56 | 52.70952 | 10.56049 | 108° | 78km/h | 4420m | -2.4m/s | -4.9°C | 78.1% | 594.8hPa | 2.7V | 07:13:39 | 03:28:34 | 00:00:00 | |
| DB0DAN | 2026-09-03 13:47:55 | 52.70958 | 10.56018 | 109° | 75km/h | 4422m | -2.4m/s | -4.9°C | 74.1% | 594.58hPa | 2.7V | 00:00:00 | 00:00:00 | 00:00:00 | |
| DO2SHX-10 | 2026-09-03 13:47:55 | 52.70958 | 10.56018 | 109° | 77km/h | 4422m | -2.4m/s | -4.9°C | 76.7% | 594.5hPa | 2.6V | 00:00:00 | 03:28:33 | 00:00:00 | |
| DL1XH-15 | 2026-09-03 13:47:54 | 52.70993 | 10.55846 | 105° | 68km/h | 4436m | -2.3m/s | -5.1°C | 81.8% | 593.6hPa | 2.6V | 07:13:27 | 03:28:27 | 00:00:00 | |
| DM0DOS-11 | 2026-09-03 13:47:53 | 52.70997 | 10.55819 | 103° | 66km/h | 4438m | -2.3m/s | -5.1°C | 83.6% | 593.3hPa | 2.7V | 07:13:28 | 03:28:26 | 00:00:00 | |
| AA1-15 | 2026-09-03 13:47:52 | 52.70977 | 10.55929 | 109° | 71km/h | 4429m | -2.4m/s | -5°C | 77.9% | 594.1hPa | 2.7V | 07:13:39 | 03:28:30 | 00:00:00 | |
| DL1XH1-15 | 2026-09-03 13:47:51 | 52.70983 | 10.55901 | 108° | 69km/h | 4431m | -2.3m/s | -5°C | 78.5% | 594hPa | 2.7V | 07:13:25 | 03:28:29 | 00:00:00 | |
| DF8AY | 2026-09-03 13:47:51 | 52.70983 | 10.55901 | 108° | 69km/h | 4431m | -2.3m/s | -5°C | 79.1% | 594hPa | 2.7V | 07:13:39 | 03:28:29 | 00:00:00 | |
| DJ2DS-15 | 2026-09-03 13:47:50 | 52.70988 | 10.55873 | 107° | 68km/h | 4433m | -2.1m/s | -5.1°C | 77.1% | 593.8hPa | 2.7V | 00:00:00 | 00:00:00 | 00:00:00 | |
| DL1XH-15 | 2026-09-03 13:47:49 | 52.71008 | 10.55708 | 96° | 71km/h | 4447m | -2.1m/s | -5.2°C | 85.4% | 592.7hPa | 2.7V | 07:13:32 | 03:28:22 | 00:00:00 | |
| BIOWL1-15 | 2026-09-03 13:47:48 | 52.70997 | 10.55819 | 103° | 66km/h | 4438m | -2.3m/s | -5.1°C | 84.1% | 593.3hPa | 2.7V | 07:13:39 | 03:28:26 | 00:00:00 | |
| DL1XH-west | 2026-09-03 13:47:45 | 52.71006 | 10.55737 | 97° | 69km/h | 4445m | -2.2m/s | -5.2°C | 86.1% | 592.9hPa | 2.7V | 07:13:39 | 03:28:23 | 00:00:00 | |
| DL1XH-15 | 2026-09-03 13:47:44 | 52.71019 | 10.55547 | 99° | 82km/h | 4458m | -2.2m/s | -5.4°C | 86.4% | 592hPa | 2.7V | 07:13:37 | 03:28:17 | 00:00:00 | |
| DM0DOS-11 | 2026-09-03 13:47:43 | 52.71023 | 10.55513 | 101° | 84km/h | 4460m | -2.2m/s | -5.4°C | 86.7% | 591.7hPa | 2.7V | 07:13:38 | 03:28:16 | 00:00:00 | |
| DO2SHX-10 | 2026-09-03 13:47:43 | 52.71010 | 10.55677 | 96° | 77km/h | 4449m | -2.2m/s | -5.2°C | 85.9% | 592.5hPa | 2.6V | 07:13:00 | 03:28:21 | 00:00:00 | |
| DF7ER-10 | 2026-09-03 13:47:42 | 52.71010 | 10.55677 | 97° | 75km/h | 4449m | -2.3m/s | -5.3°C | 83.1% | 592.6hPa | 2.6V | 07:13:00 | 00:00:00 | 00:00:00 | |
| DL1XH1-15 | 2026-09-03 13:47:41 | 52.71014 | 10.55614 | 96° | 78km/h | 4454m | -2.2m/s | -5.3°C | 86.6% | 592.2hPa | 2.6V | 07:13:35 | 03:28:19 | 00:00:00 | |
| DF8AY | 2026-09-03 13:47:41 | 52.71014 | 10.55614 | 97° | 78km/h | 4454m | -2.2m/s | -5.4°C | 87.7% | 592.2hPa | 2.6V | 07:13:39 | 03:28:19 | 00:00:00 | |
| DB0DAN | 2026-09-03 13:47:40 | 52.71016 | 10.55581 | 98° | 77km/h | 4456m | -2.3m/s | -5.4°C | 83.7% | 591.99hPa | 2.7V | 00:00:00 | 00:00:00 | 00:00:00 | |
| DO2SHX-10 | 2026-09-03 13:47:40 | 52.71016 | 10.55581 | 98° | 82km/h | 4456m | -2.2m/s | -5.3°C | 86.6% | 591.9hPa | 2.7V | 00:00:00 | 03:28:18 | 00:00:00 | |
| DL1XH-15 | 2026-09-03 13:47:39 | 52.71044 | 10.55379 | 107° | 80km/h | 4470m | -2.3m/s | -5.4°C | 86.9% | 591.1hPa | 2.6V | 07:13:42 | 03:28:12 | 00:00:00 | |
| BIOWL1-15 | 2026-09-03 13:47:38 | 52.71023 | 10.55513 | 101° | 84km/h | 4460m | -2.2m/s | -5.4°C | 87.3% | 591.7hPa | 2.7V | 07:13:39 | 03:28:16 | 00:00:00 | |
| DF8AY-15 | 2026-09-03 13:47:38 | 52.71023 | 10.55513 | 102° | 73km/h | 4461m | -2.1m/s | -5.3°C | 86.7% | 591.7hPa | 2.7V | 00:00:00 | 03:28:16 | 00:00:00 | |
| DO2SHX-10 | 2026-09-03 13:47:37 | 52.71027 | 10.55479 | 103° | 84km/h | 4463m | -2.1m/s | -5.3°C | 86.5% | 591.6hPa | 2.7V | 00:00:00 | 03:28:15 | 00:00:00 | |
| SMARD9-15 | 2026-09-03 13:47:36 | 52.71038 | 10.55412 | 106° | 82km/h | 4467m | -2.3m/s | -5.4°C | 83.9% | 591.3hPa | 2.7V | 00:00:00 | 00:00:00 | 00:00:00 | |
| DL1XH-15 | 2026-09-03 13:47:34 | 52.71075 | 10.55226 | 109° | 73km/h | 4481m | -2.2m/s | -5.5°C | 87.5% | 590.2hPa | 2.7V | 07:13:47 | 03:28:07 | 00:00:00 | |
| DL1XH-west | 2026-09-03 13:47:34 | 52.71044 | 10.55379 | 107° | 80km/h | 4470m | -2.3m/s | -5.4°C | 87.4% | 591.1hPa | 2.6V | 07:14:30 | 03:28:12 | 00:00:00 | |
| D01LWL | 2026-09-03 13:47:34 | 52.71050 | 10.55347 | 108° | 78km/h | 4472m | -2.3m/s | -5.4°C | 84.2% | 590.9hPa | 2.7V | 00:00:00 | 00:00:00 | 00:00:00 | |
| DM0DOS-11 | 2026-09-03 13:47:33 | 52.71082 | 10.55198 | 109° | 71km/h | 4483m | -2m/s | -5.6°C | 87.7% | 590hPa | 2.7V | 07:13:48 | 03:28:06 | 00:00:00 | |
| DF7ER-10 | 2026-09-03 13:47:32 | 52.71050 | 10.55347 | 109° | 80km/h | 4472m | -2.3m/s | -5.4°C | 84.2% | 590.9hPa | 2.7V | 07:14:00 | 00:00:00 | 00:00:00 | |
| DL1XH1-15 | 2026-09-03 13:47:31 | 52.71063 | 10.55285 | 109° | 77km/h | 4476m | -2.3m/s | -5.5°C | 87.4% | 590.6hPa | 2.7V | 07:13:45 | 03:28:09 | 00:00:00 | |
| DL1XH1-15 | 2026-09-03 13:47:31 | 52.71093 | 10.55143 | 107° | 68km/h | 4487m | -2.1m/s | -5.5°C | 87.5% | 589.6hPa | 2.6V | 07:13:50 | 03:28:04 | 00:00:00 | |
| AA1-15 | 2026-09-03 13:47:31 | 52.71063 | 10.55285 | 109° | 77km/h | 4476m | -2.3m/s | -5.5°C | 87.9% | 590.6hPa | 2.7V | 07:14:30 | 03:28:09 | 00:00:00 | |
| DF8AY | 2026-09-03 13:47:30 | 52.71069 | 10.55256 | 110° | 75km/h | 4479m | -2.4m/s | -5.5°C | 88% | 590.4hPa | 2.7V | 07:14:30 | 03:28:08 | 00:00:00 | |
| DL1XH-15 | 2026-09-03 13:47:29 | 52.71102 | 10.55089 | 104° | 66km/h | 4492m | -2.4m/s | -5.6°C | 86.4% | 589.4hPa | 2.7V | 07:13:52 | 03:28:02 | 00:00:00 | |
| BIOWL1-15 | 2026-09-03 13:47:27 | 52.71087 | 10.55170 | 109° | 69km/h | 4485m | -2.2m/s | -5.6°C | 87.5% | 589.9hPa | 2.6V | 07:14:30 | 03:28:05 | 00:00:00 | |
| DL1XH1-15 | 2026-09-03 13:47:26 | 52.71113 | 10.55009 | 99° | 68km/h | 4499m | -2.2m/s | -5.6°C | 89.1% | 588.8hPa | 2.7V | 07:13:55 | 03:27:59 | 00:00:00 | |
| DB0DAN | 2026-09-03 13:47:25 | 52.71098 | 10.55116 | 106° | 64km/h | 4489m | -2.2m/s | -5.6°C | 83.7% | 589.46hPa | 2.7V | 00:00:00 | 00:00:00 | 00:00:00 | |
| DL1XH-west | 2026-09-03 13:47:24 | 52.71102 | 10.55089 | 105° | 66km/h | 4492m | -2.4m/s | -5.6°C | 85.7% | 589.4hPa | 2.7V | 07:14:30 | 03:28:02 | 00:00:00 | |
| DL1XH-15 | 2026-09-03 13:47:23 | 52.71118 | 10.54953 | 97° | 69km/h | 4503m | -2.2m/s | -5.7°C | 88.7% | 588.6hPa | 2.6V | 07:13:57 | 03:27:57 | 00:00:00 | |
| DM0DOS-11 | 2026-09-03 13:47:23 | 52.71120 | 10.54924 | 96° | 71km/h | 4505m | -2.2m/s | -5.8°C | 87% | 588.3hPa | 2.6V | 07:13:58 | 03:27:56 | 00:00:00 | |
| DJ2DS-15 | 2026-09-03 13:47:22 | 52.71110 | 10.55036 | 102° | 77km/h | 4496m | -2.2m/s | -5.6°C | 88.7% | 589.0hPa | 2.7V | 00:00:00 | 03:28:00 | 00:00:00 | |
| DL1XH1-15 | 2026-09-03 13:47:21 | 52.71124 | 10.54863 | 96° | 75km/h | 4510m | -2.1m/s | -5.8°C | 89.2% | 588hPa | 2.7V | 07:14:00 | 03:27:54 | 00:00:00 | |
| DF8AY | 2026-09-03 13:47:20 | 52.71115 | 10.54981 | 98° | 68km/h | 4501m | -2.3m/s | -5.7°C | 88.3% | 588.8hPa | 2.7V | 07:14:30 | 03:27:58 | 00:00:00 | |
| DL4XJ-10 | 2026-09-03 13:47:20 | 52.71116 | 10.54981 | 99° | 77km/h | 4501m | -2.2m/s | -4.6°C | 0% | 0hPa | 2.7V | 00:00:00 | 00:00:00 | 00:00:00 | |
| DO2SHX-10 | 2026-09-03 13:47:19 | 52.71118 | 10.54953 | 98° | 71km/h | 4503m | -2.2m/s | -5.7°C | 88.7% | 588.5hPa | 2.7V | 07:13:00 | 03:27:57 | 00:00:00 | |
| DM0DOS-11 | 2026-09-03 13:47:18 | 52.71132 | 10.54766 | 98° | 80km/h | 4516m | -2.2m/s | -6°C | 88.6% | 587.4hPa | 2.7V | 07:14:03 | 03:27:51 | 00:00:00 | |
| BIOWL1-15 | 2026-09-03 13:47:17 | 52.71122 | 10.54894 | 96° | 73km/h | 4508m | -2.2m/s | -5.8°C | 88.5% | 588.1hPa | 2.7V | 07:14:30 | 03:27:55 | 00:00:00 | |
| DL1XH1-15 | 2026-09-03 13:47:16 | 52.71138 | 10.54699 | 101° | 82km/h | 4520m | -2.2m/s | -6°C | 89.9% | 587.3hPa | 2.6V | 07:14:05 | 03:27:49 | 00:00:00 | |
| DL1XH-west | 2026-09-03 13:47:14 | 52.71129 | 10.54799 | 97° | 78km/h | 4514m | -2.1m/s | -5.9°C | 89.8% | 587.7hPa | 2.7V | 07:14:30 | 03:27:52 | 00:00:00 | |
| DM0DOS-11 | 2026-09-03 13:47:13 | 52.71153 | 10.54598 | 105° | 82km/h | 4527m | -2.1m/s | -6°C | 92.2% | 586.7hPa | 2.7V | 07:14:08 | 03:27:46 | 00:00:00 | |
| DO2SHX-10 | 2026-09-03 13:47:13 | 52.71131 | 10.54766 | 99° | 82km/h | 4516m | -2.2m/s | -5.9°C | 88.6% | 587.4hPa | 2.7V | 00:00:00 | 03:27:51 | 00:00:00 | |
| SONDE2-11 | 2026-09-03 13:47:12 | 52.71135 | 10.54733 | 99° | 80km/h | 4518m | -2.2m/s | -6.0°C | 85.8% | 587.4hPa | 2.7V | 00:00:00 | 00:00:00 | 00:00:00 | |
| TFSTFS | 2026-09-03 13:47:11 | 52.71134 | 10.54733 | 101° | 82km/h | 4518m | -2.2m/s | 0°C | 0% | 0hPa | 2.7V | 00:00:00 | 00:00:00 | 00:00:00 | |
| DB0DAN | 2026-09-03 13:47:10 | 52.71143 | 10.54665 | 103° | 78km/h | 4523m | -2.3m/s | -6°C | 87.3% | 587.11hPa | 2.7V | 00:00:00 | 00:00:00 | 00:00:00 | |
| DF8AY | 2026-09-03 13:47:09 | 52.71148 | 10.54632 | 104° | 84km/h | 4525m | -2.4m/s | -6°C | 91.6% | 586.9hPa | 2.7V | 07:14:30 | 03:27:47 | 00:00:00 | |
| BIOWL1-15 | 2026-09-03 13:47:07 | 52.71159 | 10.54566 | 107° | 82km/h | 4529m | -2.2m/s | -6°C | 92.4% | 586.6hPa | 2.7V | 07:14:30 | 03:27:45 | 00:00:00 | |
| DL1XH1-15 | 2026-09-03 13:47:06 | 52.71165 | 10.54533 | 107° | 80km/h | 4532m | -2.2m/s | -6°C | 91.9% | 586.4hPa | 2.7V | 07:14:10 | 03:27:44 | 00:00:00 | |
| DL1XH-15 | 2026-09-03 13:47:05 | 52.71178 | 10.54471 | 109° | 77km/h | 4536m | -2.1m/s | -6°C | 93.2% | 586.1hPa | 2.6V | 07:14:12 | 03:27:42 | 00:00:00 | |
| DL1XH-west | 2026-09-03 13:47:04 | 52.71178 | 10.54471 | 109° | 77km/h | 4536m | -2.1m/s | -6°C | 91.8% | 586.1hPa | 2.6V | 07:14:30 | 03:27:42 | 00:00:00 | |
| DO2SHX-10 | 2026-09-03 13:47:04 | 52.71177 | 10.54471 | 110° | 75km/h | 4536m | -2.1m/s | -6.0°C | 93.2% | 586.1hPa | 2.6V | 00:00:00 | 03:27:42 | 00:00:00 | |
| DM0DOS-11 | 2026-09-03 13:47:03 | 52.71214 | 10.54302 | 108° | 68km/h | 4549m | -2.1m/s | -6.2°C | 92.5% | 585hPa | 2.7V | 07:14:18 | 03:27:36 | 00:00:00 | |
| BIOWL1-15 | 2026-09-03 13:47:00 | 52.71224 | 10.54249 | 106° | 66km/h | 4553m | -2.2m/s | -6.2°C | 92.1% | 584.7hPa | 2.6V | 07:14:30 | 03:27:34 | 00:00:00 | |
| AA1-15 | 2026-09-03 13:46:58 | 52.71214 | 10.54302 | 108° | 68km/h | 4549m | -2.1m/s | -6.2°C | 90.7% | 585hPa | 2.7V | 07:14:30 | 03:27:36 | 00:00:00 | |
| DO2SHX-10 | 2026-09-03 13:46:58 | 52.71214 | 10.54302 | 109° | 66km/h | 4549m | -2.0m/s | -6.1°C | 92.5% | 585.0hPa | 2.6V | 00:00:00 | 03:27:36 | 00:00:00 | |
| DL1XH1-15 | 2026-09-03 13:46:56 | 52.71223 | 10.54249 | 105° | 66km/h | 4553m | -2.2m/s | -6.2°C | 93.7% | 584.7hPa | 2.6V | 07:14:20 | 03:27:34 | 00:00:00 | |
| DL1XH1-15 | 2026-09-03 13:46:56 | 52.71240 | 10.54116 | 97° | 68km/h | 4564m | -2.3m/s | -6.3°C | 94.6% | 583.9hPa | 2.7V | 07:14:25 | 03:27:29 | 00:00:00 | |
| DB0DAN | 2026-09-03 13:46:55 | 52.71228 | 10.54223 | 104° | 62km/h | 4556m | -2.1m/s | -6.2°C | 90.5% | 584.56hPa | 2.7V | 00:00:00 | 00:00:00 | 00:00:00 | |
| DL1XH-15 | 2026-09-03 13:46:54 | 52.71231 | 10.54197 | 102° | 66km/h | 4558m | -2.3m/s | -6.2°C | 94% | 584.4hPa | 2.7V | 07:14:22 | 03:27:32 | 00:00:00 | |
| DL1XH-15 | 2026-09-03 13:46:54 | 52.71244 | 10.54058 | 96° | 71km/h | 4569m | -2.1m/s | -6.4°C | 94.9% | 583.7hPa | 2.6V | 07:14:27 | 03:27:27 | 00:00:00 | |
| DL1XH-west | 2026-09-03 13:46:53 | 52.71235 | 10.54170 | 100° | 66km/h | 4560m | -2.2m/s | -6.2°C | 93.4% | 584.2hPa | 2.7V | 07:14:30 | 03:27:31 | 00:00:00 | |
| DO2SHX-10 | 2026-09-03 13:46:52 | 52.71237 | 10.54143 | 99° | 68km/h | 4562m | -2.1m/s | -6.2°C | 94.3% | 584.1hPa | 2.6V | 00:00:00 | 03:27:30 | 00:00:00 | |
| DF7ER-10 | 2026-09-03 13:46:50 | 52.71240 | 10.54116 | 99° | 68km/h | 4564m | -2.3m/s | -6.3°C | 91.4% | 583.9hPa | 2.6V | 07:14:00 | 00:00:00 | 00:00:00 | |
| DL1XH-15 | 2026-09-03 13:46:49 | 52.71260 | 10.53898 | 102° | 80km/h | 4578m | -2.1m/s | -6.5°C | 95.5% | 582.9hPa | 2.6V | 07:14:32 | 03:27:22 | 00:00:00 | |
| AA1-15 | 2026-09-03 13:46:47 | 52.71249 | 10.53996 | 98° | 77km/h | 4573m | -1.8m/s | -6.4°C | 94.5% | 583.3hPa | 2.7V | 07:14:30 | 03:27:25 | 00:00:00 | |
| EDDB2-11 | 2026-09-03 13:46:47 | 52.71252 | 10.53964 | 99° | 78km/h | 4574m | -2.0m/s | -6.5°C | 92.0% | 583.2hPa | 2.7V | 00:00:00 | 00:00:00 | 00:00:00 | |
| DL1XH1-15 | 2026-09-03 13:46:46 | 52.71275 | 10.53800 | 106° | 80km/h | 4584m | -2m/s | -6.5°C | 96.1% | 582.4hPa | 2.7V | 07:14:35 | 03:27:19 | 00:00:00 | |
| BIOWL1-15 | 2026-09-03 13:46:45 | 52.71255 | 10.53931 | 101° | 80km/h | 4576m | -2m/s | -6.5°C | 94.9% | 583.1hPa | 2.7V | 07:15:21 | 03:27:23 | 00:00:00 | |
| DL1XH-15 | 2026-09-03 13:46:44 | 52.71288 | 10.53736 | 108° | 78km/h | 4589m | -2.1m/s | -6.5°C | 96.3% | 582.1hPa | 2.7V | 07:14:37 | 03:27:17 | 00:00:00 | |
| DM0DOS-11 | 2026-09-03 13:46:43 | 52.71294 | 10.53706 | 109° | 77km/h | 4591m | -1.9m/s | -6.5°C | 96.1% | 582hPa | 2.6V | 07:14:38 | 03:27:16 | 00:00:00 | |
| DL1XH-west | 2026-09-03 13:46:43 | 52.71264 | 10.53865 | 104° | 82km/h | 4581m | -2m/s | -6.5°C | 95.1% | 582.8hPa | 2.7V | 07:15:21 | 03:27:21 | 00:00:00 | |
| DO2SHX-10 | 2026-09-03 13:46:43 | 52.71264 | 10.53865 | 104° | 82km/h | 4581m | -1.9m/s | -6.4°C | 95.8% | 582.8hPa | 2.7V | 00:00:00 | 03:27:21 | 00:00:00 | |
| DJ2DS-15 | 2026-09-03 13:46:42 | 52.71269 | 10.53832 | 106° | 71km/h | 4582m | -2.0m/s | -6.4°C | 95.9% | 582.6hPa | 2.7V | 00:00:00 | 03:27:20 | 00:00:00 | |
| SONDE2-11 | 2026-09-03 13:46:41 | 52.71275 | 10.53800 | 106° | 80km/h | 4584m | -2.0m/s | -6.5°C | 92.8% | 582.4hPa | 2.7V | 00:00:00 | 00:00:00 | 00:00:00 | |
| DO2SHX-10 | 2026-09-03 13:46:40 | 52.71281 | 10.53768 | 108° | 78km/h | 4587m | -2.1m/s | -6.4°C | 96.1% | 582.2hPa | 2.7V | 00:00:00 | 03:27:18 | 00:00:00 | |
| DL1XH-15 | 2026-09-03 13:46:39 | 52.71319 | 10.53592 | 109° | 69km/h | 4599m | -2.1m/s | -6.6°C | 96.4% | 581.4hPa | 2.7V | 07:14:42 | 03:27:12 | 00:00:00 | |
| AA1-15 | 2026-09-03 13:46:37 | 52.71300 | 10.53676 | 110° | 75km/h | 4593m | -2.2m/s | -6.5°C | 93.3% | 581.8hPa | 2.6V | 07:15:21 | 03:27:15 | 00:00:00 | |
| DL1XH1-15 | 2026-09-03 13:46:36 | 52.71307 | 10.53647 | 110° | 73km/h | 4595m | -2m/s | -6.6°C | 96.2% | 581.6hPa | 2.7V | 07:14:40 | 03:27:14 | 00:00:00 | |
| BIOWL9-15 | 2026-09-03 13:46:35 | 52.71313 | 10.53619 | 110° | 69km/h | 4597m | -2.0m/s | -6.6°C | 92.7% | 581.5hPa | 2.7V | 00:00:00 | 00:00:00 | 00:00:00 | |
| DM0DOS-11 | 2026-09-03 13:46:34 | 52.71325 | 10.53565 | 109° | 68km/h | 4601m | -2.2m/s | -6.6°C | 96.5% | 581.1hPa | 2.7V | 07:14:43 | 03:27:11 | 00:00:00 | |
| DO2SHX-10 | 2026-09-03 13:46:34 | 52.71319 | 10.53592 | 110° | 68km/h | 4599m | -2.1m/s | -6.6°C | 96.4% | 581.3hPa | 2.7V | 00:00:00 | 03:27:12 | 00:00:00 | |
| DL1XH-15 | 2026-09-03 13:46:33 | 52.71344 | 10.53461 | 103° | 64km/h | 4609m | -2m/s | -6.7°C | 96.8% | 580.6hPa | 2.7V | 07:14:47 | 03:27:07 | 00:00:00 | |
| DL1XH-west | 2026-09-03 13:46:32 | 52.71330 | 10.53539 | 109° | 66km/h | 4603m | -2m/s | -6.6°C | 92.4% | 580.9hPa | 2.7V | 07:15:21 | 03:27:10 | 00:00:00 | |
| DL1XH1-15 | 2026-09-03 13:46:31 | 52.71354 | 10.53383 | 98° | 66km/h | 4616m | -2.1m/s | -6.8°C | 96.2% | 580.1hPa | 2.7V | 07:14:50 | 03:27:04 | 00:00:00 | |
| BIOWL1-15 | 2026-09-03 13:46:30 | 52.71340 | 10.53487 | 106° | 64km/h | 4607m | -2.2m/s | -6.7°C | 93.3% | 580.7hPa | 2.6V | 07:15:21 | 03:27:08 | 00:00:00 | |
| DF7ER-10 | 2026-09-03 13:46:29 | 52.71340 | 10.53487 | 107° | 64km/h | 4607m | -2.2m/s | -6.7°C | 93.7% | 580.7hPa | 2.7V | 07:15:00 | 00:00:00 | 00:00:00 | |
| DM0DOS-11 | 2026-09-03 13:46:28 | 52.71348 | 10.53436 | 102° | 64km/h | 4611m | -2m/s | -6.7°C | 96.5% | 580.4hPa | 2.7V | 07:14:48 | 03:27:06 | 00:00:00 | |
| DM0DOS-11 | 2026-09-03 13:46:28 | 52.71362 | 10.53269 | 96° | 73km/h | 4624m | -2.1m/s | -6.8°C | 94.1% | 579.5hPa | 2.6V | 07:14:54 | 03:27:00 | 00:00:00 | |
| DL1XH-15 | 2026-09-03 13:46:28 | 52.71358 | 10.53328 | 96° | 69km/h | 4620m | -2.1m/s | -6.7°C | 94.8% | 579.8hPa | 2.7V | 07:14:52 | 03:27:02 | 00:00:00 | |
| DF8AY | 2026-09-03 13:46:27 | 52.71351 | 10.53410 | 100° | 64km/h | 4614m | -2.2m/s | -6.7°C | 93.6% | 580.3hPa | 2.7V | 07:15:21 | 03:27:05 | 00:00:00 | |
| AA1-15 | 2026-09-03 13:46:26 | 52.71354 | 10.53383 | 98° | 66km/h | 4616m | -2.1m/s | -6.8°C | 94% | 580.1hPa | 2.7V | 07:15:21 | 03:27:04 | 00:00:00 | |
| DB0DAN | 2026-09-03 13:46:25 | 52.71356 | 10.53356 | 97° | 64km/h | 4618m | -2.1m/s | -6.8°C | 92.4% | 579.9hPa | 2.7V | 00:00:00 | 00:00:00 | 00:00:00 | |
| DO2SHX-10 | 2026-09-03 13:46:25 | 52.71356 | 10.53356 | 97° | 69km/h | 4618m | -2.1m/s | -6.7°C | 95.7% | 579.8hPa | 2.7V | 00:00:00 | 03:27:03 | 00:00:00 | |
| DM0DOS-11 | 2026-09-03 13:46:23 | 52.71378 | 10.53109 | 104° | 80km/h | 4634m | -2m/s | -6.7°C | 89% | 578.7hPa | 2.7V | 07:14:59 | 03:26:55 | 00:00:00 | |
| DJ2DS-15 | 2026-09-03 13:46:22 | 52.71361 | 10.53269 | 97° | 71km/h | 4624m | -2.0m/s | -6.7°C | 94.1% | 579.4hPa | 2.7V | 00:00:00 | 03:27:00 | 00:00:00 | |
| DL1XH-15 | 2026-09-03 13:46:21 | 52.71369 | 10.53174 | 99° | 78km/h | 4631m | -2.1m/s | -6.8°C | 92.2% | 579hPa | 2.7V | 07:14:57 | 03:26:57 | 00:00:00 | |
| DL1XH-west | 2026-09-03 13:46:21 | 52.71363 | 10.53238 | 97° | 75km/h | 4626m | -1.9m/s | -6.8°C | 94% | 579.4hPa | 2.7V | 07:15:21 | 03:26:59 | 00:00:00 | |
| DF8AY | 2026-09-03 13:46:16 | 52.71383 | 10.53076 | 106° | 80km/h | 4637m | -2.1m/s | -6.7°C | 88.3% | 578.6hPa | 2.6V | 07:15:21 | 03:26:54 | 00:00:00 | |
| DO2SHX-10 | 2026-09-03 13:46:16 | 52.71383 | 10.53076 | 107° | 78km/h | 4637m | -2.0m/s | -6.7°C | 88.3% | 578.5hPa | 2.7V | 00:00:00 | 03:26:54 | 00:00:00 | |
| DL1XH-15 | 2026-09-03 13:46:15 | 52.71395 | 10.53014 | 109° | 77km/h | 4641m | -2m/s | -6.8°C | 87.3% | 578.2hPa | 2.7V | 07:15:02 | 03:26:52 | 00:00:00 | |
| AA1-15 | 2026-09-03 13:46:15 | 52.71389 | 10.53045 | 108° | 78km/h | 4639m | -2.1m/s | -6.7°C | 87.1% | 578.4hPa | 2.6V | 07:15:21 | 03:26:53 | 00:00:00 | |
| DM0DOS-11 | 2026-09-03 13:46:14 | 52.71407 | 10.52956 | 110° | 71km/h | 4645m | -2m/s | -6.8°C | 86.8% | 577.9hPa | 2.7V | 07:15:04 | 03:26:50 | 00:00:00 | |
| DO2SHX-10 | 2026-09-03 13:46:13 | 52.71401 | 10.52985 | 110° | 71km/h | 4643m | -2.2m/s | -6.7°C | 86.9% | 577.9hPa | 2.7V | 00:00:00 | 03:26:51 | 00:00:00 | |
| DL1XH1-15 | 2026-09-03 13:46:11 | 52.71438 | 10.52800 | 103° | 62km/h | 4658m | -2.2m/s | -6.7°C | 80.9% | 577hPa | 2.7V | 07:15:10 | 03:26:44 | 00:00:00 | |
| DL1XH-west | 2026-09-03 13:46:11 | 52.71413 | 10.52929 | 110° | 69km/h | 4647m | -2.1m/s | -6.8°C | 84.2% | 577.8hPa | 2.7V | 07:15:21 | 03:26:49 | 00:00:00 | |
| DB0DAN | 2026-09-03 13:46:10 | 52.71419 | 10.52902 | 109° | 64km/h | 4649m | -2.2m/s | -6.7°C | 82% | 577.62hPa | 2.7V | 00:00:00 | 00:00:00 | 00:00:00 | |
| DL1XH-15 | 2026-09-03 13:46:09 | 52.71424 | 10.52876 | 107° | 66km/h | 4652m | -2.1m/s | -6.7°C | 83.5% | 577.5hPa | 2.6V | 07:15:07 | 03:26:47 | 00:00:00 | |
| DF7ER-10 | 2026-09-03 13:46:08 | 52.71424 | 10.52876 | 109° | 66km/h | 4652m | -2.1m/s | -6.7°C | 80.6% | 577.5hPa | 2.6V | 07:15:00 | 00:00:00 | 00:00:00 | |
| DO2SHX-10 | 2026-09-03 13:46:07 | 52.71434 | 10.52825 | 106° | 62km/h | 4656m | -2.1m/s | -6.7°C | 81.2% | 577.0hPa | 2.6V | 07:15:00 | 03:26:45 | 00:00:00 | |
| DL1XH1-15 | 2026-09-03 13:46:06 | 52.71450 | 10.52666 | 95° | 69km/h | 4669m | -2.1m/s | -6.8°C | 80.1% | 576hPa | 2.6V | 07:15:15 | 03:26:39 | 00:00:00 | |
| BIOWL1-15 | 2026-09-03 13:46:05 | 52.71441 | 10.52774 | 101° | 62km/h | 4660m | -2.4m/s | -6.8°C | 79.9% | 576.8hPa | 2.7V | 07:15:21 | 03:26:43 | 00:00:00 | |
| AA1-15 | 2026-09-03 13:46:04 | 52.71444 | 10.52748 | 99° | 64km/h | 4663m | -2.2m/s | -6.8°C | 80.2% | 576.7hPa | 2.7V | 07:15:21 | 03:26:42 | 00:00:00 | |
| DL1XH-15 | 2026-09-03 13:46:04 | 52.71444 | 10.52748 | 99° | 64km/h | 4663m | -2.1m/s | -6.8°C | 80.8% | 576.6hPa | 2.7V | 07:15:12 | 03:26:42 | 00:00:00 | |
| DO2SHX-10 | 2026-09-03 13:46:04 | 52.71444 | 10.52748 | 100° | 66km/h | 4663m | -2.1m/s | -6.7°C | 80.8% | 576.6hPa | 2.7V | 00:00:00 | 03:26:42 | 00:00:00 | |
| SMARD9-15 | 2026-09-03 13:46:03 | 52.71446 | 10.52722 | 98° | 64km/h | 4665m | -2.1m/s | -6.8°C | 78.0% | 576.5hPa | 2.7V | 00:00:00 | 00:00:00 | 00:00:00 | |
| DJ2DS-15 | 2026-09-03 13:46:02 | 52.71448 | 10.52694 | 97° | 73km/h | 4667m | -2.1m/s | -6.7°C | 80.5% | 576.3hPa | 2.7V | 00:00:00 | 03:26:40 | 00:00:00 | |
| DL1XH1-15 | 2026-09-03 13:46:01 | 52.71461 | 10.52511 | 98° | 78km/h | 4680m | -2.2m/s | -6.9°C | 78.2% | 575.3hPa | 2.7V | 07:15:20 | 03:26:34 | 00:00:00 | |
| DL1XH-west | 2026-09-03 13:46:00 | 52.71452 | 10.52637 | 96° | 71km/h | 4671m | -2.1m/s | -6.9°C | 80.4% | 576hPa | 2.6V | 07:15:21 | 03:26:38 | 00:00:00 | |
| DO2SHX-10 | 2026-09-03 13:45:58 | 52.71456 | 10.52575 | 97° | 78km/h | 4675m | -2.2m/s | -6.9°C | 79.9% | 575.6hPa | 2.7V | 00:00:00 | 03:26:36 | 00:00:00 | |
| DL4XJ-10 | 2026-09-03 13:45:57 | 52.71458 | 10.52543 | 98° | 71km/h | 4677m | -2.1m/s | -5.9°C | 0% | 0hPa | 2.7V | 00:00:00 | 00:00:00 | 00:00:00 | |
| DL1XH1-15 | 2026-09-03 13:45:56 | 52.71482 | 10.52349 | 106° | 78km/h | 4691m | -2.1m/s | -6.8°C | 57.1% | 574.6hPa | 2.7V | 07:15:25 | 03:26:29 | 00:00:00 | |
| DF8AY | 2026-09-03 13:45:55 | 52.71464 | 10.52479 | 100° | 80km/h | 4682m | -2.2m/s | -6.9°C | 79.1% | 575.2hPa | 2.7V | 07:15:21 | 03:26:33 | 00:00:00 | |
| DB0DAN | 2026-09-03 13:45:55 | 52.71464 | 10.52479 | 100° | 77km/h | 4682m | -2.2m/s | -6.9°C | 74.9% | 575.17hPa | 2.7V | 00:00:00 | 00:00:00 | 00:00:00 | |
| AA1-15 | 2026-09-03 13:45:54 | 52.71468 | 10.52446 | 101° | 80km/h | 4684m | -2.2m/s | -6.9°C | 75.9% | 575.1hPa | 2.6V | 07:16:12 | 03:26:32 | 00:00:00 | |
| DL1XH-15 | 2026-09-03 13:45:54 | 52.71468 | 10.52446 | 101° | 80km/h | 4684m | -2.2m/s | -6.9°C | 74.2% | 575hPa | 2.6V | 07:15:22 | 03:26:32 | 00:00:00 | |
| DO2SHX-10 | 2026-09-03 13:45:52 | 52.71477 | 10.52380 | 105° | 78km/h | 4688m | -2.1m/s | -6.8°C | 61.5% | 574.7hPa | 2.7V | 00:00:00 | 03:26:30 | 00:00:00 | |
| DL1XH-15 | 2026-09-03 13:45:49 | 52.71522 | 10.52153 | 107° | 64km/h | 4706m | -2.2m/s | -6.8°C | 38.9% | 573.4hPa | 2.7V | 07:15:32 | 03:26:22 | 00:00:00 | |
| DL1XH-west | 2026-09-03 13:45:49 | 52.71494 | 10.52288 | 109° | 75km/h | 4695m | -2.1m/s | -6.8°C | 53.1% | 574.2hPa | 2.7V | 07:16:12 | 03:26:27 | 00:00:00 | |
| DO2SHX-10 | 2026-09-03 13:45:49 | 52.71494 | 10.52288 | 109° | 71km/h | 4695m | -2.1m/s | -6.7°C | 50.4% | 574.1hPa | 2.6V | 00:00:00 | 03:26:27 | 00:00:00 | |
| DF7ER-10 | 2026-09-03 13:45:47 | 52.71500 | 10.52259 | 110° | 71km/h | 4697m | -2.1m/s | -6.8°C | 46.3% | 574.0hPa | 2.6V | 07:16:00 | 00:00:00 | 00:00:00 | |
| DL1XH1-15 | 2026-09-03 13:45:46 | 52.71511 | 10.52204 | 109° | 68km/h | 4702m | -2.2m/s | -6.8°C | 41.5% | 573.7hPa | 2.6V | 07:15:30 | 03:26:24 | 00:00:00 | |
| DL1XH1-15 | 2026-09-03 13:45:46 | 52.71534 | 10.52077 | 102° | 62km/h | 4713m | -2.1m/s | -6.8°C | 35.9% | 572.9hPa | 2.7V | 07:15:35 | 03:26:19 | 00:00:00 | |
| DF8AY | 2026-09-03 13:45:44 | 52.71522 | 10.52153 | 107° | 64km/h | 4706m | -2.2m/s | -6.8°C | 41.6% | 573.4hPa | 2.7V | 07:16:12 | 03:26:22 | 00:00:00 | |
| AA1-15 | 2026-09-03 13:45:43 | 52.71526 | 10.52128 | 106° | 62km/h | 4708m | -2.4m/s | -6.8°C | 41% | 573.3hPa | 2.7V | 07:16:12 | 03:26:21 | 00:00:00 | |
| DO2SHX-10 | 2026-09-03 13:45:43 | 52.71526 | 10.52127 | 106° | 62km/h | 4708m | -2.3m/s | -6.8°C | 38.4% | 573.2hPa | 2.7V | 07:15:00 | 03:26:21 | 00:00:00 | |
| DJ2DS-15 | 2026-09-03 13:45:42 | 52.71530 | 10.52102 | 105° | 71km/h | 4711m | -2.3m/s | -6.7°C | 37.4% | 573.1hPa | 2.7V | 00:00:00 | 03:26:20 | 00:00:00 | |
| DM0DOS-11 | 2026-09-03 13:45:40 | 52.71550 | 10.51884 | 96° | 75km/h | 4728m | -2m/s | -7°C | 29.7% | 571.8hPa | 2.7V | 07:15:42 | 03:26:12 | 00:00:00 | |
| DB0DAN | 2026-09-03 13:45:40 | 52.71537 | 10.52052 | 101° | 58km/h | 4715m | -2.3m/s | -6.8°C | 32.3% | 572.78hPa | 2.6V | 00:00:00 | 00:00:00 | 00:00:00 | |
| DL1XH-west | 2026-09-03 13:45:39 | 52.71540 | 10.52026 | 99° | 64km/h | 4717m | -2.2m/s | -6.8°C | 32.6% | 572.6hPa | 2.6V | 07:16:12 | 03:26:17 | 00:00:00 | |
| DF8AY-15 | 2026-09-03 13:45:38 | 52.71542 | 10.51999 | 98° | 73km/h | 4720m | -2.2m/s | -6.8°C | 27.0% | 572.4hPa | 2.7V | 00:00:00 | 03:26:16 | 00:00:00 | |
| DL1XH1-15 | 2026-09-03 13:45:36 | 52.71546 | 10.51944 | 95° | 69km/h | 4724m | -2.1m/s | -6.9°C | 24.4% | 572.2hPa | 2.7V | 07:15:40 | 03:26:14 | 00:00:00 | |
| DL1XH1-15 | 2026-09-03 13:45:36 | 52.71559 | 10.51790 | 101° | 78km/h | 4734m | -2.1m/s | -7.1°C | 49.3% | 571.3hPa | 2.7V | 07:15:45 | 03:26:09 | 00:00:00 | |
| DM0DOS-11 | 2026-09-03 13:45:35 | 52.71564 | 10.51758 | 103° | 78km/h | 4736m | -2.1m/s | -7.1°C | 48.1% | 571.2hPa | 2.7V | 07:15:46 | 03:26:08 | 00:00:00 | |
| BIOWL1-15 | 2026-09-03 13:45:34 | 52.71550 | 10.51884 | 97° | 75km/h | 4728m | -2.1m/s | -7°C | 33.2% | 571.8hPa | 2.7V | 07:16:12 | 03:26:12 | 00:00:00 | |
| DO2SHX-10 | 2026-09-03 13:45:34 | 52.71550 | 10.51884 | 97° | 77km/h | 4728m | -2.0m/s | -7.0°C | 29.7% | 571.8hPa | 2.7V | 00:00:00 | 03:26:12 | 00:00:00 | |
| BIOWL9-15 | 2026-09-03 13:45:33 | 52.71552 | 10.51853 | 98° | 75km/h | 4730m | -2.1m/s | -7.1°C | 37.0% | 571.6hPa | 2.6V | 00:00:00 | 00:00:00 | 00:00:00 | |
| AA1-15 | 2026-09-03 13:45:33 | 52.71552 | 10.51853 | 98° | 77km/h | 4730m | -2.1m/s | -7.1°C | 41.9% | 571.6hPa | 2.6V | 07:16:12 | 03:26:11 | 00:00:00 | |
| SMARD9-15 | 2026-09-03 13:45:32 | 52.71559 | 10.51790 | 101° | 77km/h | 4734m | -2.1m/s | -7.1°C | 47.5% | 571.3hPa | 2.6V | 00:00:00 | 00:00:00 | 00:00:00 | |
| DL1XH1-15 | 2026-09-03 13:45:31 | 52.71585 | 10.51634 | 108° | 75km/h | 4745m | -2.1m/s | -7.1°C | 42.8% | 570.5hPa | 2.6V | 07:15:50 | 03:26:04 | 00:00:00 | |
| DL1XH-west | 2026-09-03 13:45:29 | 52.71569 | 10.51726 | 105° | 78km/h | 4738m | -2.1m/s | -7.1°C | 49.8% | 571hPa | 2.7V | 07:16:12 | 03:26:07 | 00:00:00 | |
| BIOWL1-15 | 2026-09-03 13:45:26 | 52.71598 | 10.51576 | 110° | 73km/h | 4749m | -2.3m/s | -7.1°C | 38.1% | 570.3hPa | 2.7V | 07:16:12 | 03:26:02 | 00:00:00 | |
| DM0DOS-11 | 2026-09-03 13:45:25 | 52.71592 | 10.51604 | 109° | 75km/h | 4747m | -2.1m/s | -7.1°C | 39.8% | 570.4hPa | 2.6V | 07:15:51 | 03:26:03 | 00:00:00 | |
| DM0DOS-11 | 2026-09-03 13:45:25 | 52.71623 | 10.51467 | 110° | 68km/h | 4758m | -2.4m/s | -7.1°C | 33.4% | 569.5hPa | 2.7V | 07:15:56 | 03:25:58 | 00:00:00 | |
| DB0DAN | 2026-09-03 13:45:25 | 52.71592 | 10.51604 | 110° | 71km/h | 4747m | -2.1m/s | -7.1°C | 38.2% | 570.38hPa | 2.6V | 00:00:00 | 00:00:00 | 00:00:00 | |
| DO2SHX-10 | 2026-09-03 13:45:25 | 52.71592 | 10.51604 | 110° | 73km/h | 4747m | -2.1m/s | -7.0°C | 39.8% | 570.3hPa | 2.6V | 00:00:00 | 03:26:03 | 00:00:00 | |
| DL1XH-15 | 2026-09-03 13:45:23 | 52.71635 | 10.51416 | 110° | 64km/h | 4763m | -2.3m/s | -7.1°C | 31.6% | 569.3hPa | 2.6V | 07:15:58 | 03:25:56 | 00:00:00 | |
| AA1-15 | 2026-09-03 13:45:23 | 52.71604 | 10.51548 | 111° | 71km/h | 4752m | -2.2m/s | -7.1°C | 36% | 569.9hPa | 2.7V | 07:16:12 | 03:26:01 | 00:00:00 | |
| DF8AY | 2026-09-03 13:45:22 | 52.71611 | 10.51520 | 111° | 69km/h | 4754m | -2.1m/s | -7.1°C | 36.3% | 569.9hPa | 2.7V | 07:16:12 | 03:26:00 | 00:00:00 | |
| DL1XH1-15 | 2026-09-03 13:45:21 | 52.71617 | 10.51494 | 111° | 68km/h | 4756m | -2.3m/s | -7.1°C | 33.2% | 569.7hPa | 2.7V | 07:15:55 | 03:25:59 | 00:00:00 | |
| DL1XH1-15 | 2026-09-03 13:45:21 | 52.71645 | 10.51367 | 108° | 62km/h | 4768m | -2.3m/s | -7.1°C | 29.9% | 568.9hPa | 2.7V | 07:16:00 | 03:25:54 | 00:00:00 | |
| DM0DOS-11 | 2026-09-03 13:45:20 | 52.71650 | 10.51343 | 107° | 60km/h | 4770m | -2.2m/s | -7.2°C | 29.6% | 568.7hPa | 2.7V | 07:16:01 | 03:25:53 | 00:00:00 | |
| DO2SHX-10 | 2026-09-03 13:45:19 | 52.71629 | 10.51442 | 111° | 64km/h | 4761m | -2.2m/s | -7.1°C | 32.8% | 569.3hPa | 2.7V | 07:15:00 | 03:25:57 | 00:00:00 | |
| DL1XH-15 | 2026-09-03 13:45:18 | 52.71658 | 10.51294 | 103° | 60km/h | 4775m | -2.3m/s | -7.2°C | 30.1% | 568.3hPa | 2.7V | 07:16:03 | 03:25:51 | 00:00:00 | |
| DL1XH-west | 2026-09-03 13:45:18 | 52.71635 | 10.51416 | 110° | 64km/h | 4763m | -2.3m/s | -7.1°C | 34.1% | 569.3hPa | 2.6V | 07:16:12 | 03:25:56 | 00:00:00 | |
| DF8AY-15 | 2026-09-03 13:45:18 | 52.71634 | 10.51416 | 111° | 68km/h | 4763m | -2.2m/s | -7.1°C | 31.6% | 569.2hPa | 2.6V | 00:00:00 | 03:25:56 | 00:00:00 | |
| DL4XJ-10 | 2026-09-03 13:45:17 | 52.71640 | 10.51391 | 110° | 69km/h | 4765m | -2.5m/s | -6.1°C | 0% | 0hPa | 2.6V | 00:00:00 | 00:00:00 | 00:00:00 | |
| DL1XH1-15 | 2026-09-03 13:45:16 | 52.71664 | 10.51245 | 99° | 62km/h | 4779m | -2.3m/s | -7.2°C | 30% | 568hPa | 2.6V | 07:16:05 | 03:25:49 | 00:00:00 | |
| DO2SHX-10 | 2026-09-03 13:45:16 | 52.71645 | 10.51367 | 109° | 60km/h | 4768m | -2.3m/s | -7.1°C | 29.9% | 568.9hPa | 2.7V | 00:00:00 | 03:25:54 | 00:00:00 | |
| DM0DOS-11 | 2026-09-03 13:45:14 | 52.71666 | 10.51219 | 97° | 64km/h | 4782m | -2.4m/s | -7.3°C | 27.7% | 567.9hPa | 2.7V | 07:16:06 | 03:25:48 | 00:00:00 | |
| AA1-15 | 2026-09-03 13:45:12 | 52.71661 | 10.51270 | 102° | 60km/h | 4777m | -2.4m/s | -7.2°C | 33.5% | 568.1hPa | 2.6V | 07:16:12 | 03:25:50 | 00:00:00 | |
| DF8AY | 2026-09-03 13:45:11 | 52.71664 | 10.51245 | 99° | 62km/h | 4779m | -2.3m/s | -7.2°C | 33.2% | 568hPa | 2.6V | 07:16:12 | 03:25:49 | 00:00:00 | |
| DB0DAN | 2026-09-03 13:45:10 | 52.71666 | 10.51219 | 98° | 60km/h | 4782m | -2.4m/s | -7.3°C | 26.6% | 567.88hPa | 2.7V | 00:00:00 | 00:00:00 | 00:00:00 | |
| DO2SHX-10 | 2026-09-03 13:45:10 | 52.71666 | 10.51219 | 98° | 66km/h | 4782m | -2.3m/s | -7.2°C | 27.7% | 567.8hPa | 2.7V | 00:00:00 | 03:25:48 | 00:00:00 | |
| S3001 | 2026-09-03 13:45:09 | 52.71668 | 10.51193 | 96° | 64km/h | 4784m | -2.3m/s | -7.2°C | 25.1% | 567.7hPa | 2.7V | 00:00:00 | 00:00:00 | 00:00:00 | |
| DL1XH-15 | 2026-09-03 13:45:08 | 52.71685 | 10.51012 | 102° | 78km/h | 4798m | -2.3m/s | -7.3°C | 27.7% | 566.7hPa | 2.7V | 07:16:13 | 03:25:41 | 00:00:00 | |
| DL1XH-west | 2026-09-03 13:45:07 | 52.71672 | 10.51136 | 97° | 71km/h | 4788m | -2.2m/s | -7.3°C | 26.5% | 567.5hPa | 2.7V | 07:16:12 | 03:25:45 | 00:00:00 | |
| BIOWL1-15 | 2026-09-03 13:45:05 | 52.71685 | 10.51012 | 103° | 78km/h | 4798m | -2.3m/s | -7.3°C | 31% | 566.7hPa | 2.7V | 07:17:03 | 03:25:41 | 00:00:00 | |
| DF8AY | 2026-09-03 13:45:01 | 52.71695 | 10.50950 | 106° | 77km/h | 4802m | -2.5m/s | -7.3°C | 31.3% | 566.4hPa | 2.7V | 07:17:03 | 03:25:39 | 00:00:00 | |
| DM0DOS-11 | 2026-09-03 13:45:00 | 52.71700 | 10.50919 | 107° | 75km/h | 4805m | -2.3m/s | -7.3°C | 28.7% | 566.2hPa | 2.7V | 07:16:16 | 03:25:38 | 00:00:00 | |
| DM0DOS-11 | 2026-09-03 13:45:00 | 52.71730 | 10.50784 | 110° | 62km/h | 4816m | -2.2m/s | -7.3°C | 29.1% | 565.4hPa | 2.7V | 07:16:21 | 03:25:33 | 00:00:00 | |
| EDDB2-12 | 2026-09-03 13:44:59 | 52.71712 | 10.50862 | 110° | 69km/h | 4809m | -2.1m/s | -7.3°C | 28.3% | 566.0hPa | 2.7V | 00:00:00 | 00:00:00 | 00:00:00 | |
| DL1XH-15 | 2026-09-03 13:44:58 | 52.71740 | 10.50736 | 107° | 60km/h | 4820m | -2.3m/s | -7.3°C | 27.2% | 565hPa | 2.7V | 07:16:23 | 03:25:31 | 00:00:00 | |
| DL1XH-west | 2026-09-03 13:44:56 | 52.71725 | 10.50809 | 111° | 66km/h | 4814m | -2.4m/s | -7.4°C | 32.3% | 565.6hPa | 2.7V | 07:17:03 | 03:25:34 | 00:00:00 | |
| DB0DAN | 2026-09-03 13:44:55 | 52.71730 | 10.50784 | 110° | 60km/h | 4816m | -2.3m/s | -7.3°C | 27.9% | 565.42hPa | 2.7V | 00:00:00 | 00:00:00 | 00:00:00 | |
| DO2SHX-10 | 2026-09-03 13:44:55 | 52.71730 | 10.50784 | 111° | 60km/h | 4816m | -2.2m/s | -7.3°C | 29.1% | 565.4hPa | 2.6V | 07:16:00 | 03:25:33 | 00:00:00 | |
| DM0DOS-11 | 2026-09-03 13:44:54 | 52.71751 | 10.50664 | 101° | 60km/h | 4827m | -2.3m/s | -7.4°C | 26.2% | 564.4hPa | 2.6V | 07:16:26 | 03:25:28 | 00:00:00 | |
| BIOWL1-15 | 2026-09-03 13:44:52 | 52.71745 | 10.50712 | 105° | 58km/h | 4823m | -2.4m/s | -7.3°C | 29.3% | 564.9hPa | 2.7V | 07:17:03 | 03:25:30 | 00:00:00 | |
| DO2SHX-10 | 2026-09-03 13:44:52 | 52.71745 | 10.50712 | 106° | 58km/h | 4823m | -2.3m/s | -7.3°C | 26.6% | 564.8hPa | 2.7V | 00:00:00 | 03:25:30 | 00:00:00 | |
| DL1XH1-15 | 2026-09-03 13:44:51 | 52.71761 | 10.50559 | 97° | 69km/h | 4837m | -2.2m/s | -7.6°C | 24.1% | 564.1hPa | 2.7V | 07:16:30 | 03:25:24 | 00:00:00 | |
| AA1-15 | 2026-09-03 13:44:51 | 52.71748 | 10.50688 | 103° | 58km/h | 4825m | -2.4m/s | -7.4°C | 29% | 564.7hPa | 2.6V | 07:17:03 | 03:25:29 | 00:00:00 | |
| DF8AY | 2026-09-03 13:44:50 | 52.71751 | 10.50664 | 101° | 60km/h | 4827m | -2.3m/s | -7.4°C | 29% | 564.4hPa | 2.6V | 07:17:03 | 03:25:28 | 00:00:00 | |
| DJ2DS-15 | 2026-09-03 13:44:50 | 52.71751 | 10.50664 | 101° | 58km/h | 4827m | -2.3m/s | -7.4°C | 25.1% | 564.4hPa | 2.7V | 00:00:00 | 00:00:00 | 00:00:00 | |
| DO2SHX-10 | 2026-09-03 13:44:49 | 52.71754 | 10.50639 | 100° | 64km/h | 4830m | -2.2m/s | -7.4°C | 26.1% | 564.4hPa | 2.7V | 00:00:00 | 03:25:27 | 00:00:00 | |
| DL1XH-15 | 2026-09-03 13:44:48 | 52.71769 | 10.50470 | 99° | 73km/h | 4844m | -2.3m/s | -7.6°C | 22.6% | 563.4hPa | 2.6V | 07:16:33 | 03:25:21 | 00:00:00 | |
| DO2SHX-10 | 2026-09-03 13:44:46 | 52.71760 | 10.50559 | 98° | 71km/h | 4837m | -2.2m/s | -7.5°C | 24.1% | 564.0hPa | 2.7V | 00:00:00 | 03:25:24 | 00:00:00 | |
| DM0DOS-11 | 2026-09-03 13:44:45 | 52.71779 | 10.50378 | 102° | 77km/h | 4851m | -2.4m/s | -7.7°C | 22.1% | 562.9hPa | 2.7V | 07:16:36 | 03:25:18 | 00:00:00 | |
| DL1XH-west | 2026-09-03 13:44:45 | 52.71763 | 10.50530 | 98° | 71km/h | 4839m | -2.3m/s | -7.6°C | 26.3% | 563.7hPa | 2.7V | 07:17:03 | 03:25:23 | 00:00:00 | |
| BIOWL1-15 | 2026-09-03 13:44:42 | 52.71772 | 10.50439 | 100° | 75km/h | 4846m | -2.4m/s | -7.7°C | 25.4% | 563.2hPa | 2.7V | 07:17:03 | 03:25:20 | 00:00:00 | |
| DJ2DS-15 | 2026-09-03 13:44:42 | 52.71772 | 10.50439 | 101° | 69km/h | 4846m | -2.3m/s | -7.6°C | 22.7% | 563.1hPa | 2.7V | 00:00:00 | 03:25:20 | 00:00:00 | |
| DL1XH1-15 | 2026-09-03 13:44:41 | 52.71799 | 10.50254 | 107° | 75km/h | 4861m | -2.5m/s | -7.7°C | 21.3% | 562.1hPa | 2.6V | 07:16:40 | 03:25:14 | 00:00:00 | |
| DF8AY | 2026-09-03 13:44:40 | 52.71779 | 10.50378 | 102° | 77km/h | 4851m | -2.4m/s | -7.7°C | 25% | 562.9hPa | 2.7V | 07:17:03 | 03:25:18 | 00:00:00 | |
| DB0DAN | 2026-09-03 13:44:40 | 52.71779 | 10.50378 | 102° | 73km/h | 4851m | -2.4m/s | -7.7°C | 21.2% | 562.91hPa | 2.7V | 00:00:00 | 00:00:00 | 00:00:00 | |
| DO2SHX-10 | 2026-09-03 13:44:40 | 52.71779 | 10.50377 | 103° | 77km/h | 4851m | -2.3m/s | -7.6°C | 22.1% | 562.9hPa | 2.7V | 00:00:00 | 03:25:18 | 00:00:00 | |
| DL1XH-15 | 2026-09-03 13:44:38 | 52.71817 | 10.50167 | 110° | 71km/h | 4868m | -2.5m/s | -7.7°C | 21.4% | 561.7hPa | 2.7V | 07:16:43 | 03:25:11 | 00:00:00 | |
| DF8AY-15 | 2026-09-03 13:44:38 | 52.71788 | 10.50316 | 105° | 66km/h | 4856m | -2.4m/s | -7.6°C | 21.5% | 562.5hPa | 2.7V | 00:00:00 | 03:25:16 | 00:00:00 | |
| DL4XJ-10 | 2026-09-03 13:44:37 | 52.71794 | 10.50285 | 106° | 66km/h | 4859m | -2.5m/s | -6.7°C | 0% | 0hPa | 2.7V | 00:00:00 | 00:00:00 | 00:00:00 | |
| DL1XH1-15 | 2026-09-03 13:44:36 | 52.71830 | 10.50113 | 111° | 68km/h | 4873m | -2.4m/s | -7.8°C | 21.2% | 561.2hPa | 2.7V | 07:16:45 | 03:25:09 | 00:00:00 | |
| DL1XH-west | 2026-09-03 13:44:35 | 52.71805 | 10.50225 | 108° | 75km/h | 4863m | -2.3m/s | -7.7°C | 24.2% | 562hPa | 2.7V | 07:17:03 | 03:25:13 | 00:00:00 | |
| BIOWL1-15 | 2026-09-03 13:44:34 | 52.71823 | 10.50140 | 111° | 69km/h | 4870m | -2.3m/s | -7.8°C | 24% | 561.5hPa | 2.7V | 07:17:03 | 03:25:10 | 00:00:00 | |
| DO2SHX-10 | 2026-09-03 13:44:34 | 52.71811 | 10.50195 | 110° | 71km/h | 4866m | -2.5m/s | -7.7°C | 21.4% | 561.8hPa | 2.7V | 00:00:00 | 03:25:12 | 00:00:00 | |
| DO2SHX-10 | 2026-09-03 13:44:31 | 52.71830 | 10.50113 | 112° | 66km/h | 4873m | -2.4m/s | -7.7°C | 21.2% | 561.2hPa | 2.7V | 07:16:00 | 03:25:09 | 00:00:00 | |
| DM0DOS-11 | 2026-09-03 13:44:30 | 52.71862 | 10.49967 | 105° | 58km/h | 4887m | -2.4m/s | -7.8°C | 23.1% | 560.2hPa | 2.7V | 07:16:51 | 03:25:03 | 00:00:00 | |
| AA1-15 | 2026-09-03 13:44:29 | 52.71842 | 10.50062 | 111° | 64km/h | 4878m | -2.4m/s | -7.8°C | 23.5% | 560.9hPa | 2.6V | 07:17:03 | 03:25:07 | 00:00:00 | |
| DL1XH-15 | 2026-09-03 13:44:28 | 52.71869 | 10.49920 | 101° | 58km/h | 4892m | -2.4m/s | -7.9°C | 27.9% | 559.9hPa | 2.6V | 07:16:53 | 03:25:01 | 00:00:00 | |
| DL1XH1-15 | 2026-09-03 13:44:26 | 52.71857 | 10.49990 | 107° | 58km/h | 4885m | -2.4m/s | -7.8°C | 21.6% | 560.4hPa | 2.7V | 07:16:50 | 03:25:04 | 00:00:00 | |
| DL1XH1-15 | 2026-09-03 13:44:26 | 52.71873 | 10.49870 | 97° | 62km/h | 4897m | -2.4m/s | -8°C | 28.1% | 559.6hPa | 2.7V | 07:16:55 | 03:24:59 | 00:00:00 | |
| DB0DAN | 2026-09-03 13:44:25 | 52.71862 | 10.49967 | 106° | 55km/h | 4887m | -2.4m/s | -7.8°C | 22.1% | 560.17hPa | 2.7V | 00:00:00 | 00:00:00 | 00:00:00 | |
| DL1XH-west | 2026-09-03 13:44:25 | 52.71862 | 10.49967 | 106° | 58km/h | 4887m | -2.4m/s | -7.8°C | 25.6% | 560.2hPa | 2.7V | 07:17:03 | 03:25:03 | 00:00:00 | |
| BIOWL1-15 | 2026-09-03 13:44:24 | 52.71871 | 10.49896 | 99° | 60km/h | 4894m | -2.4m/s | -7.9°C | 30.9% | 559.8hPa | 2.6V | 07:17:03 | 03:25:00 | 00:00:00 | |
| DF7ER-10 | 2026-09-03 13:44:23 | 52.71865 | 10.49943 | 105° | 58km/h | 4890m | -2.4m/s | -7.9°C | 25.0% | 560.1hPa | 2.7V | 07:17:00 | 00:00:00 | 00:00:00 | |
| DJ2DS-15 | 2026-09-03 13:44:22 | 52.71871 | 10.49895 | 100° | 69km/h | 4894m | -2.3m/s | -7.9°C | 28.0% | 559.8hPa | 2.7V | 07:16:00 | 03:25:00 | 00:00:00 | |
| DM0DOS-11 | 2026-09-03 13:44:20 | 52.71876 | 10.49844 | 97° | 64km/h | 4899m | -2.5m/s | -8°C | 28.6% | 559.5hPa | 2.7V | 07:16:56 | 03:24:58 | 00:00:00 | |
| DM0DOS-11 | 2026-09-03 13:44:20 | 52.71889 | 10.49699 | 100° | 75km/h | 4912m | -2.4m/s | -8.2°C | 33.2% | 558.5hPa | 2.7V | 07:17:01 | 03:24:53 | 00:00:00 | |
| DF8AY | 2026-09-03 13:44:19 | 52.71878 | 10.49817 | 97° | 68km/h | 4902m | -2.5m/s | -8.1°C | 32.4% | 559.2hPa | 2.7V | 07:17:03 | 03:24:57 | 00:00:00 | |
| AA1-15 | 2026-09-03 13:44:18 | 52.71880 | 10.49789 | 98° | 69km/h | 4904m | -2.4m/s | -8.1°C | 32.9% | 559.1hPa | 2.7V | 07:17:03 | 03:24:56 | 00:00:00 | |
| DF8AY-15 | 2026-09-03 13:44:18 | 52.71880 | 10.49789 | 98° | 68km/h | 4904m | -2.4m/s | -8.1°C | 29.5% | 559.0hPa | 2.6V | 00:00:00 | 03:24:56 | 00:00:00 | |
| DL1XH1-15 | 2026-09-03 13:44:16 | 52.71886 | 10.49730 | 99° | 73km/h | 4909m | -2.5m/s | -8.2°C | 32.6% | 558.6hPa | 2.6V | 07:17:00 | 03:24:54 | 00:00:00 | |
| DL1XH1-15 | 2026-09-03 13:44:16 | 52.71908 | 10.49577 | 107° | 75km/h | 4921m | -2.5m/s | -8.2°C | 37% | 557.8hPa | 2.7V | 07:17:05 | 03:24:49 | 00:00:00 | |
| DL1XH-west | 2026-09-03 13:44:14 | 52.71893 | 10.49668 | 103° | 75km/h | 4914m | -2.4m/s | -8.2°C | 39.4% | 558.3hPa | 2.7V | 07:17:03 | 03:24:52 | 00:00:00 | |
| BIOWL1-15 | 2026-09-03 13:44:12 | 52.71902 | 10.49607 | 106° | 77km/h | 4919m | -2.4m/s | -8.2°C | 39.7% | 558.1hPa | 2.7V | 07:17:54 | 03:24:50 | 00:00:00 | |
| DL1XH1-15 | 2026-09-03 13:44:11 | 52.71939 | 10.49439 | 111° | 64km/h | 4933m | -2.3m/s | -8.4°C | 42.9% | 556.9hPa | 2.7V | 07:17:10 | 03:24:44 | 00:00:00 | |
| DM0DOS-11 | 2026-09-03 13:44:11 | 52.71914 | 10.49548 | 109° | 75km/h | 4924m | -2.4m/s | -8.2°C | 38.1% | 557.6hPa | 2.6V | 07:17:06 | 03:24:48 | 00:00:00 | |
| DM0DOS-11 | 2026-09-03 13:44:11 | 52.71945 | 10.49414 | 110° | 62km/h | 4936m | -2.3m/s | -8.4°C | 43.5% | 556.7hPa | 2.7V | 07:17:11 | 03:24:43 | 00:00:00 | |
| DB0DAN | 2026-09-03 13:44:10 | 52.71914 | 10.49548 | 109° | 71km/h | 4924m | -2.4m/s | -8.2°C | 36.6% | 557.66hPa | 2.6V | 00:00:00 | 00:00:00 | 00:00:00 | |
| AA1-15 | 2026-09-03 13:44:08 | 52.71927 | 10.49491 | 111° | 69km/h | 4929m | -2.5m/s | -8.3°C | 44.6% | 557.2hPa | 2.7V | 07:17:54 | 03:24:46 | 00:00:00 | |
| DL1XH-15 | 2026-09-03 13:44:08 | 52.71959 | 10.49343 | 105° | 58km/h | 4943m | -2.4m/s | -8.4°C | 44.5% | 556.2hPa | 2.6V | 07:17:14 | 03:24:40 | 00:00:00 | |
| DO2SHX-10 | 2026-09-03 13:44:07 | 52.71933 | 10.49465 | 112° | 64km/h | 4931m | -2.4m/s | -8.3°C | 42.5% | 557.0hPa | 2.7V | 07:17:00 | 03:24:45 | 00:00:00 | |
| DL1XH1-15 | 2026-09-03 13:44:06 | 52.71963 | 10.49320 | 104° | 58km/h | 4945m | -2.5m/s | -8.5°C | 44.8% | 555.9hPa | 2.7V | 07:17:15 | 03:24:39 | 00:00:00 | |
| DL1XH-west | 2026-09-03 13:44:03 | 52.71955 | 10.49367 | 108° | 60km/h | 4941m | -2.4m/s | -8.4°C | 46.5% | 556.3hPa | 2.6V | 07:17:54 | 03:24:41 | 00:00:00 | |
| BIOWL1-15 | 2026-09-03 13:44:02 | 52.71959 | 10.49343 | 106° | 58km/h | 4943m | -2.4m/s | -8.5°C | 46.9% | 556.2hPa | 2.6V | 07:17:54 | 03:24:40 | 00:00:00 | |
| DL1LOL-11 | 2026-09-03 13:44:02 | 52.71959 | 10.49343 | 107° | 58km/h | 4943m | -2.4m/s | -8.5°C | 42.7% | 556.2hPa | 2.6V | 00:00:00 | 00:00:00 | 00:00:00 | |
| DL1XH1-15 | 2026-09-03 13:44:01 | 52.71978 | 10.49199 | 98° | 60km/h | 4958m | -2.5m/s | -8.7°C | 47.6% | 555.1hPa | 2.6V | 07:17:20 | 03:24:34 | 00:00:00 | |
| DM0DOS-11 | 2026-09-03 13:44:00 | 52.71967 | 10.49296 | 103° | 58km/h | 4948m | -2.6m/s | -8.5°C | 45.3% | 555.8hPa | 2.7V | 07:17:16 | 03:24:38 | 00:00:00 | |
| DM0DOS-11 | 2026-09-03 13:44:00 | 52.71980 | 10.49174 | 97° | 62km/h | 4961m | -2.5m/s | -8.7°C | 48% | 555hPa | 2.7V | 07:17:21 | 03:24:33 | 00:00:00 | |
| SMARD9-15 | 2026-09-03 13:43:59 | 52.71973 | 10.49248 | 100° | 58km/h | 4953m | -2.6m/s | -8.6°C | 45.3% | 555.5hPa | 2.7V | 00:00:00 | 00:00:00 | 00:00:00 | |
| DF8AY-15 | 2026-09-03 13:43:58 | 52.71973 | 10.49248 | 101° | 69km/h | 4953m | -2.5m/s | -8.5°C | 47.1% | 555.4hPa | 2.7V | 00:00:00 | 03:24:36 | 00:00:00 | |
| DL1XH-15 | 2026-09-03 13:43:57 | 52.71986 | 10.49092 | 97° | 69km/h | 4968m | -2.5m/s | -8.8°C | 49% | 554.4hPa | 2.7V | 07:17:24 | 03:24:30 | 00:00:00 | |
| AA1-15 | 2026-09-03 13:43:57 | 52.71975 | 10.49224 | 99° | 60km/h | 4956m | -2.4m/s | -8.6°C | 50.1% | 555.3hPa | 2.6V | 07:17:54 | 03:24:35 | 00:00:00 | |
| EDDB2-12 | 2026-09-03 13:43:57 | 52.71978 | 10.49199 | 98° | 60km/h | 4958m | -2.5m/s | -8.7°C | 45.7% | 555.1hPa | 2.7V | 00:00:00 | 00:00:00 | 00:00:00 | |
| DL1XH1-15 | 2026-09-03 13:43:56 | 52.71989 | 10.49063 | 98° | 71km/h | 4971m | -2.6m/s | -8.8°C | 49.4% | 554.2hPa | 2.7V | 07:17:25 | 03:24:29 | 00:00:00 | |
| DB0DAN | 2026-09-03 13:43:55 | 52.71980 | 10.49174 | 98° | 60km/h | 4961m | -2.5m/s | -8.7°C | 46.1% | 554.96hPa | 2.7V | 00:00:00 | 00:00:00 | 00:00:00 | |
| DM0DOS-11 | 2026-09-03 13:43:55 | 52.71991 | 10.49033 | 99° | 73km/h | 4973m | -2.4m/s | -8.8°C | 49.5% | 554hPa | 2.6V | 07:17:26 | 03:24:28 | 00:00:00 | |
| DL1XH-west | 2026-09-03 13:43:52 | 52.71986 | 10.49092 | 97° | 69km/h | 4968m | -2.5m/s | -8.8°C | 52.6% | 554.4hPa | 2.7V | 07:17:54 | 03:24:30 | 00:00:00 | |
| DO2SHX-10 | 2026-09-03 13:43:52 | 52.71986 | 10.49092 | 98° | 71km/h | 4968m | -2.5m/s | -8.8°C | 49.0% | 554.4hPa | 2.7V | 00:00:00 | 03:24:30 | 00:00:00 | |
| DL1XH1-15 | 2026-09-03 13:43:51 | 52.72008 | 10.48911 | 105° | 77km/h | 4983m | -2.5m/s | -8.9°C | 58% | 553.3hPa | 2.7V | 07:17:30 | 03:24:24 | 00:00:00 | |
| BIOWL1-15 | 2026-09-03 13:43:51 | 52.71989 | 10.49063 | 98° | 71km/h | 4971m | -2.6m/s | -8.8°C | 53.1% | 554.2hPa | 2.7V | 07:17:54 | 03:24:29 | 00:00:00 | |
| DM0DOS-11 | 2026-09-03 13:43:50 | 52.72013 | 10.48881 | 107° | 75km/h | 4986m | -2.5m/s | -8.9°C | 59% | 553.2hPa | 2.7V | 07:17:31 | 03:24:23 | 00:00:00 | |
| AA1-15 | 2026-09-03 13:43:47 | 52.72003 | 10.48942 | 104° | 75km/h | 4980m | -2.6m/s | -8.9°C | 57.9% | 553.5hPa | 2.7V | 07:17:54 | 03:24:25 | 00:00:00 | |
| DO2SHX-10 | 2026-09-03 13:43:46 | 52.72008 | 10.48911 | 106° | 75km/h | 4983m | -2.5m/s | -8.9°C | 58.0% | 553.3hPa | 2.7V | 00:00:00 | 03:24:24 | 00:00:00 | |
| DL3AQ-11 | 2026-09-03 13:43:45 | 52.72031 | 10.48794 | 111° | 69km/h | 4993m | -2.3m/s | -9.0°C | 66.4% | 552.6hPa | 2.7V | 00:00:00 | 00:00:00 | 00:00:00 | |
| DM0DOS-11 | 2026-09-03 13:43:44 | 52.72044 | 10.48741 | 112° | 66km/h | 4998m | -2.6m/s | -9.1°C | 71.2% | 552.3hPa | 2.7V | 07:17:36 | 03:24:18 | 00:00:00 | |
| DL1XH-west | 2026-09-03 13:43:42 | 52.72031 | 10.48794 | 111° | 71km/h | 4993m | -2.3m/s | -9°C | 70.6% | 552.6hPa | 2.6V | 07:17:54 | 03:24:20 | 00:00:00 | |
| DL1XH1-15 | 2026-09-03 13:43:41 | 52.72038 | 10.48767 | 111° | 69km/h | 4995m | -2.6m/s | -9°C | 70.6% | 552.4hPa | 2.7V | 07:17:35 | 03:24:19 | 00:00:00 | |
| BIOWL1-15 | 2026-09-03 13:43:41 | 52.72038 | 10.48767 | 112° | 69km/h | 4995m | -2.6m/s | -9°C | 71.9% | 552.5hPa | 2.7V | 07:17:54 | 03:24:19 | 00:00:00 | |
| DB0DAN | 2026-09-03 13:43:40 | 52.72044 | 10.48741 | 112° | 64km/h | 4998m | -2.6m/s | -9.1°C | 68.5% | 552.29hPa | 2.7V | 00:00:00 | 00:00:00 | 00:00:00 | |
| DO2SHX-10 | 2026-09-03 13:43:40 | 52.72044 | 10.48741 | 113° | 64km/h | 4998m | -2.5m/s | -9.0°C | 71.2% | 552.2hPa | 2.6V | 00:00:00 | 03:24:18 | 00:00:00 | |
| DL1XH-15 | 2026-09-03 13:43:39 | 52.72062 | 10.48667 | 110° | 60km/h | 5006m | -2.7m/s | -9.1°C | 72.2% | 551.7hPa | 2.6V | 07:17:39 | 03:24:15 | 00:00:00 | |
| AA1-15 | 2026-09-03 13:43:37 | 52.72062 | 10.48667 | 111° | 60km/h | 5006m | -2.7m/s | -9.1°C | 72.6% | 551.7hPa | 2.6V | 07:17:54 | 03:24:15 | 00:00:00 | |
| DO2SHX-10 | 2026-09-03 13:43:37 | 52.72062 | 10.48667 | 111° | 60km/h | 5006m | -2.6m/s | -9.1°C | 72.2% | 551.7hPa | 2.6V | 00:00:00 | 03:24:15 | 00:00:00 | |
| S3001 | 2026-09-03 13:43:36 | 52.72072 | 10.48620 | 107° | 57km/h | 5011m | -2.6m/s | -9.2°C | 70.6% | 551.3hPa | 2.7V | 00:00:00 | 00:00:00 | 00:00:00 | |
| SONDE2-11 | 2026-09-03 13:43:35 | 52.72072 | 10.48620 | 107° | 57km/h | 5011m | -2.6m/s | -9.2°C | 70.6% | 551.3hPa | 2.7V | 00:00:00 | 00:00:00 | 00:00:00 | |
| DM0DOS-11 | 2026-09-03 13:43:34 | 52.72079 | 10.48574 | 103° | 58km/h | 5016m | -2.6m/s | -9.3°C | 73.8% | 551hPa | 2.7V | 07:17:43 | 03:24:11 | 00:00:00 | |
| DO2SHX-10 | 2026-09-03 13:43:34 | 52.72076 | 10.48597 | 106° | 58km/h | 5014m | -2.6m/s | -9.1°C | 73.5% | 551.2hPa | 2.7V | 00:00:00 | 03:24:12 | 00:00:00 | |
| DL3AQ-11 | 2026-09-03 13:43:33 | 52.72083 | 10.48550 | 101° | 57km/h | 5019m | -2.5m/s | -9.3°C | 71.6% | 550.9hPa | 2.7V | 00:00:00 | 00:00:00 | 00:00:00 | |
| DL1XH-15 | 2026-09-03 13:43:32 | 52.72094 | 10.48422 | 96° | 68km/h | 5031m | -2.5m/s | -9.5°C | 77% | 549.9hPa | 2.7V | 07:17:49 | 03:24:05 | 00:00:00 | |
| BIOWL1-15 | 2026-09-03 13:43:31 | 52.72086 | 10.48526 | 100° | 58km/h | 5022m | -2.5m/s | -9.3°C | 75.6% | 550.6hPa | 2.7V | 07:17:54 | 03:24:09 | 00:00:00 | |
| AA1-15 | 2026-09-03 13:43:26 | 52.72096 | 10.48394 | 97° | 69km/h | 5034m | -2.6m/s | -9.5°C | 78.1% | 549.7hPa | 2.7V | 07:17:54 | 03:24:04 | 00:00:00 | |
| DB0DAN | 2026-09-03 13:43:25 | 52.72098 | 10.48365 | 98° | 68km/h | 5037m | -2.6m/s | -9.6°C | 73.7% | 549.55hPa | 2.7V | 00:00:00 | 00:00:00 | 00:00:00 | |
| DO2SHX-10 | 2026-09-03 13:43:25 | 52.72098 | 10.48364 | 99° | 73km/h | 5037m | -2.6m/s | -9.5°C | 76.7% | 549.5hPa | 2.6V | 00:00:00 | 03:24:03 | 00:00:00 | |
| DM0DOS-11 | 2026-09-03 13:43:24 | 52.72104 | 10.48304 | 100° | 75km/h | 5042m | -2.6m/s | -9.6°C | 78.8% | 549.2hPa | 2.6V | 07:17:53 | 03:24:01 | 00:00:00 | |
| DL1XH-15 | 2026-09-03 13:43:22 | 52.72134 | 10.48123 | 110° | 73km/h | 5058m | -2.8m/s | -9.7°C | 78.6% | 548hPa | 2.6V | 07:17:59 | 03:23:55 | 00:00:00 | |
| DL3AQ-11 | 2026-09-03 13:43:22 | 52.72112 | 10.48243 | 103° | 75km/h | 5047m | -2.8m/s | -9.6°C | 74.9% | 548.8hPa | 2.6V | 00:00:00 | 00:00:00 | 00:00:00 | |
| DL1XH1-15 | 2026-09-03 13:43:21 | 52.72140 | 10.48096 | 111° | 69km/h | 5061m | -2.5m/s | -9.7°C | 79.3% | 547.9hPa | 2.6V | 07:18:00 | 03:23:54 | 00:00:00 | |
| DL1XH-west | 2026-09-03 13:43:20 | 52.72117 | 10.48212 | 105° | 77km/h | 5050m | -2.7m/s | -9.6°C | 80.9% | 548.6hPa | 2.7V | 07:18:45 | 03:23:58 | 00:00:00 | |
| DF8AY | 2026-09-03 13:43:16 | 52.72140 | 10.48096 | 111° | 69km/h | 5061m | -2.5m/s | -9.7°C | 79% | 548hPa | 2.6V | 07:18:45 | 03:23:54 | 00:00:00 | |
| AA1-15 | 2026-09-03 13:43:15 | 52.72146 | 10.48069 | 112° | 68km/h | 5063m | -2.5m/s | -9.7°C | 79.1% | 547.6hPa | 2.7V | 07:18:45 | 03:23:53 | 00:00:00 | |
| DM0DOS-11 | 2026-09-03 13:43:14 | 52.72158 | 10.48019 | 110° | 62km/h | 5068m | -2.4m/s | -9.8°C | 79.7% | 547.3hPa | 2.7V | 07:18:03 | 03:23:51 | 00:00:00 | |
| SMARD9-10 | 2026-09-03 13:43:14 | 52.72152 | 10.48043 | 112° | 64km/h | 5066m | -2.5m/s | -9.7°C | 76.7% | 547.6hPa | 2.7V | 00:00:00 | 00:00:00 | 00:00:00 | |
| DO2SHX-10 | 2026-09-03 13:43:13 | 52.72158 | 10.48019 | 111° | 60km/h | 5069m | -2.3m/s | -9.7°C | 79.7% | 547.2hPa | 2.7V | 00:00:00 | 03:23:51 | 00:00:00 | |
| DL1XH-15 | 2026-09-03 13:43:12 | 52.72179 | 10.47873 | 98° | 62km/h | 5084m | -2.5m/s | -10°C | 80.8% | 546.2hPa | 2.7V | 07:18:09 | 03:23:45 | 00:00:00 | |
| DL1XH1-15 | 2026-09-03 13:43:11 | 52.72182 | 10.47847 | 97° | 64km/h | 5086m | -2.5m/s | -10°C | 81.3% | 546.1hPa | 2.7V | 07:18:10 | 03:23:44 | 00:00:00 | |
| DB0DAN | 2026-09-03 13:43:10 | 52.72171 | 10.47947 | 103° | 57km/h | 5076m | -2.7m/s | -9.9°C | 77% | 546.77hPa | 2.6V | 00:00:00 | 00:00:00 | 00:00:00 | |
| DL1XH-west | 2026-09-03 13:43:10 | 52.72171 | 10.47947 | 103° | 58km/h | 5076m | -2.7m/s | -9.9°C | 78.8% | 546.8hPa | 2.6V | 07:18:45 | 03:23:48 | 00:00:00 | |
| BIOWL1-15 | 2026-09-03 13:43:09 | 52.72174 | 10.47923 | 101° | 60km/h | 5079m | -2.5m/s | -9.9°C | 78.9% | 546.6hPa | 2.7V | 07:18:45 | 03:23:47 | 00:00:00 | |
| AA1-15 | 2026-09-03 13:43:05 | 52.72184 | 10.47819 | 98° | 68km/h | 5089m | -2.6m/s | -10.1°C | 79.5% | 545.9hPa | 2.7V | 07:18:45 | 03:23:43 | 00:00:00 | |
| S3001 | 2026-09-03 13:43:05 | 52.72186 | 10.47791 | 98° | 68km/h | 5091m | -2.5m/s | -10.1°C | 78.4% | 545.6hPa | 2.6V | 00:00:00 | 00:00:00 | 00:00:00 | |
| DO2SHX-10 | 2026-09-03 13:43:04 | 52.72186 | 10.47791 | 99° | 71km/h | 5091m | -2.5m/s | -10.1°C | 81.5% | 545.6hPa | 2.6V | 00:00:00 | 03:23:42 | 00:00:00 | |
| DK9SH | 2026-09-03 13:43:03 | 52.72186 | 10.47791 | 99° | 69km/h | 5091m | -2.5m/s | -10.1°C | 78.4% | 545.6hPa | 2.6V | 00:00:00 | 00:00:00 | 00:00:00 | |
| DL1XH-15 | 2026-09-03 13:43:02 | 52.72210 | 10.47578 | 102° | 77km/h | 5109m | -2.7m/s | -10.2°C | 80.6% | 544.4hPa | 2.6V | 07:18:19 | 03:23:35 | 00:00:00 | |
| DJ2DS-15 | 2026-09-03 13:43:02 | 52.72195 | 10.47703 | 99° | 73km/h | 5099m | -2.5m/s | -10.1°C | 78.7% | 545.1hPa | 2.7V | 00:00:00 | 00:00:00 | 00:00:00 | |
| DL1XH1-15 | 2026-09-03 13:43:01 | 52.72214 | 10.47547 | 103° | 78km/h | 5111m | -2.6m/s | -10.2°C | 80.9% | 544.3hPa | 2.7V | 07:18:20 | 03:23:34 | 00:00:00 | |
| DL1XH-west | 2026-09-03 13:42:59 | 52.72202 | 10.47641 | 101° | 77km/h | 5104m | -2.5m/s | -10.2°C | 81% | 544.7hPa | 2.7V | 07:18:45 | 03:23:37 | 00:00:00 | |
| BIOWL1-15 | 2026-09-03 13:42:58 | 52.72206 | 10.47610 | 102° | 77km/h | 5106m | -2.5m/s | -10.1°C | 79.4% | 544.6hPa | 2.6V | 07:18:45 | 03:23:36 | 00:00:00 | |
| SMARD9-15 | 2026-09-03 13:42:56 | 52.72214 | 10.47547 | 103° | 77km/h | 5111m | -2.6m/s | -10.2°C | 77.7% | 544.3hPa | 2.7V | 00:00:00 | 00:00:00 | 00:00:00 | |
| DB0DAN | 2026-09-03 13:42:55 | 52.72219 | 10.47515 | 104° | 73km/h | 5114m | -2.5m/s | -10.2°C | 77.9% | 544.04hPa | 2.7V | 00:00:00 | 00:00:00 | 00:00:00 | |
| DF8AY | 2026-09-03 13:42:54 | 52.72224 | 10.47484 | 105° | 78km/h | 5117m | -2.6m/s | -10.2°C | 81.1% | 543.9hPa | 2.7V | 07:18:45 | 03:23:32 | 00:00:00 | |
| DL3AQ-11 | 2026-09-03 13:42:53 | 52.72286 | 10.47195 | 112° | 66km/h | 5142m | -2.4m/s | -10.2°C | 64.7% | 542.1hPa | 2.7V | 00:00:00 | 00:00:00 | 00:00:00 | |
| DL1XH-15 | 2026-09-03 13:42:52 | 52.72266 | 10.47275 | 112° | 71km/h | 5135m | -2.5m/s | -10.3°C | 78.3% | 542.5hPa | 2.7V | 07:18:29 | 03:23:25 | 00:00:00 | |
| DO2SHX-10 | 2026-09-03 13:42:52 | 52.72234 | 10.47422 | 107° | 77km/h | 5122m | -2.6m/s | -10.2°C | 80.8% | 543.4hPa | 2.7V | 00:00:00 | 03:23:30 | 00:00:00 | |
| DL1XH1-15 | 2026-09-03 13:42:51 | 52.72273 | 10.47248 | 112° | 69km/h | 5137m | -2.5m/s | -10.2°C | 75.8% | 542.4hPa | 2.7V | 07:18:30 | 03:23:24 | 00:00:00 | |
| DL1XH-west | 2026-09-03 13:42:48 | 52.72259 | 10.47303 | 111° | 73km/h | 5133m | -2.5m/s | -10.3°C | 78.7% | 542.7hPa | 2.7V | 07:18:45 | 03:23:26 | 00:00:00 | |
| BIOWL1-15 | 2026-09-03 13:42:47 | 52.72266 | 10.47275 | 112° | 71km/h | 5135m | -2.5m/s | -10.3°C | 78% | 542.5hPa | 2.7V | 07:18:45 | 03:23:25 | 00:00:00 | |
| DF8AY | 2026-09-03 13:42:43 | 52.72292 | 10.47170 | 112° | 64km/h | 5145m | -2.6m/s | -10.1°C | 65.3% | 541.9hPa | 2.7V | 07:18:45 | 03:23:21 | 00:00:00 | |
| DO2SHX-10 | 2026-09-03 13:42:43 | 52.72292 | 10.47170 | 112° | 62km/h | 5145m | -2.6m/s | -10.1°C | 64.6% | 541.8hPa | 2.7V | 00:00:00 | 03:23:21 | 00:00:00 | |
| DL1XH-15 | 2026-09-03 13:42:42 | 52.72319 | 10.47023 | 100° | 62km/h | 5160m | -2.4m/s | -10°C | 48.6% | 540.8hPa | 2.7V | 07:18:39 | 03:23:15 | 00:00:00 | |
| DL3AQ-11 | 2026-09-03 13:42:42 | 52.72304 | 10.47121 | 109° | 60km/h | 5150m | -2.5m/s | -10.1°C | 59.0% | 541.6hPa | 2.7V | 00:00:00 | 00:00:00 | 00:00:00 | |
| DL1XH1-15 | 2026-09-03 13:42:41 | 52.72322 | 10.46997 | 99° | 64km/h | 5162m | -2.5m/s | -10°C | 46.3% | 540.6hPa | 2.7V | 07:18:40 | 03:23:14 | 00:00:00 | |
| DB0DAN | 2026-09-03 13:42:40 | 52.72308 | 10.47097 | 107° | 58km/h | 5153m | -2.6m/s | -10.1°C | 57.2% | 541.41hPa | 2.7V | 00:00:00 | 00:00:00 | 00:00:00 | |
| BIOWL1-15 | 2026-09-03 13:42:39 | 52.72319 | 10.47023 | 101° | 62km/h | 5160m | -2.4m/s | -10°C | 50.3% | 540.8hPa | 2.7V | 07:18:45 | 03:23:15 | 00:00:00 | |
| DL1XH-west | 2026-09-03 13:42:38 | 52.72316 | 10.47049 | 103° | 60km/h | 5158m | -2.4m/s | -10°C | 54.3% | 541hPa | 2.6V | 07:18:45 | 03:23:16 | 00:00:00 | |
| AA1-15 | 2026-09-03 13:42:33 | 52.72330 | 10.46913 | 99° | 71km/h | 5170m | -2.5m/s | -10.2°C | 45.1% | 540.2hPa | 2.7V | 07:18:45 | 03:23:11 | 00:00:00 | |
| DF8AY | 2026-09-03 13:42:32 | 52.72333 | 10.46883 | 100° | 75km/h | 5172m | -2.4m/s | -10.1°C | 44.8% | 539.9hPa | 2.6V | 07:18:45 | 03:23:10 | 00:00:00 | |
| DL1XH1-15 | 2026-09-03 13:42:31 | 52.72361 | 10.46695 | 107° | 78km/h | 5188m | -2.6m/s | -10.1°C | 39.1% | 538.8hPa | 2.6V | 07:18:50 | 03:23:04 | 00:00:00 | |
| DL1XH-15 | 2026-09-03 13:42:31 | 52.72355 | 10.46726 | 106° | 78km/h | 5186m | -2.7m/s | -10.1°C | 39.5% | 539hPa | 2.7V | 07:18:49 | 03:23:05 | 00:00:00 | |
| DL1XH-west | 2026-09-03 13:42:27 | 52.72355 | 10.46726 | 107° | 78km/h | 5186m | -2.7m/s | -10.1°C | 42.6% | 539hPa | 2.7V | 07:19:36 | 03:23:05 | 00:00:00 | |
| DF7ER-10 | 2026-09-03 13:42:26 | 52.72355 | 10.46726 | 108° | 78km/h | 5186m | -2.7m/s | -10.1°C | 37.8% | 539.0hPa | 2.6V | 07:19:00 | 00:00:00 | 00:00:00 | |
| DB0DAN | 2026-09-03 13:42:25 | 52.72367 | 10.46664 | 109° | 75km/h | 5191m | -2.8m/s | -10.1°C | 37.4% | 538.66hPa | 2.6V | 00:00:00 | 00:00:00 | 00:00:00 | |
| DO2SHX-10 | 2026-09-03 13:42:25 | 52.72367 | 10.46664 | 109° | 78km/h | 5191m | -2.7m/s | -10.1°C | 39.1% | 538.6hPa | 2.6V | 00:00:00 | 03:23:03 | 00:00:00 | |
| DM0DOS-11 | 2026-09-03 13:42:24 | 52.72381 | 10.46603 | 111° | 77km/h | 5197m | -2.7m/s | -10.1°C | 38.9% | 538.2hPa | 2.7V | 07:18:53 | 03:23:01 | 00:00:00 | |
| DF8AY | 2026-09-03 13:42:22 | 52.72388 | 10.46573 | 112° | 77km/h | 5199m | -2.6m/s | -10.1°C | 42.5% | 538hPa | 2.7V | 07:19:36 | 03:23:00 | 00:00:00 | |
| DJ2DS-15 | 2026-09-03 13:42:22 | 52.72388 | 10.46573 | 113° | 69km/h | 5199m | -2.6m/s | -10.1°C | 38.6% | 538.0hPa | 2.7V | 00:00:00 | 03:23:00 | 00:00:00 | |
| DL1XH1-15 | 2026-09-03 13:42:21 | 52.72432 | 10.46411 | 113° | 64km/h | 5215m | -2.6m/s | -10.2°C | 37.8% | 536.9hPa | 2.7V | 07:19:00 | 03:22:54 | 00:00:00 | |
| DL1XH-15 | 2026-09-03 13:42:19 | 52.72425 | 10.46436 | 114° | 68km/h | 5212m | -2.7m/s | -10.2°C | 38% | 537hPa | 2.7V | 07:18:59 | 03:22:55 | 00:00:00 | |
| DL1XH-west | 2026-09-03 13:42:17 | 52.72425 | 10.46436 | 115° | 68km/h | 5212m | -2.7m/s | -10.2°C | 40.4% | 537hPa | 2.7V | 07:19:36 | 03:22:55 | 00:00:00 | |
| DL4XJ-10 | 2026-09-03 13:42:17 | 52.72425 | 10.46436 | 115° | 71km/h | 5213m | -2.6m/s | -9.2°C | 0% | 0hPa | 2.7V | 00:00:00 | 00:00:00 | 00:00:00 | |
| DO2SHX-10 | 2026-09-03 13:42:16 | 52.72432 | 10.46411 | 114° | 64km/h | 5215m | -2.6m/s | -10.2°C | 37.8% | 536.9hPa | 2.7V | 00:00:00 | 03:22:54 | 00:00:00 | |
| DM0DOS-11 | 2026-09-03 13:42:14 | 52.72449 | 10.46338 | 108° | 60km/h | 5223m | -2.7m/s | -10.3°C | 38.2% | 536.4hPa | 2.6V | 07:19:03 | 03:22:51 | 00:00:00 | |
| AA1-15 | 2026-09-03 13:42:12 | 52.72454 | 10.46314 | 107° | 62km/h | 5225m | -2.7m/s | -10.4°C | 39.6% | 536.2hPa | 2.7V | 07:19:36 | 03:22:50 | 00:00:00 | |
| DL1XH1-15 | 2026-09-03 13:42:11 | 52.72475 | 10.46151 | 101° | 73km/h | 5241m | -2.7m/s | -10.4°C | 23.9% | 535.1hPa | 2.6V | 07:19:10 | 03:22:44 | 00:00:00 | |
| DB0DAN | 2026-09-03 13:42:10 | 52.72462 | 10.46263 | 103° | 62km/h | 5231m | -2.6m/s | -10.5°C | 34.8% | 535.88hPa | 2.7V | 00:00:00 | 00:00:00 | 00:00:00 | |
| DL1XH-west | 2026-09-03 13:42:06 | 52.72475 | 10.46151 | 101° | 73km/h | 5241m | -2.7m/s | -10.4°C | 26.4% | 535.1hPa | 2.6V | 07:19:36 | 03:22:44 | 00:00:00 | |
| DM0DOS-11 | 2026-09-03 13:42:04 | 52.72488 | 10.46059 | 103° | 77km/h | 5250m | -3m/s | -10.4°C | 21.3% | 534.5hPa | 2.7V | 07:19:13 | 03:22:41 | 00:00:00 | |
| DO2SHX-10 | 2026-09-03 13:42:04 | 52.72483 | 10.46090 | 103° | 77km/h | 5247m | -3.0m/s | -10.4°C | 21.1% | 534.7hPa | 2.7V | 00:00:00 | 03:22:42 | 00:00:00 | |
| S3001 | 2026-09-03 13:42:03 | 52.72497 | 10.45995 | 104° | 78km/h | 5256m | -2.9m/s | -10.4°C | 18.0% | 534.1hPa | 2.7V | 00:00:00 | 00:00:00 | 00:00:00 | |
| DL1XH-15 | 2026-09-03 13:42:02 | 52.72522 | 10.45867 | 111° | 80km/h | 5268m | -2.9m/s | -10.5°C | 18.7% | 533.3hPa | 2.7V | 07:19:19 | 03:22:35 | 00:00:00 | |
| AA1-15 | 2026-09-03 13:42:02 | 52.72492 | 10.46027 | 104° | 78km/h | 5253m | -3m/s | -10.5°C | 22% | 534.2hPa | 2.7V | 07:19:36 | 03:22:40 | 00:00:00 | |
| DL3AQ-11 | 2026-09-03 13:42:02 | 52.72515 | 10.45899 | 109° | 80km/h | 5265m | -2.8m/s | -10.5°C | 17.5% | 533.5hPa | 2.6V | 00:00:00 | 00:00:00 | 00:00:00 | |
| BIOWL9-15 | 2026-09-03 13:41:56 | 52.72537 | 10.45806 | 114° | 77km/h | 5273m | -2.8m/s | 0°C | -1.0% | -1.0hPa | 2.6V | 00:00:00 | 00:00:00 | 00:00:00 | |
| DB0DAN | 2026-09-03 13:41:55 | 52.72537 | 10.45806 | 115° | 73km/h | 5273m | -2.8m/s | -10.5°C | 17.2% | 532.84hPa | 2.6V | 00:00:00 | 00:00:00 | 00:00:00 | |
| DL1XH-west | 2026-09-03 13:41:55 | 52.72537 | 10.45806 | 115° | 77km/h | 5273m | -2.8m/s | -10.5°C | 20.6% | 532.8hPa | 2.6V | 07:19:36 | 03:22:33 | 00:00:00 | |
| DO2SHX-10 | 2026-09-03 13:41:55 | 52.72537 | 10.45806 | 115° | 75km/h | 5273m | -2.7m/s | -10.5°C | 18.1% | 532.8hPa | 2.7V | 00:00:00 | 03:22:33 | 00:00:00 | |
| DM0DOS-11 | 2026-09-03 13:41:54 | 52.72554 | 10.45750 | 116° | 71km/h | 5279m | -2.8m/s | -10.6°C | 18.2% | 532.5hPa | 2.7V | 07:19:23 | 03:22:31 | 00:00:00 | |
| EDDB2-12 | 2026-09-03 13:41:53 | 52.72562 | 10.45724 | 116° | 68km/h | 5281m | -2.6m/s | -10.6°C | 17.1% | 532.3hPa | 2.7V | 00:00:00 | 00:00:00 | 00:00:00 | |
| DL1XH-15 | 2026-09-03 13:41:52 | 52.72593 | 10.45599 | 107° | 64km/h | 5295m | -2.5m/s | -10.6°C | 17.6% | 531.5hPa | 2.7V | 07:19:29 | 03:22:25 | 00:00:00 | |
| AA1-15 | 2026-09-03 13:41:51 | 52.72569 | 10.45698 | 115° | 66km/h | 5284m | -3m/s | -10.6°C | 19.6% | 532.1hPa | 2.7V | 07:19:36 | 03:22:29 | 00:00:00 | |
| DL1XH-west | 2026-09-03 13:41:45 | 52.72602 | 10.45548 | 105° | 66km/h | 5300m | -2.8m/s | -10.7°C | 19.6% | 531.1hPa | 2.7V | 07:19:36 | 03:22:23 | 00:00:00 | |
| DM0DOS-11 | 2026-09-03 13:41:44 | 52.72609 | 10.45494 | 102° | 69km/h | 5306m | -2.7m/s | -10.8°C | 17.8% | 530.6hPa | 2.6V | 07:19:33 | 03:22:21 | 00:00:00 | |
| BIOWL1-15 | 2026-09-03 13:41:44 | 52.72606 | 10.45521 | 104° | 68km/h | 5303m | -2.9m/s | -10.8°C | 19.7% | 530.9hPa | 2.7V | 07:19:36 | 03:22:22 | 00:00:00 | |
| DO2SHX-10 | 2026-09-03 13:41:43 | 52.72609 | 10.45494 | 103° | 71km/h | 5306m | -2.6m/s | -10.8°C | 17.8% | 530.6hPa | 2.6V | 07:19:00 | 03:22:21 | 00:00:00 | |
| DL1XH-15 | 2026-09-03 13:41:42 | 52.72636 | 10.45310 | 105° | 80km/h | 5322m | -2.7m/s | -11°C | 17.6% | 529.6hPa | 2.6V | 07:19:39 | 03:22:15 | 00:00:00 | |
| DJ2DS-15 | 2026-09-03 13:41:42 | 52.72613 | 10.45465 | 103° | 75km/h | 5308m | -2.6m/s | -10.8°C | 17.9% | 530.4hPa | 2.6V | 07:19:00 | 03:22:20 | 00:00:00 | |
| DL1XH1-15 | 2026-09-03 13:41:41 | 52.72641 | 10.45278 | 107° | 82km/h | 5324m | -2.8m/s | -11°C | 17.3% | 529.3hPa | 2.6V | 07:19:40 | 03:22:14 | 00:00:00 | |
| DB0DAN | 2026-09-03 13:41:40 | 52.72621 | 10.45406 | 103° | 71km/h | 5314m | -2.6m/s | -10.9°C | 17% | 530.11hPa | 2.7V | 00:00:00 | 00:00:00 | 00:00:00 | |
| AA1-15 | 2026-09-03 13:41:40 | 52.72621 | 10.45406 | 103° | 75km/h | 5314m | -2.6m/s | -10.9°C | 20.1% | 530.1hPa | 2.7V | 07:19:36 | 03:22:18 | 00:00:00 | |
| DO2SHX-10 | 2026-09-03 13:41:40 | 52.72621 | 10.45406 | 103° | 78km/h | 5314m | -2.5m/s | -10.9°C | 17.9% | 530.1hPa | 2.7V | 00:00:00 | 03:22:18 | 00:00:00 | |
| DF8AY-15 | 2026-09-03 13:41:38 | 52.72630 | 10.45343 | 105° | 75km/h | 5319m | -2.6m/s | -10.9°C | 17.6% | 529.7hPa | 2.7V | 00:00:00 | 03:22:16 | 00:00:00 | |
| DO2SHX-10 | 2026-09-03 13:41:37 | 52.72636 | 10.45310 | 106° | 82km/h | 5322m | -2.7m/s | -11.0°C | 17.6% | 529.6hPa | 2.7V | 00:00:00 | 03:22:15 | 00:00:00 | |
| DM0DOS-11 | 2026-09-03 13:41:34 | 52.72662 | 10.45181 | 111° | 82km/h | 5333m | -2.9m/s | -11°C | 16.6% | 528.8hPa | 2.7V | 07:19:43 | 03:22:11 | 00:00:00 | |
| BIOWL1-15 | 2026-09-03 13:41:34 | 52.72655 | 10.45213 | 110° | 82km/h | 5330m | -2.9m/s | -11°C | 18.6% | 529hPa | 2.7V | 07:20:27 | 03:22:12 | 00:00:00 | |
| SONCRA | 2026-09-03 13:41:34 | 52.72662 | 10.45181 | 111° | 82km/h | 5333m | -2.9m/s | -11.0°C | 15.8% | 528.8hPa | 2.7V | 00:00:00 | 00:00:00 | 00:00:00 | |
| DL3AQ-11 | 2026-09-03 13:41:33 | 52.72670 | 10.45149 | 112° | 80km/h | 5336m | -2.9m/s | -11.0°C | 15.7% | 528.6hPa | 2.7V | 00:00:00 | 00:00:00 | 00:00:00 | |
| DL1XH-15 | 2026-09-03 13:41:32 | 52.72711 | 10.45004 | 116° | 69km/h | 5350m | -2.9m/s | -11.1°C | 16.5% | 527.6hPa | 2.7V | 07:19:49 | 03:22:05 | 00:00:00 | |
| DL1XH1-15 | 2026-09-03 13:41:31 | 52.72719 | 10.44978 | 115° | 68km/h | 5353m | -2.8m/s | -11.2°C | 16.8% | 527.4hPa | 2.7V | 07:19:50 | 03:22:04 | 00:00:00 | |
| AA1-15 | 2026-09-03 13:41:30 | 52.72686 | 10.45088 | 115° | 78km/h | 5342m | -2.9m/s | -11°C | 18.4% | 528.2hPa | 2.6V | 07:20:27 | 03:22:08 | 00:00:00 | |
| DO2SHX-10 | 2026-09-03 13:41:28 | 52.72703 | 10.45030 | 117° | 71km/h | 5347m | -2.5m/s | -11.0°C | 16.5% | 527.7hPa | 2.6V | 00:00:00 | 03:22:06 | 00:00:00 | |
| DB0DAN | 2026-09-03 13:41:25 | 52.72726 | 10.44953 | 115° | 64km/h | 5356m | -3m/s | -11.2°C | 15.7% | 527.25hPa | 2.6V | 00:00:00 | 00:00:00 | 00:00:00 | |
| DO2SHX-10 | 2026-09-03 13:41:25 | 52.72726 | 10.44953 | 115° | 66km/h | 5356m | -2.9m/s | -11.2°C | 16.5% | 527.2hPa | 2.7V | 00:00:00 | 03:22:03 | 00:00:00 | |
| DM0DOS-11 | 2026-09-03 13:41:24 | 52.72739 | 10.44903 | 111° | 64km/h | 5362m | -3m/s | -11.3°C | 16.5% | 526.8hPa | 2.7V | 07:19:53 | 03:22:01 | 00:00:00 | |
| DL1XH-west | 2026-09-03 13:41:23 | 52.72739 | 10.44903 | 111° | 64km/h | 5362m | -3m/s | -11.3°C | 18.2% | 526.8hPa | 2.7V | 07:20:27 | 03:22:01 | 00:00:00 | |
| DJ2DS-15 | 2026-09-03 13:41:22 | 52.72745 | 10.44878 | 110° | 77km/h | 5365m | -2.9m/s | -11.2°C | 16.5% | 526.5hPa | 2.7V | 00:00:00 | 03:22:00 | 00:00:00 | |
| DL1XH-15 | 2026-09-03 13:41:22 | 52.72768 | 10.44740 | 103° | 73km/h | 5380m | -3m/s | -11.5°C | 16.5% | 525.6hPa | 2.7V | 07:19:59 | 03:21:55 | 00:00:00 | |
| DL1XH1-15 | 2026-09-03 13:41:21 | 52.72772 | 10.44710 | 102° | 75km/h | 5383m | -3.1m/s | -11.5°C | 16.2% | 525.4hPa | 2.7V | 07:20:00 | 03:21:54 | 00:00:00 | |
| AA1-15 | 2026-09-03 13:41:19 | 52.72759 | 10.44798 | 104° | 69km/h | 5374m | -2.9m/s | -11.4°C | 18.4% | 526hPa | 2.6V | 07:20:27 | 03:21:57 | 00:00:00 | |
| DO2SHX-10 | 2026-09-03 13:41:19 | 52.72759 | 10.44798 | 105° | 71km/h | 5374m | -2.8m/s | -11.4°C | 16.7% | 526.0hPa | 2.6V | 07:19:00 | 03:21:57 | 00:00:00 | |
| DF8AY-15 | 2026-09-03 13:41:18 | 52.72763 | 10.44769 | 104° | 78km/h | 5377m | -2.8m/s | -11.4°C | 16.7% | 525.7hPa | 2.6V | 00:00:00 | 03:21:56 | 00:00:00 | |
| DO2SHX-10 | 2026-09-03 13:41:16 | 52.72772 | 10.44710 | 103° | 77km/h | 5383m | -3.0m/s | -11.5°C | 16.2% | 525.3hPa | 2.6V | 00:00:00 | 03:21:54 | 00:00:00 | |
| DM0DOS-11 | 2026-09-03 13:41:14 | 52.72785 | 10.44616 | 102° | 78km/h | 5392m | -3.1m/s | -11.6°C | 16.3% | 524.6hPa | 2.6V | 07:20:03 | 03:21:51 | 00:00:00 | |
| DL1XH-west | 2026-09-03 13:41:13 | 52.72785 | 10.44616 | 103° | 78km/h | 5392m | -3.1m/s | -11.6°C | 18.3% | 524.6hPa | 2.6V | 07:20:27 | 03:21:51 | 00:00:00 | |
| DO2SHX-10 | 2026-09-03 13:41:13 | 52.72784 | 10.44616 | 103° | 78km/h | 5392m | -3.0m/s | -11.6°C | 16.3% | 524.6hPa | 2.6V | 00:00:00 | 03:21:51 | 00:00:00 | |
| BIOWL7-15 | 2026-09-03 13:41:12 | 52.72785 | 10.44616 | 104° | 78km/h | 5392m | -3.1m/s | -11.6°C | 15.4% | 524.6hPa | 2.6V | 00:00:00 | 00:00:00 | 00:00:00 | |
| DL1XH-15 | 2026-09-03 13:41:11 | 52.72815 | 10.44420 | 107° | 84km/h | 5411m | -3m/s | -11.7°C | 16.1% | 523.4hPa | 2.6V | 07:20:09 | 03:21:45 | 00:00:00 | |
| DL1XH1-15 | 2026-09-03 13:41:11 | 52.72822 | 10.44386 | 109° | 84km/h | 5414m | -3.1m/s | -11.7°C | 15.9% | 523.1hPa | 2.6V | 07:20:10 | 03:21:44 | 00:00:00 | |
| DB0DAN | 2026-09-03 13:41:10 | 52.72798 | 10.44519 | 104° | 77km/h | 5402m | -3.1m/s | -11.7°C | 15.3% | 524.11hPa | 2.7V | 00:00:00 | 00:00:00 | 00:00:00 | |
| AA1-15 | 2026-09-03 13:41:08 | 52.72809 | 10.44453 | 106° | 84km/h | 5408m | -3.1m/s | -11.7°C | 18.5% | 523.5hPa | 2.7V | 07:20:27 | 03:21:46 | 00:00:00 | |
| DL1XH-west | 2026-09-03 13:41:03 | 52.72846 | 10.44289 | 114° | 82km/h | 5423m | -2.9m/s | -11.7°C | 16.9% | 522.6hPa | 2.7V | 07:20:27 | 03:21:41 | 00:00:00 | |
| BIOWL1-15 | 2026-09-03 13:41:02 | 52.72854 | 10.44258 | 115° | 80km/h | 5426m | -3m/s | -11.8°C | 16.2% | 522.3hPa | 2.7V | 07:20:27 | 03:21:40 | 00:00:00 | |
| DJ2DS-15 | 2026-09-03 13:41:02 | 52.72854 | 10.44258 | 116° | 77km/h | 5426m | -3.0m/s | -11.7°C | 14.6% | 522.3hPa | 2.7V | 00:00:00 | 03:21:40 | 00:00:00 | |
| DL1XH-15 | 2026-09-03 13:41:01 | 52.72895 | 10.44118 | 114° | 69km/h | 5442m | -3.2m/s | -12°C | 16% | 521.3hPa | 2.7V | 07:20:19 | 03:21:35 | 00:00:00 | |
| DL1XH1-15 | 2026-09-03 13:41:01 | 52.72902 | 10.44092 | 112° | 69km/h | 5445m | -3.3m/s | -12.1°C | 15.6% | 521.1hPa | 2.7V | 07:20:20 | 03:21:34 | 00:00:00 | |
| AA1-15 | 2026-09-03 13:40:58 | 52.72888 | 10.44145 | 116° | 71km/h | 5439m | -3.2m/s | -12°C | 17.6% | 521.5hPa | 2.7V | 07:20:27 | 03:21:36 | 00:00:00 | |
| DL1XH-west | 2026-09-03 13:40:52 | 52.72924 | 10.43982 | 106° | 71km/h | 5458m | -3.2m/s | -12.1°C | 15.6% | 520.2hPa | 2.7V | 07:20:27 | 03:21:30 | 00:00:00 | |
| BIOWL1-15 | 2026-09-03 13:40:51 | 52.72943 | 10.43859 | 103° | 80km/h | 5472m | -3.4m/s | -12.3°C | 15.8% | 519.2hPa | 2.6V | 07:21:18 | 03:21:26 | 00:00:00 | |
| DL1XH1-15 | 2026-09-03 13:40:51 | 52.72952 | 10.43793 | 103° | 84km/h | 5478m | -3.4m/s | -12.3°C | 14.6% | 518.8hPa | 2.7V | 07:20:30 | 03:21:24 | 00:00:00 | |
| AA1-15 | 2026-09-03 13:40:47 | 52.72947 | 10.43826 | 103° | 82km/h | 5475m | -3.3m/s | -12.3°C | 15.7% | 519hPa | 2.7V | 07:21:18 | 03:21:25 | 00:00:00 | |
| DO2SHX-10 | 2026-09-03 13:40:46 | 52.72952 | 10.43792 | 104° | 84km/h | 5478m | -3.4m/s | -12.3°C | 14.6% | 518.7hPa | 2.7V | 00:00:00 | 03:21:24 | 00:00:00 | |
| TFSTFS | 2026-09-03 13:40:45 | 52.72952 | 10.43792 | 104° | 84km/h | 5478m | -3.4m/s | 0°C | 0% | 0hPa | 2.6V | 00:00:00 | 00:00:00 | 00:00:00 | |
| DM0DOS-11 | 2026-09-03 13:40:44 | 52.72968 | 10.43689 | 105° | 88km/h | 5489m | -3.4m/s | -12.5°C | 15.3% | 518hPa | 2.6V | 07:20:33 | 03:21:21 | 00:00:00 | |
| DL1XH-west | 2026-09-03 13:40:42 | 52.72974 | 10.43654 | 106° | 88km/h | 5492m | -3.6m/s | -12.5°C | 16.8% | 517.8hPa | 2.6V | 07:21:18 | 03:21:20 | 00:00:00 | |
| DJ2DS-15 | 2026-09-03 13:40:42 | 52.72974 | 10.43654 | 107° | 80km/h | 5492m | -3.6m/s | -12.4°C | 14.7% | 517.8hPa | 2.6V | 00:00:00 | 03:21:20 | 00:00:00 | |
| DL1XH-15 | 2026-09-03 13:40:41 | 52.73010 | 10.43479 | 111° | 89km/h | 5510m | -3.5m/s | -12.6°C | 14.2% | 516.6hPa | 2.6V | 07:20:39 | 03:21:15 | 00:00:00 | |
| DB0DAN | 2026-09-03 13:40:40 | 52.72987 | 10.43584 | 108° | 84km/h | 5500m | -3.4m/s | -12.5°C | 13.6% | 517.38hPa | 2.7V | 00:00:00 | 00:00:00 | 00:00:00 | |
| BIOWL1-15 | 2026-09-03 13:40:38 | 52.73002 | 10.43514 | 110° | 89km/h | 5507m | -3.5m/s | -12.6°C | 16.6% | 516.9hPa | 2.7V | 07:21:18 | 03:21:16 | 00:00:00 | |
| DF8AY | 2026-09-03 13:40:37 | 52.73010 | 10.43479 | 112° | 89km/h | 5510m | -3.5m/s | -12.6°C | 16.4% | 516.6hPa | 2.6V | 07:21:18 | 03:21:15 | 00:00:00 | |
| AA1-15 | 2026-09-03 13:40:36 | 52.73019 | 10.43445 | 113° | 88km/h | 5514m | -3.5m/s | -12.6°C | 16.1% | 516.4hPa | 2.6V | 07:21:18 | 03:21:14 | 00:00:00 | |
| DL4XJ-10 | 2026-09-03 13:40:36 | 52.73018 | 10.43445 | 113° | 78km/h | 5514m | -3.5m/s | -11.6°C | 0% | 0hPa | 2.7V | 00:00:00 | 00:00:00 | 00:00:00 | |
| DO2SHX-10 | 2026-09-03 13:40:34 | 52.73036 | 10.43379 | 116° | 82km/h | 5520m | -3.2m/s | -12.6°C | 14.1% | 515.9hPa | 2.7V | 00:00:00 | 03:21:12 | 00:00:00 | |
| DL1XH-15 | 2026-09-03 13:40:32 | 52.73092 | 10.43176 | 109° | 73km/h | 5543m | -3.3m/s | -12.9°C | 14.7% | 514.4hPa | 2.7V | 07:20:49 | 03:21:05 | 00:00:00 | |
| DL1XH-west | 2026-09-03 13:40:31 | 52.73063 | 10.43289 | 116° | 77km/h | 5530m | -3.3m/s | -12.8°C | 15.8% | 515.3hPa | 2.6V | 07:21:18 | 03:21:09 | 00:00:00 | |
| AA1-15 | 2026-09-03 13:40:26 | 52.73098 | 10.43147 | 108° | 73km/h | 5546m | -3.4m/s | -12.9°C | 15.9% | 514.2hPa | 2.7V | 07:21:18 | 03:21:04 | 00:00:00 | |
| DO2SHX-10 | 2026-09-03 13:40:24 | 52.73108 | 10.43088 | 105° | 84km/h | 5553m | -3.3m/s | -12.9°C | 14.9% | 513.7hPa | 2.7V | 00:00:00 | 03:21:02 | 00:00:00 | |
| BIOWL9-15 | 2026-09-03 13:40:23 | 52.73117 | 10.43026 | 102° | 77km/h | 5560m | -3.3m/s | -13.1°C | 13.9% | 513.3hPa | 2.7V | 00:00:00 | 00:00:00 | 00:00:00 | |
| DJ2DS-15 | 2026-09-03 13:40:22 | 52.73117 | 10.43026 | 103° | 84km/h | 5560m | -3.2m/s | -13.1°C | 14.7% | 513.3hPa | 2.7V | 00:00:00 | 03:21:00 | 00:00:00 | |
| DL1XH-15 | 2026-09-03 13:40:21 | 52.73141 | 10.42855 | 104° | 89km/h | 5576m | -3.3m/s | -13.2°C | 15.3% | 512.1hPa | 2.7V | 07:20:59 | 03:20:55 | 00:00:00 | |
| DL1XH1-15 | 2026-09-03 13:40:21 | 52.73147 | 10.42819 | 105° | 91km/h | 5580m | -3.4m/s | -13.3°C | 15.3% | 511.9hPa | 2.7V | 07:21:00 | 03:20:54 | 00:00:00 | |
| DL1XH-west | 2026-09-03 13:40:20 | 52.73126 | 10.42960 | 103° | 84km/h | 5567m | -3.3m/s | -13.2°C | 16.7% | 512.8hPa | 2.7V | 07:21:18 | 03:20:58 | 00:00:00 | |
| BIOWL1-15 | 2026-09-03 13:40:17 | 52.73141 | 10.42855 | 105° | 89km/h | 5576m | -3.3m/s | -13.3°C | 17.5% | 512.1hPa | 2.7V | 07:21:18 | 03:20:55 | 00:00:00 | |
| AA1-15 | 2026-09-03 13:40:15 | 52.73154 | 10.42783 | 107° | 91km/h | 5583m | -3.4m/s | -13.3°C | 17.4% | 511.6hPa | 2.7V | 07:21:18 | 03:20:53 | 00:00:00 | |
| DM0DOS-11 | 2026-09-03 13:40:14 | 52.73169 | 10.42710 | 109° | 93km/h | 5590m | -3.3m/s | -13.3°C | 15.5% | 511.2hPa | 2.6V | 07:21:03 | 03:20:51 | 00:00:00 | |
| DL1XH-15 | 2026-09-03 13:40:12 | 52.73221 | 10.42511 | 114° | 78km/h | 5609m | -3.1m/s | -13.4°C | 15.9% | 509.9hPa | 2.6V | 07:21:09 | 03:20:45 | 00:00:00 | |
| DL1XH1-15 | 2026-09-03 13:40:11 | 52.73229 | 10.42482 | 113° | 75km/h | 5613m | -3.3m/s | -13.5°C | 16.2% | 509.7hPa | 2.7V | 07:21:10 | 03:20:44 | 00:00:00 | |
| DL1XH-west | 2026-09-03 13:40:10 | 52.73195 | 10.42605 | 114° | 88km/h | 5600m | -3.1m/s | -13.3°C | 17.4% | 510.6hPa | 2.7V | 07:21:18 | 03:20:48 | 00:00:00 | |
| DB0DAN | 2026-09-03 13:40:10 | 52.73195 | 10.42605 | 114° | 84km/h | 5600m | -3.1m/s | -13.3°C | 14.8% | 510.57hPa | 2.7V | 00:00:00 | 00:00:00 | 00:00:00 | |
| BIOWL1-15 | 2026-09-03 13:40:09 | 52.73221 | 10.42511 | 115° | 78km/h | 5610m | -3.1m/s | -13.5°C | 17.4% | 509.9hPa | 2.6V | 07:21:18 | 03:20:45 | 00:00:00 | |
| AA1-15 | 2026-09-03 13:40:05 | 52.73237 | 10.42453 | 112° | 73km/h | 5616m | -3.4m/s | -13.5°C | 18% | 509.4hPa | 2.7V | 07:21:18 | 03:20:43 | 00:00:00 | |
| DM0DOS-11 | 2026-09-03 13:40:04 | 52.73250 | 10.42396 | 109° | 73km/h | 5623m | -3.3m/s | -13.6°C | 16.8% | 509hPa | 2.7V | 07:21:13 | 03:20:41 | 00:00:00 | |
| EDDB2-11 | 2026-09-03 13:40:03 | 52.73250 | 10.42396 | 109° | 71km/h | 5623m | -3.3m/s | -13.6°C | 15.8% | 509.0hPa | 2.7V | 00:00:00 | 00:00:00 | 00:00:00 | |
| DJ2DS-15 | 2026-09-03 13:40:02 | 52.73256 | 10.42367 | 108° | 84km/h | 5626m | -3.4m/s | -13.5°C | 16.7% | 508.7hPa | 2.7V | 00:00:00 | 03:20:40 | 00:00:00 | |
| DL1XH-15 | 2026-09-03 13:40:01 | 52.73279 | 10.42212 | 102° | 82km/h | 5643m | -3.2m/s | -13.8°C | 16.8% | 507.7hPa | 2.7V | 07:21:19 | 03:20:35 | 00:00:00 | |
| DL1XH1-15 | 2026-09-03 13:40:01 | 52.73284 | 10.42177 | 102° | 86km/h | 5646m | -3.3m/s | -13.8°C | 16.9% | 507.5hPa | 2.6V | 07:21:20 | 03:20:34 | 00:00:00 | |
| DL1XH-west | 2026-09-03 13:39:59 | 52.73270 | 10.42277 | 103° | 77km/h | 5636m | -3.3m/s | -13.7°C | 18.6% | 508.1hPa | 2.7V | 07:21:18 | 03:20:37 | 00:00:00 | |
| BIOWL1-15 | 2026-09-03 13:39:56 | 52.73300 | 10.42071 | 105° | 89km/h | 5656m | -3.4m/s | -13.9°C | 19.4% | 506.8hPa | 2.7V | 07:22:09 | 03:20:31 | 00:00:00 | |
| DB0DAN | 2026-09-03 13:39:55 | 52.73289 | 10.42142 | 103° | 84km/h | 5649m | -3.2m/s | -13.9°C | 16% | 507.22hPa | 2.6V | 00:00:00 | 00:00:00 | 00:00:00 | |
| AA1-15 | 2026-09-03 13:39:54 | 52.73294 | 10.42107 | 104° | 89km/h | 5653m | -3.2m/s | -13.9°C | 19.3% | 507.1hPa | 2.7V | 07:22:09 | 03:20:32 | 00:00:00 | |
| BIOWL9-15 | 2026-09-03 13:39:52 | 52.73313 | 10.41998 | 107° | 91km/h | 5662m | -3.3m/s | -13.9°C | 15.9% | 506.4hPa | 2.7V | 00:00:00 | 00:00:00 | 00:00:00 | |
| DL1XH-15 | 2026-09-03 13:39:51 | 52.73344 | 10.41856 | 113° | 89km/h | 5675m | -3.1m/s | -14°C | 17% | 505.4hPa | 2.7V | 07:21:29 | 03:20:25 | 00:00:00 | |
| DL1XH1-15 | 2026-09-03 13:39:51 | 52.73354 | 10.41822 | 114° | 88km/h | 5679m | -3.3m/s | -14°C | 17% | 505.3hPa | 2.7V | 07:21:30 | 03:20:24 | 00:00:00 | |
| DL1XH-west | 2026-09-03 13:39:48 | 52.73336 | 10.41890 | 112° | 91km/h | 5672m | -3.2m/s | -13.9°C | 19% | 505.7hPa | 2.7V | 07:22:09 | 03:20:26 | 00:00:00 | |
| DO2SHX-10 | 2026-09-03 13:39:47 | 52.73345 | 10.41856 | 114° | 88km/h | 5676m | -3.1m/s | -13.9°C | 17.0% | 505.4hPa | 2.7V | 00:00:00 | 03:20:25 | 00:00:00 | |
| DM0DOS-11 | 2026-09-03 13:39:44 | 52.73380 | 10.41727 | 115° | 80km/h | 5688m | -3.4m/s | -14°C | 16.5% | 504.6hPa | 2.7V | 07:21:33 | 03:20:21 | 00:00:00 | |
| AA1-15 | 2026-09-03 13:39:44 | 52.73371 | 10.41758 | 115° | 82km/h | 5685m | -3.3m/s | -14°C | 18.4% | 504.8hPa | 2.6V | 07:22:09 | 03:20:22 | 00:00:00 | |
| DF8AY | 2026-09-03 13:39:43 | 52.73380 | 10.41727 | 115° | 80km/h | 5688m | -3.4m/s | -14°C | 18.2% | 504.6hPa | 2.7V | 07:22:09 | 03:20:21 | 00:00:00 | |
| DJ2DS-15 | 2026-09-03 13:39:42 | 52.73388 | 10.41697 | 115° | 80km/h | 5692m | -3.2m/s | -14.0°C | 16.6% | 504.3hPa | 2.7V | 00:00:00 | 03:20:20 | 00:00:00 | |
| DL1XH-15 | 2026-09-03 13:39:41 | 52.73424 | 10.41553 | 107° | 73km/h | 5708m | -3.1m/s | -14.3°C | 16.8% | 503.2hPa | 2.7V | 07:21:39 | 03:20:15 | 00:00:00 | |
| DL1XH1-15 | 2026-09-03 13:39:41 | 52.73429 | 10.41524 | 105° | 73km/h | 5711m | -3.3m/s | -14.3°C | 17% | 503.2hPa | 2.7V | 07:21:40 | 03:20:14 | 00:00:00 | |
| DB0DAN | 2026-09-03 13:39:40 | 52.73404 | 10.41639 | 113° | 71km/h | 5699m | -3.2m/s | -14.2°C | 15.6% | 503.9hPa | 2.7V | 00:00:00 | 00:00:00 | 00:00:00 | |
| DL1XH-west | 2026-09-03 13:39:37 | 52.73424 | 10.41553 | 108° | 73km/h | 5708m | -3.1m/s | -14.3°C | 18.7% | 503.2hPa | 2.7V | 07:22:09 | 03:20:15 | 00:00:00 | |
| DL4XJ-10 | 2026-09-03 13:39:35 | 52.73434 | 10.41494 | 105° | 84km/h | 5715m | -3.2m/s | -13.4°C | 0% | 0hPa | 2.6V | 00:00:00 | 00:00:00 | 00:00:00 | |
| DM0DOS-11 | 2026-09-03 13:39:34 | 52.73443 | 10.41433 | 102° | 77km/h | 5721m | -3.3m/s | -14.5°C | 17.2% | 502.5hPa | 2.6V | 07:21:43 | 03:20:11 | 00:00:00 | |
| AA1-15 | 2026-09-03 13:39:34 | 52.73439 | 10.41464 | 103° | 75km/h | 5718m | -3m/s | -14.4°C | 19.2% | 502.7hPa | 2.7V | 07:22:09 | 03:20:12 | 00:00:00 | |
| DF8AY | 2026-09-03 13:39:32 | 52.73447 | 10.41401 | 102° | 78km/h | 5724m | -3.2m/s | -14.5°C | 19.4% | 502.1hPa | 2.6V | 07:22:09 | 03:20:10 | 00:00:00 | |
| DL1XH1-15 | 2026-09-03 13:39:31 | 52.73477 | 10.41193 | 106° | 91km/h | 5744m | -3.3m/s | -14.6°C | 17.5% | 500.9hPa | 2.7V | 07:21:50 | 03:20:04 | 00:00:00 | |
| DL1XH-west | 2026-09-03 13:39:26 | 52.73477 | 10.41193 | 106° | 91km/h | 5744m | -3.3m/s | -14.6°C | 19.9% | 500.9hPa | 2.7V | 07:22:09 | 03:20:04 | 00:00:00 | |
| DB0DAN | 2026-09-03 13:39:25 | 52.73484 | 10.41156 | 108° | 88km/h | 5747m | -3.4m/s | -14.7°C | 16.5% | 500.69hPa | 2.7V | 00:00:00 | 00:00:00 | 00:00:00 | |
| DO2SHX-10 | 2026-09-03 13:39:25 | 52.73484 | 10.41156 | 108° | 91km/h | 5747m | -3.4m/s | -14.6°C | 17.6% | 500.6hPa | 2.7V | 00:00:00 | 03:20:03 | 00:00:00 | |
| DM0DOS-11 | 2026-09-03 13:39:24 | 52.73499 | 10.41085 | 110° | 89km/h | 5753m | -3.2m/s | -14.7°C | 17.6% | 500.3hPa | 2.7V | 07:21:53 | 03:20:01 | 00:00:00 | |
| BIOWL1-15 | 2026-09-03 13:39:23 | 52.73499 | 10.41085 | 110° | 89km/h | 5753m | -3.2m/s | -14.7°C | 19.9% | 500.3hPa | 2.7V | 07:22:09 | 03:20:01 | 00:00:00 | |
| DF8AY | 2026-09-03 13:39:22 | 52.73507 | 10.41050 | 112° | 89km/h | 5757m | -3.1m/s | -14.7°C | 19.9% | 500.1hPa | 2.6V | 07:22:09 | 03:20:00 | 00:00:00 | |
| DL1XH-west | 2026-09-03 13:39:15 | 52.73566 | 10.40829 | 114° | 77km/h | 5779m | -3.3m/s | -14.9°C | 19.6% | 498.6hPa | 2.6V | 07:22:09 | 03:19:53 | 00:00:00 | |
| DL4XJ-10 | 2026-09-03 13:39:15 | 52.73567 | 10.40829 | 115° | 80km/h | 5779m | -3.3m/s | -13.9°C | 0% | 0hPa | 2.7V | 00:00:00 | 00:00:00 | 00:00:00 | |
| DM0DOS-11 | 2026-09-03 13:39:14 | 52.73581 | 10.40771 | 111° | 73km/h | 5786m | -3.3m/s | -15°C | 18.3% | 498.1hPa | 2.7V | 07:22:03 | 03:19:51 | 00:00:00 | |
| AA1-15 | 2026-09-03 13:39:12 | 52.73588 | 10.40743 | 111° | 73km/h | 5789m | -3.2m/s | -15°C | 20.3% | 497.9hPa | 2.7V | 07:22:09 | 03:19:50 | 00:00:00 | |
| DL1XH-15 | 2026-09-03 13:39:11 | 52.73613 | 10.40596 | 101° | 77km/h | 5806m | -3.4m/s | -15.3°C | 20.8% | 496.8hPa | 2.7V | 07:22:09 | 03:19:45 | 00:00:00 | |
| DF8AY | 2026-09-03 13:39:11 | 52.73594 | 10.40714 | 109° | 71km/h | 5792m | -3.3m/s | -15.1°C | 20.4% | 497.6hPa | 2.6V | 07:22:09 | 03:19:49 | 00:00:00 | |
| DB0DAN | 2026-09-03 13:39:10 | 52.73600 | 10.40686 | 106° | 69km/h | 5796m | -3.3m/s | -15.1°C | 17.8% | 497.45hPa | 2.6V | 00:00:00 | 00:00:00 | 00:00:00 | |
| DL1XH-west | 2026-09-03 13:39:05 | 52.73621 | 10.40532 | 101° | 80km/h | 5812m | -3.2m/s | -15.4°C | 23.6% | 496.4hPa | 2.6V | 07:23:00 | 03:19:43 | 00:00:00 | |
| AA1-15 | 2026-09-03 13:39:02 | 52.73633 | 10.40430 | 102° | 86km/h | 5822m | -3.3m/s | -15.5°C | 26.1% | 495.8hPa | 2.7V | 07:23:00 | 03:19:40 | 00:00:00 | |
| BIOWL1-15 | 2026-09-03 13:39:01 | 52.73638 | 10.40394 | 103° | 88km/h | 5825m | -3.3m/s | -15.5°C | 27.1% | 495.6hPa | 2.7V | 07:23:00 | 03:19:39 | 00:00:00 | |
| DL1XH1-15 | 2026-09-03 13:39:01 | 52.73671 | 10.40216 | 111° | 88km/h | 5841m | -3.1m/s | -15.5°C | 24.9% | 494.5hPa | 2.7V | 07:22:20 | 03:19:34 | 00:00:00 | |
| DF8AY | 2026-09-03 13:39:00 | 52.73643 | 10.40358 | 105° | 89km/h | 5828m | -3.2m/s | -15.5°C | 27.4% | 495.3hPa | 2.7V | 07:23:00 | 03:19:38 | 00:00:00 | |
| SONCRA | 2026-09-03 13:38:58 | 52.73656 | 10.40286 | 108° | 89km/h | 5835m | -3.2m/s | -15.5°C | 23.0% | 494.9hPa | 2.7V | 00:00:00 | 00:00:00 | 00:00:00 | |
| S3001 | 2026-09-03 13:38:56 | 52.73671 | 10.40216 | 111° | 88km/h | 5841m | -3.1m/s | -15.5°C | 23.5% | 494.5hPa | 2.7V | 00:00:00 | 00:00:00 | 00:00:00 | |
| DB0DAN | 2026-09-03 13:38:55 | 52.73680 | 10.40183 | 113° | 82km/h | 5845m | -3.1m/s | -15.5°C | 23.8% | 494.25hPa | 2.7V | 00:00:00 | 00:00:00 | 00:00:00 | |
| DL1XH-west | 2026-09-03 13:38:54 | 52.73688 | 10.40150 | 114° | 82km/h | 5848m | -3.4m/s | -15.6°C | 27.7% | 494.1hPa | 2.6V | 07:23:00 | 03:19:32 | 00:00:00 | |
| AA1-15 | 2026-09-03 13:38:52 | 52.73705 | 10.40090 | 113° | 77km/h | 5854m | -3.1m/s | -15.6°C | 29% | 493.7hPa | 2.7V | 07:23:00 | 03:19:30 | 00:00:00 | |
| DL1XH1-15 | 2026-09-03 13:38:50 | 52.73739 | 10.39915 | 102° | 75km/h | 5873m | -3m/s | -15.8°C | 28% | 492.4hPa | 2.7V | 07:22:30 | 03:19:24 | 00:00:00 | |
| BIOWL1-15 | 2026-09-03 13:38:50 | 52.73719 | 10.40032 | 110° | 73km/h | 5860m | -3.2m/s | -15.7°C | 30.2% | 493.2hPa | 2.7V | 07:23:00 | 03:19:28 | 00:00:00 | |
| DL1XH-west | 2026-09-03 13:38:44 | 52.73747 | 10.39852 | 101° | 78km/h | 5879m | -3.1m/s | -16°C | 30.9% | 492.1hPa | 2.7V | 07:23:00 | 03:19:22 | 00:00:00 | |
| AA1-15 | 2026-09-03 13:38:41 | 52.73758 | 10.39751 | 101° | 84km/h | 5889m | -3.3m/s | -16.1°C | 30.7% | 491.4hPa | 2.7V | 07:23:00 | 03:19:19 | 00:00:00 | |
| DL1XH1-15 | 2026-09-03 13:38:40 | 52.73781 | 10.39573 | 103° | 91km/h | 5905m | -3.2m/s | -16.3°C | 38.8% | 490.3hPa | 2.6V | 07:22:40 | 03:19:14 | 00:00:00 | |
| DB0DAN | 2026-09-03 13:38:40 | 52.73762 | 10.39717 | 101° | 82km/h | 5892m | -3.3m/s | -16.1°C | 27.2% | 491.25hPa | 2.7V | 00:00:00 | 00:00:00 | 00:00:00 | |
| BIOWL1-15 | 2026-09-03 13:38:39 | 52.73766 | 10.39681 | 101° | 88km/h | 5895m | -3.4m/s | -16.2°C | 31.6% | 491hPa | 2.7V | 07:23:00 | 03:19:17 | 00:00:00 | |
| DL1XH-west | 2026-09-03 13:38:33 | 52.73798 | 10.39462 | 106° | 91km/h | 5915m | -3.2m/s | -16.3°C | 47% | 489.6hPa | 2.7V | 07:23:00 | 03:19:11 | 00:00:00 | |
| AA1-15 | 2026-09-03 13:38:31 | 52.73812 | 10.39389 | 109° | 91km/h | 5922m | -3.2m/s | -16.3°C | 48.4% | 489.2hPa | 2.6V | 07:23:00 | 03:19:09 | 00:00:00 | |
| BIOWL1-15 | 2026-09-03 13:38:29 | 52.73828 | 10.39319 | 111° | 89km/h | 5928m | -3m/s | -16.4°C | 53.3% | 488.9hPa | 2.7V | 07:23:00 | 03:19:07 | 00:00:00 | |
| DL4BBY-15 | 2026-09-03 13:38:28 | 52.73836 | 10.39285 | 113° | 84km/h | 5931m | -3.1m/s | -15.4°C | 0% | 0hPa | 2.6V | 00:00:00 | 00:00:00 | 00:00:00 | |
| SONCRA | 2026-09-03 13:38:27 | 52.73845 | 10.39252 | 112° | 84km/h | 5934m | -2.9m/s | -16.4°C | 44.1% | 488.4hPa | 2.6V | 00:00:00 | 00:00:00 | 00:00:00 | |
| DB0DAN | 2026-09-03 13:38:25 | 52.73861 | 10.39189 | 113° | 75km/h | 5940m | -3m/s | -16.4°C | 53.8% | 488.06hPa | 2.6V | 00:00:00 | 00:00:00 | 00:00:00 | |
| SONDE2-11 | 2026-09-03 13:38:24 | 52.73868 | 10.39159 | 111° | 77km/h | 5943m | -2.9m/s | -16.5°C | 53.8% | 487.9hPa | 2.7V | 00:00:00 | 00:00:00 | 00:00:00 | |
| DL1XH-15 | 2026-09-03 13:38:22 | 52.73904 | 10.38945 | 100° | 80km/h | 5964m | -3.3m/s | -16.8°C | 59.7% | 486.6hPa | 2.7V | 07:22:59 | 03:18:55 | 00:00:00 | |
| DL1XH-west | 2026-09-03 13:38:22 | 52.73882 | 10.39100 | 108° | 75km/h | 5949m | -3.2m/s | -16.6°C | 56.5% | 487.5hPa | 2.7V | 07:23:00 | 03:19:00 | 00:00:00 | |
| AA1-15 | 2026-09-03 13:38:21 | 52.73887 | 10.39071 | 106° | 75km/h | 5952m | -3m/s | -16.6°C | 56.6% | 487.3hPa | 2.6V | 07:23:00 | 03:18:59 | 00:00:00 | |
| BIOWL1-15 | 2026-09-03 13:38:21 | 52.73896 | 10.39010 | 103° | 77km/h | 5958m | -2.9m/s | -16.7°C | 57.5% | 486.9hPa | 2.7V | 07:23:00 | 03:18:57 | 00:00:00 | |
| DF8AY | 2026-09-03 13:38:18 | 52.73901 | 10.38978 | 102° | 78km/h | 5961m | -3.2m/s | -16.8°C | 58.4% | 486.7hPa | 2.7V | 07:23:00 | 03:18:56 | 00:00:00 | |
| DF8AY-15 | 2026-09-03 13:38:18 | 52.73901 | 10.38978 | 102° | 88km/h | 5961m | -3.2m/s | -16.7°C | 58.8% | 486.7hPa | 2.7V | 00:00:00 | 03:18:56 | 00:00:00 | |
| SMARD9-15 | 2026-09-03 13:38:17 | 52.73908 | 10.38912 | 100° | 82km/h | 5967m | -3.0m/s | -16.8°C | 57.1% | 486.3hPa | 2.7V | 00:00:00 | 00:00:00 | 00:00:00 | |
| DL1LOL-11 | 2026-09-03 13:38:15 | 52.73912 | 10.38877 | 101° | 86km/h | 5970m | -3.2m/s | -16.9°C | 56.5% | 486.1hPa | 2.7V | 07:23:00 | 00:00:00 | 00:00:00 | |
| DF7ER-10 | 2026-09-03 13:38:14 | 52.73912 | 10.38877 | 101° | 86km/h | 5970m | -3.2m/s | -16.9°C | 56.5% | 486.1hPa | 2.7V | 07:23:00 | 00:00:00 | 00:00:00 | |
| DJ2DS-15 | 2026-09-03 13:38:13 | 52.73920 | 10.38806 | 101° | 88km/h | 5977m | -3.5m/s | -17.0°C | 55.3% | 485.7hPa | 2.7V | 00:00:00 | 00:00:00 | 00:00:00 | |
| DL1XH-15 | 2026-09-03 13:38:11 | 52.73956 | 10.38582 | 108° | 93km/h | 5997m | -3.2m/s | -17.1°C | 59% | 484.4hPa | 2.7V | 07:23:09 | 03:18:45 | 00:00:00 | |
| DL1XH-west | 2026-09-03 13:38:11 | 52.73930 | 10.38732 | 103° | 93km/h | 5984m | -3.4m/s | -17°C | 60.7% | 485.2hPa | 2.7V | 07:23:51 | 03:18:49 | 00:00:00 | |
| BIOWL1-15 | 2026-09-03 13:38:10 | 52.73949 | 10.38619 | 107° | 95km/h | 5993m | -3.2m/s | -17.1°C | 60.8% | 484.5hPa | 2.7V | 07:23:51 | 03:18:46 | 00:00:00 | |
| DB0DAN | 2026-09-03 13:38:10 | 52.73936 | 10.38694 | 105° | 89km/h | 5987m | -3.2m/s | -17°C | 56.6% | 485.01hPa | 2.6V | 00:00:00 | 00:00:00 | 00:00:00 | |
| AA1-15 | 2026-09-03 13:38:10 | 52.73936 | 10.38694 | 105° | 93km/h | 5987m | -3.2m/s | -17°C | 61.2% | 485hPa | 2.6V | 07:23:51 | 03:18:48 | 00:00:00 | |
| DF8AY | 2026-09-03 13:38:07 | 52.73956 | 10.38582 | 109° | 93km/h | 5997m | -3.2m/s | -17.1°C | 60.6% | 484.4hPa | 2.7V | 07:23:51 | 03:18:45 | 00:00:00 | |
| DF7ER-10 | 2026-09-03 13:38:03 | 52.73980 | 10.38474 | 113° | 89km/h | 6006m | -3.2m/s | -17.1°C | 56.3% | 483.7hPa | 2.7V | 07:23:00 | 00:00:00 | 00:00:00 | |
| DJ2DS-15 | 2026-09-03 13:38:02 | 52.73997 | 10.38408 | 114° | 86km/h | 6012m | -3.1m/s | -17.1°C | 60.9% | 483.3hPa | 2.7V | 00:00:00 | 03:18:40 | 00:00:00 | |
| DL1XH-15 | 2026-09-03 13:38:01 | 52.74033 | 10.38254 | 107° | 75km/h | 6028m | -3.1m/s | -17.4°C | 64% | 482.3hPa | 2.7V | 07:23:19 | 03:18:35 | 00:00:00 | |
| DL1XH-west | 2026-09-03 13:38:00 | 52.74013 | 10.38345 | 112° | 80km/h | 6019m | -2.9m/s | -17.3°C | 62.7% | 483hPa | 2.7V | 07:23:51 | 03:18:38 | 00:00:00 | |
| AA1-15 | 2026-09-03 13:37:59 | 52.74020 | 10.38314 | 111° | 78km/h | 6022m | -3m/s | -17.3°C | 62.8% | 482.8hPa | 2.6V | 07:23:51 | 03:18:37 | 00:00:00 | |
| BIOWL1-15 | 2026-09-03 13:37:57 | 52.74033 | 10.38254 | 107° | 77km/h | 6028m | -3.1m/s | -17.4°C | 63% | 482.3hPa | 2.7V | 07:23:51 | 03:18:35 | 00:00:00 | |
| SONCRA | 2026-09-03 13:37:56 | 52.74038 | 10.38224 | 104° | 75km/h | 6031m | -3.1m/s | -17.4°C | 63.1% | 482.1hPa | 2.7V | 00:00:00 | 00:00:00 | 00:00:00 | |
| SONDE2-11 | 2026-09-03 13:37:53 | 52.74051 | 10.38128 | 100° | 80km/h | 6040m | -3.0m/s | -17.5°C | 65.6% | 481.5hPa | 2.7V | 00:00:00 | 00:00:00 | 00:00:00 | |
| DF7ER-10 | 2026-09-03 13:37:52 | 52.74051 | 10.38128 | 102° | 82km/h | 6040m | -3.0m/s | -17.5°C | 65.6% | 481.5hPa | 2.7V | 07:23:00 | 00:00:00 | 00:00:00 | |
| DL1XH-15 | 2026-09-03 13:37:51 | 52.74079 | 10.37910 | 105° | 95km/h | 6058m | -3.1m/s | -17.7°C | 70.4% | 480.4hPa | 2.7V | 07:23:29 | 03:18:25 | 00:00:00 | |
| DL1XH-west | 2026-09-03 13:37:50 | 52.74063 | 10.38023 | 101° | 89km/h | 6049m | -2.9m/s | -17.7°C | 69.9% | 480.9hPa | 2.6V | 07:23:51 | 03:18:28 | 00:00:00 | |
| AA1-15 | 2026-09-03 13:37:49 | 52.74068 | 10.37986 | 102° | 91km/h | 6052m | -3.1m/s | -17.7°C | 70.4% | 480.7hPa | 2.7V | 07:23:51 | 03:18:27 | 00:00:00 | |
| BIOWL1-15 | 2026-09-03 13:37:46 | 52.74086 | 10.37872 | 107° | 95km/h | 6062m | -3.3m/s | -17.8°C | 70.4% | 480.1hPa | 2.7V | 07:23:51 | 03:18:24 | 00:00:00 | |
| SMARD9-15 | 2026-09-03 13:37:46 | 52.74093 | 10.37834 | 108° | 93km/h | 6065m | -3.1m/s | -17.8°C | 66.2% | 480.0hPa | 2.6V | 00:00:00 | 00:00:00 | 00:00:00 | |
| EDDB2-12 | 2026-09-03 13:37:44 | 52.74101 | 10.37797 | 110° | 93km/h | 6068m | -3.2m/s | -17.8°C | 66.0% | 479.8hPa | 2.6V | 00:00:00 | 00:00:00 | 00:00:00 | |
| GOEST3-10 | 2026-09-03 13:37:43 | 52.74110 | 10.37761 | 112° | 89km/h | 6071m | -3.2m/s | -17.7°C | 69.7% | 479.5hPa | 2.6V | 00:00:00 | 03:18:21 | 00:00:00 | |
| DJ2DS-15 | 2026-09-03 13:37:42 | 52.74118 | 10.37726 | 113° | 84km/h | 6074m | -3.0m/s | -17.8°C | 69.6% | 479.3hPa | 2.6V | 00:00:00 | 03:18:20 | 00:00:00 | |
| DL1XH-15 | 2026-09-03 13:37:40 | 52.74159 | 10.37565 | 110° | 78km/h | 6089m | -3.1m/s | -18°C | 71.7% | 478.4hPa | 2.7V | 07:23:39 | 03:18:15 | 00:00:00 | |
| DB0DAN | 2026-09-03 13:37:40 | 52.74136 | 10.37659 | 113° | 80km/h | 6080m | -3.2m/s | -17.9°C | 66.8% | 478.95hPa | 2.7V | 00:00:00 | 00:00:00 | 00:00:00 | |
| DL1XH-west | 2026-09-03 13:37:40 | 52.74136 | 10.37659 | 113° | 84km/h | 6080m | -3.2m/s | -17.9°C | 69.2% | 478.9hPa | 2.7V | 07:23:51 | 03:18:18 | 00:00:00 | |
| DL1XH1-15 | 2026-09-03 13:37:39 | 52.74166 | 10.37534 | 109° | 77km/h | 6092m | -3m/s | -17.9°C | 72.6% | 478.2hPa | 2.6V | 07:23:40 | 03:18:14 | 00:00:00 | |
| AA1-15 | 2026-09-03 13:37:39 | 52.74144 | 10.37627 | 113° | 82km/h | 6083m | -3m/s | -17.9°C | 69.8% | 478.8hPa | 2.7V | 07:23:51 | 03:18:17 | 00:00:00 | |
| DF8AY | 2026-09-03 13:37:35 | 52.74172 | 10.37504 | 108° | 77km/h | 6095m | -3.2m/s | -18°C | 69.3% | 478hPa | 2.6V | 07:23:51 | 03:18:13 | 00:00:00 | |
| DL4XJ-10 | 2026-09-03 13:37:35 | 52.74172 | 10.37504 | 108° | 88km/h | 6095m | -3.1m/s | -17.0°C | 0% | 0hPa | 2.6V | 00:00:00 | 00:00:00 | 00:00:00 | |
| DL3AQ-11 | 2026-09-03 13:37:33 | 52.74200 | 10.37310 | 100° | 84km/h | 6113m | -2.9m/s | -18.3°C | 69.8% | 476.9hPa | 2.6V | 00:00:00 | 00:00:00 | 00:00:00 | |
| DL1XH-15 | 2026-09-03 13:37:32 | 52.74208 | 10.37239 | 100° | 88km/h | 6119m | -3m/s | -18.4°C | 73.6% | 476.4hPa | 2.6V | 07:23:49 | 03:18:05 | 00:00:00 | |
| DL1XH1-15 | 2026-09-03 13:37:31 | 52.74213 | 10.37203 | 101° | 89km/h | 6122m | -3.1m/s | -18.4°C | 74.6% | 476.2hPa | 2.6V | 07:23:50 | 03:18:04 | 00:00:00 | |
| DL1XH-west | 2026-09-03 13:37:30 | 52.74196 | 10.37345 | 101° | 82km/h | 6110m | -2.9m/s | -18.2°C | 70.7% | 477.1hPa | 2.6V | 07:23:51 | 03:18:08 | 00:00:00 | |
| AA1-15 | 2026-09-03 13:37:28 | 52.74204 | 10.37275 | 101° | 88km/h | 6116m | -3m/s | -18.4°C | 71.7% | 476.7hPa | 2.6V | 07:23:51 | 03:18:06 | 00:00:00 | |
| DF8AY | 2026-09-03 13:37:25 | 52.74222 | 10.37128 | 103° | 93km/h | 6128m | -3.2m/s | -18.5°C | 73.8% | 475.9hPa | 2.7V | 07:24:42 | 03:18:02 | 00:00:00 | |
| DB0DAN | 2026-09-03 13:37:25 | 52.74217 | 10.37166 | 102° | 88km/h | 6125m | -3.1m/s | -18.5°C | 71.2% | 476.16hPa | 2.7V | 00:00:00 | 00:00:00 | 00:00:00 | |
| BIOWL1-15 | 2026-09-03 13:37:25 | 52.74217 | 10.37166 | 102° | 93km/h | 6125m | -3.1m/s | -18.5°C | 74.2% | 476.2hPa | 2.7V | 07:23:51 | 03:18:03 | 00:00:00 | |
| DJ2DS-15 | 2026-09-03 13:37:22 | 52.74234 | 10.37051 | 106° | 86km/h | 6135m | -3.0m/s | -18.4°C | 74.3% | 475.5hPa | 2.7V | 00:00:00 | 03:18:00 | 00:00:00 | |
| DF7ER-10 | 2026-09-03 13:37:21 | 52.74234 | 10.37051 | 107° | 97km/h | 6135m | -3.1m/s | -18.5°C | 70.6% | 475.5hPa | 2.7V | 07:24:00 | 00:00:00 | 00:00:00 | |
| DL1XH-15 | 2026-09-03 13:37:20 | 52.74273 | 10.36866 | 112° | 91km/h | 6150m | -3m/s | -18.5°C | 73.5% | 474.5hPa | 2.7V | 07:23:59 | 03:17:55 | 00:00:00 | |
| DL1XH1-15 | 2026-09-03 13:37:19 | 52.74282 | 10.36832 | 113° | 88km/h | 6153m | -3m/s | -18.6°C | 73.8% | 474.3hPa | 2.7V | 07:24:00 | 03:17:54 | 00:00:00 | |
| BIOWL1-15 | 2026-09-03 13:37:19 | 52.74291 | 10.36799 | 114° | 86km/h | 6156m | -3.2m/s | -18.6°C | 71.7% | 474.1hPa | 2.7V | 07:24:42 | 03:17:53 | 00:00:00 | |
| DL1XH-west | 2026-09-03 13:37:19 | 52.74256 | 10.36938 | 110° | 95km/h | 6144m | -3.1m/s | -18.5°C | 73.6% | 474.9hPa | 2.6V | 07:24:42 | 03:17:57 | 00:00:00 | |
| AA1-15 | 2026-09-03 13:37:17 | 52.74273 | 10.36866 | 113° | 91km/h | 6150m | -3m/s | -18.5°C | 72.4% | 474.5hPa | 2.7V | 07:24:42 | 03:17:55 | 00:00:00 | |
| DF8AY | 2026-09-03 13:37:14 | 52.74299 | 10.36767 | 113° | 82km/h | 6159m | -3.2m/s | -18.7°C | 71.6% | 474hPa | 2.7V | 07:24:42 | 03:17:52 | 00:00:00 | |
| EDDB2-12 | 2026-09-03 13:37:13 | 52.74307 | 10.36735 | 112° | 80km/h | 6162m | -3.1m/s | -18.7°C | 71.0% | 473.7hPa | 2.6V | 00:00:00 | 00:00:00 | 00:00:00 | |
| DL1XH-15 | 2026-09-03 13:37:12 | 52.74344 | 10.36551 | 103° | 78km/h | 6181m | -3.1m/s | -18.9°C | 77.2% | 472.5hPa | 2.6V | 07:24:09 | 03:17:45 | 00:00:00 | |
| DB0DAN | 2026-09-03 13:37:10 | 52.74328 | 10.36644 | 109° | 73km/h | 6172m | -3.2m/s | -18.8°C | 72.1% | 473.19hPa | 2.6V | 00:00:00 | 00:00:00 | 00:00:00 | |
| DL1XH1-15 | 2026-09-03 13:37:09 | 52.74349 | 10.36519 | 102° | 80km/h | 6184m | -3m/s | -18.9°C | 77.6% | 472.3hPa | 2.6V | 07:24:10 | 03:17:44 | 00:00:00 | |
| DL1XH-west | 2026-09-03 13:37:09 | 52.74334 | 10.36613 | 107° | 77km/h | 6175m | -3.1m/s | -18.8°C | 72.2% | 473hPa | 2.7V | 07:24:42 | 03:17:47 | 00:00:00 | |
| AA1-15 | 2026-09-03 13:37:07 | 52.74344 | 10.36551 | 104° | 78km/h | 6181m | -3.2m/s | -18.9°C | 73.3% | 472.5hPa | 2.6V | 07:24:42 | 03:17:45 | 00:00:00 | |
| BIOWL1-15 | 2026-09-03 13:37:04 | 52.74357 | 10.36451 | 101° | 84km/h | 6191m | -3.2m/s | -19.1°C | 76.3% | 471.9hPa | 2.6V | 07:24:42 | 03:17:42 | 00:00:00 | |
| DF8AY | 2026-09-03 13:37:03 | 52.74361 | 10.36416 | 101° | 88km/h | 6194m | -3.1m/s | -19.1°C | 76.9% | 471.6hPa | 2.6V | 07:24:42 | 03:17:41 | 00:00:00 | |
| DL8OAI-8 | 2026-09-03 13:37:03 | 52.74357 | 10.36451 | 102° | 84km/h | 6191m | -3.2m/s | -19.1°C | 75.7% | 471.9hPa | 2.6V | 07:24:00 | 00:00:00 | 00:00:00 | |
| DJ2DS-15 | 2026-09-03 13:37:02 | 52.74365 | 10.36380 | 101° | 89km/h | 6197m | -3.1m/s | -19.1°C | 79.4% | 471.6hPa | 2.6V | 00:00:00 | 03:17:40 | 00:00:00 | |
| DL1XH1-15 | 2026-09-03 13:37:01 | 52.74400 | 10.36151 | 108° | 97km/h | 6216m | -3.2m/s | -19.2°C | 78.3% | 470.3hPa | 2.6V | 07:24:20 | 03:17:34 | 00:00:00 | |
| DJ2DS-15 | 2026-09-03 13:37:01 | 52.74370 | 10.36343 | 101° | 91km/h | 6200m | -3.3m/s | -19.2°C | 75.1% | 471.4hPa | 2.6V | 00:00:00 | 00:00:00 | 00:00:00 | |
| DL1XH-15 | 2026-09-03 13:37:00 | 52.74393 | 10.36189 | 106° | 97km/h | 6213m | -3.2m/s | -19.2°C | 78.1% | 470.5hPa | 2.6V | 07:24:19 | 03:17:35 | 00:00:00 | |
| DL1XH-west | 2026-09-03 13:36:58 | 52.74386 | 10.36228 | 105° | 97km/h | 6210m | -3.1m/s | -19.2°C | 77.6% | 470.8hPa | 2.6V | 07:24:42 | 03:17:36 | 00:00:00 | |
| AA1-15 | 2026-09-03 13:36:57 | 52.74393 | 10.36189 | 107° | 97km/h | 6213m | -3.2m/s | -19.2°C | 77.4% | 470.5hPa | 2.6V | 07:24:42 | 03:17:35 | 00:00:00 | |
| DB0DAN | 2026-09-03 13:36:55 | 52.74408 | 10.36113 | 110° | 91km/h | 6219m | -3.2m/s | -19.3°C | 74.2% | 470.07hPa | 2.7V | 00:00:00 | 00:00:00 | 00:00:00 | |
| BIOWL1-15 | 2026-09-03 13:36:54 | 52.74417 | 10.36075 | 111° | 95km/h | 6223m | -3.3m/s | -19.3°C | 76.3% | 469.9hPa | 2.6V | 07:24:42 | 03:17:32 | 00:00:00 | |
| DF8AY | 2026-09-03 13:36:53 | 52.74425 | 10.36039 | 113° | 93km/h | 6226m | -3m/s | -19.3°C | 75.9% | 469.7hPa | 2.6V | 07:24:42 | 03:17:31 | 00:00:00 | |
| DL3AQ-11 | 2026-09-03 13:36:53 | 52.74434 | 10.36004 | 113° | 89km/h | 6229m | -2.8m/s | -19.3°C | 74.4% | 469.5hPa | 2.6V | 00:00:00 | 00:00:00 | 00:00:00 | |
| S3001 | 2026-09-03 13:36:52 | 52.74434 | 10.36004 | 113° | 89km/h | 6229m | -2.8m/s | -19.3°C | -1.0% | 469.5hPa | 2.6V | 00:00:00 | 00:00:00 | 00:00:00 | |
| SONDE2-11 | 2026-09-03 13:36:51 | 52.74443 | 10.35970 | 113° | 86km/h | 6232m | -2.9m/s | -19.3°C | 74.4% | 469.3hPa | 2.6V | 00:00:00 | 00:00:00 | 00:00:00 | |
| DL1XH-15 | 2026-09-03 13:36:50 | 52.74472 | 10.35842 | 105° | 80km/h | 6244m | -3.1m/s | -19.5°C | 78.6% | 468.6hPa | 2.6V | 07:24:29 | 03:17:25 | 00:00:00 | |
| GOEST3-10 | 2026-09-03 13:36:50 | 52.74451 | 10.35937 | 113° | 82km/h | 6235m | -3.0m/s | -19.3°C | 78.5% | 469.1hPa | 2.6V | 00:00:00 | 03:17:28 | 00:00:00 | |
| DL1XH1-15 | 2026-09-03 13:36:49 | 52.74477 | 10.35810 | 104° | 80km/h | 6247m | -3.1m/s | -19.6°C | 78.8% | 468.4hPa | 2.6V | 07:24:30 | 03:17:24 | 00:00:00 | |
| DL1XH-west | 2026-09-03 13:36:47 | 52.74472 | 10.35842 | 106° | 80km/h | 6244m | -3.1m/s | -19.5°C | 75% | 468.6hPa | 2.6V | 07:24:42 | 03:17:25 | 00:00:00 | |
| AA1-15 | 2026-09-03 13:36:46 | 52.74477 | 10.35810 | 104° | 80km/h | 6247m | -3.1m/s | -19.6°C | 75.2% | 468.4hPa | 2.6V | 07:24:42 | 03:17:24 | 00:00:00 | |
| BIOWL1-15 | 2026-09-03 13:36:44 | 52.74486 | 10.35743 | 102° | 82km/h | 6253m | -3.3m/s | -19.7°C | 75.3% | 468hPa | 2.6V | 07:24:42 | 03:17:22 | 00:00:00 | |
| DF8AY | 2026-09-03 13:36:42 | 52.74495 | 10.35674 | 101° | 86km/h | 6260m | -3.3m/s | -19.7°C | 75.4% | 467.6hPa | 2.5V | 07:24:42 | 03:17:20 | 00:00:00 | |
| DJ2DS-15 | 2026-09-03 13:36:42 | 52.74495 | 10.35674 | 102° | 97km/h | 6260m | -3.3m/s | -19.7°C | 80.2% | 467.6hPa | 2.5V | 00:00:00 | 03:17:20 | 00:00:00 | |
| SMARD9-10 | 2026-09-03 13:36:41 | 52.74495 | 10.35674 | 102° | 86km/h | 6260m | -3.3m/s | -19.7°C | 76.1% | 467.6hPa | 2.6V | 00:00:00 | 00:00:00 | 00:00:00 | |
| DB0DAN | 2026-09-03 13:36:40 | 52.74503 | 10.35603 | 101° | 86km/h | 6266m | -3.2m/s | -19.8°C | 77.1% | 467.24hPa | 2.6V | 00:00:00 | 00:00:00 | 00:00:00 | |
| DL1XH1-15 | 2026-09-03 13:36:39 | 52.74522 | 10.35452 | 102° | 95km/h | 6279m | -3.1m/s | -19.9°C | 83.7% | 466.4hPa | 2.5V | 07:24:40 | 03:17:14 | 00:00:00 | |
| DL1XH-west | 2026-09-03 13:36:36 | 52.74522 | 10.35452 | 103° | 95km/h | 6279m | -3.1m/s | -20°C | 78.4% | 466.4hPa | 2.5V | 07:24:42 | 03:17:14 | 00:00:00 | |
| BIOWL1-15 | 2026-09-03 13:36:33 | 52.74541 | 10.35335 | 106° | 99km/h | 6289m | -3.4m/s | -20°C | 80.2% | 465.8hPa | 2.6V | 07:25:33 | 03:17:11 | 00:00:00 | |
| DF8AY | 2026-09-03 13:36:32 | 52.74548 | 10.35295 | 107° | 100km/h | 6292m | -3.5m/s | -20°C | 81% | 465.5hPa | 2.6V | 07:25:33 | 03:17:10 | 00:00:00 | |
| GOEST3-10 | 2026-09-03 13:36:29 | 52.74571 | 10.35175 | 110° | 100km/h | 6303m | -3.5m/s | -20.0°C | 85.5% | 464.8hPa | 2.5V | 00:00:00 | 00:00:00 | 00:00:00 | |
| DL4BBY-15 | 2026-09-03 13:36:28 | 52.74580 | 10.35135 | 110° | 97km/h | 6306m | -3.6m/s | -19.1°C | 0% | 0hPa | 2.6V | 00:00:00 | 00:00:00 | 00:00:00 | |
| DF7ER-10 | 2026-09-03 13:36:26 | 52.74589 | 10.35096 | 111° | 100km/h | 6310m | -3.5m/s | -20.1°C | 79.4% | 464.4hPa | 2.6V | 07:25:00 | 00:00:00 | 00:00:00 | |
| DB0DAN | 2026-09-03 13:36:25 | 52.74607 | 10.35018 | 112° | 95km/h | 6317m | -3.2m/s | -20.1°C | 78.8% | 463.96hPa | 2.6V | 00:00:00 | 00:00:00 | 00:00:00 | |
| DL1XH-west | 2026-09-03 13:36:25 | 52.74607 | 10.35018 | 112° | 100km/h | 6317m | -3.2m/s | -20.1°C | 79.4% | 464hPa | 2.6V | 07:25:33 | 03:17:03 | 00:00:00 | |
| BIOWL1-15 | 2026-09-03 13:36:22 | 52.74636 | 10.34906 | 115° | 93km/h | 6326m | -3.3m/s | -20.2°C | 72.3% | 463.3hPa | 2.6V | 07:25:33 | 03:17:00 | 00:00:00 | |
| DF8AY | 2026-09-03 13:36:21 | 52.74646 | 10.34871 | 115° | 91km/h | 6329m | -3.2m/s | -20.2°C | 71.1% | 463.2hPa | 2.6V | 07:25:33 | 03:16:59 | 00:00:00 | |
| AA1-15 | 2026-09-03 13:36:15 | 52.74691 | 10.34669 | 104° | 89km/h | 6348m | -3.2m/s | -20.5°C | 59.2% | 462hPa | 2.5V | 07:25:33 | 03:16:53 | 00:00:00 | |
| DL1XH-west | 2026-09-03 13:36:14 | 52.74696 | 10.34633 | 104° | 91km/h | 6351m | -3.1m/s | -20.5°C | 54.3% | 461.8hPa | 2.6V | 07:25:33 | 03:16:52 | 00:00:00 | |
| BIOWL1-15 | 2026-09-03 13:36:11 | 52.74720 | 10.34476 | 106° | 100km/h | 6365m | -3.4m/s | -20.4°C | 44.7% | 461hPa | 2.5V | 07:25:33 | 03:16:48 | 00:00:00 | |
| DL1XH1-15 | 2026-09-03 13:36:11 | 52.74752 | 10.34313 | 109° | 104km/h | 6378m | -3.5m/s | -20°C | 10% | 460.1hPa | 2.6V | 07:25:10 | 03:16:44 | 00:00:00 | |
| DF8AY | 2026-09-03 13:36:11 | 52.74713 | 10.34517 | 105° | 99km/h | 6361m | -3.4m/s | -20.4°C | 48.2% | 461.3hPa | 2.6V | 07:25:33 | 03:16:49 | 00:00:00 | |
| DB0DAN | 2026-09-03 13:36:10 | 52.74720 | 10.34476 | 106° | 97km/h | 6365m | -3.4m/s | -20.4°C | 42.7% | 461.01hPa | 2.5V | 00:00:00 | 00:00:00 | 00:00:00 | |
| AA1-15 | 2026-09-03 13:36:05 | 52.74761 | 10.34272 | 111° | 104km/h | 6382m | -3.4m/s | -19.9°C | 8.3% | 460hPa | 2.5V | 07:25:33 | 03:16:43 | 00:00:00 | |
| DL1XH-west | 2026-09-03 13:36:04 | 52.74771 | 10.34231 | 111° | 104km/h | 6385m | -3.4m/s | -19.9°C | 6.9% | 459.8hPa | 2.6V | 07:25:33 | 03:16:42 | 00:00:00 | |
| DO2SHX-10 | 2026-09-03 13:36:04 | 52.74771 | 10.34231 | 112° | 104km/h | 6385m | -3.3m/s | -19.8°C | 7.1% | 459.7hPa | 2.6V | 00:00:00 | 03:16:42 | 00:00:00 | |
| GOEST3-10 | 2026-09-03 13:36:03 | 52.74780 | 10.34190 | 113° | 100km/h | 6389m | -3.3m/s | -19.8°C | 6.6% | 459.5hPa | 2.6V | 00:00:00 | 03:16:41 | 00:00:00 | |
| DL3AQ-11 | 2026-09-03 13:36:02 | 52.74801 | 10.34111 | 114° | 102km/h | 6395m | -3.4m/s | -19.9°C | 5.5% | 459.1hPa | 2.6V | 00:00:00 | 00:00:00 | 00:00:00 | |
| DL1XH1-15 | 2026-09-03 13:36:01 | 52.74855 | 10.33926 | 114° | 91km/h | 6411m | -3m/s | -19.8°C | 5.3% | 458.1hPa | 2.6V | 07:25:20 | 03:16:34 | 00:00:00 | |
| BIOWL1-15 | 2026-09-03 13:36:01 | 52.74801 | 10.34111 | 114° | 102km/h | 6395m | -3.4m/s | -19.9°C | 5.6% | 459.1hPa | 2.6V | 07:25:33 | 03:16:39 | 00:00:00 | |
| DF8AY | 2026-09-03 13:36:00 | 52.74812 | 10.34072 | 115° | 102km/h | 6399m | -3.2m/s | -19.8°C | 5.4% | 458.9hPa | 2.6V | 07:25:33 | 03:16:38 | 00:00:00 | |
| DF8AY-15 | 2026-09-03 13:35:58 | 52.74834 | 10.33997 | 117° | 99km/h | 6405m | -3.2m/s | -19.8°C | 5.8% | 458.5hPa | 2.6V | 00:00:00 | 03:16:36 | 00:00:00 | |
| DO2SHX-10 | 2026-09-03 13:35:57 | 52.74844 | 10.33961 | 116° | 91km/h | 6408m | -3.0m/s | -19.8°C | 5.6% | 458.3hPa | 2.6V | 00:00:00 | 03:16:35 | 00:00:00 | |
| DB0DAN | 2026-09-03 13:35:55 | 52.74864 | 10.33892 | 113° | 86km/h | 6414m | -3.2m/s | -19.9°C | 4.6% | 457.94hPa | 2.6V | 00:00:00 | 00:00:00 | 00:00:00 | |
| AA1-15 | 2026-09-03 13:35:54 | 52.74872 | 10.33857 | 111° | 89km/h | 6418m | -3.1m/s | -19.9°C | 4.4% | 457.8hPa | 2.6V | 07:25:33 | 03:16:32 | 00:00:00 | |
| DM0DOS-11 | 2026-09-03 13:35:54 | 52.74880 | 10.33822 | 108° | 89km/h | 6420m | -3m/s | -19.9°C | 6.1% | 457.5hPa | 2.6V | 07:25:23 | 03:16:31 | 00:00:00 | |
| DL1XH-west | 2026-09-03 13:35:53 | 52.74880 | 10.33822 | 109° | 89km/h | 6420m | -3m/s | -19.9°C | 5.2% | 457.5hPa | 2.6V | 07:25:33 | 03:16:31 | 00:00:00 | |
| DL1XH-15 | 2026-09-03 13:35:53 | 52.74920 | 10.33593 | 105° | 100km/h | 6439m | -3.2m/s | -20.1°C | 7.4% | 456.2hPa | 2.5V | 07:25:29 | 03:16:25 | 00:00:00 | |
| BIOWL1-15 | 2026-09-03 13:35:51 | 52.74894 | 10.33749 | 106° | 93km/h | 6427m | -3.1m/s | -20°C | 6.6% | 457.1hPa | 2.5V | 07:25:33 | 03:16:29 | 00:00:00 | |
| DF8AY | 2026-09-03 13:35:49 | 52.74907 | 10.33673 | 105° | 97km/h | 6433m | -3.2m/s | -20°C | 6.8% | 456.8hPa | 2.6V | 07:25:33 | 03:16:27 | 00:00:00 | |
| DJ2DS-15 | 2026-09-03 13:35:49 | 52.74907 | 10.33673 | 105° | 97km/h | 6433m | -3.2m/s | -20.0°C | 6.6% | 456.8hPa | 2.6V | 00:00:00 | 00:00:00 | 00:00:00 | |
| DL3AQ-11 | 2026-09-03 13:35:46 | 52.74934 | 10.33511 | 105° | 104km/h | 6446m | -3.1m/s | -20.1°C | 6.6% | 456.1hPa | 2.6V | 00:00:00 | 00:00:00 | 00:00:00 | |
| DM0DOS-11 | 2026-09-03 13:35:44 | 52.74949 | 10.33427 | 106° | 106km/h | 6452m | -3.1m/s | -20.1°C | 6.8% | 455.6hPa | 2.6V | 07:25:33 | 03:16:21 | 00:00:00 | |
| DL1XH-west | 2026-09-03 13:35:43 | 52.74949 | 10.33427 | 107° | 106km/h | 6452m | -3.1m/s | -20.1°C | 6.3% | 455.6hPa | 2.6V | 07:25:33 | 03:16:21 | 00:00:00 | |
| BIOWL1-15 | 2026-09-03 13:35:41 | 52.74966 | 10.33341 | 109° | 110km/h | 6458m | -3.2m/s | -20°C | 5.1% | 455.2hPa | 2.5V | 07:26:24 | 03:16:19 | 00:00:00 | |
| DO2SHX-10 | 2026-09-03 13:35:41 | 52.74966 | 10.33341 | 109° | 108km/h | 6458m | -3.1m/s | -20.0°C | 5.9% | 455.2hPa | 2.5V | 00:00:00 | 03:16:19 | 00:00:00 | |
| DL1XH-15 | 2026-09-03 13:35:40 | 52.75004 | 10.33171 | 112° | 110km/h | 6471m | -3m/s | -19.9°C | 4.6% | 454.4hPa | 2.6V | 07:25:39 | 03:16:15 | 00:00:00 | |
| DF8AY | 2026-09-03 13:35:39 | 52.74984 | 10.33256 | 110° | 110km/h | 6465m | -3.1m/s | -20°C | 4% | 454.8hPa | 2.6V | 07:26:24 | 03:16:17 | 00:00:00 | |
| DF8AY-15 | 2026-09-03 13:35:38 | 52.74994 | 10.33213 | 112° | 100km/h | 6468m | -3.1m/s | -19.9°C | 4.8% | 454.6hPa | 2.6V | 00:00:00 | 03:16:16 | 00:00:00 | |
| GOEST3-10 | 2026-09-03 13:35:37 | 52.75004 | 10.33171 | 113° | 108km/h | 6471m | -2.9m/s | -19.9°C | 4.6% | 454.4hPa | 2.6V | 00:00:00 | 00:00:00 | 00:00:00 | |
| DM0DOS-11 | 2026-09-03 13:35:34 | 52.75049 | 10.33008 | 116° | 106km/h | 6483m | -3.1m/s | -20°C | 4.3% | 453.7hPa | 2.6V | 07:25:43 | 03:16:11 | 00:00:00 | |
| AA1-15 | 2026-09-03 13:35:33 | 52.75049 | 10.33008 | 116° | 106km/h | 6483m | -3.1m/s | -20°C | 2.8% | 453.7hPa | 2.6V | 07:26:24 | 03:16:11 | 00:00:00 | |
| DL1XH-west | 2026-09-03 13:35:32 | 52.75061 | 10.32969 | 117° | 104km/h | 6486m | -3.3m/s | -20°C | 2.7% | 453.5hPa | 2.6V | 07:26:24 | 03:16:10 | 00:00:00 | |
| GOEST3-10 | 2026-09-03 13:35:32 | 52.75061 | 10.32969 | 117° | 102km/h | 6486m | -3.3m/s | -19.9°C | 4.2% | 453.4hPa | 2.6V | 00:00:00 | 03:16:10 | 00:00:00 | |
| DL1XH-15 | 2026-09-03 13:35:30 | 52.75121 | 10.32779 | 117° | 100km/h | 6503m | -3.3m/s | -20°C | 3.9% | 452.5hPa | 2.6V | 07:25:49 | 03:16:05 | 00:00:00 | |
| BIOWL1-15 | 2026-09-03 13:35:30 | 52.75085 | 10.32892 | 117° | 102km/h | 6493m | -3.2m/s | -20°C | 2.5% | 453.1hPa | 2.6V | 07:26:24 | 03:16:08 | 00:00:00 | |
| DF8AY | 2026-09-03 13:35:29 | 52.75097 | 10.32854 | 117° | 102km/h | 6496m | -3.3m/s | -20°C | 2.3% | 452.9hPa | 2.5V | 07:26:24 | 03:16:07 | 00:00:00 | |
| DL4BBY-15 | 2026-09-03 13:35:28 | 52.75108 | 10.32816 | 118° | 100km/h | 6500m | -3.4m/s | -19.0°C | 0% | 0hPa | 2.6V | 00:00:00 | 00:00:00 | 00:00:00 | |
| GOEST3-10 | 2026-09-03 13:35:27 | 52.75120 | 10.32779 | 118° | 100km/h | 6503m | -3.3m/s | -19.9°C | 3.9% | 452.4hPa | 2.6V | 00:00:00 | 00:00:00 | 00:00:00 | |
| DB0DAN | 2026-09-03 13:35:25 | 52.75144 | 10.32705 | 118° | 95km/h | 6509m | -3.2m/s | -20°C | 3.3% | 452.13hPa | 2.6V | 00:00:00 | 00:00:00 | 00:00:00 | |
| DL1XH-west | 2026-09-03 13:35:22 | 52.75178 | 10.32599 | 117° | 95km/h | 6518m | -2.9m/s | -20°C | 1.7% | 451.5hPa | 2.6V | 07:26:24 | 03:16:00 | 00:00:00 | |
| DJ2DS-15 | 2026-09-03 13:35:22 | 52.75178 | 10.32599 | 118° | 102km/h | 6518m | -2.8m/s | -19.9°C | 3.6% | 451.5hPa | 2.6V | 00:00:00 | 03:16:00 | 00:00:00 | |
| BIOWL1-15 | 2026-09-03 13:35:22 | 52.75198 | 10.32529 | 114° | 91km/h | 6524m | -3m/s | -19.9°C | 1.4% | 451.2hPa | 2.6V | 07:26:24 | 03:15:58 | 00:00:00 | |
| DL1XH1-15 | 2026-09-03 13:35:21 | 52.75230 | 10.32384 | 107° | 97km/h | 6536m | -2.8m/s | -20°C | 3.1% | 450.4hPa | 2.6V | 07:26:00 | 03:15:54 | 00:00:00 | |
| DF8AY | 2026-09-03 13:35:18 | 52.75215 | 10.32458 | 110° | 93km/h | 6530m | -2.9m/s | -19.9°C | 1.1% | 450.8hPa | 2.5V | 07:26:24 | 03:15:56 | 00:00:00 | |
| DL1XH-west | 2026-09-03 13:35:12 | 52.75262 | 10.32221 | 110° | 108km/h | 6547m | -2.8m/s | -20.1°C | 0.9% | 449.8hPa | 2.6V | 07:26:24 | 03:15:50 | 00:00:00 | |
| BIOWL1-15 | 2026-09-03 13:35:12 | 52.75282 | 10.32137 | 112° | 108km/h | 6553m | -2.7m/s | -20°C | 0.9% | 449.5hPa | 2.6V | 07:26:24 | 03:15:48 | 00:00:00 | |
| DO2SHX-10 | 2026-09-03 13:35:12 | 52.75262 | 10.32221 | 110° | 108km/h | 6547m | -2.7m/s | -20.0°C | 3.0% | 449.7hPa | 2.6V | 07:26:00 | 03:15:50 | 00:00:00 | |
| DB0DAN | 2026-09-03 13:35:10 | 52.75282 | 10.32137 | 112° | 104km/h | 6553m | -2.7m/s | -20°C | 2.6% | 449.46hPa | 2.6V | 00:00:00 | 00:00:00 | 00:00:00 | |
| DF8AY | 2026-09-03 13:35:07 | 52.75315 | 10.32014 | 116° | 108km/h | 6562m | -2.8m/s | -19.9°C | 1.2% | 448.9hPa | 2.6V | 07:26:24 | 03:15:45 | 00:00:00 | |
| DO2SHX-10 | 2026-09-03 13:35:06 | 52.75327 | 10.31974 | 117° | 106km/h | 6564m | -2.7m/s | -19.8°C | 3.3% | 448.6hPa | 2.5V | 00:00:00 | 03:15:44 | 00:00:00 | |
| DL3AQ-11 | 2026-09-03 13:35:05 | 52.75339 | 10.31934 | 117° | 104km/h | 6567m | -2.8m/s | -19.8°C | 2.9% | 448.6hPa | 2.5V | 00:00:00 | 00:00:00 | 00:00:00 | |
| DM0DOS-11 | 2026-09-03 13:35:04 | 52.75364 | 10.31857 | 118° | 104km/h | 6573m | -2.6m/s | -19.8°C | 3.5% | 448.2hPa | 2.5V | 07:26:13 | 03:15:41 | 00:00:00 | |
| BUE01 | 2026-09-03 13:35:04 | 52.75352 | 10.31895 | 118° | 104km/h | 6570m | -2.9m/s | -19.8°C | 3.0% | 448.4hPa | 2.5V | 00:00:00 | 00:00:00 | 00:00:00 | |
| DO2SHX-10 | 2026-09-03 13:35:03 | 52.75364 | 10.31857 | 119° | 104km/h | 6573m | -2.6m/s | -19.7°C | 3.5% | 448.2hPa | 2.5V | 00:00:00 | 03:15:41 | 00:00:00 | |
| DJ2DS-15 | 2026-09-03 13:35:02 | 52.75377 | 10.31819 | 120° | 95km/h | 6575m | -2.5m/s | -19.7°C | 3.5% | 448.0hPa | 2.6V | 00:00:00 | 03:15:40 | 00:00:00 | |
| GOEST3-10 | 2026-09-03 13:35:01 | 52.75390 | 10.31781 | 120° | 102km/h | 6578m | -2.7m/s | -19.8°C | 3.5% | 447.9hPa | 2.6V | 00:00:00 | 03:15:39 | 00:00:00 | |
| DL1XH-west | 2026-09-03 13:35:01 | 52.75390 | 10.31781 | 120° | 104km/h | 6578m | -2.7m/s | -19.8°C | 1.7% | 447.9hPa | 2.6V | 07:26:24 | 03:15:39 | 00:00:00 | |
| DL1XH-15 | 2026-09-03 13:35:00 | 52.75442 | 10.31633 | 120° | 100km/h | 6588m | -3m/s | -19.9°C | 3.5% | 447.2hPa | 2.6V | 07:26:19 | 03:15:35 | 00:00:00 | |
| BIOWL1-15 | 2026-09-03 13:34:59 | 52.75416 | 10.31706 | 120° | 102km/h | 6583m | -2.3m/s | -19.8°C | 1.6% | 447.5hPa | 2.5V | 07:26:24 | 03:15:37 | 00:00:00 | |
| DF8AY | 2026-09-03 13:34:58 | 52.75442 | 10.31633 | 121° | 100km/h | 6588m | -3m/s | -19.9°C | 1.6% | 447.2hPa | 2.6V | 07:26:24 | 03:15:35 | 00:00:00 | |
| DL4BBY-15 | 2026-09-03 13:34:58 | 52.75429 | 10.31669 | 121° | 95km/h | 6586m | -2.7m/s | -18.9°C | 0% | 0hPa | 2.6V | 00:00:00 | 00:00:00 | 00:00:00 | |
| DO2SHX-10 | 2026-09-03 13:34:57 | 52.75442 | 10.31633 | 121° | 99km/h | 6589m | -2.9m/s | -19.8°C | 3.5% | 447.2hPa | 2.6V | 00:00:00 | 03:15:35 | 00:00:00 | |
| DB0DAN | 2026-09-03 13:34:55 | 52.75467 | 10.31561 | 121° | 93km/h | 6594m | -3.1m/s | -19.9°C | 2.9% | 446.94hPa | 2.6V | 00:00:00 | 00:00:00 | 00:00:00 | |
| DL4XJ-10 | 2026-09-03 13:34:55 | 52.75467 | 10.31562 | 121° | 95km/h | 6594m | -3.0m/s | -18.9°C | 0% | 0hPa | 2.5V | 00:00:00 | 00:00:00 | 00:00:00 | |
| DM0DOS-11 | 2026-09-03 13:34:54 | 52.75492 | 10.31493 | 120° | 93km/h | 6600m | -2.7m/s | -19.9°C | 3.4% | 446.5hPa | 2.5V | 07:26:23 | 03:15:31 | 00:00:00 | |
| AA1-15 | 2026-09-03 13:34:51 | 52.75515 | 10.31427 | 118° | 89km/h | 6606m | -2.7m/s | -19.9°C | 1.5% | 446.2hPa | 2.6V | 07:27:15 | 03:15:29 | 00:00:00 | |
| DL1XH1-15 | 2026-09-03 13:34:51 | 52.75561 | 10.31262 | 111° | 89km/h | 6620m | -3m/s | -20°C | 3.6% | 445.4hPa | 2.6V | 07:26:30 | 03:15:24 | 00:00:00 | |
| BIOWL1-15 | 2026-09-03 13:34:51 | 52.75535 | 10.31362 | 116° | 86km/h | 6611m | -2.8m/s | -19.9°C | 1.5% | 445.9hPa | 2.5V | 07:27:15 | 03:15:27 | 00:00:00 | |
| DO2SHX-10 | 2026-09-03 13:34:51 | 52.75515 | 10.31427 | 119° | 88km/h | 6606m | -2.6m/s | -19.9°C | 3.4% | 446.2hPa | 2.6V | 00:00:00 | 03:15:29 | 00:00:00 | |
| DL1XH-15 | 2026-09-03 13:34:50 | 52.75553 | 10.31296 | 112° | 88km/h | 6617m | -2.8m/s | -19.9°C | 3.5% | 445.6hPa | 2.6V | 07:26:29 | 03:15:25 | 00:00:00 | |
| DL1XH-west | 2026-09-03 13:34:50 | 52.75525 | 10.31394 | 117° | 88km/h | 6608m | -2.8m/s | -19.9°C | 1.5% | 446hPa | 2.6V | 07:27:15 | 03:15:28 | 00:00:00 | |
| DF8AY | 2026-09-03 13:34:46 | 52.75561 | 10.31262 | 112° | 89km/h | 6620m | -3m/s | -20°C | 1.8% | 445.4hPa | 2.6V | 07:27:15 | 03:15:24 | 00:00:00 | |
| GOEST3-10 | 2026-09-03 13:34:46 | 52.75561 | 10.31262 | 112° | 93km/h | 6620m | -3.0m/s | -20.0°C | 3.6% | 445.4hPa | 2.6V | 00:00:00 | 00:00:00 | 00:00:00 | |
| DO2SHX-10 | 2026-09-03 13:34:45 | 52.75569 | 10.31227 | 111° | 93km/h | 6622m | -2.6m/s | -20.0°C | 3.6% | 445.2hPa | 2.6V | 00:00:00 | 03:15:23 | 00:00:00 | |
| DM0DOS-11 | 2026-09-03 13:34:44 | 52.75586 | 10.31155 | 110° | 95km/h | 6628m | -2.8m/s | -20.1°C | 3.6% | 444.9hPa | 2.5V | 07:26:33 | 03:15:21 | 00:00:00 | |
| DJ2DS-15 | 2026-09-03 13:34:42 | 52.75594 | 10.31118 | 111° | 95km/h | 6631m | -2.9m/s | -20.1°C | 3.6% | 444.7hPa | 2.6V | 00:00:00 | 03:15:20 | 00:00:00 | |
| GOEST3-10 | 2026-09-03 13:34:41 | 52.75603 | 10.31080 | 111° | 102km/h | 6634m | -2.8m/s | -20.1°C | 3.6% | 444.5hPa | 2.6V | 00:00:00 | 03:15:19 | 00:00:00 | |
| DL1XH-15 | 2026-09-03 13:34:40 | 52.75644 | 10.30924 | 116° | 104km/h | 6644m | -2.5m/s | -20.2°C | 3.7% | 443.9hPa | 2.6V | 07:26:39 | 03:15:15 | 00:00:00 | |
| DL1XH1-15 | 2026-09-03 13:34:40 | 52.75656 | 10.30886 | 118° | 104km/h | 6646m | -2.3m/s | -20.2°C | 3.7% | 443.8hPa | 2.6V | 07:26:40 | 03:15:14 | 00:00:00 | |
| DB0DAN | 2026-09-03 13:34:40 | 52.75612 | 10.31041 | 112° | 95km/h | 6636m | -2.6m/s | -20.2°C | 3.1% | 444.45hPa | 2.6V | 00:00:00 | 00:00:00 | 00:00:00 | |
| AA1-15 | 2026-09-03 13:34:40 | 52.75612 | 10.31041 | 112° | 100km/h | 6636m | -2.6m/s | -20.2°C | 1.9% | 444.4hPa | 2.6V | 07:27:15 | 03:15:18 | 00:00:00 | |
| DL1XH-west | 2026-09-03 13:34:39 | 52.75621 | 10.31002 | 113° | 102km/h | 6639m | -2.6m/s | -20.2°C | 1.9% | 444.2hPa | 2.5V | 07:27:15 | 03:15:17 | 00:00:00 | |
| DF8AY | 2026-09-03 13:34:36 | 52.75668 | 10.30848 | 120° | 102km/h | 6648m | -2.1m/s | -20.2°C | 1.9% | 443.6hPa | 2.6V | 07:27:15 | 03:15:13 | 00:00:00 | |
| DO2SHX-10 | 2026-09-03 13:34:36 | 52.75656 | 10.30886 | 119° | 102km/h | 6646m | -2.2m/s | -20.1°C | 3.7% | 443.7hPa | 2.6V | 00:00:00 | 03:15:14 | 00:00:00 | |
| DL4XJ-10 | 2026-09-03 13:34:35 | 52.75668 | 10.30848 | 120° | 91km/h | 6648m | -2.1m/s | -19.2°C | 0% | 0hPa | 2.6V | 00:00:00 | 00:00:00 | 00:00:00 | |
| DO2SHX-10 | 2026-09-03 13:34:33 | 52.75694 | 10.30776 | 122° | 97km/h | 6653m | -2.5m/s | -20.1°C | 3.7% | 443.4hPa | 2.6V | 00:00:00 | 03:15:11 | 00:00:00 | |
| GOEST3-10 | 2026-09-03 13:34:31 | 52.75721 | 10.30708 | 123° | 89km/h | 6658m | -2.6m/s | -20.2°C | 3.7% | 442.9hPa | 2.6V | 00:00:00 | 03:15:09 | 00:00:00 | |
| DL1XH-15 | 2026-09-03 13:34:30 | 52.75770 | 10.30582 | 121° | 86km/h | 6669m | -2.8m/s | -20.4°C | 3.7% | 442.4hPa | 2.6V | 07:26:49 | 03:15:05 | 00:00:00 | |
| AA1-15 | 2026-09-03 13:34:29 | 52.75746 | 10.30644 | 123° | 89km/h | 6664m | -2.7m/s | -20.3°C | 1.9% | 442.7hPa | 2.5V | 07:27:15 | 03:15:07 | 00:00:00 | |
| BIOWL1-15 | 2026-09-03 13:34:28 | 52.75758 | 10.30613 | 123° | 88km/h | 6666m | -2.8m/s | -20.3°C | 2% | 442.6hPa | 2.5V | 07:27:15 | 03:15:06 | 00:00:00 | |
| DL4BBY-15 | 2026-09-03 13:34:28 | 52.75758 | 10.30612 | 123° | 93km/h | 6667m | -2.8m/s | -19.4°C | 0% | 0hPa | 2.6V | 00:00:00 | 00:00:00 | 00:00:00 | |
| DL1XH1-15 | 2026-09-03 13:34:27 | 52.75781 | 10.30551 | 120° | 84km/h | 6672m | -2.8m/s | -20.4°C | 3.8% | 442.3hPa | 2.6V | 07:26:50 | 03:15:04 | 00:00:00 | |
| DL1LOL-11 | 2026-09-03 13:34:26 | 52.75770 | 10.30582 | 123° | 86km/h | 6669m | -2.8m/s | -20.4°C | 3.2% | 442.4hPa | 2.6V | 07:27:00 | 00:00:00 | 00:00:00 | |
| DB0DAN | 2026-09-03 13:34:25 | 52.75792 | 10.30521 | 119° | 80km/h | 6675m | -2.5m/s | -20.4°C | 3.2% | 442.08hPa | 2.6V | 00:00:00 | 00:00:00 | 00:00:00 | |
| DF8AY | 2026-09-03 13:34:24 | 52.75802 | 10.30490 | 117° | 82km/h | 6677m | -2.6m/s | -20.4°C | 2.1% | 441.9hPa | 2.5V | 07:27:15 | 03:15:02 | 00:00:00 | |
| DJ2DS-15 | 2026-09-03 13:34:22 | 52.75820 | 10.30427 | 114° | 97km/h | 6682m | -2.4m/s | -20.5°C | 3.8% | 441.6hPa | 2.6V | 00:00:00 | 03:15:00 | 00:00:00 | |
| GOEST3-10 | 2026-09-03 13:34:21 | 52.75828 | 10.30394 | 112° | 95km/h | 6685m | -2.3m/s | -20.5°C | 3.9% | 441.4hPa | 2.6V | 00:00:00 | 03:14:59 | 00:00:00 | |
| DL1XH-15 | 2026-09-03 13:34:20 | 52.75862 | 10.30248 | 111° | 99km/h | 6694m | -2.6m/s | -20.8°C | 3.9% | 440.9hPa | 2.6V | 07:26:59 | 03:14:55 | 00:00:00 | |
| AA1-15 | 2026-09-03 13:34:18 | 52.75853 | 10.30286 | 111° | 97km/h | 6692m | -2.4m/s | -20.7°C | 2.3% | 441.1hPa | 2.5V | 07:27:15 | 03:14:56 | 00:00:00 | |
| DF8AY-15 | 2026-09-03 13:34:18 | 52.75853 | 10.30286 | 112° | 95km/h | 6692m | -2.3m/s | -20.7°C | 3.9% | 441.0hPa | 2.6V | 00:00:00 | 03:14:56 | 00:00:00 | |
| DL1XH1-15 | 2026-09-03 13:34:17 | 52.75872 | 10.30209 | 112° | 100km/h | 6696m | -2.5m/s | -20.7°C | 3.9% | 440.8hPa | 2.6V | 07:27:00 | 03:14:54 | 00:00:00 | |
| DL1XH-west | 2026-09-03 13:34:17 | 52.75862 | 10.30248 | 112° | 99km/h | 6694m | -2.6m/s | -20.8°C | 2.3% | 440.9hPa | 2.6V | 07:27:15 | 03:14:55 | 00:00:00 | |
| GOEST3-10 | 2026-09-03 13:34:16 | 52.75872 | 10.30209 | 113° | 102km/h | 6697m | -2.5m/s | -20.7°C | 3.9% | 440.7hPa | 2.5V | 00:00:00 | 00:00:00 | 00:00:00 | |
| DL4XJ-10 | 2026-09-03 13:34:15 | 52.75882 | 10.30170 | 114° | 95km/h | 6700m | -2.4m/s | -19.8°C | 0% | 0hPa | 2.5V | 00:00:00 | 00:00:00 | 00:00:00 | |
| DM0DOS-11 | 2026-09-03 13:34:14 | 52.75904 | 10.30092 | 115° | 104km/h | 6704m | -2.6m/s | -20.8°C | 3.8% | 440.4hPa | 2.5V | 07:27:03 | 03:14:51 | 00:00:00 | |
| DF8AY | 2026-09-03 13:34:14 | 52.75892 | 10.30131 | 115° | 104km/h | 6702m | -2.7m/s | -20.8°C | 2.3% | 440.5hPa | 2.5V | 07:27:15 | 03:14:52 | 00:00:00 | |
| DL3AQ-11 | 2026-09-03 13:34:13 | 52.75915 | 10.30053 | 117° | 104km/h | 6707m | -2.5m/s | -20.8°C | 3.3% | 440.1hPa | 2.6V | 00:00:00 | 00:00:00 | 00:00:00 | |
| DL1XH1-15 | 2026-09-03 13:34:11 | 52.75993 | 10.29836 | 123° | 95km/h | 6722m | -2.6m/s | -20.8°C | 4.1% | 439.2hPa | 2.6V | 07:27:10 | 03:14:44 | 00:00:00 | |
| DL1XH-15 | 2026-09-03 13:34:10 | 52.75980 | 10.29870 | 122° | 97km/h | 6719m | -2.5m/s | -20.8°C | 4% | 439.4hPa | 2.6V | 07:27:09 | 03:14:45 | 00:00:00 | |
| DB0DAN | 2026-09-03 13:34:10 | 52.75940 | 10.29977 | 120° | 99km/h | 6712m | -2.6m/s | -20.8°C | 3.3% | 439.87hPa | 2.6V | 00:00:00 | 00:00:00 | 00:00:00 | |
| DL1XH-west | 2026-09-03 13:34:07 | 52.75980 | 10.29870 | 123° | 97km/h | 6719m | -2.5m/s | -20.8°C | 2.4% | 439.4hPa | 2.6V | 07:27:15 | 03:14:45 | 00:00:00 | |
| DF8AY | 2026-09-03 13:34:03 | 52.76030 | 10.29741 | 121° | 86km/h | 6729m | -2.5m/s | -20.9°C | 2.9% | 438.8hPa | 2.5V | 07:27:15 | 03:14:41 | 00:00:00 | |
| DL3AQ-11 | 2026-09-03 13:34:02 | 52.76051 | 10.29680 | 117° | 84km/h | 6735m | -2.5m/s | -20.9°C | 4.1% | 438.5hPa | 2.6V | 00:00:00 | 00:00:00 | 00:00:00 | |
| DJ2DS-15 | 2026-09-03 13:34:01 | 52.76060 | 10.29648 | 115° | 84km/h | 6737m | -2.5m/s | -20.9°C | 4.2% | 438.3hPa | 2.6V | 00:00:00 | 00:00:00 | 00:00:00 | |
| DL1XH-15 | 2026-09-03 13:34:00 | 52.76086 | 10.29549 | 111° | 89km/h | 6745m | -2.6m/s | -21°C | 5.1% | 437.9hPa | 2.6V | 07:27:19 | 03:14:35 | 00:00:00 | |
| GOEST3-10 | 2026-09-03 13:34:00 | 52.76060 | 10.29648 | 116° | 88km/h | 6737m | -2.5m/s | -20.8°C | 4.9% | 438.2hPa | 2.6V | 00:00:00 | 03:14:38 | 00:00:00 | |
| DL1LOL-11 | 2026-09-03 13:33:59 | 52.76060 | 10.29648 | 116° | 84km/h | 6737m | -2.5m/s | -20.9°C | 4.2% | 438.3hPa | 2.6V | 07:28:00 | 00:00:00 | 00:00:00 | |
| DF8AY-15 | 2026-09-03 13:33:58 | 52.76077 | 10.29583 | 113° | 99km/h | 6742m | -2.6m/s | -20.9°C | 5.0% | 437.8hPa | 2.6V | 00:00:00 | 03:14:36 | 00:00:00 | |
| DL1XH1-15 | 2026-09-03 13:33:57 | 52.76094 | 10.29513 | 110° | 91km/h | 6748m | -2.6m/s | -21°C | 5.1% | 437.7hPa | 2.6V | 07:27:20 | 03:14:34 | 00:00:00 | |
| DL1XH-west | 2026-09-03 13:33:56 | 52.76094 | 10.29513 | 111° | 91km/h | 6748m | -2.7m/s | -21°C | 4% | 437.7hPa | 2.6V | 07:28:06 | 03:14:34 | 00:00:00 | |
| DB0DAN | 2026-09-03 13:33:55 | 52.76102 | 10.29477 | 110° | 91km/h | 6750m | -2.6m/s | -21.1°C | 4.5% | 437.55hPa | 2.6V | 00:00:00 | 00:00:00 | 00:00:00 | |
| DF8AY | 2026-09-03 13:33:53 | 52.76120 | 10.29401 | 112° | 100km/h | 6756m | -2.4m/s | -21.1°C | 4.1% | 437.2hPa | 2.5V | 07:28:06 | 03:14:31 | 00:00:00 | |
| DO2LYB-13 | 2026-09-03 13:33:52 | 52.76120 | 10.29401 | 113° | 100km/h | 6756m | -2.4m/s | -21.1°C | 4.5% | 437.2hPa | 2.6V | 00:00:00 | 00:00:00 | 00:00:00 | |
| DO2SHX-10 | 2026-09-03 13:33:51 | 52.76140 | 10.29323 | 114° | 104km/h | 6761m | -2.6m/s | -21.0°C | 5.0% | 436.8hPa | 2.6V | 00:00:00 | 03:14:29 | 00:00:00 | |
| DL1XH-15 | 2026-09-03 13:33:50 | 52.76185 | 10.29165 | 117° | 106km/h | 6771m | -2.6m/s | -21.1°C | 5% | 436.3hPa | 2.6V | 07:27:29 | 03:14:25 | 00:00:00 | |
| GOEST3-10 | 2026-09-03 13:33:50 | 52.76150 | 10.29283 | 115° | 104km/h | 6764m | -2.6m/s | -21.0°C | 5.0% | 436.7hPa | 2.5V | 00:00:00 | 03:14:28 | 00:00:00 | |
| DO2SHX-10 | 2026-09-03 13:33:48 | 52.76173 | 10.29204 | 117° | 106km/h | 6769m | -2.7m/s | -21.1°C | 4.9% | 436.4hPa | 2.5V | 00:00:00 | 03:14:26 | 00:00:00 | |
| DL1XH1-15 | 2026-09-03 13:33:47 | 52.76198 | 10.29126 | 118° | 106km/h | 6774m | -2.6m/s | -21.1°C | 5% | 436.1hPa | 2.6V | 07:27:30 | 03:14:24 | 00:00:00 | |
| AA1-15 | 2026-09-03 13:33:46 | 52.76198 | 10.29126 | 119° | 106km/h | 6774m | -2.6m/s | -21.1°C | 3.9% | 436.1hPa | 2.6V | 07:28:06 | 03:14:24 | 00:00:00 | |
| BIOWL1-15 | 2026-09-03 13:33:45 | 52.76211 | 10.29088 | 120° | 104km/h | 6777m | -2.7m/s | -21.1°C | 3.9% | 436hPa | 2.6V | 07:28:06 | 03:14:23 | 00:00:00 | |
| DF8AY | 2026-09-03 13:33:42 | 52.76250 | 10.28981 | 123° | 97km/h | 6785m | -2.4m/s | -21.2°C | 3.9% | 435.5hPa | 2.5V | 07:28:06 | 03:14:20 | 00:00:00 | |
| DJ2DS-15 | 2026-09-03 13:33:42 | 52.76250 | 10.28980 | 123° | 95km/h | 6785m | -2.4m/s | -21.1°C | 5.0% | 435.5hPa | 2.5V | 07:27:00 | 03:14:20 | 00:00:00 | |
| SMARD9-10 | 2026-09-03 13:33:41 | 52.76250 | 10.28980 | 124° | 97km/h | 6785m | -2.4m/s | -21.2°C | 4.3% | 435.5hPa | 2.6V | 07:28:00 | 00:00:00 | 00:00:00 | |
| DB0DAN | 2026-09-03 13:33:40 | 52.76276 | 10.28915 | 122° | 86km/h | 6790m | -2.6m/s | -21.2°C | 4.3% | 435.24hPa | 2.6V | 00:00:00 | 00:00:00 | 00:00:00 | |
| GOEST3-10 | 2026-09-03 13:33:40 | 52.76276 | 10.28915 | 123° | 86km/h | 6790m | -2.6m/s | -21.1°C | 5.0% | 435.2hPa | 2.6V | 00:00:00 | 03:14:18 | 00:00:00 | |
| DO2SHX-10 | 2026-09-03 13:33:39 | 52.76288 | 10.28883 | 122° | 86km/h | 6792m | -2.5m/s | -21.2°C | 5.1% | 435.0hPa | 2.6V | 00:00:00 | 03:14:17 | 00:00:00 | |
| DB0NH | 2026-09-03 13:33:38 | 52.76299 | 10.28852 | 120° | 95km/h | 6795m | -2.6m/s | -21.2°C | 5.2% | 434.9hPa | 2.6V | 00:00:00 | 03:14:16 | 00:00:00 | |
| DL1XH1-15 | 2026-09-03 13:33:37 | 52.76320 | 10.28789 | 116° | 84km/h | 6800m | -2.4m/s | -21.2°C | 5.3% | 434.6hPa | 2.5V | 07:27:40 | 03:14:14 | 00:00:00 | |
| AA1-15 | 2026-09-03 13:33:35 | 52.76329 | 10.28757 | 114° | 86km/h | 6803m | -2.5m/s | -21.3°C | 4.3% | 434.5hPa | 2.6V | 07:28:06 | 03:14:13 | 00:00:00 | |
| DL4XJ-10 | 2026-09-03 13:33:35 | 52.76329 | 10.28757 | 115° | 97km/h | 6802m | -2.5m/s | -20.3°C | 0% | 0hPa | 2.5V | 00:00:00 | 00:00:00 | 00:00:00 | |
| DM0DOS-11 | 2026-09-03 13:33:34 | 52.76362 | 10.28619 | 110° | 93km/h | 6813m | -2.6m/s | -21.5°C | 7.1% | 433.9hPa | 2.5V | 07:27:45 | 03:14:09 | 00:00:00 | |
| DL1XH-west | 2026-09-03 13:33:34 | 52.76338 | 10.28724 | 113° | 88km/h | 6805m | -2.5m/s | -21.4°C | 4.6% | 434.4hPa | 2.6V | 07:28:06 | 03:14:12 | 00:00:00 | |
| DF8AY | 2026-09-03 13:33:32 | 52.76354 | 10.28655 | 111° | 91km/h | 6810m | -2.6m/s | -21.4°C | 6% | 434hPa | 2.5V | 07:28:06 | 03:14:10 | 00:00:00 | |
| BUE01 | 2026-09-03 13:33:31 | 52.76371 | 10.28581 | 110° | 95km/h | 6815m | -2.5m/s | -21.5°C | 6.4% | 433.8hPa | 2.6V | 00:00:00 | 00:00:00 | 00:00:00 | |
| DO2SHX-10 | 2026-09-03 13:33:30 | 52.76371 | 10.28581 | 111° | 99km/h | 6815m | -2.4m/s | -21.5°C | 7.2% | 433.7hPa | 2.6V | 00:00:00 | 03:14:08 | 00:00:00 | |
| GOEST3-10 | 2026-09-03 13:33:29 | 52.76379 | 10.28543 | 111° | 104km/h | 6818m | -2.5m/s | -21.5°C | 7.3% | 433.5hPa | 2.5V | 00:00:00 | 03:14:07 | 00:00:00 | |
| DL4BBY-15 | 2026-09-03 13:33:28 | 52.76388 | 10.28504 | 112° | 99km/h | 6819m | -2.5m/s | -20.6°C | 0% | 0hPa | 2.5V | 00:00:00 | 00:00:00 | 00:00:00 | |
| DL1XH1-15 | 2026-09-03 13:33:27 | 52.76409 | 10.28424 | 113° | 106km/h | 6825m | -2.6m/s | -21.6°C | 7.4% | 433.1hPa | 2.5V | 07:27:50 | 03:14:04 | 00:00:00 | |
| DO2SHX-10 | 2026-09-03 13:33:27 | 52.76398 | 10.28464 | 113° | 106km/h | 6823m | -2.4m/s | -21.5°C | 7.4% | 433.3hPa | 2.5V | 00:00:00 | 03:14:05 | 00:00:00 | |
| DB0DAN | 2026-09-03 13:33:25 | 52.76420 | 10.28384 | 115° | 100km/h | 6828m | -2.7m/s | -21.6°C | 6.5% | 433.02hPa | 2.5V | 00:00:00 | 00:00:00 | 00:00:00 | |
| AA1-15 | 2026-09-03 13:33:25 | 52.76420 | 10.28384 | 115° | 106km/h | 6828m | -2.7m/s | -21.6°C | 7.4% | 433hPa | 2.5V | 07:28:06 | 03:14:03 | 00:00:00 | |
| DJ2DS-15 | 2026-09-03 13:33:25 | 52.76432 | 10.28344 | 116° | 106km/h | 6831m | -2.5m/s | -21.6°C | 6.5% | 432.9hPa | 2.6V | 00:00:00 | 00:00:00 | 00:00:00 | |
| DM0DOS-11 | 2026-09-03 13:33:24 | 52.76470 | 10.28228 | 120° | 104km/h | 6838m | -2.6m/s | -21.6°C | 7.2% | 432.4hPa | 2.6V | 07:27:55 | 03:13:59 | 00:00:00 | |
| DL1XH-west | 2026-09-03 13:33:24 | 52.76432 | 10.28344 | 116° | 106km/h | 6831m | -2.5m/s | -21.6°C | 7.4% | 432.9hPa | 2.5V | 07:28:06 | 03:14:02 | 00:00:00 | |
| DF8AY | 2026-09-03 13:33:21 | 52.76470 | 10.28228 | 120° | 104km/h | 6838m | -2.6m/s | -21.6°C | 7.1% | 432.4hPa | 2.6V | 07:28:06 | 03:13:59 | 00:00:00 | |
| DO2SHX-10 | 2026-09-03 13:33:21 | 52.76469 | 10.28228 | 121° | 102km/h | 6838m | -2.6m/s | -21.5°C | 7.2% | 432.4hPa | 2.6V | 07:27:00 | 03:13:59 | 00:00:00 | |
| DL1XH-15 | 2026-09-03 13:33:20 | 52.76523 | 10.28088 | 122° | 93km/h | 6849m | -2.4m/s | -21.6°C | 7.2% | 431.8hPa | 2.6V | 07:27:59 | 03:13:55 | 00:00:00 | |
| EDDB2-11 | 2026-09-03 13:33:20 | 52.76496 | 10.28155 | 122° | 99km/h | 6843m | -2.6m/s | -21.6°C | 6.3% | 432.1hPa | 2.6V | 00:00:00 | 00:00:00 | 00:00:00 | |
| GOEST3-10 | 2026-09-03 13:33:19 | 52.76496 | 10.28155 | 123° | 93km/h | 6844m | -2.6m/s | -21.5°C | 0% | 432.0hPa | 2.6V | 00:00:00 | 03:13:57 | 00:00:00 | |
| DO2SHX-10 | 2026-09-03 13:33:18 | 52.76510 | 10.28121 | 123° | 93km/h | 6846m | -2.5m/s | -21.6°C | 7.3% | 431.9hPa | 2.6V | 00:00:00 | 03:13:56 | 00:00:00 | |
| SONCRA | 2026-09-03 13:33:17 | 52.76535 | 10.28055 | 121° | 89km/h | 6851m | -2.5m/s | -21.7°C | 6.4% | 431.6hPa | 2.6V | 00:00:00 | 00:00:00 | 00:00:00 | |
| DO2SHX-10 | 2026-09-03 13:33:15 | 52.76547 | 10.28023 | 121° | 88km/h | 6854m | -2.5m/s | -21.6°C | 7.2% | 431.5hPa | 2.6V | 00:00:00 | 03:13:53 | 00:00:00 | |
| DM0DOS-11 | 2026-09-03 13:33:14 | 52.76587 | 10.27894 | 113° | 88km/h | 6863m | -2.5m/s | -21.8°C | 7.1% | 430.8hPa | 2.6V | 07:28:05 | 03:13:49 | 00:00:00 | |
| AA1-15 | 2026-09-03 13:33:14 | 52.76558 | 10.27992 | 119° | 88km/h | 6856m | -2.6m/s | -21.7°C | 6.7% | 431.3hPa | 2.5V | 07:28:06 | 03:13:52 | 00:00:00 | |
| DL1XH-west | 2026-09-03 13:33:13 | 52.76568 | 10.27960 | 117° | 88km/h | 6859m | -2.4m/s | -21.8°C | 6.6% | 431.1hPa | 2.5V | 07:28:06 | 03:13:51 | 00:00:00 | |
| DF8AY | 2026-09-03 13:33:11 | 52.76587 | 10.27894 | 113° | 89km/h | 6863m | -2.5m/s | -21.8°C | 6.6% | 430.9hPa | 2.6V | 07:28:06 | 03:13:49 | 00:00:00 | |
| DL1XH-15 | 2026-09-03 13:33:10 | 52.76620 | 10.27749 | 110° | 97km/h | 6874m | -2.7m/s | -22°C | 7.1% | 430.2hPa | 2.5V | 07:28:09 | 03:13:45 | 00:00:00 | |
| DB0DAN | 2026-09-03 13:33:10 | 52.76595 | 10.27859 | 112° | 86km/h | 6866m | -2.5m/s | -21.9°C | 6.3% | 430.7hPa | 2.6V | 00:00:00 | 00:00:00 | 00:00:00 | |
| DO2SHX-10 | 2026-09-03 13:33:09 | 52.76603 | 10.27823 | 111° | 95km/h | 6869m | -2.6m/s | -21.8°C | 7.1% | 430.5hPa | 2.5V | 00:00:00 | 03:13:47 | 00:00:00 | |
| BIOWL9-15 | 2026-09-03 13:33:08 | 52.76612 | 10.27787 | 110° | 93km/h | 6871m | -2.6m/s | -21.9°C | 6.3% | 430.4hPa | 2.5V | 00:00:00 | 00:00:00 | 00:00:00 | |
| DO2SHX-10 | 2026-09-03 13:33:06 | 52.76629 | 10.27711 | 111° | 100km/h | 6877m | -2.5m/s | -21.9°C | 7.1% | 430.1hPa | 2.5V | 00:00:00 | 03:13:44 | 00:00:00 | |
| EDDB2-12 | 2026-09-03 13:33:05 | 52.76638 | 10.27672 | 110° | 100km/h | 6879m | -2.7m/s | -22.0°C | 6.4% | 429.9hPa | 2.5V | 00:00:00 | 00:00:00 | 00:00:00 | |
| DM0DOS-11 | 2026-09-03 13:33:04 | 52.76678 | 10.27510 | 114° | 108km/h | 6890m | -2.8m/s | -22.1°C | 7.3% | 429.4hPa | 2.5V | 07:28:15 | 03:13:39 | 00:00:00 | |
| AA1-15 | 2026-09-03 13:33:04 | 52.76647 | 10.27632 | 111° | 104km/h | 6882m | -2.7m/s | -22°C | 7.1% | 429.9hPa | 2.6V | 07:28:57 | 03:13:42 | 00:00:00 | |
| DL1XH-west | 2026-09-03 13:33:03 | 52.76657 | 10.27591 | 112° | 106km/h | 6885m | -2.7m/s | -22°C | 7.2% | 429.6hPa | 2.6V | 07:28:57 | 03:13:41 | 00:00:00 | |
| DF8AY | 2026-09-03 13:33:00 | 52.76689 | 10.27469 | 116° | 108km/h | 6893m | -2.6m/s | -22.1°C | 7.2% | 429.2hPa | 2.5V | 07:28:57 | 03:13:38 | 00:00:00 | |
| DO2SHX-10 | 2026-09-03 13:33:00 | 52.76689 | 10.27469 | 116° | 108km/h | 6893m | -2.6m/s | -22.0°C | 7.2% | 429.1hPa | 2.5V | 00:00:00 | 03:13:38 | 00:00:00 | |
| GOEST3-10 | 2026-09-03 13:32:59 | 52.76702 | 10.27428 | 118° | 106km/h | 6895m | -2.5m/s | -22.0°C | 7.1% | 429.0hPa | 2.5V | 00:00:00 | 03:13:37 | 00:00:00 | |
| DB0NH | 2026-09-03 13:32:58 | 52.76715 | 10.27389 | 120° | 102km/h | 6898m | -2.6m/s | -22.0°C | 7.1% | 428.8hPa | 2.5V | 00:00:00 | 03:13:36 | 00:00:00 | |
| DL1XH1-15 | 2026-09-03 13:32:57 | 52.76742 | 10.27313 | 121° | 104km/h | 6903m | -2.7m/s | -22°C | 7.4% | 428.6hPa | 2.5V | 07:28:20 | 03:13:34 | 00:00:00 | |
| DO2SHX-10 | 2026-09-03 13:32:57 | 52.76728 | 10.27350 | 121° | 104km/h | 6900m | -2.6m/s | -22.0°C | 7.3% | 428.7hPa | 2.5V | 07:28:00 | 03:13:35 | 00:00:00 | |
| DB0DAN | 2026-09-03 13:32:55 | 52.76756 | 10.27277 | 122° | 97km/h | 6906m | -2.5m/s | -22°C | 6.6% | 428.37hPa | 2.5V | 00:00:00 | 00:00:00 | 00:00:00 | |
| DL4XJ-10 | 2026-09-03 13:32:55 | 52.76756 | 10.27277 | 123° | 99km/h | 6905m | -2.4m/s | -21.1°C | 0% | 0hPa | 2.6V | 00:00:00 | 00:00:00 | 00:00:00 | |
| DM0DOS-11 | 2026-09-03 13:32:54 | 52.76806 | 10.27142 | 119° | 89km/h | 6916m | -2.5m/s | -22.1°C | 7.5% | 427.9hPa | 2.6V | 07:28:25 | 03:13:29 | 00:00:00 | |
| AA1-15 | 2026-09-03 13:32:53 | 52.76782 | 10.27208 | 122° | 95km/h | 6911m | -2.7m/s | -22.1°C | 7.4% | 428.1hPa | 2.6V | 07:28:57 | 03:13:31 | 00:00:00 | |
| DL1XH-west | 2026-09-03 13:32:52 | 52.76795 | 10.27174 | 121° | 91km/h | 6913m | -2.6m/s | -22.1°C | 7.3% | 428hPa | 2.6V | 07:28:57 | 03:13:30 | 00:00:00 | |
| DF8AY | 2026-09-03 13:32:50 | 52.76817 | 10.27109 | 117° | 89km/h | 6918m | -2.6m/s | -22.2°C | 7% | 427.7hPa | 2.5V | 07:28:57 | 03:13:28 | 00:00:00 | |
| DL1XH-15 | 2026-09-03 13:32:49 | 52.76845 | 10.27005 | 112° | 93km/h | 6926m | -2.6m/s | -22.2°C | 7.6% | 427.2hPa | 2.6V | 07:28:29 | 03:13:25 | 00:00:00 | |
| EDDB2-11 | 2026-09-03 13:32:49 | 52.76836 | 10.27041 | 113° | 89km/h | 6924m | -2.5m/s | -22.3°C | 6.5% | 427.4hPa | 2.6V | 00:00:00 | 00:00:00 | 00:00:00 | |
| SONCRA | 2026-09-03 13:32:46 | 52.76862 | 10.26932 | 110° | 95km/h | 6931m | -2.7m/s | -22.3°C | 6.9% | 427.0hPa | 2.6V | 00:00:00 | 00:00:00 | 00:00:00 | |
| DO2SHX-10 | 2026-09-03 13:32:45 | 52.76862 | 10.26932 | 111° | 99km/h | 6931m | -2.6m/s | -22.3°C | 7.8% | 426.9hPa | 2.6V | 00:00:00 | 03:13:23 | 00:00:00 | |
| DM0DOS-11 | 2026-09-03 13:32:44 | 52.76898 | 10.26776 | 110° | 104km/h | 6943m | -2.9m/s | -22.4°C | 7.6% | 426.3hPa | 2.5V | 07:28:35 | 03:13:19 | 00:00:00 | |
| AA1-15 | 2026-09-03 13:32:43 | 52.76880 | 10.26855 | 110° | 100km/h | 6937m | -2.8m/s | -22.3°C | 7.5% | 426.7hPa | 2.5V | 07:28:57 | 03:13:21 | 00:00:00 | |
| BIOWL1-15 | 2026-09-03 13:32:42 | 52.76889 | 10.26816 | 110° | 102km/h | 6940m | -2.9m/s | -22.4°C | 7.6% | 426.5hPa | 2.5V | 07:28:57 | 03:13:20 | 00:00:00 | |
| DL1XH-west | 2026-09-03 13:32:41 | 52.76898 | 10.26776 | 111° | 104km/h | 6943m | -2.9m/s | -22.4°C | 7.6% | 426.3hPa | 2.5V | 07:28:57 | 03:13:19 | 00:00:00 | |
| DB0DAN | 2026-09-03 13:32:40 | 52.76907 | 10.26735 | 112° | 100km/h | 6945m | -2.7m/s | -22.4°C | 6.8% | 426.13hPa | 2.6V | 00:00:00 | 00:00:00 | 00:00:00 | |
| DF8AY | 2026-09-03 13:32:39 | 52.76918 | 10.26694 | 113° | 108km/h | 6948m | -2.8m/s | -22.4°C | 7.7% | 425.9hPa | 2.6V | 07:28:57 | 03:13:17 | 00:00:00 | |
| DO2SHX-10 | 2026-09-03 13:32:39 | 52.76918 | 10.26694 | 113° | 110km/h | 6948m | -2.8m/s | -22.4°C | 7.7% | 425.9hPa | 2.6V | 00:00:00 | 03:13:17 | 00:00:00 | |
| DF8AY-15 | 2026-09-03 13:32:38 | 52.76929 | 10.26653 | 115° | 100km/h | 6951m | -2.7m/s | -22.3°C | 7.6% | 425.7hPa | 2.6V | 07:28:00 | 03:13:16 | 00:00:00 | |
| DL1XH1-15 | 2026-09-03 13:32:37 | 52.76952 | 10.26570 | 116° | 110km/h | 6956m | -2.6m/s | -22.4°C | 7.6% | 425.5hPa | 2.5V | 07:28:40 | 03:13:14 | 00:00:00 | |
| BIOWL9-15 | 2026-09-03 13:32:37 | 52.76940 | 10.26611 | 115° | 110km/h | 6954m | -2.6m/s | -22.4°C | 6.8% | 425.7hPa | 2.5V | 00:00:00 | 00:00:00 | 00:00:00 | |
| DO2SHX-10 | 2026-09-03 13:32:36 | 52.76952 | 10.26570 | 117° | 110km/h | 6956m | -2.5m/s | -22.4°C | 7.6% | 425.5hPa | 2.5V | 00:00:00 | 03:13:14 | 00:00:00 | |
| DL4XJ-10 | 2026-09-03 13:32:35 | 52.76966 | 10.26529 | 119° | 99km/h | 6960m | -2.8m/s | -21.4°C | 0% | 0hPa | 2.6V | 00:00:00 | 00:00:00 | 00:00:00 | |
| DM0DOS-11 | 2026-09-03 13:32:34 | 52.77020 | 10.26376 | 122° | 102km/h | 6970m | -2.8m/s | -22.4°C | 7.5% | 424.7hPa | 2.6V | 07:28:45 | 03:13:09 | 00:00:00 | |
| BIOWL1-15 | 2026-09-03 13:32:32 | 52.77006 | 10.26413 | 122° | 106km/h | 6967m | -2.6m/s | -22.4°C | 7.5% | 424.8hPa | 2.6V | 07:28:57 | 03:13:10 | 00:00:00 | |
| DL1XH-west | 2026-09-03 13:32:30 | 52.77034 | 10.26341 | 123° | 100km/h | 6973m | -2.8m/s | -22.5°C | 7.2% | 424.6hPa | 2.6V | 07:28:57 | 03:13:08 | 00:00:00 | |
| DF8AY | 2026-09-03 13:32:28 | 52.77060 | 10.26272 | 122° | 95km/h | 6977m | -2.7m/s | -22.5°C | 7% | 424.3hPa | 2.5V | 07:28:57 | 03:13:06 | 00:00:00 | |
| DL4BBY-15 | 2026-09-03 13:32:28 | 52.77060 | 10.26272 | 122° | 100km/h | 6978m | -2.6m/s | -21.6°C | 0% | 0hPa | 2.6V | 00:00:00 | 00:00:00 | 00:00:00 | |
| DL1XH1-15 | 2026-09-03 13:32:27 | 52.77083 | 10.26206 | 118° | 91km/h | 6983m | -2.7m/s | -22.6°C | 7.2% | 423.9hPa | 2.6V | 07:28:50 | 03:13:04 | 00:00:00 | |
| DO2SHX-10 | 2026-09-03 13:32:27 | 52.77072 | 10.26239 | 121° | 91km/h | 6981m | -2.6m/s | -22.5°C | 7.3% | 424.0hPa | 2.5V | 00:00:00 | 03:13:05 | 00:00:00 | |
| DB0DAN | 2026-09-03 13:32:25 | 52.77094 | 10.26172 | 117° | 86km/h | 6986m | -2.6m/s | -22.6°C | 6.3% | 423.79hPa | 2.6V | 00:00:00 | 00:00:00 | 00:00:00 | |
| DB0NH | 2026-09-03 13:32:25 | 52.77094 | 10.26172 | 117° | 100km/h | 6986m | -2.5m/s | -22.6°C | 7.2% | 423.7hPa | 2.5V | 07:28:00 | 03:13:03 | 00:00:00 | |
| DM0DOS-11 | 2026-09-03 13:32:24 | 52.77131 | 10.26031 | 111° | 97km/h | 6996m | -2.7m/s | -22.8°C | 7.3% | 423.2hPa | 2.5V | 07:28:55 | 03:12:59 | 00:00:00 | |
| AA1-15 | 2026-09-03 13:32:22 | 52.77131 | 10.26031 | 111° | 97km/h | 6996m | -2.7m/s | -22.8°C | 6.9% | 423.2hPa | 2.5V | 07:28:57 | 03:12:59 | 00:00:00 | |
| BIOWL1-15 | 2026-09-03 13:32:21 | 52.77157 | 10.25915 | 110° | 102km/h | 7004m | -2.7m/s | -22.9°C | 7.9% | 422.7hPa | 2.6V | 07:29:48 | 03:12:56 | 00:00:00 | |
| DL1XH-west | 2026-09-03 13:32:19 | 52.77148 | 10.25955 | 110° | 100km/h | 7002m | -2.8m/s | -22.9°C | 7.5% | 422.8hPa | 2.6V | 07:28:57 | 03:12:57 | 00:00:00 | |
| DF8AY-15 | 2026-09-03 13:32:18 | 52.77157 | 10.25915 | 111° | 104km/h | 7005m | -2.7m/s | -22.8°C | 7.9% | 422.6hPa | 2.6V | 00:00:00 | 03:12:56 | 00:00:00 | |
| DL1XH1-15 | 2026-09-03 13:32:17 | 52.77176 | 10.25834 | 110° | 106km/h | 7010m | -3m/s | -22.9°C | 7.8% | 422.3hPa | 2.6V | 07:29:00 | 03:12:54 | 00:00:00 | |
| DF8AY | 2026-09-03 13:32:17 | 52.77166 | 10.25875 | 111° | 104km/h | 7007m | -2.9m/s | -22.9°C | 7.9% | 422.5hPa | 2.6V | 07:29:48 | 03:12:55 | 00:00:00 | |
| SONCRA | 2026-09-03 13:32:15 | 52.77196 | 10.25751 | 112° | 108km/h | 7016m | -2.9m/s | -23.0°C | 6.9% | 422.0hPa | 2.6V | 00:00:00 | 00:00:00 | 00:00:00 | |
| DM0DOS-11 | 2026-09-03 13:32:14 | 52.77230 | 10.25625 | 115° | 111km/h | 7024m | -2.8m/s | -22.9°C | 7.6% | 421.5hPa | 2.6V | 07:29:05 | 03:12:49 | 00:00:00 | |
| AA1-15 | 2026-09-03 13:32:11 | 52.77230 | 10.25625 | 116° | 111km/h | 7024m | -2.8m/s | -23°C | 7.8% | 421.5hPa | 2.6V | 07:29:48 | 03:12:49 | 00:00:00 | |
| DB0DAN | 2026-09-03 13:32:10 | 52.77242 | 10.25583 | 117° | 106km/h | 7027m | -2.8m/s | -22.9°C | 6.7% | 421.33hPa | 2.6V | 00:00:00 | 00:00:00 | 00:00:00 | |
| DL1XH-west | 2026-09-03 13:32:09 | 52.77255 | 10.25542 | 118° | 110km/h | 7030m | -2.9m/s | -23°C | 7.6% | 421.2hPa | 2.6V | 07:29:48 | 03:12:47 | 00:00:00 | |
| DO2SHX-10 | 2026-09-03 13:32:09 | 52.77255 | 10.25542 | 119° | 110km/h | 7030m | -2.8m/s | -22.9°C | 7.5% | 421.1hPa | 2.6V | 07:29:00 | 03:12:47 | 00:00:00 | |
| DL1XH-15 | 2026-09-03 13:32:08 | 52.77282 | 10.25463 | 120° | 108km/h | 7035m | -2.8m/s | -23°C | 7.6% | 420.9hPa | 2.5V | 07:29:09 | 03:12:45 | 00:00:00 | |
| DF8AY | 2026-09-03 13:32:07 | 52.77282 | 10.25463 | 120° | 108km/h | 7035m | -2.8m/s | -23°C | 7.6% | 420.9hPa | 2.5V | 07:29:48 | 03:12:45 | 00:00:00 | |
| DO2SHX-10 | 2026-09-03 13:32:06 | 52.77296 | 10.25424 | 122° | 104km/h | 7038m | -2.9m/s | -22.9°C | 7.6% | 420.7hPa | 2.6V | 00:00:00 | 03:12:44 | 00:00:00 | |
| GOEST3-10 | 2026-09-03 13:32:04 | 52.77323 | 10.25351 | 122° | 97km/h | 7044m | -2.8m/s | -23.0°C | 7.7% | 420.3hPa | 2.6V | 00:00:00 | 00:00:00 | 00:00:00 | |
| DO2SHX-10 | 2026-09-03 13:32:03 | 52.77336 | 10.25315 | 122° | 97km/h | 7047m | -2.7m/s | -23.0°C | 7.7% | 420.2hPa | 2.6V | 00:00:00 | 03:12:41 | 00:00:00 | |
| DL1XH-15 | 2026-09-03 13:32:02 | 52.77403 | 10.25110 | 113° | 91km/h | 7064m | -2.9m/s | -23.2°C | 7.9% | 419.2hPa | 2.6V | 07:29:19 | 03:12:35 | 00:00:00 | |
| AA1-15 | 2026-09-03 13:32:01 | 52.77361 | 10.25247 | 120° | 93km/h | 7052m | -2.8m/s | -23.1°C | 7.5% | 419.9hPa | 2.5V | 07:29:48 | 03:12:39 | 00:00:00 | |
| BIOWL1-15 | 2026-09-03 13:31:59 | 52.77384 | 10.25179 | 117° | 91km/h | 7058m | -2.7m/s | -23.1°C | 7.7% | 419.6hPa | 2.5V | 07:29:48 | 03:12:37 | 00:00:00 | |
| DL1XH-west | 2026-09-03 13:31:58 | 52.77394 | 10.25145 | 115° | 91km/h | 7061m | -2.9m/s | -23.2°C | 7.7% | 419.4hPa | 2.6V | 07:29:48 | 03:12:36 | 00:00:00 | |
| DF8AY | 2026-09-03 13:31:56 | 52.77412 | 10.25075 | 112° | 93km/h | 7066m | -2.8m/s | -23.2°C | 7.9% | 419hPa | 2.6V | 07:29:48 | 03:12:34 | 00:00:00 | |
| DB0NH | 2026-09-03 13:31:55 | 52.77421 | 10.25039 | 112° | 100km/h | 7070m | -2.8m/s | -23.2°C | 7.9% | 418.9hPa | 2.6V | 00:00:00 | 03:12:33 | 00:00:00 | |
| DM0DOS-11 | 2026-09-03 13:31:54 | 52.77455 | 10.24886 | 109° | 102km/h | 7081m | -3m/s | -23.4°C | 7.9% | 418.2hPa | 2.6V | 07:29:25 | 03:12:29 | 00:00:00 | |
| AA1-15 | 2026-09-03 13:31:50 | 52.77464 | 10.24845 | 110° | 106km/h | 7084m | -2.9m/s | -23.5°C | 8.2% | 418.1hPa | 2.6V | 07:29:48 | 03:12:28 | 00:00:00 | |
| GOEST3-10 | 2026-09-03 13:31:49 | 52.77473 | 10.24803 | 111° | 111km/h | 7087m | -2.8m/s | -23.4°C | 7.9% | 417.9hPa | 2.5V | 00:00:00 | 03:12:27 | 00:00:00 | |
| DL1XH-15 | 2026-09-03 13:31:48 | 52.77494 | 10.24718 | 113° | 111km/h | 7092m | -3m/s | -23.4°C | 7.8% | 417.7hPa | 2.5V | 07:29:29 | 03:12:25 | 00:00:00 | |
| BIOWL1-15 | 2026-09-03 13:31:48 | 52.77483 | 10.24761 | 112° | 110km/h | 7090m | -2.9m/s | -23.5°C | 8.2% | 417.8hPa | 2.6V | 07:29:48 | 03:12:26 | 00:00:00 | |
| DO2SHX-10 | 2026-09-03 13:31:48 | 52.77483 | 10.24761 | 113° | 111km/h | 7090m | -2.9m/s | -23.4°C | 7.9% | 417.7hPa | 2.5V | 00:00:00 | 03:12:26 | 00:00:00 | |
| DL1XH1-15 | 2026-09-03 13:31:47 | 52.77506 | 10.24676 | 115° | 111km/h | 7095m | -2.8m/s | -23.4°C | 7.7% | 417.4hPa | 2.5V | 07:29:30 | 03:12:24 | 00:00:00 | |
| DF8AY | 2026-09-03 13:31:45 | 52.77518 | 10.24634 | 117° | 111km/h | 7098m | -2.7m/s | -23.4°C | 7.9% | 417.3hPa | 2.5V | 07:29:48 | 03:12:23 | 00:00:00 | |
| DO2SHX-10 | 2026-09-03 13:31:45 | 52.77518 | 10.24634 | 118° | 110km/h | 7098m | -2.6m/s | -23.4°C | 7.7% | 417.2hPa | 2.6V | 07:29:00 | 03:12:23 | 00:00:00 | |
| GOEST3-10 | 2026-09-03 13:31:44 | 52.77531 | 10.24592 | 119° | 106km/h | 7101m | -2.7m/s | -23.4°C | 7.8% | 417.1hPa | 2.6V | 00:00:00 | 00:00:00 | 00:00:00 | |
| DF7ER-10 | 2026-09-03 13:31:43 | 52.77531 | 10.24592 | 119° | 111km/h | 7101m | -2.8m/s | -23.5°C | 6.9% | 417.1hPa | 2.6V | 07:29:00 | 00:00:00 | 00:00:00 | |
| DL1XH-15 | 2026-09-03 13:31:42 | 52.77621 | 10.24336 | 118° | 93km/h | 7120m | -2.9m/s | -23.7°C | 8% | 415.9hPa | 2.6V | 07:29:39 | 03:12:15 | 00:00:00 | |
| DJ2DS-15 | 2026-09-03 13:31:42 | 52.77558 | 10.24514 | 121° | 99km/h | 7107m | -2.8m/s | -23.5°C | 7.8% | 416.7hPa | 2.6V | 00:00:00 | 03:12:20 | 00:00:00 | |
| DB0DAN | 2026-09-03 13:31:40 | 52.77585 | 10.24441 | 121° | 95km/h | 7112m | -2.9m/s | -23.6°C | 7% | 416.43hPa | 2.5V | 00:00:00 | 00:00:00 | 00:00:00 | |
| AA1-15 | 2026-09-03 13:31:40 | 52.77585 | 10.24441 | 121° | 100km/h | 7112m | -2.9m/s | -23.6°C | 7.8% | 416.4hPa | 2.5V | 07:29:48 | 03:12:18 | 00:00:00 | |
| BIOWL1-15 | 2026-09-03 13:31:38 | 52.77610 | 10.24370 | 120° | 95km/h | 7118m | -2.8m/s | -23.6°C | 7.8% | 416.1hPa | 2.6V | 07:29:48 | 03:12:16 | 00:00:00 | |
| DF8AY-15 | 2026-09-03 13:31:38 | 52.77610 | 10.24370 | 120° | 102km/h | 7118m | -2.7m/s | -23.6°C | 8.0% | 416.1hPa | 2.6V | 00:00:00 | 03:12:16 | 00:00:00 | |
| DL1XH1-15 | 2026-09-03 13:31:37 | 52.77633 | 10.24302 | 116° | 91km/h | 7123m | -2.9m/s | -23.7°C | 8% | 415.8hPa | 2.5V | 07:29:40 | 03:12:14 | 00:00:00 | |
| DL1XH-west | 2026-09-03 13:31:37 | 52.77622 | 10.24336 | 119° | 93km/h | 7121m | -2.9m/s | -23.7°C | 7.8% | 416hPa | 2.6V | 07:29:48 | 03:12:15 | 00:00:00 | |
| DF8AY | 2026-09-03 13:31:34 | 52.77652 | 10.24233 | 114° | 91km/h | 7129m | -3m/s | -23.7°C | 7.9% | 415.5hPa | 2.6V | 07:29:48 | 03:12:12 | 00:00:00 | |
| GOEST3-10 | 2026-09-03 13:31:34 | 52.77652 | 10.24233 | 114° | 93km/h | 7130m | -2.9m/s | -23.7°C | 8.0% | 415.4hPa | 2.6V | 00:00:00 | 00:00:00 | 00:00:00 | |
| DL3AQ-11 | 2026-09-03 13:31:33 | 52.77670 | 10.24162 | 111° | 93km/h | 7135m | -2.9m/s | -23.8°C | 7.1% | 415.1hPa | 2.6V | 00:00:00 | 00:00:00 | 00:00:00 | |
| DL1XH-15 | 2026-09-03 13:31:32 | 52.77712 | 10.23970 | 109° | 102km/h | 7150m | -3m/s | -24°C | 7.9% | 414.3hPa | 2.6V | 07:29:49 | 03:12:05 | 00:00:00 | |
| AA1-15 | 2026-09-03 13:31:30 | 52.77695 | 10.24049 | 109° | 99km/h | 7144m | -3m/s | -23.9°C | 8% | 414.7hPa | 2.5V | 07:29:48 | 03:12:07 | 00:00:00 | |
| BIOWL1-15 | 2026-09-03 13:31:27 | 52.77730 | 10.23887 | 110° | 108km/h | 7156m | -2.9m/s | -24°C | 8% | 414hPa | 2.6V | 07:30:39 | 03:12:03 | 00:00:00 | |
| DL1XH1-15 | 2026-09-03 13:31:27 | 52.77721 | 10.23929 | 109° | 106km/h | 7153m | -2.9m/s | -24°C | 7.9% | 414.1hPa | 2.6V | 07:29:50 | 03:12:04 | 00:00:00 | |
| DL1XH-west | 2026-09-03 13:31:27 | 52.77712 | 10.23970 | 109° | 102km/h | 7150m | -3m/s | -24°C | 8% | 414.3hPa | 2.6V | 07:30:39 | 03:12:05 | 00:00:00 | |
| DL8OAI-8 | 2026-09-03 13:31:26 | 52.77712 | 10.23970 | 110° | 102km/h | 7150m | -3.0m/s | -24.0°C | 7.0% | 414.3hPa | 2.6V | 07:30:00 | 00:00:00 | 00:00:00 | |
| DB0DAN | 2026-09-03 13:31:25 | 52.77730 | 10.23887 | 110° | 104km/h | 7156m | -2.9m/s | -24°C | 6.9% | 414hPa | 2.6V | 00:00:00 | 00:00:00 | 00:00:00 | |
| DF8AY | 2026-09-03 13:31:23 | 52.77751 | 10.23801 | 113° | 111km/h | 7162m | -2.9m/s | -24°C | 7.9% | 413.6hPa | 2.5V | 07:30:39 | 03:12:01 | 00:00:00 | |
| DO2SHX-10 | 2026-09-03 13:31:23 | 52.77751 | 10.23801 | 113° | 113km/h | 7162m | -2.9m/s | -24.0°C | 7.8% | 413.6hPa | 2.5V | 00:00:00 | 03:12:01 | 00:00:00 | |
| DJ2DS-15 | 2026-09-03 13:31:22 | 52.77762 | 10.23758 | 115° | 102km/h | 7165m | -2.9m/s | -24.0°C | 7.7% | 413.4hPa | 2.5V | 00:00:00 | 03:12:00 | 00:00:00 | |
| DF7ER-10 | 2026-09-03 13:31:21 | 52.77762 | 10.23758 | 115° | 113km/h | 7165m | -3.0m/s | -24.0°C | 6.8% | 413.5hPa | 2.5V | 00:00:00 | 00:00:00 | 00:00:00 | |
| DO2SHX-10 | 2026-09-03 13:31:20 | 52.77787 | 10.23674 | 118° | 111km/h | 7170m | -2.8m/s | -24.0°C | 7.7% | 413.1hPa | 2.5V | 07:29:00 | 03:11:58 | 00:00:00 | |
| DL1XH-15 | 2026-09-03 13:31:19 | 52.77827 | 10.23554 | 120° | 106km/h | 7179m | -3.1m/s | -24.1°C | 7.7% | 412.7hPa | 2.5V | 07:29:59 | 03:11:55 | 00:00:00 | |
| AA1-15 | 2026-09-03 13:31:18 | 52.77814 | 10.23593 | 120° | 110km/h | 7176m | -3.2m/s | -24.1°C | 7.7% | 412.8hPa | 2.6V | 07:30:39 | 03:11:56 | 00:00:00 | |
| DF8AY-15 | 2026-09-03 13:31:18 | 52.77814 | 10.23593 | 120° | 102km/h | 7176m | -3.1m/s | -24.0°C | 7.7% | 412.7hPa | 2.5V | 00:00:00 | 03:11:56 | 00:00:00 | |
| DL1XH1-15 | 2026-09-03 13:31:17 | 52.77841 | 10.23516 | 121° | 104km/h | 7182m | -3m/s | -24.1°C | 7.6% | 412.4hPa | 2.5V | 07:30:00 | 03:11:54 | 00:00:00 | |
| BIOWL1-15 | 2026-09-03 13:31:16 | 52.77854 | 10.23480 | 121° | 100km/h | 7185m | -3m/s | -24.1°C | 7.5% | 412.3hPa | 2.5V | 07:30:39 | 03:11:53 | 00:00:00 | |
| DL1XH-west | 2026-09-03 13:31:16 | 52.77841 | 10.23516 | 121° | 104km/h | 7182m | -3m/s | -24.1°C | 7.5% | 412.4hPa | 2.5V | 07:30:39 | 03:11:54 | 00:00:00 | |
| DF8AY | 2026-09-03 13:31:13 | 52.77879 | 10.23411 | 120° | 95km/h | 7191m | -2.9m/s | -24.1°C | 7.5% | 412hPa | 2.6V | 07:30:39 | 03:11:51 | 00:00:00 | |
| DL1XH-15 | 2026-09-03 13:31:12 | 52.77937 | 10.23199 | 109° | 99km/h | 7209m | -2.9m/s | -24.3°C | 7.6% | 411hPa | 2.6V | 07:30:09 | 03:11:45 | 00:00:00 | |
| DF7ER-10 | 2026-09-03 13:31:11 | 52.77891 | 10.23377 | 119° | 91km/h | 7194m | -2.9m/s | -24.2°C | 6.8% | 411.8hPa | 2.5V | 00:00:00 | 00:00:00 | 00:00:00 | |
| DB0DAN | 2026-09-03 13:31:10 | 52.77911 | 10.23309 | 114° | 86km/h | 7200m | -3.1m/s | -24.2°C | 6.7% | 411.51hPa | 2.5V | 00:00:00 | 00:00:00 | 00:00:00 | |
| AA1-15 | 2026-09-03 13:31:08 | 52.77928 | 10.23237 | 111° | 95km/h | 7206m | -2.8m/s | -24.3°C | 7.4% | 411.2hPa | 2.5V | 07:30:39 | 03:11:46 | 00:00:00 | |
| DO2SHX-10 | 2026-09-03 13:31:08 | 52.77928 | 10.23237 | 111° | 99km/h | 7206m | -2.8m/s | -24.2°C | 7.6% | 411.1hPa | 2.6V | 00:00:00 | 03:11:46 | 00:00:00 | |
| DL1XH1-15 | 2026-09-03 13:31:07 | 52.77945 | 10.23160 | 109° | 102km/h | 7212m | -2.9m/s | -24.4°C | 7.6% | 410.8hPa | 2.6V | 07:30:10 | 03:11:44 | 00:00:00 | |
| DL1XH-west | 2026-09-03 13:31:05 | 52.77954 | 10.23120 | 110° | 104km/h | 7215m | -3m/s | -24.4°C | 7.5% | 410.6hPa | 2.6V | 07:30:39 | 03:11:43 | 00:00:00 | |
| DF8AY | 2026-09-03 13:31:02 | 52.77984 | 10.22993 | 113° | 111km/h | 7223m | -3.1m/s | -24.4°C | 7.5% | 410.2hPa | 2.6V | 07:30:39 | 03:11:40 | 00:00:00 | |
| DJ2DS-15 | 2026-09-03 13:31:02 | 52.77984 | 10.22993 | 113° | 102km/h | 7224m | -3.0m/s | -24.4°C | 7.4% | 410.1hPa | 2.6V | 07:30:00 | 03:11:40 | 00:00:00 | |
| DL1XH1-15 | 2026-09-03 13:31:01 | 52.78060 | 10.22745 | 120° | 110km/h | 7242m | -3.3m/s | -24.5°C | 7.3% | 409hPa | 2.6V | 07:30:20 | 03:11:34 | 00:00:00 | |
| AA1-15 | 2026-09-03 13:30:57 | 52.78046 | 10.22784 | 120° | 111km/h | 7239m | -3.1m/s | -24.5°C | 7.3% | 409.2hPa | 2.5V | 07:30:39 | 03:11:35 | 00:00:00 | |
| BIOWL1-15 | 2026-09-03 13:30:56 | 52.78102 | 10.22633 | 122° | 100km/h | 7251m | -3m/s | -24.6°C | 7.1% | 408.6hPa | 2.6V | 07:30:39 | 03:11:31 | 00:00:00 | |
| DM0DOS-11 | 2026-09-03 13:30:56 | 52.78128 | 10.22564 | 120° | 95km/h | 7257m | -2.9m/s | -24.6°C | 7.3% | 408.2hPa | 2.5V | 07:30:25 | 03:11:29 | 00:00:00 | |
| DL1XH-west | 2026-09-03 13:30:55 | 52.78074 | 10.22706 | 122° | 106km/h | 7245m | -3.2m/s | -24.6°C | 7.1% | 408.9hPa | 2.6V | 07:30:39 | 03:11:33 | 00:00:00 | |
| DB0DAN | 2026-09-03 13:30:55 | 52.78074 | 10.22706 | 122° | 102km/h | 7245m | -3.2m/s | -24.6°C | 6.3% | 408.89hPa | 2.6V | 00:00:00 | 00:00:00 | 00:00:00 | |
| DF8AY | 2026-09-03 13:30:52 | 52.78115 | 10.22598 | 122° | 97km/h | 7255m | -3.1m/s | -24.6°C | 7% | 408.4hPa | 2.5V | 07:30:39 | 03:11:30 | 00:00:00 | |
| DO2SHX-10 | 2026-09-03 13:30:50 | 52.78139 | 10.22530 | 119° | 93km/h | 7260m | -2.8m/s | -24.6°C | 7.4% | 408.0hPa | 2.6V | 00:00:00 | 03:11:28 | 00:00:00 | |
| DL1XH-15 | 2026-09-03 13:30:49 | 52.78169 | 10.22425 | 111° | 95km/h | 7269m | -2.9m/s | -24.8°C | 7.4% | 407.6hPa | 2.6V | 07:30:29 | 03:11:25 | 00:00:00 | |
| AA1-15 | 2026-09-03 13:30:47 | 52.78169 | 10.22425 | 112° | 95km/h | 7269m | -2.9m/s | -24.8°C | 7.2% | 407.6hPa | 2.6V | 07:30:39 | 03:11:25 | 00:00:00 | |
| DL1XH-west | 2026-09-03 13:30:45 | 52.78187 | 10.22349 | 110° | 100km/h | 7275m | -3m/s | -24.9°C | 7.3% | 407.2hPa | 2.5V | 07:30:39 | 03:11:23 | 00:00:00 | |
| EDDB2-11 | 2026-09-03 13:30:45 | 52.78196 | 10.22310 | 110° | 102km/h | 7278m | -3.0m/s | -24.9°C | 6.5% | 407.1hPa | 2.6V | 00:00:00 | 00:00:00 | 00:00:00 | |
| BIOWL1-15 | 2026-09-03 13:30:43 | 52.78205 | 10.22269 | 111° | 106km/h | 7281m | -3.1m/s | -24.9°C | 7.3% | 406.9hPa | 2.6V | 07:30:39 | 03:11:21 | 00:00:00 | |
| DF8AY | 2026-09-03 13:30:42 | 52.78225 | 10.22186 | 112° | 110km/h | 7287m | -3m/s | -25°C | 7.2% | 406.6hPa | 2.5V | 07:30:39 | 03:11:19 | 00:00:00 | |
| DM0DOS-11 | 2026-09-03 13:30:41 | 52.78225 | 10.22186 | 112° | 110km/h | 7287m | -3m/s | -24.9°C | 7.3% | 406.6hPa | 2.5V | 07:30:35 | 03:11:19 | 00:00:00 | |
| DB0DAN | 2026-09-03 13:30:40 | 52.78235 | 10.22143 | 113° | 106km/h | 7290m | -3m/s | -25°C | 6.3% | 406.38hPa | 2.5V | 00:00:00 | 00:00:00 | 00:00:00 | |
| DL1XH-15 | 2026-09-03 13:30:39 | 52.78270 | 10.22016 | 115° | 113km/h | 7299m | -3m/s | -25°C | 7.2% | 405.9hPa | 2.6V | 07:30:39 | 03:11:15 | 00:00:00 | |
| AA1-15 | 2026-09-03 13:30:37 | 52.78270 | 10.22016 | 116° | 113km/h | 7299m | -3m/s | -25°C | 7.2% | 405.9hPa | 2.6V | 07:30:39 | 03:11:15 | 00:00:00 | |
| DL1XH-west | 2026-09-03 13:30:34 | 52.78310 | 10.21891 | 120° | 111km/h | 7308m | -3m/s | -25.1°C | 7.1% | 405.4hPa | 2.5V | 07:31:30 | 03:11:12 | 00:00:00 | |
| BIOWL1-15 | 2026-09-03 13:30:33 | 52.78324 | 10.21851 | 121° | 111km/h | 7312m | -3m/s | -25.1°C | 7.1% | 405.2hPa | 2.5V | 07:31:30 | 03:11:11 | 00:00:00 | |
| BIOWL9-15 | 2026-09-03 13:30:33 | 52.78339 | 10.21811 | 121° | 108km/h | 7315m | -3.2m/s | -25.1°C | 6.2% | 405.1hPa | 2.5V | 00:00:00 | 00:00:00 | 00:00:00 | |
| DO2SHX-10 | 2026-09-03 13:30:32 | 52.78339 | 10.21811 | 122° | 108km/h | 7315m | -3.1m/s | -25.1°C | 7.1% | 405.0hPa | 2.5V | 07:30:00 | 03:11:10 | 00:00:00 | |
| SMARD9-15 | 2026-09-03 13:30:31 | 52.78353 | 10.21773 | 122° | 106km/h | 7318m | -3.1m/s | -25.2°C | 6.2% | 404.8hPa | 2.5V | 00:00:00 | 00:00:00 | 00:00:00 | |
| EDDB2-12 | 2026-09-03 13:30:30 | 52.78382 | 10.21700 | 123° | 100km/h | 7324m | -2.9m/s | -25.2°C | 6.2% | 404.5hPa | 2.5V | 00:00:00 | 00:00:00 | 00:00:00 | |
| DF8AY | 2026-09-03 13:30:30 | 52.78368 | 10.21736 | 123° | 104km/h | 7321m | -3m/s | -25.2°C | 7% | 404.7hPa | 2.6V | 07:31:30 | 03:11:08 | 00:00:00 | |
| DL1XH-15 | 2026-09-03 13:30:29 | 52.78409 | 10.21630 | 121° | 97km/h | 7330m | -3m/s | -25.2°C | 7.2% | 404.2hPa | 2.5V | 07:30:49 | 03:11:05 | 00:00:00 | |
| GOEST3-10 | 2026-09-03 13:30:29 | 52.78382 | 10.21699 | 124° | 95km/h | 7324m | -2.9m/s | -25.1°C | 7.1% | 404.5hPa | 2.6V | 00:00:00 | 03:11:07 | 00:00:00 | |
| DL4BBY-15 | 2026-09-03 13:30:28 | 52.78396 | 10.21664 | 123° | 104km/h | 7327m | -3.1m/s | -24.2°C | 0% | 0hPa | 2.6V | 00:00:00 | 00:00:00 | 00:00:00 | |
| DL1XH1-15 | 2026-09-03 13:30:27 | 52.78421 | 10.21596 | 119° | 93km/h | 7333m | -3m/s | -25.3°C | 7.2% | 404hPa | 2.6V | 07:30:50 | 03:11:04 | 00:00:00 | |
| AA1-15 | 2026-09-03 13:30:27 | 52.78409 | 10.21630 | 122° | 97km/h | 7330m | -3m/s | -25.2°C | 7% | 404.2hPa | 2.5V | 07:31:30 | 03:11:05 | 00:00:00 | |
| DB0DAN | 2026-09-03 13:30:25 | 52.78432 | 10.21562 | 118° | 88km/h | 7336m | -3m/s | -25.3°C | 6.3% | 403.91hPa | 2.6V | 00:00:00 | 00:00:00 | 00:00:00 | |
| DL1XH-west | 2026-09-03 13:30:24 | 52.78443 | 10.21527 | 116° | 93km/h | 7339m | -3m/s | -25.4°C | 7% | 403.7hPa | 2.6V | 07:31:30 | 03:11:02 | 00:00:00 | |
| BIOWL1-15 | 2026-09-03 13:30:23 | 52.78453 | 10.21492 | 114° | 95km/h | 7342m | -2.9m/s | -25.4°C | 7.1% | 403.6hPa | 2.5V | 07:31:30 | 03:11:01 | 00:00:00 | |
| GOEST3-10 | 2026-09-03 13:30:23 | 52.78453 | 10.21492 | 114° | 100km/h | 7342m | -2.8m/s | -25.4°C | 7.3% | 403.5hPa | 2.5V | 00:00:00 | 00:00:00 | 00:00:00 | |
| DM0DOS-11 | 2026-09-03 13:30:22 | 52.78472 | 10.21417 | 112° | 100km/h | 7347m | -2.8m/s | -25.6°C | 7.3% | 403.2hPa | 2.5V | 07:30:55 | 03:10:59 | 00:00:00 | |
| DL1XH1-15 | 2026-09-03 13:30:22 | 52.78524 | 10.21210 | 113° | 111km/h | 7362m | -3.2m/s | -25.7°C | 7.3% | 402.4hPa | 2.5V | 07:31:00 | 03:10:54 | 00:00:00 | |
| DF8AY | 2026-09-03 13:30:20 | 52.78482 | 10.21377 | 112° | 104km/h | 7350m | -3m/s | -25.6°C | 7.1% | 403hPa | 2.6V | 07:31:30 | 03:10:58 | 00:00:00 | |
| AA1-15 | 2026-09-03 13:30:16 | 52.78535 | 10.21167 | 115° | 113km/h | 7366m | -3.1m/s | -25.7°C | 7.3% | 402.2hPa | 2.5V | 07:31:30 | 03:10:53 | 00:00:00 | |
| DL1LOL-11 | 2026-09-03 13:30:15 | 52.78523 | 10.21210 | 115° | 111km/h | 7363m | -3.2m/s | -25.7°C | 6.4% | 402.4hPa | 2.6V | 00:00:00 | 00:00:00 | 00:00:00 | |
| DM0DOS-11 | 2026-09-03 13:30:14 | 52.78587 | 10.20996 | 118° | 115km/h | 7378m | -3.1m/s | -25.7°C | 7.2% | 401.5hPa | 2.6V | 07:31:05 | 03:10:49 | 00:00:00 | |
| DL1XH-west | 2026-09-03 13:30:13 | 52.78560 | 10.21081 | 117° | 115km/h | 7372m | -3m/s | -25.7°C | 7.3% | 401.8hPa | 2.6V | 07:31:30 | 03:10:51 | 00:00:00 | |
| BIOWL1-15 | 2026-09-03 13:30:12 | 52.78574 | 10.21038 | 118° | 115km/h | 7375m | -3.4m/s | -25.7°C | 7.3% | 401.7hPa | 2.6V | 07:31:30 | 03:10:50 | 00:00:00 | |
| DL1XH1-15 | 2026-09-03 13:30:11 | 52.78661 | 10.20793 | 123° | 108km/h | 7394m | -3m/s | -25.8°C | 7.1% | 400.6hPa | 2.6V | 07:31:10 | 03:10:44 | 00:00:00 | |
| DB0DAN | 2026-09-03 13:30:10 | 52.78602 | 10.20953 | 120° | 110km/h | 7381m | -3m/s | -25.8°C | 6.2% | 401.26hPa | 2.5V | 00:00:00 | 00:00:00 | 00:00:00 | |
| DF8AY | 2026-09-03 13:30:09 | 52.78616 | 10.20912 | 121° | 115km/h | 7385m | -3.3m/s | -25.8°C | 7.2% | 401.1hPa | 2.5V | 07:31:30 | 03:10:47 | 00:00:00 | |
| BIOWL1-15 | 2026-09-03 13:30:05 | 52.78729 | 10.20617 | 119° | 95km/h | 7409m | -3m/s | -25.9°C | 6.8% | 399.8hPa | 2.6V | 07:31:30 | 03:10:39 | 00:00:00 | |
| AA1-15 | 2026-09-03 13:30:04 | 52.78690 | 10.20720 | 124° | 100km/h | 7400m | -3.1m/s | -25.9°C | 6.9% | 400.2hPa | 2.5V | 07:31:30 | 03:10:42 | 00:00:00 | |
| DM0DOS-11 | 2026-09-03 13:30:04 | 52.78729 | 10.20617 | 119° | 95km/h | 7409m | -3m/s | -25.9°C | 7.1% | 399.8hPa | 2.6V | 07:31:15 | 03:10:39 | 00:00:00 | |
| DL1XH-west | 2026-09-03 13:30:02 | 52.78717 | 10.20651 | 121° | 97km/h | 7406m | -3m/s | -25.9°C | 6.8% | 400hPa | 2.6V | 07:31:30 | 03:10:40 | 00:00:00 | |
| DL1XH1-15 | 2026-09-03 13:30:01 | 52.78782 | 10.20434 | 112° | 102km/h | 7424m | -2.9m/s | -26.2°C | 7.2% | 398.9hPa | 2.6V | 07:31:20 | 03:10:34 | 00:00:00 | |
| DF8AY | 2026-09-03 13:29:58 | 52.78762 | 10.20510 | 115° | 97km/h | 7418m | -3m/s | -26.1°C | 6.8% | 399.2hPa | 2.5V | 07:31:30 | 03:10:36 | 00:00:00 | |
| DF8AY-15 | 2026-09-03 13:29:58 | 52.78762 | 10.20510 | 115° | 110km/h | 7418m | -3.0m/s | -26.0°C | 7.1% | 399.2hPa | 2.6V | 07:31:00 | 03:10:36 | 00:00:00 | |
| DM0DOS-11 | 2026-09-03 13:29:56 | 52.78836 | 10.20226 | 114° | 115km/h | 7440m | -3.1m/s | -26.4°C | 7.1% | 398hPa | 2.6V | 07:31:25 | 03:10:29 | 00:00:00 | |
| DB0DAN | 2026-09-03 13:29:55 | 52.78792 | 10.20394 | 112° | 99km/h | 7427m | -3.1m/s | -26.3°C | 6.2% | 398.76hPa | 2.6V | 00:00:00 | 00:00:00 | 00:00:00 | |
| AA1-15 | 2026-09-03 13:29:53 | 52.78813 | 10.20312 | 113° | 110km/h | 7433m | -3m/s | -26.3°C | 6.9% | 398.4hPa | 2.5V | 07:31:30 | 03:10:31 | 00:00:00 | |
| DL1XH-west | 2026-09-03 13:29:52 | 52.78824 | 10.20269 | 114° | 111km/h | 7437m | -3.1m/s | -26.3°C | 7% | 398.1hPa | 2.5V | 07:31:30 | 03:10:30 | 00:00:00 | |
| BIOWL1-15 | 2026-09-03 13:29:51 | 52.78836 | 10.20226 | 114° | 115km/h | 7440m | -3.1m/s | -26.4°C | 7.1% | 398hPa | 2.6V | 07:31:30 | 03:10:29 | 00:00:00 | |
| DF8AY | 2026-09-03 13:29:48 | 52.78874 | 10.20095 | 117° | 119km/h | 7449m | -3.4m/s | -26.4°C | 7.1% | 397.5hPa | 2.6V | 07:31:30 | 03:10:26 | 00:00:00 | |
| DL3AQ-11 | 2026-09-03 13:29:45 | 52.78917 | 10.19965 | 120° | 117km/h | 7459m | -3.2m/s | -26.5°C | 6.1% | 396.9hPa | 2.5V | 00:00:00 | 00:00:00 | 00:00:00 | |
| DM0DOS-11 | 2026-09-03 13:29:44 | 52.78979 | 10.19805 | 124° | 108km/h | 7471m | -2.9m/s | -26.4°C | 7.3% | 396.3hPa | 2.5V | 07:31:35 | 03:10:19 | 00:00:00 | |
| AA1-15 | 2026-09-03 13:29:42 | 52.78964 | 10.19843 | 124° | 111km/h | 7469m | -2.9m/s | -26.4°C | 7.1% | 396.4hPa | 2.6V | 07:32:21 | 03:10:20 | 00:00:00 | |
| DL1XH-west | 2026-09-03 13:29:41 | 52.78979 | 10.19805 | 124° | 108km/h | 7471m | -2.9m/s | -26.4°C | 7.2% | 396.3hPa | 2.5V | 07:32:21 | 03:10:19 | 00:00:00 | |
| BIOWL1-15 | 2026-09-03 13:29:40 | 52.79009 | 10.19733 | 123° | 100km/h | 7477m | -3m/s | -26.5°C | 7.3% | 396hPa | 2.6V | 07:32:21 | 03:10:17 | 00:00:00 | |
| DB0DAN | 2026-09-03 13:29:40 | 52.78994 | 10.19769 | 124° | 99km/h | 7474m | -3m/s | -26.5°C | 6.4% | 396.11hPa | 2.5V | 00:00:00 | 00:00:00 | 00:00:00 | |
| DF8AY | 2026-09-03 13:29:37 | 52.79035 | 10.19663 | 120° | 97km/h | 7483m | -3.1m/s | -26.6°C | 7.4% | 395.6hPa | 2.6V | 07:32:21 | 03:10:15 | 00:00:00 | |
| DO2SHX-10 | 2026-09-03 13:29:37 | 52.79035 | 10.19663 | 120° | 97km/h | 7483m | -3.0m/s | -26.5°C | 7.6% | 395.6hPa | 2.6V | 00:00:00 | 03:10:15 | 00:00:00 | |
| DM0DOS-11 | 2026-09-03 13:29:36 | 52.79100 | 10.19436 | 112° | 108km/h | 7502m | -3.2m/s | -26.9°C | 7.7% | 394.6hPa | 2.6V | 07:31:45 | 03:10:09 | 00:00:00 | |
| GOEST3-10 | 2026-09-03 13:29:33 | 52.79079 | 10.19516 | 114° | 108km/h | 7496m | -3.1m/s | -26.7°C | 7.7% | 395.0hPa | 2.6V | 00:00:00 | 00:00:00 | 00:00:00 | |
| DO2LYB-13 | 2026-09-03 13:29:32 | 52.79079 | 10.19516 | 115° | 102km/h | 7496m | -3.1m/s | -26.8°C | 6.7% | 395.0hPa | 2.6V | 00:00:00 | 00:00:00 | 00:00:00 | |
| DL1XH1-15 | 2026-09-03 13:29:31 | 52.79160 | 10.19220 | 116° | 119km/h | 7518m | -3.3m/s | -27°C | 7.8% | 393.8hPa | 2.6V | 07:31:50 | 03:10:04 | 00:00:00 | |
| AA1-15 | 2026-09-03 13:29:31 | 52.79100 | 10.19436 | 113° | 108km/h | 7502m | -3.2m/s | -26.9°C | 7.7% | 394.6hPa | 2.6V | 07:32:21 | 03:10:09 | 00:00:00 | |
| DL1XH-west | 2026-09-03 13:29:30 | 52.79111 | 10.19394 | 113° | 111km/h | 7505m | -3.2m/s | -26.9°C | 7.8% | 394.4hPa | 2.5V | 07:32:21 | 03:10:08 | 00:00:00 | |
| DF8AY | 2026-09-03 13:29:27 | 52.79146 | 10.19264 | 116° | 117km/h | 7515m | -3m/s | -27°C | 7.9% | 394hPa | 2.6V | 07:32:21 | 03:10:05 | 00:00:00 | |
| DO9LL-15 | 2026-09-03 13:29:27 | 52.79146 | 10.19264 | 116° | 113km/h | 7515m | -2.9m/s | -26.9°C | 7.8% | 393.9hPa | 2.5V | 07:31:00 | 03:10:05 | 00:00:00 | |
| DB0DAN | 2026-09-03 13:29:25 | 52.79173 | 10.19176 | 117° | 113km/h | 7521m | -3.2m/s | -27°C | 6.8% | 393.57hPa | 2.5V | 00:00:00 | 00:00:00 | 00:00:00 | |
| DO2SHX-10 | 2026-09-03 13:29:25 | 52.79173 | 10.19176 | 118° | 119km/h | 7521m | -3.2m/s | -26.9°C | 7.8% | 393.5hPa | 2.5V | 00:00:00 | 03:10:03 | 00:00:00 | |
| DM0DOS-11 | 2026-09-03 13:29:24 | 52.79232 | 10.19003 | 121° | 119km/h | 7534m | -3.3m/s | -27°C | 8.1% | 392.9hPa | 2.6V | 07:31:55 | 03:09:59 | 00:00:00 | |
| DL1XH-west | 2026-09-03 13:29:20 | 52.79248 | 10.18960 | 122° | 119km/h | 7537m | -3.3m/s | -27°C | 8.6% | 392.7hPa | 2.6V | 07:32:21 | 03:09:58 | 00:00:00 | |
| BIOWL1-15 | 2026-09-03 13:29:19 | 52.79312 | 10.18798 | 124° | 113km/h | 7550m | -3.4m/s | -27.1°C | 8.8% | 392hPa | 2.6V | 07:32:21 | 03:09:54 | 00:00:00 | |
| DF8AY | 2026-09-03 13:29:17 | 52.79296 | 10.18838 | 124° | 115km/h | 7547m | -3.5m/s | -27.1°C | 8.8% | 392.2hPa | 2.6V | 07:32:21 | 03:09:55 | 00:00:00 | |
| DL1XH-15 | 2026-09-03 13:29:17 | 52.79312 | 10.18798 | 123° | 113km/h | 7550m | -3.4m/s | -27.1°C | 8.4% | 392hPa | 2.6V | 07:32:00 | 03:09:54 | 00:00:00 | |
| DO2SHX-10 | 2026-09-03 13:29:16 | 52.79312 | 10.18798 | 124° | 111km/h | 7551m | -3.3m/s | -27.1°C | 8.4% | 392.0hPa | 2.6V | 00:00:00 | 03:09:54 | 00:00:00 | |
| DL4XJ-10 | 2026-09-03 13:29:14 | 52.79343 | 10.18721 | 125° | 111km/h | 7557m | -3.1m/s | -26.2°C | 0% | 0hPa | 2.6V | 00:00:00 | 00:00:00 | 00:00:00 | |
| DB0UT-7 | 2026-09-03 13:29:13 | 52.79359 | 10.18683 | 125° | 113km/h | 7560m | -3.2m/s | -27.1°C | 8.6% | 391.4hPa | 2.6V | 00:00:00 | 00:00:00 | 00:00:00 | |
| DJ2DS-15 | 2026-09-03 13:29:12 | 52.79374 | 10.18647 | 124° | 104km/h | 7563m | -3.4m/s | -27.2°C | 7.5% | 391.3hPa | 2.6V | 00:00:00 | 00:00:00 | 00:00:00 | |
| DL1XH1-15 | 2026-09-03 13:29:11 | 52.79451 | 10.18426 | 114° | 102km/h | 7582m | -3m/s | -27.4°C | 9.2% | 390.2hPa | 2.6V | 07:32:10 | 03:09:44 | 00:00:00 | |
| DF8AY | 2026-09-03 13:29:11 | 52.79451 | 10.18426 | 115° | 104km/h | 7582m | -3m/s | -27.4°C | 9.3% | 390.2hPa | 2.6V | 07:32:21 | 03:09:44 | 00:00:00 | |
| DL1XH-west | 2026-09-03 13:29:09 | 52.79416 | 10.18539 | 120° | 100km/h | 7573m | -3.1m/s | -27.3°C | 9% | 390.8hPa | 2.6V | 07:32:21 | 03:09:47 | 00:00:00 | |
| DL1XH-west | 2026-09-03 13:28:59 | 52.79533 | 10.18124 | 116° | 120km/h | 7604m | -3.2m/s | -27.6°C | 9.4% | 389.1hPa | 2.6V | 07:32:21 | 03:09:37 | 00:00:00 | |
| BIOWL1-15 | 2026-09-03 13:28:58 | 52.79546 | 10.18078 | 116° | 122km/h | 7607m | -3.1m/s | -27.6°C | 9.4% | 388.8hPa | 2.6V | 07:32:21 | 03:09:36 | 00:00:00 | |
| DL4BBY-15 | 2026-09-03 13:28:58 | 52.79546 | 10.18078 | 117° | 119km/h | 7607m | -3.0m/s | -26.6°C | 0% | 0hPa | 2.5V | 00:00:00 | 00:00:00 | 00:00:00 | |
| DL1XH-15 | 2026-09-03 13:28:57 | 52.79575 | 10.17987 | 118° | 124km/h | 7613m | -3m/s | -27.6°C | 8.8% | 388.5hPa | 2.5V | 07:32:20 | 03:09:34 | 00:00:00 | |
| DF8AY | 2026-09-03 13:28:55 | 52.79590 | 10.17942 | 119° | 124km/h | 7616m | -3.1m/s | -27.6°C | 9.3% | 388.4hPa | 2.6V | 07:32:21 | 03:09:33 | 00:00:00 | |
| DO2SHX-10 | 2026-09-03 13:28:55 | 52.79590 | 10.17942 | 120° | 124km/h | 7616m | -3.1m/s | -27.6°C | 8.7% | 388.3hPa | 2.6V | 07:32:00 | 03:09:33 | 00:00:00 | |
| DB0NH | 2026-09-03 13:28:54 | 52.79606 | 10.17897 | 121° | 119km/h | 7620m | -3.2m/s | -27.6°C | 8.6% | 388.1hPa | 2.6V | 00:00:00 | 03:09:32 | 00:00:00 | |
| GOEST3-10 | 2026-09-03 13:28:53 | 52.79621 | 10.17852 | 121° | 120km/h | 7623m | -3.3m/s | -27.6°C | 8.6% | 388.1hPa | 2.5V | 00:00:00 | 00:00:00 | 00:00:00 | |
| DO2SHX-10 | 2026-09-03 13:28:52 | 52.79638 | 10.17808 | 122° | 122km/h | 7626m | -3.2m/s | -27.7°C | 8.6% | 387.8hPa | 2.5V | 00:00:00 | 03:09:30 | 00:00:00 | |
| DL1XH1-15 | 2026-09-03 13:28:51 | 52.79736 | 10.17564 | 123° | 110km/h | 7646m | -3m/s | -27.8°C | 8.9% | 386.8hPa | 2.5V | 07:32:30 | 03:09:24 | 00:00:00 | |
| BIOWL1-15 | 2026-09-03 13:28:49 | 52.79720 | 10.17602 | 124° | 111km/h | 7643m | -3.2m/s | -27.7°C | 9% | 387hPa | 2.5V | 07:33:12 | 03:09:25 | 00:00:00 | |
| DL1XH-west | 2026-09-03 13:28:49 | 52.79687 | 10.17682 | 124° | 117km/h | 7636m | -3.3m/s | -27.7°C | 9.1% | 387.3hPa | 2.6V | 07:33:12 | 03:09:27 | 00:00:00 | |
| DF8AY | 2026-09-03 13:28:45 | 52.79751 | 10.17526 | 123° | 106km/h | 7649m | -3m/s | -27.8°C | 9.1% | 386.6hPa | 2.6V | 07:33:12 | 03:09:23 | 00:00:00 | |
| DM0DOS-11 | 2026-09-03 13:28:44 | 52.79803 | 10.17374 | 116° | 106km/h | 7661m | -3.1m/s | -28°C | 9.3% | 386hPa | 2.5V | 07:32:35 | 03:09:19 | 00:00:00 | |
| DO2SHX-10 | 2026-09-03 13:28:43 | 52.79778 | 10.17451 | 120° | 104km/h | 7655m | -3.0m/s | -27.8°C | 9.2% | 386.3hPa | 2.5V | 00:00:00 | 03:09:21 | 00:00:00 | |
| DJ2DS-15 | 2026-09-03 13:28:42 | 52.79791 | 10.17413 | 118° | 120km/h | 7658m | -3.1m/s | -27.9°C | 9.3% | 386.1hPa | 2.5V | 00:00:00 | 03:09:20 | 00:00:00 | |
| DB0DAN | 2026-09-03 13:28:40 | 52.79815 | 10.17334 | 115° | 102km/h | 7664m | -3.2m/s | -28°C | 8.3% | 385.79hPa | 2.6V | 00:00:00 | 00:00:00 | 00:00:00 | |
| AA1-15 | 2026-09-03 13:28:38 | 52.79838 | 10.17250 | 114° | 113km/h | 7670m | -3.1m/s | -28.1°C | 10.4% | 385.5hPa | 2.6V | 07:33:12 | 03:09:16 | 00:00:00 | |
| BIOWL1-15 | 2026-09-03 13:28:38 | 52.79861 | 10.17161 | 114° | 119km/h | 7677m | -3.3m/s | -28.1°C | 10.6% | 385.1hPa | 2.5V | 07:33:12 | 03:09:14 | 00:00:00 | |
| DF8AY-15 | 2026-09-03 13:28:38 | 52.79838 | 10.17250 | 114° | 122km/h | 7670m | -3.1m/s | -28.0°C | 9.9% | 385.4hPa | 2.6V | 00:00:00 | 03:09:16 | 00:00:00 | |
| DL1XH-15 | 2026-09-03 13:28:37 | 52.79861 | 10.17161 | 113° | 119km/h | 7677m | -3.3m/s | -28.1°C | 10% | 385.1hPa | 2.5V | 07:32:40 | 03:09:14 | 00:00:00 | |
| DF8AY | 2026-09-03 13:28:35 | 52.79874 | 10.17116 | 114° | 122km/h | 7680m | -3.1m/s | -28.1°C | 10.7% | 385hPa | 2.5V | 07:33:12 | 03:09:13 | 00:00:00 | |
| SONDE2-11 | 2026-09-03 13:28:35 | 52.79887 | 10.17069 | 115° | 124km/h | 7683m | -3.0m/s | -28.1°C | 8.7% | 384.7hPa | 2.5V | 00:00:00 | 00:00:00 | 00:00:00 | |
| DL4XJ-10 | 2026-09-03 13:28:34 | 52.79887 | 10.17069 | 116° | 120km/h | 7683m | -3.0m/s | -27.2°C | 0% | 0hPa | 2.5V | 00:00:00 | 00:00:00 | 00:00:00 | |
| GOEST3-10 | 2026-09-03 13:28:33 | 52.79901 | 10.17022 | 117° | 128km/h | 7686m | -3.2m/s | -28.1°C | 10.0% | 384.6hPa | 2.5V | 07:32:00 | 00:00:00 | 00:00:00 | |
| DL1XH1-15 | 2026-09-03 13:28:31 | 52.80014 | 10.16698 | 122° | 126km/h | 7709m | -3.2m/s | -28.2°C | 10.7% | 383.4hPa | 2.5V | 07:32:50 | 03:09:04 | 00:00:00 | |
| DL1XH-west | 2026-09-03 13:28:28 | 52.79980 | 10.16788 | 121° | 128km/h | 7702m | -3.5m/s | -28.1°C | 11.6% | 383.7hPa | 2.6V | 07:33:12 | 03:09:06 | 00:00:00 | |
| BIOWL1-15 | 2026-09-03 13:28:28 | 52.80014 | 10.16698 | 123° | 128km/h | 7709m | -3.2m/s | -28.2°C | 11.7% | 383.4hPa | 2.5V | 07:33:12 | 03:09:04 | 00:00:00 | |
| DO2SHX-10 | 2026-09-03 13:28:28 | 52.79980 | 10.16788 | 122° | 128km/h | 7702m | -3.4m/s | -28.1°C | 10.4% | 383.7hPa | 2.5V | 00:00:00 | 03:09:06 | 00:00:00 | |
| DO9LL-15 | 2026-09-03 13:28:27 | 52.79997 | 10.16743 | 122° | 124km/h | 7706m | -3.2m/s | -28.1°C | 10.5% | 383.5hPa | 2.5V | 00:00:00 | 03:09:05 | 00:00:00 | |
| DL1LOL-11 | 2026-09-03 13:28:26 | 52.79997 | 10.16743 | 123° | 128km/h | 7706m | -3.3m/s | -28.2°C | 9.2% | 383.6hPa | 2.6V | 07:33:00 | 00:00:00 | 00:00:00 | |
| DB0DAN | 2026-09-03 13:28:25 | 52.80031 | 10.16654 | 123° | 119km/h | 7712m | -3.3m/s | -28.2°C | 9.3% | 383.2hPa | 2.6V | 00:00:00 | 00:00:00 | 00:00:00 | |
| DO2SHX-10 | 2026-09-03 13:28:25 | 52.80031 | 10.16653 | 124° | 122km/h | 7712m | -3.3m/s | -28.2°C | 10.7% | 383.2hPa | 2.5V | 00:00:00 | 03:09:03 | 00:00:00 | |
| DM0DOS-11 | 2026-09-03 13:28:24 | 52.80099 | 10.16488 | 122° | 113km/h | 7725m | -3m/s | -28.4°C | 11.4% | 382.6hPa | 2.5V | 07:32:55 | 03:08:59 | 00:00:00 | |
| DF8AY | 2026-09-03 13:28:24 | 52.80049 | 10.16611 | 124° | 122km/h | 7715m | -3.4m/s | -28.2°C | 11.7% | 383.1hPa | 2.6V | 07:33:12 | 03:09:02 | 00:00:00 | |
| DL1XH-west | 2026-09-03 13:28:18 | 52.80141 | 10.16368 | 117° | 111km/h | 7734m | -2.9m/s | -28.5°C | 12.5% | 382.1hPa | 2.6V | 07:33:12 | 03:08:56 | 00:00:00 | |
| DF8AY-15 | 2026-09-03 13:28:18 | 52.80141 | 10.16368 | 118° | 126km/h | 7734m | -2.9m/s | -28.5°C | 11.6% | 382.1hPa | 2.5V | 00:00:00 | 03:08:56 | 00:00:00 | |
| DL1XH-15 | 2026-09-03 13:28:17 | 52.80166 | 10.16284 | 115° | 115km/h | 7740m | -3.2m/s | -28.6°C | 11.8% | 381.8hPa | 2.5V | 07:33:00 | 03:08:54 | 00:00:00 | |
| AA1-15 | 2026-09-03 13:28:17 | 52.80154 | 10.16327 | 116° | 113km/h | 7737m | -3.1m/s | -28.6°C | 12.5% | 381.9hPa | 2.6V | 07:33:12 | 03:08:55 | 00:00:00 | |
| DM0DOS-11 | 2026-09-03 13:28:16 | 52.80229 | 10.16057 | 114° | 124km/h | 7756m | -3.1m/s | -28.6°C | 12.2% | 380.9hPa | 2.5V | 07:33:05 | 03:08:49 | 00:00:00 | |
| BIOWL1-15 | 2026-09-03 13:28:15 | 52.80178 | 10.16240 | 114° | 117km/h | 7743m | -3.1m/s | -28.6°C | 12.6% | 381.5hPa | 2.5V | 07:33:12 | 03:08:53 | 00:00:00 | |
| DF8AY | 2026-09-03 13:28:13 | 52.80203 | 10.16150 | 114° | 120km/h | 7749m | -3.2m/s | -28.6°C | 12.9% | 381.3hPa | 2.6V | 07:33:12 | 03:08:51 | 00:00:00 | |
| DL3AQ-11 | 2026-09-03 13:28:13 | 52.80216 | 10.16104 | 114° | 120km/h | 7753m | -3.2m/s | -28.6°C | 10.7% | 381.1hPa | 2.6V | 00:00:00 | 00:00:00 | 00:00:00 | |
| DL1XH1-15 | 2026-09-03 13:28:11 | 52.80299 | 10.15816 | 116° | 131km/h | 7772m | -3.3m/s | -28.8°C | 12.3% | 380.1hPa | 2.6V | 07:33:10 | 03:08:44 | 00:00:00 | |
| DL1XH-west | 2026-09-03 13:28:07 | 52.80284 | 10.15865 | 116° | 130km/h | 7769m | -3.4m/s | -28.7°C | 13.5% | 380.2hPa | 2.6V | 07:33:12 | 03:08:45 | 00:00:00 | |
| DO2SHX-10 | 2026-09-03 13:28:07 | 52.80284 | 10.15865 | 117° | 131km/h | 7769m | -3.4m/s | -28.7°C | 12.3% | 380.2hPa | 2.6V | 07:33:00 | 03:08:45 | 00:00:00 | |
| SONCRA | 2026-09-03 13:28:06 | 52.80298 | 10.15816 | 116° | 131km/h | 7772m | -3.3m/s | -28.8°C | 10.9% | 380.1hPa | 2.6V | 00:00:00 | 00:00:00 | 00:00:00 | |
| DM0DOS-11 | 2026-09-03 13:28:04 | 52.80379 | 10.15571 | 120° | 133km/h | 7788m | -3.4m/s | -28.8°C | 12.1% | 379.2hPa | 2.6V | 07:33:15 | 03:08:39 | 00:00:00 | |
| BIOWL1-15 | 2026-09-03 13:28:04 | 52.80329 | 10.15718 | 118° | 133km/h | 7779m | -3.2m/s | -28.8°C | 13.8% | 379.7hPa | 2.5V | 07:33:12 | 03:08:42 | 00:00:00 | |
| DF8AY | 2026-09-03 13:28:02 | 52.80362 | 10.15620 | 120° | 133km/h | 7785m | -3.2m/s | -28.8°C | 13.7% | 379.4hPa | 2.6V | 07:34:03 | 03:08:40 | 00:00:00 | |
| DL3AQ-11 | 2026-09-03 13:28:02 | 52.80379 | 10.15571 | 120° | 133km/h | 7788m | -3.4m/s | -28.8°C | 10.7% | 379.2hPa | 2.5V | 00:00:00 | 00:00:00 | 00:00:00 | |
| DJ2DS-15 | 2026-09-03 13:28:00 | 52.80396 | 10.15524 | 121° | 131km/h | 7792m | -3.2m/s | -28.8°C | 10.6% | 379.0hPa | 2.5V | 00:00:00 | 00:00:00 | 00:00:00 | |
| BIOWL9-15 | 2026-09-03 13:27:58 | 52.80450 | 10.15386 | 123° | 128km/h | 7801m | -3.3m/s | -28.9°C | 10.6% | 378.5hPa | 2.5V | 00:00:00 | 00:00:00 | 00:00:00 | |
| DL1XH-15 | 2026-09-03 13:27:57 | 52.80468 | 10.15342 | 124° | 126km/h | 7804m | -3.1m/s | -28.9°C | 12.2% | 378.3hPa | 2.5V | 07:33:20 | 03:08:34 | 00:00:00 | |
| DL1XH-west | 2026-09-03 13:27:56 | 52.80468 | 10.15342 | 124° | 126km/h | 7804m | -3.1m/s | -28.9°C | 13.3% | 378.3hPa | 2.5V | 07:34:03 | 03:08:34 | 00:00:00 | |
| SMARD9-15 | 2026-09-03 13:27:56 | 52.80486 | 10.15299 | 124° | 122km/h | 7807m | -3.1m/s | -28.9°C | 10.8% | 378.1hPa | 2.6V | 00:00:00 | 00:00:00 | 00:00:00 | |
| DB0DAN | 2026-09-03 13:27:55 | 52.80486 | 10.15299 | 124° | 117km/h | 7807m | -3.1m/s | -28.9°C | 10.8% | 378.14hPa | 2.6V | 00:00:00 | 00:00:00 | 00:00:00 | |
| BIOWL1-15 | 2026-09-03 13:27:54 | 52.80503 | 10.15257 | 124° | 119km/h | 7811m | -3.1m/s | -29°C | 13.4% | 378hPa | 2.6V | 07:34:03 | 03:08:32 | 00:00:00 | |
| DF8AY | 2026-09-03 13:27:52 | 52.80534 | 10.15175 | 121° | 115km/h | 7817m | -3m/s | -29°C | 13.7% | 377.6hPa | 2.5V | 07:34:03 | 03:08:30 | 00:00:00 | |
| DO2SHX-10 | 2026-09-03 13:27:52 | 52.80534 | 10.15175 | 122° | 115km/h | 7817m | -3.0m/s | -29.0°C | 12.8% | 377.6hPa | 2.5V | 00:00:00 | 03:08:30 | 00:00:00 | |
| DO2SHX-10 | 2026-09-03 13:27:49 | 52.80576 | 10.15048 | 117° | 119km/h | 7826m | -2.9m/s | -29.1°C | 13.3% | 377.2hPa | 2.5V | 00:00:00 | 03:08:27 | 00:00:00 | |
| DL1XH-15 | 2026-09-03 13:27:47 | 52.80615 | 10.14912 | 114° | 124km/h | 7835m | -3.1m/s | -29.2°C | 13.4% | 376.7hPa | 2.5V | 07:33:30 | 03:08:24 | 00:00:00 | |
| DL1XH-west | 2026-09-03 13:27:46 | 52.80615 | 10.14912 | 114° | 124km/h | 7835m | -3.1m/s | -29.2°C | 14.6% | 376.7hPa | 2.5V | 07:34:03 | 03:08:24 | 00:00:00 | |
| DL3AQ-11 | 2026-09-03 13:27:45 | 52.80628 | 10.14864 | 114° | 126km/h | 7838m | -3.2m/s | -29.3°C | 11.8% | 376.5hPa | 2.6V | 00:00:00 | 00:00:00 | 00:00:00 | |
| BIOWL1-15 | 2026-09-03 13:27:43 | 52.80655 | 10.14766 | 115° | 131km/h | 7845m | -3.2m/s | -29.3°C | 14.8% | 376.2hPa | 2.6V | 07:34:03 | 03:08:21 | 00:00:00 | |
| DF8AY | 2026-09-03 13:27:42 | 52.80669 | 10.14716 | 115° | 133km/h | 7848m | -3.2m/s | -29.3°C | 14.8% | 376hPa | 2.5V | 07:34:03 | 03:08:20 | 00:00:00 | |
| DJ2DS-15 | 2026-09-03 13:27:42 | 52.80669 | 10.14716 | 116° | 130km/h | 7848m | -3.2m/s | -29.3°C | 13.4% | 376.0hPa | 2.5V | 00:00:00 | 03:08:20 | 00:00:00 | |
| DO2SHX-10 | 2026-09-03 13:27:40 | 52.80699 | 10.14615 | 117° | 137km/h | 7854m | -3.1m/s | -29.3°C | 13.4% | 375.6hPa | 2.6V | 00:00:00 | 03:08:18 | 00:00:00 | |
| DO2LYB-13 | 2026-09-03 13:27:39 | 52.80699 | 10.14615 | 118° | 137km/h | 7854m | -3.2m/s | -29.3°C | 11.8% | 375.7hPa | 2.6V | 00:00:00 | 00:00:00 | 00:00:00 | |
| DF8AY-15 | 2026-09-03 13:27:38 | 52.80732 | 10.14513 | 119° | 130km/h | 7860m | -3.1m/s | -29.3°C | 13.4% | 375.3hPa | 2.6V | 00:00:00 | 03:08:16 | 00:00:00 | |
| DM0DOS-11 | 2026-09-03 13:27:36 | 52.80857 | 10.14173 | 123° | 131km/h | 7883m | -3.4m/s | -29.4°C | 14.4% | 374.1hPa | 2.5V | 07:33:45 | 03:08:09 | 00:00:00 | |
| DL1XH-west | 2026-09-03 13:27:35 | 52.80784 | 10.14364 | 121° | 137km/h | 7870m | -3.3m/s | -29.4°C | 15.5% | 374.8hPa | 2.5V | 07:34:03 | 03:08:13 | 00:00:00 | |
| BIOWL1-15 | 2026-09-03 13:27:32 | 52.80894 | 10.14083 | 124° | 128km/h | 7890m | -3.3m/s | -29.5°C | 16.2% | 373.8hPa | 2.6V | 07:34:03 | 03:08:07 | 00:00:00 | |
| DF8AY | 2026-09-03 13:27:32 | 52.80858 | 10.14173 | 124° | 131km/h | 7883m | -3.4m/s | -29.5°C | 16.1% | 374.1hPa | 2.5V | 07:34:03 | 03:08:09 | 00:00:00 | |
| DL1LOL-11 | 2026-09-03 13:27:31 | 52.80839 | 10.14219 | 124° | 135km/h | 7880m | -3.1m/s | -29.5°C | 12.6% | 374.3hPa | 2.6V | 07:34:00 | 00:00:00 | 00:00:00 | |
| GOEST3-10 | 2026-09-03 13:27:30 | 52.80876 | 10.14127 | 125° | 124km/h | 7887m | -3.4m/s | -29.4°C | 14.6% | 373.9hPa | 2.6V | 00:00:00 | 00:00:00 | 00:00:00 | |
| DL4BBY-15 | 2026-09-03 13:27:28 | 52.80912 | 10.14039 | 124° | 137km/h | 7893m | -3.1m/s | -28.6°C | 0% | 0hPa | 2.6V | 00:00:00 | 00:00:00 | 00:00:00 | |
| DO9LL-15 | 2026-09-03 13:27:27 | 52.80929 | 10.13996 | 123° | 137km/h | 7896m | -3.0m/s | -29.5°C | 15.0% | 373.4hPa | 2.6V | 00:00:00 | 03:08:05 | 00:00:00 | |
| DB0DAN | 2026-09-03 13:27:25 | 52.80961 | 10.13911 | 120° | 113km/h | 7903m | -3m/s | -29.7°C | 13.4% | 373.14hPa | 2.6V | 00:00:00 | 00:00:00 | 00:00:00 | |
| DL1XH-west | 2026-09-03 13:27:25 | 52.80961 | 10.13911 | 120° | 119km/h | 7903m | -3m/s | -29.7°C | 16.5% | 373.1hPa | 2.6V | 07:34:03 | 03:08:03 | 00:00:00 | |
| DB0DAN | 2026-09-03 13:27:25 | 52.80961 | 10.13911 | 120° | 113km/h | 7903m | -3m/s | -29.7°C | 13.4% | 373.14hPa | 2.6V | 00:00:00 | 00:00:00 | 00:00:00 | |
| SMARD9-15 | 2026-09-03 13:27:25 | 52.80976 | 10.13867 | 118° | 119km/h | 7905m | -2.9m/s | -29.7°C | 13.6% | 373.0hPa | 2.5V | 00:00:00 | 00:00:00 | 00:00:00 | |
| DM0DOS-11 | 2026-09-03 13:27:24 | 52.81017 | 10.13731 | 115° | 126km/h | 7914m | -3.1m/s | -29.9°C | 15.9% | 372.5hPa | 2.5V | 07:33:55 | 03:07:59 | 00:00:00 | |
| AA1-15 | 2026-09-03 13:27:24 | 52.80976 | 10.13867 | 119° | 119km/h | 7905m | -2.9m/s | -29.7°C | 16.7% | 373hPa | 2.6V | 07:34:03 | 03:08:02 | 00:00:00 | |
| BIOWL1-15 | 2026-09-03 13:27:20 | 52.81031 | 10.13683 | 115° | 128km/h | 7917m | -3.1m/s | -29.9°C | 17.3% | 372.3hPa | 2.5V | 07:34:03 | 03:07:58 | 00:00:00 | |
| DL1XH-west | 2026-09-03 13:27:15 | 52.81117 | 10.13379 | 116° | 139km/h | 7936m | -3.4m/s | -30°C | 18.4% | 371.4hPa | 2.5V | 07:34:03 | 03:07:52 | 00:00:00 | |
| DM0DOS-11 | 2026-09-03 13:27:14 | 52.81164 | 10.13221 | 117° | 142km/h | 7946m | -3.3m/s | -30°C | 17.2% | 370.8hPa | 2.6V | 07:34:05 | 03:07:49 | 00:00:00 | |
| AA1-15 | 2026-09-03 13:27:13 | 52.81132 | 10.13326 | 116° | 141km/h | 7940m | -3.4m/s | -30°C | 18.6% | 371.1hPa | 2.6V | 07:34:03 | 03:07:51 | 00:00:00 | |
| BIOWL1-15 | 2026-09-03 13:27:10 | 52.81181 | 10.13168 | 118° | 144km/h | 7949m | -3.4m/s | -30.1°C | 19.1% | 370.6hPa | 2.5V | 07:34:54 | 03:07:48 | 00:00:00 | |
| DL1XH-west | 2026-09-03 13:27:04 | 52.81288 | 10.12849 | 120° | 146km/h | 7970m | -3.3m/s | -30.2°C | 20.5% | 369.6hPa | 2.6V | 07:34:54 | 03:07:42 | 00:00:00 | |
| DM0DOS-11 | 2026-09-03 13:27:04 | 52.81345 | 10.12692 | 121° | 146km/h | 7980m | -3m/s | -30.2°C | 18.6% | 369hPa | 2.5V | 07:34:15 | 03:07:39 | 00:00:00 | |
| AA1-15 | 2026-09-03 13:27:02 | 52.81325 | 10.12744 | 121° | 148km/h | 7977m | -3.1m/s | -30.2°C | 20.7% | 369.1hPa | 2.6V | 07:34:54 | 03:07:40 | 00:00:00 | |
| BIOWL1-15 | 2026-09-03 13:27:00 | 52.81364 | 10.12640 | 122° | 146km/h | 7983m | -3.2m/s | -30.2°C | 21.2% | 368.8hPa | 2.5V | 07:34:54 | 03:07:38 | 00:00:00 | |
| DF8AY | 2026-09-03 13:26:59 | 52.81384 | 10.12588 | 123° | 146km/h | 7986m | -3.2m/s | -30.3°C | 21.6% | 368.7hPa | 2.5V | 07:34:54 | 03:07:37 | 00:00:00 | |
| BIOWL9-15 | 2026-09-03 13:26:56 | 52.81465 | 10.12391 | 124° | 137km/h | 7998m | -2.9m/s | -30.3°C | 18.6% | 368.1hPa | 2.5V | 00:00:00 | 00:00:00 | 00:00:00 | |
| DB0DAN | 2026-09-03 13:26:55 | 52.81465 | 10.12391 | 124° | 131km/h | 7998m | -2.9m/s | -30.3°C | 18.6% | 368.14hPa | 2.5V | 00:00:00 | 00:00:00 | 00:00:00 | |
| DO2SHX-10 | 2026-09-03 13:26:55 | 52.81465 | 10.12391 | 125° | 135km/h | 7998m | -2.8m/s | -30.2°C | 20.8% | 368.1hPa | 2.6V | 00:00:00 | 03:07:33 | 00:00:00 | |
| DM0DOS-11 | 2026-09-03 13:26:54 | 52.81536 | 10.12202 | 118° | 131km/h | 8009m | -2.7m/s | -30.5°C | 22.3% | 367.6hPa | 2.6V | 07:34:25 | 03:07:29 | 00:00:00 | |
| DL1XH-west | 2026-09-03 13:26:53 | 52.81502 | 10.12298 | 122° | 131km/h | 8004m | -2.7m/s | -30.3°C | 23.1% | 367.8hPa | 2.5V | 07:34:54 | 03:07:31 | 00:00:00 | |
| AA1-15 | 2026-09-03 13:26:51 | 52.81536 | 10.12202 | 118° | 131km/h | 8009m | -2.7m/s | -30.5°C | 23.6% | 367.6hPa | 2.6V | 07:34:54 | 03:07:29 | 00:00:00 | |
| BIOWL1-15 | 2026-09-03 13:26:50 | 52.81551 | 10.12153 | 117° | 133km/h | 8012m | -3m/s | -30.4°C | 23.9% | 367.5hPa | 2.6V | 07:34:54 | 03:07:28 | 00:00:00 | |
| DF8AY | 2026-09-03 13:26:49 | 52.81566 | 10.12103 | 116° | 135km/h | 8015m | -2.9m/s | -30.5°C | 24.2% | 367.2hPa | 2.5V | 07:34:54 | 03:07:27 | 00:00:00 | |
| DJ2DS-15 | 2026-09-03 13:26:48 | 52.81581 | 10.12052 | 115° | 137km/h | 8018m | -3.1m/s | -30.4°C | 21.3% | 367.1hPa | 2.6V | 00:00:00 | 00:00:00 | 00:00:00 | |
| DL1XH-15 | 2026-09-03 13:26:47 | 52.81612 | 10.11946 | 115° | 142km/h | 8024m | -3m/s | -30.4°C | 24.6% | 366.8hPa | 2.6V | 07:34:30 | 03:07:24 | 00:00:00 | |
| HTAHTA | 2026-09-03 13:26:47 | 52.81628 | 10.11893 | 115° | 142km/h | 8027m | -3.2m/s | -30.4°C | 22.3% | 366.6hPa | 2.5V | 00:00:00 | 00:00:00 | 00:00:00 | |
| GOEST3-10 | 2026-09-03 13:26:45 | 52.81627 | 10.11892 | 116° | 148km/h | 8027m | -3.1m/s | -30.3°C | 24.7% | 366.5hPa | 2.5V | 00:00:00 | 03:07:23 | 00:00:00 | |
| DM0DOS-11 | 2026-09-03 13:26:44 | 52.81693 | 10.11671 | 116° | 150km/h | 8040m | -3.3m/s | -30.4°C | 25.4% | 365.9hPa | 2.5V | 07:34:35 | 03:07:19 | 00:00:00 | |
| DL1XH-west | 2026-09-03 13:26:43 | 52.81660 | 10.11783 | 116° | 148km/h | 8034m | -3.3m/s | -30.4°C | 27.2% | 366.3hPa | 2.6V | 07:34:54 | 03:07:21 | 00:00:00 | |
| AA1-15 | 2026-09-03 13:26:41 | 52.81693 | 10.11671 | 116° | 150km/h | 8040m | -3.3m/s | -30.4°C | 28.1% | 365.9hPa | 2.5V | 07:34:54 | 03:07:19 | 00:00:00 | |
| BIOWL1-15 | 2026-09-03 13:26:40 | 52.81709 | 10.11615 | 117° | 151km/h | 8043m | -3.4m/s | -30.4°C | 28.4% | 365.8hPa | 2.5V | 07:34:54 | 03:07:18 | 00:00:00 | |
| DF8AY | 2026-09-03 13:26:38 | 52.81744 | 10.11502 | 117° | 153km/h | 8050m | -3.3m/s | -30.4°C | 29.3% | 365.4hPa | 2.6V | 07:34:54 | 03:07:16 | 00:00:00 | |
| DF8AY-15 | 2026-09-03 13:26:38 | 52.81744 | 10.11502 | 118° | 146km/h | 8050m | -3.3m/s | -30.4°C | 26.3% | 365.4hPa | 2.6V | 00:00:00 | 03:07:16 | 00:00:00 | |
| DL1XH-15 | 2026-09-03 13:26:37 | 52.81781 | 10.11388 | 118° | 155km/h | 8056m | -3.1m/s | -30.4°C | 26.8% | 365.1hPa | 2.5V | 07:34:40 | 03:07:14 | 00:00:00 | |
| DL8OAI-8 | 2026-09-03 13:26:36 | 52.81762 | 10.11445 | 119° | 155km/h | 8053m | -3.3m/s | -30.4°C | 24.4% | 365.3hPa | 2.5V | 07:34:00 | 00:00:00 | 00:00:00 | |
| DO2SHX-10 | 2026-09-03 13:26:35 | 52.81800 | 10.11331 | 120° | 155km/h | 8060m | -3.1m/s | -30.4°C | 26.6% | 364.9hPa | 2.5V | 00:00:00 | 03:07:13 | 00:00:00 | |
| DM0DOS-11 | 2026-09-03 13:26:34 | 52.81881 | 10.11110 | 122° | 153km/h | 8072m | -3.2m/s | -30.4°C | 27.7% | 364.3hPa | 2.6V | 07:34:45 | 03:07:09 | 00:00:00 | |
| DL1XH-west | 2026-09-03 13:26:32 | 52.81860 | 10.11164 | 122° | 155km/h | 8069m | -3.1m/s | -30.4°C | 30.3% | 364.5hPa | 2.6V | 07:34:54 | 03:07:10 | 00:00:00 | |
| AA1-15 | 2026-09-03 13:26:31 | 52.81881 | 10.11110 | 123° | 153km/h | 8072m | -3.2m/s | -30.4°C | 30.1% | 364.3hPa | 2.6V | 07:34:54 | 03:07:09 | 00:00:00 | |
| BIOWL1-15 | 2026-09-03 13:26:29 | 52.81981 | 10.10856 | 121° | 137km/h | 8086m | -2.7m/s | -30.7°C | 30.6% | 363.6hPa | 2.6V | 07:34:54 | 03:07:04 | 00:00:00 | |
| DF8AY | 2026-09-03 13:26:29 | 52.81943 | 10.10954 | 123° | 142km/h | 8081m | -2.9m/s | -30.6°C | 30.2% | 363.8hPa | 2.5V | 07:34:54 | 03:07:06 | 00:00:00 | |
| DO2SHX-10 | 2026-09-03 13:26:29 | 52.81923 | 10.11005 | 124° | 144km/h | 8078m | -2.7m/s | -30.4°C | 28.4% | 363.9hPa | 2.6V | 00:00:00 | 03:07:07 | 00:00:00 | |
| DL4BBY-15 | 2026-09-03 13:26:28 | 52.81943 | 10.10954 | 124° | 146km/h | 8081m | -2.9m/s | -29.6°C | 0% | 0hPa | 2.6V | 00:00:00 | 00:00:00 | 00:00:00 | |
| DO9LL-15 | 2026-09-03 13:26:27 | 52.81962 | 10.10905 | 123° | 146km/h | 8084m | -2.8m/s | -30.6°C | 29.1% | 363.7hPa | 2.6V | 00:00:00 | 03:07:05 | 00:00:00 | |
| DB0DAN | 2026-09-03 13:26:25 | 52.81999 | 10.10807 | 120° | 130km/h | 8089m | -2.9m/s | -30.7°C | 26.8% | 363.42hPa | 2.6V | 00:00:00 | 00:00:00 | 00:00:00 | |
| DB0DAN | 2026-09-03 13:26:25 | 52.81999 | 10.10807 | 120° | 130km/h | 8089m | -2.9m/s | -30.7°C | 26.8% | 363.42hPa | 2.6V | 00:00:00 | 00:00:00 | 00:00:00 | |
| GOEST3-10 | 2026-09-03 13:26:25 | 52.81999 | 10.10807 | 121° | 135km/h | 8089m | -2.8m/s | -30.7°C | 29.6% | 363.4hPa | 2.6V | 00:00:00 | 03:07:03 | 00:00:00 | |
| DM0DOS-11 | 2026-09-03 13:26:24 | 52.82063 | 10.10608 | 116° | 137km/h | 8101m | -3.2m/s | -30.8°C | 31% | 362.8hPa | 2.6V | 07:34:55 | 03:06:59 | 00:00:00 | |
| AA1-15 | 2026-09-03 13:26:21 | 52.82063 | 10.10608 | 117° | 137km/h | 8101m | -3.2m/s | -30.8°C | 33% | 362.8hPa | 2.6V | 07:35:45 | 03:06:59 | 00:00:00 | |
| BIOWL1-15 | 2026-09-03 13:26:19 | 52.82094 | 10.10505 | 116° | 139km/h | 8108m | -3.2m/s | -30.8°C | 34.5% | 362.5hPa | 2.5V | 07:35:45 | 03:06:57 | 00:00:00 | |
| DF8AY | 2026-09-03 13:26:17 | 52.82124 | 10.10399 | 115° | 142km/h | 8114m | -3.1m/s | -30.9°C | 35.1% | 362.2hPa | 2.6V | 07:35:45 | 03:06:55 | 00:00:00 | |
| DL1XH-west | 2026-09-03 13:26:11 | 52.82223 | 10.10059 | 118° | 157km/h | 8133m | -3m/s | -31°C | 37.9% | 361.2hPa | 2.5V | 07:35:45 | 03:06:49 | 00:00:00 | |
| BIOWL1-15 | 2026-09-03 13:26:11 | 52.82261 | 10.09944 | 120° | 157km/h | 8138m | -3m/s | -31°C | 39.2% | 360.9hPa | 2.5V | 07:35:45 | 03:06:47 | 00:00:00 | |
| DB0DAN | 2026-09-03 13:26:10 | 52.82241 | 10.10001 | 119° | 150km/h | 8135m | -2.9m/s | -31°C | 33.4% | 361.1hPa | 2.5V | 00:00:00 | 00:00:00 | 00:00:00 | |
| AA1-15 | 2026-09-03 13:26:10 | 52.82241 | 10.10001 | 119° | 157km/h | 8135m | -2.9m/s | -31°C | 38.4% | 361.1hPa | 2.5V | 07:35:45 | 03:06:48 | 00:00:00 | |
| DB0DAN | 2026-09-03 13:26:10 | 52.82241 | 10.10001 | 119° | 150km/h | 8135m | -2.9m/s | -31°C | 33.4% | 361.1hPa | 2.5V | 00:00:00 | 00:00:00 | 00:00:00 | |
| GOEST3-10 | 2026-09-03 13:26:10 | 52.82241 | 10.10001 | 119° | 157km/h | 8136m | -2.9m/s | -31.0°C | 36.6% | 361.1hPa | 2.6V | 00:00:00 | 00:00:00 | 00:00:00 | |
| DO2SHX-10 | 2026-09-03 13:26:08 | 52.82281 | 10.09887 | 121° | 148km/h | 8142m | -3.1m/s | -31.0°C | 38.6% | 360.7hPa | 2.6V | 00:00:00 | 03:06:46 | 00:00:00 | |
| DL1XH-15 | 2026-09-03 13:26:07 | 52.82321 | 10.09776 | 121° | 155km/h | 8148m | -3.3m/s | -31°C | 38.5% | 360.5hPa | 2.6V | 07:35:10 | 03:06:44 | 00:00:00 | |
| DF8AY | 2026-09-03 13:26:06 | 52.82321 | 10.09776 | 122° | 155km/h | 8148m | -3.3m/s | -31°C | 40.3% | 360.5hPa | 2.6V | 07:35:45 | 03:06:44 | 00:00:00 | |
| DL1XH-west | 2026-09-03 13:26:00 | 52.82443 | 10.09463 | 123° | 141km/h | 8167m | -3.3m/s | -31.1°C | 40.1% | 359.4hPa | 2.6V | 07:35:45 | 03:06:38 | 00:00:00 | |
| AA1-15 | 2026-09-03 13:25:59 | 52.82462 | 10.09414 | 122° | 139km/h | 8170m | -3.2m/s | -31.2°C | 40% | 359.3hPa | 2.5V | 07:35:45 | 03:06:37 | 00:00:00 | |
| BIOWL1-15 | 2026-09-03 13:25:58 | 52.82480 | 10.09365 | 121° | 135km/h | 8174m | -3m/s | -31.2°C | 39.9% | 359.1hPa | 2.5V | 07:35:45 | 03:06:36 | 00:00:00 | |
| DF8AY-15 | 2026-09-03 13:25:58 | 52.82480 | 10.09365 | 122° | 150km/h | 8174m | -2.9m/s | -31.1°C | 38.3% | 359.1hPa | 2.6V | 00:00:00 | 03:06:36 | 00:00:00 | |
| DL1XH-15 | 2026-09-03 13:25:57 | 52.82515 | 10.09267 | 118° | 135km/h | 8180m | -3.2m/s | -31.2°C | 38.5% | 358.8hPa | 2.6V | 07:35:20 | 03:06:34 | 00:00:00 | |
| DO9LL-15 | 2026-09-03 13:25:57 | 52.82498 | 10.09316 | 120° | 150km/h | 8177m | -3.1m/s | -31.1°C | 38.3% | 358.9hPa | 2.6V | 00:00:00 | 03:06:35 | 00:00:00 | |
| DB0DAN | 2026-09-03 13:25:55 | 52.82530 | 10.09217 | 117° | 130km/h | 8183m | -3m/s | -31.3°C | 35.2% | 358.63hPa | 2.6V | 00:00:00 | 00:00:00 | 00:00:00 | |
| DF8AY | 2026-09-03 13:25:55 | 52.82530 | 10.09217 | 117° | 135km/h | 8183m | -3m/s | -31.3°C | 39.8% | 358.6hPa | 2.6V | 07:35:45 | 03:06:33 | 00:00:00 | |
| DB0DAN | 2026-09-03 13:25:55 | 52.82530 | 10.09217 | 117° | 130km/h | 8183m | -3m/s | -31.3°C | 35.2% | 358.63hPa | 2.6V | 00:00:00 | 00:00:00 | 00:00:00 | |
| AA1-15 | 2026-09-03 13:25:49 | 52.82624 | 10.08889 | 116° | 153km/h | 8201m | -3m/s | -31.5°C | 39.6% | 357.8hPa | 2.5V | 07:35:45 | 03:06:27 | 00:00:00 | |
| BIOWL1-15 | 2026-09-03 13:25:48 | 52.82641 | 10.08832 | 116° | 155km/h | 8204m | -3.2m/s | -31.5°C | 39.5% | 357.6hPa | 2.5V | 07:35:45 | 03:06:26 | 00:00:00 | |
| DL1XH-15 | 2026-09-03 13:25:47 | 52.82677 | 10.08716 | 117° | 157km/h | 8210m | -3.3m/s | -31.6°C | 37.3% | 357.3hPa | 2.6V | 07:35:30 | 03:06:24 | 00:00:00 | |
| DF8AY | 2026-09-03 13:25:45 | 52.82695 | 10.08658 | 118° | 157km/h | 8214m | -3.4m/s | -31.6°C | 39.1% | 357.1hPa | 2.5V | 07:35:45 | 03:06:23 | 00:00:00 | |
| DL1XH-west | 2026-09-03 13:25:38 | 52.82832 | 10.08256 | 121° | 155km/h | 8236m | -3.3m/s | -31.7°C | 38.6% | 356hPa | 2.6V | 07:35:45 | 03:06:16 | 00:00:00 | |
| DF8AY-15 | 2026-09-03 13:25:38 | 52.82832 | 10.08256 | 122° | 146km/h | 8236m | -3.3m/s | -31.6°C | 35.9% | 356.0hPa | 2.6V | 00:00:00 | 03:06:16 | 00:00:00 | |
| DL1XH-15 | 2026-09-03 13:25:37 | 52.82873 | 10.08146 | 122° | 153km/h | 8242m | -3m/s | -31.7°C | 36.1% | 355.6hPa | 2.5V | 07:35:40 | 03:06:14 | 00:00:00 | |
| BIOWL1-15 | 2026-09-03 13:25:37 | 52.82852 | 10.08201 | 122° | 155km/h | 8239m | -3.2m/s | -31.7°C | 38.5% | 355.9hPa | 2.6V | 07:35:45 | 03:06:15 | 00:00:00 | |
| DF8AY | 2026-09-03 13:25:34 | 52.82914 | 10.08040 | 123° | 150km/h | 8248m | -3.2m/s | -31.8°C | 38.3% | 355.3hPa | 2.5V | 07:35:45 | 03:06:12 | 00:00:00 | |
| DL4XJ-10 | 2026-09-03 13:25:34 | 52.82914 | 10.08040 | 124° | 148km/h | 8249m | -3.1m/s | -30.8°C | 0% | 0hPa | 2.6V | 00:00:00 | 00:00:00 | 00:00:00 | |
| DL3AQ-11 | 2026-09-03 13:25:33 | 52.82955 | 10.07937 | 123° | 144km/h | 8255m | -3.0m/s | -31.8°C | 34.0% | 355.1hPa | 2.6V | 00:00:00 | 00:00:00 | 00:00:00 | |
| DO2SHX-10 | 2026-09-03 13:25:32 | 52.82955 | 10.07937 | 124° | 142km/h | 8255m | -3.0m/s | -31.8°C | 37.3% | 355.0hPa | 2.6V | 00:00:00 | 03:06:10 | 00:00:00 | |
| SONCRA | 2026-09-03 13:25:31 | 52.82975 | 10.07887 | 122° | 142km/h | 8258m | -3.0m/s | -31.9°C | 34.2% | 354.9hPa | 2.6V | 00:00:00 | 00:00:00 | 00:00:00 | |
| GOEST3-10 | 2026-09-03 13:25:30 | 52.82994 | 10.07837 | 122° | 139km/h | 8261m | -3.1m/s | -31.9°C | 37.8% | 354.7hPa | 2.6V | 00:00:00 | 00:00:00 | 00:00:00 | |
| DO2SHX-10 | 2026-09-03 13:25:29 | 52.83012 | 10.07787 | 122° | 139km/h | 8264m | -2.9m/s | -31.9°C | 37.9% | 354.6hPa | 2.6V | 00:00:00 | 03:06:07 | 00:00:00 | |
| DL4BBY-15 | 2026-09-03 13:25:28 | 52.83030 | 10.07737 | 120° | 157km/h | 8267m | -3.0m/s | -31.1°C | 0% | 0hPa | 2.6V | 00:00:00 | 00:00:00 | 00:00:00 | |
| DL1XH-15 | 2026-09-03 13:25:27 | 52.83064 | 10.07635 | 117° | 141km/h | 8273m | -3m/s | -32.1°C | 38.1% | 354.2hPa | 2.6V | 07:35:50 | 03:06:04 | 00:00:00 | |
| BIOWL1-15 | 2026-09-03 13:25:27 | 52.83047 | 10.07686 | 119° | 139km/h | 8270m | -3m/s | -32.1°C | 39.4% | 354.3hPa | 2.6V | 07:36:36 | 03:06:05 | 00:00:00 | |
| DO9LL-15 | 2026-09-03 13:25:27 | 52.83047 | 10.07686 | 119° | 157km/h | 8270m | -3.0m/s | -32.0°C | 38.0% | 354.3hPa | 2.6V | 07:35:00 | 03:06:05 | 00:00:00 | |
| DB0DAN | 2026-09-03 13:25:25 | 52.83080 | 10.07583 | 117° | 135km/h | 8276m | -3.1m/s | -32.2°C | 0% | 354.02hPa | 2.6V | 00:00:00 | 00:00:00 | 00:00:00 | |
| DB0DAN | 2026-09-03 13:25:25 | 52.83080 | 10.07583 | 117° | 135km/h | 8276m | -3.1m/s | -32.2°C | 34.9% | 354.02hPa | 2.6V | 00:00:00 | 00:00:00 | 00:00:00 | |
| DF8AY | 2026-09-03 13:25:23 | 52.83112 | 10.07474 | 116° | 146km/h | 8282m | -3.1m/s | -32.2°C | 39.4% | 353.7hPa | 2.5V | 07:36:36 | 03:06:01 | 00:00:00 | |
| DO2SHX-10 | 2026-09-03 13:25:23 | 52.83112 | 10.07474 | 116° | 150km/h | 8282m | -3.0m/s | 0°C | 0% | 0hPa | 2.5V | 00:00:00 | 03:06:01 | 00:00:00 | |
| DL3AQ-11 | 2026-09-03 13:25:22 | 52.83144 | 10.07362 | 115° | 150km/h | 8288m | -2.9m/s | -32.3°C | 35.0% | 353.4hPa | 2.5V | 00:00:00 | 00:00:00 | 00:00:00 | |
| DJ2DS-15 | 2026-09-03 13:25:21 | 52.83144 | 10.07362 | 116° | 161km/h | 8288m | -2.9m/s | -32.2°C | 38.4% | 353.3hPa | 2.5V | 00:00:00 | 03:05:59 | 00:00:00 | |
| DO2SHX-10 | 2026-09-03 13:25:20 | 52.83161 | 10.07304 | 116° | 155km/h | 8291m | -3.0m/s | -32.2°C | 38.6% | 353.2hPa | 2.5V | 00:00:00 | 03:05:58 | 00:00:00 | |
| EDDB2-12 | 2026-09-03 13:25:19 | 52.83177 | 10.07246 | 115° | 153km/h | 8294m | -3.1m/s | -32.3°C | 35.1% | 353.1hPa | 2.5V | 00:00:00 | 00:00:00 | 00:00:00 | |
| DL1XH-15 | 2026-09-03 13:25:17 | 52.83229 | 10.07070 | 116° | 159km/h | 8303m | -3.2m/s | -32.3°C | 38.7% | 352.6hPa | 2.5V | 07:36:00 | 03:05:54 | 00:00:00 | |
| AA1-15 | 2026-09-03 13:25:17 | 52.83212 | 10.07129 | 116° | 157km/h | 8300m | -3m/s | -32.4°C | 39.4% | 352.7hPa | 2.5V | 07:36:36 | 03:05:55 | 00:00:00 | |
| BIOWL1-15 | 2026-09-03 13:25:16 | 52.83285 | 10.06890 | 117° | 162km/h | 8313m | -3.2m/s | -32.4°C | 40.3% | 352.1hPa | 2.6V | 07:36:36 | 03:05:51 | 00:00:00 | |
| DL1XH-west | 2026-09-03 13:25:16 | 52.83230 | 10.07070 | 116° | 159km/h | 8303m | -3.2m/s | -32.3°C | 39.6% | 352.6hPa | 2.5V | 07:36:36 | 03:05:54 | 00:00:00 | |
| DF8AY | 2026-09-03 13:25:12 | 52.83304 | 10.06830 | 118° | 162km/h | 8316m | -3.2m/s | -32.4°C | 40.5% | 352hPa | 2.5V | 07:36:36 | 03:05:50 | 00:00:00 | |
| DB0DAN | 2026-09-03 13:25:10 | 52.83343 | 10.06710 | 119° | 157km/h | 8323m | -3.2m/s | -32.4°C | 0% | 351.6hPa | 2.5V | 00:00:00 | 00:00:00 | 00:00:00 | |
| DB0DAN | 2026-09-03 13:25:10 | 52.83343 | 10.06710 | 119° | 157km/h | 8323m | -3.2m/s | -32.4°C | 35.4% | 351.6hPa | 2.5V | 00:00:00 | 00:00:00 | 00:00:00 | |
| GOEST3-10 | 2026-09-03 13:25:10 | 52.83343 | 10.06710 | 119° | 164km/h | 8323m | -3.1m/s | -32.4°C | 38.9% | 351.6hPa | 2.6V | 07:36:00 | 00:00:00 | 00:00:00 | |
| DO2SHX-10 | 2026-09-03 13:25:08 | 52.83383 | 10.06589 | 120° | 166km/h | 8329m | -3.3m/s | -32.4°C | 37.1% | 351.3hPa | 2.6V | 00:00:00 | 03:05:46 | 00:00:00 | |
| DL1XH-15 | 2026-09-03 13:25:07 | 52.83426 | 10.06470 | 120° | 166km/h | 8335m | -3.2m/s | -32.5°C | 34.3% | 351hPa | 2.5V | 07:36:10 | 03:05:44 | 00:00:00 | |
| AA1-15 | 2026-09-03 13:25:06 | 52.83426 | 10.06470 | 121° | 166km/h | 8336m | -3.2m/s | -32.5°C | 36.3% | 351hPa | 2.5V | 07:36:36 | 03:05:44 | 00:00:00 | |
| DL1XH-west | 2026-09-03 13:25:05 | 52.83447 | 10.06410 | 121° | 166km/h | 8339m | -3.1m/s | -32.5°C | 35.1% | 350.8hPa | 2.5V | 07:36:36 | 03:05:43 | 00:00:00 | |
| DF8AY | 2026-09-03 13:25:01 | 52.83536 | 10.06180 | 124° | 161km/h | 8351m | -3.1m/s | -32.5°C | 30.1% | 350.1hPa | 2.6V | 07:36:36 | 03:05:39 | 00:00:00 | |
| BIOWL1-15 | 2026-09-03 13:24:56 | 52.83647 | 10.05911 | 124° | 150km/h | 8366m | -3.1m/s | -32.4°C | 23.5% | 349.4hPa | 2.6V | 07:36:36 | 03:05:34 | 00:00:00 | |
| DB0DAN | 2026-09-03 13:24:55 | 52.83668 | 10.05859 | 123° | 141km/h | 8369m | -3m/s | -32.4°C | 0% | 349.35hPa | 2.6V | 00:00:00 | 00:00:00 | 00:00:00 | |
| AA1-15 | 2026-09-03 13:24:55 | 52.83668 | 10.05859 | 123° | 148km/h | 8369m | -3m/s | -32.4°C | 23.9% | 349.4hPa | 2.6V | 07:36:36 | 03:05:33 | 00:00:00 | |
| DB0DAN | 2026-09-03 13:24:55 | 52.83668 | 10.05859 | 123° | 141km/h | 8369m | -3m/s | -32.4°C | 20.1% | 349.35hPa | 2.6V | 00:00:00 | 00:00:00 | 00:00:00 | |
| DL1XH-west | 2026-09-03 13:24:54 | 52.83688 | 10.05807 | 122° | 146km/h | 8372m | -2.9m/s | -32.4°C | 25% | 349.1hPa | 2.5V | 07:36:36 | 03:05:32 | 00:00:00 | |
| DF8AY | 2026-09-03 13:24:51 | 52.83743 | 10.05647 | 118° | 150km/h | 8381m | -2.9m/s | -32.5°C | 28.3% | 348.8hPa | 2.6V | 07:36:36 | 03:05:29 | 00:00:00 | |
| SMARD9-15 | 2026-09-03 13:24:49 | 52.83778 | 10.05533 | 116° | 157km/h | 8387m | -3.1m/s | -32.5°C | 24.5% | 348.4hPa | 2.5V | 00:00:00 | 00:00:00 | 00:00:00 | |
| EDDB2-12 | 2026-09-03 13:24:48 | 52.83796 | 10.05473 | 116° | 161km/h | 8390m | -2.9m/s | -32.5°C | 24.4% | 348.3hPa | 2.5V | 00:00:00 | 00:00:00 | 00:00:00 | |
| DL1XH-15 | 2026-09-03 13:24:47 | 52.83834 | 10.05352 | 117° | 166km/h | 8396m | -3.2m/s | -32.4°C | 26.9% | 348hPa | 2.5V | 07:36:30 | 03:05:24 | 00:00:00 | |
| DF8AY | 2026-09-03 13:24:45 | 52.83966 | 10.04985 | 124° | 170km/h | 8416m | -3.3m/s | -32.6°C | 32.4% | 347hPa | 2.5V | 07:36:36 | 03:05:18 | 00:00:00 | |
| AA1-15 | 2026-09-03 13:24:45 | 52.83854 | 10.05290 | 119° | 168km/h | 8399m | -3.1m/s | -32.4°C | 28.7% | 347.8hPa | 2.6V | 07:36:36 | 03:05:23 | 00:00:00 | |
| DL1XH-west | 2026-09-03 13:24:43 | 52.83897 | 10.05166 | 121° | 172km/h | 8406m | -3.3m/s | -32.4°C | 31.3% | 347.5hPa | 2.6V | 07:36:36 | 03:05:21 | 00:00:00 | |
| HTAHTA | 2026-09-03 13:24:42 | 52.83919 | 10.05105 | 121° | 170km/h | 8409m | -3.3m/s | -32.4°C | 27.2% | 347.3hPa | 2.5V | 00:00:00 | 00:00:00 | 00:00:00 | |
| DB0DAN | 2026-09-03 13:24:40 | 52.83966 | 10.04985 | 124° | 162km/h | 8416m | -3.3m/s | -32.6°C | 0% | 347.01hPa | 2.5V | 00:00:00 | 00:00:00 | 00:00:00 | |
| DB0DAN | 2026-09-03 13:24:40 | 52.83966 | 10.04985 | 124° | 162km/h | 8416m | -3.3m/s | -32.6°C | 27.6% | 347.01hPa | 2.5V | 00:00:00 | 00:00:00 | 00:00:00 | |
| GOEST3-10 | 2026-09-03 13:24:40 | 52.83966 | 10.04985 | 124° | 166km/h | 8416m | -3.2m/s | -32.6°C | 30.6% | 347.0hPa | 2.6V | 00:00:00 | 00:00:00 | 00:00:00 | |
| DB0UT-7 | 2026-09-03 13:24:39 | 52.83990 | 10.04927 | 125° | 166km/h | 8419m | -3.2m/s | -32.6°C | 30.6% | 346.8hPa | 2.6V | 00:00:00 | 03:05:17 | 00:00:00 | |
| DO2SHX-10 | 2026-09-03 13:24:38 | 52.84014 | 10.04869 | 126° | 164km/h | 8423m | -3.2m/s | -32.7°C | 30.7% | 346.6hPa | 2.5V | 07:36:00 | 03:05:16 | 00:00:00 | |
| DM0DOS-11 | 2026-09-03 13:24:37 | 52.84063 | 10.04757 | 125° | 164km/h | 8429m | -3.4m/s | -32.8°C | 30.5% | 346.3hPa | 2.5V | 07:36:40 | 03:05:14 | 00:00:00 | |
| BIOWL1-15 | 2026-09-03 13:24:34 | 52.84111 | 10.04649 | 127° | 159km/h | 8436m | -3.2m/s | -32.8°C | 33.4% | 346hPa | 2.5V | 07:37:27 | 03:05:12 | 00:00:00 | |
| DL1XH-west | 2026-09-03 13:24:32 | 52.84158 | 10.04544 | 126° | 153km/h | 8442m | -2.8m/s | -32.8°C | 33.7% | 345.7hPa | 2.6V | 07:37:27 | 03:05:10 | 00:00:00 | |
| DF8AY | 2026-09-03 13:24:29 | 52.84223 | 10.04387 | 122° | 151km/h | 8450m | -2.4m/s | -32.7°C | 34.7% | 345.4hPa | 2.5V | 07:37:27 | 03:05:07 | 00:00:00 | |
| BIOWL1-15 | 2026-09-03 13:24:29 | 52.84348 | 10.04038 | 121° | 170km/h | 8464m | -2.5m/s | -32.6°C | 30.6% | 344.7hPa | 2.5V | 07:37:27 | 03:05:01 | 00:00:00 | |
| SONCRA | 2026-09-03 13:24:29 | 52.84243 | 10.04333 | 121° | 153km/h | 8452m | -2.5m/s | -32.8°C | 30.2% | 345.3hPa | 2.6V | 00:00:00 | 00:00:00 | 00:00:00 | |
| DL4BBY-15 | 2026-09-03 13:24:28 | 52.84243 | 10.04333 | 122° | 168km/h | 8452m | -2.4m/s | -31.9°C | 0% | 0hPa | 2.6V | 00:00:00 | 00:00:00 | 00:00:00 | |
| DO9LL-15 | 2026-09-03 13:24:27 | 52.84264 | 10.04276 | 121° | 164km/h | 8455m | -2.3m/s | -32.7°C | 32.7% | 345.1hPa | 2.6V | 00:00:00 | 03:05:05 | 00:00:00 | |
| DB0DAN | 2026-09-03 13:24:25 | 52.84305 | 10.04159 | 120° | 159km/h | 8459m | -2.4m/s | -32.7°C | 0% | 344.91hPa | 2.6V | 00:00:00 | 00:00:00 | 00:00:00 | |
| DB0DAN | 2026-09-03 13:24:25 | 52.84305 | 10.04159 | 120° | 159km/h | 8459m | -2.4m/s | -32.7°C | 28.1% | 344.91hPa | 2.6V | 00:00:00 | 00:00:00 | 00:00:00 | |
| AA1-15 | 2026-09-03 13:24:24 | 52.84327 | 10.04099 | 121° | 168km/h | 8462m | -2.6m/s | -32.6°C | 30.9% | 344.8hPa | 2.5V | 07:37:27 | 03:05:02 | 00:00:00 | |
| DL1XH-west | 2026-09-03 13:24:21 | 52.84393 | 10.03916 | 122° | 172km/h | 8469m | -2.8m/s | -32.6°C | 30.1% | 344.4hPa | 2.6V | 07:37:27 | 03:04:59 | 00:00:00 | |
| DF8AY | 2026-09-03 13:24:19 | 52.84439 | 10.03793 | 122° | 173km/h | 8476m | -3.4m/s | -32.6°C | 30% | 344hPa | 2.6V | 07:37:27 | 03:04:57 | 00:00:00 | |
| DF8AY-15 | 2026-09-03 13:24:18 | 52.84463 | 10.03731 | 123° | 168km/h | 8480m | -3.6m/s | -32.5°C | 28.1% | 343.9hPa | 2.5V | 00:00:00 | 03:04:56 | 00:00:00 | |
| DM0DOS-11 | 2026-09-03 13:24:16 | 52.84510 | 10.03608 | 122° | 175km/h | 8487m | -3.7m/s | -32.5°C | 27.6% | 343.6hPa | 2.5V | 07:37:00 | 03:04:54 | 00:00:00 | |
| BIOWL1-15 | 2026-09-03 13:24:15 | 52.84583 | 10.03423 | 124° | 175km/h | 8497m | -3.4m/s | -32.6°C | 29.9% | 343hPa | 2.6V | 07:37:27 | 03:04:51 | 00:00:00 | |
| AA1-15 | 2026-09-03 13:24:14 | 52.84559 | 10.03484 | 124° | 177km/h | 8494m | -3.1m/s | -32.6°C | 30.1% | 343.2hPa | 2.6V | 07:37:27 | 03:04:52 | 00:00:00 | |
| DO2SHX-10 | 2026-09-03 13:24:14 | 52.84558 | 10.03484 | 124° | 175km/h | 8494m | -3.1m/s | -32.5°C | 27.2% | 343.2hPa | 2.6V | 07:37:00 | 03:04:52 | 00:00:00 | |
| DL3AQ-11 | 2026-09-03 13:24:13 | 52.84608 | 10.03362 | 124° | 175km/h | 8500m | -3.6m/s | -32.6°C | 23.8% | 342.9hPa | 2.5V | 00:00:00 | 00:00:00 | 00:00:00 | |
| BUE01 | 2026-09-03 13:24:12 | 52.84608 | 10.03362 | 124° | 175km/h | 8500m | -3.6m/s | -32.6°C | 23.8% | 342.9hPa | 2.5V | 00:00:00 | 00:00:00 | 00:00:00 | |
| DB0DAN | 2026-09-03 13:24:10 | 52.84660 | 10.03244 | 127° | 166km/h | 8507m | -2.9m/s | -32.6°C | 0% | 342.51hPa | 2.5V | 00:00:00 | 00:00:00 | 00:00:00 | |
| DL1XH-west | 2026-09-03 13:24:10 | 52.84660 | 10.03244 | 127° | 173km/h | 8507m | -2.9m/s | -32.6°C | 28.3% | 342.5hPa | 2.5V | 07:37:27 | 03:04:48 | 00:00:00 | |
| DB0DAN | 2026-09-03 13:24:10 | 52.84660 | 10.03244 | 127° | 166km/h | 8507m | -2.9m/s | -32.6°C | 22.9% | 342.51hPa | 2.5V | 00:00:00 | 00:00:00 | 00:00:00 | |
| DF8AY | 2026-09-03 13:24:08 | 52.84713 | 10.03129 | 128° | 170km/h | 8513m | -3.4m/s | -32.6°C | 26.9% | 342.3hPa | 2.6V | 07:37:27 | 03:04:46 | 00:00:00 | |
| DO2SHX-10 | 2026-09-03 13:24:08 | 52.84712 | 10.03129 | 128° | 168km/h | 8513m | -3.3m/s | -32.5°C | 24.6% | 342.3hPa | 2.5V | 00:00:00 | 03:04:46 | 00:00:00 | |
| DL1XH-15 | 2026-09-03 13:24:07 | 52.84765 | 10.03018 | 128° | 166km/h | 8519m | -2.3m/s | -32.4°C | 24.3% | 342hPa | 2.5V | 07:37:10 | 03:04:44 | 00:00:00 | |
| AA1-15 | 2026-09-03 13:24:03 | 52.84841 | 10.02860 | 127° | 157km/h | 8526m | -2.2m/s | -32.5°C | 26.3% | 341.6hPa | 2.6V | 07:37:27 | 03:04:41 | 00:00:00 | |
| BIOWL1-15 | 2026-09-03 13:24:02 | 52.84864 | 10.02808 | 126° | 153km/h | 8528m | -2.5m/s | -32.5°C | 26.4% | 341.6hPa | 2.6V | 07:37:27 | 03:04:40 | 00:00:00 | |
| DL1XH-west | 2026-09-03 13:23:59 | 52.84931 | 10.02651 | 124° | 153km/h | 8535m | -1.9m/s | -32.7°C | 26.6% | 341.2hPa | 2.5V | 07:37:27 | 03:04:37 | 00:00:00 | |
| DF8AY | 2026-09-03 13:23:57 | 52.84973 | 10.02543 | 122° | 155km/h | 8539m | -2.7m/s | -32.7°C | 26.7% | 341hPa | 2.6V | 07:37:27 | 03:04:35 | 00:00:00 | |
| DM0DOS-11 | 2026-09-03 13:23:56 | 52.84994 | 10.02488 | 121° | 157km/h | 8542m | -2.5m/s | -32.7°C | 24.6% | 340.8hPa | 2.6V | 07:37:20 | 03:04:34 | 00:00:00 | |
| DB0DAN | 2026-09-03 13:23:55 | 52.85014 | 10.02431 | 121° | 153km/h | 8544m | -2.5m/s | 0°C | 0% | 340.77hPa | 2.6V | 00:00:00 | 00:00:00 | 00:00:00 | |
| DB0DAN | 2026-09-03 13:23:55 | 52.85014 | 10.02431 | 121° | 153km/h | 8544m | -2.5m/s | -32.7°C | 22% | 340.77hPa | 2.6V | 00:00:00 | 00:00:00 | 00:00:00 | |
| BIOWL1-15 | 2026-09-03 13:23:52 | 52.85079 | 10.02254 | 121° | 170km/h | 8552m | -2.8m/s | -32.8°C | 27.2% | 340.4hPa | 2.5V | 07:37:27 | 03:04:30 | 00:00:00 | |
| DL1XH-west | 2026-09-03 13:23:48 | 52.85174 | 10.02010 | 125° | 177km/h | 8562m | -2.3m/s | -33.1°C | 28.8% | 339.9hPa | 2.5V | 07:38:18 | 03:04:26 | 00:00:00 | |
| DF8AY | 2026-09-03 13:23:47 | 52.85200 | 10.01950 | 125° | 177km/h | 8564m | -2.1m/s | -33.1°C | 28.6% | 339.8hPa | 2.5V | 07:38:18 | 03:04:25 | 00:00:00 | |
| DL3AQ-11 | 2026-09-03 13:23:46 | 52.85253 | 10.01830 | 126° | 177km/h | 8568m | -2.4m/s | -33.0°C | 22.4% | 339.6hPa | 2.5V | 00:00:00 | 00:00:00 | 00:00:00 | |
| AA1-15 | 2026-09-03 13:23:42 | 52.85335 | 10.01655 | 128° | 173km/h | 8576m | -3.1m/s | -33°C | 27% | 339.2hPa | 2.5V | 07:38:18 | 03:04:20 | 00:00:00 | |
| BIOWL1-15 | 2026-09-03 13:23:41 | 52.85362 | 10.01598 | 129° | 172km/h | 8579m | -3.1m/s | -33°C | 27% | 339.1hPa | 2.5V | 07:38:18 | 03:04:19 | 00:00:00 | |
| DB0DAN | 2026-09-03 13:23:40 | 52.85389 | 10.01543 | 129° | 161km/h | 8582m | -3m/s | 0°C | 0% | 0hPa | 2.5V | 00:00:00 | 00:00:00 | 00:00:00 | |
| DB0DAN | 2026-09-03 13:23:40 | 52.85389 | 10.01543 | 129° | 161km/h | 8582m | -3m/s | -33°C | 22.4% | 338.96hPa | 2.5V | 00:00:00 | 00:00:00 | 00:00:00 | |
| DL1XH-west | 2026-09-03 13:23:38 | 52.85441 | 10.01436 | 129° | 161km/h | 8588m | -2.8m/s | -33°C | 27% | 338.7hPa | 2.6V | 07:38:18 | 03:04:16 | 00:00:00 | |
| DF8AY | 2026-09-03 13:23:36 | 52.85491 | 10.01331 | 128° | 159km/h | 8594m | -3m/s | -33.1°C | 27.3% | 338.4hPa | 2.5V | 07:38:18 | 03:04:14 | 00:00:00 | |
| BIOWL1-15 | 2026-09-03 13:23:32 | 52.85630 | 10.00998 | 123° | 170km/h | 8611m | -2.9m/s | -33.5°C | 27.7% | 337.6hPa | 2.5V | 07:38:18 | 03:04:08 | 00:00:00 | |
| AA1-15 | 2026-09-03 13:23:31 | 52.85607 | 10.01057 | 123° | 166km/h | 8608m | -2.9m/s | -33.4°C | 27.8% | 337.7hPa | 2.6V | 07:38:18 | 03:04:09 | 00:00:00 | |
| DL1XH-west | 2026-09-03 13:23:27 | 52.85700 | 10.00816 | 123° | 173km/h | 8620m | -2.9m/s | -33.6°C | 27.5% | 337.1hPa | 2.6V | 07:38:18 | 03:04:05 | 00:00:00 | |
| DF8AY | 2026-09-03 13:23:26 | 52.85724 | 10.00755 | 123° | 175km/h | 8623m | -3.1m/s | -33.6°C | 27.6% | 337hPa | 2.6V | 07:38:18 | 03:04:04 | 00:00:00 | |
| DB0DAN | 2026-09-03 13:23:25 | 52.85748 | 10.00693 | 123° | 168km/h | 8626m | -3.3m/s | 0°C | 0% | 0hPa | 2.6V | 00:00:00 | 00:00:00 | 00:00:00 | |
| DB0DAN | 2026-09-03 13:23:25 | 52.85748 | 10.00693 | 123° | 168km/h | 8626m | -3.3m/s | -33.5°C | 23.6% | 336.83hPa | 2.6V | 00:00:00 | 00:00:00 | 00:00:00 | |
| BIOWL1-15 | 2026-09-03 13:23:20 | 52.85875 | 10.00383 | 125° | 183km/h | 8642m | -3.4m/s | -33.3°C | 28.5% | 336.1hPa | 2.6V | 07:38:18 | 03:03:58 | 00:00:00 | |
| GOEST3-10 | 2026-09-03 13:23:20 | 52.85875 | 10.00382 | 126° | 184km/h | 8642m | -3.3m/s | -33.3°C | 26.4% | 336.0hPa | 2.6V | 00:00:00 | 00:00:00 | 00:00:00 | |
| DO2SHX-10 | 2026-09-03 13:23:19 | 52.85902 | 10.00320 | 126° | 184km/h | 8646m | -3.3m/s | -33.3°C | 26.4% | 335.8hPa | 2.6V | 07:37:00 | 03:03:57 | 00:00:00 | |
| DF8AY-15 | 2026-09-03 13:23:18 | 52.85929 | 10.00257 | 126° | 173km/h | 8649m | -3.3m/s | -33.4°C | 26.5% | 335.6hPa | 2.6V | 00:00:00 | 03:03:56 | 00:00:00 | |
| DL1XH-15 | 2026-09-03 13:23:17 | 52.85985 | 10.00133 | 127° | 184km/h | 8656m | -3.9m/s | -33.6°C | 26.6% | 335.4hPa | 2.6V | 07:38:00 | 03:03:54 | 00:00:00 | |
| DL1XH-west | 2026-09-03 13:23:17 | 52.85957 | 10.00195 | 126° | 186km/h | 8652m | -3.4m/s | -33.6°C | 28.9% | 335.6hPa | 2.6V | 07:38:18 | 03:03:55 | 00:00:00 | |
| DF8AY | 2026-09-03 13:23:15 | 52.86013 | 10.00072 | 128° | 184km/h | 8660m | -3.8m/s | -33.7°C | 28.9% | 335.2hPa | 2.5V | 07:38:18 | 03:03:53 | 00:00:00 | |
| BIOWL1-15 | 2026-09-03 13:23:12 | 52.86160 | 9.99779 | 131° | 177km/h | 8676m | -2.9m/s | -33.8°C | 29% | 334.4hPa | 2.5V | 07:38:18 | 03:03:48 | 00:00:00 | |
| DJ2DS-15 | 2026-09-03 13:23:12 | 52.86101 | 9.99893 | 130° | 181km/h | 8669m | -3.0m/s | -33.7°C | 24.0% | 334.7hPa | 2.6V | 00:00:00 | 00:00:00 | 00:00:00 | |
| DL1XH1-15 | 2026-09-03 13:23:11 | 52.86272 | 9.99563 | 129° | 166km/h | 8687m | -2.9m/s | -33.7°C | 26.9% | 333.9hPa | 2.6V | 07:38:10 | 03:03:44 | 00:00:00 | |
| DB0DAN | 2026-09-03 13:23:10 | 52.86160 | 9.99779 | 131° | 168km/h | 8676m | -2.9m/s | -33.8°C | 24.2% | 334.39hPa | 2.5V | 00:00:00 | 00:00:00 | 00:00:00 | |
| AA1-15 | 2026-09-03 13:23:09 | 52.86189 | 9.99724 | 131° | 173km/h | 8678m | -2.9m/s | -33.7°C | 29.1% | 334.3hPa | 2.5V | 07:38:18 | 03:03:47 | 00:00:00 | |
| DL1XH-west | 2026-09-03 13:23:07 | 52.86246 | 9.99616 | 130° | 168km/h | 8685m | -3m/s | -33.7°C | 29.2% | 334hPa | 2.6V | 07:38:18 | 03:03:45 | 00:00:00 | |
| DF8AY | 2026-09-03 13:23:05 | 52.86299 | 9.99509 | 129° | 164km/h | 8690m | -2.7m/s | -33.8°C | 29.2% | 333.8hPa | 2.5V | 07:38:18 | 03:03:43 | 00:00:00 | |
| BIOWL1-15 | 2026-09-03 13:22:59 | 52.86446 | 9.99174 | 124° | 172km/h | 8710m | -2.9m/s | -33.9°C | 28.9% | 332.8hPa | 2.5V | 07:38:18 | 03:03:37 | 00:00:00 | |
| DL4BBY-15 | 2026-09-03 13:22:58 | 52.86470 | 9.99114 | 124° | 177km/h | 8713m | -2.8m/s | -33.0°C | 0% | 0hPa | 2.6V | 00:00:00 | 00:00:00 | 00:00:00 | |
| DL1XH-15 | 2026-09-03 13:22:57 | 52.86520 | 9.98992 | 125° | 181km/h | 8718m | -2.7m/s | -33.9°C | 27.2% | 332.4hPa | 2.6V | 07:38:20 | 03:03:34 | 00:00:00 | |
| DL1XH-west | 2026-09-03 13:22:56 | 52.86520 | 9.98992 | 125° | 181km/h | 8718m | -2.7m/s | -33.9°C | 29.2% | 332.4hPa | 2.6V | 07:39:09 | 03:03:34 | 00:00:00 | |
| DB0DAN | 2026-09-03 13:22:55 | 52.86547 | 9.98930 | 126° | 173km/h | 8721m | -2.5m/s | -33.9°C | 24.4% | 332.27hPa | 2.6V | 00:00:00 | 00:00:00 | 00:00:00 | |
| DF8AY | 2026-09-03 13:22:54 | 52.86574 | 9.98869 | 127° | 184km/h | 8723m | -2.6m/s | -34°C | 29.3% | 332.1hPa | 2.6V | 07:39:09 | 03:03:32 | 00:00:00 | |
| BIOWL1-15 | 2026-09-03 13:22:48 | 52.86751 | 9.98507 | 130° | 186km/h | 8742m | -3.3m/s | -34°C | 29.5% | 331.2hPa | 2.5V | 07:39:09 | 03:03:26 | 00:00:00 | |
| DL1XH-15 | 2026-09-03 13:22:47 | 52.86812 | 9.98390 | 131° | 183km/h | 8749m | -3.6m/s | -34°C | 27.2% | 330.9hPa | 2.6V | 07:38:30 | 03:03:24 | 00:00:00 | |
| DL1XH-west | 2026-09-03 13:22:45 | 52.86843 | 9.98333 | 131° | 183km/h | 8753m | -3.3m/s | -34.1°C | 29.7% | 330.8hPa | 2.6V | 07:39:09 | 03:03:23 | 00:00:00 | |
| EDDB2-12 | 2026-09-03 13:22:44 | 52.86873 | 9.98276 | 131° | 181km/h | 8756m | -3.3m/s | -34.2°C | 24.5% | 330.6hPa | 2.5V | 00:00:00 | 00:00:00 | 00:00:00 | |
| DF8AY | 2026-09-03 13:22:43 | 52.86904 | 9.98220 | 132° | 179km/h | 8759m | -3.2m/s | -34.2°C | 29.8% | 330.5hPa | 2.5V | 07:39:09 | 03:03:21 | 00:00:00 | |
| DO2SHX-10 | 2026-09-03 13:22:43 | 52.86904 | 9.98220 | 133° | 177km/h | 8759m | -3.1m/s | -34.1°C | 27.6% | 330.4hPa | 2.5V | 00:00:00 | 03:03:21 | 00:00:00 | |
| DL2RXE-15 | 2026-09-03 13:22:42 | 52.86904 | 9.98220 | 133° | 179km/h | 8759m | -3.2m/s | 0°C | 0% | 0hPa | 2.5V | 00:00:00 | 00:00:00 | 00:00:00 | |
| DB0DAN | 2026-09-03 13:22:40 | 52.86994 | 9.98058 | 132° | 162km/h | 8768m | -3.6m/s | -34.3°C | 25.1% | 329.98hPa | 2.5V | 00:00:00 | 00:00:00 | 00:00:00 | |
| DO2SHX-10 | 2026-09-03 13:22:40 | 52.86993 | 9.98058 | 133° | 168km/h | 8769m | -3.5m/s | -34.2°C | 28.1% | 329.9hPa | 2.5V | 00:00:00 | 03:03:18 | 00:00:00 | |
| DB0UT-7 | 2026-09-03 13:22:39 | 52.87022 | 9.98005 | 132° | 181km/h | 8772m | -3.0m/s | -34.1°C | 27.9% | 329.8hPa | 2.5V | 00:00:00 | 03:03:17 | 00:00:00 | |
| DF8AY-15 | 2026-09-03 13:22:38 | 52.87049 | 9.97953 | 131° | 181km/h | 8775m | -3.1m/s | -34.3°C | 28.2% | 329.6hPa | 2.5V | 00:00:00 | 03:03:16 | 00:00:00 | |
| DL1XH-15 | 2026-09-03 13:22:37 | 52.87102 | 9.97846 | 127° | 164km/h | 8781m | -3.5m/s | -34.5°C | 28% | 329.4hPa | 2.6V | 07:38:40 | 03:03:14 | 00:00:00 | |
| BIOWL1-15 | 2026-09-03 13:22:37 | 52.87076 | 9.97900 | 129° | 164km/h | 8778m | -3.1m/s | -34.4°C | 30.4% | 329.5hPa | 2.6V | 07:39:09 | 03:03:15 | 00:00:00 | |
| DL1XH-west | 2026-09-03 13:22:35 | 52.87127 | 9.97791 | 127° | 166km/h | 8785m | -3.6m/s | -34.5°C | 30.2% | 329.3hPa | 2.6V | 07:39:09 | 03:03:13 | 00:00:00 | |
| DF8AY | 2026-09-03 13:22:33 | 52.87178 | 9.97676 | 126° | 173km/h | 8792m | -3.5m/s | -34.6°C | 30.1% | 328.9hPa | 2.5V | 07:39:09 | 03:03:11 | 00:00:00 | |
| DO2SHX-10 | 2026-09-03 13:22:31 | 52.87230 | 9.97556 | 127° | 183km/h | 8799m | -3.6m/s | -34.6°C | 28.7% | 328.5hPa | 2.5V | 00:00:00 | 03:03:09 | 00:00:00 | |
| GOEST3-10 | 2026-09-03 13:22:30 | 52.87258 | 9.97495 | 127° | 186km/h | 8803m | -3.4m/s | -34.6°C | 28.9% | 328.3hPa | 2.5V | 07:38:00 | 00:00:00 | 00:00:00 | |
| DO2SHX-10 | 2026-09-03 13:22:28 | 52.87314 | 9.97373 | 128° | 186km/h | 8810m | -3.3m/s | -34.6°C | 29.0% | 328.1hPa | 2.5V | 07:38:00 | 03:03:06 | 00:00:00 | |
| DL1XH-15 | 2026-09-03 13:22:27 | 52.87372 | 9.97249 | 128° | 188km/h | 8817m | -4m/s | -34.7°C | 29.1% | 327.7hPa | 2.5V | 07:38:50 | 03:03:04 | 00:00:00 | |
| AA1-15 | 2026-09-03 13:22:26 | 52.87372 | 9.97249 | 128° | 188km/h | 8817m | -4m/s | -34.7°C | 31% | 327.7hPa | 2.5V | 07:39:09 | 03:03:04 | 00:00:00 | |
| DB0DAN | 2026-09-03 13:22:25 | 52.87401 | 9.97187 | 128° | 179km/h | 8821m | -3.8m/s | -34.8°C | 26.2% | 327.53hPa | 2.6V | 00:00:00 | 00:00:00 | 00:00:00 | |
| DL1XH-west | 2026-09-03 13:22:24 | 52.87431 | 9.97126 | 128° | 188km/h | 8825m | -3.6m/s | -34.8°C | 31.4% | 327.4hPa | 2.6V | 07:39:09 | 03:03:02 | 00:00:00 | |
| DF8AY | 2026-09-03 13:22:23 | 52.87461 | 9.97064 | 129° | 190km/h | 8828m | -3.4m/s | -34.8°C | 31.5% | 327.2hPa | 2.5V | 07:39:09 | 03:03:01 | 00:00:00 | |
| DO2SHX-10 | 2026-09-03 13:22:22 | 52.87491 | 9.97002 | 130° | 192km/h | 8832m | -3.3m/s | -34.8°C | 29.0% | 327.0hPa | 2.6V | 00:00:00 | 03:03:00 | 00:00:00 | |
| DJ2DS-15 | 2026-09-03 13:22:21 | 52.87521 | 9.96940 | 130° | 183km/h | 8835m | -3.6m/s | -34.9°C | 28.9% | 326.8hPa | 2.6V | 00:00:00 | 03:02:59 | 00:00:00 | |
| GOEST3-10 | 2026-09-03 13:22:20 | 52.87553 | 9.96879 | 131° | 192km/h | 8839m | -3.6m/s | -34.9°C | 28.9% | 326.7hPa | 2.6V | 00:00:00 | 00:00:00 | 00:00:00 | |
| DO2SHX-10 | 2026-09-03 13:22:19 | 52.87584 | 9.96818 | 131° | 192km/h | 8843m | -3.7m/s | -34.8°C | 28.7% | 326.4hPa | 2.6V | 00:00:00 | 03:02:57 | 00:00:00 | |
| DF8AY-15 | 2026-09-03 13:22:18 | 52.87616 | 9.96757 | 132° | 183km/h | 8846m | -3.8m/s | -34.9°C | 28.7% | 326.3hPa | 2.6V | 00:00:00 | 03:02:56 | 00:00:00 | |
| DL1XH-15 | 2026-09-03 13:22:17 | 52.87681 | 9.96640 | 133° | 188km/h | 8854m | -3.6m/s | -35°C | 29.1% | 325.9hPa | 2.6V | 07:39:00 | 03:02:54 | 00:00:00 | |
| BIOWL1-15 | 2026-09-03 13:22:16 | 52.87681 | 9.96640 | 133° | 188km/h | 8854m | -3.6m/s | -35°C | 31.1% | 325.9hPa | 2.6V | 07:39:09 | 03:02:54 | 00:00:00 | |
| AA1-15 | 2026-09-03 13:22:15 | 52.87714 | 9.96583 | 134° | 186km/h | 8857m | -3.4m/s | -35°C | 31.2% | 325.8hPa | 2.6V | 07:39:09 | 03:02:53 | 00:00:00 | |
| DL1XH-west | 2026-09-03 13:22:13 | 52.87778 | 9.96473 | 134° | 179km/h | 8864m | -3.7m/s | -35.1°C | 31.3% | 325.5hPa | 2.5V | 07:39:09 | 03:02:51 | 00:00:00 | |
| DF8AY | 2026-09-03 13:22:12 | 52.87808 | 9.96420 | 133° | 175km/h | 8868m | -3.7m/s | -35.2°C | 31.6% | 325.3hPa | 2.5V | 07:39:09 | 03:02:50 | 00:00:00 | |
| DB0DAN | 2026-09-03 13:22:10 | 52.87867 | 9.96314 | 131° | 162km/h | 8875m | -3.6m/s | -35.3°C | 27.2% | 325.04hPa | 2.6V | 00:00:00 | 00:00:00 | 00:00:00 | |
| DO2SHX-10 | 2026-09-03 13:22:10 | 52.87867 | 9.96314 | 132° | 172km/h | 8875m | -3.5m/s | -35.2°C | 30.4% | 325.0hPa | 2.5V | 00:00:00 | 03:02:48 | 00:00:00 | |
| DB0UT-7 | 2026-09-03 13:22:09 | 52.87895 | 9.96260 | 130° | 190km/h | 8879m | -3.4m/s | -35.3°C | 30.3% | 324.7hPa | 2.5V | 00:00:00 | 00:00:00 | 00:00:00 | |
| DL1XH-15 | 2026-09-03 13:22:07 | 52.87976 | 9.96089 | 127° | 177km/h | 8889m | -3.9m/s | -35.5°C | 30.6% | 324.3hPa | 2.5V | 07:39:10 | 03:02:44 | 00:00:00 | |
| AA1-15 | 2026-09-03 13:22:05 | 52.88004 | 9.96029 | 127° | 181km/h | 8893m | -3.9m/s | -35.5°C | 32% | 324.2hPa | 2.5V | 07:40:00 | 03:02:43 | 00:00:00 | |
| DL1XH-west | 2026-09-03 13:22:02 | 52.88088 | 9.95844 | 128° | 190km/h | 8904m | -3.4m/s | -35.4°C | 32% | 323.7hPa | 2.5V | 07:40:00 | 03:02:40 | 00:00:00 | |
| DL3AQ-11 | 2026-09-03 13:22:02 | 52.88118 | 9.95781 | 128° | 190km/h | 8907m | -3.5m/s | -35.4°C | 27.2% | 323.5hPa | 2.5V | 00:00:00 | 00:00:00 | 00:00:00 | |
| DJ2DS-15 | 2026-09-03 13:22:01 | 52.88118 | 9.95781 | 129° | 193km/h | 8907m | -3.5m/s | -35.4°C | 30.4% | 323.4hPa | 2.5V | 00:00:00 | 03:02:39 | 00:00:00 | |
| DM0DOS-11 | 2026-09-03 13:22:00 | 52.88306 | 9.95404 | 130° | 197km/h | 8928m | -3.5m/s | -35.4°C | 31.1% | 322.5hPa | 2.5V | 07:39:21 | 03:02:33 | 00:00:00 | |
| BIOWL1-15 | 2026-09-03 13:21:56 | 52.88339 | 9.95341 | 131° | 197km/h | 8932m | -3.8m/s | -35.4°C | 32.9% | 322.3hPa | 2.5V | 07:40:00 | 03:02:32 | 00:00:00 | |
| AA1-15 | 2026-09-03 13:21:55 | 52.88306 | 9.95404 | 131° | 197km/h | 8928m | -3.5m/s | -35.4°C | 32.7% | 322.5hPa | 2.5V | 07:40:00 | 03:02:33 | 00:00:00 | |
| DB0DAN | 2026-09-03 13:21:55 | 52.88306 | 9.95404 | 131° | 188km/h | 8928m | -3.5m/s | -35.4°C | 27.8% | 322.49hPa | 2.5V | 00:00:00 | 00:00:00 | 00:00:00 | |
| DL1XH-west | 2026-09-03 13:21:51 | 52.88438 | 9.95157 | 132° | 197km/h | 8943m | -3.5m/s | -35.6°C | 33.2% | 321.8hPa | 2.6V | 07:40:00 | 03:02:29 | 00:00:00 | |
| BIOWL1-15 | 2026-09-03 13:21:44 | 52.88677 | 9.94747 | 135° | 190km/h | 8967m | -3.5m/s | -35.8°C | 33% | 320.7hPa | 2.5V | 07:40:00 | 03:02:22 | 00:00:00 | |
| DF8AY | 2026-09-03 13:21:41 | 52.88778 | 9.94582 | 135° | 184km/h | 8977m | -3.4m/s | -35.7°C | 33.1% | 320.2hPa | 2.5V | 07:40:00 | 03:02:19 | 00:00:00 | |
| DL1XH-west | 2026-09-03 13:21:40 | 52.88811 | 9.94528 | 135° | 181km/h | 8981m | -3.5m/s | -35.6°C | 33.3% | 320hPa | 2.5V | 07:40:00 | 03:02:18 | 00:00:00 | |
| DM0DOS-11 | 2026-09-03 13:21:40 | 52.88964 | 9.94256 | 130° | 177km/h | 8997m | -3.3m/s | -35.8°C | 33.1% | 319.3hPa | 2.5V | 07:39:41 | 03:02:13 | 00:00:00 | |
| DB0DAN | 2026-09-03 13:21:40 | 52.88811 | 9.94528 | 135° | 173km/h | 8981m | -3.5m/s | -35.6°C | 28.3% | 320hPa | 2.5V | 00:00:00 | 00:00:00 | 00:00:00 | |
| AA1-15 | 2026-09-03 13:21:34 | 52.88993 | 9.94200 | 130° | 179km/h | 9001m | -3.3m/s | -35.9°C | 35% | 319.1hPa | 2.5V | 07:40:00 | 03:02:12 | 00:00:00 | |
| BIOWL1-15 | 2026-09-03 13:21:33 | 52.89022 | 9.94142 | 129° | 179km/h | 9004m | -3.5m/s | -35.9°C | 35.3% | 318.9hPa | 2.5V | 07:40:00 | 03:02:11 | 00:00:00 | |
| DF7ER-10 | 2026-09-03 13:21:32 | 52.89022 | 9.94142 | 130° | 179km/h | 9004m | -3.5m/s | -35.9°C | 0% | 0hPa | 2.5V | 00:00:00 | 00:00:00 | 00:00:00 | |
| DL1XH1-15 | 2026-09-03 13:21:31 | 52.89232 | 9.93713 | 130° | 197km/h | 9028m | -3.1m/s | -36.1°C | 33.6% | 317.9hPa | 2.5V | 07:39:50 | 03:02:04 | 00:00:00 | |
| DF8AY | 2026-09-03 13:21:30 | 52.89109 | 9.93962 | 129° | 188km/h | 9015m | -3.4m/s | -36.1°C | 35.7% | 318.5hPa | 2.5V | 07:40:00 | 03:02:08 | 00:00:00 | |
| DL1XH-west | 2026-09-03 13:21:29 | 52.89138 | 9.93901 | 129° | 190km/h | 9018m | -3.4m/s | -36.1°C | 35.9% | 318.4hPa | 2.5V | 07:40:00 | 03:02:07 | 00:00:00 | |
| DO2SHX-10 | 2026-09-03 13:21:28 | 52.89169 | 9.93838 | 130° | 195km/h | 9021m | -3.4m/s | -36.0°C | 33.5% | 318.1hPa | 2.5V | 00:00:00 | 03:02:06 | 00:00:00 | |
| DB0DAN | 2026-09-03 13:21:25 | 52.89265 | 9.93650 | 132° | 190km/h | 9031m | -3.4m/s | -36.1°C | 30.1% | 317.71hPa | 2.5V | 00:00:00 | 00:00:00 | 00:00:00 | |
| BIOWL1-15 | 2026-09-03 13:21:23 | 52.89333 | 9.93528 | 133° | 199km/h | 9038m | -3.3m/s | -36.2°C | 36.1% | 317.4hPa | 2.6V | 07:40:00 | 03:02:01 | 00:00:00 | |
| DO2SHX-10 | 2026-09-03 13:21:22 | 52.89368 | 9.93468 | 135° | 195km/h | 9041m | -3.4m/s | -36.1°C | 34.4% | 317.2hPa | 2.6V | 00:00:00 | 03:02:00 | 00:00:00 | |
| DJ2DS-15 | 2026-09-03 13:21:21 | 52.89402 | 9.93409 | 135° | 184km/h | 9045m | -3.3m/s | -36.2°C | 34.4% | 317.0hPa | 2.5V | 00:00:00 | 03:01:59 | 00:00:00 | |
| DM0DOS-11 | 2026-09-03 13:21:20 | 52.89610 | 9.93073 | 136° | 188km/h | 9064m | -3.5m/s | -36.4°C | 35.3% | 316.1hPa | 2.5V | 07:40:01 | 03:01:53 | 00:00:00 | |
| DF8AY | 2026-09-03 13:21:20 | 52.89437 | 9.93352 | 135° | 193km/h | 9048m | -3.4m/s | -36.3°C | 36.4% | 317hPa | 2.5V | 07:40:00 | 03:01:58 | 00:00:00 | |
| DL1XH-west | 2026-09-03 13:21:18 | 52.89507 | 9.93238 | 136° | 192km/h | 9054m | -3.4m/s | -36.3°C | 36.6% | 316.6hPa | 2.5V | 07:40:00 | 03:01:56 | 00:00:00 | |
| DF8AY-15 | 2026-09-03 13:21:18 | 52.89507 | 9.93238 | 136° | 181km/h | 9054m | -3.4m/s | -36.3°C | 35.0% | 316.6hPa | 2.6V | 00:00:00 | 03:01:56 | 00:00:00 | |
| DL1XH-15 | 2026-09-03 13:21:17 | 52.89576 | 9.93128 | 136° | 190km/h | 9061m | -3.4m/s | -36.4°C | 35.3% | 316.3hPa | 2.6V | 07:40:00 | 03:01:54 | 00:00:00 | |
| BIOWL1-15 | 2026-09-03 13:21:14 | 52.89712 | 9.92912 | 136° | 184km/h | 9075m | -3.5m/s | -36.5°C | 36.8% | 315.7hPa | 2.6V | 07:40:51 | 03:01:50 | 00:00:00 | |
| AA1-15 | 2026-09-03 13:21:13 | 52.89678 | 9.92966 | 136° | 184km/h | 9072m | -3.5m/s | -36.5°C | 36.8% | 315.9hPa | 2.6V | 07:40:51 | 03:01:51 | 00:00:00 | |
| DO2SHX-10 | 2026-09-03 13:21:13 | 52.89678 | 9.92966 | 137° | 184km/h | 9072m | -3.5m/s | -36.4°C | 35.7% | 315.9hPa | 2.6V | 00:00:00 | 03:01:51 | 00:00:00 | |
| SMARD9-15 | 2026-09-03 13:21:12 | 52.89712 | 9.92912 | 136° | 183km/h | 9075m | -3.5m/s | -36.5°C | 32.1% | 315.7hPa | 2.6V | 00:00:00 | 00:00:00 | 00:00:00 | |
| DL1XH1-15 | 2026-09-03 13:21:11 | 52.89907 | 9.92597 | 134° | 175km/h | 9096m | -3.5m/s | -36.7°C | 36.3% | 314.8hPa | 2.6V | 07:40:10 | 03:01:44 | 00:00:00 | |
| DM0DOS-11 | 2026-09-03 13:21:10 | 52.89938 | 9.92544 | 133° | 175km/h | 9099m | -3.5m/s | -36.8°C | 36.1% | 314.6hPa | 2.5V | 07:40:11 | 03:01:43 | 00:00:00 | |
| DB0DAN | 2026-09-03 13:21:10 | 52.89779 | 9.92806 | 136° | 173km/h | 9082m | -3.5m/s | -36.6°C | 32.4% | 315.42hPa | 2.5V | 00:00:00 | 00:00:00 | 00:00:00 | |
| DF8AY | 2026-09-03 13:21:09 | 52.89811 | 9.92754 | 136° | 179km/h | 9085m | -3.5m/s | -36.6°C | 37.3% | 315.2hPa | 2.5V | 07:40:51 | 03:01:47 | 00:00:00 | |
| DL1XH-west | 2026-09-03 13:21:07 | 52.89876 | 9.92649 | 135° | 177km/h | 9092m | -3.4m/s | -36.7°C | 37.5% | 314.9hPa | 2.6V | 07:40:51 | 03:01:45 | 00:00:00 | |
| BIOWL1-15 | 2026-09-03 13:21:05 | 52.90028 | 9.92383 | 131° | 175km/h | 9110m | -3.6m/s | -36.8°C | 37% | 314.2hPa | 2.6V | 07:40:51 | 03:01:40 | 00:00:00 | |
| AA1-15 | 2026-09-03 13:21:03 | 52.89998 | 9.92438 | 132° | 175km/h | 9106m | -3.4m/s | -36.8°C | 37.1% | 314.2hPa | 2.5V | 07:40:51 | 03:01:41 | 00:00:00 | |
| DJ2DS-15 | 2026-09-03 13:21:01 | 52.90057 | 9.92327 | 131° | 190km/h | 9114m | -3.4m/s | -36.9°C | 35.2% | 313.9hPa | 2.6V | 00:00:00 | 03:01:39 | 00:00:00 | |
| DM0DOS-11 | 2026-09-03 13:21:00 | 52.90235 | 9.91975 | 130° | 192km/h | 9134m | -3.3m/s | -37.1°C | 33.2% | 313.1hPa | 2.6V | 07:40:21 | 03:01:33 | 00:00:00 | |
| DF8AY | 2026-09-03 13:20:58 | 52.90144 | 9.92155 | 130° | 183km/h | 9124m | -3.5m/s | -37°C | 36% | 313.5hPa | 2.5V | 07:40:51 | 03:01:36 | 00:00:00 | |
| DL1XH-15 | 2026-09-03 13:20:58 | 52.90204 | 9.92035 | 129° | 188km/h | 9130m | -3.4m/s | -37°C | 33.4% | 313.2hPa | 2.6V | 07:40:20 | 03:01:34 | 00:00:00 | |
| DL1LOL-11 | 2026-09-03 13:20:57 | 52.90144 | 9.92155 | 130° | 183km/h | 9124m | -3.5m/s | -37.0°C | 30.3% | 313.5hPa | 2.6V | 00:00:00 | 00:00:00 | 00:00:00 | |
| DL1XH-west | 2026-09-03 13:20:57 | 52.90174 | 9.92096 | 129° | 186km/h | 9127m | -3.4m/s | -37°C | 35.8% | 313.3hPa | 2.6V | 07:40:51 | 03:01:35 | 00:00:00 | |
| DB0DAN | 2026-09-03 13:20:55 | 52.90235 | 9.91975 | 130° | 183km/h | 9134m | -3.3m/s | -37.1°C | 29.5% | 313.09hPa | 2.6V | 00:00:00 | 00:00:00 | 00:00:00 | |
| BIOWL1-15 | 2026-09-03 13:20:52 | 52.90332 | 9.91791 | 133° | 195km/h | 9144m | -3.1m/s | -37.1°C | 34.7% | 312.6hPa | 2.5V | 07:40:51 | 03:01:30 | 00:00:00 | |
| SONCRA | 2026-09-03 13:20:51 | 52.90365 | 9.91731 | 133° | 195km/h | 9147m | -3.4m/s | -37.1°C | 28.9% | 312.5hPa | 2.5V | 00:00:00 | 00:00:00 | 00:00:00 | |
| DM0DOS-11 | 2026-09-03 13:20:50 | 52.90574 | 9.91389 | 136° | 190km/h | 9167m | -3.4m/s | -37.2°C | 31% | 311.5hPa | 2.5V | 07:40:31 | 03:01:23 | 00:00:00 | |
| DF8AY | 2026-09-03 13:20:47 | 52.90504 | 9.91500 | 136° | 193km/h | 9160m | -3.5m/s | -37.2°C | 33.6% | 311.9hPa | 2.6V | 07:40:51 | 03:01:25 | 00:00:00 | |
| DL1XH-west | 2026-09-03 13:20:46 | 52.90539 | 9.91444 | 136° | 192km/h | 9164m | -3.4m/s | -37.2°C | 33.3% | 311.7hPa | 2.6V | 07:40:51 | 03:01:24 | 00:00:00 | |
| AA1-15 | 2026-09-03 13:20:42 | 52.90678 | 9.91229 | 137° | 184km/h | 9178m | -3.2m/s | -37.3°C | 32.1% | 311hPa | 2.6V | 07:40:51 | 03:01:20 | 00:00:00 | |
| BIOWL1-15 | 2026-09-03 13:20:41 | 52.90712 | 9.91177 | 137° | 183km/h | 9181m | -3.2m/s | -37.4°C | 31.8% | 310.9hPa | 2.6V | 07:40:51 | 03:01:19 | 00:00:00 | |
| DJ2DS-15 | 2026-09-03 13:20:41 | 52.90712 | 9.91177 | 138° | 183km/h | 9181m | -3.2m/s | -37.3°C | 30.2% | 310.8hPa | 2.6V | 00:00:00 | 03:01:19 | 00:00:00 | |
| DM0DOS-11 | 2026-09-03 13:20:40 | 52.90904 | 9.90868 | 133° | 173km/h | 9199m | -3m/s | -37.5°C | 29.8% | 310hPa | 2.6V | 07:40:41 | 03:01:13 | 00:00:00 | |
| DB0DAN | 2026-09-03 13:20:40 | 52.90745 | 9.91125 | 137° | 172km/h | 9184m | -3.2m/s | -37.4°C | 26.7% | 310.78hPa | 2.6V | 00:00:00 | 00:00:00 | 00:00:00 | |
| DO2SHX-10 | 2026-09-03 13:20:40 | 52.90745 | 9.91125 | 137° | 177km/h | 9184m | -3.2m/s | -37.3°C | 30.2% | 310.7hPa | 2.6V | 00:00:00 | 03:01:18 | 00:00:00 | |
| DL1XH-15 | 2026-09-03 13:20:38 | 52.90873 | 9.90920 | 134° | 173km/h | 9196m | -3.3m/s | -37.5°C | 30.1% | 310.2hPa | 2.6V | 07:40:40 | 03:01:14 | 00:00:00 | |
| DF8AY | 2026-09-03 13:20:37 | 52.90842 | 9.90971 | 135° | 175km/h | 9193m | -3.3m/s | -37.5°C | 31.3% | 310.3hPa | 2.5V | 07:40:51 | 03:01:15 | 00:00:00 | |
| DL1XH-west | 2026-09-03 13:20:35 | 52.90904 | 9.90868 | 134° | 173km/h | 9200m | -3m/s | -37.6°C | 31.3% | 310hPa | 2.6V | 07:40:51 | 03:01:13 | 00:00:00 | |
| AA1-15 | 2026-09-03 13:20:32 | 52.90993 | 9.90706 | 131° | 177km/h | 9210m | -3.3m/s | -37.8°C | 31.6% | 309.6hPa | 2.5V | 07:40:51 | 03:01:10 | 00:00:00 | |
| DO2SHX-10 | 2026-09-03 13:20:31 | 52.91023 | 9.90649 | 131° | 183km/h | 9213m | -3.4m/s | -37.8°C | 30.4% | 309.4hPa | 2.6V | 00:00:00 | 03:01:09 | 00:00:00 | |
| DM0DOS-11 | 2026-09-03 13:20:30 | 52.91207 | 9.90294 | 131° | 193km/h | 9234m | -3.5m/s | -37.9°C | 32.4% | 308.5hPa | 2.6V | 07:40:51 | 03:01:03 | 00:00:00 | |
| DL1XH1-15 | 2026-09-03 13:20:30 | 52.91175 | 9.90354 | 130° | 192km/h | 9230m | -3.6m/s | -37.9°C | 32.5% | 308.6hPa | 2.5V | 07:40:50 | 03:01:04 | 00:00:00 | |
| BIOWL1-15 | 2026-09-03 13:20:30 | 52.91052 | 9.90592 | 130° | 183km/h | 9216m | -3.5m/s | -37.9°C | 32.3% | 309.3hPa | 2.6V | 07:40:51 | 03:01:08 | 00:00:00 | |
| DF8AY | 2026-09-03 13:20:27 | 52.91143 | 9.90415 | 131° | 190km/h | 9227m | -3.5m/s | -37.9°C | 33.7% | 308.9hPa | 2.5V | 07:40:51 | 03:01:05 | 00:00:00 | |
| DL1XH-west | 2026-09-03 13:20:25 | 52.91207 | 9.90294 | 131° | 193km/h | 9234m | -3.5m/s | -37.9°C | 34.3% | 308.5hPa | 2.6V | 07:40:51 | 03:01:03 | 00:00:00 | |
| AA1-15 | 2026-09-03 13:20:21 | 52.91340 | 9.90051 | 133° | 197km/h | 9248m | -3.7m/s | -38°C | 35.8% | 307.9hPa | 2.5V | 07:41:42 | 03:00:59 | 00:00:00 | |
| DJ2DS-15 | 2026-09-03 13:20:21 | 52.91340 | 9.90051 | 134° | 186km/h | 9248m | -3.7m/s | -37.9°C | 33.4% | 307.8hPa | 2.5V | 07:40:00 | 03:00:59 | 00:00:00 | |
| DM0DOS-11 | 2026-09-03 13:20:20 | 52.91551 | 9.89701 | 137° | 193km/h | 9270m | -3.4m/s | -38.1°C | 35% | 307hPa | 2.5V | 07:41:01 | 03:00:53 | 00:00:00 | |
| DF5WG-10 | 2026-09-03 13:20:20 | 52.91374 | 9.89990 | 134° | 183km/h | 9252m | -3.6m/s | -38.0°C | 33.4% | 307.6hPa | 2.6V | 07:40:00 | 03:00:58 | 00:00:00 | |
| DO2SHX-10 | 2026-09-03 13:20:19 | 52.91408 | 9.89931 | 135° | 197km/h | 9256m | -3.5m/s | -38.0°C | 33.5% | 307.5hPa | 2.6V | 00:00:00 | 03:00:57 | 00:00:00 | |
| DF8AY-15 | 2026-09-03 13:20:18 | 52.91444 | 9.89872 | 136° | 184km/h | 9259m | -3.5m/s | -38.0°C | 33.8% | 307.4hPa | 2.5V | 00:00:00 | 03:00:56 | 00:00:00 | |
| DL1XH-15 | 2026-09-03 13:20:17 | 52.91515 | 9.89757 | 136° | 195km/h | 9266m | -3.6m/s | -38.1°C | 34.6% | 307.1hPa | 2.5V | 07:41:00 | 03:00:54 | 00:00:00 | |
| DF8AY | 2026-09-03 13:20:16 | 52.91515 | 9.89757 | 136° | 195km/h | 9266m | -3.7m/s | -38.1°C | 36.4% | 307.1hPa | 2.5V | 07:41:42 | 03:00:54 | 00:00:00 | |
| DL1XH-west | 2026-09-03 13:20:14 | 52.91587 | 9.89646 | 137° | 192km/h | 9273m | -3.4m/s | -38.2°C | 36.7% | 306.8hPa | 2.6V | 07:41:42 | 03:00:52 | 00:00:00 | |
| AA1-15 | 2026-09-03 13:20:11 | 52.91691 | 9.89488 | 137° | 181km/h | 9284m | -3.6m/s | -38.3°C | 37.6% | 306.3hPa | 2.5V | 07:41:42 | 03:00:49 | 00:00:00 | |
| BIOWL1-15 | 2026-09-03 13:20:10 | 52.91789 | 9.89335 | 136° | 175km/h | 9295m | -3.7m/s | -38.4°C | 38.6% | 305.8hPa | 2.6V | 07:41:42 | 03:00:46 | 00:00:00 | |
| DM0DOS-11 | 2026-09-03 13:20:10 | 52.91882 | 9.89177 | 132° | 177km/h | 9305m | -3.4m/s | -38.5°C | 38.8% | 305.3hPa | 2.5V | 07:41:11 | 03:00:43 | 00:00:00 | |
| DB0DAN | 2026-09-03 13:20:10 | 52.91724 | 9.89437 | 137° | 170km/h | 9288m | -3.7m/s | -38.4°C | 33.2% | 306.17hPa | 2.5V | 00:00:00 | 00:00:00 | 00:00:00 | |
| DL1XH1-15 | 2026-09-03 13:20:10 | 52.91851 | 9.89230 | 133° | 175km/h | 9302m | -3.3m/s | -38.5°C | 38.6% | 305.5hPa | 2.5V | 07:41:10 | 03:00:44 | 00:00:00 | |
| DF8AY | 2026-09-03 13:20:06 | 52.91851 | 9.89230 | 134° | 175km/h | 9302m | -3.3m/s | -38.5°C | 39.4% | 305.5hPa | 2.5V | 07:41:42 | 03:00:44 | 00:00:00 | |
| DL1XH-west | 2026-09-03 13:20:04 | 52.91912 | 9.89122 | 132° | 179km/h | 9309m | -3.4m/s | -38.7°C | 40.1% | 305.2hPa | 2.5V | 07:41:42 | 03:00:42 | 00:00:00 | |
| AA1-15 | 2026-09-03 13:20:01 | 52.92003 | 9.88950 | 131° | 186km/h | 9319m | -3.4m/s | -38.7°C | 40.6% | 304.7hPa | 2.5V | 07:41:42 | 03:00:39 | 00:00:00 | |
| BIOWL1-15 | 2026-09-03 13:19:58 | 52.92098 | 9.88769 | 131° | 193km/h | 9329m | -3.3m/s | -38.8°C | 39.9% | 304.2hPa | 2.6V | 07:41:42 | 03:00:36 | 00:00:00 | |
| DF8AY-15 | 2026-09-03 13:19:58 | 52.92098 | 9.88769 | 132° | 188km/h | 9329m | -3.2m/s | -38.7°C | 38.5% | 304.2hPa | 2.5V | 00:00:00 | 03:00:36 | 00:00:00 | |
| DM0DOS-11 | 2026-09-03 13:19:56 | 52.92199 | 9.88586 | 133° | 199km/h | 9339m | -3.3m/s | -38.8°C | 39.2% | 303.8hPa | 2.5V | 07:41:21 | 03:00:33 | 00:00:00 | |
| DF8AY | 2026-09-03 13:19:55 | 52.92199 | 9.88586 | 134° | 199km/h | 9339m | -3.3m/s | -38.8°C | 40.2% | 303.9hPa | 2.5V | 07:41:42 | 03:00:33 | 00:00:00 | |
| DB0DAN | 2026-09-03 13:19:55 | 52.92199 | 9.88586 | 134° | 190km/h | 9339m | -3.3m/s | -38.8°C | 34.9% | 303.85hPa | 2.5V | 00:00:00 | 00:00:00 | 00:00:00 | |
| DL1XH-west | 2026-09-03 13:19:53 | 52.92269 | 9.88467 | 135° | 199km/h | 9346m | -3.5m/s | -38.8°C | 40.8% | 303.5hPa | 2.5V | 07:41:42 | 03:00:31 | 00:00:00 | |
| AA1-15 | 2026-09-03 13:19:51 | 52.92341 | 9.88352 | 137° | 197km/h | 9352m | -3.4m/s | -38.9°C | 41% | 303.2hPa | 2.6V | 07:41:42 | 03:00:29 | 00:00:00 | |
| DM0DOS-11 | 2026-09-03 13:19:51 | 52.92556 | 9.88034 | 138° | 183km/h | 9373m | -3.3m/s | -39.1°C | 42.9% | 302.3hPa | 2.6V | 07:41:31 | 03:00:23 | 00:00:00 | |
| BIOWL1-15 | 2026-09-03 13:19:48 | 52.92450 | 9.88188 | 138° | 190km/h | 9363m | -3.5m/s | -39°C | 41.4% | 302.8hPa | 2.5V | 07:41:42 | 03:00:26 | 00:00:00 | |
| SONDE2-11 | 2026-09-03 13:19:47 | 52.92521 | 9.88085 | 138° | 184km/h | 9370m | -3.4m/s | -39.1°C | 37.6% | 302.4hPa | 2.5V | 00:00:00 | 00:00:00 | 00:00:00 | |
| DL3AQ-11 | 2026-09-03 13:19:45 | 52.92556 | 9.88034 | 138° | 181km/h | 9373m | -3.3m/s | -39.1°C | 38.4% | 302.3hPa | 2.5V | 00:00:00 | 00:00:00 | 00:00:00 | |
| DL1XH-west | 2026-09-03 13:19:42 | 52.92656 | 9.87883 | 136° | 175km/h | 9383m | -3.3m/s | -39.2°C | 44.2% | 301.8hPa | 2.5V | 07:41:42 | 03:00:20 | 00:00:00 | |
| AA1-15 | 2026-09-03 13:19:40 | 52.92719 | 9.87779 | 134° | 175km/h | 9390m | -3.1m/s | -39.3°C | 44.7% | 301.6hPa | 2.6V | 07:41:42 | 03:00:18 | 00:00:00 | |
| BIOWL1-15 | 2026-09-03 13:19:40 | 52.92781 | 9.87671 | 132° | 179km/h | 9396m | -3.3m/s | -39.4°C | 44.8% | 301.3hPa | 2.5V | 07:41:42 | 03:00:16 | 00:00:00 | |
| DB0DAN | 2026-09-03 13:19:40 | 52.92719 | 9.87779 | 134° | 168km/h | 9390m | -3.1m/s | -39.3°C | 39.7% | 301.61hPa | 2.6V | 00:00:00 | 00:00:00 | 00:00:00 | |
| DO2SHX-10 | 2026-09-03 13:19:40 | 52.92719 | 9.87779 | 135° | 177km/h | 9390m | -3.1m/s | -39.2°C | 44.4% | 301.6hPa | 2.5V | 07:41:00 | 03:00:18 | 00:00:00 | |
| SMARD9-15 | 2026-09-03 13:19:39 | 52.92781 | 9.87671 | 132° | 179km/h | 9396m | -3.3m/s | -39.4°C | 39.9% | 301.3hPa | 2.5V | 00:00:00 | 00:00:00 | 00:00:00 | |
| DF8AY-15 | 2026-09-03 13:19:38 | 52.92780 | 9.87671 | 133° | 193km/h | 9396m | -3.2m/s | -39.4°C | 44.6% | 301.2hPa | 2.5V | 00:00:00 | 03:00:16 | 00:00:00 | |
| DL1XH-15 | 2026-09-03 13:19:37 | 52.92842 | 9.87557 | 131° | 186km/h | 9403m | -3.3m/s | -39.5°C | 44.5% | 301hPa | 2.6V | 07:41:40 | 03:00:14 | 00:00:00 | |
| DF8AY | 2026-09-03 13:19:34 | 52.92905 | 9.87439 | 132° | 192km/h | 9409m | -3.1m/s | -39.5°C | 44.2% | 300.8hPa | 2.6V | 07:41:42 | 03:00:12 | 00:00:00 | |
| DL1XH-west | 2026-09-03 13:19:32 | 52.92972 | 9.87319 | 133° | 197km/h | 9416m | -3.1m/s | -39.5°C | 43.4% | 300.4hPa | 2.5V | 07:42:33 | 03:00:10 | 00:00:00 | |
| AA1-15 | 2026-09-03 13:19:30 | 52.93042 | 9.87200 | 135° | 199km/h | 9422m | -3.1m/s | -39.5°C | 42.7% | 300.2hPa | 2.5V | 07:42:33 | 03:00:08 | 00:00:00 | |
| DO2SHX-10 | 2026-09-03 13:19:28 | 52.93114 | 9.87083 | 137° | 199km/h | 9428m | -3.2m/s | -39.5°C | 41.2% | 299.8hPa | 2.5V | 00:00:00 | 03:00:06 | 00:00:00 | |
| DM0DOS-11 | 2026-09-03 13:19:27 | 52.93224 | 9.86913 | 137° | 197km/h | 9438m | -3.5m/s | -39.6°C | 41.6% | 299.5hPa | 2.5V | 07:41:51 | 03:00:03 | 00:00:00 | |
| DB0DAN | 2026-09-03 13:19:25 | 52.93224 | 9.86913 | 138° | 188km/h | 9438m | -3.5m/s | -39.6°C | 37% | 299.47hPa | 2.5V | 00:00:00 | 00:00:00 | 00:00:00 | |
| DF8AY | 2026-09-03 13:19:24 | 52.93261 | 9.86858 | 138° | 197km/h | 9441m | -3.3m/s | -39.6°C | 42.6% | 299.3hPa | 2.5V | 07:42:33 | 03:00:02 | 00:00:00 | |
| DL1XH-west | 2026-09-03 13:19:21 | 52.93372 | 9.86699 | 139° | 190km/h | 9451m | -3.2m/s | -39.7°C | 43.5% | 298.9hPa | 2.5V | 07:42:33 | 02:59:59 | 00:00:00 | |
| DJ2DS-15 | 2026-09-03 13:19:21 | 52.93371 | 9.86699 | 140° | 188km/h | 9452m | -3.2m/s | -39.7°C | 44.0% | 298.8hPa | 2.5V | 00:00:00 | 02:59:59 | 00:00:00 | |
| DM0DOS-11 | 2026-09-03 13:19:20 | 52.93575 | 9.86394 | 134° | 175km/h | 9470m | -3.1m/s | -39.9°C | 45.8% | 298.1hPa | 2.5V | 07:42:01 | 02:59:53 | 00:00:00 | |
| AA1-15 | 2026-09-03 13:19:19 | 52.93443 | 9.86597 | 139° | 183km/h | 9458m | -3.1m/s | -39.7°C | 44.7% | 298.6hPa | 2.5V | 07:42:33 | 02:59:57 | 00:00:00 | |
| BIOWL1-15 | 2026-09-03 13:19:17 | 52.93511 | 9.86496 | 137° | 177km/h | 9464m | -3.1m/s | -39.8°C | 45.4% | 298.3hPa | 2.6V | 07:42:33 | 02:59:55 | 00:00:00 | |
| DF8AY | 2026-09-03 13:19:13 | 52.93637 | 9.86288 | 133° | 179km/h | 9476m | -3.2m/s | -40.1°C | 46.2% | 297.8hPa | 2.5V | 07:42:33 | 02:59:51 | 00:00:00 | |
| DO2JMG | 2026-09-03 13:19:12 | 52.93668 | 9.86233 | 132° | 181km/h | 9480m | -3.2m/s | -40.1°C | 46.5% | 297.7hPa | 2.5V | 07:45:06 | 02:59:50 | 00:00:00 | |
| DL1XH-west | 2026-09-03 13:19:10 | 52.93730 | 9.86119 | 132° | 186km/h | 9486m | -3.1m/s | -40.2°C | 47% | 297.4hPa | 2.6V | 07:42:33 | 02:59:48 | 00:00:00 | |
| DB0DAN | 2026-09-03 13:19:10 | 52.93730 | 9.86119 | 132° | 179km/h | 9486m | -3.1m/s | -40.2°C | 42.2% | 297.43hPa | 2.6V | 00:00:00 | 00:00:00 | 00:00:00 | |
| AA1-15 | 2026-09-03 13:19:08 | 52.93795 | 9.86001 | 133° | 193km/h | 9492m | -3m/s | -40.2°C | 47.4% | 297.1hPa | 2.5V | 07:42:33 | 02:59:46 | 00:00:00 | |
| DL1XH-15 | 2026-09-03 13:19:07 | 52.93863 | 9.85880 | 133° | 199km/h | 9498m | -3m/s | -40.1°C | 46.6% | 296.9hPa | 2.5V | 07:42:10 | 02:59:44 | 00:00:00 | |
| BIOWL1-15 | 2026-09-03 13:19:07 | 52.93829 | 9.85941 | 133° | 197km/h | 9495m | -3m/s | -40.2°C | 47.4% | 297hPa | 2.5V | 07:42:33 | 02:59:45 | 00:00:00 | |
| DF8AY | 2026-09-03 13:19:02 | 52.94006 | 9.85644 | 136° | 201km/h | 9510m | -3.2m/s | -40.2°C | 47.5% | 296.4hPa | 2.5V | 07:42:33 | 02:59:40 | 00:00:00 | |
| DL1XH-west | 2026-09-03 13:19:00 | 52.94080 | 9.85530 | 138° | 199km/h | 9516m | -3m/s | -40.3°C | 47% | 296.1hPa | 2.6V | 07:42:33 | 02:59:38 | 00:00:00 | |
| BIOWL1-15 | 2026-09-03 13:18:58 | 52.94228 | 9.85314 | 139° | 190km/h | 9529m | -3m/s | -40.3°C | 44.5% | 295.6hPa | 2.5V | 07:42:33 | 02:59:34 | 00:00:00 | |
| DL4BBY-15 | 2026-09-03 13:18:58 | 52.94155 | 9.85420 | 139° | 188km/h | 9523m | -3.1m/s | -39.4°C | 0% | 0hPa | 2.5V | 00:00:00 | 00:00:00 | 00:00:00 | |
| DL1XH-15 | 2026-09-03 13:18:57 | 52.94228 | 9.85314 | 139° | 190km/h | 9529m | -3m/s | -40.3°C | 44.7% | 295.6hPa | 2.5V | 07:42:20 | 02:59:34 | 00:00:00 | |
| AA1-15 | 2026-09-03 13:18:57 | 52.94191 | 9.85367 | 139° | 192km/h | 9526m | -2.9m/s | -40.3°C | 44.9% | 295.7hPa | 2.5V | 07:42:33 | 02:59:35 | 00:00:00 | |
| DM0DOS-11 | 2026-09-03 13:18:56 | 52.94264 | 9.85262 | 138° | 186km/h | 9532m | -3m/s | -40.3°C | 44.7% | 295.4hPa | 2.5V | 07:42:21 | 02:59:33 | 00:00:00 | |
| DB0DAN | 2026-09-03 13:18:55 | 52.94264 | 9.85262 | 139° | 177km/h | 9532m | -3m/s | -40.3°C | 39.9% | 295.44hPa | 2.5V | 00:00:00 | 00:00:00 | 00:00:00 | |
| DF8AY | 2026-09-03 13:18:52 | 52.94367 | 9.85110 | 138° | 179km/h | 9541m | -3m/s | -40.4°C | 45.1% | 295hPa | 2.6V | 07:42:33 | 02:59:30 | 00:00:00 | |
| DO2SHX-10 | 2026-09-03 13:18:52 | 52.94367 | 9.85110 | 138° | 179km/h | 9541m | -3.0m/s | -40.3°C | 45.9% | 294.9hPa | 2.5V | 07:42:00 | 02:59:30 | 00:00:00 | |
| DM0DOS-11 | 2026-09-03 13:18:51 | 52.94590 | 9.84745 | 133° | 177km/h | 9563m | -3.2m/s | -40.7°C | 48.2% | 294hPa | 2.5V | 07:42:31 | 02:59:23 | 00:00:00 | |
| DO2JMG | 2026-09-03 13:18:49 | 52.94466 | 9.84957 | 136° | 177km/h | 9550m | -3.1m/s | -40.5°C | 46.3% | 294.6hPa | 2.5V | 07:45:06 | 02:59:27 | 00:00:00 | |
| DO2SHX-10 | 2026-09-03 13:18:49 | 52.94466 | 9.84957 | 136° | 177km/h | 9550m | -3.1m/s | -40.5°C | 47.4% | 294.5hPa | 2.5V | 00:00:00 | 02:59:27 | 00:00:00 | |
| DO2LYB-13 | 2026-09-03 13:18:48 | 52.94466 | 9.84957 | 137° | 177km/h | 9550m | -3.1m/s | -40.5°C | 42.3% | 294.6hPa | 2.6V | 00:00:00 | 00:00:00 | 00:00:00 | |
| DL1XH-15 | 2026-09-03 13:18:47 | 52.94559 | 9.84799 | 133° | 177km/h | 9559m | -3.1m/s | -40.6°C | 48% | 294.2hPa | 2.6V | 07:42:30 | 02:59:24 | 00:00:00 | |
| AA1-15 | 2026-09-03 13:18:47 | 52.94529 | 9.84853 | 134° | 177km/h | 9556m | -3.2m/s | -40.6°C | 46.9% | 294.3hPa | 2.6V | 07:42:33 | 02:59:25 | 00:00:00 | |
| BIOWL1-15 | 2026-09-03 13:18:46 | 52.94560 | 9.84799 | 134° | 177km/h | 9559m | -3.1m/s | -40.6°C | 47.2% | 294.2hPa | 2.6V | 07:42:33 | 02:59:24 | 00:00:00 | |
| SONDE2-11 | 2026-09-03 13:18:45 | 52.94621 | 9.84690 | 132° | 179km/h | 9566m | -3.2m/s | -40.7°C | 43.1% | 294.0hPa | 2.6V | 00:00:00 | 00:00:00 | 00:00:00 | |
| DO2SHX-10 | 2026-09-03 13:18:43 | 52.94652 | 9.84634 | 133° | 184km/h | 9569m | -3.0m/s | -40.7°C | 48.0% | 293.7hPa | 2.6V | 00:00:00 | 02:59:21 | 00:00:00 | |
| DO9LL-15 | 2026-09-03 13:18:42 | 52.94682 | 9.84577 | 132° | 186km/h | 9572m | -2.9m/s | -40.7°C | 47.7% | 293.6hPa | 2.6V | 00:00:00 | 02:59:20 | 00:00:00 | |
| DL8OAI-8 | 2026-09-03 13:18:41 | 52.94683 | 9.84577 | 132° | 184km/h | 9572m | -3.0m/s | -40.8°C | 42.6% | 293.6hPa | 2.6V | 07:43:00 | 00:00:00 | 00:00:00 | |
| DB0DAN | 2026-09-03 13:18:40 | 52.94745 | 9.84461 | 131° | 179km/h | 9578m | -3.1m/s | -40.9°C | 41.9% | 293.38hPa | 2.6V | 00:00:00 | 00:00:00 | 00:00:00 | |
| BIOWL1-15 | 2026-09-03 13:18:40 | 52.94873 | 9.84220 | 132° | 195km/h | 9591m | -3.3m/s | -40.9°C | 45.9% | 292.8hPa | 2.5V | 07:43:24 | 02:59:14 | 00:00:00 | |
| DL1XH-west | 2026-09-03 13:18:38 | 52.94808 | 9.84341 | 131° | 192km/h | 9584m | -3.2m/s | -40.9°C | 47.3% | 293.1hPa | 2.5V | 07:43:24 | 02:59:16 | 00:00:00 | |
| DF8AY-15 | 2026-09-03 13:18:38 | 52.94808 | 9.84341 | 132° | 190km/h | 9584m | -3.1m/s | -40.9°C | 45.7% | 293.0hPa | 2.5V | 00:00:00 | 02:59:16 | 00:00:00 | |
| DL1XH-15 | 2026-09-03 13:18:37 | 52.94873 | 9.84220 | 131° | 195km/h | 9591m | -3.3m/s | -40.9°C | 43.9% | 292.8hPa | 2.5V | 07:42:40 | 02:59:14 | 00:00:00 | |
| AA1-15 | 2026-09-03 13:18:37 | 52.94840 | 9.84281 | 132° | 193km/h | 9588m | -3.3m/s | -40.9°C | 46.6% | 292.9hPa | 2.5V | 07:43:24 | 02:59:15 | 00:00:00 | |
| DO2SHX-10 | 2026-09-03 13:18:37 | 52.94840 | 9.84281 | 132° | 195km/h | 9588m | -3.2m/s | -40.9°C | 44.7% | 292.9hPa | 2.6V | 00:00:00 | 02:59:15 | 00:00:00 | |
| EDDB2-12 | 2026-09-03 13:18:36 | 52.94873 | 9.84220 | 131° | 195km/h | 9591m | -3.3m/s | -40.9°C | 39.0% | 292.8hPa | 2.6V | 00:00:00 | 00:00:00 | 00:00:00 | |
| DM0DOS-11 | 2026-09-03 13:18:36 | 52.94906 | 9.84159 | 132° | 197km/h | 9594m | -3.1m/s | -40.9°C | 42.7% | 292.7hPa | 2.6V | 07:42:41 | 02:59:13 | 00:00:00 | |
| GOEST3-10 | 2026-09-03 13:18:35 | 52.94906 | 9.84159 | 133° | 199km/h | 9594m | -3.1m/s | -40.8°C | 42.7% | 292.7hPa | 2.6V | 00:00:00 | 02:59:13 | 00:00:00 | |
| DL4XJ-10 | 2026-09-03 13:18:34 | 52.94940 | 9.84098 | 133° | 186km/h | 9598m | -3.2m/s | -40.0°C | 0% | 0hPa | 2.5V | 00:00:00 | 00:00:00 | 00:00:00 | |
| BIOWL7-15 | 2026-09-03 13:18:33 | 52.94940 | 9.84097 | 134° | 199km/h | 9598m | -3.3m/s | -40.9°C | 36.9% | 292.5hPa | 2.5V | 00:00:00 | 00:00:00 | 00:00:00 | |
| DO2SHX-10 | 2026-09-03 13:18:31 | 52.95045 | 9.83917 | 136° | 199km/h | 9607m | -3.1m/s | -40.8°C | 40.8% | 292.1hPa | 2.5V | 00:00:00 | 02:59:09 | 00:00:00 | |
| DM0DOS-11 | 2026-09-03 13:18:30 | 52.95260 | 9.83586 | 137° | 184km/h | 9625m | -3m/s | -41°C | 41.1% | 291.4hPa | 2.5V | 07:42:51 | 02:59:03 | 00:00:00 | |
| DL1XH-west | 2026-09-03 13:18:28 | 52.95154 | 9.83745 | 138° | 193km/h | 9616m | -3m/s | -40.9°C | 41.3% | 291.8hPa | 2.6V | 07:43:24 | 02:59:06 | 00:00:00 | |
| BIOWL1-15 | 2026-09-03 13:18:26 | 52.95225 | 9.83638 | 138° | 188km/h | 9622m | -3m/s | -41°C | 41.1% | 291.5hPa | 2.6V | 07:43:24 | 02:59:04 | 00:00:00 | |
| DB0DAN | 2026-09-03 13:18:25 | 52.95260 | 9.83586 | 138° | 175km/h | 9625m | -3m/s | -41°C | 36.4% | 291.4hPa | 2.5V | 00:00:00 | 00:00:00 | 00:00:00 | |
| DL1XH-west | 2026-09-03 13:18:18 | 52.95486 | 9.83222 | 134° | 175km/h | 9647m | -3.2m/s | -41.2°C | 40% | 290.4hPa | 2.5V | 07:43:24 | 02:58:56 | 00:00:00 | |
| DF8AY-15 | 2026-09-03 13:18:18 | 52.95486 | 9.83221 | 134° | 186km/h | 9647m | -3.2m/s | -41.2°C | 40.2% | 290.4hPa | 2.6V | 00:00:00 | 02:58:56 | 00:00:00 | |
| DL1XH-15 | 2026-09-03 13:18:17 | 52.95547 | 9.83115 | 132° | 175km/h | 9653m | -3.1m/s | -41.3°C | 39.7% | 290.2hPa | 2.6V | 07:43:00 | 02:58:54 | 00:00:00 | |
| DM0DOS-11 | 2026-09-03 13:18:17 | 52.95577 | 9.83060 | 132° | 177km/h | 9656m | -3.1m/s | -41.3°C | 39.3% | 290hPa | 2.6V | 07:43:01 | 02:58:53 | 00:00:00 | |
| BIOWL1-15 | 2026-09-03 13:18:15 | 52.95726 | 9.82778 | 130° | 183km/h | 9672m | -3.3m/s | -41.5°C | 37.4% | 289.3hPa | 2.6V | 07:43:24 | 02:58:48 | 00:00:00 | |
| AA1-15 | 2026-09-03 13:18:15 | 52.95577 | 9.83060 | 132° | 177km/h | 9656m | -3.1m/s | -41.3°C | 39.5% | 290hPa | 2.6V | 07:43:24 | 02:58:53 | 00:00:00 | |
| GOEST3-10 | 2026-09-03 13:18:15 | 52.95577 | 9.83060 | 133° | 179km/h | 9656m | -3.0m/s | -41.3°C | 39.3% | 290.0hPa | 2.6V | 00:00:00 | 02:58:53 | 00:00:00 | |
| SONDE2-11 | 2026-09-03 13:18:14 | 52.95637 | 9.82950 | 131° | 177km/h | 9662m | -3.2m/s | -41.5°C | 34.1% | 289.8hPa | 2.6V | 00:00:00 | 00:00:00 | 00:00:00 | |
| DL3AQ-11 | 2026-09-03 13:18:13 | 52.95667 | 9.82893 | 130° | 179km/h | 9666m | -3.3m/s | -41.5°C | 33.2% | 289.6hPa | 2.6V | 00:00:00 | 00:00:00 | 00:00:00 | |
| DO9LL-15 | 2026-09-03 13:18:12 | 52.95667 | 9.82893 | 131° | 184km/h | 9666m | -3.2m/s | -41.4°C | 37.7% | 289.5hPa | 2.6V | 00:00:00 | 02:58:50 | 00:00:00 | |
| DB0DAN | 2026-09-03 13:18:10 | 52.95726 | 9.82778 | 130° | 173km/h | 9672m | -3.3m/s | -41.5°C | 31.5% | 289.33hPa | 2.6V | 00:00:00 | 00:00:00 | 00:00:00 | |
| DO2SHX-10 | 2026-09-03 13:18:10 | 52.95725 | 9.82778 | 130° | 184km/h | 9672m | -3.3m/s | -41.5°C | 35.9% | 289.3hPa | 2.5V | 00:00:00 | 02:58:48 | 00:00:00 | |
| DL1XH-15 | 2026-09-03 13:18:07 | 52.95846 | 9.82537 | 129° | 192km/h | 9685m | -3.3m/s | -41.6°C | 32.9% | 288.8hPa | 2.5V | 07:43:10 | 02:58:44 | 00:00:00 | |
| DL1XH-west | 2026-09-03 13:18:07 | 52.95815 | 9.82598 | 130° | 188km/h | 9682m | -3.1m/s | -41.6°C | 35.8% | 288.9hPa | 2.5V | 07:43:24 | 02:58:45 | 00:00:00 | |
| DO2SHX-10 | 2026-09-03 13:18:07 | 52.95815 | 9.82598 | 130° | 192km/h | 9682m | -3.1m/s | -41.5°C | 33.5% | 288.9hPa | 2.5V | 00:00:00 | 02:58:45 | 00:00:00 | |
| DM0DOS-11 | 2026-09-03 13:18:06 | 52.95877 | 9.82475 | 130° | 193km/h | 9688m | -3.4m/s | -41.6°C | 32.4% | 288.6hPa | 2.5V | 07:43:11 | 02:58:43 | 00:00:00 | |
| BIOWL1-15 | 2026-09-03 13:18:05 | 52.95975 | 9.82288 | 132° | 199km/h | 9698m | -3.2m/s | -41.6°C | 34.2% | 288.2hPa | 2.5V | 07:43:24 | 02:58:40 | 00:00:00 | |
| AA1-15 | 2026-09-03 13:18:05 | 52.95877 | 9.82475 | 130° | 193km/h | 9688m | -3.4m/s | -41.6°C | 34.8% | 288.7hPa | 2.5V | 07:43:24 | 02:58:43 | 00:00:00 | |
| DL1XH-west | 2026-09-03 13:17:57 | 52.96148 | 9.81994 | 136° | 190km/h | 9713m | -3.1m/s | -41.8°C | 34% | 287.7hPa | 2.5V | 07:43:24 | 02:58:35 | 00:00:00 | |
| DM0DOS-11 | 2026-09-03 13:17:56 | 52.96249 | 9.81833 | 135° | 183km/h | 9723m | -3.3m/s | -41.9°C | 32.8% | 287.2hPa | 2.6V | 07:43:22 | 02:58:32 | 00:00:00 | |
| DO2JMG | 2026-09-03 13:17:56 | 52.96182 | 9.81940 | 136° | 186km/h | 9716m | -3.2m/s | -41.8°C | 33.9% | 287.5hPa | 2.5V | 07:45:06 | 02:58:34 | 00:00:00 | |
| AA1-15 | 2026-09-03 13:17:55 | 52.96216 | 9.81886 | 136° | 184km/h | 9719m | -3.4m/s | -41.9°C | 33.8% | 287.4hPa | 2.5V | 07:43:24 | 02:58:33 | 00:00:00 | |
| DB0DAN | 2026-09-03 13:17:55 | 52.96216 | 9.81886 | 136° | 175km/h | 9719m | -3.4m/s | -41.9°C | 28.6% | 287.39hPa | 2.5V | 00:00:00 | 00:00:00 | 00:00:00 | |
| BIOWL1-15 | 2026-09-03 13:17:51 | 52.96436 | 9.81514 | 132° | 175km/h | 9742m | -3.1m/s | -42°C | 33.7% | 286.4hPa | 2.5V | 07:44:15 | 02:58:26 | 00:00:00 | |
| DM0DOS-11 | 2026-09-03 13:17:49 | 52.96552 | 9.81290 | 129° | 177km/h | 9755m | -3.4m/s | -42.1°C | 33.3% | 285.9hPa | 2.5V | 07:43:32 | 02:58:22 | 00:00:00 | |
| DO2SHX-10 | 2026-09-03 13:17:49 | 52.96407 | 9.81568 | 133° | 175km/h | 9739m | -3.3m/s | -42.0°C | 33.4% | 286.5hPa | 2.6V | 00:00:00 | 02:58:27 | 00:00:00 | |
| DL1XH-15 | 2026-09-03 13:17:47 | 52.96495 | 9.81403 | 130° | 175km/h | 9749m | -3.1m/s | -42.2°C | 33.6% | 286.1hPa | 2.6V | 07:43:30 | 02:58:24 | 00:00:00 | |
| DL1XH-west | 2026-09-03 13:17:46 | 52.96495 | 9.81403 | 131° | 175km/h | 9749m | -3.1m/s | -42.2°C | 33.9% | 286.1hPa | 2.6V | 07:44:15 | 02:58:24 | 00:00:00 | |
| AA1-15 | 2026-09-03 13:17:44 | 52.96552 | 9.81290 | 130° | 177km/h | 9755m | -3.4m/s | -42.2°C | 34.1% | 285.9hPa | 2.5V | 07:44:15 | 02:58:22 | 00:00:00 | |
| BIOWL1-15 | 2026-09-03 13:17:42 | 52.96665 | 9.81058 | 128° | 179km/h | 9769m | -3.3m/s | -42.2°C | 34.2% | 285.3hPa | 2.6V | 07:44:15 | 02:58:18 | 00:00:00 | |
| DO2JMG | 2026-09-03 13:17:42 | 52.96637 | 9.81117 | 128° | 179km/h | 9765m | -3.3m/s | -42.3°C | 34.2% | 285.4hPa | 2.5V | 07:45:06 | 02:58:19 | 00:00:00 | |
| DB0DAN | 2026-09-03 13:17:40 | 52.96665 | 9.81058 | 128° | 172km/h | 9769m | -3.3m/s | -42.2°C | 28.5% | 285.26hPa | 2.6V | 00:00:00 | 00:00:00 | 00:00:00 | |
| DO2SHX-10 | 2026-09-03 13:17:40 | 52.96665 | 9.81058 | 129° | 181km/h | 9769m | -3.3m/s | -42.2°C | 32.7% | 285.2hPa | 2.6V | 07:43:00 | 02:58:18 | 00:00:00 | |
| DF8AY-15 | 2026-09-03 13:17:38 | 52.96721 | 9.80938 | 128° | 188km/h | 9776m | -3.3m/s | -42.3°C | 32.1% | 284.9hPa | 2.6V | 00:00:00 | 02:58:16 | 00:00:00 | |
| BIOWL9-15 | 2026-09-03 13:17:37 | 52.96779 | 9.80816 | 127° | 186km/h | 9782m | -3.2m/s | -42.4°C | 27.3% | 284.6hPa | 2.5V | 00:00:00 | 00:00:00 | 00:00:00 | |
| DM0DOS-11 | 2026-09-03 13:17:36 | 52.96837 | 9.80691 | 128° | 192km/h | 9788m | -3.2m/s | -42.5°C | 30.8% | 284.4hPa | 2.5V | 07:43:42 | 02:58:12 | 00:00:00 | |
| DL1XH-west | 2026-09-03 13:17:35 | 52.96808 | 9.80754 | 128° | 190km/h | 9785m | -3.2m/s | -42.4°C | 33.7% | 284.5hPa | 2.5V | 07:44:15 | 02:58:13 | 00:00:00 | |
| AA1-15 | 2026-09-03 13:17:33 | 52.96868 | 9.80628 | 129° | 195km/h | 9792m | -3.3m/s | -42.5°C | 32.9% | 284.2hPa | 2.6V | 07:44:15 | 02:58:11 | 00:00:00 | |
| DO2JMG | 2026-09-03 13:17:31 | 52.96931 | 9.80501 | 130° | 197km/h | 9798m | -3.1m/s | -42.4°C | 31.8% | 284hPa | 2.6V | 07:45:06 | 02:58:09 | 00:00:00 | |
| BIOWL1-15 | 2026-09-03 13:17:29 | 52.96997 | 9.80376 | 132° | 197km/h | 9805m | -3.2m/s | -42.4°C | 30.6% | 283.7hPa | 2.5V | 07:44:15 | 02:58:07 | 00:00:00 | |
| DL1XH-west | 2026-09-03 13:17:26 | 52.97132 | 9.80140 | 134° | 188km/h | 9817m | -3.2m/s | -42.5°C | 29.5% | 283.2hPa | 2.6V | 07:44:15 | 02:58:03 | 00:00:00 | |
| DB0DAN | 2026-09-03 13:17:25 | 52.97132 | 9.80140 | 134° | 181km/h | 9817m | -3.2m/s | -42.5°C | 24.4% | 283.17hPa | 2.6V | 00:00:00 | 00:00:00 | 00:00:00 | |
| AA1-15 | 2026-09-03 13:17:23 | 52.97197 | 9.80029 | 134° | 183km/h | 9824m | -3.2m/s | -42.6°C | 29.5% | 282.9hPa | 2.5V | 07:44:15 | 02:58:01 | 00:00:00 | |
| DO2JMG | 2026-09-03 13:17:20 | 52.97290 | 9.79865 | 132° | 175km/h | 9833m | -3m/s | -42.7°C | 30% | 282.5hPa | 2.5V | 07:45:06 | 02:57:58 | 00:00:00 | |
| BIOWL1-15 | 2026-09-03 13:17:18 | 52.97376 | 9.79697 | 129° | 175km/h | 9843m | -3.2m/s | -42.8°C | 30.6% | 282.1hPa | 2.6V | 07:44:15 | 02:57:55 | 00:00:00 | |
| DF8AY-15 | 2026-09-03 13:17:18 | 52.97348 | 9.79753 | 130° | 190km/h | 9840m | -3.2m/s | -42.7°C | 29.6% | 282.2hPa | 2.5V | 00:00:00 | 02:57:56 | 00:00:00 | |
| DL1XH-15 | 2026-09-03 13:17:17 | 52.97404 | 9.79639 | 128° | 177km/h | 9846m | -3.3m/s | -42.8°C | 30.4% | 282hPa | 2.5V | 07:44:00 | 02:57:54 | 00:00:00 | |
| DL1XH-west | 2026-09-03 13:17:14 | 52.97459 | 9.79521 | 127° | 179km/h | 9853m | -3.3m/s | -42.9°C | 31.8% | 281.7hPa | 2.5V | 07:44:15 | 02:57:52 | 00:00:00 | |
| AA1-15 | 2026-09-03 13:17:13 | 52.97486 | 9.79461 | 127° | 181km/h | 9856m | -3.3m/s | -42.9°C | 32.2% | 281.6hPa | 2.5V | 07:44:15 | 02:57:51 | 00:00:00 | |
| DO2SHX-10 | 2026-09-03 13:17:13 | 52.97486 | 9.79461 | 127° | 183km/h | 9856m | -3.3m/s | -42.9°C | 31.5% | 281.5hPa | 2.5V | 00:00:00 | 02:57:51 | 00:00:00 | |
| DL1XH1-15 | 2026-09-03 13:17:10 | 52.97683 | 9.79019 | 126° | 193km/h | 9880m | -3.4m/s | -43°C | 33.8% | 280.5hPa | 2.5V | 07:44:10 | 02:57:44 | 00:00:00 | |
| DB0DAN | 2026-09-03 13:17:10 | 52.97569 | 9.79275 | 126° | 177km/h | 9866m | -3.5m/s | -43°C | 28.4% | 281.15hPa | 2.6V | 00:00:00 | 00:00:00 | 00:00:00 | |
| DO2JMG | 2026-09-03 13:17:10 | 52.97569 | 9.79275 | 126° | 186km/h | 9866m | -3.5m/s | -43°C | 33.6% | 281.1hPa | 2.6V | 07:45:06 | 02:57:48 | 00:00:00 | |
| DM0DOS-11 | 2026-09-03 13:17:10 | 52.97742 | 9.78887 | 126° | 197km/h | 9886m | -3.5m/s | -43°C | 33.6% | 280.2hPa | 2.6V | 07:44:12 | 02:57:42 | 00:00:00 | |
| DF8AY | 2026-09-03 13:17:09 | 52.97742 | 9.78887 | 127° | 197km/h | 9886m | -3.5m/s | -43°C | 36.1% | 280.2hPa | 2.6V | 07:44:15 | 02:57:42 | 00:00:00 | |
| BIOWL1-15 | 2026-09-03 13:17:08 | 52.97626 | 9.79148 | 126° | 190km/h | 9873m | -3.4m/s | -43.1°C | 34.7% | 280.9hPa | 2.5V | 07:44:15 | 02:57:46 | 00:00:00 | |
| DL1XH-west | 2026-09-03 13:17:03 | 52.97772 | 9.78821 | 127° | 199km/h | 9890m | -3.4m/s | -43.1°C | 36.4% | 280.1hPa | 2.6V | 07:44:15 | 02:57:41 | 00:00:00 | |
| AA1-15 | 2026-09-03 13:17:02 | 52.97803 | 9.78755 | 128° | 201km/h | 9894m | -3.4m/s | -43.1°C | 36.6% | 279.9hPa | 2.5V | 07:44:15 | 02:57:40 | 00:00:00 | |
| BIOWL1-15 | 2026-09-03 13:16:58 | 52.97932 | 9.78493 | 131° | 203km/h | 9907m | -3.6m/s | -43.1°C | 37.7% | 279.4hPa | 2.6V | 07:45:06 | 02:57:36 | 00:00:00 | |
| DO2JMG | 2026-09-03 13:16:57 | 52.97966 | 9.78430 | 132° | 199km/h | 9911m | -3.5m/s | -43.1°C | 38.2% | 279.3hPa | 2.6V | 07:45:06 | 02:57:35 | 00:00:00 | |
| HTAHTA | 2026-09-03 13:16:57 | 52.98000 | 9.78369 | 132° | 195km/h | 9914m | -3.3m/s | -43.0°C | 32.3% | 279.1hPa | 2.5V | 00:00:00 | 00:00:00 | 00:00:00 | |
| DM0DOS-11 | 2026-09-03 13:16:56 | 52.98066 | 9.78251 | 133° | 188km/h | 9920m | -3.2m/s | -43.1°C | 38.6% | 278.8hPa | 2.5V | 07:44:22 | 02:57:32 | 00:00:00 | |
| DB0DAN | 2026-09-03 13:16:55 | 52.98034 | 9.78309 | 133° | 183km/h | 9917m | -3.1m/s | -43.1°C | 33% | 279.02hPa | 2.5V | 00:00:00 | 00:00:00 | 00:00:00 | |
| DF8AY | 2026-09-03 13:16:53 | 52.98098 | 9.78194 | 133° | 184km/h | 9924m | -3.2m/s | -43.2°C | 39.9% | 278.8hPa | 2.5V | 07:45:06 | 02:57:31 | 00:00:00 | |
| DL1XH-west | 2026-09-03 13:16:53 | 52.98129 | 9.78137 | 132° | 181km/h | 9927m | -3.2m/s | -43.2°C | 40.4% | 278.6hPa | 2.5V | 07:45:06 | 02:57:30 | 00:00:00 | |
| AA1-15 | 2026-09-03 13:16:51 | 52.98159 | 9.78081 | 131° | 179km/h | 9930m | -3.1m/s | -43.3°C | 40.9% | 278.5hPa | 2.6V | 07:45:06 | 02:57:29 | 00:00:00 | |
| GOEST3-10 | 2026-09-03 13:16:50 | 52.98188 | 9.78023 | 130° | 181km/h | 9933m | -3.1m/s | -43.3°C | 41.6% | 278.3hPa | 2.6V | 00:00:00 | 00:00:00 | 00:00:00 | |
| DM0DOS-11 | 2026-09-03 13:16:49 | 52.98383 | 9.77594 | 125° | 190km/h | 9957m | -3.6m/s | -43.7°C | 43.8% | 277.4hPa | 2.6V | 07:44:33 | 02:57:21 | 00:00:00 | |
| BIOWL1-15 | 2026-09-03 13:16:47 | 52.98272 | 9.77845 | 127° | 183km/h | 9943m | -3.3m/s | -43.5°C | 43% | 277.9hPa | 2.5V | 07:45:06 | 02:57:25 | 00:00:00 | |
| DO2JMG | 2026-09-03 13:16:45 | 52.98327 | 9.77721 | 126° | 186km/h | 9950m | -3.3m/s | -43.6°C | 43.9% | 277.7hPa | 2.5V | 07:45:06 | 02:57:23 | 00:00:00 | |
| DF8AY | 2026-09-03 13:16:43 | 52.98383 | 9.77594 | 126° | 190km/h | 9957m | -3.6m/s | -43.7°C | 44.4% | 277.4hPa | 2.6V | 07:45:06 | 02:57:21 | 00:00:00 | |
| DL1XH-west | 2026-09-03 13:16:42 | 52.98439 | 9.77462 | 126° | 195km/h | 9964m | -3.4m/s | -43.7°C | 44.8% | 277.1hPa | 2.5V | 07:45:06 | 02:57:19 | 00:00:00 | |
| AA1-15 | 2026-09-03 13:16:40 | 52.98468 | 9.77396 | 126° | 197km/h | 9967m | -3.4m/s | -43.8°C | 44.7% | 276.9hPa | 2.5V | 07:45:06 | 02:57:18 | 00:00:00 | |
| DB0DAN | 2026-09-03 13:16:40 | 52.98468 | 9.77396 | 126° | 188km/h | 9967m | -3.4m/s | -43.8°C | 37.8% | 276.95hPa | 2.5V | 00:00:00 | 00:00:00 | 00:00:00 | |
| BIOWL1-15 | 2026-09-03 13:16:37 | 52.98561 | 9.77194 | 128° | 204km/h | 9977m | -3.3m/s | -43.7°C | 44.3% | 276.5hPa | 2.6V | 07:45:06 | 02:57:15 | 00:00:00 | |
| DF5WG-10 | 2026-09-03 13:16:37 | 52.98560 | 9.77194 | 129° | 203km/h | 9978m | -3.3m/s | -43.7°C | 41.8% | 276.5hPa | 2.5V | 07:44:00 | 02:57:15 | 00:00:00 | |
| DM0DOS-11 | 2026-09-03 13:16:36 | 52.98660 | 9.76997 | 131° | 204km/h | 9987m | -3.4m/s | -43.8°C | 41.7% | 276.1hPa | 2.5V | 07:44:42 | 02:57:12 | 00:00:00 | |
| DO2JMG | 2026-09-03 13:16:35 | 52.98626 | 9.77062 | 130° | 204km/h | 9984m | -3.4m/s | -43.8°C | 43.7% | 276.2hPa | 2.6V | 07:45:06 | 02:57:13 | 00:00:00 | |
| DF8AY | 2026-09-03 13:16:32 | 52.98728 | 9.76871 | 133° | 199km/h | 9994m | -3.2m/s | -43.8°C | 43.5% | 275.8hPa | 2.5V | 07:45:06 | 02:57:10 | 00:00:00 | |
| DL1XH-west | 2026-09-03 13:16:31 | 52.98762 | 9.76811 | 133° | 195km/h | 9997m | -3.4m/s | -43.8°C | 43.5% | 275.6hPa | 2.5V | 07:45:06 | 02:57:09 | 00:00:00 | |
| DO2SHX-10 | 2026-09-03 13:16:31 | 52.98762 | 9.76810 | 134° | 192km/h | 9997m | -3.3m/s | -43.8°C | 42.7% | 275.6hPa | 2.5V | 00:00:00 | 02:57:09 | 00:00:00 | |
| DL1XH1-15 | 2026-09-03 13:16:30 | 52.98920 | 9.76519 | 129° | 183km/h | 10014m | -3.2m/s | -44.1°C | 45.6% | 275hPa | 2.5V | 07:44:50 | 02:57:04 | 00:00:00 | |
| AA1-15 | 2026-09-03 13:16:30 | 52.98795 | 9.76751 | 133° | 192km/h | 10000m | -3.3m/s | -43.9°C | 43.7% | 275.6hPa | 2.6V | 07:45:06 | 02:57:08 | 00:00:00 | |
| BIOWL1-15 | 2026-09-03 13:16:27 | 52.98890 | 9.76577 | 131° | 183km/h | 10010m | -3.4m/s | -44.1°C | 44.7% | 275.2hPa | 2.5V | 07:45:06 | 02:57:05 | 00:00:00 | |
| DF5WG-10 | 2026-09-03 13:16:27 | 52.98890 | 9.76577 | 131° | 183km/h | 10010m | -3.3m/s | -44.0°C | 45.2% | 275.1hPa | 2.5V | 00:00:00 | 02:57:05 | 00:00:00 | |
| DB0DAN | 2026-09-03 13:16:25 | 52.98950 | 9.76460 | 129° | 173km/h | 10017m | -3.3m/s | -44.1°C | 40.7% | 274.8hPa | 2.5V | 00:00:00 | 00:00:00 | 00:00:00 | |
| DF8AY | 2026-09-03 13:16:22 | 52.99034 | 9.76278 | 127° | 184km/h | 10027m | -3.6m/s | -44.3°C | 46.4% | 274.4hPa | 2.5V | 07:45:06 | 02:57:00 | 00:00:00 | |
| DL1XH-west | 2026-09-03 13:16:20 | 52.99089 | 9.76153 | 126° | 186km/h | 10034m | -3.6m/s | -44.4°C | 46.9% | 274.2hPa | 2.5V | 07:45:06 | 02:56:58 | 00:00:00 | |
| AA1-15 | 2026-09-03 13:16:19 | 52.99117 | 9.76089 | 126° | 188km/h | 10038m | -3.7m/s | -44.4°C | 47.1% | 274hPa | 2.5V | 07:45:06 | 02:56:57 | 00:00:00 | |
| BIOWL1-15 | 2026-09-03 13:16:18 | 52.99199 | 9.75894 | 125° | 193km/h | 10048m | -3.6m/s | -44.5°C | 47.5% | 273.6hPa | 2.6V | 07:45:06 | 02:56:54 | 00:00:00 | |
| DO2JMG | 2026-09-03 13:16:17 | 52.99172 | 9.75960 | 125° | 192km/h | 10045m | -3.5m/s | -44.4°C | 47.3% | 273.7hPa | 2.6V | 07:45:06 | 02:56:55 | 00:00:00 | |
| DL1XH-15 | 2026-09-03 13:16:17 | 52.99199 | 9.75894 | 124° | 193km/h | 10048m | -3.6m/s | -44.5°C | 47% | 273.6hPa | 2.6V | 07:45:00 | 02:56:54 | 00:00:00 | |
| DF5WG-10 | 2026-09-03 13:16:17 | 52.99171 | 9.75960 | 126° | 203km/h | 10045m | -3.5m/s | -44.4°C | 47.2% | 273.7hPa | 2.6V | 00:00:00 | 02:56:55 | 00:00:00 | |
| DM0DOS-11 | 2026-09-03 13:16:16 | 52.99256 | 9.75760 | 124° | 197km/h | 10055m | -3.4m/s | -44.5°C | 46.3% | 273.2hPa | 2.5V | 07:45:02 | 02:56:52 | 00:00:00 | |
| DF8AY | 2026-09-03 13:16:11 | 52.99343 | 9.75554 | 126° | 203km/h | 10066m | -3.5m/s | -44.6°C | 46.7% | 272.9hPa | 2.6V | 07:45:06 | 02:56:49 | 00:00:00 | |
| DL1XH1-15 | 2026-09-03 13:16:10 | 52.99500 | 9.75208 | 128° | 208km/h | 10083m | -3.7m/s | -44.6°C | 42% | 272.1hPa | 2.5V | 07:45:10 | 02:56:44 | 00:00:00 | |
| DB0DAN | 2026-09-03 13:16:10 | 52.99373 | 9.75485 | 126° | 195km/h | 10069m | -3.4m/s | -44.6°C | 38.9% | 272.72hPa | 2.6V | 00:00:00 | 00:00:00 | 00:00:00 | |
| DL1XH-west | 2026-09-03 13:16:09 | 52.99404 | 9.75415 | 126° | 206km/h | 10072m | -3.4m/s | -44.5°C | 45.8% | 272.5hPa | 2.6V | 07:45:57 | 02:56:47 | 00:00:00 | |
| AA1-15 | 2026-09-03 13:16:08 | 52.99435 | 9.75346 | 127° | 208km/h | 10076m | -3.5m/s | -44.5°C | 45.2% | 272.4hPa | 2.5V | 07:45:57 | 02:56:46 | 00:00:00 | |
| BIOWL1-15 | 2026-09-03 13:16:07 | 52.99599 | 9.75006 | 130° | 204km/h | 10093m | -3.5m/s | -44.6°C | 43% | 271.8hPa | 2.5V | 07:45:57 | 02:56:41 | 00:00:00 | |
| DO2JMG | 2026-09-03 13:16:06 | 52.99500 | 9.75208 | 128° | 208km/h | 10083m | -3.7m/s | -44.6°C | 44.1% | 272.1hPa | 2.5V | 07:47:39 | 02:56:44 | 00:00:00 | |
| DF8AY | 2026-09-03 13:16:00 | 52.99852 | 9.74515 | 129° | 183km/h | 10121m | -3.6m/s | -44.8°C | 43.3% | 270.6hPa | 2.5V | 07:45:57 | 02:56:33 | 00:00:00 | |
| DL1XH-west | 2026-09-03 13:15:59 | 52.99731 | 9.74755 | 131° | 192km/h | 10107m | -3.4m/s | -44.7°C | 42.6% | 271.1hPa | 2.6V | 07:45:57 | 02:56:37 | 00:00:00 | |
| DJ2DS-15 | 2026-09-03 13:15:59 | 52.99731 | 9.74755 | 131° | 190km/h | 10107m | -3.4m/s | -44.7°C | 37.8% | 271.1hPa | 2.5V | 00:00:00 | 00:00:00 | 00:00:00 | |
| DL1XH-15 | 2026-09-03 13:15:58 | 52.99823 | 9.74575 | 129° | 184km/h | 10117m | -3.7m/s | -44.7°C | 43.8% | 270.7hPa | 2.5V | 07:45:20 | 02:56:34 | 00:00:00 | |
| AA1-15 | 2026-09-03 13:15:57 | 52.99793 | 9.74635 | 130° | 186km/h | 10114m | -3.5m/s | -44.7°C | 42.9% | 270.9hPa | 2.6V | 07:45:57 | 02:56:35 | 00:00:00 | |
| BIOWL1-15 | 2026-09-03 13:15:56 | 52.99881 | 9.74455 | 128° | 183km/h | 10124m | -3.5m/s | -44.8°C | 43.4% | 270.4hPa | 2.5V | 07:45:57 | 02:56:32 | 00:00:00 | |
| DB0DAN | 2026-09-03 13:15:55 | 52.99852 | 9.74515 | 129° | 175km/h | 10121m | -3.6m/s | -44.8°C | 38.3% | 270.58hPa | 2.5V | 00:00:00 | 00:00:00 | 00:00:00 | |
| HTAHTA | 2026-09-03 13:15:55 | 52.99881 | 9.74455 | 127° | 183km/h | 10124m | -3.5m/s | -44.8°C | 37.9% | 270.4hPa | 2.6V | 00:00:00 | 00:00:00 | 00:00:00 | |
| DL4XJ-10 | 2026-09-03 13:15:54 | 52.99880 | 9.74455 | 128° | 199km/h | 10124m | -3.5m/s | -43.9°C | 0% | 0hPa | 2.6V | 00:00:00 | 00:00:00 | 00:00:00 | |
| DO2SHX-10 | 2026-09-03 13:15:52 | 52.99936 | 9.74332 | 126° | 186km/h | 10132m | -3.6m/s | -44.9°C | 43.1% | 270.1hPa | 2.6V | 00:00:00 | 02:56:30 | 00:00:00 | |
| DL1XH1-15 | 2026-09-03 13:15:50 | 53.00099 | 9.73929 | 123° | 203km/h | 10153m | -3.4m/s | -45°C | 41% | 269.2hPa | 2.6V | 07:45:30 | 02:56:24 | 00:00:00 | |
| DL1XH-west | 2026-09-03 13:15:49 | 53.00016 | 9.74137 | 124° | 192km/h | 10142m | -3.4m/s | -44.9°C | 43.5% | 269.7hPa | 2.5V | 07:45:57 | 02:56:27 | 00:00:00 | |
| DF8AY | 2026-09-03 13:15:47 | 53.00099 | 9.73929 | 124° | 203km/h | 10153m | -3.4m/s | -45°C | 43.4% | 269.3hPa | 2.6V | 07:45:57 | 02:56:24 | 00:00:00 | |
| AA1-15 | 2026-09-03 13:15:47 | 53.00071 | 9.73999 | 124° | 201km/h | 10149m | -3.5m/s | -45°C | 43.5% | 269.4hPa | 2.6V | 07:45:57 | 02:56:25 | 00:00:00 | |
| DL3AQ-11 | 2026-09-03 13:15:46 | 53.00128 | 9.73858 | 124° | 206km/h | 10156m | -3.8m/s | -45.0°C | 35.4% | 269.2hPa | 2.5V | 00:00:00 | 00:00:00 | 00:00:00 | |
| GOEST3-10 | 2026-09-03 13:15:45 | 53.00128 | 9.73858 | 125° | 208km/h | 10156m | -3.7m/s | -45.0°C | 40.6% | 269.2hPa | 2.5V | 00:00:00 | 02:56:23 | 00:00:00 | |
| BIOWL7-15 | 2026-09-03 13:15:44 | 53.00128 | 9.73858 | 126° | 206km/h | 10156m | -3.8m/s | -45.0°C | 35.4% | 269.2hPa | 2.5V | 00:00:00 | 00:00:00 | 00:00:00 | |
| DM0DOS-11 | 2026-09-03 13:15:43 | 53.00221 | 9.73645 | 127° | 210km/h | 10167m | -3.7m/s | -45.1°C | 40.1% | 268.8hPa | 2.5V | 07:45:34 | 02:56:20 | 00:00:00 | |
| BIOWL1-15 | 2026-09-03 13:15:43 | 53.00189 | 9.73716 | 126° | 210km/h | 10164m | -3.6m/s | -45°C | 42.9% | 268.9hPa | 2.5V | 07:45:57 | 02:56:21 | 00:00:00 | |
| DO2SHX-10 | 2026-09-03 13:15:43 | 53.00189 | 9.73716 | 127° | 210km/h | 10164m | -3.5m/s | -45.0°C | 40.1% | 268.8hPa | 2.5V | 00:00:00 | 02:56:21 | 00:00:00 | |
| SONCRA | 2026-09-03 13:15:41 | 53.00286 | 9.73507 | 129° | 208km/h | 10175m | -3.9m/s | -45.1°C | 35.6% | 268.4hPa | 2.5V | 00:00:00 | 00:00:00 | 00:00:00 | |
| DL1XH1-15 | 2026-09-03 13:15:40 | 53.00419 | 9.73247 | 130° | 195km/h | 10189m | -3.7m/s | -45.2°C | 42.7% | 267.8hPa | 2.5V | 07:45:40 | 02:56:14 | 00:00:00 | |
| DB0DAN | 2026-09-03 13:15:40 | 53.00286 | 9.73507 | 129° | 199km/h | 10175m | -3.9m/s | -45.1°C | 35.6% | 268.44hPa | 2.6V | 00:00:00 | 00:00:00 | 00:00:00 | |
| DL1XH-west | 2026-09-03 13:15:38 | 53.00353 | 9.73374 | 130° | 204km/h | 10182m | -3.6m/s | -45.1°C | 42.6% | 268.1hPa | 2.5V | 07:45:57 | 02:56:16 | 00:00:00 | |
| DF8AY-15 | 2026-09-03 13:15:38 | 53.00353 | 9.73374 | 131° | 195km/h | 10182m | -3.6m/s | -45.1°C | 41.4% | 268.1hPa | 2.5V | 00:00:00 | 02:56:16 | 00:00:00 | |
| DL1XH-15 | 2026-09-03 13:15:37 | 53.00451 | 9.73185 | 130° | 192km/h | 10193m | -3.3m/s | -45.2°C | 43% | 267.7hPa | 2.6V | 07:45:41 | 02:56:13 | 00:00:00 | |
| DL1LOL-11 | 2026-09-03 13:15:37 | 53.00386 | 9.73310 | 132° | 199km/h | 10186m | -3.5m/s | -45.2°C | 36.6% | 267.9hPa | 2.5V | 07:45:00 | 00:00:00 | 00:00:00 | |
| DM0DOS-11 | 2026-09-03 13:15:36 | 53.00541 | 9.73004 | 128° | 184km/h | 10203m | -3.6m/s | -45.4°C | 44.1% | 267.2hPa | 2.5V | 07:45:44 | 02:56:10 | 00:00:00 | |
| AA1-15 | 2026-09-03 13:15:36 | 53.00419 | 9.73247 | 131° | 195km/h | 10189m | -3.7m/s | -45.2°C | 42.9% | 267.8hPa | 2.5V | 07:45:57 | 02:56:14 | 00:00:00 | |
| BIOWL1-15 | 2026-09-03 13:15:33 | 53.00512 | 9.73064 | 129° | 186km/h | 10200m | -3.8m/s | -45.3°C | 43.7% | 267.4hPa | 2.6V | 07:45:57 | 02:56:11 | 00:00:00 | |
| BIOWL9-15 | 2026-09-03 13:15:33 | 53.00541 | 9.73004 | 128° | 184km/h | 10203m | -3.7m/s | -45.4°C | -1.0% | 267.2hPa | 2.5V | 00:00:00 | 00:00:00 | 00:00:00 | |
| DO2SHX-10 | 2026-09-03 13:15:31 | 53.00570 | 9.72943 | 128° | 184km/h | 10207m | -3.5m/s | -45.3°C | 44.1% | 267.1hPa | 2.5V | 00:00:00 | 02:56:09 | 00:00:00 | |
| DL1XH-15 | 2026-09-03 13:15:30 | 53.00733 | 9.72558 | 123° | 195km/h | 10229m | -3.5m/s | -45.8°C | 43.9% | 266.2hPa | 2.5V | 07:45:51 | 02:56:03 | 00:00:00 | |
| EDDB2-12 | 2026-09-03 13:15:30 | 53.00626 | 9.72820 | 125° | 183km/h | 10214m | -3.7m/s | -45.6°C | 38.9% | 266.8hPa | 2.6V | 00:00:00 | 00:00:00 | 00:00:00 | |
| DB0UT-7 | 2026-09-03 13:15:29 | 53.00626 | 9.72820 | 126° | 195km/h | 10215m | -3.7m/s | -45.5°C | 44.6% | 266.7hPa | 2.6V | 00:00:00 | 00:00:00 | 00:00:00 | |
| DO2SHX-10 | 2026-09-03 13:15:28 | 53.00653 | 9.72756 | 126° | 188km/h | 10218m | -3.7m/s | -45.5°C | 44.3% | 266.6hPa | 2.5V | 00:00:00 | 02:56:06 | 00:00:00 | |
| DL1XH1-15 | 2026-09-03 13:15:27 | 53.00706 | 9.72626 | 123° | 192km/h | 10226m | -3.8m/s | -45.7°C | 44.2% | 266.4hPa | 2.5V | 07:45:50 | 02:56:04 | 00:00:00 | |
| DL1XH-west | 2026-09-03 13:15:27 | 53.00680 | 9.72692 | 124° | 188km/h | 10222m | -3.8m/s | -45.6°C | 45.2% | 266.5hPa | 2.5V | 07:45:57 | 02:56:05 | 00:00:00 | |
| AA1-15 | 2026-09-03 13:15:25 | 53.00733 | 9.72559 | 123° | 195km/h | 10229m | -3.5m/s | -45.8°C | 45.4% | 266.2hPa | 2.5V | 07:45:57 | 02:56:03 | 00:00:00 | |
| DB0DAN | 2026-09-03 13:15:25 | 53.00733 | 9.72559 | 123° | 186km/h | 10229m | -3.5m/s | -45.8°C | 38.3% | 266.24hPa | 2.5V | 00:00:00 | 00:00:00 | 00:00:00 | |
| DO2SHX-10 | 2026-09-03 13:15:25 | 53.00733 | 9.72558 | 124° | 199km/h | 10229m | -3.4m/s | -45.7°C | 43.9% | 266.2hPa | 2.5V | 00:00:00 | 02:56:03 | 00:00:00 | |
| BIOWL1-15 | 2026-09-03 13:15:25 | 53.00788 | 9.72419 | 123° | 203km/h | 10237m | -3.7m/s | -45.8°C | 45.3% | 265.9hPa | 2.6V | 07:45:57 | 02:56:01 | 00:00:00 | |
| BUE01 | 2026-09-03 13:15:24 | 53.00760 | 9.72489 | 122° | 199km/h | 10233m | -3.6m/s | -45.8°C | 37.9% | 266.1hPa | 2.5V | 00:00:00 | 00:00:00 | 00:00:00 | |
| DJ2DS-15 | 2026-09-03 13:15:23 | 53.00788 | 9.72419 | 123° | 203km/h | 10237m | -3.7m/s | -45.8°C | 37.7% | 265.9hPa | 2.5V | 00:00:00 | 00:00:00 | 00:00:00 | |
| DL3AQ-11 | 2026-09-03 13:15:22 | 53.00847 | 9.72275 | 124° | 208km/h | 10244m | -3.6m/s | -45.8°C | 37.2% | 265.6hPa | 2.5V | 00:00:00 | 00:00:00 | 00:00:00 | |
| DJ2DS-15 | 2026-09-03 13:15:21 | 53.00847 | 9.72275 | 125° | 197km/h | 10244m | -3.5m/s | -45.7°C | 42.7% | 265.6hPa | 2.5V | 00:00:00 | 02:55:59 | 00:00:00 | |
| GOEST3-10 | 2026-09-03 13:15:20 | 53.00877 | 9.72204 | 126° | 208km/h | 10248m | -3.6m/s | -45.8°C | 43.1% | 265.4hPa | 2.5V | 00:00:00 | 00:00:00 | 00:00:00 | |
| DO2SHX-10 | 2026-09-03 13:15:19 | 53.00908 | 9.72132 | 127° | 210km/h | 10251m | -3.7m/s | -45.8°C | 42.9% | 265.3hPa | 2.5V | 00:00:00 | 02:55:57 | 00:00:00 | |
| DL1XH-15 | 2026-09-03 13:15:18 | 53.01040 | 9.71859 | 129° | 204km/h | 10265m | -3.6m/s | -45.9°C | 43.8% | 264.8hPa | 2.5V | 07:46:01 | 02:55:53 | 00:00:00 | |
| DL1XH1-15 | 2026-09-03 13:15:17 | 53.01006 | 9.71925 | 129° | 206km/h | 10262m | -3.7m/s | -45.9°C | 43.4% | 264.9hPa | 2.6V | 07:46:00 | 02:55:54 | 00:00:00 | |
| DL1XH-west | 2026-09-03 13:15:17 | 53.00973 | 9.71993 | 129° | 208km/h | 10258m | -3.5m/s | -45.9°C | 45.1% | 265hPa | 2.6V | 07:46:48 | 02:55:55 | 00:00:00 | |
| DF8AY | 2026-09-03 13:15:16 | 53.01040 | 9.71859 | 130° | 204km/h | 10265m | -3.6m/s | -45.9°C | 45.1% | 264.8hPa | 2.5V | 07:46:48 | 02:55:53 | 00:00:00 | |
| AA1-15 | 2026-09-03 13:15:14 | 53.01073 | 9.71794 | 130° | 203km/h | 10269m | -3.6m/s | -46°C | 45.1% | 264.6hPa | 2.5V | 07:46:48 | 02:55:52 | 00:00:00 | |
| BIOWL1-15 | 2026-09-03 13:15:13 | 53.01105 | 9.71730 | 131° | 199km/h | 10273m | -3.7m/s | -46°C | 45% | 264.5hPa | 2.5V | 07:46:48 | 02:55:51 | 00:00:00 | |
| DO2SHX-10 | 2026-09-03 13:15:13 | 53.01105 | 9.71730 | 131° | 197km/h | 10273m | -3.7m/s | -45.9°C | 43.8% | 264.4hPa | 2.5V | 00:00:00 | 02:55:51 | 00:00:00 | |
| DL1XH1-15 | 2026-09-03 13:15:11 | 53.01321 | 9.71298 | 127° | 186km/h | 10299m | -3.6m/s | -46.3°C | 46.4% | 263.5hPa | 2.6V | 07:46:10 | 02:55:44 | 00:00:00 | |
| DL1XH-15 | 2026-09-03 13:15:10 | 53.01350 | 9.71236 | 126° | 184km/h | 10302m | -3.4m/s | -46.3°C | 46.5% | 263.3hPa | 2.6V | 07:46:11 | 02:55:43 | 00:00:00 | |
| DB0DAN | 2026-09-03 13:15:10 | 53.01202 | 9.71542 | 130° | 183km/h | 10284m | -3.8m/s | -46.1°C | 38.7% | 264.03hPa | 2.5V | 00:00:00 | 00:00:00 | 00:00:00 | |
| SONCRA | 2026-09-03 13:15:10 | 53.01233 | 9.71481 | 129° | 188km/h | 10288m | -3.7m/s | -46.1°C | 39.1% | 263.9hPa | 2.5V | 00:00:00 | 00:00:00 | 00:00:00 | |
| GOEST3-10 | 2026-09-03 13:15:09 | 53.01232 | 9.71481 | 130° | 186km/h | 10288m | -3.6m/s | -46.1°C | 44.8% | 263.8hPa | 2.5V | 07:46:00 | 00:00:00 | 00:00:00 | |
| DM0DOS-11 | 2026-09-03 13:15:07 | 53.01432 | 9.71045 | 124° | 188km/h | 10313m | -3.6m/s | -46.5°C | 46.7% | 262.9hPa | 2.5V | 07:46:14 | 02:55:40 | 00:00:00 | |
| DL1XH-west | 2026-09-03 13:15:06 | 53.01322 | 9.71298 | 128° | 186km/h | 10299m | -3.6m/s | -46.3°C | 46% | 263.5hPa | 2.6V | 07:46:48 | 02:55:44 | 00:00:00 | |
| DF8AY | 2026-09-03 13:15:04 | 53.01378 | 9.71174 | 126° | 186km/h | 10306m | -3.6m/s | -46.3°C | 46.6% | 263.1hPa | 2.6V | 07:46:48 | 02:55:42 | 00:00:00 | |
| BIOWL1-15 | 2026-09-03 13:15:04 | 53.01432 | 9.71045 | 124° | 188km/h | 10313m | -3.6m/s | -46.5°C | 47% | 262.9hPa | 2.5V | 07:46:48 | 02:55:40 | 00:00:00 | |
| AA1-15 | 2026-09-03 13:15:03 | 53.01405 | 9.71110 | 125° | 186km/h | 10310m | -3.7m/s | -46.4°C | 46.9% | 263hPa | 2.5V | 07:46:48 | 02:55:41 | 00:00:00 | |
| DL1XH1-15 | 2026-09-03 13:15:01 | 53.01595 | 9.70633 | 123° | 204km/h | 10336m | -3.8m/s | -46.7°C | 44.9% | 262hPa | 2.5V | 07:46:20 | 02:55:34 | 00:00:00 | |
| SMARD9-15 | 2026-09-03 13:15:00 | 53.01512 | 9.70844 | 123° | 195km/h | 10324m | -3.9m/s | -46.6°C | 40.3% | 262.4hPa | 2.6V | 00:00:00 | 00:00:00 | 00:00:00 | |
| EDDB2-12 | 2026-09-03 13:14:59 | 53.01539 | 9.70775 | 123° | 197km/h | 10328m | -3.7m/s | -46.7°C | 39.7% | 262.3hPa | 2.6V | 00:00:00 | 00:00:00 | 00:00:00 | |
| BIOWL7-15 | 2026-09-03 13:14:58 | 53.01539 | 9.70775 | 124° | 197km/h | 10328m | -3.7m/s | -46.7°C | 39.8% | 262.3hPa | 2.6V | 00:00:00 | 00:00:00 | 00:00:00 | |
| DL1XH-15 | 2026-09-03 13:14:57 | 53.01624 | 9.70561 | 123° | 206km/h | 10340m | -3.9m/s | -46.7°C | 44.4% | 261.8hPa | 2.6V | 07:46:21 | 02:55:33 | 00:00:00 | |
| DM0DOS-11 | 2026-09-03 13:14:56 | 53.01715 | 9.70345 | 126° | 212km/h | 10352m | -4.1m/s | -46.7°C | 44% | 261.4hPa | 2.5V | 07:46:24 | 02:55:30 | 00:00:00 | |
| DL1XH-west | 2026-09-03 13:14:56 | 53.01595 | 9.70633 | 123° | 204km/h | 10336m | -3.8m/s | -46.7°C | 47.2% | 262hPa | 2.5V | 07:46:48 | 02:55:34 | 00:00:00 | |
| DB0DAN | 2026-09-03 13:14:55 | 53.01624 | 9.70561 | 124° | 197km/h | 10340m | -3.9m/s | -46.7°C | 38.7% | 261.8hPa | 2.6V | 00:00:00 | 00:00:00 | 00:00:00 | |
| DF8AY | 2026-09-03 13:14:53 | 53.01684 | 9.70417 | 126° | 212km/h | 10348m | -3.8m/s | -46.8°C | 46.7% | 261.6hPa | 2.5V | 07:46:48 | 02:55:31 | 00:00:00 | |
| BIOWL1-15 | 2026-09-03 13:14:52 | 53.01715 | 9.70345 | 127° | 212km/h | 10352m | -4.1m/s | -46.7°C | 46.6% | 261.4hPa | 2.5V | 07:46:48 | 02:55:30 | 00:00:00 | |
| DO2SHX-10 | 2026-09-03 13:14:52 | 53.01715 | 9.70345 | 127° | 212km/h | 10352m | -4.0m/s | -46.7°C | 44.0% | 261.3hPa | 2.6V | 07:46:00 | 02:55:30 | 00:00:00 | |
| SMARD9-10 | 2026-09-03 13:14:51 | 53.01715 | 9.70345 | 127° | 212km/h | 10352m | -4.1m/s | -46.7°C | 38.3% | 261.4hPa | 2.6V | 00:00:00 | 00:00:00 | 00:00:00 | |
| DL1XH-15 | 2026-09-03 13:14:50 | 53.01942 | 9.69879 | 129° | 192km/h | 10377m | -3.7m/s | -47°C | 47.1% | 260.3hPa | 2.6V | 07:46:31 | 02:55:23 | 00:00:00 | |
| DL1XH-west | 2026-09-03 13:14:45 | 53.01942 | 9.69879 | 130° | 192km/h | 10377m | -3.7m/s | -47°C | 46.6% | 260.3hPa | 2.6V | 07:46:48 | 02:55:23 | 00:00:00 | |
| GOEST3-10 | 2026-09-03 13:14:44 | 53.01973 | 9.69817 | 130° | 186km/h | 10381m | -3.6m/s | -47.0°C | 47.2% | 260.2hPa | 2.5V | 00:00:00 | 02:55:22 | 00:00:00 | |
| DM0DOS-11 | 2026-09-03 13:14:43 | 53.02033 | 9.69695 | 128° | 186km/h | 10388m | -3.8m/s | -47°C | 47% | 259.9hPa | 2.5V | 07:46:34 | 02:55:20 | 00:00:00 | |
| DF8AY | 2026-09-03 13:14:43 | 53.02004 | 9.69756 | 129° | 188km/h | 10385m | -3.8m/s | -47°C | 46.6% | 260.1hPa | 2.5V | 07:46:48 | 02:55:21 | 00:00:00 | |
| BIOWL1-15 | 2026-09-03 13:14:43 | 53.02062 | 9.69633 | 128° | 186km/h | 10392m | -4m/s | -47.1°C | 46.8% | 259.8hPa | 2.5V | 07:46:48 | 02:55:19 | 00:00:00 | |
| AA1-15 | 2026-09-03 13:14:42 | 53.02033 | 9.69695 | 128° | 186km/h | 10388m | -3.8m/s | -47°C | 46.7% | 259.9hPa | 2.5V | 07:46:48 | 02:55:20 | 00:00:00 | |
| DL1XH1-15 | 2026-09-03 13:14:41 | 53.02200 | 9.69319 | 124° | 188km/h | 10412m | -3.9m/s | -47.3°C | 45.9% | 259hPa | 2.5V | 07:46:40 | 02:55:14 | 00:00:00 | |
| DB0DAN | 2026-09-03 13:14:40 | 53.02091 | 9.69572 | 127° | 177km/h | 10396m | -4m/s | -47.1°C | 40.3% | 259.59hPa | 2.5V | 00:00:00 | 00:00:00 | 00:00:00 | |
| DL1XH-west | 2026-09-03 13:14:35 | 53.02227 | 9.69253 | 124° | 190km/h | 10416m | -3.9m/s | -47.4°C | 46.9% | 258.8hPa | 2.5V | 07:46:48 | 02:55:13 | 00:00:00 | |
| DL4XJ-10 | 2026-09-03 13:14:34 | 53.02253 | 9.69186 | 124° | 203km/h | 10421m | -3.9m/s | -46.6°C | 0% | 0hPa | 2.6V | 00:00:00 | 00:00:00 | 00:00:00 | |
| DM0DOS-11 | 2026-09-03 13:14:33 | 53.02307 | 9.69049 | 123° | 197km/h | 10428m | -3.8m/s | -47.5°C | 45.4% | 258.4hPa | 2.6V | 07:46:44 | 02:55:10 | 00:00:00 | |
| AA1-15 | 2026-09-03 13:14:32 | 53.02307 | 9.69049 | 123° | 199km/h | 10428m | -3.8m/s | -47.5°C | 46.8% | 258.4hPa | 2.6V | 07:46:48 | 02:55:10 | 00:00:00 | |
| BIOWL1-15 | 2026-09-03 13:14:30 | 53.02363 | 9.68908 | 124° | 204km/h | 10435m | -3.8m/s | -47.6°C | 46.6% | 258.1hPa | 2.5V | 07:46:48 | 02:55:08 | 00:00:00 | |
| DL1XH-west | 2026-09-03 13:14:25 | 53.02515 | 9.68555 | 127° | 208km/h | 10454m | -3.7m/s | -47.7°C | 45.9% | 257.3hPa | 2.5V | 07:47:39 | 02:55:03 | 00:00:00 | |
| DB0DAN | 2026-09-03 13:14:25 | 53.02515 | 9.68555 | 127° | 199km/h | 10454m | -3.7m/s | -47.7°C | 38.5% | 257.34hPa | 2.5V | 00:00:00 | 00:00:00 | 00:00:00 | |
| GOEST3-10 | 2026-09-03 13:14:24 | 53.02547 | 9.68485 | 128° | 206km/h | 10458m | -3.8m/s | -47.6°C | 44.1% | 257.2hPa | 2.6V | 00:00:00 | 02:55:02 | 00:00:00 | |
| DM0DOS-11 | 2026-09-03 13:14:23 | 53.02611 | 9.68348 | 128° | 206km/h | 10465m | -3.7m/s | -47.6°C | 44.2% | 256.9hPa | 2.6V | 07:46:54 | 02:55:00 | 00:00:00 | |
| DF8AY | 2026-09-03 13:14:21 | 53.02775 | 9.68022 | 130° | 197km/h | 10485m | -4m/s | -47.8°C | 45.8% | 256.1hPa | 2.6V | 07:47:39 | 02:54:55 | 00:00:00 | |
| DL1XH1-15 | 2026-09-03 13:14:21 | 53.02806 | 9.67960 | 130° | 193km/h | 10489m | -3.9m/s | -47.8°C | 45.2% | 256hPa | 2.5V | 07:47:00 | 02:54:54 | 00:00:00 | |
| AA1-15 | 2026-09-03 13:14:21 | 53.02644 | 9.68281 | 129° | 206km/h | 10469m | -3.9m/s | -47.6°C | 45.7% | 256.7hPa | 2.5V | 07:47:39 | 02:54:59 | 00:00:00 | |
| BIOWL1-15 | 2026-09-03 13:14:19 | 53.02710 | 9.68150 | 130° | 201km/h | 10477m | -4m/s | -47.7°C | 45.7% | 256.4hPa | 2.5V | 07:47:39 | 02:54:57 | 00:00:00 | |
| DO2SHX-10 | 2026-09-03 13:14:19 | 53.02710 | 9.68150 | 131° | 199km/h | 10477m | -4.0m/s | -47.7°C | 44.5% | 256.4hPa | 2.5V | 00:00:00 | 02:54:57 | 00:00:00 | |
| DF8AY-15 | 2026-09-03 13:14:18 | 53.02742 | 9.68086 | 131° | 192km/h | 10481m | -3.9m/s | -47.7°C | 44.8% | 256.2hPa | 2.6V | 00:00:00 | 02:54:56 | 00:00:00 | |
| DM0DOS-11 | 2026-09-03 13:14:17 | 53.02927 | 9.67715 | 127° | 184km/h | 10504m | -3.8m/s | -48°C | 46.4% | 255.4hPa | 2.6V | 07:47:04 | 02:54:50 | 00:00:00 | |
| DO2SHX-10 | 2026-09-03 13:14:16 | 53.02806 | 9.67960 | 131° | 192km/h | 10489m | -3.9m/s | -47.8°C | 45.2% | 255.9hPa | 2.5V | 00:00:00 | 02:54:54 | 00:00:00 | |
| DL4XJ-10 | 2026-09-03 13:14:14 | 53.02868 | 9.67837 | 130° | 193km/h | 10497m | -3.7m/s | -47.1°C | 0% | 0hPa | 2.5V | 00:00:00 | 00:00:00 | 00:00:00 | |
| DO2SHX-10 | 2026-09-03 13:14:13 | 53.02898 | 9.67776 | 129° | 184km/h | 10501m | -3.8m/s | -47.9°C | 45.8% | 255.4hPa | 2.5V | 00:00:00 | 02:54:51 | 00:00:00 | |
| DO2LYB-13 | 2026-09-03 13:14:12 | 53.02898 | 9.67776 | 130° | 186km/h | 10501m | -3.8m/s | -47.9°C | 39.7% | 255.5hPa | 2.5V | 00:00:00 | 00:00:00 | 00:00:00 | |
| DL1XH1-15 | 2026-09-03 13:14:11 | 53.03089 | 9.67333 | 123° | 190km/h | 10528m | -4m/s | -48.3°C | 47.4% | 254.5hPa | 2.5V | 07:47:10 | 02:54:44 | 00:00:00 | |
| AA1-15 | 2026-09-03 13:14:10 | 53.02983 | 9.67591 | 126° | 184km/h | 10512m | -3.8m/s | -48.1°C | 46.5% | 255.1hPa | 2.5V | 07:47:39 | 02:54:48 | 00:00:00 | |
| DB0DAN | 2026-09-03 13:14:10 | 53.02983 | 9.67591 | 126° | 175km/h | 10512m | -3.8m/s | -48.1°C | 40.6% | 255.07hPa | 2.5V | 00:00:00 | 00:00:00 | 00:00:00 | |
| BIOWL1-15 | 2026-09-03 13:14:09 | 53.03010 | 9.67528 | 125° | 184km/h | 10516m | -3.9m/s | -48.2°C | 46.6% | 254.9hPa | 2.5V | 07:47:39 | 02:54:47 | 00:00:00 | |
| GOEST3-10 | 2026-09-03 13:14:09 | 53.03010 | 9.67528 | 125° | 188km/h | 10516m | -3.9m/s | -48.1°C | 47.2% | 254.9hPa | 2.5V | 00:00:00 | 00:00:00 | 00:00:00 | |
| DL1XH-15 | 2026-09-03 13:14:07 | 53.03115 | 9.67266 | 123° | 192km/h | 10531m | -4m/s | -48.3°C | 47.2% | 254.3hPa | 2.5V | 07:47:11 | 02:54:43 | 00:00:00 | |
| DO2SHX-10 | 2026-09-03 13:14:07 | 53.03063 | 9.67399 | 124° | 190km/h | 10524m | -3.9m/s | -48.2°C | 47.7% | 254.6hPa | 2.6V | 00:00:00 | 02:54:45 | 00:00:00 | |
| DM0DOS-11 | 2026-09-03 13:14:06 | 53.03195 | 9.67061 | 122° | 197km/h | 10543m | -3.8m/s | -48.4°C | 46.1% | 253.8hPa | 2.6V | 07:47:14 | 02:54:40 | 00:00:00 | |
| SONDE2-11 | 2026-09-03 13:14:05 | 53.03115 | 9.67266 | 123° | 190km/h | 10532m | -4.0m/s | -48.3°C | 40.9% | 254.3hPa | 2.5V | 00:00:00 | 00:00:00 | 00:00:00 | |
| DO2SHX-10 | 2026-09-03 13:14:04 | 53.03142 | 9.67198 | 123° | 195km/h | 10536m | -4.0m/s | -48.3°C | 47.0% | 254.1hPa | 2.5V | 07:47:00 | 02:54:42 | 00:00:00 | |
| DF5WG-10 | 2026-09-03 13:14:03 | 53.03168 | 9.67130 | 123° | 204km/h | 10540m | -3.9m/s | -48.4°C | 46.6% | 253.9hPa | 2.5V | 00:00:00 | 02:54:41 | 00:00:00 | |
| DL3AQ-11 | 2026-09-03 13:14:02 | 53.03222 | 9.66991 | 122° | 199km/h | 10547m | -3.9m/s | -48.4°C | 39.4% | 253.7hPa | 2.5V | 00:00:00 | 00:00:00 | 00:00:00 | |
| DL1XH1-15 | 2026-09-03 13:14:01 | 53.03364 | 9.66633 | 124° | 208km/h | 10567m | -4m/s | -48.5°C | 43.1% | 252.9hPa | 2.5V | 07:47:20 | 02:54:34 | 00:00:00 | |
| DL1XH-west | 2026-09-03 13:14:01 | 53.03222 | 9.66991 | 123° | 199km/h | 10547m | -3.9m/s | -48.4°C | 46.8% | 253.7hPa | 2.5V | 07:47:39 | 02:54:39 | 00:00:00 | |
| AA1-15 | 2026-09-03 13:13:59 | 53.03278 | 9.66849 | 123° | 203km/h | 10555m | -3.7m/s | -48.4°C | 46.5% | 253.4hPa | 2.5V | 07:47:39 | 02:54:37 | 00:00:00 | |
| DF8AY | 2026-09-03 13:13:58 | 53.03306 | 9.66777 | 123° | 204km/h | 10559m | -3.9m/s | -48.5°C | 46.3% | 253.2hPa | 2.6V | 07:47:39 | 02:54:36 | 00:00:00 | |
| SMARD9-15 | 2026-09-03 13:13:58 | 53.03334 | 9.66705 | 123° | 206km/h | 10563m | -4.1m/s | -48.5°C | 37.4% | 253.1hPa | 2.5V | 00:00:00 | 00:00:00 | 00:00:00 | |
| DL1XH-15 | 2026-09-03 13:13:57 | 53.03394 | 9.66561 | 124° | 210km/h | 10570m | -3.8m/s | -48.5°C | 42.7% | 252.8hPa | 2.5V | 07:47:21 | 02:54:33 | 00:00:00 | |
| EDDB2-12 | 2026-09-03 13:13:57 | 53.03364 | 9.66633 | 124° | 208km/h | 10567m | -4.0m/s | -48.5°C | 37.1% | 252.9hPa | 2.5V | 00:00:00 | 00:00:00 | 00:00:00 | |
| DB0DAN | 2026-09-03 13:13:55 | 53.03394 | 9.66561 | 125° | 199km/h | 10570m | -3.8m/s | -48.5°C | 36.8% | 252.78hPa | 2.5V | 00:00:00 | 00:00:00 | 00:00:00 | |
| DO2SHX-10 | 2026-09-03 13:13:55 | 53.03394 | 9.66561 | 125° | 210km/h | 10571m | -3.8m/s | -48.4°C | 42.7% | 252.7hPa | 2.6V | 00:00:00 | 02:54:33 | 00:00:00 | |
| DL4XJ-10 | 2026-09-03 13:13:54 | 53.03424 | 9.66489 | 126° | 193km/h | 10574m | -3.8m/s | -47.7°C | 0% | 0hPa | 2.6V | 00:00:00 | 00:00:00 | 00:00:00 | |
| DM0DOS-11 | 2026-09-03 13:13:53 | 53.03487 | 9.66347 | 127° | 210km/h | 10582m | -3.9m/s | -48.5°C | 42.7% | 252.4hPa | 2.6V | 07:47:24 | 02:54:30 | 00:00:00 | |
| DO2JMG | 2026-09-03 13:13:52 | 53.03487 | 9.66347 | 127° | 210km/h | 10582m | -3.9m/s | -48.5°C | 45.3% | 252.4hPa | 2.6V | 07:47:39 | 02:54:30 | 00:00:00 | |
| BIOWL1-15 | 2026-09-03 13:13:51 | 53.03649 | 9.66015 | 129° | 195km/h | 10601m | -3.6m/s | -48.8°C | 45.7% | 251.7hPa | 2.6V | 07:47:39 | 02:54:25 | 00:00:00 | |
| DL1XH-west | 2026-09-03 13:13:51 | 53.03520 | 9.66278 | 128° | 208km/h | 10586m | -3.8m/s | -48.5°C | 45.2% | 252.2hPa | 2.5V | 07:47:39 | 02:54:29 | 00:00:00 | |
| AA1-15 | 2026-09-03 13:13:48 | 53.03617 | 9.66078 | 129° | 199km/h | 10597m | -3.8m/s | -48.7°C | 45.5% | 251.8hPa | 2.6V | 07:47:39 | 02:54:26 | 00:00:00 | |
| DL1XH-15 | 2026-09-03 13:13:47 | 53.03710 | 9.65889 | 128° | 188km/h | 10608m | -3.6m/s | -48.8°C | 46.5% | 251.3hPa | 2.5V | 07:47:31 | 02:54:23 | 00:00:00 | |
| DL3AQ-11 | 2026-09-03 13:13:45 | 53.03710 | 9.65889 | 128° | 188km/h | 10608m | -3.7m/s | -48.8°C | 40.1% | 251.4hPa | 2.5V | 00:00:00 | 00:00:00 | 00:00:00 | |
| DL1XH-west | 2026-09-03 13:13:41 | 53.03823 | 9.65641 | 126° | 184km/h | 10623m | -3.9m/s | -49°C | 46.3% | 250.8hPa | 2.5V | 07:47:39 | 02:54:19 | 00:00:00 | |
| DB0DAN | 2026-09-03 13:13:40 | 53.03850 | 9.65578 | 125° | 175km/h | 10627m | -3.9m/s | -49°C | 39.6% | 250.6hPa | 2.5V | 00:00:00 | 00:00:00 | 00:00:00 | |
| DF8AY | 2026-09-03 13:13:38 | 53.03903 | 9.65450 | 124° | 184km/h | 10635m | -3.9m/s | -49.1°C | 46.3% | 250.3hPa | 2.6V | 07:47:39 | 02:54:16 | 00:00:00 | |
| BIOWL1-15 | 2026-09-03 13:13:37 | 53.03929 | 9.65385 | 123° | 186km/h | 10638m | -3.8m/s | -49.2°C | 46.3% | 250.2hPa | 2.6V | 07:47:39 | 02:54:15 | 00:00:00 | |
| DO2SHX-10 | 2026-09-03 13:13:37 | 53.03929 | 9.65385 | 124° | 188km/h | 10639m | -3.8m/s | -49.2°C | 45.9% | 250.1hPa | 2.6V | 00:00:00 | 02:54:15 | 00:00:00 | |
| DM0DOS-11 | 2026-09-03 13:13:36 | 53.04058 | 9.65043 | 121° | 199km/h | 10657m | -3.6m/s | -49.4°C | 45.9% | 249.3hPa | 2.6V | 07:47:44 | 02:54:10 | 00:00:00 | |
| DL1XH-west | 2026-09-03 13:13:30 | 53.04112 | 9.64899 | 122° | 204km/h | 10665m | -3.8m/s | -49.4°C | 46.1% | 249.2hPa | 2.5V | 07:48:30 | 02:54:08 | 00:00:00 | |
| DF8AY | 2026-09-03 13:13:28 | 53.04169 | 9.64754 | 123° | 208km/h | 10672m | -3.9m/s | -49.4°C | 45.9% | 248.9hPa | 2.6V | 07:48:30 | 02:54:06 | 00:00:00 | |
| BIOWL1-15 | 2026-09-03 13:13:26 | 53.04227 | 9.64608 | 124° | 210km/h | 10680m | -3.7m/s | -49.4°C | 45.4% | 248.6hPa | 2.5V | 07:48:30 | 02:54:04 | 00:00:00 | |
| DB0DAN | 2026-09-03 13:13:25 | 53.04257 | 9.64535 | 125° | 201km/h | 10684m | -3.9m/s | -49.4°C | 36.9% | 248.46hPa | 2.5V | 00:00:00 | 00:00:00 | 00:00:00 | |
| DO2SHX-10 | 2026-09-03 13:13:24 | 53.04288 | 9.64463 | 126° | 210km/h | 10688m | -3.9m/s | -49.3°C | 42.6% | 248.3hPa | 2.5V | 00:00:00 | 02:54:02 | 00:00:00 | |
| DL1XH1-15 | 2026-09-03 13:13:21 | 53.04539 | 9.63918 | 128° | 195km/h | 10718m | -3.6m/s | -49.6°C | 45.4% | 247.1hPa | 2.5V | 07:48:00 | 02:53:54 | 00:00:00 | |
| DO2JMG | 2026-09-03 13:13:20 | 53.04414 | 9.64181 | 128° | 206km/h | 10703m | -3.9m/s | -49.5°C | 45.2% | 247.7hPa | 2.5V | 07:48:30 | 02:53:58 | 00:00:00 | |
| DL1XH-west | 2026-09-03 13:13:19 | 53.04445 | 9.64113 | 128° | 203km/h | 10707m | -3.8m/s | -49.5°C | 45.3% | 247.6hPa | 2.5V | 07:48:30 | 02:53:57 | 00:00:00 | |
| DF8AY | 2026-09-03 13:13:17 | 53.04509 | 9.63982 | 129° | 197km/h | 10714m | -3.8m/s | -49.6°C | 45.7% | 247.3hPa | 2.6V | 07:48:30 | 02:53:55 | 00:00:00 | |
| AA1-15 | 2026-09-03 13:13:15 | 53.04570 | 9.63854 | 128° | 192km/h | 10722m | -3.6m/s | -49.7°C | 46.2% | 247hPa | 2.5V | 07:48:30 | 02:53:53 | 00:00:00 | |
| DL4XJ-10 | 2026-09-03 13:13:14 | 53.04599 | 9.63791 | 128° | 197km/h | 10726m | -3.5m/s | -48.9°C | 0% | 0hPa | 2.5V | 00:00:00 | 00:00:00 | 00:00:00 | |
| DO2SHX-10 | 2026-09-03 13:13:11 | 53.04683 | 9.63600 | 125° | 186km/h | 10736m | -3.6m/s | -49.9°C | 47.9% | 246.4hPa | 2.5V | 00:00:00 | 02:53:49 | 00:00:00 | |
| DL1XH1-15 | 2026-09-03 13:13:10 | 53.04812 | 9.63268 | 121° | 192km/h | 10754m | -3.6m/s | -50.1°C | 48% | 245.7hPa | 2.5V | 07:48:10 | 02:53:44 | 00:00:00 | |
| DO2JMG | 2026-09-03 13:13:10 | 53.04709 | 9.63535 | 124° | 186km/h | 10740m | -3.6m/s | -50°C | 47.6% | 246.3hPa | 2.5V | 07:48:30 | 02:53:48 | 00:00:00 | |
| DB0DAN | 2026-09-03 13:13:10 | 53.04709 | 9.63535 | 124° | 179km/h | 10740m | -3.6m/s | -50°C | 41% | 246.33hPa | 2.5V | 00:00:00 | 00:00:00 | 00:00:00 | |
| DL1XH-west | 2026-09-03 13:13:09 | 53.04735 | 9.63469 | 123° | 188km/h | 10743m | -3.7m/s | -50°C | 47.8% | 246.2hPa | 2.5V | 07:48:30 | 02:53:47 | 00:00:00 | |
| GOEST3-10 | 2026-09-03 13:13:09 | 53.04735 | 9.63469 | 123° | 190km/h | 10743m | -3.7m/s | -49.9°C | 47.7% | 246.1hPa | 2.5V | 07:48:00 | 00:00:00 | 00:00:00 | |
| DO2SHX-10 | 2026-09-03 13:13:08 | 53.04761 | 9.63403 | 123° | 190km/h | 10747m | -3.8m/s | -50.0°C | 47.8% | 246.0hPa | 2.5V | 00:00:00 | 02:53:46 | 00:00:00 | |
| DL1XH-15 | 2026-09-03 13:13:07 | 53.04837 | 9.63199 | 121° | 193km/h | 10758m | -3.8m/s | -50.2°C | 48.1% | 245.6hPa | 2.5V | 07:48:11 | 02:53:43 | 00:00:00 | |
| DF8AY | 2026-09-03 13:13:06 | 53.04812 | 9.63268 | 122° | 192km/h | 10755m | -3.6m/s | -50.1°C | 48.5% | 245.7hPa | 2.5V | 07:48:30 | 02:53:44 | 00:00:00 | |
| BIOWL1-15 | 2026-09-03 13:13:05 | 53.04838 | 9.63199 | 122° | 193km/h | 10758m | -3.8m/s | -50.2°C | 48.7% | 245.6hPa | 2.5V | 07:48:30 | 02:53:43 | 00:00:00 | |
| AA1-15 | 2026-09-03 13:13:04 | 53.04863 | 9.63130 | 121° | 195km/h | 10762m | -3.9m/s | -50.2°C | 48.8% | 245.4hPa | 2.5V | 07:48:30 | 02:53:42 | 00:00:00 | |
| GOEST3-10 | 2026-09-03 13:13:04 | 53.04863 | 9.63130 | 122° | 201km/h | 10762m | -3.8m/s | -50.2°C | 48.1% | 245.4hPa | 2.5V | 00:00:00 | 02:53:42 | 00:00:00 | |
| SONDE2-11 | 2026-09-03 13:13:03 | 53.04889 | 9.63059 | 121° | 197km/h | 10766m | -3.9m/s | -50.3°C | 41.4% | 245.4hPa | 2.5V | 00:00:00 | 00:00:00 | 00:00:00 | |
| DO2SHX-10 | 2026-09-03 13:13:02 | 53.04915 | 9.62988 | 122° | 203km/h | 10770m | -3.6m/s | -50.2°C | 48.1% | 245.2hPa | 2.5V | 00:00:00 | 02:53:40 | 00:00:00 | |
| DJ2DS-15 | 2026-09-03 13:13:01 | 53.04941 | 9.62915 | 122° | 204km/h | 10773m | -3.7m/s | -50.3°C | 48.2% | 245.0hPa | 2.5V | 00:00:00 | 02:53:39 | 00:00:00 | |
| DL1XH1-15 | 2026-09-03 13:13:00 | 53.05083 | 9.62547 | 123° | 212km/h | 10792m | -3.8m/s | -50.4°C | 48.1% | 244.3hPa | 2.5V | 07:48:20 | 02:53:34 | 00:00:00 | |
| DL1XH-west | 2026-09-03 13:12:59 | 53.04996 | 9.62769 | 122° | 208km/h | 10781m | -3.7m/s | -50.4°C | 49.4% | 244.8hPa | 2.5V | 07:48:30 | 02:53:37 | 00:00:00 | |
| DO2SHX-10 | 2026-09-03 13:12:59 | 53.04996 | 9.62769 | 123° | 210km/h | 10781m | -3.6m/s | -50.3°C | 48.2% | 244.7hPa | 2.5V | 00:00:00 | 02:53:37 | 00:00:00 | |
| DL4BBY-15 | 2026-09-03 13:12:58 | 53.05024 | 9.62695 | 123° | 201km/h | 10785m | -3.6m/s | -49.6°C | 0% | 0hPa | 2.5V | 00:00:00 | 00:00:00 | 00:00:00 | |
| DL1XH-15 | 2026-09-03 13:12:57 | 53.05113 | 9.62473 | 124° | 212km/h | 10796m | -3.7m/s | -50.4°C | 48.1% | 244.2hPa | 2.5V | 07:48:21 | 02:53:33 | 00:00:00 | |
| DF8AY | 2026-09-03 13:12:56 | 53.05083 | 9.62547 | 124° | 212km/h | 10792m | -3.8m/s | -50.4°C | 49.8% | 244.3hPa | 2.5V | 07:48:30 | 02:53:34 | 00:00:00 | |
| DB0DAN | 2026-09-03 13:12:55 | 53.05113 | 9.62474 | 125° | 203km/h | 10796m | -3.7m/s | -50.4°C | 41.4% | 244.18hPa | 2.5V | 00:00:00 | 00:00:00 | 00:00:00 | |
| BIOWL1-15 | 2026-09-03 13:12:54 | 53.05143 | 9.62400 | 125° | 214km/h | 10800m | -3.7m/s | -50.5°C | 49.9% | 244hPa | 2.5V | 07:48:30 | 02:53:32 | 00:00:00 | |
| AA1-15 | 2026-09-03 13:12:53 | 53.05175 | 9.62328 | 126° | 212km/h | 10803m | -3.8m/s | -50.5°C | 49.9% | 243.9hPa | 2.6V | 07:48:30 | 02:53:31 | 00:00:00 | |
| DL3AQ-11 | 2026-09-03 13:12:52 | 53.05206 | 9.62256 | 126° | 210km/h | 10807m | -3.9m/s | -50.5°C | 41.9% | 243.8hPa | 2.5V | 00:00:00 | 00:00:00 | 00:00:00 | |
| DL1XH1-15 | 2026-09-03 13:12:50 | 53.05399 | 9.61849 | 128° | 197km/h | 10830m | -3.8m/s | -50.7°C | 51.1% | 242.9hPa | 2.5V | 07:48:30 | 02:53:24 | 00:00:00 | |
| DL1XH-west | 2026-09-03 13:12:48 | 53.05335 | 9.61980 | 129° | 203km/h | 10823m | -3.9m/s | -50.7°C | 50.3% | 243.2hPa | 2.6V | 07:48:30 | 02:53:26 | 00:00:00 | |
| DL1XH-15 | 2026-09-03 13:12:47 | 53.05429 | 9.61785 | 128° | 193km/h | 10834m | -3.9m/s | -50.7°C | 51.7% | 242.7hPa | 2.5V | 07:48:31 | 02:53:23 | 00:00:00 | |
| DF5WG-10 | 2026-09-03 13:12:47 | 53.05367 | 9.61914 | 129° | 197km/h | 10826m | -3.8m/s | -50.6°C | 50.5% | 243.0hPa | 2.5V | 07:48:00 | 02:53:25 | 00:00:00 | |
| DM0DOS-11 | 2026-09-03 13:12:46 | 53.05460 | 9.61722 | 127° | 190km/h | 10838m | -3.8m/s | -50.7°C | 51.8% | 242.6hPa | 2.5V | 07:48:32 | 02:53:22 | 00:00:00 | |
| DF8AY | 2026-09-03 13:12:45 | 53.05429 | 9.61785 | 129° | 193km/h | 10834m | -3.9m/s | -50.7°C | 50.8% | 242.7hPa | 2.5V | 07:49:21 | 02:53:23 | 00:00:00 | |
| BIOWL1-15 | 2026-09-03 13:12:43 | 53.05489 | 9.61658 | 127° | 188km/h | 10842m | -3.8m/s | -50.8°C | 50.9% | 242.4hPa | 2.6V | 07:49:21 | 02:53:21 | 00:00:00 | |
| DO2JMG | 2026-09-03 13:12:42 | 53.05517 | 9.61595 | 126° | 186km/h | 10846m | -3.6m/s | -50.8°C | 51% | 242.3hPa | 2.6V | 07:49:21 | 02:53:20 | 00:00:00 | |
| DB0DAN | 2026-09-03 13:12:40 | 53.05570 | 9.61467 | 124° | 177km/h | 10853m | -3.9m/s | -50.9°C | 44.3% | 242.07hPa | 2.5V | 00:00:00 | 00:00:00 | 00:00:00 | |
| DM0DOS-11 | 2026-09-03 13:12:39 | 53.05724 | 9.61055 | 121° | 203km/h | 10875m | -3.6m/s | -51.2°C | 50.6% | 241.2hPa | 2.5V | 07:48:42 | 02:53:12 | 00:00:00 | |
| DL1XH-west | 2026-09-03 13:12:38 | 53.05622 | 9.61335 | 122° | 190km/h | 10861m | -3.6m/s | -51°C | 51.3% | 241.8hPa | 2.6V | 07:49:21 | 02:53:16 | 00:00:00 | |
| DF8AY | 2026-09-03 13:12:35 | 53.05698 | 9.61127 | 121° | 199km/h | 10872m | -3.7m/s | -51.2°C | 51.7% | 241.4hPa | 2.5V | 07:49:21 | 02:53:13 | 00:00:00 | |
| AA1-15 | 2026-09-03 13:12:32 | 53.05779 | 9.60909 | 122° | 208km/h | 10883m | -3.8m/s | -51.3°C | 51.7% | 240.9hPa | 2.6V | 07:49:21 | 02:53:10 | 00:00:00 | |
| DO2JMG | 2026-09-03 13:12:31 | 53.05807 | 9.60835 | 123° | 210km/h | 10887m | -3.7m/s | -51.3°C | 51.6% | 240.8hPa | 2.5V | 07:49:21 | 02:53:09 | 00:00:00 | |
| DB0NH | 2026-09-03 13:12:31 | 53.05807 | 9.60835 | 123° | 204km/h | 10887m | -3.6m/s | -51.2°C | 49.9% | 240.7hPa | 2.5V | 00:00:00 | 02:53:09 | 00:00:00 | |
| DL1XH1-15 | 2026-09-03 13:12:30 | 53.05960 | 9.60473 | 127° | 210km/h | 10905m | -3.5m/s | -51.4°C | 50.4% | 240.1hPa | 2.5V | 07:48:50 | 02:53:04 | 00:00:00 | |
| DL1XH-west | 2026-09-03 13:12:27 | 53.05928 | 9.60543 | 127° | 210km/h | 10901m | -3.6m/s | -51.4°C | 51.4% | 240.2hPa | 2.6V | 07:49:21 | 02:53:05 | 00:00:00 | |
| DM0DOS-11 | 2026-09-03 13:12:26 | 53.06025 | 9.60336 | 128° | 204km/h | 10912m | -3.5m/s | -51.5°C | 51.1% | 239.8hPa | 2.5V | 07:48:52 | 02:53:02 | 00:00:00 | |
| DB0DAN | 2026-09-03 13:12:25 | 53.05992 | 9.60404 | 128° | 197km/h | 10908m | -3.6m/s | -51.4°C | 43.5% | 239.93hPa | 2.5V | 00:00:00 | 00:00:00 | 00:00:00 | |
| DF8AY | 2026-09-03 13:12:24 | 53.06024 | 9.60336 | 128° | 204km/h | 10912m | -3.5m/s | -51.5°C | 51.3% | 239.8hPa | 2.5V | 07:49:21 | 02:53:02 | 00:00:00 | |
| AA1-15 | 2026-09-03 13:12:22 | 53.06120 | 9.60138 | 129° | 197km/h | 10923m | -3.6m/s | -51.5°C | 51.1% | 239.5hPa | 2.5V | 07:49:21 | 02:52:59 | 00:00:00 | |
| BIOWL1-15 | 2026-09-03 13:12:21 | 53.06181 | 9.60011 | 129° | 192km/h | 10930m | -3.6m/s | -51.6°C | 51.2% | 239.2hPa | 2.5V | 07:49:21 | 02:52:57 | 00:00:00 | |
| DO2JMG | 2026-09-03 13:12:20 | 53.06151 | 9.60074 | 129° | 193km/h | 10926m | -3.6m/s | -51.6°C | 51.2% | 239.3hPa | 2.5V | 07:49:21 | 02:52:58 | 00:00:00 | |
| DO2SHX-10 | 2026-09-03 13:12:20 | 53.06151 | 9.60074 | 129° | 192km/h | 10926m | -3.6m/s | -51.5°C | 52.0% | 239.3hPa | 2.5V | 00:00:00 | 02:52:58 | 00:00:00 | |
| GOEST3-10 | 2026-09-03 13:12:19 | 53.06181 | 9.60011 | 129° | 188km/h | 10930m | -3.5m/s | -51.5°C | 52.3% | 239.1hPa | 2.5V | 00:00:00 | 00:00:00 | 00:00:00 | |
| DF8AY-15 | 2026-09-03 13:12:18 | 53.06211 | 9.59949 | 129° | 195km/h | 10933m | -3.7m/s | -51.6°C | 52.9% | 239.0hPa | 2.5V | 00:00:00 | 02:52:56 | 00:00:00 | |
| DL1XH-15 | 2026-09-03 13:12:17 | 53.06297 | 9.59762 | 126° | 184km/h | 10945m | -3.8m/s | -51.7°C | 52.6% | 238.6hPa | 2.5V | 07:49:01 | 02:52:53 | 00:00:00 | |
| DL1XH-west | 2026-09-03 13:12:17 | 53.06240 | 9.59886 | 128° | 186km/h | 10937m | -3.8m/s | -51.6°C | 51.3% | 238.9hPa | 2.6V | 07:49:21 | 02:52:55 | 00:00:00 | |
| DF8AY | 2026-09-03 13:12:14 | 53.06325 | 9.59700 | 126° | 184km/h | 10949m | -3.8m/s | -51.8°C | 51.2% | 238.5hPa | 2.5V | 07:49:21 | 02:52:52 | 00:00:00 | |
| DO2SHX-10 | 2026-09-03 13:12:14 | 53.06325 | 9.59700 | 127° | 184km/h | 10949m | -3.8m/s | -51.7°C | 52.4% | 238.4hPa | 2.5V | 00:00:00 | 02:52:52 | 00:00:00 | |
| DL3AQ-11 | 2026-09-03 13:12:13 | 53.06378 | 9.59574 | 124° | 183km/h | 10956m | -4.0m/s | -51.9°C | 43.9% | 238.2hPa | 2.5V | 00:00:00 | 00:00:00 | 00:00:00 | |
| DO2SHX-10 | 2026-09-03 13:12:11 | 53.06404 | 9.59510 | 124° | 188km/h | 10961m | -3.6m/s | -51.8°C | 50.5% | 238.0hPa | 2.5V | 00:00:00 | 02:52:49 | 00:00:00 | |
| BIOWL1-15 | 2026-09-03 13:12:11 | 53.06404 | 9.59510 | 124° | 184km/h | 10960m | -3.7m/s | -51.8°C | 50.9% | 238hPa | 2.5V | 07:49:21 | 02:52:49 | 00:00:00 | |
| DL1XH1-15 | 2026-09-03 13:12:10 | 53.06532 | 9.59168 | 121° | 201km/h | 10979m | -3.7m/s | -52°C | 48.5% | 237.3hPa | 2.5V | 07:49:10 | 02:52:44 | 00:00:00 | |
| DO2JMG | 2026-09-03 13:12:09 | 53.06455 | 9.59378 | 122° | 190km/h | 10968m | -3.8m/s | -51.9°C | 50.8% | 237.7hPa | 2.5V | 07:49:21 | 02:52:47 | 00:00:00 | |
| DL1XH-west | 2026-09-03 13:12:07 | 53.06532 | 9.59168 | 121° | 201km/h | 10979m | -3.7m/s | -52.1°C | 50.3% | 237.4hPa | 2.5V | 07:49:21 | 02:52:44 | 00:00:00 | |
| DF8AY | 2026-09-03 13:12:03 | 53.06615 | 9.58950 | 124° | 208km/h | 10990m | -3.6m/s | -52.1°C | 49.7% | 236.9hPa | 2.6V | 07:49:21 | 02:52:41 | 00:00:00 | |
| AA1-15 | 2026-09-03 13:12:01 | 53.06675 | 9.58805 | 126° | 210km/h | 10997m | -3.8m/s | -52.1°C | 49.5% | 236.7hPa | 2.5V | 07:49:21 | 02:52:39 | 00:00:00 | |
| DJ2DS-15 | 2026-09-03 13:12:01 | 53.06675 | 9.58805 | 126° | 193km/h | 10997m | -3.7m/s | -52.1°C | 48.8% | 236.7hPa | 2.5V | 00:00:00 | 02:52:39 | 00:00:00 | |
| DL1XH1-15 | 2026-09-03 13:12:00 | 53.06835 | 9.58467 | 129° | 197km/h | 11015m | -3.8m/s | -52.3°C | 49.6% | 236hPa | 2.5V | 07:49:20 | 02:52:34 | 00:00:00 | |
| BIOWL1-15 | 2026-09-03 13:12:00 | 53.06707 | 9.58734 | 127° | 208km/h | 11001m | -3.7m/s | -52.2°C | 49.5% | 236.6hPa | 2.5V | 07:49:21 | 02:52:38 | 00:00:00 | |
| DO2JMG | 2026-09-03 13:11:58 | 53.06771 | 9.58597 | 129° | 204km/h | 11008m | -3.6m/s | -52.2°C | 49.2% | 236.3hPa | 2.6V | 07:49:21 | 02:52:36 | 00:00:00 | |
| DF8AY-15 | 2026-09-03 13:11:58 | 53.06771 | 9.58597 | 129° | 193km/h | 11008m | -3.6m/s | -52.1°C | 49.1% | 236.2hPa | 2.5V | 00:00:00 | 02:52:36 | 00:00:00 | |
| DL1XH-15 | 2026-09-03 13:11:57 | 53.06866 | 9.58403 | 129° | 193km/h | 11019m | -3.9m/s | -52.3°C | 50% | 235.9hPa | 2.5V | 07:49:21 | 02:52:33 | 00:00:00 | |
| DL1XH-west | 2026-09-03 13:11:56 | 53.06835 | 9.58467 | 130° | 197km/h | 11015m | -3.8m/s | -52.3°C | 49.3% | 236hPa | 2.5V | 07:49:21 | 02:52:34 | 00:00:00 | |
| DB0DAN | 2026-09-03 13:11:55 | 53.06866 | 9.58403 | 130° | 184km/h | 11019m | -3.9m/s | -52.3°C | 42.6% | 235.87hPa | 2.5V | 00:00:00 | 00:00:00 | 00:00:00 | |
| DM0DOS-11 | 2026-09-03 13:11:54 | 53.06928 | 9.58280 | 129° | 188km/h | 11027m | -3.9m/s | -52.3°C | 50.2% | 235.5hPa | 2.6V | 07:49:23 | 02:52:31 | 00:00:00 | |
| DF8AY | 2026-09-03 13:11:52 | 53.06958 | 9.58219 | 129° | 186km/h | 11031m | -3.8m/s | -52.4°C | 49.8% | 235.4hPa | 2.6V | 07:50:12 | 02:52:30 | 00:00:00 | |
| DF5WG-10 | 2026-09-03 13:11:51 | 53.06986 | 9.58158 | 128° | 192km/h | 11035m | -3.6m/s | -52.3°C | 50.4% | 235.3hPa | 2.5V | 00:00:00 | 02:52:29 | 00:00:00 | |
| DL1XH-15 | 2026-09-03 13:11:50 | 53.07145 | 9.57774 | 121° | 190km/h | 11056m | -3.4m/s | -52.7°C | 49.7% | 234.5hPa | 2.5V | 07:49:31 | 02:52:23 | 00:00:00 | |
| DL1XH1-15 | 2026-09-03 13:11:50 | 53.07120 | 9.57842 | 122° | 188km/h | 11053m | -3.4m/s | -52.6°C | 49.6% | 234.7hPa | 2.5V | 07:49:30 | 02:52:24 | 00:00:00 | |
| BIOWL1-15 | 2026-09-03 13:11:49 | 53.07042 | 9.58035 | 126° | 183km/h | 11042m | -3.7m/s | -52.5°C | 49.8% | 235hPa | 2.5V | 07:50:12 | 02:52:27 | 00:00:00 | |
| DO2JMG | 2026-09-03 13:11:47 | 53.07094 | 9.57908 | 123° | 184km/h | 11049m | -3.5m/s | -52.6°C | 49.9% | 234.8hPa | 2.6V | 07:50:12 | 02:52:25 | 00:00:00 | |
| DL1XH-west | 2026-09-03 13:11:45 | 53.07145 | 9.57774 | 122° | 192km/h | 11056m | -3.4m/s | -52.7°C | 50% | 234.5hPa | 2.5V | 07:50:12 | 02:52:23 | 00:00:00 | |
| DF8AY | 2026-09-03 13:11:42 | 53.07223 | 9.57566 | 122° | 199km/h | 11067m | -3.6m/s | -52.8°C | 50.3% | 234.1hPa | 2.6V | 07:50:12 | 02:52:20 | 00:00:00 | |
| DL1LOL-11 | 2026-09-03 13:11:41 | 53.07223 | 9.57566 | 123° | 199km/h | 11067m | -3.6m/s | -52.8°C | 42.7% | 234.1hPa | 2.5V | 00:00:00 | 00:00:00 | 00:00:00 | |
| DB0DAN | 2026-09-03 13:11:40 | 53.07277 | 9.57423 | 122° | 193km/h | 11074m | -3.7m/s | -52.8°C | 42.7% | 233.89hPa | 2.5V | 00:00:00 | 00:00:00 | 00:00:00 | |
| AA1-15 | 2026-09-03 13:11:38 | 53.07333 | 9.57279 | 124° | 206km/h | 11082m | -3.6m/s | -52.9°C | 50.4% | 233.6hPa | 2.6V | 07:50:12 | 02:52:16 | 00:00:00 | |
| DF8AY-15 | 2026-09-03 13:11:38 | 53.07333 | 9.57279 | 124° | 199km/h | 11082m | -3.6m/s | -52.8°C | 49.6% | 233.6hPa | 2.6V | 00:00:00 | 02:52:16 | 00:00:00 | |
| DL1XH-15 | 2026-09-03 13:11:37 | 53.07423 | 9.57064 | 125° | 208km/h | 11093m | -3.7m/s | -52.9°C | 48.9% | 233.2hPa | 2.5V | 07:49:41 | 02:52:13 | 00:00:00 | |
| DO2JMG | 2026-09-03 13:11:36 | 53.07392 | 9.57135 | 125° | 208km/h | 11089m | -3.7m/s | -52.9°C | 50.4% | 233.3hPa | 2.5V | 07:50:12 | 02:52:14 | 00:00:00 | |
| DL1XH-west | 2026-09-03 13:11:35 | 53.07422 | 9.57064 | 126° | 208km/h | 11093m | -3.7m/s | -52.9°C | 50.4% | 233.2hPa | 2.5V | 07:50:12 | 02:52:13 | 00:00:00 | |
| DF8AY | 2026-09-03 13:11:32 | 53.07548 | 9.56784 | 128° | 206km/h | 11107m | -3.8m/s | -53°C | 50.1% | 232.7hPa | 2.5V | 07:50:12 | 02:52:09 | 00:00:00 | |
| DL1XH-15 | 2026-09-03 13:11:30 | 53.07738 | 9.56389 | 129° | 193km/h | 11129m | -3.6m/s | -53.2°C | 50.7% | 231.9hPa | 2.5V | 07:49:51 | 02:52:03 | 00:00:00 | |
| BIOWL1-15 | 2026-09-03 13:11:30 | 53.07707 | 9.56453 | 129° | 197km/h | 11126m | -3.7m/s | -53.2°C | 50.3% | 232hPa | 2.5V | 07:50:12 | 02:52:04 | 00:00:00 | |
| AA1-15 | 2026-09-03 13:11:28 | 53.07676 | 9.56517 | 129° | 199km/h | 11122m | -3.8m/s | -53.1°C | 50.2% | 232.1hPa | 2.6V | 07:50:12 | 02:52:05 | 00:00:00 | |
| DM0DOS-11 | 2026-09-03 13:11:28 | 53.07799 | 9.56264 | 128° | 188km/h | 11136m | -3.6m/s | -53.3°C | 52.4% | 231.6hPa | 2.6V | 07:49:53 | 02:52:01 | 00:00:00 | |
| DL1XH-west | 2026-09-03 13:11:25 | 53.07739 | 9.56389 | 129° | 193km/h | 11129m | -3.6m/s | -53.2°C | 50.4% | 231.9hPa | 2.5V | 07:50:12 | 02:52:03 | 00:00:00 | |
| DB0DAN | 2026-09-03 13:11:25 | 53.07739 | 9.56389 | 129° | 184km/h | 11129m | -3.6m/s | -53.2°C | 43.1% | 231.9hPa | 2.5V | 00:00:00 | 00:00:00 | 00:00:00 | |
| DF8AY | 2026-09-03 13:11:20 | 53.07884 | 9.56077 | 126° | 184km/h | 11147m | -3.5m/s | -53.4°C | 51.4% | 231.3hPa | 2.5V | 07:50:12 | 02:51:58 | 00:00:00 | |
| DL1XH1-15 | 2026-09-03 13:11:20 | 53.07989 | 9.55819 | 122° | 188km/h | 11161m | -3.7m/s | -53.7°C | 54.4% | 230.7hPa | 2.5V | 07:50:00 | 02:51:54 | 00:00:00 | |
| BIOWL1-15 | 2026-09-03 13:11:18 | 53.08015 | 9.55751 | 122° | 190km/h | 11165m | -3.6m/s | -53.7°C | 52.1% | 230.6hPa | 2.5V | 07:50:12 | 02:51:53 | 00:00:00 | |
| AA1-15 | 2026-09-03 13:11:17 | 53.07963 | 9.55885 | 123° | 186km/h | 11158m | -3.6m/s | -53.6°C | 51.9% | 230.9hPa | 2.6V | 07:50:12 | 02:51:55 | 00:00:00 | |
| DM0DOS-11 | 2026-09-03 13:11:17 | 53.08065 | 9.55614 | 121° | 195km/h | 11172m | -3.8m/s | -53.7°C | 53.4% | 230.4hPa | 2.6V | 07:50:03 | 02:51:51 | 00:00:00 | |
| DL1XH-west | 2026-09-03 13:11:14 | 53.08040 | 9.55683 | 121° | 192km/h | 11168m | -3.6m/s | -53.8°C | 52.3% | 230.5hPa | 2.5V | 07:50:12 | 02:51:52 | 00:00:00 | |
| DL4XJ-10 | 2026-09-03 13:11:14 | 53.08040 | 9.55683 | 122° | 203km/h | 11169m | -3.5m/s | -53.0°C | 0% | 0hPa | 2.5V | 00:00:00 | 00:00:00 | 00:00:00 | |
| SMARD9-10 | 2026-09-03 13:11:13 | 53.08040 | 9.55683 | 122° | 192km/h | 11169m | -3.6m/s | -53.8°C | 45.9% | 230.5hPa | 2.5V | 00:00:00 | 00:00:00 | 00:00:00 | |
| DJ2DS-15 | 2026-09-03 13:11:11 | 53.08143 | 9.55399 | 121° | 203km/h | 11183m | -3.7m/s | -53.8°C | 44.1% | 229.9hPa | 2.5V | 00:00:00 | 00:00:00 | 00:00:00 | |
| DL1XH1-15 | 2026-09-03 13:11:10 | 53.08255 | 9.55102 | 123° | 212km/h | 11199m | -3.7m/s | -53.7°C | 49.7% | 229.3hPa | 2.5V | 07:50:10 | 02:51:44 | 00:00:00 | |
| DF8AY | 2026-09-03 13:11:10 | 53.08143 | 9.55399 | 121° | 203km/h | 11183m | -3.7m/s | -53.8°C | 52.2% | 229.9hPa | 2.5V | 07:50:12 | 02:51:48 | 00:00:00 | |
| DB0DAN | 2026-09-03 13:11:10 | 53.08143 | 9.55399 | 121° | 193km/h | 11183m | -3.7m/s | -53.8°C | 44.1% | 229.93hPa | 2.5V | 00:00:00 | 00:00:00 | 00:00:00 | |
| GOEST3-10 | 2026-09-03 13:11:09 | 53.08170 | 9.55325 | 122° | 210km/h | 11187m | -3.9m/s | -53.7°C | 51.1% | 229.7hPa | 2.6V | 07:50:00 | 00:00:00 | 00:00:00 | |
| DO2SHX-10 | 2026-09-03 13:11:08 | 53.08197 | 9.55251 | 122° | 210km/h | 11191m | -3.9m/s | -53.7°C | 50.4% | 229.6hPa | 2.6V | 00:00:00 | 02:51:46 | 00:00:00 | |
| DM0DOS-11 | 2026-09-03 13:11:07 | 53.08347 | 9.54882 | 126° | 212km/h | 11210m | -3.5m/s | -53.8°C | 50.1% | 229hPa | 2.6V | 07:50:13 | 02:51:41 | 00:00:00 | |
| AA1-15 | 2026-09-03 13:11:06 | 53.08255 | 9.55102 | 123° | 212km/h | 11199m | -3.7m/s | -53.7°C | 51.9% | 229.3hPa | 2.5V | 07:50:12 | 02:51:44 | 00:00:00 | |
| BIOWL1-15 | 2026-09-03 13:11:05 | 53.08285 | 9.55028 | 124° | 214km/h | 11202m | -3.6m/s | -53.8°C | 51.9% | 229.2hPa | 2.5V | 07:50:12 | 02:51:43 | 00:00:00 | |
| DL1XH-west | 2026-09-03 13:11:04 | 53.08316 | 9.54955 | 126° | 214km/h | 11206m | -3.6m/s | -53.8°C | 51.8% | 229.1hPa | 2.5V | 07:50:12 | 02:51:42 | 00:00:00 | |
| DO2JMG | 2026-09-03 13:11:03 | 53.08348 | 9.54882 | 127° | 212km/h | 11210m | -3.5m/s | -53.8°C | 51.8% | 229hPa | 2.6V | 07:51:03 | 02:51:41 | 00:00:00 | |
| DO2SHX-10 | 2026-09-03 13:11:02 | 53.08380 | 9.54811 | 128° | 208km/h | 11213m | -3.6m/s | -53.8°C | 50.5% | 228.8hPa | 2.5V | 00:00:00 | 02:51:40 | 00:00:00 | |
| DJ2DS-15 | 2026-09-03 13:11:01 | 53.08412 | 9.54742 | 129° | 197km/h | 11217m | -3.6m/s | -53.8°C | 51.4% | 228.7hPa | 2.5V | 00:00:00 | 02:51:39 | 00:00:00 | |
| DL1XH-15 | 2026-09-03 13:11:00 | 53.08598 | 9.54351 | 126° | 190km/h | 11238m | -3.5m/s | -54°C | 54.4% | 228hPa | 2.5V | 07:50:21 | 02:51:33 | 00:00:00 | |
| DL1XH1-15 | 2026-09-03 13:11:00 | 53.08569 | 9.54415 | 127° | 192km/h | 11234m | -3.4m/s | -54°C | 53.6% | 228.1hPa | 2.5V | 07:50:20 | 02:51:34 | 00:00:00 | |
| DF8AY | 2026-09-03 13:10:59 | 53.08477 | 9.54608 | 129° | 201km/h | 11224m | -3.4m/s | -53.9°C | 52.2% | 228.5hPa | 2.5V | 07:51:03 | 02:51:37 | 00:00:00 | |
| DF5WG-10 | 2026-09-03 13:10:58 | 53.08508 | 9.54543 | 129° | 192km/h | 11227m | -3.5m/s | -53.8°C | 53.0% | 228.3hPa | 2.6V | 00:00:00 | 02:51:36 | 00:00:00 | |
| DM0DOS-11 | 2026-09-03 13:10:57 | 53.08654 | 9.54223 | 125° | 188km/h | 11245m | -3.5m/s | -54.1°C | 55.2% | 227.8hPa | 2.6V | 07:50:23 | 02:51:31 | 00:00:00 | |
| AA1-15 | 2026-09-03 13:10:56 | 53.08569 | 9.54415 | 128° | 192km/h | 11234m | -3.4m/s | -54°C | 52.6% | 228.1hPa | 2.5V | 07:51:03 | 02:51:34 | 00:00:00 | |
| BIOWL1-15 | 2026-09-03 13:10:55 | 53.08598 | 9.54351 | 127° | 190km/h | 11238m | -3.5m/s | -54°C | 52.9% | 228hPa | 2.5V | 07:51:03 | 02:51:33 | 00:00:00 | |
| DB0DAN | 2026-09-03 13:10:55 | 53.08598 | 9.54351 | 127° | 181km/h | 11238m | -3.5m/s | -54°C | 46.2% | 228.01hPa | 2.5V | 00:00:00 | 00:00:00 | 00:00:00 | |
| DL1XH-west | 2026-09-03 13:10:54 | 53.08627 | 9.54287 | 126° | 188km/h | 11241m | -3.5m/s | -54°C | 53% | 227.9hPa | 2.5V | 07:51:03 | 02:51:32 | 00:00:00 | |
| DO2JMG | 2026-09-03 13:10:52 | 53.08682 | 9.54158 | 124° | 188km/h | 11248m | -3.5m/s | -54.2°C | 53.5% | 227.6hPa | 2.6V | 07:51:03 | 02:51:30 | 00:00:00 | |
| DF8AY | 2026-09-03 13:10:49 | 53.08760 | 9.53958 | 122° | 192km/h | 11259m | -3.5m/s | -54.4°C | 54.1% | 227.2hPa | 2.5V | 07:51:03 | 02:51:27 | 00:00:00 | |
| GOEST3-10 | 2026-09-03 13:10:49 | 53.08760 | 9.53958 | 122° | 197km/h | 11259m | -3.4m/s | -54.3°C | 56.5% | 227.2hPa | 2.5V | 00:00:00 | 00:00:00 | 00:00:00 | |
| BIOWL7-15 | 2026-09-03 13:10:48 | 53.08760 | 9.53958 | 123° | 192km/h | 11259m | -3.5m/s | -54.4°C | 48.1% | 227.2hPa | 2.6V | 00:00:00 | 00:00:00 | 00:00:00 | |
| DM0DOS-11 | 2026-09-03 13:10:47 | 53.08917 | 9.53526 | 121° | 208km/h | 11280m | -3.6m/s | -54.5°C | 56.6% | 226.4hPa | 2.6V | 07:50:33 | 02:51:21 | 00:00:00 | |
| DL1XH-15 | 2026-09-03 13:10:47 | 53.08863 | 9.53674 | 120° | 203km/h | 11273m | -3.4m/s | -54.5°C | 56.4% | 226.7hPa | 2.5V | 07:50:31 | 02:51:23 | 00:00:00 | |
| BIOWL1-15 | 2026-09-03 13:10:45 | 53.08864 | 9.53674 | 121° | 203km/h | 11273m | -3.4m/s | -54.5°C | 54.7% | 226.8hPa | 2.5V | 07:51:03 | 02:51:23 | 00:00:00 | |
| BUE01 | 2026-09-03 13:10:45 | 53.08890 | 9.53600 | 121° | 204km/h | 11276m | -3.5m/s | -54.5°C | 48.3% | 226.6hPa | 2.6V | 00:00:00 | 00:00:00 | 00:00:00 | |
| HTAHTA | 2026-09-03 13:10:44 | 53.08890 | 9.53600 | 121° | 204km/h | 11276m | -3.5m/s | -54.5°C | 48.3% | 226.6hPa | 2.6V | 00:00:00 | 00:00:00 | 00:00:00 | |
| DL1XH-west | 2026-09-03 13:10:43 | 53.08917 | 9.53526 | 121° | 208km/h | 11280m | -3.6m/s | -54.5°C | 55% | 226.4hPa | 2.6V | 07:51:03 | 02:51:21 | 00:00:00 | |
| DO2JMG | 2026-09-03 13:10:41 | 53.08973 | 9.53376 | 122° | 212km/h | 11287m | -3.6m/s | -54.5°C | 55.4% | 226.2hPa | 2.5V | 07:51:03 | 02:51:19 | 00:00:00 | |
| DJ2DS-15 | 2026-09-03 13:10:41 | 53.08973 | 9.53376 | 122° | 206km/h | 11287m | -3.5m/s | -54.5°C | 56.0% | 226.1hPa | 2.5V | 00:00:00 | 02:51:19 | 00:00:00 | |
| DL1XH-15 | 2026-09-03 13:10:40 | 53.09151 | 9.52920 | 125° | 219km/h | 11310m | -3.6m/s | -54.5°C | 54.5% | 225.4hPa | 2.5V | 07:50:41 | 02:51:13 | 00:00:00 | |
| DB0DAN | 2026-09-03 13:10:40 | 53.09001 | 9.53300 | 122° | 203km/h | 11291m | -3.7m/s | -54.5°C | 47.4% | 226.09hPa | 2.5V | 00:00:00 | 00:00:00 | 00:00:00 | |
| DF8AY | 2026-09-03 13:10:38 | 53.09059 | 9.53148 | 123° | 217km/h | 11299m | -3.9m/s | -54.5°C | 55.8% | 225.9hPa | 2.6V | 07:51:03 | 02:51:16 | 00:00:00 | |
| AA1-15 | 2026-09-03 13:10:35 | 53.09152 | 9.52920 | 125° | 219km/h | 11310m | -3.6m/s | -54.5°C | 56% | 225.4hPa | 2.5V | 07:51:03 | 02:51:13 | 00:00:00 | |
| BIOWL1-15 | 2026-09-03 13:10:34 | 53.09184 | 9.52846 | 126° | 217km/h | 11314m | -3.6m/s | -54.5°C | 56% | 225.3hPa | 2.5V | 07:51:03 | 02:51:12 | 00:00:00 | |
| DL1XH-west | 2026-09-03 13:10:33 | 53.09217 | 9.52773 | 127° | 215km/h | 11317m | -3.8m/s | -54.5°C | 56.2% | 225.2hPa | 2.6V | 07:51:03 | 02:51:11 | 00:00:00 | |
| DO2SHX-10 | 2026-09-03 13:10:32 | 53.09249 | 9.52701 | 128° | 210km/h | 11321m | -3.7m/s | -54.5°C | 55.7% | 225.0hPa | 2.6V | 00:00:00 | 02:51:10 | 00:00:00 | |
| DL1XH1-15 | 2026-09-03 13:10:30 | 53.09439 | 9.52301 | 126° | 192km/h | 11343m | -3.4m/s | -54.7°C | 61.1% | 224.3hPa | 2.5V | 07:50:50 | 02:51:04 | 00:00:00 | |
| DO2JMG | 2026-09-03 13:10:30 | 53.09315 | 9.52564 | 129° | 206km/h | 11329m | -3.5m/s | -54.6°C | 56.9% | 224.8hPa | 2.5V | 07:51:03 | 02:51:08 | 00:00:00 | |
| DF8AY | 2026-09-03 13:10:28 | 53.09379 | 9.52432 | 128° | 197km/h | 11336m | -3.7m/s | -54.6°C | 57.7% | 224.6hPa | 2.6V | 07:51:03 | 02:51:06 | 00:00:00 | |
| AA1-15 | 2026-09-03 13:10:25 | 53.09467 | 9.52235 | 125° | 192km/h | 11346m | -3.5m/s | -54.8°C | 58.8% | 224.2hPa | 2.5V | 07:51:03 | 02:51:03 | 00:00:00 | |
| DB0DAN | 2026-09-03 13:10:25 | 53.09467 | 9.52235 | 125° | 183km/h | 11346m | -3.5m/s | -54.8°C | 52.5% | 224.21hPa | 2.5V | 00:00:00 | 00:00:00 | 00:00:00 | |
| BIOWL1-15 | 2026-09-03 13:10:24 | 53.09494 | 9.52168 | 124° | 193km/h | 11350m | -3.3m/s | -54.9°C | 59.1% | 224hPa | 2.5V | 07:51:03 | 02:51:02 | 00:00:00 | |
| DL1XH-west | 2026-09-03 13:10:23 | 53.09521 | 9.52100 | 122° | 195km/h | 11353m | -3.3m/s | -55°C | 59.5% | 223.9hPa | 2.6V | 07:51:03 | 02:51:01 | 00:00:00 | |
| DB0UT-7 | 2026-09-03 13:10:23 | 53.09521 | 9.52100 | 123° | 210km/h | 11353m | -3.3m/s | -54.9°C | 62.0% | 223.9hPa | 2.6V | 00:00:00 | 02:51:01 | 00:00:00 | |
| BIOWL9-15 | 2026-09-03 13:10:22 | 53.09547 | 9.52030 | 121° | 197km/h | 11356m | -3.6m/s | -55.1°C | 53.4% | 223.8hPa | 2.5V | 00:00:00 | 00:00:00 | 00:00:00 | |
| DJ2DS-15 | 2026-09-03 13:10:21 | 53.09573 | 9.51958 | 122° | 215km/h | 11360m | -3.5m/s | -55.0°C | 62.0% | 223.6hPa | 2.5V | 00:00:00 | 02:50:59 | 00:00:00 | |
| DL1XH1-15 | 2026-09-03 13:10:20 | 53.09710 | 9.51583 | 121° | 215km/h | 11378m | -3.6m/s | -55.2°C | 62.3% | 223.1hPa | 2.5V | 07:51:00 | 02:50:54 | 00:00:00 | |
| DO2JMG | 2026-09-03 13:10:20 | 53.09600 | 9.51885 | 121° | 204km/h | 11364m | -3.4m/s | -55.1°C | 60.3% | 223.6hPa | 2.5V | 07:51:03 | 02:50:58 | 00:00:00 | |
| DF8AY | 2026-09-03 13:10:17 | 53.09681 | 9.51659 | 121° | 214km/h | 11374m | -3.5m/s | -55.2°C | 60.8% | 223.2hPa | 2.6V | 07:51:03 | 02:50:55 | 00:00:00 | |
| DM0DOS-11 | 2026-09-03 13:10:17 | 53.09797 | 9.51351 | 122° | 219km/h | 11389m | -3.7m/s | -55.3°C | 61.7% | 222.7hPa | 2.6V | 07:51:03 | 02:50:51 | 00:00:00 | |
| AA1-15 | 2026-09-03 13:10:15 | 53.09738 | 9.51506 | 122° | 217km/h | 11381m | -3.7m/s | -55.2°C | 61.1% | 222.9hPa | 2.5V | 07:51:03 | 02:50:53 | 00:00:00 | |
| DL1XH-west | 2026-09-03 13:10:13 | 53.09797 | 9.51351 | 123° | 219km/h | 11389m | -3.7m/s | -55.3°C | 61.3% | 222.7hPa | 2.6V | 07:51:03 | 02:50:51 | 00:00:00 | |
| DO2SHX-10 | 2026-09-03 13:10:13 | 53.09797 | 9.51351 | 123° | 221km/h | 11389m | -3.6m/s | -55.2°C | 61.7% | 222.6hPa | 2.6V | 00:00:00 | 02:50:51 | 00:00:00 | |
| DL3AQ-11 | 2026-09-03 13:10:12 | 53.09827 | 9.51274 | 123° | 219km/h | 11393m | -3.8m/s | -55.3°C | 52.1% | 222.6hPa | 2.5V | 00:00:00 | 00:00:00 | 00:00:00 | |
| DB0DAN | 2026-09-03 13:10:10 | 53.09890 | 9.51119 | 125° | 212km/h | 11400m | -3.6m/s | -55.3°C | 51.7% | 222.31hPa | 2.5V | 00:00:00 | 00:00:00 | 00:00:00 | |
| DO2JMG | 2026-09-03 13:10:09 | 53.09922 | 9.51043 | 125° | 223km/h | 11403m | -3.6m/s | -55.3°C | 61.3% | 222.2hPa | 2.5V | 07:51:54 | 02:50:47 | 00:00:00 | |
| DL1XH-15 | 2026-09-03 13:10:07 | 53.10055 | 9.50748 | 128° | 215km/h | 11418m | -3.6m/s | -55.4°C | 62.8% | 221.6hPa | 2.5V | 07:51:11 | 02:50:43 | 00:00:00 | |
| DF8AY | 2026-09-03 13:10:07 | 53.09988 | 9.50893 | 127° | 219km/h | 11411m | -3.8m/s | -55.4°C | 61.6% | 221.9hPa | 2.6V | 07:51:54 | 02:50:45 | 00:00:00 | |
| DO2SHX-10 | 2026-09-03 13:10:07 | 53.09988 | 9.50893 | 127° | 217km/h | 11411m | -3.7m/s | -55.3°C | 61.6% | 221.8hPa | 2.6V | 00:00:00 | 02:50:45 | 00:00:00 | |
| DM0DOS-11 | 2026-09-03 13:10:05 | 53.10121 | 9.50609 | 128° | 208km/h | 11425m | -3.6m/s | -55.5°C | 64.2% | 221.4hPa | 2.6V | 07:51:13 | 02:50:41 | 00:00:00 | |
| AA1-15 | 2026-09-03 13:10:04 | 53.10088 | 9.50678 | 128° | 212km/h | 11422m | -3.7m/s | -55.4°C | 62.1% | 221.5hPa | 2.5V | 07:51:54 | 02:50:42 | 00:00:00 | |
| DL1XH-west | 2026-09-03 13:10:02 | 53.10154 | 9.50541 | 128° | 204km/h | 11429m | -3.7m/s | -55.5°C | 62.7% | 221.2hPa | 2.6V | 07:51:54 | 02:50:40 | 00:00:00 | |
| DF8AY | 2026-09-03 13:10:01 | 53.10332 | 9.50140 | 124° | 197km/h | 11451m | -3.7m/s | -55.8°C | 64.4% | 220.5hPa | 2.5V | 07:51:54 | 02:50:34 | 00:00:00 | |
| DO2JMG | 2026-09-03 13:09:59 | 53.10246 | 9.50342 | 127° | 195km/h | 11440m | -3.7m/s | -55.6°C | 63.6% | 220.9hPa | 2.5V | 07:51:54 | 02:50:37 | 00:00:00 | |
| DO2SHX-10 | 2026-09-03 13:09:58 | 53.10275 | 9.50275 | 126° | 195km/h | 11444m | -3.6m/s | -55.6°C | 67.1% | 220.7hPa | 2.5V | 00:00:00 | 02:50:36 | 00:00:00 | |
| DL1XH-15 | 2026-09-03 13:09:57 | 53.10359 | 9.50071 | 122° | 199km/h | 11455m | -3.5m/s | -55.9°C | 67.9% | 220.4hPa | 2.5V | 07:51:21 | 02:50:33 | 00:00:00 | |
| SONDE2-11 | 2026-09-03 13:09:57 | 53.10332 | 9.50140 | 123° | 195km/h | 11451m | -3.7m/s | -55.8°C | 57.9% | 220.5hPa | 2.5V | 00:00:00 | 00:00:00 | 00:00:00 | |
| DB0DAN | 2026-09-03 13:09:55 | 53.10359 | 9.50071 | 123° | 190km/h | 11455m | -3.5m/s | -55.9°C | 58.1% | 220.39hPa | 2.5V | 00:00:00 | 00:00:00 | 00:00:00 | |
| AA1-15 | 2026-09-03 13:09:54 | 53.10386 | 9.50000 | 122° | 201km/h | 11458m | -3.4m/s | -55.9°C | 64.8% | 220.3hPa | 2.5V | 07:51:54 | 02:50:32 | 00:00:00 | |
| DM0DOS-11 | 2026-09-03 13:09:54 | 53.10413 | 9.49927 | 121° | 204km/h | 11462m | -3.7m/s | -56°C | 67.6% | 220.1hPa | 2.6V | 07:51:23 | 02:50:31 | 00:00:00 | |
| DL1XH-west | 2026-09-03 13:09:52 | 53.10440 | 9.49853 | 121° | 208km/h | 11465m | -3.6m/s | -56.1°C | 65.1% | 220hPa | 2.6V | 07:51:54 | 02:50:30 | 00:00:00 | |
| BIOWL1-15 | 2026-09-03 13:09:50 | 53.10495 | 9.49700 | 121° | 215km/h | 11472m | -3.7m/s | -56.1°C | 65.2% | 219.8hPa | 2.5V | 07:51:54 | 02:50:28 | 00:00:00 | |
| DO2JMG | 2026-09-03 13:09:48 | 53.10554 | 9.49545 | 122° | 221km/h | 11480m | -3.7m/s | -56.1°C | 65% | 219.5hPa | 2.6V | 07:51:54 | 02:50:26 | 00:00:00 | |
| DM0DOS-11 | 2026-09-03 13:09:47 | 53.10711 | 9.49155 | 126° | 224km/h | 11499m | -3.6m/s | -56.2°C | 64.5% | 218.8hPa | 2.6V | 07:51:33 | 02:50:21 | 00:00:00 | |
| DL1XH-15 | 2026-09-03 13:09:47 | 53.10646 | 9.49309 | 124° | 224km/h | 11492m | -4m/s | -56.1°C | 64.3% | 219.1hPa | 2.5V | 07:51:31 | 02:50:23 | 00:00:00 | |
| DF8AY | 2026-09-03 13:09:44 | 53.10678 | 9.49232 | 125° | 224km/h | 11496m | -3.9m/s | -56.1°C | 64.3% | 219hPa | 2.5V | 07:51:54 | 02:50:22 | 00:00:00 | |
| AA1-15 | 2026-09-03 13:09:43 | 53.10711 | 9.49155 | 126° | 224km/h | 11499m | -3.6m/s | -56.2°C | 64.2% | 218.8hPa | 2.6V | 07:51:54 | 02:50:21 | 00:00:00 | |
| DL1XH-west | 2026-09-03 13:09:42 | 53.10745 | 9.49080 | 127° | 223km/h | 11503m | -3.8m/s | -56.2°C | 64.1% | 218.7hPa | 2.6V | 07:51:54 | 02:50:20 | 00:00:00 | |
| BIOWL1-15 | 2026-09-03 13:09:40 | 53.10813 | 9.48934 | 129° | 217km/h | 11511m | -3.9m/s | -56.2°C | 64% | 218.4hPa | 2.5V | 07:51:54 | 02:50:18 | 00:00:00 | |
| DB0DAN | 2026-09-03 13:09:40 | 53.10813 | 9.48934 | 129° | 206km/h | 11511m | -3.9m/s | -56.2°C | 56% | 218.44hPa | 2.5V | 00:00:00 | 00:00:00 | 00:00:00 | |
| DO2JMG | 2026-09-03 13:09:38 | 53.10881 | 9.48794 | 129° | 210km/h | 11518m | -3.9m/s | -56.2°C | 64.2% | 218.2hPa | 2.6V | 07:51:54 | 02:50:16 | 00:00:00 | |
| DF8AY-15 | 2026-09-03 13:09:38 | 53.10881 | 9.48794 | 130° | 210km/h | 11518m | -3.8m/s | -56.2°C | 66.7% | 218.1hPa | 2.6V | 00:00:00 | 02:50:16 | 00:00:00 | |
| DL1XH-15 | 2026-09-03 13:09:37 | 53.10978 | 9.48592 | 127° | 201km/h | 11530m | -3.8m/s | -56.3°C | 68.2% | 217.8hPa | 2.5V | 07:51:41 | 02:50:13 | 00:00:00 | |
| AA1-15 | 2026-09-03 13:09:33 | 53.11038 | 9.48459 | 126° | 197km/h | 11538m | -3.8m/s | -56.4°C | 64.7% | 217.5hPa | 2.6V | 07:51:54 | 02:50:11 | 00:00:00 | |
| DL1XH-west | 2026-09-03 13:09:31 | 53.11095 | 9.48323 | 123° | 199km/h | 11545m | -3.9m/s | -56.6°C | 64.8% | 217.2hPa | 2.5V | 07:51:54 | 02:50:09 | 00:00:00 | |
| BIOWL1-15 | 2026-09-03 13:09:30 | 53.11122 | 9.48252 | 123° | 201km/h | 11549m | -3.8m/s | -56.6°C | 64.8% | 217.1hPa | 2.5V | 07:51:54 | 02:50:08 | 00:00:00 | |
| DO2JMG | 2026-09-03 13:09:28 | 53.11177 | 9.48107 | 121° | 208km/h | 11557m | -3.9m/s | -56.8°C | 64.6% | 216.8hPa | 2.6V | 07:51:54 | 02:50:06 | 00:00:00 | |
| DO2SHX-10 | 2026-09-03 13:09:28 | 53.11177 | 9.48107 | 122° | 212km/h | 11557m | -3.8m/s | -56.7°C | 67.1% | 216.8hPa | 2.6V | 00:00:00 | 02:50:06 | 00:00:00 | |
| DL1XH-15 | 2026-09-03 13:09:27 | 53.11261 | 9.47878 | 121° | 219km/h | 11568m | -4m/s | -56.8°C | 65.4% | 216.5hPa | 2.5V | 07:51:51 | 02:50:03 | 00:00:00 | |
| SONDE2-11 | 2026-09-03 13:09:26 | 53.11261 | 9.47878 | 121° | 217km/h | 11568m | -4.0m/s | -56.8°C | 55.7% | 216.5hPa | 2.6V | 00:00:00 | 00:00:00 | 00:00:00 | |
| DL4BBY-15 | 2026-09-03 13:09:25 | 53.11260 | 9.47878 | 122° | 212km/h | 11568m | -3.9m/s | -56.0°C | 0% | 0hPa | 2.6V | 00:00:00 | 00:00:00 | 00:00:00 | |
| DB0DAN | 2026-09-03 13:09:25 | 53.11261 | 9.47878 | 122° | 208km/h | 11568m | -4m/s | -56.8°C | 55.7% | 216.48hPa | 2.5V | 00:00:00 | 00:00:00 | 00:00:00 | |
| DM0DOS-11 | 2026-09-03 13:09:24 | 53.11320 | 9.47721 | 123° | 223km/h | 11576m | -3.9m/s | -56.8°C | 64.2% | 216.2hPa | 2.6V | 07:51:53 | 02:50:01 | 00:00:00 | |
| DF8AY | 2026-09-03 13:09:23 | 53.11321 | 9.47721 | 123° | 223km/h | 11576m | -3.9m/s | -56.8°C | 63.4% | 216.2hPa | 2.6V | 07:51:54 | 02:50:01 | 00:00:00 | |
| AA1-15 | 2026-09-03 13:09:23 | 53.11352 | 9.47643 | 124° | 224km/h | 11580m | -3.9m/s | -56.9°C | 63.1% | 216hPa | 2.6V | 07:51:54 | 02:50:00 | 00:00:00 | |
| DL1XH-west | 2026-09-03 13:09:20 | 53.11417 | 9.47487 | 126° | 226km/h | 11588m | -4m/s | -56.9°C | 62.4% | 215.8hPa | 2.5V | 07:52:45 | 02:49:58 | 00:00:00 | |
| BIOWL1-15 | 2026-09-03 13:09:19 | 53.11519 | 9.47259 | 128° | 224km/h | 11600m | -4.2m/s | -56.9°C | 61.5% | 215.4hPa | 2.6V | 07:52:45 | 02:49:55 | 00:00:00 | |
| GOEST3-10 | 2026-09-03 13:09:19 | 53.11451 | 9.47410 | 127° | 224km/h | 11592m | -3.8m/s | -56.9°C | 63.4% | 215.6hPa | 2.5V | 00:00:00 | 00:00:00 | 00:00:00 | |
| DF8AY-15 | 2026-09-03 13:09:18 | 53.11484 | 9.47334 | 128° | 210km/h | 11596m | -4.0m/s | -56.9°C | 63.2% | 215.5hPa | 2.5V | 00:00:00 | 02:49:56 | 00:00:00 | |
| DO2JMG | 2026-09-03 13:09:18 | 53.11484 | 9.47334 | 127° | 224km/h | 11596m | -4.1m/s | -56.9°C | 61.8% | 215.5hPa | 2.6V | 07:52:45 | 02:49:56 | 00:00:00 | |
| DL1XH1-15 | 2026-09-03 13:09:17 | 53.11554 | 9.47185 | 128° | 223km/h | 11604m | -4m/s | -57°C | 63.2% | 215.2hPa | 2.5V | 07:52:00 | 02:49:54 | 00:00:00 | |
| AA1-15 | 2026-09-03 13:09:12 | 53.11693 | 9.46901 | 130° | 214km/h | 11621m | -4.2m/s | -57°C | 60% | 214.6hPa | 2.6V | 07:52:45 | 02:49:50 | 00:00:00 | |
| DL1XH-west | 2026-09-03 13:09:10 | 53.11761 | 9.46765 | 130° | 206km/h | 11629m | -4.3m/s | -57.2°C | 59.6% | 214.4hPa | 2.5V | 07:52:45 | 02:49:48 | 00:00:00 | |
| DB0DAN | 2026-09-03 13:09:10 | 53.11761 | 9.46765 | 130° | 197km/h | 11629m | -4.3m/s | -57.2°C | 54% | 214.45hPa | 2.5V | 00:00:00 | 00:00:00 | 00:00:00 | |
| BIOWL1-15 | 2026-09-03 13:09:08 | 53.11887 | 9.46501 | 126° | 197km/h | 11646m | -4m/s | -57.2°C | 57.7% | 213.8hPa | 2.5V | 07:52:45 | 02:49:44 | 00:00:00 | |
| DO2JMG | 2026-09-03 13:09:08 | 53.11826 | 9.46633 | 129° | 201km/h | 11637m | -4.1m/s | -57.2°C | 58.9% | 214hPa | 2.6V | 07:52:45 | 02:49:46 | 00:00:00 | |
| DL1XH-15 | 2026-09-03 13:09:07 | 53.11916 | 9.46434 | 125° | 197km/h | 11650m | -4.3m/s | -57.3°C | 59.3% | 213.7hPa | 2.5V | 07:52:11 | 02:49:43 | 00:00:00 | |
| DL1XH1-15 | 2026-09-03 13:09:07 | 53.11887 | 9.46501 | 126° | 197km/h | 11645m | -4m/s | -57.2°C | 60.1% | 213.8hPa | 2.5V | 07:52:10 | 02:49:44 | 00:00:00 | |
| DF8AY | 2026-09-03 13:09:02 | 53.11999 | 9.46224 | 122° | 204km/h | 11662m | -4.1m/s | -57.4°C | 55.2% | 213.3hPa | 2.6V | 07:52:45 | 02:49:40 | 00:00:00 | |
| AA1-15 | 2026-09-03 13:09:01 | 53.12027 | 9.46150 | 122° | 210km/h | 11666m | -4.2m/s | -57.6°C | 54.6% | 213.2hPa | 2.5V | 07:52:45 | 02:49:39 | 00:00:00 | |
| DL1XH-west | 2026-09-03 13:08:59 | 53.12084 | 9.45998 | 122° | 219km/h | 11674m | -4m/s | -57.6°C | 53.1% | 212.9hPa | 2.5V | 07:52:45 | 02:49:37 | 00:00:00 | |
| BIOWL1-15 | 2026-09-03 13:08:58 | 53.12115 | 9.45920 | 123° | 223km/h | 11678m | -4.1m/s | -57.6°C | 52.4% | 212.8hPa | 2.6V | 07:52:45 | 02:49:36 | 00:00:00 | |
| DF8AY-15 | 2026-09-03 13:08:58 | 53.12114 | 9.45920 | 124° | 210km/h | 11679m | -4.1m/s | -57.5°C | 54.0% | 212.7hPa | 2.5V | 00:00:00 | 02:49:36 | 00:00:00 | |
| DL1XH-15 | 2026-09-03 13:08:57 | 53.12212 | 9.45688 | 126° | 224km/h | 11691m | -4m/s | -57.6°C | 53.3% | 212.3hPa | 2.5V | 07:52:21 | 02:49:33 | 00:00:00 | |
| DL1XH1-15 | 2026-09-03 13:08:57 | 53.12178 | 9.45764 | 125° | 226km/h | 11687m | -4m/s | -57.6°C | 53.3% | 212.5hPa | 2.5V | 07:52:20 | 02:49:34 | 00:00:00 | |
| DO2JMG | 2026-09-03 13:08:57 | 53.12146 | 9.45842 | 124° | 224km/h | 11683m | -4.2m/s | -57.6°C | 51.9% | 212.6hPa | 2.6V | 07:52:45 | 02:49:35 | 00:00:00 | |
| SONCRA | 2026-09-03 13:08:57 | 53.12146 | 9.45842 | 124° | 224km/h | 11683m | -4.2m/s | -57.6°C | 45.0% | 212.6hPa | 2.5V | 00:00:00 | 00:00:00 | 00:00:00 | |
| DB0DAN | 2026-09-03 13:08:55 | 53.12212 | 9.45688 | 127° | 215km/h | 11691m | -4m/s | -57.6°C | 44.4% | 212.31hPa | 2.5V | 00:00:00 | 00:00:00 | 00:00:00 | |
| DF8AY | 2026-09-03 13:08:51 | 53.12352 | 9.45399 | 130° | 215km/h | 11707m | -4m/s | -57.5°C | 47.2% | 211.8hPa | 2.5V | 07:52:45 | 02:49:29 | 00:00:00 | |
| DL1XH-west | 2026-09-03 13:08:48 | 53.12455 | 9.45197 | 130° | 204km/h | 11720m | -4.3m/s | -57.5°C | 45.2% | 211.3hPa | 2.6V | 07:52:45 | 02:49:26 | 00:00:00 | |
| DL1XH-15 | 2026-09-03 13:08:47 | 53.12551 | 9.45003 | 128° | 195km/h | 11732m | -4.3m/s | -57.5°C | 46.4% | 210.9hPa | 2.5V | 07:52:31 | 02:49:23 | 00:00:00 | |
| BIOWL1-15 | 2026-09-03 13:08:47 | 53.12488 | 9.45132 | 130° | 201km/h | 11724m | -4.2m/s | -57.5°C | 44.6% | 211.2hPa | 2.6V | 07:52:45 | 02:49:25 | 00:00:00 | |
| DO2JMG | 2026-09-03 13:08:46 | 53.12520 | 9.45068 | 129° | 197km/h | 11728m | -4.3m/s | -57.5°C | 44% | 211.1hPa | 2.5V | 07:52:45 | 02:49:24 | 00:00:00 | |
| AA1-15 | 2026-09-03 13:08:41 | 53.12668 | 9.44737 | 124° | 199km/h | 11749m | -4m/s | -57.5°C | 41.1% | 210.4hPa | 2.5V | 07:52:45 | 02:49:19 | 00:00:00 | |
| BUE01 | 2026-09-03 13:08:41 | 53.12697 | 9.44667 | 123° | 203km/h | 11753m | -3.9m/s | -57.5°C | 35.0% | 210.2hPa | 2.6V | 00:00:00 | 00:00:00 | 00:00:00 | |
| HTAHTA | 2026-09-03 13:08:40 | 53.12697 | 9.44667 | 123° | 203km/h | 11753m | -3.9m/s | -57.5°C | 35.0% | 210.2hPa | 2.6V | 00:00:00 | 00:00:00 | 00:00:00 | |
| DB0DAN | 2026-09-03 13:08:40 | 53.12697 | 9.44667 | 124° | 193km/h | 11753m | -3.9m/s | -57.5°C | 35% | 210.25hPa | 2.5V | 00:00:00 | 00:00:00 | 00:00:00 | |
| GOEST3-10 | 2026-09-03 13:08:39 | 53.12725 | 9.44595 | 124° | 214km/h | 11757m | -3.8m/s | -57.5°C | 42.3% | 210.0hPa | 2.6V | 00:00:00 | 00:00:00 | 00:00:00 | |
| DM0DOS-11 | 2026-09-03 13:08:38 | 53.12908 | 9.44144 | 125° | 221km/h | 11781m | -4.3m/s | -57.2°C | 37.5% | 209.3hPa | 2.6V | 07:52:43 | 02:49:11 | 00:00:00 | |
| BIOWL1-15 | 2026-09-03 13:08:38 | 53.12813 | 9.44371 | 124° | 217km/h | 11769m | -4.2m/s | -57.6°C | 38.9% | 209.7hPa | 2.5V | 07:52:45 | 02:49:14 | 00:00:00 | |
| DL1XH-west | 2026-09-03 13:08:37 | 53.12783 | 9.44447 | 123° | 214km/h | 11765m | -4m/s | -57.6°C | 39.4% | 209.8hPa | 2.6V | 07:52:45 | 02:49:15 | 00:00:00 | |
| DO2JMG | 2026-09-03 13:08:35 | 53.12844 | 9.44296 | 124° | 219km/h | 11773m | -4.3m/s | -57.4°C | 38.2% | 209.6hPa | 2.5V | 07:52:45 | 02:49:13 | 00:00:00 | |
| DF8AY | 2026-09-03 13:08:31 | 53.12974 | 9.43993 | 127° | 223km/h | 11790m | -4.2m/s | -57.2°C | 36.7% | 209hPa | 2.5V | 07:52:45 | 02:49:09 | 00:00:00 | |
| AA1-15 | 2026-09-03 13:08:30 | 53.13009 | 9.43920 | 128° | 221km/h | 11794m | -4m/s | -57.2°C | 36.5% | 208.9hPa | 2.5V | 07:53:36 | 02:49:08 | 00:00:00 | |
| DO2SHX-10 | 2026-09-03 13:08:29 | 53.13043 | 9.43847 | 129° | 215km/h | 11798m | -4.0m/s | -57.1°C | 37.5% | 208.7hPa | 2.5V | 00:00:00 | 02:49:07 | 00:00:00 | |
| DL1XH-15 | 2026-09-03 13:08:27 | 53.13182 | 9.43573 | 130° | 204km/h | 11814m | -4.1m/s | -57.2°C | 38.4% | 208.2hPa | 2.5V | 07:52:51 | 02:49:03 | 00:00:00 | |
| DL1XH-west | 2026-09-03 13:08:27 | 53.13113 | 9.43707 | 130° | 214km/h | 11806m | -4.1m/s | -57.2°C | 36.3% | 208.5hPa | 2.6V | 07:53:36 | 02:49:05 | 00:00:00 | |
| DO2JMG | 2026-09-03 13:08:25 | 53.13182 | 9.43573 | 131° | 204km/h | 11815m | -4.1m/s | -57.2°C | 36.2% | 208.2hPa | 2.5V | 07:53:36 | 02:49:03 | 00:00:00 | |
| DB0DAN | 2026-09-03 13:08:25 | 53.13182 | 9.43573 | 131° | 195km/h | 11815m | -4.1m/s | -57.2°C | 30.9% | 208.18hPa | 2.5V | 00:00:00 | 00:00:00 | 00:00:00 | |
| DF8AY | 2026-09-03 13:08:20 | 53.13342 | 9.43255 | 129° | 192km/h | 11836m | -4.4m/s | -57°C | 35.9% | 207.5hPa | 2.5V | 07:53:36 | 02:48:58 | 00:00:00 | |
| AA1-15 | 2026-09-03 13:08:19 | 53.13372 | 9.43192 | 128° | 190km/h | 11840m | -4.3m/s | -56.9°C | 35.8% | 207.4hPa | 2.5V | 07:53:36 | 02:48:57 | 00:00:00 | |
| DM0DOS-11 | 2026-09-03 13:08:18 | 53.13540 | 9.42803 | 123° | 192km/h | 11866m | -4.3m/s | -57°C | 34.6% | 206.4hPa | 2.6V | 07:53:03 | 02:48:51 | 00:00:00 | |
| DF8AY-15 | 2026-09-03 13:08:18 | 53.13402 | 9.43128 | 128° | 203km/h | 11845m | -4.3m/s | -56.9°C | 36.7% | 207.1hPa | 2.5V | 00:00:00 | 02:48:56 | 00:00:00 | |
| DL1XH1-15 | 2026-09-03 13:08:17 | 53.13459 | 9.43001 | 125° | 190km/h | 11854m | -4.3m/s | -56.9°C | 35.8% | 206.9hPa | 2.5V | 07:53:00 | 02:48:54 | 00:00:00 | |
| DL1XH-west | 2026-09-03 13:08:16 | 53.13459 | 9.43001 | 126° | 190km/h | 11854m | -4.3m/s | -56.9°C | 35.4% | 206.9hPa | 2.5V | 07:53:36 | 02:48:54 | 00:00:00 | |
| BIOWL1-15 | 2026-09-03 13:08:15 | 53.13486 | 9.42936 | 125° | 190km/h | 11858m | -4.3m/s | -56.9°C | 35.2% | 206.8hPa | 2.5V | 07:53:36 | 02:48:53 | 00:00:00 | |
| DO2JMG | 2026-09-03 13:08:14 | 53.13513 | 9.42870 | 124° | 190km/h | 11862m | -4.3m/s | -56.9°C | 35% | 206.6hPa | 2.5V | 07:53:36 | 02:48:52 | 00:00:00 | |
| DF8AY | 2026-09-03 13:08:10 | 53.13620 | 9.42593 | 122° | 203km/h | 11879m | -4.1m/s | -57°C | 34.4% | 206hPa | 2.5V | 07:53:36 | 02:48:48 | 00:00:00 | |
| DB0DAN | 2026-09-03 13:08:10 | 53.13620 | 9.42593 | 122° | 193km/h | 11879m | -4.1m/s | -57°C | 26.7% | 206.02hPa | 2.5V | 00:00:00 | 00:00:00 | 00:00:00 | |
| AA1-15 | 2026-09-03 13:08:08 | 53.13705 | 9.42371 | 124° | 214km/h | 11891m | -4m/s | -57.1°C | 33.8% | 205.6hPa | 2.6V | 07:53:36 | 02:48:45 | 00:00:00 | |
| DL1XH1-15 | 2026-09-03 13:08:08 | 53.13735 | 9.42296 | 124° | 215km/h | 11896m | -4m/s | -57.1°C | 33% | 205.5hPa | 2.5V | 07:53:10 | 02:48:44 | 00:00:00 | |
| DM0DOS-11 | 2026-09-03 13:08:08 | 53.13832 | 9.42075 | 127° | 215km/h | 11908m | -3.9m/s | -57°C | 33.2% | 205.1hPa | 2.6V | 07:53:13 | 02:48:41 | 00:00:00 | |
| DL1XH-west | 2026-09-03 13:08:05 | 53.13767 | 9.42221 | 125° | 217km/h | 11900m | -4.2m/s | -57.1°C | 33.5% | 205.4hPa | 2.5V | 07:53:36 | 02:48:43 | 00:00:00 | |
| BIOWL1-15 | 2026-09-03 13:08:04 | 53.13899 | 9.41934 | 129° | 212km/h | 11916m | -4.4m/s | -57°C | 33.4% | 204.9hPa | 2.5V | 07:53:36 | 02:48:39 | 00:00:00 | |
| DO2JMG | 2026-09-03 13:08:03 | 53.13832 | 9.42075 | 128° | 215km/h | 11908m | -3.9m/s | -57°C | 33.4% | 205.1hPa | 2.6V | 07:53:36 | 02:48:41 | 00:00:00 | |
| DF8AY | 2026-09-03 13:08:00 | 53.13967 | 9.41801 | 131° | 203km/h | 11925m | -4.2m/s | -57.1°C | 33.4% | 204.6hPa | 2.5V | 07:53:36 | 02:48:37 | 00:00:00 | |
| DO2SHX-10 | 2026-09-03 13:07:59 | 53.13967 | 9.41801 | 131° | 203km/h | 11925m | -4.1m/s | -57.0°C | 34.4% | 204.5hPa | 2.5V | 07:53:00 | 02:48:37 | 00:00:00 | |
| DF8AY-15 | 2026-09-03 13:07:58 | 53.14000 | 9.41736 | 131° | 199km/h | 11929m | -4.1m/s | -57.0°C | 34.4% | 204.4hPa | 2.5V | 00:00:00 | 02:48:36 | 00:00:00 | |
| DL1XH-15 | 2026-09-03 13:07:57 | 53.14093 | 9.41549 | 128° | 186km/h | 11941m | -4m/s | -57.2°C | 33.9% | 204hPa | 2.5V | 07:53:21 | 02:48:33 | 00:00:00 | |
| DL1XH1-15 | 2026-09-03 13:07:57 | 53.14063 | 9.41611 | 129° | 190km/h | 11937m | -4m/s | -57.1°C | 34.2% | 204.2hPa | 2.5V | 07:53:20 | 02:48:34 | 00:00:00 | |
| DF5WG-10 | 2026-09-03 13:07:57 | 53.14032 | 9.41673 | 131° | 173km/h | 11933m | -4.1m/s | -57.1°C | 34.6% | 204.3hPa | 2.6V | 00:00:00 | 02:48:35 | 00:00:00 | |
| AA1-15 | 2026-09-03 13:07:57 | 53.14063 | 9.41611 | 129° | 190km/h | 11937m | -4m/s | -57.2°C | 33.2% | 204.2hPa | 2.5V | 07:53:36 | 02:48:34 | 00:00:00 | |
| DM0DOS-11 | 2026-09-03 13:07:55 | 53.14148 | 9.41425 | 125° | 184km/h | 11949m | -4.1m/s | -57.4°C | 33.6% | 203.8hPa | 2.6V | 07:53:23 | 02:48:31 | 00:00:00 | |
| DB0DAN | 2026-09-03 13:07:55 | 53.14092 | 9.41550 | 128° | 177km/h | 11941m | -4m/s | -57.2°C | 27% | 204hPa | 2.5V | 00:00:00 | 00:00:00 | 00:00:00 | |
| DL1XH-west | 2026-09-03 13:07:54 | 53.14121 | 9.41487 | 127° | 184km/h | 11945m | -4m/s | -57.2°C | 33% | 203.9hPa | 2.5V | 07:53:36 | 02:48:32 | 00:00:00 | |
| DO2JMG | 2026-09-03 13:07:52 | 53.14175 | 9.41360 | 124° | 186km/h | 11953m | -4.1m/s | -57.3°C | 32.7% | 203.7hPa | 2.6V | 07:53:36 | 02:48:30 | 00:00:00 | |
| DF8AY | 2026-09-03 13:07:49 | 53.14254 | 9.41158 | 122° | 197km/h | 11966m | -3.9m/s | -57.6°C | 32.2% | 203.3hPa | 2.5V | 07:53:36 | 02:48:27 | 00:00:00 | |
| GOEST3-10 | 2026-09-03 13:07:48 | 53.14280 | 9.41087 | 123° | 208km/h | 11969m | -3.8m/s | -57.6°C | 32.2% | 203.1hPa | 2.6V | 07:53:00 | 00:00:00 | 00:00:00 | |
| DL1XH-15 | 2026-09-03 13:07:47 | 53.14365 | 9.40869 | 124° | 210km/h | 11981m | -3.8m/s | -57.6°C | 31.7% | 202.8hPa | 2.5V | 07:53:31 | 02:48:23 | 00:00:00 | |
| DL1XH1-15 | 2026-09-03 13:07:47 | 53.14336 | 9.40942 | 123° | 208km/h | 11977m | -4m/s | -57.6°C | 31.9% | 202.9hPa | 2.5V | 07:53:30 | 02:48:24 | 00:00:00 | |
| AA1-15 | 2026-09-03 13:07:46 | 53.14365 | 9.40869 | 124° | 210km/h | 11981m | -3.8m/s | -57.6°C | 31.3% | 202.8hPa | 2.5V | 07:53:36 | 02:48:23 | 00:00:00 | |
| BIOWL1-15 | 2026-09-03 13:07:45 | 53.14427 | 9.40724 | 126° | 212km/h | 11989m | -3.8m/s | -57.5°C | 30.7% | 202.6hPa | 2.6V | 07:53:36 | 02:48:21 | 00:00:00 | |
| DL1XH-west | 2026-09-03 13:07:44 | 53.14396 | 9.40796 | 125° | 212km/h | 11985m | -3.9m/s | -57.6°C | 31% | 202.6hPa | 2.5V | 07:53:36 | 02:48:22 | 00:00:00 | |
| DO2JMG | 2026-09-03 13:07:42 | 53.14459 | 9.40652 | 127° | 212km/h | 11993m | -4m/s | -57.4°C | 30.5% | 202.4hPa | 2.6V | 07:53:36 | 02:48:20 | 00:00:00 | |
| DB0DAN | 2026-09-03 13:07:40 | 53.14525 | 9.40512 | 129° | 201km/h | 12001m | -4.2m/s | -57.2°C | 23.6% | 202.18hPa | 2.5V | 00:00:00 | 00:00:00 | 00:00:00 | |
| DF8AY | 2026-09-03 13:07:38 | 53.14591 | 9.40376 | 130° | 206km/h | 12009m | -4.2m/s | -57.2°C | 29.7% | 201.9hPa | 2.6V | 07:54:27 | 02:48:16 | 00:00:00 | |
| DF8AY-15 | 2026-09-03 13:07:38 | 53.14591 | 9.40376 | 130° | 192km/h | 12009m | -4.2m/s | -57.2°C | 29.7% | 201.8hPa | 2.6V | 00:00:00 | 02:48:16 | 00:00:00 | |
| DL1XH-15 | 2026-09-03 13:07:37 | 53.14692 | 9.40181 | 130° | 201km/h | 12022m | -4.1m/s | -57.3°C | 30.1% | 201.4hPa | 2.5V | 07:53:41 | 02:48:13 | 00:00:00 | |
| DL1XH1-15 | 2026-09-03 13:07:37 | 53.14658 | 9.40245 | 130° | 203km/h | 12018m | -4.3m/s | -57.2°C | 30% | 201.6hPa | 2.5V | 07:53:40 | 02:48:14 | 00:00:00 | |
| DO9LL-15 | 2026-09-03 13:07:37 | 53.14625 | 9.40310 | 131° | 193km/h | 12014m | -4.2m/s | -57.2°C | 29.9% | 201.7hPa | 2.6V | 07:53:00 | 02:48:15 | 00:00:00 | |
| DM0DOS-11 | 2026-09-03 13:07:35 | 53.14758 | 9.40055 | 131° | 195km/h | 12030m | -4.2m/s | -57.2°C | 29.9% | 201.2hPa | 2.6V | 07:53:43 | 02:48:11 | 00:00:00 | |
| AA1-15 | 2026-09-03 13:07:35 | 53.14691 | 9.40181 | 131° | 201km/h | 12022m | -4.1m/s | -57.3°C | 29.5% | 201.4hPa | 2.5V | 07:54:27 | 02:48:13 | 00:00:00 | |
| DL1XH-west | 2026-09-03 13:07:34 | 53.14725 | 9.40118 | 131° | 199km/h | 12026m | -4.3m/s | -57.3°C | 29.3% | 201.3hPa | 2.5V | 07:54:27 | 02:48:12 | 00:00:00 | |
| BIOWL1-15 | 2026-09-03 13:07:32 | 53.14790 | 9.39994 | 131° | 193km/h | 12035m | -4.2m/s | -57.2°C | 29.2% | 201hPa | 2.6V | 07:54:27 | 02:48:10 | 00:00:00 | |
| DO2JMG | 2026-09-03 13:07:31 | 53.14822 | 9.39933 | 131° | 190km/h | 12039m | -4.2m/s | -57.2°C | 29% | 200.9hPa | 2.5V | 07:54:27 | 02:48:09 | 00:00:00 | |
| DO2SHX-10 | 2026-09-03 13:07:30 | 53.14853 | 9.39873 | 131° | 184km/h | 12044m | -4.3m/s | -57.2°C | 29.4% | 200.7hPa | 2.5V | 00:00:00 | 02:48:08 | 00:00:00 | |
| DM0DOS-11 | 2026-09-03 13:07:28 | 53.15049 | 9.39448 | 123° | 184km/h | 12073m | -4.2m/s | -57.5°C | 26.7% | 199.8hPa | 2.5V | 07:53:53 | 02:48:01 | 00:00:00 | |
| GOEST3-10 | 2026-09-03 13:07:28 | 53.14913 | 9.39755 | 130° | 181km/h | 12052m | -4.1m/s | -57.3°C | 28.6% | 200.4hPa | 2.6V | 00:00:00 | 00:00:00 | 00:00:00 | |
| DL1XH-15 | 2026-09-03 13:07:27 | 53.14996 | 9.39575 | 125° | 181km/h | 12064m | -4m/s | -57.4°C | 27.6% | 200.1hPa | 2.6V | 07:53:51 | 02:48:03 | 00:00:00 | |
| DF8AY | 2026-09-03 13:07:27 | 53.14942 | 9.39696 | 128° | 181km/h | 12056m | -4m/s | -57.4°C | 28.3% | 200.3hPa | 2.6V | 07:54:27 | 02:48:05 | 00:00:00 | |
| DO2SHX-10 | 2026-09-03 13:07:27 | 53.14942 | 9.39696 | 129° | 181km/h | 12056m | -4.0m/s | -57.3°C | 28.3% | 200.3hPa | 2.6V | 00:00:00 | 02:48:05 | 00:00:00 | |
| DB0DAN | 2026-09-03 13:07:25 | 53.14996 | 9.39575 | 126° | 172km/h | 12064m | -4m/s | -57.4°C | 21.4% | 200.06hPa | 2.6V | 00:00:00 | 00:00:00 | 00:00:00 | |
| AA1-15 | 2026-09-03 13:07:24 | 53.15023 | 9.39512 | 124° | 183km/h | 12068m | -4.2m/s | -57.4°C | 27.5% | 200hPa | 2.5V | 07:54:27 | 02:48:02 | 00:00:00 | |
| DL1XH-west | 2026-09-03 13:07:23 | 53.15048 | 9.39448 | 123° | 184km/h | 12073m | -4.3m/s | -57.5°C | 27.2% | 199.8hPa | 2.5V | 07:54:27 | 02:48:01 | 00:00:00 | |
| BIOWL1-15 | 2026-09-03 13:07:21 | 53.15100 | 9.39315 | 123° | 193km/h | 12081m | -3.9m/s | -57.6°C | 26.8% | 199.6hPa | 2.6V | 07:54:27 | 02:47:59 | 00:00:00 | |
| DF8AY | 2026-09-03 13:07:17 | 53.15401 | 9.38637 | 131° | 192km/h | 12120m | -3.9m/s | -57.8°C | 23.9% | 198.3hPa | 2.6V | 07:54:27 | 02:47:49 | 00:00:00 | |
| BIOWL9-15 | 2026-09-03 13:07:16 | 53.15274 | 9.38895 | 127° | 203km/h | 12105m | -3.9m/s | -57.9°C | 19.7% | 198.8hPa | 2.5V | 00:00:00 | 00:00:00 | 00:00:00 | |
| DM0DOS-11 | 2026-09-03 13:07:15 | 53.15337 | 9.38763 | 129° | 199km/h | 12113m | -3.8m/s | -57.9°C | 26% | 198.6hPa | 2.5V | 07:54:03 | 02:47:51 | 00:00:00 | |
| AA1-15 | 2026-09-03 13:07:14 | 53.15305 | 9.38828 | 129° | 201km/h | 12109m | -3.9m/s | -57.9°C | 24.8% | 198.7hPa | 2.5V | 07:54:27 | 02:47:52 | 00:00:00 | |
| DL1XH-west | 2026-09-03 13:07:12 | 53.15369 | 9.38699 | 130° | 195km/h | 12116m | -3.8m/s | -57.9°C | 24.2% | 198.5hPa | 2.5V | 07:54:27 | 02:47:50 | 00:00:00 | |
| BIOWL1-15 | 2026-09-03 13:07:10 | 53.15432 | 9.38576 | 131° | 190km/h | 12124m | -4m/s | -57.8°C | 23.6% | 198.2hPa | 2.6V | 07:54:27 | 02:47:48 | 00:00:00 | |
| DB0DAN | 2026-09-03 13:07:10 | 53.15432 | 9.38576 | 131° | 181km/h | 12124m | -4m/s | -57.8°C | 19% | 198.2hPa | 2.6V | 00:00:00 | 00:00:00 | 00:00:00 | |
| DO2SHX-10 | 2026-09-03 13:07:10 | 53.15432 | 9.38576 | 131° | 186km/h | 12124m | -4.0m/s | -57.8°C | 25.1% | 198.2hPa | 2.5V | 00:00:00 | 02:47:48 | 00:00:00 | |
| DM0DOS-11 | 2026-09-03 13:07:08 | 53.15646 | 9.38171 | 131° | 179km/h | 12154m | -4.3m/s | -57.9°C | 22.5% | 197.3hPa | 2.5V | 07:54:13 | 02:47:41 | 00:00:00 | |
| DL1XH1-15 | 2026-09-03 13:07:08 | 53.15555 | 9.38342 | 131° | 183km/h | 12141m | -4.2m/s | -57.8°C | 23.7% | 197.7hPa | 2.6V | 07:54:10 | 02:47:44 | 00:00:00 | |
| DF8AY | 2026-09-03 13:07:04 | 53.15616 | 9.38228 | 132° | 179km/h | 12149m | -4.3m/s | -57.8°C | 21.5% | 197.4hPa | 2.5V | 07:54:27 | 02:47:42 | 00:00:00 | |
| AA1-15 | 2026-09-03 13:07:03 | 53.15646 | 9.38171 | 132° | 179km/h | 12154m | -4.3m/s | -57.9°C | 21.1% | 197.3hPa | 2.5V | 07:54:27 | 02:47:41 | 00:00:00 | |
| DL1XH-west | 2026-09-03 13:07:02 | 53.15676 | 9.38116 | 132° | 177km/h | 12158m | -4.4m/s | -57.9°C | 20.7% | 197.1hPa | 2.5V | 07:54:27 | 02:47:40 | 00:00:00 | |
| DO2JMG | 2026-09-03 13:07:00 | 53.15736 | 9.38005 | 132° | 177km/h | 12167m | -4.6m/s | -57.9°C | 19.9% | 196.8hPa | 2.6V | 07:54:27 | 02:47:38 | 00:00:00 | |
| BIOWL1-15 | 2026-09-03 13:06:59 | 53.15765 | 9.37950 | 132° | 175km/h | 12172m | -4.5m/s | -57.9°C | 19.5% | 196.7hPa | 2.6V | 07:54:27 | 02:47:37 | 00:00:00 | |
| DF8AY-15 | 2026-09-03 13:06:58 | 53.15795 | 9.37896 | 133° | 164km/h | 12176m | -4.3m/s | -57.8°C | 20.7% | 196.5hPa | 2.5V | 00:00:00 | 02:47:36 | 00:00:00 | |
| DL1XH1-15 | 2026-09-03 13:06:57 | 53.15854 | 9.37788 | 132° | 170km/h | 12185m | -4.5m/s | -57.7°C | 19.8% | 196.3hPa | 2.5V | 07:54:20 | 02:47:34 | 00:00:00 | |
| DM0DOS-11 | 2026-09-03 13:06:55 | 53.15939 | 9.37631 | 131° | 164km/h | 12198m | -4.3m/s | -57.4°C | 18.4% | 195.8hPa | 2.6V | 07:54:23 | 02:47:31 | 00:00:00 | |
| DB0DAN | 2026-09-03 13:06:55 | 53.15882 | 9.37735 | 132° | 161km/h | 12189m | -4.5m/s | -57.6°C | 14% | 196.04hPa | 2.5V | 00:00:00 | 00:00:00 | 00:00:00 | |
| DF8AY | 2026-09-03 13:06:53 | 53.15939 | 9.37631 | 132° | 164km/h | 12198m | -4.3m/s | -57.4°C | 16.6% | 195.8hPa | 2.6V | 07:54:27 | 02:47:31 | 00:00:00 | |
| AA1-15 | 2026-09-03 13:06:52 | 53.15966 | 9.37579 | 132° | 162km/h | 12202m | -4.3m/s | -57.4°C | 16.2% | 195.7hPa | 2.5V | 07:54:27 | 02:47:30 | 00:00:00 | |
| DL1XH-west | 2026-09-03 13:06:51 | 53.15993 | 9.37528 | 131° | 161km/h | 12207m | -4.1m/s | -57.4°C | 15.8% | 195.6hPa | 2.5V | 07:54:27 | 02:47:29 | 00:00:00 | |
| BIOWL1-15 | 2026-09-03 13:06:49 | 53.16045 | 9.37427 | 130° | 157km/h | 12215m | -4.2m/s | -57.2°C | 15.1% | 195.3hPa | 2.6V | 07:54:27 | 02:47:27 | 00:00:00 | |
| DO2SHX-10 | 2026-09-03 13:06:49 | 53.16045 | 9.37427 | 130° | 155km/h | 12215m | -4.1m/s | -57.2°C | 17.0% | 195.2hPa | 2.6V | 00:00:00 | 02:47:27 | 00:00:00 | |
| DL4BBY-15 | 2026-09-03 13:06:48 | 53.16070 | 9.37376 | 129° | 150km/h | 12219m | -4.2m/s | -56.4°C | 0% | 0hPa | 2.5V | 00:00:00 | 00:00:00 | 00:00:00 | |
| DL1XH-15 | 2026-09-03 13:06:47 | 53.16140 | 9.37220 | 124° | 155km/h | 12232m | -4.1m/s | -57°C | 14.7% | 194.8hPa | 2.5V | 07:54:31 | 02:47:23 | 00:00:00 | |
| BIOWL9-15 | 2026-09-03 13:06:45 | 53.16162 | 9.37166 | 123° | 157km/h | 12237m | -4.2m/s | -56.9°C | 9.8% | 194.7hPa | 2.6V | 00:00:00 | 00:00:00 | 00:00:00 | |
| DF8AY | 2026-09-03 13:06:43 | 53.16185 | 9.37110 | 123° | 161km/h | 12240m | -4m/s | -56.9°C | 12.4% | 194.6hPa | 2.6V | 07:55:18 | 02:47:21 | 00:00:00 | |
| BIOWL1-15 | 2026-09-03 13:06:41 | 53.16280 | 9.36872 | 125° | 177km/h | 12256m | -3.8m/s | -56.5°C | 10.9% | 194.1hPa | 2.5V | 07:55:18 | 02:47:17 | 00:00:00 | |
| DL1XH-west | 2026-09-03 13:06:41 | 53.16230 | 9.36993 | 123° | 170km/h | 12248m | -3.7m/s | -56.6°C | 11.5% | 194.3hPa | 2.5V | 07:55:18 | 02:47:19 | 00:00:00 | |
| DB0DAN | 2026-09-03 13:06:40 | 53.16254 | 9.36933 | 124° | 166km/h | 12252m | -3.6m/s | -56.5°C | 8.3% | 194.22hPa | 2.5V | 00:00:00 | 00:00:00 | 00:00:00 | |
| DO2JMG | 2026-09-03 13:06:38 | 53.16306 | 9.36811 | 127° | 179km/h | 12260m | -3.8m/s | -56.5°C | 10.6% | 194hPa | 2.6V | 07:55:18 | 02:47:16 | 00:00:00 | |
| DF8AY-15 | 2026-09-03 13:06:38 | 53.16306 | 9.36811 | 127° | 157km/h | 12260m | -3.8m/s | -56.4°C | 12.0% | 194.0hPa | 2.6V | 00:00:00 | 02:47:16 | 00:00:00 | |
| DL1XH1-15 | 2026-09-03 13:06:37 | 53.16362 | 9.36693 | 129° | 177km/h | 12267m | -4m/s | -56.5°C | 11.7% | 193.8hPa | 2.6V | 07:54:40 | 02:47:14 | 00:00:00 | |
| DO9LL-15 | 2026-09-03 13:06:37 | 53.16334 | 9.36751 | 129° | 164km/h | 12264m | -3.8m/s | -56.5°C | 11.9% | 193.9hPa | 2.5V | 00:00:00 | 02:47:15 | 00:00:00 | |
| DM0DOS-11 | 2026-09-03 13:06:36 | 53.16448 | 9.36529 | 132° | 166km/h | 12279m | -3.8m/s | -56.3°C | 11.3% | 193.4hPa | 2.5V | 07:54:43 | 02:47:11 | 00:00:00 | |
| DF8AY | 2026-09-03 13:06:32 | 53.16476 | 9.36478 | 133° | 162km/h | 12283m | -3.8m/s | -56.2°C | 9.2% | 193.3hPa | 2.6V | 07:55:18 | 02:47:10 | 00:00:00 | |
| DL1XH-west | 2026-09-03 13:06:30 | 53.16531 | 9.36379 | 132° | 157km/h | 12290m | -3.9m/s | -56.1°C | 8.8% | 193.1hPa | 2.5V | 07:55:18 | 02:47:08 | 00:00:00 | |
| BIOWL1-15 | 2026-09-03 13:06:28 | 53.16582 | 9.36283 | 132° | 151km/h | 12298m | -3.9m/s | -56°C | 8.5% | 192.8hPa | 2.5V | 07:55:18 | 02:47:06 | 00:00:00 | |
| DO2JMG | 2026-09-03 13:06:27 | 53.16608 | 9.36235 | 131° | 150km/h | 12302m | -4m/s | -56°C | 8.4% | 192.7hPa | 2.6V | 07:55:18 | 02:47:05 | 00:00:00 | |
| DM0DOS-11 | 2026-09-03 13:06:26 | 53.16702 | 9.36047 | 127° | 142km/h | 12319m | -4.1m/s | -56°C | 9.9% | 192.2hPa | 2.5V | 07:54:53 | 02:47:01 | 00:00:00 | |
| DB0DAN | 2026-09-03 13:06:25 | 53.16656 | 9.36141 | 130° | 139km/h | 12311m | -4.1m/s | -56°C | 6.4% | 192.47hPa | 2.5V | 00:00:00 | 00:00:00 | 00:00:00 | |
| DF8AY | 2026-09-03 13:06:21 | 53.16744 | 9.35952 | 126° | 141km/h | 12327m | -4.3m/s | -56.1°C | 7.6% | 192hPa | 2.6V | 07:55:18 | 02:46:59 | 00:00:00 | |
| DL1XH-west | 2026-09-03 13:06:19 | 53.16785 | 9.35854 | 124° | 142km/h | 12336m | -4.3m/s | -56.1°C | 7.3% | 191.7hPa | 2.6V | 07:55:18 | 02:46:57 | 00:00:00 | |
| BIOWL1-15 | 2026-09-03 13:06:18 | 53.16804 | 9.35804 | 122° | 142km/h | 12340m | -4.1m/s | -56.2°C | 7.1% | 191.5hPa | 2.5V | 07:55:18 | 02:46:56 | 00:00:00 | |
| DL1XH-15 | 2026-09-03 13:06:17 | 53.16861 | 9.35645 | 119° | 150km/h | 12352m | -4.1m/s | -56.2°C | 8.4% | 191.2hPa | 2.6V | 07:55:01 | 02:46:53 | 00:00:00 | |
| DO2JMG | 2026-09-03 13:06:16 | 53.16843 | 9.35699 | 121° | 148km/h | 12348m | -4m/s | -56.2°C | 6.7% | 191.3hPa | 2.5V | 07:55:18 | 02:46:54 | 00:00:00 | |
| DF8AY | 2026-09-03 13:06:10 | 53.16961 | 9.35357 | 122° | 166km/h | 12372m | -3.9m/s | -56°C | 6% | 190.6hPa | 2.6V | 07:55:18 | 02:46:48 | 00:00:00 | |
| DB0DAN | 2026-09-03 13:06:10 | 53.16961 | 9.35357 | 122° | 159km/h | 12372m | -3.9m/s | -56°C | 4.7% | 190.56hPa | 2.6V | 00:00:00 | 00:00:00 | 00:00:00 | |
| AA1-15 | 2026-09-03 13:06:09 | 53.16984 | 9.35298 | 124° | 168km/h | 12376m | -3.7m/s | -55.9°C | 6% | 190.5hPa | 2.6V | 07:55:18 | 02:46:47 | 00:00:00 | |
| DM0DOS-11 | 2026-09-03 13:06:08 | 53.17134 | 9.34976 | 130° | 151km/h | 12398m | -3.9m/s | -56°C | 8.4% | 189.9hPa | 2.6V | 07:55:13 | 02:46:41 | 00:00:00 | |
| DL1XH-west | 2026-09-03 13:06:08 | 53.17008 | 9.35240 | 126° | 168km/h | 12380m | -3.5m/s | -56°C | 6% | 190.4hPa | 2.5V | 07:55:18 | 02:46:46 | 00:00:00 | |
| DL1XH1-15 | 2026-09-03 13:06:07 | 53.17058 | 9.35129 | 128° | 162km/h | 12387m | -3.8m/s | -56.1°C | 8.3% | 190.2hPa | 2.5V | 07:55:10 | 02:46:44 | 00:00:00 | |
| DO2JMG | 2026-09-03 13:06:06 | 53.17058 | 9.35129 | 128° | 162km/h | 12387m | -3.8m/s | -56.1°C | 5.9% | 190.2hPa | 2.5V | 07:55:18 | 02:46:44 | 00:00:00 | |
| DF8AY | 2026-09-03 13:06:00 | 53.17206 | 9.34834 | 130° | 141km/h | 12411m | -4.2m/s | -56°C | 5.9% | 189.5hPa | 2.5V | 07:55:18 | 02:46:38 | 00:00:00 | |
| AA1-15 | 2026-09-03 13:05:58 | 53.17250 | 9.34744 | 128° | 135km/h | 12419m | -4.1m/s | -55.9°C | 5.9% | 189.2hPa | 2.6V | 07:55:18 | 02:46:36 | 00:00:00 | |
| DF8AY-15 | 2026-09-03 13:05:58 | 53.17250 | 9.34744 | 129° | 148km/h | 12419m | -4.1m/s | -55.8°C | 8.2% | 189.2hPa | 2.5V | 07:55:00 | 02:46:36 | 00:00:00 | |
| DL1XH-15 | 2026-09-03 13:05:57 | 53.17309 | 9.34608 | 123° | 131km/h | 12431m | -4.2m/s | -55.8°C | 8% | 188.8hPa | 2.5V | 07:55:21 | 02:46:33 | 00:00:00 | |
| DL1XH1-15 | 2026-09-03 13:05:57 | 53.17290 | 9.34654 | 125° | 133km/h | 12427m | -4.1m/s | -55.8°C | 8.1% | 189hPa | 2.5V | 07:55:20 | 02:46:34 | 00:00:00 | |
| DL1XH-west | 2026-09-03 13:05:57 | 53.17271 | 9.34699 | 127° | 133km/h | 12423m | -4.2m/s | -55.8°C | 5.8% | 189.1hPa | 2.6V | 07:56:09 | 02:46:35 | 00:00:00 | |
| DD1CC8 | 2026-09-03 13:05:56 | 53.17309 | 9.34608 | 123° | 131km/h | 12431m | -4.2m/s | -55.8°C | 4.7% | 188.8hPa | 2.6V | 00:00:00 | 00:00:00 | 00:00:00 | |
| DM0DOS-11 | 2026-09-03 13:05:55 | 53.17344 | 9.34512 | 119° | 135km/h | 12439m | -4m/s | -55.9°C | 7.9% | 188.6hPa | 2.6V | 07:55:23 | 02:46:31 | 00:00:00 | |
| DO2JMG | 2026-09-03 13:05:55 | 53.17309 | 9.34608 | 124° | 131km/h | 12431m | -4.2m/s | -55.8°C | 5.8% | 188.8hPa | 2.5V | 07:56:09 | 02:46:33 | 00:00:00 | |
| DB0DAN | 2026-09-03 13:05:55 | 53.17309 | 9.34608 | 124° | 126km/h | 12431m | -4.2m/s | -55.8°C | 4.7% | 188.85hPa | 2.5V | 00:00:00 | 00:00:00 | 00:00:00 | |
| DF8AY | 2026-09-03 13:05:49 | 53.17412 | 9.34300 | 118° | 151km/h | 12455m | -3.7m/s | -56°C | 5.5% | 188.1hPa | 2.5V | 07:57:00 | 02:46:27 | 00:00:00 | |
| AA1-15 | 2026-09-03 13:05:48 | 53.17431 | 9.34242 | 119° | 157km/h | 12459m | -3.6m/s | -56°C | 5.5% | 188hPa | 2.5V | 07:56:09 | 02:46:26 | 00:00:00 | |
| GOEST3-10 | 2026-09-03 13:05:48 | 53.17431 | 9.34242 | 120° | 161km/h | 12459m | -3.6m/s | -56.0°C | 7.6% | 188.0hPa | 2.5V | 07:55:00 | 00:00:00 | 00:00:00 | |
| DL1XH1-15 | 2026-09-03 13:05:47 | 53.17472 | 9.34127 | 121° | 162km/h | 12467m | -3.9m/s | -56°C | 7.6% | 187.8hPa | 2.6V | 07:55:30 | 02:46:24 | 00:00:00 | |
| DL1XH-15 | 2026-09-03 13:05:47 | 53.17494 | 9.34069 | 123° | 162km/h | 12471m | -3.8m/s | -56°C | 7.6% | 187.7hPa | 2.6V | 07:55:31 | 02:46:23 | 00:00:00 | |
| BIOWL1-15 | 2026-09-03 13:05:46 | 53.17472 | 9.34127 | 122° | 162km/h | 12467m | -3.9m/s | -56°C | 5.4% | 187.8hPa | 2.6V | 07:56:09 | 02:46:24 | 00:00:00 | |
| DO2JMG | 2026-09-03 13:05:44 | 53.17517 | 9.34013 | 125° | 162km/h | 12475m | -3.8m/s | -56°C | 5.4% | 187.6hPa | 2.5V | 07:56:09 | 02:46:22 | 00:00:00 | |
| GOEST3-10 | 2026-09-03 13:05:43 | 53.17541 | 9.33958 | 127° | 153km/h | 12479m | -3.7m/s | -56.0°C | 7.7% | 187.4hPa | 2.6V | 00:00:00 | 02:46:21 | 00:00:00 | |
| DL1LOL-11 | 2026-09-03 13:05:42 | 53.17541 | 9.33958 | 127° | 161km/h | 12479m | -3.7m/s | -56.0°C | 4.4% | 187.5hPa | 2.6V | 00:00:00 | 00:00:00 | 00:00:00 | |
| DB0DAN | 2026-09-03 13:05:40 | 53.17613 | 9.33802 | 129° | 142km/h | 12490m | -3.7m/s | -56.1°C | 4.6% | 187.13hPa | 2.6V | 00:00:00 | 00:00:00 | 00:00:00 | |
| AA1-15 | 2026-09-03 13:05:38 | 53.17659 | 9.33707 | 128° | 141km/h | 12497m | -3.7m/s | -56.1°C | 5.6% | 186.9hPa | 2.5V | 07:56:09 | 02:46:16 | 00:00:00 | |
| DF8AY-15 | 2026-09-03 13:05:38 | 53.17658 | 9.33707 | 129° | 135km/h | 12497m | -3.6m/s | -56.1°C | 8.1% | 186.9hPa | 2.5V | 00:00:00 | 02:46:16 | 00:00:00 | |
| DL1XH1-15 | 2026-09-03 13:05:37 | 53.17701 | 9.33616 | 127° | 133km/h | 12505m | -3.8m/s | -56.1°C | 8.1% | 186.7hPa | 2.5V | 07:55:40 | 02:46:14 | 00:00:00 | |
| DL1XH-15 | 2026-09-03 13:05:37 | 53.17721 | 9.33571 | 126° | 131km/h | 12508m | -3.9m/s | -56.1°C | 8.2% | 186.6hPa | 2.6V | 07:55:41 | 02:46:13 | 00:00:00 | |
| BIOWL1-15 | 2026-09-03 13:05:36 | 53.17701 | 9.33616 | 127° | 133km/h | 12505m | -3.8m/s | -56.1°C | 5.5% | 186.7hPa | 2.5V | 07:56:09 | 02:46:14 | 00:00:00 | |
| DO2JMG | 2026-09-03 13:05:34 | 53.17740 | 9.33526 | 125° | 130km/h | 12513m | -4m/s | -56.2°C | 5.6% | 186.5hPa | 2.6V | 07:56:09 | 02:46:12 | 00:00:00 | |
| AA1-15 | 2026-09-03 13:05:28 | 53.17844 | 9.33252 | 119° | 128km/h | 12537m | -4.2m/s | -56.1°C | 5.5% | 185.7hPa | 2.6V | 07:56:09 | 02:46:06 | 00:00:00 | |
| DF8AY | 2026-09-03 13:05:27 | 53.17859 | 9.33205 | 118° | 128km/h | 12541m | -4.1m/s | -56.2°C | 5.3% | 185.6hPa | 2.5V | 07:57:00 | 02:46:05 | 00:00:00 | |
| DL1XH-15 | 2026-09-03 13:05:27 | 53.17888 | 9.33107 | 115° | 131km/h | 12549m | -4.3m/s | -56.2°C | 7.5% | 185.3hPa | 2.5V | 07:55:51 | 02:46:03 | 00:00:00 | |
| DL1XH1-15 | 2026-09-03 13:05:27 | 53.17874 | 9.33156 | 116° | 130km/h | 12545m | -4.3m/s | -56.2°C | 7.6% | 185.4hPa | 2.5V | 07:55:50 | 02:46:04 | 00:00:00 | |
| DL1XH-west | 2026-09-03 13:05:26 | 53.17874 | 9.33157 | 117° | 130km/h | 12545m | -4.3m/s | -56.2°C | 5.3% | 185.4hPa | 2.5V | 07:56:09 | 02:46:04 | 00:00:00 | |
| BIOWL1-15 | 2026-09-03 13:05:25 | 53.17888 | 9.33107 | 116° | 131km/h | 12549m | -4.3m/s | -56.3°C | 5.2% | 185.4hPa | 2.5V | 07:56:09 | 02:46:03 | 00:00:00 | |
| DB0DAN | 2026-09-03 13:05:25 | 53.17888 | 9.33107 | 116° | 126km/h | 12549m | -4.3m/s | -56.3°C | 4.2% | 185.36hPa | 2.5V | 00:00:00 | 00:00:00 | 00:00:00 | |
| DO2JMG | 2026-09-03 13:05:23 | 53.17917 | 9.33005 | 114° | 137km/h | 12558m | -4.3m/s | -56.3°C | 5% | 185.1hPa | 2.6V | 07:56:09 | 02:46:01 | 00:00:00 | |
| GOEST3-10 | 2026-09-03 13:05:23 | 53.17917 | 9.33005 | 115° | 146km/h | 12558m | -4.2m/s | -56.3°C | 7.3% | 185.1hPa | 2.5V | 00:00:00 | 02:46:01 | 00:00:00 | |
| DL3AQ-11 | 2026-09-03 13:05:22 | 53.17945 | 9.32896 | 113° | 144km/h | 12566m | -4.1m/s | -56.3°C | 4.0% | 184.8hPa | 2.5V | 00:00:00 | 00:00:00 | 00:00:00 | |
| DJ2DS-15 | 2026-09-03 13:05:21 | 53.17945 | 9.32896 | 114° | 141km/h | 12567m | -4.1m/s | -56.3°C | 7.2% | 184.8hPa | 2.5V | 00:00:00 | 02:45:59 | 00:00:00 | |
| SONCRA | 2026-09-03 13:05:19 | 53.17977 | 9.32782 | 115° | 153km/h | 12575m | -4.0m/s | -56.3°C | 4.0% | 184.6hPa | 2.5V | 00:00:00 | 00:00:00 | 00:00:00 | |
| DL1XH-15 | 2026-09-03 13:05:18 | 53.18054 | 9.32554 | 123° | 153km/h | 12589m | -3.8m/s | -56.4°C | 7.5% | 184.2hPa | 2.5V | 07:56:01 | 02:45:53 | 00:00:00 | |
| DL1XH1-15 | 2026-09-03 13:05:17 | 53.18033 | 9.32609 | 121° | 155km/h | 12586m | -3.6m/s | -56.3°C | 7.4% | 184.3hPa | 2.6V | 07:56:00 | 02:45:54 | 00:00:00 | |
| AA1-15 | 2026-09-03 13:05:17 | 53.18013 | 9.32666 | 119° | 157km/h | 12582m | -3.6m/s | -56.3°C | 4.8% | 184.4hPa | 2.6V | 07:56:09 | 02:45:55 | 00:00:00 | |
| DL1XH-west | 2026-09-03 13:05:15 | 53.18054 | 9.32554 | 123° | 153km/h | 12589m | -3.8m/s | -56.4°C | 4.9% | 184.2hPa | 2.5V | 07:56:09 | 02:45:53 | 00:00:00 | |
| BIOWL1-15 | 2026-09-03 13:05:14 | 53.18075 | 9.32501 | 124° | 150km/h | 12593m | -3.8m/s | -56.4°C | 4.9% | 184.1hPa | 2.5V | 07:56:09 | 02:45:52 | 00:00:00 | |
| DO2JMG | 2026-09-03 13:05:12 | 53.18117 | 9.32401 | 125° | 141km/h | 12601m | -3.8m/s | -56.4°C | 4.9% | 183.9hPa | 2.5V | 07:56:09 | 02:45:50 | 00:00:00 | |
| DF8AY | 2026-09-03 13:05:11 | 53.18221 | 9.32118 | 117° | 128km/h | 12625m | -3.9m/s | -56.2°C | 4.7% | 183.2hPa | 2.5V | 07:57:00 | 02:45:44 | 00:00:00 | |
| DB0DAN | 2026-09-03 13:05:10 | 53.18156 | 9.32306 | 123° | 126km/h | 12609m | -3.9m/s | -56.3°C | 4.3% | 183.71hPa | 2.6V | 00:00:00 | 00:00:00 | 00:00:00 | |
| DL4BBY-15 | 2026-09-03 13:05:09 | 53.18173 | 9.32259 | 122° | 141km/h | 12614m | -3.8m/s | -55.5°C | 0% | 0hPa | 2.5V | 00:00:00 | 00:00:00 | 00:00:00 | |
| DO2SHX-10 | 2026-09-03 13:05:08 | 53.18190 | 9.32212 | 121° | 128km/h | 12617m | -3.8m/s | -56.2°C | 7.7% | 183.4hPa | 2.5V | 00:00:00 | 02:45:46 | 00:00:00 | |
| DL1XH1-15 | 2026-09-03 13:05:07 | 53.18221 | 9.32118 | 117° | 128km/h | 12625m | -3.9m/s | -56.2°C | 7.6% | 183.2hPa | 2.5V | 07:56:10 | 02:45:44 | 00:00:00 | |
| DL1XH-15 | 2026-09-03 13:05:07 | 53.18235 | 9.32070 | 115° | 128km/h | 12629m | -4.1m/s | -56.3°C | 7.5% | 183.1hPa | 2.6V | 07:56:11 | 02:45:43 | 00:00:00 | |
| AA1-15 | 2026-09-03 13:05:07 | 53.18206 | 9.32165 | 119° | 128km/h | 12621m | -3.9m/s | -56.3°C | 4.8% | 183.3hPa | 2.5V | 07:56:09 | 02:45:45 | 00:00:00 | |
| BIOWL1-15 | 2026-09-03 13:05:05 | 53.18337 | 9.31649 | 110° | 148km/h | 12663m | -4.2m/s | -56.3°C | 4.2% | 182.1hPa | 2.6V | 07:57:00 | 02:45:35 | 00:00:00 | |
| DL1XH-west | 2026-09-03 13:05:04 | 53.18249 | 9.32021 | 114° | 128km/h | 12633m | -4.1m/s | -56.3°C | 4.7% | 183.1hPa | 2.6V | 07:57:00 | 02:45:42 | 00:00:00 | |
| DO2JMG | 2026-09-03 13:05:02 | 53.18275 | 9.31921 | 112° | 131km/h | 12641m | -4.2m/s | -56.3°C | 4.5% | 182.8hPa | 2.5V | 07:57:00 | 02:45:40 | 00:00:00 | |
| DO2SHX-10 | 2026-09-03 13:05:02 | 53.18275 | 9.31921 | 113° | 133km/h | 12641m | -4.1m/s | -56.2°C | 7.3% | 182.7hPa | 2.6V | 00:00:00 | 02:45:40 | 00:00:00 | |
| DM0DOS-11 | 2026-09-03 13:05:01 | 53.18324 | 9.31706 | 110° | 142km/h | 12659m | -4.4m/s | -56.3°C | 6.9% | 182.2hPa | 2.6V | 07:56:18 | 02:45:36 | 00:00:00 | |
| HTAHTA | 2026-09-03 13:04:58 | 53.18350 | 9.31590 | 111° | 150km/h | 12667m | -4.1m/s | -56.2°C | 3.6% | 182.0hPa | 2.5V | 00:00:00 | 00:00:00 | 00:00:00 | |
| DL1XH1-15 | 2026-09-03 13:04:57 | 53.18350 | 9.31590 | 111° | 151km/h | 12667m | -4.1m/s | -56.2°C | 6.8% | 182hPa | 2.5V | 07:56:20 | 02:45:34 | 00:00:00 | |
| DL1XH-15 | 2026-09-03 13:04:57 | 53.18365 | 9.31531 | 112° | 155km/h | 12671m | -3.9m/s | -56.2°C | 6.6% | 181.8hPa | 2.5V | 07:56:21 | 02:45:33 | 00:00:00 | |
| AA1-15 | 2026-09-03 13:04:56 | 53.18350 | 9.31590 | 111° | 151km/h | 12667m | -4.1m/s | -56.2°C | 4.1% | 182hPa | 2.5V | 07:57:00 | 02:45:34 | 00:00:00 | |
| DF8AY | 2026-09-03 13:04:56 | 53.18365 | 9.31531 | 113° | 155km/h | 12671m | -3.9m/s | -56.2°C | 4% | 181.9hPa | 2.5V | 07:57:00 | 02:45:33 | 00:00:00 | |
| DB0DAN | 2026-09-03 13:04:55 | 53.18365 | 9.31531 | 113° | 148km/h | 12671m | -3.9m/s | -56.2°C | 3.5% | 181.86hPa | 2.5V | 00:00:00 | 00:00:00 | 00:00:00 | |
| DL1XH-west | 2026-09-03 13:04:53 | 53.18397 | 9.31410 | 116° | 159km/h | 12679m | -4.1m/s | -56.1°C | 3.9% | 181.6hPa | 2.6V | 07:57:00 | 02:45:31 | 00:00:00 | |
| BIOWL1-15 | 2026-09-03 13:04:52 | 53.18415 | 9.31349 | 117° | 161km/h | 12683m | -4.1m/s | -56.1°C | 3.9% | 181.5hPa | 2.6V | 07:57:00 | 02:45:30 | 00:00:00 | |
| DB0NH | 2026-09-03 13:04:52 | 53.18415 | 9.31349 | 117° | 146km/h | 12684m | -4.0m/s | -56.0°C | 6.5% | 181.5hPa | 2.5V | 00:00:00 | 02:45:30 | 00:00:00 | |
| DO2SHX-10 | 2026-09-03 13:04:50 | 53.18453 | 9.31232 | 121° | 157km/h | 12692m | -4.2m/s | -56.0°C | 6.6% | 181.3hPa | 2.5V | 07:56:00 | 02:45:28 | 00:00:00 | |
| GOEST3-10 | 2026-09-03 13:04:48 | 53.18494 | 9.31119 | 123° | 146km/h | 12700m | -4.2m/s | -55.8°C | 6.6% | 181.0hPa | 2.5V | 00:00:00 | 00:00:00 | 00:00:00 | |
| DL1XH-15 | 2026-09-03 13:04:47 | 53.18555 | 9.30962 | 123° | 142km/h | 12713m | -4.2m/s | -55.9°C | 6.8% | 180.7hPa | 2.6V | 07:56:31 | 02:45:23 | 00:00:00 | |
| AA1-15 | 2026-09-03 13:04:46 | 53.18536 | 9.31013 | 123° | 146km/h | 12709m | -4.4m/s | -55.9°C | 3.8% | 180.8hPa | 2.6V | 07:57:00 | 02:45:24 | 00:00:00 | |
| DF8AY | 2026-09-03 13:04:45 | 53.18575 | 9.30913 | 122° | 137km/h | 12717m | -3.9m/s | -55.9°C | 3.8% | 180.6hPa | 2.5V | 07:57:00 | 02:45:22 | 00:00:00 | |
| DL1XH-west | 2026-09-03 13:04:43 | 53.18593 | 9.30864 | 121° | 133km/h | 12721m | -3.9m/s | -55.9°C | 3.8% | 180.5hPa | 2.5V | 07:57:00 | 02:45:21 | 00:00:00 | |
| BIOWL1-15 | 2026-09-03 13:04:41 | 53.18625 | 9.30769 | 117° | 128km/h | 12729m | -4m/s | -55.9°C | 3.7% | 180.2hPa | 2.6V | 07:57:00 | 02:45:19 | 00:00:00 | |
| DB0DAN | 2026-09-03 13:04:40 | 53.18639 | 9.30720 | 116° | 122km/h | 12733m | -4.1m/s | -55.9°C | 3.4% | 180.1hPa | 2.6V | 00:00:00 | 00:00:00 | 00:00:00 | |
| SMARD9-15 | 2026-09-03 13:04:39 | 53.18666 | 9.30621 | 112° | 130km/h | 12742m | -4.3m/s | -55.9°C | 3.3% | 179.9hPa | 2.6V | 00:00:00 | 00:00:00 | 00:00:00 | |
| EDDB2-12 | 2026-09-03 13:04:38 | 53.18678 | 9.30570 | 111° | 131km/h | 12746m | -4.4m/s | -55.9°C | 3.2% | 179.7hPa | 2.6V | 00:00:00 | 00:00:00 | 00:00:00 | |
| DL1XH-15 | 2026-09-03 13:04:37 | 53.18702 | 9.30462 | 110° | 141km/h | 12755m | -4.4m/s | -55.9°C | 6.1% | 179.5hPa | 2.6V | 07:56:41 | 02:45:13 | 00:00:00 | |
| AA1-15 | 2026-09-03 13:04:36 | 53.18690 | 9.30517 | 110° | 137km/h | 12751m | -4.5m/s | -55.9°C | 3.3% | 179.6hPa | 2.5V | 07:57:00 | 02:45:14 | 00:00:00 | |
| DF8AY | 2026-09-03 13:04:33 | 53.18727 | 9.30348 | 111° | 150km/h | 12764m | -4.2m/s | -55.9°C | 3.2% | 179.3hPa | 2.6V | 07:57:00 | 02:45:11 | 00:00:00 | |
| DL1XH-west | 2026-09-03 13:04:32 | 53.18741 | 9.30289 | 112° | 153km/h | 12768m | -3.9m/s | -55.9°C | 3.2% | 179.2hPa | 2.5V | 07:57:00 | 02:45:10 | 00:00:00 | |
| BIOWL1-15 | 2026-09-03 13:04:31 | 53.18757 | 9.30229 | 114° | 157km/h | 12772m | -3.8m/s | -55.9°C | 3.1% | 179.1hPa | 2.5V | 07:57:00 | 02:45:09 | 00:00:00 | |
| DO2JMG | 2026-09-03 13:04:30 | 53.18773 | 9.30168 | 115° | 159km/h | 12776m | -4m/s | -55.9°C | 3.1% | 178.9hPa | 2.5V | 07:57:00 | 02:45:08 | 00:00:00 | |
| DO2SHX-10 | 2026-09-03 13:04:29 | 53.18791 | 9.30108 | 117° | 159km/h | 12780m | -4.0m/s | -55.9°C | 6.2% | 178.8hPa | 2.6V | 00:00:00 | 02:45:07 | 00:00:00 | |
| GOEST3-10 | 2026-09-03 13:04:28 | 53.18809 | 9.30049 | 119° | 155km/h | 12784m | -4.0m/s | -55.9°C | 6.2% | 178.7hPa | 2.5V | 07:56:00 | 00:00:00 | 00:00:00 | |
| DL1XH-15 | 2026-09-03 13:04:27 | 53.18869 | 9.29879 | 122° | 153km/h | 12796m | -4.3m/s | -55.9°C | 6.3% | 178.4hPa | 2.5V | 07:56:51 | 02:45:03 | 00:00:00 | |
| AA1-15 | 2026-09-03 13:04:26 | 53.18849 | 9.29934 | 121° | 155km/h | 12792m | -4.2m/s | -55.9°C | 3.1% | 178.5hPa | 2.5V | 07:57:00 | 02:45:04 | 00:00:00 | |
| DB0DAN | 2026-09-03 13:04:25 | 53.18869 | 9.29879 | 122° | 146km/h | 12796m | -4.3m/s | -55.9°C | 3.1% | 178.38hPa | 2.5V | 00:00:00 | 00:00:00 | 00:00:00 | |
| DL1XH-west | 2026-09-03 13:04:22 | 53.18930 | 9.29723 | 124° | 142km/h | 12809m | -4.2m/s | -55.8°C | 3% | 178hPa | 2.6V | 07:57:00 | 02:45:00 | 00:00:00 | |
| DM0DOS-11 | 2026-09-03 13:04:22 | 53.19004 | 9.29533 | 121° | 126km/h | 12827m | -4.3m/s | -55.4°C | 5.9% | 177.5hPa | 2.5V | 07:56:58 | 02:44:56 | 00:00:00 | |
| DF8AY | 2026-09-03 13:04:22 | 53.18950 | 9.29673 | 124° | 139km/h | 12813m | -4.4m/s | -55.7°C | 2.9% | 177.9hPa | 2.6V | 07:57:00 | 02:44:59 | 00:00:00 | |
| DO2JMG | 2026-09-03 13:04:20 | 53.18969 | 9.29626 | 123° | 133km/h | 12818m | -4.4m/s | -55.6°C | 2.9% | 177.7hPa | 2.5V | 07:57:00 | 02:44:58 | 00:00:00 | |
| AA1-15 | 2026-09-03 13:04:15 | 53.19048 | 9.29395 | 115° | 124km/h | 12839m | -4.1m/s | -55.3°C | 2.5% | 177.1hPa | 2.5V | 07:57:51 | 02:44:53 | 00:00:00 | |
| DL1XH-west | 2026-09-03 13:04:12 | 53.19085 | 9.29245 | 111° | 135km/h | 12852m | -4.2m/s | -55.2°C | 2.4% | 176.8hPa | 2.5V | 07:57:51 | 02:44:50 | 00:00:00 | |
| DF8AY | 2026-09-03 13:04:11 | 53.19097 | 9.29191 | 110° | 139km/h | 12856m | -4.2m/s | -55.2°C | 2.4% | 176.7hPa | 2.6V | 07:57:51 | 02:44:49 | 00:00:00 | |
| DO2JMG | 2026-09-03 13:04:10 | 53.19110 | 9.29135 | 111° | 142km/h | 12860m | -4.3m/s | -55.3°C | 2.3% | 176.6hPa | 2.6V | 07:57:51 | 02:44:48 | 00:00:00 | |
| DM0DOS-11 | 2026-09-03 13:04:09 | 53.19137 | 9.29021 | 112° | 150km/h | 12869m | -4.1m/s | -55.2°C | 5.3% | 176.3hPa | 2.5V | 07:57:08 | 02:44:46 | 00:00:00 | |
| DL4BBY-15 | 2026-09-03 13:04:09 | 53.19123 | 9.29078 | 112° | 135km/h | 12865m | -4.2m/s | -54.4°C | 0% | 0hPa | 2.5V | 00:00:00 | 00:00:00 | 00:00:00 | |
| GOEST3-10 | 2026-09-03 13:04:08 | 53.19137 | 9.29021 | 113° | 151km/h | 12869m | -4.1m/s | -55.1°C | 5.3% | 176.3hPa | 2.5V | 00:00:00 | 00:00:00 | 00:00:00 | |
| DL1XH1-15 | 2026-09-03 13:04:07 | 53.19169 | 9.28905 | 116° | 153km/h | 12877m | -4.2m/s | -55.2°C | 5.4% | 176.1hPa | 2.5V | 07:57:10 | 02:44:44 | 00:00:00 | |
| AA1-15 | 2026-09-03 13:04:05 | 53.19187 | 9.28848 | 118° | 151km/h | 12881m | -4.2m/s | -55.2°C | 2.2% | 176hPa | 2.6V | 07:57:51 | 02:44:43 | 00:00:00 | |
| DL1XH-west | 2026-09-03 13:04:01 | 53.19264 | 9.28636 | 123° | 141km/h | 12898m | -4.1m/s | -55°C | 2.2% | 175.5hPa | 2.5V | 07:57:51 | 02:44:39 | 00:00:00 | |
| DF8AY | 2026-09-03 13:04:00 | 53.19283 | 9.28587 | 124° | 137km/h | 12902m | -4.2m/s | -54.9°C | 2.2% | 175.4hPa | 2.5V | 07:57:51 | 02:44:38 | 00:00:00 | |
| DO2JMG | 2026-09-03 13:03:59 | 53.19303 | 9.28540 | 124° | 133km/h | 12906m | -4.2m/s | -54.9°C | 2.2% | 175.3hPa | 2.6V | 07:57:51 | 02:44:37 | 00:00:00 | |
| DF8AY-15 | 2026-09-03 13:03:58 | 53.19321 | 9.28495 | 125° | 130km/h | 12910m | -4.3m/s | -54.7°C | 5.4% | 175.2hPa | 2.5V | 00:00:00 | 02:44:36 | 00:00:00 | |
| DL1XH1-15 | 2026-09-03 13:03:57 | 53.19357 | 9.28407 | 123° | 124km/h | 12919m | -4.5m/s | -54.6°C | 5.3% | 174.9hPa | 2.5V | 07:57:20 | 02:44:34 | 00:00:00 | |
| AA1-15 | 2026-09-03 13:03:54 | 53.19390 | 9.28321 | 122° | 117km/h | 12928m | -4.4m/s | -54.6°C | 2.2% | 174.7hPa | 2.5V | 07:57:51 | 02:44:32 | 00:00:00 | |
| DL1XH-west | 2026-09-03 13:03:51 | 53.19432 | 9.28194 | 115° | 115km/h | 12941m | -4.4m/s | -54.8°C | 2% | 174.3hPa | 2.5V | 07:57:51 | 02:44:29 | 00:00:00 | |
| BIOWL1-15 | 2026-09-03 13:03:50 | 53.19465 | 9.28055 | 110° | 124km/h | 12954m | -4.2m/s | -55°C | 1.9% | 173.9hPa | 2.5V | 07:57:51 | 02:44:26 | 00:00:00 | |
| DO2JMG | 2026-09-03 13:03:49 | 53.19454 | 9.28103 | 111° | 120km/h | 12950m | -4.4m/s | -54.9°C | 1.9% | 174.1hPa | 2.5V | 07:57:51 | 02:44:27 | 00:00:00 | |
| DL1XH1-15 | 2026-09-03 13:03:47 | 53.19487 | 9.27952 | 109° | 135km/h | 12963m | -4.1m/s | -54.9°C | 4.9% | 173.7hPa | 2.6V | 07:57:30 | 02:44:24 | 00:00:00 | |
| AA1-15 | 2026-09-03 13:03:44 | 53.19512 | 9.27842 | 112° | 144km/h | 12971m | -4.2m/s | -54.9°C | 1.9% | 173.5hPa | 2.5V | 07:57:51 | 02:44:22 | 00:00:00 | |
| GOEST3-10 | 2026-09-03 13:03:43 | 53.19526 | 9.27785 | 114° | 144km/h | 12975m | -4.2m/s | -54.8°C | 5.0% | 173.4hPa | 2.5V | 00:00:00 | 02:44:21 | 00:00:00 | |
| DM0DOS-11 | 2026-09-03 13:03:41 | 53.19629 | 9.27475 | 122° | 128km/h | 13000m | -4.2m/s | -55.1°C | 5.5% | 172.7hPa | 2.5V | 07:57:39 | 02:44:15 | 00:00:00 | |
| DL1XH-west | 2026-09-03 13:03:41 | 53.19558 | 9.27675 | 118° | 146km/h | 12984m | -4.3m/s | -54.9°C | 2% | 173.2hPa | 2.5V | 07:57:51 | 02:44:19 | 00:00:00 | |
| DO2JMG | 2026-09-03 13:03:39 | 53.19594 | 9.27571 | 121° | 139km/h | 12992m | -4.1m/s | -55°C | 2.2% | 172.9hPa | 2.6V | 07:57:51 | 02:44:17 | 00:00:00 | |
| BIOWL1-15 | 2026-09-03 13:03:38 | 53.19612 | 9.27522 | 122° | 133km/h | 12996m | -4.1m/s | -55°C | 2.2% | 172.8hPa | 2.6V | 07:57:51 | 02:44:16 | 00:00:00 | |
| DF8AY-15 | 2026-09-03 13:03:38 | 53.19612 | 9.27522 | 123° | 124km/h | 12996m | -4.0m/s | -55.0°C | 5.5% | 172.8hPa | 2.6V | 00:00:00 | 02:44:16 | 00:00:00 | |
| DL1XH-15 | 2026-09-03 13:03:37 | 53.19663 | 9.27387 | 121° | 119km/h | 13009m | -4.2m/s | -55.1°C | 5.6% | 172.5hPa | 2.5V | 07:57:41 | 02:44:13 | 00:00:00 | |
| AA1-15 | 2026-09-03 13:03:34 | 53.19678 | 9.27345 | 120° | 115km/h | 13013m | -4.4m/s | -55.1°C | 2.3% | 172.4hPa | 2.6V | 07:57:51 | 02:44:12 | 00:00:00 | |
| DL1XH-west | 2026-09-03 13:03:32 | 53.19718 | 9.27219 | 115° | 111km/h | 13026m | -4.6m/s | -55.1°C | 2.1% | 172hPa | 2.5V | 07:57:51 | 02:44:09 | 00:00:00 | |
| DO2JMG | 2026-09-03 13:03:29 | 53.19739 | 9.27133 | 110° | 113km/h | 13035m | -4.3m/s | -55.1°C | 2.1% | 171.8hPa | 2.5V | 07:57:51 | 02:44:07 | 00:00:00 | |
| DO2SHX-10 | 2026-09-03 13:03:28 | 53.19749 | 9.27088 | 109° | 119km/h | 13040m | -4.4m/s | -55.1°C | 5.2% | 171.6hPa | 2.6V | 00:00:00 | 02:44:06 | 00:00:00 | |
| DL1XH1-15 | 2026-09-03 13:03:27 | 53.19767 | 9.26992 | 106° | 124km/h | 13048m | -4.2m/s | -55.2°C | 5.2% | 171.4hPa | 2.6V | 07:57:50 | 02:44:04 | 00:00:00 | |
| BIOWL1-15 | 2026-09-03 13:03:27 | 53.19758 | 9.27041 | 107° | 119km/h | 13044m | -4.4m/s | -55.2°C | 2% | 171.6hPa | 2.6V | 07:57:51 | 02:44:05 | 00:00:00 | |
| AP2371 | 2026-09-03 13:03:26 | 53.19758 | 9.27041 | 108° | 119km/h | 13044m | -4.4m/s | -55.2°C | 0% | 0hPa | 2.5V | 07:57:00 | 00:00:00 | 00:00:00 | |
| DB0DAN | 2026-09-03 13:03:25 | 53.19776 | 9.26942 | 107° | 122km/h | 13052m | -4.2m/s | -55.2°C | 2.3% | 171.31hPa | 2.5V | 00:00:00 | 00:00:00 | 00:00:00 | |
| AA1-15 | 2026-09-03 13:03:23 | 53.19796 | 9.26836 | 109° | 137km/h | 13061m | -4.3m/s | -55.2°C | 2% | 171.1hPa | 2.5V | 07:58:42 | 02:44:01 | 00:00:00 | |
| GOEST3-10 | 2026-09-03 13:03:23 | 53.19796 | 9.26836 | 110° | 139km/h | 13061m | -4.3m/s | -55.1°C | 5.3% | 171.0hPa | 2.5V | 00:00:00 | 02:44:01 | 00:00:00 | |
| DB0NH | 2026-09-03 13:03:22 | 53.19808 | 9.26781 | 111° | 128km/h | 13065m | -4.1m/s | -55.1°C | 5.3% | 170.9hPa | 2.5V | 00:00:00 | 02:44:00 | 00:00:00 | |
| DM0DOS-11 | 2026-09-03 13:03:21 | 53.19884 | 9.26519 | 119° | 135km/h | 13086m | -4.3m/s | -54.9°C | 5.2% | 170.4hPa | 2.5V | 07:57:59 | 02:43:55 | 00:00:00 | |
| DL1XH-west | 2026-09-03 13:03:20 | 53.19836 | 9.26673 | 115° | 141km/h | 13073m | -4.1m/s | -55.1°C | 2% | 170.8hPa | 2.6V | 07:58:42 | 02:43:58 | 00:00:00 | |
| DO2JMG | 2026-09-03 13:03:18 | 53.19867 | 9.26569 | 119° | 137km/h | 13082m | -4.1m/s | -55°C | 2% | 170.5hPa | 2.5V | 07:58:42 | 02:43:56 | 00:00:00 | |
| DF8AY-15 | 2026-09-03 13:03:18 | 53.19867 | 9.26569 | 119° | 120km/h | 13082m | -4.1m/s | -54.9°C | 5.2% | 170.5hPa | 2.5V | 07:57:00 | 02:43:56 | 00:00:00 | |
| DL1XH1-15 | 2026-09-03 13:03:17 | 53.19902 | 9.26470 | 120° | 133km/h | 13090m | -4.5m/s | -54.9°C | 5.2% | 170.3hPa | 2.5V | 07:58:00 | 02:43:54 | 00:00:00 | |
| Es werden nur die letzten 3500 von 10125 Frames angezeigt. GPX/KML und Diagramme bleiben verfügbar. | |||||||||||||||